<?xml version='1.0' encoding='UTF-8'?><gpx version="1.1" creator="JPX - https://github.com/jenetics/jpx" xmlns="http://www.topografix.com/GPX/1/1"><trk><trkseg><trkpt lat="45.609965" lon="9.4271859"><ele>200.33333333333334</ele><time>2026-04-05T08:50:56.722Z</time></trkpt><trkpt lat="45.6099524" lon="9.4270717"><ele>200.66666666666669</ele><time>2026-04-05T08:50:59.722Z</time></trkpt><trkpt lat="45.6099558" lon="9.4269738"><ele>201.0</ele><time>2026-04-05T08:51:01.722Z</time></trkpt><trkpt lat="45.6099657" lon="9.4268352"><ele>201.33333333333331</ele><time>2026-04-05T08:51:04.723Z</time></trkpt><trkpt lat="45.6099655" lon="9.4267154"><ele>201.66666666666666</ele><time>2026-04-05T08:51:06.723Z</time></trkpt><trkpt lat="45.6099105" lon="9.4266609"><ele>202.0</ele><time>2026-04-05T08:51:08.723Z</time></trkpt><trkpt lat="45.6098395" lon="9.4266379"><ele>202.0</ele><time>2026-04-05T08:51:10.723Z</time></trkpt><trkpt lat="45.6097713" lon="9.4266235"><ele>202.0</ele><time>2026-04-05T08:51:12.723Z</time></trkpt><trkpt lat="45.6097451" lon="9.4265151"><ele>202.0</ele><time>2026-04-05T08:51:15.723Z</time></trkpt><trkpt lat="45.6097443" lon="9.4263968"><ele>202.0</ele><time>2026-04-05T08:51:18.722Z</time></trkpt><trkpt lat="45.6097429" lon="9.4262907"><ele>202.0</ele><time>2026-04-05T08:51:20.723Z</time></trkpt><trkpt lat="45.6097349" lon="9.4261897"><ele>202.0</ele><time>2026-04-05T08:51:22.722Z</time></trkpt><trkpt lat="45.6097113" lon="9.4260998"><ele>202.0</ele><time>2026-04-05T08:51:25.723Z</time></trkpt><trkpt lat="45.6096454" lon="9.4260513"><ele>201.99999999999997</ele><time>2026-04-05T08:51:46.723Z</time></trkpt><trkpt lat="45.6095642" lon="9.4260246"><ele>202.0</ele><time>2026-04-05T08:51:49.723Z</time></trkpt><trkpt lat="45.6094971" lon="9.425993"><ele>202.0</ele><time>2026-04-05T08:51:51.723Z</time></trkpt><trkpt lat="45.6094206" lon="9.4259769"><ele>202.0</ele><time>2026-04-05T08:51:53.723Z</time></trkpt><trkpt lat="45.6093327" lon="9.4259607"><ele>201.99999999999997</ele><time>2026-04-05T08:51:55.723Z</time></trkpt><trkpt lat="45.6092426" lon="9.4259541"><ele>202.0</ele><time>2026-04-05T08:51:57.723Z</time></trkpt><trkpt lat="45.6091482" lon="9.4259598"><ele>201.49999999999997</ele><time>2026-04-05T08:51:59.723Z</time></trkpt><trkpt lat="45.6090624" lon="9.4259567"><ele>201.0</ele><time>2026-04-05T08:52:01.723Z</time></trkpt><trkpt lat="45.608975" lon="9.4259547"><ele>200.5</ele><time>2026-04-05T08:52:03.722Z</time></trkpt><trkpt lat="45.6089001" lon="9.4260199"><ele>200.0</ele><time>2026-04-05T08:52:06.723Z</time></trkpt><trkpt lat="45.6088273" lon="9.42603"><ele>199.49999999999997</ele><time>2026-04-05T08:52:08.723Z</time></trkpt><trkpt lat="45.6087358" lon="9.4260303"><ele>199.0</ele><time>2026-04-05T08:52:10.723Z</time></trkpt><trkpt lat="45.6086405" lon="9.4260257"><ele>198.39999999999998</ele><time>2026-04-05T08:52:12.722Z</time></trkpt><trkpt lat="45.6085653" lon="9.4260224"><ele>197.8</ele><time>2026-04-05T08:52:14.723Z</time></trkpt><trkpt lat="45.6084624" lon="9.4260206"><ele>197.2</ele><time>2026-04-05T08:52:16.722Z</time></trkpt><trkpt lat="45.6083668" lon="9.426016"><ele>196.60000000000002</ele><time>2026-04-05T08:52:18.723Z</time></trkpt><trkpt lat="45.6082744" lon="9.426006"><ele>196.0</ele><time>2026-04-05T08:52:20.722Z</time></trkpt><trkpt lat="45.6081796" lon="9.4259992"><ele>196.0</ele><time>2026-04-05T08:52:22.722Z</time></trkpt><trkpt lat="45.6080912" lon="9.4259967"><ele>196.0</ele><time>2026-04-05T08:52:24.723Z</time></trkpt><trkpt lat="45.6080026" lon="9.4259918"><ele>196.0</ele><time>2026-04-05T08:52:26.723Z</time></trkpt><trkpt lat="45.6079087" lon="9.4259935"><ele>196.0</ele><time>2026-04-05T08:52:28.723Z</time></trkpt><trkpt lat="45.6078081" lon="9.4259865"><ele>196.0</ele><time>2026-04-05T08:52:30.723Z</time></trkpt><trkpt lat="45.6077071" lon="9.4259728"><ele>195.83333333333331</ele><time>2026-04-05T08:52:32.722Z</time></trkpt><trkpt lat="45.6076087" lon="9.4259642"><ele>195.66666666666666</ele><time>2026-04-05T08:52:34.722Z</time></trkpt><trkpt lat="45.6075294" lon="9.4260021"><ele>195.5</ele><time>2026-04-05T08:52:36.723Z</time></trkpt><trkpt lat="45.6074888" lon="9.4260883"><ele>195.33333333333331</ele><time>2026-04-05T08:52:38.723Z</time></trkpt><trkpt lat="45.6074781" lon="9.4261796"><ele>195.16666666666666</ele><time>2026-04-05T08:52:40.723Z</time></trkpt><trkpt lat="45.6074691" lon="9.4262869"><ele>195.0</ele><time>2026-04-05T08:52:42.723Z</time></trkpt><trkpt lat="45.6074555" lon="9.4264101"><ele>195.0</ele><time>2026-04-05T08:52:44.722Z</time></trkpt><trkpt lat="45.6074389" lon="9.4265152"><ele>195.0</ele><time>2026-04-05T08:52:46.723Z</time></trkpt><trkpt lat="45.6074223" lon="9.4266104"><ele>195.0</ele><time>2026-04-05T08:52:48.723Z</time></trkpt><trkpt lat="45.6074141" lon="9.4267041"><ele>195.0</ele><time>2026-04-05T08:52:50.722Z</time></trkpt><trkpt lat="45.6073948" lon="9.4268308"><ele>195.0</ele><time>2026-04-05T08:52:53.723Z</time></trkpt><trkpt lat="45.6073776" lon="9.4269503"><ele>195.0</ele><time>2026-04-05T08:52:56.723Z</time></trkpt><trkpt lat="45.6073467" lon="9.4270526"><ele>195.0</ele><time>2026-04-05T08:52:58.723Z</time></trkpt><trkpt lat="45.6073059" lon="9.4271716"><ele>195.0</ele><time>2026-04-05T08:53:00.722Z</time></trkpt><trkpt lat="45.6072914" lon="9.4273106"><ele>195.0</ele><time>2026-04-05T08:53:02.723Z</time></trkpt><trkpt lat="45.6072757" lon="9.427479"><ele>195.0</ele><time>2026-04-05T08:53:04.723Z</time></trkpt><trkpt lat="45.60727" lon="9.427611"><ele>195.0</ele><time>2026-04-05T08:53:06.723Z</time></trkpt><trkpt lat="45.6072661" lon="9.42773"><ele>195.0</ele><time>2026-04-05T08:53:08.723Z</time></trkpt><trkpt lat="45.6072744" lon="9.4278611"><ele>195.0</ele><time>2026-04-05T08:53:10.722Z</time></trkpt><trkpt lat="45.6072758" lon="9.4279896"><ele>195.0</ele><time>2026-04-05T08:53:12.723Z</time></trkpt><trkpt lat="45.6072683" lon="9.4281239"><ele>195.0</ele><time>2026-04-05T08:53:14.723Z</time></trkpt><trkpt lat="45.6072604" lon="9.4282704"><ele>195.0</ele><time>2026-04-05T08:53:16.722Z</time></trkpt><trkpt lat="45.6072544" lon="9.428424"><ele>195.0</ele><time>2026-04-05T08:53:18.723Z</time></trkpt><trkpt lat="45.607246" lon="9.4285653"><ele>195.0</ele><time>2026-04-05T08:53:20.722Z</time></trkpt><trkpt lat="45.6072463" lon="9.4287149"><ele>195.0</ele><time>2026-04-05T08:53:22.723Z</time></trkpt><trkpt lat="45.6072392" lon="9.4288573"><ele>195.0</ele><time>2026-04-05T08:53:24.723Z</time></trkpt><trkpt lat="45.6072407" lon="9.4290056"><ele>195.0</ele><time>2026-04-05T08:53:26.723Z</time></trkpt><trkpt lat="45.607229" lon="9.4291563"><ele>195.0</ele><time>2026-04-05T08:53:28.722Z</time></trkpt><trkpt lat="45.6072146" lon="9.4293031"><ele>195.0</ele><time>2026-04-05T08:53:30.723Z</time></trkpt><trkpt lat="45.6071952" lon="9.4294561"><ele>195.0</ele><time>2026-04-05T08:53:32.723Z</time></trkpt><trkpt lat="45.6071763" lon="9.4295979"><ele>195.0</ele><time>2026-04-05T08:53:34.723Z</time></trkpt><trkpt lat="45.6071294" lon="9.4297556"><ele>195.0</ele><time>2026-04-05T08:53:36.723Z</time></trkpt><trkpt lat="45.6070854" lon="9.4298798"><ele>195.14285714285714</ele><time>2026-04-05T08:53:38.723Z</time></trkpt><trkpt lat="45.6070471" lon="9.4299543"><ele>195.28571428571428</ele><time>2026-04-05T08:53:39.723Z</time></trkpt><trkpt lat="45.6070334" lon="9.430048"><ele>195.42857142857144</ele><time>2026-04-05T08:53:40.723Z</time></trkpt><trkpt lat="45.6070292" lon="9.4301466"><ele>195.57142857142856</ele><time>2026-04-05T08:53:41.723Z</time></trkpt><trkpt lat="45.6070284" lon="9.4302448"><ele>195.71428571428572</ele><time>2026-04-05T08:53:42.723Z</time></trkpt><trkpt lat="45.6070296" lon="9.4303516"><ele>195.85714285714286</ele><time>2026-04-05T08:53:43.722Z</time></trkpt><trkpt lat="45.6070272" lon="9.430459"><ele>196.0</ele><time>2026-04-05T08:53:44.723Z</time></trkpt><trkpt lat="45.6070182" lon="9.4305579"><ele>196.25</ele><time>2026-04-05T08:53:45.723Z</time></trkpt><trkpt lat="45.6069906" lon="9.4308941"><ele>196.5</ele><time>2026-04-05T08:53:46.723Z</time></trkpt><trkpt lat="45.6069604" lon="9.4310129"><ele>196.75</ele><time>2026-04-05T08:53:48.723Z</time></trkpt><trkpt lat="45.6069677" lon="9.4311103"><ele>197.0</ele><time>2026-04-05T08:53:50.723Z</time></trkpt><trkpt lat="45.6070353" lon="9.4311783"><ele>197.00000000000003</ele><time>2026-04-05T08:53:52.723Z</time></trkpt><trkpt lat="45.6071044" lon="9.4312078"><ele>197.0</ele><time>2026-04-05T08:53:54.722Z</time></trkpt><trkpt lat="45.6071754" lon="9.4312384"><ele>197.0</ele><time>2026-04-05T08:53:56.723Z</time></trkpt><trkpt lat="45.6072578" lon="9.4312883"><ele>197.0</ele><time>2026-04-05T08:53:58.723Z</time></trkpt><trkpt lat="45.607314" lon="9.4313935"><ele>197.00000000000003</ele><time>2026-04-05T08:54:00.723Z</time></trkpt><trkpt lat="45.6073206" lon="9.4315326"><ele>197.0</ele><time>2026-04-05T08:54:02.723Z</time></trkpt><trkpt lat="45.6073164" lon="9.4316545"><ele>197.0</ele><time>2026-04-05T08:54:04.723Z</time></trkpt><trkpt lat="45.6073467" lon="9.4317631"><ele>197.0</ele><time>2026-04-05T08:54:06.723Z</time></trkpt><trkpt lat="45.6074314" lon="9.4318341"><ele>197.0</ele><time>2026-04-05T08:54:08.723Z</time></trkpt><trkpt lat="45.6075375" lon="9.4318638"><ele>197.0</ele><time>2026-04-05T08:54:10.723Z</time></trkpt><trkpt lat="45.6076399" lon="9.4318893"><ele>197.0</ele><time>2026-04-05T08:54:12.723Z</time></trkpt><trkpt lat="45.6077404" lon="9.4319209"><ele>197.2</ele><time>2026-04-05T08:54:14.723Z</time></trkpt><trkpt lat="45.6078467" lon="9.4319491"><ele>197.39999999999998</ele><time>2026-04-05T08:54:16.723Z</time></trkpt><trkpt lat="45.607953" lon="9.4319727"><ele>197.60000000000002</ele><time>2026-04-05T08:54:18.723Z</time></trkpt><trkpt lat="45.6080535" lon="9.4319597"><ele>197.8</ele><time>2026-04-05T08:54:20.722Z</time></trkpt><trkpt lat="45.6081483" lon="9.4319007"><ele>198.0</ele><time>2026-04-05T08:54:22.722Z</time></trkpt><trkpt lat="45.6082401" lon="9.4318398"><ele>198.0</ele><time>2026-04-05T08:54:24.722Z</time></trkpt><trkpt lat="45.6083518" lon="9.4318038"><ele>198.0</ele><time>2026-04-05T08:54:26.723Z</time></trkpt><trkpt lat="45.6084589" lon="9.4317861"><ele>198.0</ele><time>2026-04-05T08:54:28.723Z</time></trkpt><trkpt lat="45.6085631" lon="9.4318208"><ele>198.0</ele><time>2026-04-05T08:54:29.723Z</time></trkpt><trkpt lat="45.6086692" lon="9.4318406"><ele>198.0</ele><time>2026-04-05T08:54:31.723Z</time></trkpt><trkpt lat="45.6087744" lon="9.4318806"><ele>197.4</ele><time>2026-04-05T08:54:33.723Z</time></trkpt><trkpt lat="45.608879" lon="9.431927"><ele>196.8</ele><time>2026-04-05T08:54:35.723Z</time></trkpt><trkpt lat="45.6089854" lon="9.4319804"><ele>196.2</ele><time>2026-04-05T08:54:37.723Z</time></trkpt><trkpt lat="45.6090873" lon="9.4320345"><ele>195.6</ele><time>2026-04-05T08:54:39.722Z</time></trkpt><trkpt lat="45.6091838" lon="9.4320836"><ele>195.0</ele><time>2026-04-05T08:54:41.722Z</time></trkpt><trkpt lat="45.6092967" lon="9.4321292"><ele>195.2</ele><time>2026-04-05T08:54:43.723Z</time></trkpt><trkpt lat="45.6094011" lon="9.4321679"><ele>195.4</ele><time>2026-04-05T08:54:45.723Z</time></trkpt><trkpt lat="45.609502" lon="9.4322097"><ele>195.60000000000002</ele><time>2026-04-05T08:54:47.723Z</time></trkpt><trkpt lat="45.6096085" lon="9.4322484"><ele>195.8</ele><time>2026-04-05T08:54:49.723Z</time></trkpt><trkpt lat="45.609721" lon="9.4322848"><ele>196.0</ele><time>2026-04-05T08:54:51.723Z</time></trkpt><trkpt lat="45.6098273" lon="9.4322953"><ele>196.0</ele><time>2026-04-05T08:54:53.723Z</time></trkpt><trkpt lat="45.6099267" lon="9.4322711"><ele>196.0</ele><time>2026-04-05T08:54:55.723Z</time></trkpt><trkpt lat="45.6100313" lon="9.432243"><ele>196.0</ele><time>2026-04-05T08:54:57.723Z</time></trkpt><trkpt lat="45.6101444" lon="9.432251"><ele>196.0</ele><time>2026-04-05T08:54:59.722Z</time></trkpt><trkpt lat="45.6102515" lon="9.4322782"><ele>196.0</ele><time>2026-04-05T08:55:01.722Z</time></trkpt><trkpt lat="45.6103397" lon="9.4322282"><ele>196.20000000000002</ele><time>2026-04-05T08:55:03.722Z</time></trkpt><trkpt lat="45.6104187" lon="9.4321421"><ele>196.4</ele><time>2026-04-05T08:55:05.722Z</time></trkpt><trkpt lat="45.6105022" lon="9.4320512"><ele>196.6</ele><time>2026-04-05T08:55:07.723Z</time></trkpt><trkpt lat="45.610583" lon="9.4319799"><ele>196.8</ele><time>2026-04-05T08:55:09.723Z</time></trkpt><trkpt lat="45.6106789" lon="9.4319333"><ele>197.0</ele><time>2026-04-05T08:55:11.723Z</time></trkpt><trkpt lat="45.6107772" lon="9.4319435"><ele>197.39999999999998</ele><time>2026-04-05T08:55:13.722Z</time></trkpt><trkpt lat="45.6108818" lon="9.4319642"><ele>197.79999999999998</ele><time>2026-04-05T08:55:15.722Z</time></trkpt><trkpt lat="45.6109821" lon="9.4319863"><ele>198.2</ele><time>2026-04-05T08:55:17.723Z</time></trkpt><trkpt lat="45.6110834" lon="9.4319962"><ele>198.6</ele><time>2026-04-05T08:55:19.723Z</time></trkpt><trkpt lat="45.6111857" lon="9.4319906"><ele>199.0</ele><time>2026-04-05T08:55:21.723Z</time></trkpt><trkpt lat="45.6112917" lon="9.4319888"><ele>199.6</ele><time>2026-04-05T08:55:23.723Z</time></trkpt><trkpt lat="45.611399" lon="9.4319798"><ele>200.2</ele><time>2026-04-05T08:55:25.723Z</time></trkpt><trkpt lat="45.6114907" lon="9.431997"><ele>200.79999999999998</ele><time>2026-04-05T08:55:27.723Z</time></trkpt><trkpt lat="45.6115803" lon="9.4320371"><ele>201.39999999999998</ele><time>2026-04-05T08:55:29.723Z</time></trkpt><trkpt lat="45.6116651" lon="9.43211"><ele>202.0</ele><time>2026-04-05T08:55:31.723Z</time></trkpt><trkpt lat="45.6117448" lon="9.4322267"><ele>202.0</ele><time>2026-04-05T08:55:33.723Z</time></trkpt><trkpt lat="45.6118538" lon="9.4322781"><ele>202.0</ele><time>2026-04-05T08:55:35.722Z</time></trkpt><trkpt lat="45.6119699" lon="9.4322958"><ele>202.0</ele><time>2026-04-05T08:55:37.723Z</time></trkpt><trkpt lat="45.6120793" lon="9.4323027"><ele>202.0</ele><time>2026-04-05T08:55:39.723Z</time></trkpt><trkpt lat="45.6121924" lon="9.4323137"><ele>202.25</ele><time>2026-04-05T08:55:41.722Z</time></trkpt><trkpt lat="45.6123033" lon="9.4323424"><ele>202.5</ele><time>2026-04-05T08:55:43.722Z</time></trkpt><trkpt lat="45.6124231" lon="9.4323589"><ele>202.75</ele><time>2026-04-05T08:55:45.723Z</time></trkpt><trkpt lat="45.6125345" lon="9.4323726"><ele>203.0</ele><time>2026-04-05T08:55:47.723Z</time></trkpt><trkpt lat="45.6126476" lon="9.4323903"><ele>203.0</ele><time>2026-04-05T08:55:49.723Z</time></trkpt><trkpt lat="45.6127578" lon="9.4324182"><ele>203.0</ele><time>2026-04-05T08:55:51.723Z</time></trkpt><trkpt lat="45.6128621" lon="9.4324521"><ele>203.0</ele><time>2026-04-05T08:55:53.723Z</time></trkpt><trkpt lat="45.6129748" lon="9.4325022"><ele>203.0</ele><time>2026-04-05T08:55:55.723Z</time></trkpt><trkpt lat="45.613081" lon="9.4325548"><ele>203.0</ele><time>2026-04-05T08:55:57.722Z</time></trkpt><trkpt lat="45.6131815" lon="9.4326125"><ele>203.0</ele><time>2026-04-05T08:55:59.723Z</time></trkpt><trkpt lat="45.6132937" lon="9.4326711"><ele>203.0</ele><time>2026-04-05T08:56:01.723Z</time></trkpt><trkpt lat="45.6134014" lon="9.4327258"><ele>203.0</ele><time>2026-04-05T08:56:03.723Z</time></trkpt><trkpt lat="45.6135093" lon="9.4327873"><ele>203.0</ele><time>2026-04-05T08:56:05.722Z</time></trkpt><trkpt lat="45.6136222" lon="9.432826"><ele>203.0</ele><time>2026-04-05T08:56:07.723Z</time></trkpt><trkpt lat="45.6137337" lon="9.4328478"><ele>203.0</ele><time>2026-04-05T08:56:09.722Z</time></trkpt><trkpt lat="45.6138391" lon="9.4327942"><ele>203.0</ele><time>2026-04-05T08:56:11.723Z</time></trkpt><trkpt lat="45.6139386" lon="9.4327513"><ele>203.0</ele><time>2026-04-05T08:56:13.723Z</time></trkpt><trkpt lat="45.6140477" lon="9.4327759"><ele>203.0</ele><time>2026-04-05T08:56:15.723Z</time></trkpt><trkpt lat="45.6141564" lon="9.4328258"><ele>203.0</ele><time>2026-04-05T08:56:17.722Z</time></trkpt><trkpt lat="45.6142577" lon="9.432887"><ele>203.0</ele><time>2026-04-05T08:56:19.723Z</time></trkpt><trkpt lat="45.6143603" lon="9.4329556"><ele>203.0</ele><time>2026-04-05T08:56:21.723Z</time></trkpt><trkpt lat="45.6144209" lon="9.4329837"><ele>203.0</ele><time>2026-04-05T08:56:22.723Z</time></trkpt><trkpt lat="45.6145199" lon="9.4330265"><ele>203.0</ele><time>2026-04-05T08:56:24.723Z</time></trkpt><trkpt lat="45.6146173" lon="9.4330758"><ele>203.4</ele><time>2026-04-05T08:56:26.722Z</time></trkpt><trkpt lat="45.6147216" lon="9.4331249"><ele>203.8</ele><time>2026-04-05T08:56:28.723Z</time></trkpt><trkpt lat="45.6148218" lon="9.4331849"><ele>204.2</ele><time>2026-04-05T08:56:30.723Z</time></trkpt><trkpt lat="45.6149243" lon="9.4332361"><ele>204.6</ele><time>2026-04-05T08:56:32.722Z</time></trkpt><trkpt lat="45.615023" lon="9.4332919"><ele>205.0</ele><time>2026-04-05T08:56:34.723Z</time></trkpt><trkpt lat="45.615132" lon="9.4333328"><ele>205.0</ele><time>2026-04-05T08:56:36.723Z</time></trkpt><trkpt lat="45.6152393" lon="9.4333819"><ele>205.0</ele><time>2026-04-05T08:56:38.723Z</time></trkpt><trkpt lat="45.6153426" lon="9.4334307"><ele>205.0</ele><time>2026-04-05T08:56:40.722Z</time></trkpt><trkpt lat="45.6154428" lon="9.4334763"><ele>205.0</ele><time>2026-04-05T08:56:42.722Z</time></trkpt><trkpt lat="45.6155375" lon="9.4335103"><ele>205.0</ele><time>2026-04-05T08:56:44.723Z</time></trkpt><trkpt lat="45.6156051" lon="9.4334902"><ele>204.83333333333331</ele><time>2026-04-05T08:56:46.722Z</time></trkpt><trkpt lat="45.6156118" lon="9.433359"><ele>204.66666666666666</ele><time>2026-04-05T08:56:48.723Z</time></trkpt><trkpt lat="45.61561" lon="9.4332183"><ele>204.5</ele><time>2026-04-05T08:56:50.723Z</time></trkpt><trkpt lat="45.61562" lon="9.4330796"><ele>204.33333333333331</ele><time>2026-04-05T08:56:52.723Z</time></trkpt><trkpt lat="45.615671" lon="9.4329915"><ele>204.16666666666666</ele><time>2026-04-05T08:56:54.723Z</time></trkpt><trkpt lat="45.61573" lon="9.4329337"><ele>204.0</ele><time>2026-04-05T08:56:56.722Z</time></trkpt><trkpt lat="45.6158203" lon="9.4328534"><ele>204.0</ele><time>2026-04-05T08:56:59.724Z</time></trkpt><trkpt lat="45.6158511" lon="9.4327222"><ele>204.0</ele><time>2026-04-05T08:57:01.722Z</time></trkpt><trkpt lat="45.6158729" lon="9.4325624"><ele>204.0</ele><time>2026-04-05T08:57:03.727Z</time></trkpt><trkpt lat="45.6159062" lon="9.4324165"><ele>204.0</ele><time>2026-04-05T08:57:05.729Z</time></trkpt><trkpt lat="45.6159299" lon="9.432302"><ele>204.0</ele><time>2026-04-05T08:57:07.729Z</time></trkpt><trkpt lat="45.6159515" lon="9.432198"><ele>204.0</ele><time>2026-04-05T08:57:09.728Z</time></trkpt><trkpt lat="45.6159668" lon="9.43209"><ele>204.0</ele><time>2026-04-05T08:57:11.729Z</time></trkpt><trkpt lat="45.616007" lon="9.4320109"><ele>204.0</ele><time>2026-04-05T08:57:13.728Z</time></trkpt><trkpt lat="45.616099" lon="9.4319982"><ele>204.0</ele><time>2026-04-05T08:57:16.726Z</time></trkpt><trkpt lat="45.6161497" lon="9.4320636"><ele>204.0</ele><time>2026-04-05T08:57:18.727Z</time></trkpt><trkpt lat="45.6161442" lon="9.4321829"><ele>204.0</ele><time>2026-04-05T08:57:20.73Z</time></trkpt><trkpt lat="45.6161484" lon="9.4323101"><ele>204.0</ele><time>2026-04-05T08:57:22.729Z</time></trkpt><trkpt lat="45.616151" lon="9.4324162"><ele>204.0</ele><time>2026-04-05T08:57:24.88Z</time></trkpt><trkpt lat="45.6161665" lon="9.4325807"><ele>204.0</ele><time>2026-04-05T08:57:26.732Z</time></trkpt><trkpt lat="45.6161839" lon="9.4327337"><ele>204.0</ele><time>2026-04-05T08:57:28.727Z</time></trkpt><trkpt lat="45.6162055" lon="9.4328841"><ele>204.0</ele><time>2026-04-05T08:57:30.727Z</time></trkpt><trkpt lat="45.6162302" lon="9.433036"><ele>204.25</ele><time>2026-04-05T08:57:32.728Z</time></trkpt><trkpt lat="45.6162597" lon="9.4332033"><ele>204.5</ele><time>2026-04-05T08:57:34.728Z</time></trkpt><trkpt lat="45.6162925" lon="9.4333707"><ele>204.75</ele><time>2026-04-05T08:57:36.728Z</time></trkpt><trkpt lat="45.6163368" lon="9.4335245"><ele>205.0</ele><time>2026-04-05T08:57:38.728Z</time></trkpt><trkpt lat="45.6163935" lon="9.4336712"><ele>205.0</ele><time>2026-04-05T08:57:40.728Z</time></trkpt><trkpt lat="45.6164695" lon="9.4337922"><ele>205.0</ele><time>2026-04-05T08:57:42.727Z</time></trkpt><trkpt lat="45.6165589" lon="9.4338773"><ele>205.0</ele><time>2026-04-05T08:57:44.728Z</time></trkpt><trkpt lat="45.6166599" lon="9.4338873"><ele>205.0</ele><time>2026-04-05T08:57:46.728Z</time></trkpt><trkpt lat="45.6167548" lon="9.4338307"><ele>205.0</ele><time>2026-04-05T08:57:48.728Z</time></trkpt><trkpt lat="45.6168392" lon="9.4337281"><ele>205.0</ele><time>2026-04-05T08:57:50.728Z</time></trkpt><trkpt lat="45.6169168" lon="9.4336093"><ele>205.0</ele><time>2026-04-05T08:57:52.728Z</time></trkpt><trkpt lat="45.6169926" lon="9.4334847"><ele>205.0</ele><time>2026-04-05T08:57:54.727Z</time></trkpt><trkpt lat="45.6170671" lon="9.4333601"><ele>205.0</ele><time>2026-04-05T08:57:56.728Z</time></trkpt><trkpt lat="45.6171493" lon="9.4332411"><ele>205.25</ele><time>2026-04-05T08:57:58.728Z</time></trkpt><trkpt lat="45.6172294" lon="9.4331198"><ele>205.5</ele><time>2026-04-05T08:58:00.728Z</time></trkpt><trkpt lat="45.6173026" lon="9.4329955"><ele>205.75</ele><time>2026-04-05T08:58:02.727Z</time></trkpt><trkpt lat="45.6173739" lon="9.4328692"><ele>206.0</ele><time>2026-04-05T08:58:04.728Z</time></trkpt><trkpt lat="45.6174475" lon="9.4327508"><ele>206.0</ele><time>2026-04-05T08:58:06.728Z</time></trkpt><trkpt lat="45.6175241" lon="9.4326209"><ele>206.0</ele><time>2026-04-05T08:58:08.727Z</time></trkpt><trkpt lat="45.6175865" lon="9.4324785"><ele>206.0</ele><time>2026-04-05T08:58:10.727Z</time></trkpt><trkpt lat="45.6176431" lon="9.4323353"><ele>206.0</ele><time>2026-04-05T08:58:12.728Z</time></trkpt><trkpt lat="45.6176958" lon="9.4321858"><ele>206.0</ele><time>2026-04-05T08:58:14.728Z</time></trkpt><trkpt lat="45.6177436" lon="9.4320406"><ele>206.0</ele><time>2026-04-05T08:58:16.728Z</time></trkpt><trkpt lat="45.6177725" lon="9.4319604"><ele>206.0</ele><time>2026-04-05T08:58:17.728Z</time></trkpt><trkpt lat="45.6178221" lon="9.4318072"><ele>206.0</ele><time>2026-04-05T08:58:19.728Z</time></trkpt><trkpt lat="45.6178719" lon="9.43165"><ele>206.0</ele><time>2026-04-05T08:58:21.727Z</time></trkpt><trkpt lat="45.6179259" lon="9.4315055"><ele>206.20000000000002</ele><time>2026-04-05T08:58:23.727Z</time></trkpt><trkpt lat="45.6179783" lon="9.4313579"><ele>206.4</ele><time>2026-04-05T08:58:25.727Z</time></trkpt><trkpt lat="45.6180332" lon="9.4312042"><ele>206.6</ele><time>2026-04-05T08:58:27.728Z</time></trkpt><trkpt lat="45.6180946" lon="9.4310553"><ele>206.8</ele><time>2026-04-05T08:58:29.728Z</time></trkpt><trkpt lat="45.61813" lon="9.43098"><ele>207.0</ele><time>2026-04-05T08:58:30.727Z</time></trkpt><trkpt lat="45.6182058" lon="9.430857"><ele>207.2</ele><time>2026-04-05T08:58:32.728Z</time></trkpt><trkpt lat="45.6182913" lon="9.4307418"><ele>207.39999999999998</ele><time>2026-04-05T08:58:34.728Z</time></trkpt><trkpt lat="45.6183434" lon="9.4306847"><ele>207.60000000000002</ele><time>2026-04-05T08:58:35.728Z</time></trkpt><trkpt lat="45.6184525" lon="9.4306276"><ele>207.8</ele><time>2026-04-05T08:58:37.728Z</time></trkpt><trkpt lat="45.618563" lon="9.4305818"><ele>208.0</ele><time>2026-04-05T08:58:39.727Z</time></trkpt><trkpt lat="45.6186704" lon="9.4305312"><ele>208.0</ele><time>2026-04-05T08:58:41.728Z</time></trkpt><trkpt lat="45.6187751" lon="9.4304849"><ele>208.0</ele><time>2026-04-05T08:58:43.728Z</time></trkpt><trkpt lat="45.618879" lon="9.4304461"><ele>208.0</ele><time>2026-04-05T08:58:45.728Z</time></trkpt><trkpt lat="45.6189825" lon="9.4303962"><ele>208.0</ele><time>2026-04-05T08:58:47.727Z</time></trkpt><trkpt lat="45.6190794" lon="9.4303559"><ele>208.0</ele><time>2026-04-05T08:58:49.727Z</time></trkpt><trkpt lat="45.619155" lon="9.4303209"><ele>207.99999999999997</ele><time>2026-04-05T08:58:51.728Z</time></trkpt><trkpt lat="45.6192265" lon="9.43031"><ele>208.0</ele><time>2026-04-05T08:58:53.728Z</time></trkpt><trkpt lat="45.6192838" lon="9.4303593"><ele>208.0</ele><time>2026-04-05T08:58:55.728Z</time></trkpt><trkpt lat="45.6193571" lon="9.4304061"><ele>208.0</ele><time>2026-04-05T08:58:57.727Z</time></trkpt><trkpt lat="45.6194605" lon="9.4304032"><ele>207.99999999999997</ele><time>2026-04-05T08:58:59.728Z</time></trkpt><trkpt lat="45.6195548" lon="9.4304227"><ele>208.0</ele><time>2026-04-05T08:59:01.728Z</time></trkpt><trkpt lat="45.6196463" lon="9.4304407"><ele>208.4</ele><time>2026-04-05T08:59:03.728Z</time></trkpt><trkpt lat="45.6197426" lon="9.4304578"><ele>208.8</ele><time>2026-04-05T08:59:05.728Z</time></trkpt><trkpt lat="45.6198414" lon="9.4304656"><ele>209.2</ele><time>2026-04-05T08:59:07.728Z</time></trkpt><trkpt lat="45.6199494" lon="9.4304778"><ele>209.6</ele><time>2026-04-05T08:59:09.728Z</time></trkpt><trkpt lat="45.6200639" lon="9.4304969"><ele>210.0</ele><time>2026-04-05T08:59:11.728Z</time></trkpt><trkpt lat="45.620172" lon="9.4305183"><ele>210.0</ele><time>2026-04-05T08:59:13.727Z</time></trkpt><trkpt lat="45.6202835" lon="9.4305367"><ele>210.0</ele><time>2026-04-05T08:59:15.728Z</time></trkpt><trkpt lat="45.6203913" lon="9.4305623"><ele>210.0</ele><time>2026-04-05T08:59:17.728Z</time></trkpt><trkpt lat="45.6204931" lon="9.4305792"><ele>210.0</ele><time>2026-04-05T08:59:19.728Z</time></trkpt><trkpt lat="45.6206045" lon="9.4305931"><ele>210.0</ele><time>2026-04-05T08:59:21.727Z</time></trkpt><trkpt lat="45.6207166" lon="9.4306087"><ele>210.0</ele><time>2026-04-05T08:59:23.727Z</time></trkpt><trkpt lat="45.6208278" lon="9.4306522"><ele>210.0</ele><time>2026-04-05T08:59:25.728Z</time></trkpt><trkpt lat="45.6208761" lon="9.4307681"><ele>210.0</ele><time>2026-04-05T08:59:27.728Z</time></trkpt><trkpt lat="45.6208584" lon="9.4309985"><ele>210.0</ele><time>2026-04-05T08:59:30.731Z</time></trkpt><trkpt lat="45.6208262" lon="9.431143"><ele>210.0</ele><time>2026-04-05T08:59:32.726Z</time></trkpt><trkpt lat="45.6208105" lon="9.4312921"><ele>210.0</ele><time>2026-04-05T08:59:34.726Z</time></trkpt><trkpt lat="45.620788" lon="9.4314586"><ele>210.0</ele><time>2026-04-05T08:59:36.726Z</time></trkpt><trkpt lat="45.6207783" lon="9.4315492"><ele>210.0</ele><time>2026-04-05T08:59:37.727Z</time></trkpt><trkpt lat="45.6207446" lon="9.4318072"><ele>210.25</ele><time>2026-04-05T08:59:40.73Z</time></trkpt><trkpt lat="45.6207292" lon="9.4319803"><ele>210.5</ele><time>2026-04-05T08:59:42.73Z</time></trkpt><trkpt lat="45.6207095" lon="9.4321532"><ele>210.75</ele><time>2026-04-05T08:59:44.729Z</time></trkpt><trkpt lat="45.6206891" lon="9.4323243"><ele>211.0</ele><time>2026-04-05T08:59:46.728Z</time></trkpt><trkpt lat="45.6206519" lon="9.4324877"><ele>211.20000000000002</ele><time>2026-04-05T08:59:48.729Z</time></trkpt><trkpt lat="45.6206271" lon="9.4326497"><ele>211.4</ele><time>2026-04-05T08:59:50.729Z</time></trkpt><trkpt lat="45.6206034" lon="9.4328207"><ele>211.6</ele><time>2026-04-05T08:59:52.729Z</time></trkpt><trkpt lat="45.6205821" lon="9.4329867"><ele>211.8</ele><time>2026-04-05T08:59:54.729Z</time></trkpt><trkpt lat="45.6205674" lon="9.433079"><ele>212.0</ele><time>2026-04-05T08:59:55.729Z</time></trkpt><trkpt lat="45.6205368" lon="9.4332464"><ele>212.00000000000003</ele><time>2026-04-05T08:59:57.728Z</time></trkpt><trkpt lat="45.6205208" lon="9.4333336"><ele>212.0</ele><time>2026-04-05T08:59:58.729Z</time></trkpt><trkpt lat="45.6205011" lon="9.4334191"><ele>212.0</ele><time>2026-04-05T08:59:59.729Z</time></trkpt><trkpt lat="45.6204839" lon="9.4335133"><ele>212.0</ele><time>2026-04-05T09:00:00.729Z</time></trkpt><trkpt lat="45.6204528" lon="9.4336859"><ele>212.00000000000003</ele><time>2026-04-05T09:00:02.729Z</time></trkpt><trkpt lat="45.6204227" lon="9.43385"><ele>212.0</ele><time>2026-04-05T09:00:04.729Z</time></trkpt><trkpt lat="45.6204111" lon="9.4339388"><ele>212.0</ele><time>2026-04-05T09:00:05.728Z</time></trkpt><trkpt lat="45.6203866" lon="9.4341013"><ele>212.0</ele><time>2026-04-05T09:00:07.729Z</time></trkpt><trkpt lat="45.6203514" lon="9.4342718"><ele>212.0</ele><time>2026-04-05T09:00:09.729Z</time></trkpt><trkpt lat="45.6203313" lon="9.4343624"><ele>212.0</ele><time>2026-04-05T09:00:10.729Z</time></trkpt><trkpt lat="45.6203022" lon="9.4345061"><ele>212.0</ele><time>2026-04-05T09:00:12.729Z</time></trkpt><trkpt lat="45.6202974" lon="9.4346686"><ele>212.39999999999998</ele><time>2026-04-05T09:00:14.729Z</time></trkpt><trkpt lat="45.620345" lon="9.4348073"><ele>212.79999999999998</ele><time>2026-04-05T09:00:16.728Z</time></trkpt><trkpt lat="45.6204398" lon="9.4348989"><ele>213.2</ele><time>2026-04-05T09:00:18.729Z</time></trkpt><trkpt lat="45.6205493" lon="9.4349556"><ele>213.6</ele><time>2026-04-05T09:00:20.729Z</time></trkpt><trkpt lat="45.6206109" lon="9.4349818"><ele>214.0</ele><time>2026-04-05T09:00:21.728Z</time></trkpt><trkpt lat="45.6207256" lon="9.4350276"><ele>214.0</ele><time>2026-04-05T09:00:23.728Z</time></trkpt><trkpt lat="45.6208388" lon="9.4350651"><ele>213.99999999999997</ele><time>2026-04-05T09:00:25.729Z</time></trkpt><trkpt lat="45.6209523" lon="9.4351091"><ele>213.99999999999997</ele><time>2026-04-05T09:00:27.729Z</time></trkpt><trkpt lat="45.6210153" lon="9.4351283"><ele>214.0</ele><time>2026-04-05T09:00:28.729Z</time></trkpt><trkpt lat="45.6211311" lon="9.4351628"><ele>214.0</ele><time>2026-04-05T09:00:30.729Z</time></trkpt><trkpt lat="45.6212412" lon="9.4352096"><ele>213.25</ele><time>2026-04-05T09:00:32.729Z</time></trkpt><trkpt lat="45.621357" lon="9.4352591"><ele>212.5</ele><time>2026-04-05T09:00:34.728Z</time></trkpt><trkpt lat="45.6214751" lon="9.4352971"><ele>211.75</ele><time>2026-04-05T09:00:36.729Z</time></trkpt><trkpt lat="45.6215916" lon="9.4353315"><ele>211.0</ele><time>2026-04-05T09:00:38.729Z</time></trkpt><trkpt lat="45.621709" lon="9.4353664"><ele>210.99999999999997</ele><time>2026-04-05T09:00:40.729Z</time></trkpt><trkpt lat="45.6217732" lon="9.4353825"><ele>211.0</ele><time>2026-04-05T09:00:41.729Z</time></trkpt><trkpt lat="45.6218349" lon="9.4354059"><ele>211.0</ele><time>2026-04-05T09:00:42.728Z</time></trkpt><trkpt lat="45.6219016" lon="9.4354389"><ele>211.0</ele><time>2026-04-05T09:00:43.728Z</time></trkpt><trkpt lat="45.6220104" lon="9.4354604"><ele>210.99999999999997</ele><time>2026-04-05T09:00:45.729Z</time></trkpt><trkpt lat="45.6220736" lon="9.4355565"><ele>211.0</ele><time>2026-04-05T09:00:47.729Z</time></trkpt><trkpt lat="45.6220654" lon="9.4357023"><ele>210.60000000000002</ele><time>2026-04-05T09:00:49.729Z</time></trkpt><trkpt lat="45.622035" lon="9.4358475"><ele>210.2</ele><time>2026-04-05T09:00:51.729Z</time></trkpt><trkpt lat="45.6220144" lon="9.4360077"><ele>209.8</ele><time>2026-04-05T09:00:53.728Z</time></trkpt><trkpt lat="45.6219931" lon="9.4361674"><ele>209.39999999999998</ele><time>2026-04-05T09:00:55.729Z</time></trkpt><trkpt lat="45.6219656" lon="9.4363271"><ele>209.0</ele><time>2026-04-05T09:00:57.729Z</time></trkpt><trkpt lat="45.6219554" lon="9.4364169"><ele>209.0</ele><time>2026-04-05T09:00:58.728Z</time></trkpt><trkpt lat="45.6219453" lon="9.4365102"><ele>209.0</ele><time>2026-04-05T09:00:59.729Z</time></trkpt><trkpt lat="45.6219168" lon="9.4366695"><ele>209.0</ele><time>2026-04-05T09:01:01.728Z</time></trkpt><trkpt lat="45.6218913" lon="9.4368285"><ele>209.0</ele><time>2026-04-05T09:01:03.728Z</time></trkpt><trkpt lat="45.6218738" lon="9.436917"><ele>209.0</ele><time>2026-04-05T09:01:04.729Z</time></trkpt><trkpt lat="45.6218487" lon="9.4370793"><ele>209.39999999999998</ele><time>2026-04-05T09:01:06.729Z</time></trkpt><trkpt lat="45.6218261" lon="9.4372465"><ele>209.8</ele><time>2026-04-05T09:01:08.729Z</time></trkpt><trkpt lat="45.6217975" lon="9.4374103"><ele>210.2</ele><time>2026-04-05T09:01:10.729Z</time></trkpt><trkpt lat="45.6217813" lon="9.4375009"><ele>210.60000000000002</ele><time>2026-04-05T09:01:11.729Z</time></trkpt><trkpt lat="45.621754" lon="9.4376676"><ele>211.0</ele><time>2026-04-05T09:01:13.729Z</time></trkpt><trkpt lat="45.6217209" lon="9.4378268"><ele>211.25</ele><time>2026-04-05T09:01:15.728Z</time></trkpt><trkpt lat="45.6217005" lon="9.4379993"><ele>211.5</ele><time>2026-04-05T09:01:17.729Z</time></trkpt><trkpt lat="45.6216754" lon="9.4381635"><ele>211.75</ele><time>2026-04-05T09:01:19.729Z</time></trkpt><trkpt lat="45.6216499" lon="9.4383237"><ele>212.0</ele><time>2026-04-05T09:01:21.729Z</time></trkpt><trkpt lat="45.6216589" lon="9.4384787"><ele>212.0</ele><time>2026-04-05T09:01:23.729Z</time></trkpt><trkpt lat="45.6216947" lon="9.4386115"><ele>212.0</ele><time>2026-04-05T09:01:25.729Z</time></trkpt><trkpt lat="45.6216741" lon="9.4387589"><ele>212.0</ele><time>2026-04-05T09:01:27.729Z</time></trkpt><trkpt lat="45.6216402" lon="9.4389217"><ele>212.0</ele><time>2026-04-05T09:01:29.729Z</time></trkpt><trkpt lat="45.6216157" lon="9.4390969"><ele>212.0</ele><time>2026-04-05T09:01:31.729Z</time></trkpt><trkpt lat="45.6215858" lon="9.4392671"><ele>212.0</ele><time>2026-04-05T09:01:33.729Z</time></trkpt><trkpt lat="45.6215547" lon="9.4394355"><ele>212.0</ele><time>2026-04-05T09:01:35.728Z</time></trkpt><trkpt lat="45.6215356" lon="9.4395225"><ele>212.0</ele><time>2026-04-05T09:01:36.729Z</time></trkpt><trkpt lat="45.6215063" lon="9.4396967"><ele>212.0</ele><time>2026-04-05T09:01:38.729Z</time></trkpt><trkpt lat="45.6214608" lon="9.4398596"><ele>212.0</ele><time>2026-04-05T09:01:40.728Z</time></trkpt><trkpt lat="45.6214291" lon="9.4399455"><ele>212.0</ele><time>2026-04-05T09:01:41.729Z</time></trkpt><trkpt lat="45.621368" lon="9.4400986"><ele>212.0</ele><time>2026-04-05T09:01:43.729Z</time></trkpt><trkpt lat="45.6213783" lon="9.4402192"><ele>212.0</ele><time>2026-04-05T09:01:45.729Z</time></trkpt><trkpt lat="45.6214629" lon="9.4402736"><ele>212.0</ele><time>2026-04-05T09:01:47.729Z</time></trkpt><trkpt lat="45.6215249" lon="9.4402517"><ele>212.0</ele><time>2026-04-05T09:01:48.729Z</time></trkpt><trkpt lat="45.6216416" lon="9.4402284"><ele>212.0</ele><time>2026-04-05T09:01:50.728Z</time></trkpt><trkpt lat="45.6217505" lon="9.4402585"><ele>212.0</ele><time>2026-04-05T09:01:52.729Z</time></trkpt><trkpt lat="45.6218151" lon="9.4402794"><ele>212.0</ele><time>2026-04-05T09:01:53.728Z</time></trkpt><trkpt lat="45.6219345" lon="9.4403143"><ele>212.0</ele><time>2026-04-05T09:01:55.728Z</time></trkpt><trkpt lat="45.622051" lon="9.4403604"><ele>212.0</ele><time>2026-04-05T09:01:57.729Z</time></trkpt><trkpt lat="45.6221162" lon="9.4403712"><ele>212.0</ele><time>2026-04-05T09:01:58.729Z</time></trkpt><trkpt lat="45.6221781" lon="9.4403886"><ele>212.0</ele><time>2026-04-05T09:01:59.729Z</time></trkpt><trkpt lat="45.622302" lon="9.440427"><ele>212.0</ele><time>2026-04-05T09:02:01.729Z</time></trkpt><trkpt lat="45.6224187" lon="9.4404747"><ele>212.0</ele><time>2026-04-05T09:02:03.729Z</time></trkpt><trkpt lat="45.622482" lon="9.4404943"><ele>212.0</ele><time>2026-04-05T09:02:04.729Z</time></trkpt><trkpt lat="45.6225968" lon="9.4405239"><ele>212.00000000000003</ele><time>2026-04-05T09:02:06.729Z</time></trkpt><trkpt lat="45.6226593" lon="9.4405399"><ele>212.0</ele><time>2026-04-05T09:02:07.728Z</time></trkpt><trkpt lat="45.62278" lon="9.4405771"><ele>212.0</ele><time>2026-04-05T09:02:09.729Z</time></trkpt><trkpt lat="45.6228433" lon="9.4405885"><ele>212.0</ele><time>2026-04-05T09:02:10.728Z</time></trkpt><trkpt lat="45.6229065" lon="9.4406086"><ele>212.00000000000003</ele><time>2026-04-05T09:02:11.729Z</time></trkpt><trkpt lat="45.622969" lon="9.4406233"><ele>212.0</ele><time>2026-04-05T09:02:12.729Z</time></trkpt><trkpt lat="45.6230907" lon="9.4406588"><ele>212.0</ele><time>2026-04-05T09:02:14.729Z</time></trkpt><trkpt lat="45.6232" lon="9.4406896"><ele>212.0</ele><time>2026-04-05T09:02:16.729Z</time></trkpt><trkpt lat="45.6233092" lon="9.4407089"><ele>212.0</ele><time>2026-04-05T09:02:18.729Z</time></trkpt><trkpt lat="45.6233885" lon="9.4407293"><ele>212.0</ele><time>2026-04-05T09:02:19.728Z</time></trkpt><trkpt lat="45.6235144" lon="9.4407774"><ele>212.0</ele><time>2026-04-05T09:02:21.729Z</time></trkpt><trkpt lat="45.6236418" lon="9.4407884"><ele>212.39999999999998</ele><time>2026-04-05T09:02:23.729Z</time></trkpt><trkpt lat="45.623761" lon="9.4408299"><ele>212.79999999999998</ele><time>2026-04-05T09:02:25.729Z</time></trkpt><trkpt lat="45.6238325" lon="9.440853"><ele>213.2</ele><time>2026-04-05T09:02:26.729Z</time></trkpt><trkpt lat="45.6238938" lon="9.4408783"><ele>213.6</ele><time>2026-04-05T09:02:27.729Z</time></trkpt><trkpt lat="45.6240155" lon="9.4409093"><ele>214.0</ele><time>2026-04-05T09:02:29.729Z</time></trkpt><trkpt lat="45.6241215" lon="9.4409333"><ele>213.99999999999997</ele><time>2026-04-05T09:02:31.729Z</time></trkpt><trkpt lat="45.6242363" lon="9.440964"><ele>214.0</ele><time>2026-04-05T09:02:33.728Z</time></trkpt><trkpt lat="45.6243493" lon="9.4410049"><ele>214.0</ele><time>2026-04-05T09:02:35.729Z</time></trkpt><trkpt lat="45.6244129" lon="9.4410375"><ele>214.0</ele><time>2026-04-05T09:02:36.728Z</time></trkpt><trkpt lat="45.6244701" lon="9.4410831"><ele>213.99999999999997</ele><time>2026-04-05T09:02:37.729Z</time></trkpt><trkpt lat="45.6245222" lon="9.4411337"><ele>214.0</ele><time>2026-04-05T09:02:38.729Z</time></trkpt><trkpt lat="45.6245751" lon="9.4411848"><ele>214.2</ele><time>2026-04-05T09:02:39.729Z</time></trkpt><trkpt lat="45.6246259" lon="9.4412445"><ele>214.39999999999998</ele><time>2026-04-05T09:02:40.729Z</time></trkpt><trkpt lat="45.6246826" lon="9.4413065"><ele>214.6</ele><time>2026-04-05T09:02:41.729Z</time></trkpt><trkpt lat="45.624727" lon="9.4413755"><ele>214.8</ele><time>2026-04-05T09:02:42.729Z</time></trkpt><trkpt lat="45.6248279" lon="9.441478"><ele>215.0</ele><time>2026-04-05T09:02:44.728Z</time></trkpt><trkpt lat="45.6249549" lon="9.441555"><ele>215.2</ele><time>2026-04-05T09:02:46.729Z</time></trkpt><trkpt lat="45.6250771" lon="9.4416062"><ele>215.4</ele><time>2026-04-05T09:02:48.729Z</time></trkpt><trkpt lat="45.6252025" lon="9.4416507"><ele>215.60000000000002</ele><time>2026-04-05T09:02:50.729Z</time></trkpt><trkpt lat="45.625307" lon="9.4416896"><ele>215.8</ele><time>2026-04-05T09:02:52.729Z</time></trkpt><trkpt lat="45.6253737" lon="9.4417189"><ele>216.0</ele><time>2026-04-05T09:02:54.729Z</time></trkpt><trkpt lat="45.6253646" lon="9.4418482"><ele>215.8</ele><time>2026-04-05T09:02:55.729Z</time></trkpt><trkpt lat="45.6253367" lon="9.4420028"><ele>215.60000000000002</ele><time>2026-04-05T09:02:57.729Z</time></trkpt><trkpt lat="45.6253232" lon="9.4420933"><ele>215.4</ele><time>2026-04-05T09:02:58.729Z</time></trkpt><trkpt lat="45.6252942" lon="9.4422549"><ele>215.2</ele><time>2026-04-05T09:03:00.729Z</time></trkpt><trkpt lat="45.6252628" lon="9.4424329"><ele>215.0</ele><time>2026-04-05T09:03:02.728Z</time></trkpt><trkpt lat="45.6252367" lon="9.4426258"><ele>215.00000000000003</ele><time>2026-04-05T09:03:04.729Z</time></trkpt><trkpt lat="45.6252188" lon="9.442808"><ele>215.0</ele><time>2026-04-05T09:03:06.729Z</time></trkpt><trkpt lat="45.6252108" lon="9.4429006"><ele>215.0</ele><time>2026-04-05T09:03:07.729Z</time></trkpt><trkpt lat="45.6252013" lon="9.442991"><ele>215.0</ele><time>2026-04-05T09:03:08.728Z</time></trkpt><trkpt lat="45.6251901" lon="9.443082"><ele>215.00000000000003</ele><time>2026-04-05T09:03:09.729Z</time></trkpt><trkpt lat="45.6251783" lon="9.4431735"><ele>215.0</ele><time>2026-04-05T09:03:10.729Z</time></trkpt><trkpt lat="45.6251799" lon="9.4433447"><ele>215.25</ele><time>2026-04-05T09:03:12.729Z</time></trkpt><trkpt lat="45.6252665" lon="9.4434535"><ele>215.5</ele><time>2026-04-05T09:03:14.729Z</time></trkpt><trkpt lat="45.6253765" lon="9.4435195"><ele>215.75</ele><time>2026-04-05T09:03:16.729Z</time></trkpt><trkpt lat="45.625492" lon="9.4435597"><ele>216.0</ele><time>2026-04-05T09:03:18.729Z</time></trkpt><trkpt lat="45.6256127" lon="9.4436139"><ele>216.5</ele><time>2026-04-05T09:03:20.729Z</time></trkpt><trkpt lat="45.6257289" lon="9.4436542"><ele>217.0</ele><time>2026-04-05T09:03:22.728Z</time></trkpt><trkpt lat="45.6258427" lon="9.4437162"><ele>217.5</ele><time>2026-04-05T09:03:24.728Z</time></trkpt><trkpt lat="45.6259554" lon="9.443755"><ele>218.0</ele><time>2026-04-05T09:03:26.729Z</time></trkpt><trkpt lat="45.62607" lon="9.4437945"><ele>218.0</ele><time>2026-04-05T09:03:28.729Z</time></trkpt><trkpt lat="45.6261905" lon="9.4438316"><ele>218.0</ele><time>2026-04-05T09:03:30.729Z</time></trkpt><trkpt lat="45.6263096" lon="9.4438679"><ele>218.0</ele><time>2026-04-05T09:03:32.728Z</time></trkpt><trkpt lat="45.6264085" lon="9.4439105"><ele>218.0</ele><time>2026-04-05T09:03:34.729Z</time></trkpt><trkpt lat="45.6264523" lon="9.4440084"><ele>218.0</ele><time>2026-04-05T09:03:36.729Z</time></trkpt><trkpt lat="45.6264334" lon="9.4441443"><ele>218.00000000000003</ele><time>2026-04-05T09:03:38.729Z</time></trkpt><trkpt lat="45.6264237" lon="9.4442334"><ele>218.0</ele><time>2026-04-05T09:03:39.729Z</time></trkpt><trkpt lat="45.6263969" lon="9.4444153"><ele>218.0</ele><time>2026-04-05T09:03:41.729Z</time></trkpt><trkpt lat="45.6263867" lon="9.4445075"><ele>218.0</ele><time>2026-04-05T09:03:42.729Z</time></trkpt><trkpt lat="45.6263758" lon="9.4445967"><ele>218.00000000000003</ele><time>2026-04-05T09:03:43.728Z</time></trkpt><trkpt lat="45.6263604" lon="9.4446937"><ele>218.0</ele><time>2026-04-05T09:03:44.729Z</time></trkpt><trkpt lat="45.6263297" lon="9.4448743"><ele>218.0</ele><time>2026-04-05T09:03:46.729Z</time></trkpt><trkpt lat="45.626323" lon="9.4449732"><ele>218.0</ele><time>2026-04-05T09:03:47.729Z</time></trkpt><trkpt lat="45.6263071" lon="9.4450617"><ele>218.0</ele><time>2026-04-05T09:03:48.729Z</time></trkpt><trkpt lat="45.6262798" lon="9.4452347"><ele>218.0</ele><time>2026-04-05T09:03:50.729Z</time></trkpt><trkpt lat="45.6262587" lon="9.4454034"><ele>218.0</ele><time>2026-04-05T09:03:52.729Z</time></trkpt><trkpt lat="45.6262189" lon="9.4455375"><ele>217.8</ele><time>2026-04-05T09:03:54.728Z</time></trkpt><trkpt lat="45.6261123" lon="9.4455394"><ele>217.60000000000002</ele><time>2026-04-05T09:03:56.729Z</time></trkpt><trkpt lat="45.6260056" lon="9.4455268"><ele>217.39999999999998</ele><time>2026-04-05T09:03:58.729Z</time></trkpt><trkpt lat="45.6258887" lon="9.4455005"><ele>217.2</ele><time>2026-04-05T09:04:00.728Z</time></trkpt><trkpt lat="45.6257757" lon="9.4454567"><ele>217.0</ele><time>2026-04-05T09:04:02.729Z</time></trkpt><trkpt lat="45.6256611" lon="9.4454162"><ele>217.0</ele><time>2026-04-05T09:04:04.729Z</time></trkpt><trkpt lat="45.6255521" lon="9.4454084"><ele>217.0</ele><time>2026-04-05T09:04:06.729Z</time></trkpt><trkpt lat="45.6254666" lon="9.4454801"><ele>217.0</ele><time>2026-04-05T09:04:08.729Z</time></trkpt><trkpt lat="45.6254453" lon="9.4456298"><ele>217.0</ele><time>2026-04-05T09:04:10.728Z</time></trkpt><trkpt lat="45.6254292" lon="9.4457715"><ele>217.0</ele><time>2026-04-05T09:04:12.729Z</time></trkpt><trkpt lat="45.6254114" lon="9.4459285"><ele>216.8</ele><time>2026-04-05T09:04:14.729Z</time></trkpt><trkpt lat="45.62539" lon="9.4460773"><ele>216.6</ele><time>2026-04-05T09:04:16.729Z</time></trkpt><trkpt lat="45.6253687" lon="9.446225"><ele>216.40000000000003</ele><time>2026-04-05T09:04:18.729Z</time></trkpt><trkpt lat="45.6253635" lon="9.4463817"><ele>216.20000000000002</ele><time>2026-04-05T09:04:20.729Z</time></trkpt><trkpt lat="45.6253537" lon="9.4465422"><ele>216.0</ele><time>2026-04-05T09:04:22.729Z</time></trkpt><trkpt lat="45.6253412" lon="9.4467041"><ele>215.8</ele><time>2026-04-05T09:04:24.729Z</time></trkpt><trkpt lat="45.625324" lon="9.4468672"><ele>215.60000000000002</ele><time>2026-04-05T09:04:26.729Z</time></trkpt><trkpt lat="45.6253144" lon="9.4470304"><ele>215.4</ele><time>2026-04-05T09:04:28.728Z</time></trkpt><trkpt lat="45.6253113" lon="9.4471796"><ele>215.2</ele><time>2026-04-05T09:04:30.729Z</time></trkpt><trkpt lat="45.6253111" lon="9.4473243"><ele>215.0</ele><time>2026-04-05T09:04:32.729Z</time></trkpt><trkpt lat="45.625318" lon="9.4474818"><ele>215.0</ele><time>2026-04-05T09:04:34.729Z</time></trkpt><trkpt lat="45.6252976" lon="9.4476491"><ele>215.0</ele><time>2026-04-05T09:04:36.729Z</time></trkpt><trkpt lat="45.6252827" lon="9.4478037"><ele>215.0</ele><time>2026-04-05T09:04:38.729Z</time></trkpt><trkpt lat="45.625272" lon="9.4479504"><ele>215.0</ele><time>2026-04-05T09:04:40.729Z</time></trkpt><trkpt lat="45.6252548" lon="9.4481016"><ele>215.0</ele><time>2026-04-05T09:04:42.728Z</time></trkpt><trkpt lat="45.6252359" lon="9.448248"><ele>215.2</ele><time>2026-04-05T09:04:44.729Z</time></trkpt><trkpt lat="45.625214" lon="9.4483838"><ele>215.4</ele><time>2026-04-05T09:04:46.729Z</time></trkpt><trkpt lat="45.6252011" lon="9.4485329"><ele>215.60000000000002</ele><time>2026-04-05T09:04:48.728Z</time></trkpt><trkpt lat="45.6251763" lon="9.4486818"><ele>215.8</ele><time>2026-04-05T09:04:50.729Z</time></trkpt><trkpt lat="45.6251623" lon="9.4488328"><ele>216.0</ele><time>2026-04-05T09:04:52.729Z</time></trkpt><trkpt lat="45.625144" lon="9.4489744"><ele>216.0</ele><time>2026-04-05T09:04:54.729Z</time></trkpt><trkpt lat="45.6251325" lon="9.4491241"><ele>216.00000000000003</ele><time>2026-04-05T09:04:56.729Z</time></trkpt><trkpt lat="45.6251129" lon="9.4492775"><ele>216.00000000000003</ele><time>2026-04-05T09:04:58.728Z</time></trkpt><trkpt lat="45.6251015" lon="9.4494341"><ele>216.0</ele><time>2026-04-05T09:05:00.728Z</time></trkpt><trkpt lat="45.6251072" lon="9.4495824"><ele>216.0</ele><time>2026-04-05T09:05:02.729Z</time></trkpt><trkpt lat="45.6250826" lon="9.4497359"><ele>215.5</ele><time>2026-04-05T09:05:04.729Z</time></trkpt><trkpt lat="45.625056" lon="9.4498945"><ele>215.0</ele><time>2026-04-05T09:05:06.728Z</time></trkpt><trkpt lat="45.6250399" lon="9.4500527"><ele>214.5</ele><time>2026-04-05T09:05:08.729Z</time></trkpt><trkpt lat="45.6250672" lon="9.4502146"><ele>214.0</ele><time>2026-04-05T09:05:10.729Z</time></trkpt><trkpt lat="45.6251088" lon="9.4503807"><ele>213.99999999999997</ele><time>2026-04-05T09:05:12.728Z</time></trkpt><trkpt lat="45.6251241" lon="9.4505333"><ele>214.0</ele><time>2026-04-05T09:05:14.729Z</time></trkpt><trkpt lat="45.6251627" lon="9.4506145"><ele>214.0</ele><time>2026-04-05T09:05:16.729Z</time></trkpt><trkpt lat="45.62524" lon="9.4505764"><ele>214.0</ele><time>2026-04-05T09:05:19.729Z</time></trkpt><trkpt lat="45.6253231" lon="9.4505194"><ele>213.99999999999997</ele><time>2026-04-05T09:05:21.729Z</time></trkpt><trkpt lat="45.6254039" lon="9.4504678"><ele>214.0</ele><time>2026-04-05T09:05:24.729Z</time></trkpt><trkpt lat="45.6254729" lon="9.4504288"><ele>213.99999999999997</ele><time>2026-04-05T09:05:26.729Z</time></trkpt><trkpt lat="45.6255648" lon="9.4503777"><ele>214.0</ele><time>2026-04-05T09:05:29.729Z</time></trkpt><trkpt lat="45.6256303" lon="9.4503531"><ele>214.0</ele><time>2026-04-05T09:05:31.729Z</time></trkpt><trkpt lat="45.6257076" lon="9.4503269"><ele>214.0</ele><time>2026-04-05T09:05:33.729Z</time></trkpt><trkpt lat="45.6257936" lon="9.4503065"><ele>213.99999999999997</ele><time>2026-04-05T09:05:35.729Z</time></trkpt><trkpt lat="45.6258853" lon="9.450297"><ele>214.0</ele><time>2026-04-05T09:05:37.728Z</time></trkpt><trkpt lat="45.6260858" lon="9.4502742"><ele>214.39999999999998</ele><time>2026-04-05T09:05:40.729Z</time></trkpt><trkpt lat="45.6262286" lon="9.4503382"><ele>214.79999999999998</ele><time>2026-04-05T09:05:43.729Z</time></trkpt><trkpt lat="45.626313" lon="9.4503627"><ele>215.20000000000002</ele><time>2026-04-05T09:05:45.729Z</time></trkpt><trkpt lat="45.6264072" lon="9.4503912"><ele>215.60000000000002</ele><time>2026-04-05T09:05:47.729Z</time></trkpt><trkpt lat="45.6265074" lon="9.4504229"><ele>216.0</ele><time>2026-04-05T09:05:49.729Z</time></trkpt><trkpt lat="45.6266012" lon="9.4504488"><ele>215.83333333333334</ele><time>2026-04-05T09:05:51.729Z</time></trkpt><trkpt lat="45.6266864" lon="9.45048"><ele>215.66666666666669</ele><time>2026-04-05T09:05:53.729Z</time></trkpt><trkpt lat="45.6267515" lon="9.4505074"><ele>215.5</ele><time>2026-04-05T09:05:55.729Z</time></trkpt><trkpt lat="45.6268364" lon="9.4505446"><ele>215.33333333333334</ele><time>2026-04-05T09:05:58.729Z</time></trkpt><trkpt lat="45.6269011" lon="9.4505744"><ele>215.16666666666669</ele><time>2026-04-05T09:06:00.729Z</time></trkpt><trkpt lat="45.6269899" lon="9.4505892"><ele>215.0</ele><time>2026-04-05T09:06:02.729Z</time></trkpt><trkpt lat="45.6270961" lon="9.4506479"><ele>215.6</ele><time>2026-04-05T09:06:04.729Z</time></trkpt><trkpt lat="45.6271897" lon="9.4507011"><ele>216.2</ele><time>2026-04-05T09:06:06.729Z</time></trkpt><trkpt lat="45.6272871" lon="9.4507384"><ele>216.8</ele><time>2026-04-05T09:06:08.729Z</time></trkpt><trkpt lat="45.6273869" lon="9.4507866"><ele>217.4</ele><time>2026-04-05T09:06:10.729Z</time></trkpt><trkpt lat="45.6274947" lon="9.4508327"><ele>218.0</ele><time>2026-04-05T09:06:12.729Z</time></trkpt><trkpt lat="45.6276062" lon="9.4508775"><ele>218.0</ele><time>2026-04-05T09:06:14.729Z</time></trkpt><trkpt lat="45.6277163" lon="9.4509195"><ele>218.0</ele><time>2026-04-05T09:06:16.729Z</time></trkpt><trkpt lat="45.6278141" lon="9.4509861"><ele>218.0</ele><time>2026-04-05T09:06:18.728Z</time></trkpt><trkpt lat="45.6278715" lon="9.4511251"><ele>218.0</ele><time>2026-04-05T09:06:20.729Z</time></trkpt><trkpt lat="45.6279396" lon="9.4512716"><ele>218.33333333333334</ele><time>2026-04-05T09:06:22.729Z</time></trkpt><trkpt lat="45.6280044" lon="9.4514107"><ele>218.66666666666669</ele><time>2026-04-05T09:06:24.729Z</time></trkpt><trkpt lat="45.6280748" lon="9.4514893"><ele>219.0</ele><time>2026-04-05T09:06:26.729Z</time></trkpt><trkpt lat="45.6281512" lon="9.4515175"><ele>219.33333333333331</ele><time>2026-04-05T09:06:29.729Z</time></trkpt><trkpt lat="45.6282158" lon="9.4515317"><ele>219.66666666666666</ele><time>2026-04-05T09:06:31.729Z</time></trkpt><trkpt lat="45.6283043" lon="9.4515483"><ele>220.0</ele><time>2026-04-05T09:06:34.729Z</time></trkpt><trkpt lat="45.6283811" lon="9.4515527"><ele>219.99999999999997</ele><time>2026-04-05T09:06:37.729Z</time></trkpt><trkpt lat="45.6284658" lon="9.4515843"><ele>220.0</ele><time>2026-04-05T09:06:41.729Z</time></trkpt><trkpt lat="45.6285333" lon="9.451593"><ele>220.0</ele><time>2026-04-05T09:06:43.729Z</time></trkpt><trkpt lat="45.6286061" lon="9.4516063"><ele>220.0</ele><time>2026-04-05T09:06:45.729Z</time></trkpt><trkpt lat="45.6286831" lon="9.4516202"><ele>219.99999999999997</ele><time>2026-04-05T09:06:47.729Z</time></trkpt><trkpt lat="45.6287513" lon="9.4516201"><ele>220.0</ele><time>2026-04-05T09:06:49.729Z</time></trkpt><trkpt lat="45.6288279" lon="9.4516274"><ele>220.8</ele><time>2026-04-05T09:06:51.728Z</time></trkpt><trkpt lat="45.6289069" lon="9.4516326"><ele>221.6</ele><time>2026-04-05T09:06:53.729Z</time></trkpt><trkpt lat="45.6290163" lon="9.4516409"><ele>222.39999999999998</ele><time>2026-04-05T09:06:55.729Z</time></trkpt><trkpt lat="45.6290961" lon="9.451664"><ele>223.2</ele><time>2026-04-05T09:06:57.729Z</time></trkpt><trkpt lat="45.6292148" lon="9.4516653"><ele>224.0</ele><time>2026-04-05T09:07:00.729Z</time></trkpt><trkpt lat="45.6292905" lon="9.451672"><ele>224.0</ele><time>2026-04-05T09:07:02.729Z</time></trkpt><trkpt lat="45.6293716" lon="9.4516756"><ele>223.99999999999997</ele><time>2026-04-05T09:07:04.728Z</time></trkpt><trkpt lat="45.6294622" lon="9.4516871"><ele>223.99999999999997</ele><time>2026-04-05T09:07:06.728Z</time></trkpt><trkpt lat="45.6295512" lon="9.4516993"><ele>224.0</ele><time>2026-04-05T09:07:08.729Z</time></trkpt><trkpt lat="45.6296413" lon="9.4517072"><ele>224.0</ele><time>2026-04-05T09:07:10.729Z</time></trkpt><trkpt lat="45.629761" lon="9.4517745"><ele>223.6</ele><time>2026-04-05T09:07:12.729Z</time></trkpt><trkpt lat="45.6298509" lon="9.4518334"><ele>223.2</ele><time>2026-04-05T09:07:14.729Z</time></trkpt><trkpt lat="45.6299386" lon="9.4518686"><ele>222.79999999999998</ele><time>2026-04-05T09:07:16.728Z</time></trkpt><trkpt lat="45.6300278" lon="9.4518873"><ele>222.39999999999998</ele><time>2026-04-05T09:07:18.729Z</time></trkpt><trkpt lat="45.6301048" lon="9.4519153"><ele>222.0</ele><time>2026-04-05T09:07:20.728Z</time></trkpt><trkpt lat="45.6301967" lon="9.4519505"><ele>222.0</ele><time>2026-04-05T09:07:22.729Z</time></trkpt><trkpt lat="45.6302786" lon="9.4519843"><ele>222.0</ele><time>2026-04-05T09:07:24.728Z</time></trkpt><trkpt lat="45.6303625" lon="9.4519785"><ele>222.0</ele><time>2026-04-05T09:07:26.728Z</time></trkpt><trkpt lat="45.6304317" lon="9.4519896"><ele>222.0</ele><time>2026-04-05T09:07:28.729Z</time></trkpt><trkpt lat="45.630457" lon="9.4520792"><ele>222.0</ele><time>2026-04-05T09:07:31.729Z</time></trkpt><trkpt lat="45.6304713" lon="9.4522524"><ele>222.0</ele><time>2026-04-05T09:07:34.729Z</time></trkpt><trkpt lat="45.6304616" lon="9.4524034"><ele>222.0</ele><time>2026-04-05T09:07:36.729Z</time></trkpt><trkpt lat="45.6304537" lon="9.4525598"><ele>222.0</ele><time>2026-04-05T09:07:38.729Z</time></trkpt><trkpt lat="45.6304565" lon="9.4527138"><ele>222.0</ele><time>2026-04-05T09:07:40.729Z</time></trkpt><trkpt lat="45.6303824" lon="9.4528578"><ele>222.0</ele><time>2026-04-05T09:07:42.729Z</time></trkpt><trkpt lat="45.6303389" lon="9.4529845"><ele>222.0</ele><time>2026-04-05T09:07:44.728Z</time></trkpt><trkpt lat="45.6303569" lon="9.4531114"><ele>222.0</ele><time>2026-04-05T09:07:46.729Z</time></trkpt><trkpt lat="45.6303996" lon="9.4532233"><ele>222.0</ele><time>2026-04-05T09:07:48.729Z</time></trkpt><trkpt lat="45.6304308" lon="9.4533394"><ele>222.0</ele><time>2026-04-05T09:07:50.729Z</time></trkpt><trkpt lat="45.6305019" lon="9.4534497"><ele>222.0</ele><time>2026-04-05T09:07:52.729Z</time></trkpt><trkpt lat="45.6305747" lon="9.4535552"><ele>222.0</ele><time>2026-04-05T09:07:54.729Z</time></trkpt><trkpt lat="45.630636" lon="9.4536286"><ele>222.0</ele><time>2026-04-05T09:07:56.729Z</time></trkpt><trkpt lat="45.630625" lon="9.4537343"><ele>222.0</ele><time>2026-04-05T09:07:58.729Z</time></trkpt><trkpt lat="45.6306276" lon="9.4538477"><ele>222.0</ele><time>2026-04-05T09:08:00.729Z</time></trkpt><trkpt lat="45.6306161" lon="9.4539454"><ele>222.0</ele><time>2026-04-05T09:08:02.729Z</time></trkpt><trkpt lat="45.6306149" lon="9.4540779"><ele>222.0</ele><time>2026-04-05T09:08:05.729Z</time></trkpt><trkpt lat="45.6305921" lon="9.4541759"><ele>222.0</ele><time>2026-04-05T09:08:08.729Z</time></trkpt><trkpt lat="45.6305567" lon="9.4542719"><ele>221.83333333333334</ele><time>2026-04-05T09:08:11.729Z</time></trkpt><trkpt lat="45.6305318" lon="9.4543811"><ele>221.66666666666669</ele><time>2026-04-05T09:08:14.728Z</time></trkpt><trkpt lat="45.6305549" lon="9.4544996"><ele>221.5</ele><time>2026-04-05T09:08:16.729Z</time></trkpt><trkpt lat="45.6306064" lon="9.454573"><ele>221.33333333333334</ele><time>2026-04-05T09:08:18.729Z</time></trkpt><trkpt lat="45.6306836" lon="9.4546055"><ele>221.16666666666669</ele><time>2026-04-05T09:08:20.728Z</time></trkpt><trkpt lat="45.6307487" lon="9.4546428"><ele>221.0</ele><time>2026-04-05T09:08:22.729Z</time></trkpt><trkpt lat="45.6308134" lon="9.4546833"><ele>221.4</ele><time>2026-04-05T09:08:24.729Z</time></trkpt><trkpt lat="45.6308806" lon="9.4547143"><ele>221.8</ele><time>2026-04-05T09:08:26.729Z</time></trkpt><trkpt lat="45.6309898" lon="9.4547653"><ele>222.20000000000002</ele><time>2026-04-05T09:08:28.729Z</time></trkpt><trkpt lat="45.6310688" lon="9.4548591"><ele>222.60000000000002</ele><time>2026-04-05T09:08:30.729Z</time></trkpt><trkpt lat="45.6311319" lon="9.454929"><ele>223.0</ele><time>2026-04-05T09:08:32.728Z</time></trkpt><trkpt lat="45.6312105" lon="9.4549921"><ele>222.99999999999997</ele><time>2026-04-05T09:08:34.729Z</time></trkpt><trkpt lat="45.6312808" lon="9.4550423"><ele>223.0</ele><time>2026-04-05T09:08:35.729Z</time></trkpt><trkpt lat="45.6313577" lon="9.4551351"><ele>223.0</ele><time>2026-04-05T09:08:37.729Z</time></trkpt><trkpt lat="45.6314362" lon="9.4551789"><ele>223.0</ele><time>2026-04-05T09:08:39.728Z</time></trkpt><trkpt lat="45.6315018" lon="9.4552177"><ele>222.99999999999997</ele><time>2026-04-05T09:08:41.729Z</time></trkpt><trkpt lat="45.6315781" lon="9.4552339"><ele>223.0</ele><time>2026-04-05T09:08:43.729Z</time></trkpt><trkpt lat="45.6316672" lon="9.4552506"><ele>223.0</ele><time>2026-04-05T09:08:45.728Z</time></trkpt><trkpt lat="45.6317555" lon="9.4552906"><ele>223.0</ele><time>2026-04-05T09:08:47.729Z</time></trkpt><trkpt lat="45.6318251" lon="9.4554113"><ele>223.0</ele><time>2026-04-05T09:08:49.729Z</time></trkpt><trkpt lat="45.6318526" lon="9.4555379"><ele>223.0</ele><time>2026-04-05T09:08:51.729Z</time></trkpt><trkpt lat="45.6318698" lon="9.4556461"><ele>223.0</ele><time>2026-04-05T09:08:53.729Z</time></trkpt><trkpt lat="45.6319321" lon="9.4557398"><ele>223.4</ele><time>2026-04-05T09:08:55.729Z</time></trkpt><trkpt lat="45.6320607" lon="9.4557552"><ele>223.8</ele><time>2026-04-05T09:08:57.729Z</time></trkpt><trkpt lat="45.6321438" lon="9.455759"><ele>224.2</ele><time>2026-04-05T09:08:59.729Z</time></trkpt><trkpt lat="45.6322148" lon="9.4557805"><ele>224.6</ele><time>2026-04-05T09:09:01.729Z</time></trkpt><trkpt lat="45.6323109" lon="9.4558098"><ele>225.0</ele><time>2026-04-05T09:09:03.729Z</time></trkpt><trkpt lat="45.6324034" lon="9.4558332"><ele>225.0</ele><time>2026-04-05T09:09:05.728Z</time></trkpt><trkpt lat="45.6324995" lon="9.4558594"><ele>225.0</ele><time>2026-04-05T09:09:07.729Z</time></trkpt><trkpt lat="45.6325908" lon="9.4558864"><ele>225.0</ele><time>2026-04-05T09:09:09.728Z</time></trkpt><trkpt lat="45.6326859" lon="9.4559202"><ele>225.0</ele><time>2026-04-05T09:09:11.728Z</time></trkpt><trkpt lat="45.6327778" lon="9.4559494"><ele>225.0</ele><time>2026-04-05T09:09:13.729Z</time></trkpt><trkpt lat="45.6328632" lon="9.4559777"><ele>224.83333333333334</ele><time>2026-04-05T09:09:15.728Z</time></trkpt><trkpt lat="45.6329436" lon="9.4560271"><ele>224.66666666666669</ele><time>2026-04-05T09:09:17.729Z</time></trkpt><trkpt lat="45.633024" lon="9.4560786"><ele>224.5</ele><time>2026-04-05T09:09:19.729Z</time></trkpt><trkpt lat="45.6331039" lon="9.4561288"><ele>224.33333333333334</ele><time>2026-04-05T09:09:21.729Z</time></trkpt><trkpt lat="45.6331756" lon="9.4561771"><ele>224.16666666666669</ele><time>2026-04-05T09:09:23.729Z</time></trkpt><trkpt lat="45.6332414" lon="9.4562253"><ele>224.0</ele><time>2026-04-05T09:09:25.728Z</time></trkpt><trkpt lat="45.6332983" lon="9.4562938"><ele>224.5</ele><time>2026-04-05T09:09:27.729Z</time></trkpt><trkpt lat="45.633402" lon="9.4563848"><ele>225.0</ele><time>2026-04-05T09:09:29.728Z</time></trkpt><trkpt lat="45.6334862" lon="9.4564513"><ele>225.5</ele><time>2026-04-05T09:09:31.729Z</time></trkpt><trkpt lat="45.6335891" lon="9.4565373"><ele>226.0</ele><time>2026-04-05T09:09:33.729Z</time></trkpt><trkpt lat="45.6336915" lon="9.4566195"><ele>226.4</ele><time>2026-04-05T09:09:35.729Z</time></trkpt><trkpt lat="45.6337902" lon="9.4566962"><ele>226.8</ele><time>2026-04-05T09:09:37.729Z</time></trkpt><trkpt lat="45.6338865" lon="9.4567648"><ele>227.20000000000002</ele><time>2026-04-05T09:09:39.729Z</time></trkpt><trkpt lat="45.6339816" lon="9.4568334"><ele>227.60000000000002</ele><time>2026-04-05T09:09:41.729Z</time></trkpt><trkpt lat="45.6340595" lon="9.456889"><ele>228.0</ele><time>2026-04-05T09:09:43.728Z</time></trkpt><trkpt lat="45.6341197" lon="9.4569481"><ele>228.0</ele><time>2026-04-05T09:09:45.728Z</time></trkpt><trkpt lat="45.6342024" lon="9.4570127"><ele>228.0</ele><time>2026-04-05T09:09:47.729Z</time></trkpt><trkpt lat="45.6342765" lon="9.4570681"><ele>228.0</ele><time>2026-04-05T09:09:49.728Z</time></trkpt><trkpt lat="45.6343364" lon="9.4571177"><ele>228.0</ele><time>2026-04-05T09:09:51.728Z</time></trkpt><trkpt lat="45.634406" lon="9.4571684"><ele>228.0</ele><time>2026-04-05T09:09:53.728Z</time></trkpt><trkpt lat="45.6344753" lon="9.4572186"><ele>228.0</ele><time>2026-04-05T09:09:55.729Z</time></trkpt><trkpt lat="45.6345325" lon="9.457269"><ele>228.16666666666666</ele><time>2026-04-05T09:09:57.728Z</time></trkpt><trkpt lat="45.6345851" lon="9.4573657"><ele>228.33333333333331</ele><time>2026-04-05T09:10:00.728Z</time></trkpt><trkpt lat="45.6345615" lon="9.4574521"><ele>228.5</ele><time>2026-04-05T09:10:02.729Z</time></trkpt><trkpt lat="45.6345459" lon="9.4575476"><ele>228.66666666666666</ele><time>2026-04-05T09:10:04.728Z</time></trkpt><trkpt lat="45.6345142" lon="9.4576847"><ele>228.83333333333331</ele><time>2026-04-05T09:10:06.729Z</time></trkpt><trkpt lat="45.6344866" lon="9.4578287"><ele>229.0</ele><time>2026-04-05T09:10:08.728Z</time></trkpt><trkpt lat="45.6344617" lon="9.45799"><ele>228.2</ele><time>2026-04-05T09:10:10.728Z</time></trkpt><trkpt lat="45.634434" lon="9.4581467"><ele>227.39999999999998</ele><time>2026-04-05T09:10:12.728Z</time></trkpt><trkpt lat="45.6344044" lon="9.4583041"><ele>226.6</ele><time>2026-04-05T09:10:14.729Z</time></trkpt><trkpt lat="45.6343703" lon="9.4584508"><ele>225.8</ele><time>2026-04-05T09:10:16.729Z</time></trkpt><trkpt lat="45.6343404" lon="9.4586005"><ele>225.0</ele><time>2026-04-05T09:10:18.729Z</time></trkpt><trkpt lat="45.6343067" lon="9.4587642"><ele>225.2</ele><time>2026-04-05T09:10:20.728Z</time></trkpt><trkpt lat="45.6342913" lon="9.4588525"><ele>225.4</ele><time>2026-04-05T09:10:21.729Z</time></trkpt><trkpt lat="45.6342554" lon="9.4590177"><ele>225.60000000000002</ele><time>2026-04-05T09:10:23.729Z</time></trkpt><trkpt lat="45.6342831" lon="9.4591683"><ele>225.8</ele><time>2026-04-05T09:10:24.728Z</time></trkpt><trkpt lat="45.6342403" lon="9.4593172"><ele>226.0</ele><time>2026-04-05T09:10:26.728Z</time></trkpt><trkpt lat="45.6341913" lon="9.4594744"><ele>226.0</ele><time>2026-04-05T09:10:28.728Z</time></trkpt><trkpt lat="45.6341653" lon="9.4595573"><ele>226.00000000000003</ele><time>2026-04-05T09:10:29.729Z</time></trkpt><trkpt lat="45.6341242" lon="9.4597082"><ele>226.00000000000003</ele><time>2026-04-05T09:10:31.729Z</time></trkpt><trkpt lat="45.6340849" lon="9.4598793"><ele>226.0</ele><time>2026-04-05T09:10:33.729Z</time></trkpt><trkpt lat="45.6340628" lon="9.4599649"><ele>226.0</ele><time>2026-04-05T09:10:34.728Z</time></trkpt><trkpt lat="45.6340149" lon="9.4601261"><ele>226.20000000000002</ele><time>2026-04-05T09:10:36.729Z</time></trkpt><trkpt lat="45.6339729" lon="9.4602933"><ele>226.40000000000003</ele><time>2026-04-05T09:10:38.729Z</time></trkpt><trkpt lat="45.6339391" lon="9.4603761"><ele>226.6</ele><time>2026-04-05T09:10:39.728Z</time></trkpt><trkpt lat="45.6339017" lon="9.4605482"><ele>226.8</ele><time>2026-04-05T09:10:41.729Z</time></trkpt><trkpt lat="45.6338618" lon="9.4607205"><ele>227.0</ele><time>2026-04-05T09:10:43.729Z</time></trkpt><trkpt lat="45.6338408" lon="9.4608063"><ele>227.00000000000003</ele><time>2026-04-05T09:10:44.729Z</time></trkpt><trkpt lat="45.6338014" lon="9.4609623"><ele>227.0</ele><time>2026-04-05T09:10:46.729Z</time></trkpt><trkpt lat="45.6337777" lon="9.4610463"><ele>227.0</ele><time>2026-04-05T09:10:47.728Z</time></trkpt><trkpt lat="45.63372" lon="9.4612008"><ele>227.0</ele><time>2026-04-05T09:10:49.729Z</time></trkpt><trkpt lat="45.6336782" lon="9.4612714"><ele>227.00000000000003</ele><time>2026-04-05T09:10:50.728Z</time></trkpt><trkpt lat="45.6336337" lon="9.4613398"><ele>227.0</ele><time>2026-04-05T09:10:51.729Z</time></trkpt><trkpt lat="45.6335401" lon="9.4614625"><ele>226.83333333333334</ele><time>2026-04-05T09:10:53.729Z</time></trkpt><trkpt lat="45.6335093" lon="9.4615439"><ele>226.66666666666669</ele><time>2026-04-05T09:10:54.729Z</time></trkpt><trkpt lat="45.6334854" lon="9.461631"><ele>226.5</ele><time>2026-04-05T09:10:55.729Z</time></trkpt><trkpt lat="45.6334732" lon="9.4617208"><ele>226.33333333333331</ele><time>2026-04-05T09:10:56.728Z</time></trkpt><trkpt lat="45.6334778" lon="9.461814"><ele>226.16666666666666</ele><time>2026-04-05T09:10:57.728Z</time></trkpt><trkpt lat="45.6334792" lon="9.4619965"><ele>226.0</ele><time>2026-04-05T09:10:59.729Z</time></trkpt><trkpt lat="45.6334775" lon="9.4620903"><ele>226.20000000000002</ele><time>2026-04-05T09:11:00.729Z</time></trkpt><trkpt lat="45.6334506" lon="9.4622816"><ele>226.40000000000003</ele><time>2026-04-05T09:11:02.729Z</time></trkpt><trkpt lat="45.6334089" lon="9.4624533"><ele>226.6</ele><time>2026-04-05T09:11:04.729Z</time></trkpt><trkpt lat="45.6333852" lon="9.4625446"><ele>226.8</ele><time>2026-04-05T09:11:05.728Z</time></trkpt><trkpt lat="45.6333643" lon="9.4626366"><ele>227.0</ele><time>2026-04-05T09:11:06.729Z</time></trkpt><trkpt lat="45.6333415" lon="9.4627326"><ele>227.0</ele><time>2026-04-05T09:11:07.728Z</time></trkpt><trkpt lat="45.6333216" lon="9.4628211"><ele>227.00000000000003</ele><time>2026-04-05T09:11:08.729Z</time></trkpt><trkpt lat="45.6332926" lon="9.4629039"><ele>227.0</ele><time>2026-04-05T09:11:09.729Z</time></trkpt><trkpt lat="45.6332724" lon="9.4629939"><ele>227.0</ele><time>2026-04-05T09:11:10.729Z</time></trkpt><trkpt lat="45.6332551" lon="9.4630883"><ele>227.00000000000003</ele><time>2026-04-05T09:11:11.729Z</time></trkpt><trkpt lat="45.6332373" lon="9.4631797"><ele>227.0</ele><time>2026-04-05T09:11:12.729Z</time></trkpt><trkpt lat="45.6332184" lon="9.4632732"><ele>227.0</ele><time>2026-04-05T09:11:13.729Z</time></trkpt><trkpt lat="45.6331761" lon="9.4634528"><ele>227.2857142857143</ele><time>2026-04-05T09:11:15.728Z</time></trkpt><trkpt lat="45.6331589" lon="9.46354"><ele>227.5714285714286</ele><time>2026-04-05T09:11:16.728Z</time></trkpt><trkpt lat="45.6331124" lon="9.463709"><ele>227.85714285714286</ele><time>2026-04-05T09:11:18.729Z</time></trkpt><trkpt lat="45.6330904" lon="9.4637965"><ele>228.14285714285717</ele><time>2026-04-05T09:11:19.728Z</time></trkpt><trkpt lat="45.6330748" lon="9.4638873"><ele>228.42857142857144</ele><time>2026-04-05T09:11:20.729Z</time></trkpt><trkpt lat="45.6330542" lon="9.4639741"><ele>228.71428571428572</ele><time>2026-04-05T09:11:21.728Z</time></trkpt><trkpt lat="45.6330353" lon="9.4640606"><ele>229.0</ele><time>2026-04-05T09:11:22.729Z</time></trkpt><trkpt lat="45.6330096" lon="9.4641474"><ele>229.0</ele><time>2026-04-05T09:11:23.729Z</time></trkpt><trkpt lat="45.6329921" lon="9.464234"><ele>229.0</ele><time>2026-04-05T09:11:24.728Z</time></trkpt><trkpt lat="45.6329672" lon="9.4643278"><ele>229.0</ele><time>2026-04-05T09:11:25.728Z</time></trkpt><trkpt lat="45.6329436" lon="9.4644126"><ele>229.0</ele><time>2026-04-05T09:11:26.728Z</time></trkpt><trkpt lat="45.6329189" lon="9.4644994"><ele>229.0</ele><time>2026-04-05T09:11:27.729Z</time></trkpt><trkpt lat="45.6328963" lon="9.4645836"><ele>229.0</ele><time>2026-04-05T09:11:28.729Z</time></trkpt><trkpt lat="45.6328709" lon="9.4646705"><ele>229.0</ele><time>2026-04-05T09:11:29.729Z</time></trkpt><trkpt lat="45.6328505" lon="9.4647599"><ele>229.0</ele><time>2026-04-05T09:11:30.728Z</time></trkpt><trkpt lat="45.6328357" lon="9.4648573"><ele>229.0</ele><time>2026-04-05T09:11:31.729Z</time></trkpt><trkpt lat="45.6328103" lon="9.4649504"><ele>229.0</ele><time>2026-04-05T09:11:32.729Z</time></trkpt><trkpt lat="45.6327801" lon="9.4650474"><ele>229.0</ele><time>2026-04-05T09:11:33.728Z</time></trkpt><trkpt lat="45.6327528" lon="9.465134"><ele>229.0</ele><time>2026-04-05T09:11:34.729Z</time></trkpt><trkpt lat="45.6327266" lon="9.4652254"><ele>229.0</ele><time>2026-04-05T09:11:35.728Z</time></trkpt><trkpt lat="45.6327011" lon="9.4653122"><ele>229.0</ele><time>2026-04-05T09:11:36.729Z</time></trkpt><trkpt lat="45.632677" lon="9.4653985"><ele>229.16666666666666</ele><time>2026-04-05T09:11:37.728Z</time></trkpt><trkpt lat="45.6326477" lon="9.4654881"><ele>229.33333333333331</ele><time>2026-04-05T09:11:38.728Z</time></trkpt><trkpt lat="45.6326256" lon="9.4655792"><ele>229.5</ele><time>2026-04-05T09:11:39.729Z</time></trkpt><trkpt lat="45.6325998" lon="9.4656674"><ele>229.66666666666669</ele><time>2026-04-05T09:11:40.729Z</time></trkpt><trkpt lat="45.6325693" lon="9.4657537"><ele>229.83333333333334</ele><time>2026-04-05T09:11:41.728Z</time></trkpt><trkpt lat="45.6325513" lon="9.4658522"><ele>230.0</ele><time>2026-04-05T09:11:42.728Z</time></trkpt><trkpt lat="45.6325199" lon="9.4660243"><ele>229.99999999999997</ele><time>2026-04-05T09:11:44.729Z</time></trkpt><trkpt lat="45.6325013" lon="9.4661172"><ele>230.0</ele><time>2026-04-05T09:11:45.729Z</time></trkpt><trkpt lat="45.6324759" lon="9.4662093"><ele>229.99999999999997</ele><time>2026-04-05T09:11:46.729Z</time></trkpt><trkpt lat="45.6324444" lon="9.4662976"><ele>229.99999999999997</ele><time>2026-04-05T09:11:47.729Z</time></trkpt><trkpt lat="45.632419" lon="9.4663907"><ele>230.0</ele><time>2026-04-05T09:11:48.729Z</time></trkpt><trkpt lat="45.6323961" lon="9.46648"><ele>229.99999999999997</ele><time>2026-04-05T09:11:49.728Z</time></trkpt><trkpt lat="45.6323738" lon="9.466574"><ele>229.99999999999997</ele><time>2026-04-05T09:11:50.729Z</time></trkpt><trkpt lat="45.6323489" lon="9.4666656"><ele>229.71428571428567</ele><time>2026-04-05T09:11:51.729Z</time></trkpt><trkpt lat="45.6323253" lon="9.4667624"><ele>229.42857142857142</ele><time>2026-04-05T09:11:52.729Z</time></trkpt><trkpt lat="45.6323033" lon="9.4668632"><ele>229.1428571428571</ele><time>2026-04-05T09:11:53.728Z</time></trkpt><trkpt lat="45.6322784" lon="9.4669592"><ele>228.85714285714283</ele><time>2026-04-05T09:11:54.729Z</time></trkpt><trkpt lat="45.6322558" lon="9.4670535"><ele>228.57142857142856</ele><time>2026-04-05T09:11:55.729Z</time></trkpt><trkpt lat="45.6322342" lon="9.4671492"><ele>228.28571428571428</ele><time>2026-04-05T09:11:56.729Z</time></trkpt><trkpt lat="45.632207" lon="9.4672423"><ele>228.0</ele><time>2026-04-05T09:11:57.729Z</time></trkpt><trkpt lat="45.6321821" lon="9.4673304"><ele>227.7142857142857</ele><time>2026-04-05T09:11:58.729Z</time></trkpt><trkpt lat="45.6321557" lon="9.4674312"><ele>227.4285714285714</ele><time>2026-04-05T09:11:59.729Z</time></trkpt><trkpt lat="45.6321348" lon="9.4675171"><ele>227.14285714285714</ele><time>2026-04-05T09:12:00.729Z</time></trkpt><trkpt lat="45.6321055" lon="9.467622"><ele>226.85714285714283</ele><time>2026-04-05T09:12:01.729Z</time></trkpt><trkpt lat="45.632086" lon="9.4677169"><ele>226.57142857142856</ele><time>2026-04-05T09:12:02.729Z</time></trkpt><trkpt lat="45.6320628" lon="9.4678075"><ele>226.28571428571428</ele><time>2026-04-05T09:12:03.729Z</time></trkpt><trkpt lat="45.6320395" lon="9.4679128"><ele>226.0</ele><time>2026-04-05T09:12:04.729Z</time></trkpt><trkpt lat="45.6320135" lon="9.4680102"><ele>225.99999999999997</ele><time>2026-04-05T09:12:05.729Z</time></trkpt><trkpt lat="45.6319872" lon="9.4681096"><ele>226.0</ele><time>2026-04-05T09:12:06.729Z</time></trkpt><trkpt lat="45.6319657" lon="9.4682201"><ele>226.0</ele><time>2026-04-05T09:12:07.729Z</time></trkpt><trkpt lat="45.6319478" lon="9.4683195"><ele>226.0</ele><time>2026-04-05T09:12:08.729Z</time></trkpt><trkpt lat="45.6319156" lon="9.468429"><ele>225.99999999999997</ele><time>2026-04-05T09:12:09.728Z</time></trkpt><trkpt lat="45.6318916" lon="9.4685356"><ele>226.0</ele><time>2026-04-05T09:12:10.729Z</time></trkpt><trkpt lat="45.6318605" lon="9.4686305"><ele>226.16666666666666</ele><time>2026-04-05T09:12:11.729Z</time></trkpt><trkpt lat="45.6318302" lon="9.4687351"><ele>226.33333333333331</ele><time>2026-04-05T09:12:12.729Z</time></trkpt><trkpt lat="45.6318025" lon="9.4688319"><ele>226.5</ele><time>2026-04-05T09:12:13.728Z</time></trkpt><trkpt lat="45.6317744" lon="9.4689276"><ele>226.66666666666669</ele><time>2026-04-05T09:12:14.729Z</time></trkpt><trkpt lat="45.6317461" lon="9.4690382"><ele>226.83333333333334</ele><time>2026-04-05T09:12:15.728Z</time></trkpt><trkpt lat="45.6317334" lon="9.4691473"><ele>227.0</ele><time>2026-04-05T09:12:16.729Z</time></trkpt><trkpt lat="45.6316984" lon="9.4692349"><ele>226.66666666666669</ele><time>2026-04-05T09:12:17.728Z</time></trkpt><trkpt lat="45.6316767" lon="9.4693351"><ele>226.33333333333334</ele><time>2026-04-05T09:12:18.728Z</time></trkpt><trkpt lat="45.6316546" lon="9.4694263"><ele>226.0</ele><time>2026-04-05T09:12:19.729Z</time></trkpt><trkpt lat="45.6316282" lon="9.4695085"><ele>225.66666666666669</ele><time>2026-04-05T09:12:20.728Z</time></trkpt><trkpt lat="45.6315751" lon="9.4696896"><ele>225.33333333333334</ele><time>2026-04-05T09:12:22.728Z</time></trkpt><trkpt lat="45.6315412" lon="9.4697782"><ele>225.0</ele><time>2026-04-05T09:12:23.729Z</time></trkpt><trkpt lat="45.6314999" lon="9.4698817"><ele>225.0</ele><time>2026-04-05T09:12:24.729Z</time></trkpt><trkpt lat="45.6314704" lon="9.4699714"><ele>225.0</ele><time>2026-04-05T09:12:25.728Z</time></trkpt><trkpt lat="45.6314414" lon="9.4700527"><ele>225.0</ele><time>2026-04-05T09:12:26.729Z</time></trkpt><trkpt lat="45.6314175" lon="9.4701367"><ele>225.0</ele><time>2026-04-05T09:12:27.729Z</time></trkpt><trkpt lat="45.6313602" lon="9.4702223"><ele>225.0</ele><time>2026-04-05T09:12:29.728Z</time></trkpt><trkpt lat="45.6312735" lon="9.4702749"><ele>225.0</ele><time>2026-04-05T09:12:32.729Z</time></trkpt><trkpt lat="45.6311783" lon="9.4702145"><ele>224.6</ele><time>2026-04-05T09:12:34.729Z</time></trkpt><trkpt lat="45.6310823" lon="9.4701324"><ele>224.2</ele><time>2026-04-05T09:12:36.729Z</time></trkpt><trkpt lat="45.6310214" lon="9.4700922"><ele>223.8</ele><time>2026-04-05T09:12:37.729Z</time></trkpt><trkpt lat="45.6309048" lon="9.4700619"><ele>223.4</ele><time>2026-04-05T09:12:39.728Z</time></trkpt><trkpt lat="45.630842" lon="9.4700494"><ele>223.0</ele><time>2026-04-05T09:12:40.729Z</time></trkpt><trkpt lat="45.6307142" lon="9.4700596"><ele>222.99999999999997</ele><time>2026-04-05T09:12:42.728Z</time></trkpt><trkpt lat="45.6306569" lon="9.4701056"><ele>223.0</ele><time>2026-04-05T09:12:43.729Z</time></trkpt><trkpt lat="45.6305979" lon="9.4701505"><ele>223.0</ele><time>2026-04-05T09:12:44.728Z</time></trkpt><trkpt lat="45.6305284" lon="9.4702862"><ele>223.0</ele><time>2026-04-05T09:12:46.729Z</time></trkpt><trkpt lat="45.6304807" lon="9.4704497"><ele>222.99999999999997</ele><time>2026-04-05T09:12:48.728Z</time></trkpt><trkpt lat="45.6304621" lon="9.470538"><ele>223.0</ele><time>2026-04-05T09:12:49.729Z</time></trkpt><trkpt lat="45.6304434" lon="9.4706266"><ele>223.0</ele><time>2026-04-05T09:12:50.729Z</time></trkpt><trkpt lat="45.6304073" lon="9.4707949"><ele>223.0</ele><time>2026-04-05T09:12:52.729Z</time></trkpt><trkpt lat="45.6304052" lon="9.4709595"><ele>223.0</ele><time>2026-04-05T09:12:54.729Z</time></trkpt><trkpt lat="45.6303987" lon="9.4711285"><ele>223.0</ele><time>2026-04-05T09:12:56.729Z</time></trkpt><trkpt lat="45.6304099" lon="9.4713126"><ele>223.2</ele><time>2026-04-05T09:12:58.729Z</time></trkpt><trkpt lat="45.6304162" lon="9.4714903"><ele>223.4</ele><time>2026-04-05T09:13:00.729Z</time></trkpt><trkpt lat="45.6304221" lon="9.4716517"><ele>223.59999999999997</ele><time>2026-04-05T09:13:02.729Z</time></trkpt><trkpt lat="45.6304203" lon="9.4717428"><ele>223.79999999999998</ele><time>2026-04-05T09:13:03.729Z</time></trkpt><trkpt lat="45.6304016" lon="9.4719188"><ele>224.0</ele><time>2026-04-05T09:13:05.728Z</time></trkpt><trkpt lat="45.6303543" lon="9.4720696"><ele>224.0</ele><time>2026-04-05T09:13:07.728Z</time></trkpt><trkpt lat="45.6303241" lon="9.4722423"><ele>223.99999999999997</ele><time>2026-04-05T09:13:09.729Z</time></trkpt><trkpt lat="45.6303694" lon="9.4724097"><ele>223.99999999999997</ele><time>2026-04-05T09:13:11.728Z</time></trkpt><trkpt lat="45.6304058" lon="9.4724867"><ele>224.0</ele><time>2026-04-05T09:13:12.729Z</time></trkpt><trkpt lat="45.630447" lon="9.472557"><ele>224.0</ele><time>2026-04-05T09:13:13.729Z</time></trkpt><trkpt lat="45.6304881" lon="9.4726405"><ele>224.0</ele><time>2026-04-05T09:13:14.729Z</time></trkpt><trkpt lat="45.6305154" lon="9.4727246"><ele>223.99999999999997</ele><time>2026-04-05T09:13:15.729Z</time></trkpt><trkpt lat="45.6305271" lon="9.4728892"><ele>223.99999999999997</ele><time>2026-04-05T09:13:17.728Z</time></trkpt><trkpt lat="45.6305038" lon="9.4729779"><ele>224.0</ele><time>2026-04-05T09:13:18.729Z</time></trkpt><trkpt lat="45.630429" lon="9.4731053"><ele>224.0</ele><time>2026-04-05T09:13:20.729Z</time></trkpt><trkpt lat="45.630355" lon="9.4732481"><ele>223.79999999999998</ele><time>2026-04-05T09:13:22.729Z</time></trkpt><trkpt lat="45.6302765" lon="9.4733722"><ele>223.59999999999997</ele><time>2026-04-05T09:13:24.729Z</time></trkpt><trkpt lat="45.6301899" lon="9.4735044"><ele>223.4</ele><time>2026-04-05T09:13:26.729Z</time></trkpt><trkpt lat="45.6301057" lon="9.47363"><ele>223.2</ele><time>2026-04-05T09:13:28.728Z</time></trkpt><trkpt lat="45.630064" lon="9.473699"><ele>223.0</ele><time>2026-04-05T09:13:29.728Z</time></trkpt><trkpt lat="45.6299901" lon="9.4738296"><ele>223.75</ele><time>2026-04-05T09:13:31.728Z</time></trkpt><trkpt lat="45.6299077" lon="9.4739687"><ele>224.5</ele><time>2026-04-05T09:13:33.729Z</time></trkpt><trkpt lat="45.6298294" lon="9.4740984"><ele>225.25</ele><time>2026-04-05T09:13:35.729Z</time></trkpt><trkpt lat="45.6297561" lon="9.4742256"><ele>226.0</ele><time>2026-04-05T09:13:37.729Z</time></trkpt><trkpt lat="45.6296818" lon="9.4743518"><ele>226.0</ele><time>2026-04-05T09:13:39.728Z</time></trkpt><trkpt lat="45.6296085" lon="9.4744649"><ele>226.00000000000003</ele><time>2026-04-05T09:13:41.729Z</time></trkpt><trkpt lat="45.6295609" lon="9.4746159"><ele>226.00000000000003</ele><time>2026-04-05T09:13:43.729Z</time></trkpt><trkpt lat="45.6295363" lon="9.4747078"><ele>226.0</ele><time>2026-04-05T09:13:44.729Z</time></trkpt><trkpt lat="45.6295057" lon="9.4748633"><ele>226.0</ele><time>2026-04-05T09:13:46.729Z</time></trkpt><trkpt lat="45.6294667" lon="9.4749619"><ele>225.8</ele><time>2026-04-05T09:13:47.729Z</time></trkpt><trkpt lat="45.6294138" lon="9.4751159"><ele>225.60000000000002</ele><time>2026-04-05T09:13:49.729Z</time></trkpt><trkpt lat="45.6294006" lon="9.4752091"><ele>225.4</ele><time>2026-04-05T09:13:50.728Z</time></trkpt><trkpt lat="45.6293545" lon="9.4753715"><ele>225.2</ele><time>2026-04-05T09:13:52.729Z</time></trkpt><trkpt lat="45.6293181" lon="9.4755453"><ele>225.0</ele><time>2026-04-05T09:13:54.729Z</time></trkpt><trkpt lat="45.6292938" lon="9.4756421"><ele>225.4</ele><time>2026-04-05T09:13:55.729Z</time></trkpt><trkpt lat="45.6292736" lon="9.4757287"><ele>225.8</ele><time>2026-04-05T09:13:56.728Z</time></trkpt><trkpt lat="45.6292318" lon="9.4759014"><ele>226.2</ele><time>2026-04-05T09:13:58.728Z</time></trkpt><trkpt lat="45.6292093" lon="9.4759903"><ele>226.6</ele><time>2026-04-05T09:13:59.729Z</time></trkpt><trkpt lat="45.6291973" lon="9.4760812"><ele>227.0</ele><time>2026-04-05T09:14:00.729Z</time></trkpt><trkpt lat="45.6291491" lon="9.4762527"><ele>227.16666666666669</ele><time>2026-04-05T09:14:02.729Z</time></trkpt><trkpt lat="45.6290954" lon="9.4764267"><ele>227.33333333333334</ele><time>2026-04-05T09:14:04.729Z</time></trkpt><trkpt lat="45.6290683" lon="9.4765195"><ele>227.5</ele><time>2026-04-05T09:14:05.729Z</time></trkpt><trkpt lat="45.6290423" lon="9.4766058"><ele>227.66666666666669</ele><time>2026-04-05T09:14:06.729Z</time></trkpt><trkpt lat="45.6290095" lon="9.4766852"><ele>227.83333333333334</ele><time>2026-04-05T09:14:07.729Z</time></trkpt><trkpt lat="45.6289819" lon="9.4767688"><ele>228.0</ele><time>2026-04-05T09:14:08.729Z</time></trkpt><trkpt lat="45.6289582" lon="9.4768633"><ele>228.0</ele><time>2026-04-05T09:14:09.729Z</time></trkpt><trkpt lat="45.6289222" lon="9.4769466"><ele>227.99999999999997</ele><time>2026-04-05T09:14:10.729Z</time></trkpt><trkpt lat="45.6288969" lon="9.4770435"><ele>228.0</ele><time>2026-04-05T09:14:11.729Z</time></trkpt><trkpt lat="45.6288695" lon="9.4771384"><ele>228.0</ele><time>2026-04-05T09:14:12.728Z</time></trkpt><trkpt lat="45.628845" lon="9.4772331"><ele>227.99999999999997</ele><time>2026-04-05T09:14:13.729Z</time></trkpt><trkpt lat="45.6288138" lon="9.4773157"><ele>228.0</ele><time>2026-04-05T09:14:14.729Z</time></trkpt><trkpt lat="45.6287824" lon="9.4774023"><ele>228.0</ele><time>2026-04-05T09:14:15.728Z</time></trkpt><trkpt lat="45.6287489" lon="9.4774856"><ele>228.0</ele><time>2026-04-05T09:14:16.729Z</time></trkpt><trkpt lat="45.6287211" lon="9.4775855"><ele>227.99999999999997</ele><time>2026-04-05T09:14:17.728Z</time></trkpt><trkpt lat="45.6286905" lon="9.4776674"><ele>228.0</ele><time>2026-04-05T09:14:18.729Z</time></trkpt><trkpt lat="45.6286603" lon="9.4777638"><ele>228.0</ele><time>2026-04-05T09:14:19.729Z</time></trkpt><trkpt lat="45.6286334" lon="9.4778609"><ele>227.99999999999997</ele><time>2026-04-05T09:14:20.729Z</time></trkpt><trkpt lat="45.6286065" lon="9.4779513"><ele>228.0</ele><time>2026-04-05T09:14:21.729Z</time></trkpt><trkpt lat="45.6285782" lon="9.4780422"><ele>228.0</ele><time>2026-04-05T09:14:22.729Z</time></trkpt><trkpt lat="45.6285502" lon="9.4781445"><ele>226.7142857142857</ele><time>2026-04-05T09:14:23.729Z</time></trkpt><trkpt lat="45.628521" lon="9.4782355"><ele>225.4285714285714</ele><time>2026-04-05T09:14:24.729Z</time></trkpt><trkpt lat="45.6284815" lon="9.4783301"><ele>224.14285714285714</ele><time>2026-04-05T09:14:25.729Z</time></trkpt><trkpt lat="45.6284402" lon="9.4784211"><ele>222.85714285714283</ele><time>2026-04-05T09:14:26.729Z</time></trkpt><trkpt lat="45.6284086" lon="9.4785084"><ele>221.57142857142856</ele><time>2026-04-05T09:14:27.728Z</time></trkpt><trkpt lat="45.6283826" lon="9.4786029"><ele>220.28571428571428</ele><time>2026-04-05T09:14:28.728Z</time></trkpt><trkpt lat="45.6283461" lon="9.4787078"><ele>219.0</ele><time>2026-04-05T09:14:29.729Z</time></trkpt><trkpt lat="45.6283163" lon="9.4788092"><ele>219.0</ele><time>2026-04-05T09:14:30.729Z</time></trkpt><trkpt lat="45.6282842" lon="9.4788936"><ele>219.0</ele><time>2026-04-05T09:14:31.729Z</time></trkpt><trkpt lat="45.6282526" lon="9.478992"><ele>219.0</ele><time>2026-04-05T09:14:32.729Z</time></trkpt><trkpt lat="45.6282236" lon="9.4790822"><ele>219.0</ele><time>2026-04-05T09:14:33.728Z</time></trkpt><trkpt lat="45.6281953" lon="9.4791712"><ele>219.0</ele><time>2026-04-05T09:14:34.729Z</time></trkpt><trkpt lat="45.6281595" lon="9.4792659"><ele>219.0</ele><time>2026-04-05T09:14:35.729Z</time></trkpt><trkpt lat="45.6281247" lon="9.4793555"><ele>219.0</ele><time>2026-04-05T09:14:36.729Z</time></trkpt><trkpt lat="45.6280954" lon="9.4794437"><ele>219.0</ele><time>2026-04-05T09:14:37.729Z</time></trkpt><trkpt lat="45.6280642" lon="9.479541"><ele>219.0</ele><time>2026-04-05T09:14:38.729Z</time></trkpt><trkpt lat="45.6280307" lon="9.4796369"><ele>219.0</ele><time>2026-04-05T09:14:39.729Z</time></trkpt><trkpt lat="45.6280026" lon="9.4797296"><ele>219.0</ele><time>2026-04-05T09:14:40.729Z</time></trkpt><trkpt lat="45.6279726" lon="9.4798254"><ele>219.0</ele><time>2026-04-05T09:14:41.729Z</time></trkpt><trkpt lat="45.6279419" lon="9.4799307"><ele>219.0</ele><time>2026-04-05T09:14:42.728Z</time></trkpt><trkpt lat="45.6279156" lon="9.4800212"><ele>219.0</ele><time>2026-04-05T09:14:43.728Z</time></trkpt><trkpt lat="45.6278822" lon="9.4801143"><ele>219.0</ele><time>2026-04-05T09:14:44.729Z</time></trkpt><trkpt lat="45.6278483" lon="9.4802014"><ele>219.0</ele><time>2026-04-05T09:14:45.729Z</time></trkpt><trkpt lat="45.6278211" lon="9.4802924"><ele>219.0</ele><time>2026-04-05T09:14:46.729Z</time></trkpt><trkpt lat="45.6277909" lon="9.480386"><ele>219.0</ele><time>2026-04-05T09:14:47.729Z</time></trkpt><trkpt lat="45.6277554" lon="9.4804767"><ele>219.0</ele><time>2026-04-05T09:14:48.729Z</time></trkpt><trkpt lat="45.6277233" lon="9.4805705"><ele>219.0</ele><time>2026-04-05T09:14:49.729Z</time></trkpt><trkpt lat="45.6276895" lon="9.4806545"><ele>219.0</ele><time>2026-04-05T09:14:50.729Z</time></trkpt><trkpt lat="45.6276561" lon="9.4807415"><ele>219.0</ele><time>2026-04-05T09:14:51.728Z</time></trkpt><trkpt lat="45.6276175" lon="9.4808347"><ele>219.0</ele><time>2026-04-05T09:14:52.729Z</time></trkpt><trkpt lat="45.6275837" lon="9.4809176"><ele>219.0</ele><time>2026-04-05T09:14:53.729Z</time></trkpt><trkpt lat="45.6275462" lon="9.4810086"><ele>219.0</ele><time>2026-04-05T09:14:54.729Z</time></trkpt><trkpt lat="45.6275141" lon="9.4810939"><ele>219.0</ele><time>2026-04-05T09:14:55.729Z</time></trkpt><trkpt lat="45.6274738" lon="9.4811841"><ele>219.0</ele><time>2026-04-05T09:14:56.729Z</time></trkpt><trkpt lat="45.6274381" lon="9.4812793"><ele>219.0</ele><time>2026-04-05T09:14:57.729Z</time></trkpt><trkpt lat="45.6273978" lon="9.4813683"><ele>218.85714285714286</ele><time>2026-04-05T09:14:58.728Z</time></trkpt><trkpt lat="45.6273653" lon="9.4814508"><ele>218.7142857142857</ele><time>2026-04-05T09:14:59.729Z</time></trkpt><trkpt lat="45.6273295" lon="9.4815482"><ele>218.57142857142856</ele><time>2026-04-05T09:15:00.728Z</time></trkpt><trkpt lat="45.6272938" lon="9.4816379"><ele>218.42857142857144</ele><time>2026-04-05T09:15:01.729Z</time></trkpt><trkpt lat="45.6272581" lon="9.4817293"><ele>218.28571428571428</ele><time>2026-04-05T09:15:02.729Z</time></trkpt><trkpt lat="45.6272255" lon="9.4818201"><ele>218.14285714285714</ele><time>2026-04-05T09:15:03.729Z</time></trkpt><trkpt lat="45.6271871" lon="9.4819073"><ele>218.0</ele><time>2026-04-05T09:15:04.729Z</time></trkpt><trkpt lat="45.6271529" lon="9.4819997"><ele>218.0</ele><time>2026-04-05T09:15:05.729Z</time></trkpt><trkpt lat="45.6271195" lon="9.48209"><ele>218.0</ele><time>2026-04-05T09:15:06.729Z</time></trkpt><trkpt lat="45.6270903" lon="9.4821815"><ele>218.0</ele><time>2026-04-05T09:15:07.729Z</time></trkpt><trkpt lat="45.6270613" lon="9.4822749"><ele>218.0</ele><time>2026-04-05T09:15:08.729Z</time></trkpt><trkpt lat="45.6270232" lon="9.4823607"><ele>218.0</ele><time>2026-04-05T09:15:09.729Z</time></trkpt><trkpt lat="45.627002" lon="9.4824534"><ele>218.0</ele><time>2026-04-05T09:15:10.729Z</time></trkpt><trkpt lat="45.6269717" lon="9.4825475"><ele>218.0</ele><time>2026-04-05T09:15:11.728Z</time></trkpt><trkpt lat="45.6269485" lon="9.4826442"><ele>218.14285714285714</ele><time>2026-04-05T09:15:12.729Z</time></trkpt><trkpt lat="45.6269194" lon="9.4827379"><ele>218.28571428571428</ele><time>2026-04-05T09:15:13.729Z</time></trkpt><trkpt lat="45.6268887" lon="9.4828293"><ele>218.42857142857144</ele><time>2026-04-05T09:15:14.728Z</time></trkpt><trkpt lat="45.6268533" lon="9.4829296"><ele>218.57142857142856</ele><time>2026-04-05T09:15:15.729Z</time></trkpt><trkpt lat="45.6268227" lon="9.4830273"><ele>218.7142857142857</ele><time>2026-04-05T09:15:16.728Z</time></trkpt><trkpt lat="45.6267919" lon="9.4831174"><ele>218.85714285714286</ele><time>2026-04-05T09:15:17.729Z</time></trkpt><trkpt lat="45.6267615" lon="9.4832126"><ele>219.0</ele><time>2026-04-05T09:15:18.729Z</time></trkpt><trkpt lat="45.6267335" lon="9.483298"><ele>219.0</ele><time>2026-04-05T09:15:19.729Z</time></trkpt><trkpt lat="45.6267061" lon="9.4833878"><ele>219.0</ele><time>2026-04-05T09:15:20.729Z</time></trkpt><trkpt lat="45.6266738" lon="9.4834806"><ele>219.0</ele><time>2026-04-05T09:15:21.729Z</time></trkpt><trkpt lat="45.6266387" lon="9.4835805"><ele>219.0</ele><time>2026-04-05T09:15:22.729Z</time></trkpt><trkpt lat="45.6266102" lon="9.4836723"><ele>219.0</ele><time>2026-04-05T09:15:23.728Z</time></trkpt><trkpt lat="45.6265737" lon="9.4837657"><ele>219.0</ele><time>2026-04-05T09:15:24.729Z</time></trkpt><trkpt lat="45.6265439" lon="9.4838566"><ele>219.0</ele><time>2026-04-05T09:15:25.728Z</time></trkpt><trkpt lat="45.6265025" lon="9.4839402"><ele>219.0</ele><time>2026-04-05T09:15:26.729Z</time></trkpt><trkpt lat="45.6264765" lon="9.4840264"><ele>219.0</ele><time>2026-04-05T09:15:27.729Z</time></trkpt><trkpt lat="45.6264552" lon="9.4841212"><ele>219.0</ele><time>2026-04-05T09:15:28.729Z</time></trkpt><trkpt lat="45.6264244" lon="9.4842172"><ele>219.0</ele><time>2026-04-05T09:15:29.729Z</time></trkpt><trkpt lat="45.6263888" lon="9.4843081"><ele>219.0</ele><time>2026-04-05T09:15:30.729Z</time></trkpt><trkpt lat="45.6263566" lon="9.4843968"><ele>219.0</ele><time>2026-04-05T09:15:31.729Z</time></trkpt><trkpt lat="45.6263221" lon="9.4844834"><ele>219.0</ele><time>2026-04-05T09:15:32.729Z</time></trkpt><trkpt lat="45.6262812" lon="9.4845772"><ele>218.85714285714286</ele><time>2026-04-05T09:15:33.728Z</time></trkpt><trkpt lat="45.626245" lon="9.4846651"><ele>218.7142857142857</ele><time>2026-04-05T09:15:34.729Z</time></trkpt><trkpt lat="45.6262111" lon="9.4847526"><ele>218.57142857142856</ele><time>2026-04-05T09:15:35.728Z</time></trkpt><trkpt lat="45.6261734" lon="9.4848387"><ele>218.42857142857144</ele><time>2026-04-05T09:15:36.729Z</time></trkpt><trkpt lat="45.626148" lon="9.4849375"><ele>218.28571428571428</ele><time>2026-04-05T09:15:37.729Z</time></trkpt><trkpt lat="45.6261155" lon="9.4850377"><ele>218.14285714285714</ele><time>2026-04-05T09:15:38.729Z</time></trkpt><trkpt lat="45.6260854" lon="9.4851348"><ele>218.0</ele><time>2026-04-05T09:15:39.728Z</time></trkpt><trkpt lat="45.6260476" lon="9.4852282"><ele>217.85714285714286</ele><time>2026-04-05T09:15:40.728Z</time></trkpt><trkpt lat="45.6259932" lon="9.4853058"><ele>217.71428571428572</ele><time>2026-04-05T09:15:41.728Z</time></trkpt><trkpt lat="45.625968" lon="9.4854106"><ele>217.57142857142856</ele><time>2026-04-05T09:15:42.729Z</time></trkpt><trkpt lat="45.625931" lon="9.4854965"><ele>217.42857142857144</ele><time>2026-04-05T09:15:43.728Z</time></trkpt><trkpt lat="45.625903" lon="9.4855869"><ele>217.28571428571428</ele><time>2026-04-05T09:15:44.729Z</time></trkpt><trkpt lat="45.6258704" lon="9.4856856"><ele>217.14285714285714</ele><time>2026-04-05T09:15:45.729Z</time></trkpt><trkpt lat="45.625825" lon="9.4857707"><ele>217.0</ele><time>2026-04-05T09:15:46.729Z</time></trkpt><trkpt lat="45.6257945" lon="9.4858687"><ele>216.99999999999997</ele><time>2026-04-05T09:15:47.729Z</time></trkpt><trkpt lat="45.6257651" lon="9.4859693"><ele>217.0</ele><time>2026-04-05T09:15:48.729Z</time></trkpt><trkpt lat="45.6257312" lon="9.486064"><ele>217.0</ele><time>2026-04-05T09:15:49.729Z</time></trkpt><trkpt lat="45.6256997" lon="9.4861641"><ele>217.0</ele><time>2026-04-05T09:15:50.729Z</time></trkpt><trkpt lat="45.6256645" lon="9.4862565"><ele>216.99999999999997</ele><time>2026-04-05T09:15:51.729Z</time></trkpt><trkpt lat="45.6256354" lon="9.4863568"><ele>217.0</ele><time>2026-04-05T09:15:52.729Z</time></trkpt><trkpt lat="45.6255974" lon="9.4864463"><ele>216.85714285714286</ele><time>2026-04-05T09:15:53.728Z</time></trkpt><trkpt lat="45.6255615" lon="9.4865301"><ele>216.71428571428572</ele><time>2026-04-05T09:15:54.728Z</time></trkpt><trkpt lat="45.6255189" lon="9.4866232"><ele>216.57142857142856</ele><time>2026-04-05T09:15:55.728Z</time></trkpt><trkpt lat="45.6254841" lon="9.486708"><ele>216.42857142857144</ele><time>2026-04-05T09:15:56.729Z</time></trkpt><trkpt lat="45.6254452" lon="9.4867828"><ele>216.28571428571428</ele><time>2026-04-05T09:15:57.729Z</time></trkpt><trkpt lat="45.6253955" lon="9.4868702"><ele>216.14285714285714</ele><time>2026-04-05T09:15:58.729Z</time></trkpt><trkpt lat="45.6253534" lon="9.4869594"><ele>216.0</ele><time>2026-04-05T09:15:59.729Z</time></trkpt><trkpt lat="45.6253064" lon="9.4870512"><ele>215.85714285714286</ele><time>2026-04-05T09:16:00.729Z</time></trkpt><trkpt lat="45.6252629" lon="9.4871392"><ele>215.71428571428572</ele><time>2026-04-05T09:16:01.729Z</time></trkpt><trkpt lat="45.6252228" lon="9.4872287"><ele>215.57142857142856</ele><time>2026-04-05T09:16:02.729Z</time></trkpt><trkpt lat="45.6251814" lon="9.4873193"><ele>215.42857142857144</ele><time>2026-04-05T09:16:03.729Z</time></trkpt><trkpt lat="45.6251437" lon="9.4874027"><ele>215.2857142857143</ele><time>2026-04-05T09:16:04.729Z</time></trkpt><trkpt lat="45.6250974" lon="9.4874858"><ele>215.14285714285714</ele><time>2026-04-05T09:16:05.729Z</time></trkpt><trkpt lat="45.6250605" lon="9.4875751"><ele>215.0</ele><time>2026-04-05T09:16:06.728Z</time></trkpt><trkpt lat="45.6250193" lon="9.4876723"><ele>215.0</ele><time>2026-04-05T09:16:07.729Z</time></trkpt><trkpt lat="45.624987" lon="9.4877631"><ele>215.0</ele><time>2026-04-05T09:16:08.728Z</time></trkpt><trkpt lat="45.6249507" lon="9.4878561"><ele>215.0</ele><time>2026-04-05T09:16:09.728Z</time></trkpt><trkpt lat="45.6249108" lon="9.4879457"><ele>215.0</ele><time>2026-04-05T09:16:10.729Z</time></trkpt><trkpt lat="45.6248793" lon="9.4880368"><ele>215.0</ele><time>2026-04-05T09:16:11.729Z</time></trkpt><trkpt lat="45.6248456" lon="9.4881333"><ele>215.0</ele><time>2026-04-05T09:16:12.729Z</time></trkpt><trkpt lat="45.6248162" lon="9.4882233"><ele>215.0</ele><time>2026-04-05T09:16:13.729Z</time></trkpt><trkpt lat="45.6247835" lon="9.4883124"><ele>215.0</ele><time>2026-04-05T09:16:14.728Z</time></trkpt><trkpt lat="45.6247516" lon="9.4884026"><ele>215.0</ele><time>2026-04-05T09:16:15.729Z</time></trkpt><trkpt lat="45.6247163" lon="9.488497"><ele>215.0</ele><time>2026-04-05T09:16:16.729Z</time></trkpt><trkpt lat="45.6246783" lon="9.4885828"><ele>215.0</ele><time>2026-04-05T09:16:17.729Z</time></trkpt><trkpt lat="45.6246519" lon="9.4886687"><ele>215.0</ele><time>2026-04-05T09:16:18.729Z</time></trkpt><trkpt lat="45.6246265" lon="9.4887567"><ele>215.0</ele><time>2026-04-05T09:16:19.729Z</time></trkpt><trkpt lat="45.624578" lon="9.4888812"><ele>215.0</ele><time>2026-04-05T09:16:21.728Z</time></trkpt><trkpt lat="45.6245835" lon="9.4889899"><ele>215.0</ele><time>2026-04-05T09:16:28.729Z</time></trkpt><trkpt lat="45.6246331" lon="9.4890618"><ele>215.0</ele><time>2026-04-05T09:16:30.729Z</time></trkpt><trkpt lat="45.6247064" lon="9.4891266"><ele>215.0</ele><time>2026-04-05T09:16:32.728Z</time></trkpt><trkpt lat="45.6247956" lon="9.4891727"><ele>215.0</ele><time>2026-04-05T09:16:34.728Z</time></trkpt><trkpt lat="45.6248914" lon="9.4892453"><ele>215.0</ele><time>2026-04-05T09:16:36.728Z</time></trkpt><trkpt lat="45.6249886" lon="9.489306"><ele>215.0</ele><time>2026-04-05T09:16:38.729Z</time></trkpt><trkpt lat="45.6250896" lon="9.4893727"><ele>215.0</ele><time>2026-04-05T09:16:40.729Z</time></trkpt><trkpt lat="45.6251896" lon="9.4894541"><ele>215.0</ele><time>2026-04-05T09:16:42.729Z</time></trkpt><trkpt lat="45.6252898" lon="9.4895273"><ele>215.0</ele><time>2026-04-05T09:16:44.729Z</time></trkpt><trkpt lat="45.6253948" lon="9.4895924"><ele>216.25</ele><time>2026-04-05T09:16:46.728Z</time></trkpt><trkpt lat="45.6254952" lon="9.4896671"><ele>217.5</ele><time>2026-04-05T09:16:48.729Z</time></trkpt><trkpt lat="45.6255984" lon="9.4897339"><ele>218.75</ele><time>2026-04-05T09:16:50.729Z</time></trkpt><trkpt lat="45.6257037" lon="9.4898117"><ele>220.0</ele><time>2026-04-05T09:16:52.729Z</time></trkpt><trkpt lat="45.6258053" lon="9.4898765"><ele>220.0</ele><time>2026-04-05T09:16:54.729Z</time></trkpt><trkpt lat="45.6259064" lon="9.4899479"><ele>220.0</ele><time>2026-04-05T09:16:56.728Z</time></trkpt><trkpt lat="45.6260022" lon="9.490026"><ele>220.0</ele><time>2026-04-05T09:16:58.729Z</time></trkpt><trkpt lat="45.6260378" lon="9.4901641"><ele>220.0</ele><time>2026-04-05T09:17:00.728Z</time></trkpt><trkpt lat="45.6260089" lon="9.4903145"><ele>220.0</ele><time>2026-04-05T09:17:02.729Z</time></trkpt><trkpt lat="45.6259493" lon="9.4904392"><ele>219.2</ele><time>2026-04-05T09:17:04.729Z</time></trkpt><trkpt lat="45.6258743" lon="9.4905594"><ele>218.4</ele><time>2026-04-05T09:17:06.729Z</time></trkpt><trkpt lat="45.6258185" lon="9.4906926"><ele>217.60000000000002</ele><time>2026-04-05T09:17:08.729Z</time></trkpt><trkpt lat="45.625755" lon="9.4907909"><ele>216.8</ele><time>2026-04-05T09:17:10.728Z</time></trkpt><trkpt lat="45.6256857" lon="9.490908"><ele>216.0</ele><time>2026-04-05T09:17:12.728Z</time></trkpt><trkpt lat="45.625619" lon="9.4910174"><ele>216.0</ele><time>2026-04-05T09:17:14.728Z</time></trkpt><trkpt lat="45.6255617" lon="9.4911362"><ele>216.00000000000003</ele><time>2026-04-05T09:17:16.729Z</time></trkpt><trkpt lat="45.6254947" lon="9.491253"><ele>216.00000000000003</ele><time>2026-04-05T09:17:18.729Z</time></trkpt><trkpt lat="45.6254424" lon="9.491377"><ele>216.0</ele><time>2026-04-05T09:17:20.728Z</time></trkpt><trkpt lat="45.6253944" lon="9.4915147"><ele>216.0</ele><time>2026-04-05T09:17:22.728Z</time></trkpt><trkpt lat="45.6253414" lon="9.4916491"><ele>215.8</ele><time>2026-04-05T09:17:24.729Z</time></trkpt><trkpt lat="45.6252879" lon="9.4917885"><ele>215.60000000000002</ele><time>2026-04-05T09:17:26.728Z</time></trkpt><trkpt lat="45.6252356" lon="9.4919311"><ele>215.4</ele><time>2026-04-05T09:17:28.728Z</time></trkpt><trkpt lat="45.6251781" lon="9.4920685"><ele>215.2</ele><time>2026-04-05T09:17:30.729Z</time></trkpt><trkpt lat="45.6251183" lon="9.4921861"><ele>215.0</ele><time>2026-04-05T09:17:32.728Z</time></trkpt><trkpt lat="45.6250615" lon="9.4923133"><ele>215.00000000000003</ele><time>2026-04-05T09:17:34.729Z</time></trkpt><trkpt lat="45.6250129" lon="9.4924353"><ele>215.0</ele><time>2026-04-05T09:17:36.729Z</time></trkpt><trkpt lat="45.6250304" lon="9.492554"><ele>215.0</ele><time>2026-04-05T09:17:38.728Z</time></trkpt><trkpt lat="45.6250863" lon="9.4926389"><ele>215.0</ele><time>2026-04-05T09:17:40.729Z</time></trkpt><trkpt lat="45.6251524" lon="9.4927207"><ele>215.00000000000003</ele><time>2026-04-05T09:17:42.728Z</time></trkpt><trkpt lat="45.6252313" lon="9.4927934"><ele>215.0</ele><time>2026-04-05T09:17:44.729Z</time></trkpt><trkpt lat="45.6253217" lon="9.4928772"><ele>215.4</ele><time>2026-04-05T09:17:46.729Z</time></trkpt><trkpt lat="45.6254118" lon="9.4929463"><ele>215.8</ele><time>2026-04-05T09:17:48.729Z</time></trkpt><trkpt lat="45.6254878" lon="9.493009"><ele>216.2</ele><time>2026-04-05T09:17:50.728Z</time></trkpt><trkpt lat="45.6255768" lon="9.4930992"><ele>216.6</ele><time>2026-04-05T09:17:52.729Z</time></trkpt><trkpt lat="45.6256625" lon="9.4931911"><ele>217.0</ele><time>2026-04-05T09:17:54.729Z</time></trkpt><trkpt lat="45.6257533" lon="9.4932804"><ele>217.0</ele><time>2026-04-05T09:17:56.729Z</time></trkpt><trkpt lat="45.6258314" lon="9.4933735"><ele>217.0</ele><time>2026-04-05T09:17:58.729Z</time></trkpt><trkpt lat="45.6259059" lon="9.4934714"><ele>217.0</ele><time>2026-04-05T09:18:00.729Z</time></trkpt><trkpt lat="45.6259941" lon="9.4935623"><ele>217.0</ele><time>2026-04-05T09:18:02.729Z</time></trkpt><trkpt lat="45.626074" lon="9.4936532"><ele>217.0</ele><time>2026-04-05T09:18:04.729Z</time></trkpt><trkpt lat="45.6261457" lon="9.4937569"><ele>217.2</ele><time>2026-04-05T09:18:06.729Z</time></trkpt><trkpt lat="45.626224" lon="9.4938584"><ele>217.39999999999998</ele><time>2026-04-05T09:18:08.728Z</time></trkpt><trkpt lat="45.6263088" lon="9.4939652"><ele>217.60000000000002</ele><time>2026-04-05T09:18:10.728Z</time></trkpt><trkpt lat="45.6263899" lon="9.4940598"><ele>217.8</ele><time>2026-04-05T09:18:12.729Z</time></trkpt><trkpt lat="45.6264748" lon="9.4941702"><ele>218.0</ele><time>2026-04-05T09:18:14.729Z</time></trkpt><trkpt lat="45.6265556" lon="9.4942723"><ele>218.0</ele><time>2026-04-05T09:18:16.729Z</time></trkpt><trkpt lat="45.6266412" lon="9.4943741"><ele>218.0</ele><time>2026-04-05T09:18:18.729Z</time></trkpt><trkpt lat="45.6267128" lon="9.4944803"><ele>218.0</ele><time>2026-04-05T09:18:20.728Z</time></trkpt><trkpt lat="45.626776" lon="9.4945941"><ele>218.0</ele><time>2026-04-05T09:18:22.729Z</time></trkpt><trkpt lat="45.6268158" lon="9.4947463"><ele>218.0</ele><time>2026-04-05T09:18:24.728Z</time></trkpt><trkpt lat="45.6267958" lon="9.4949011"><ele>217.8</ele><time>2026-04-05T09:18:26.729Z</time></trkpt><trkpt lat="45.626753" lon="9.4950516"><ele>217.60000000000002</ele><time>2026-04-05T09:18:28.729Z</time></trkpt><trkpt lat="45.6266964" lon="9.4951856"><ele>217.39999999999998</ele><time>2026-04-05T09:18:30.729Z</time></trkpt><trkpt lat="45.6266478" lon="9.4953106"><ele>217.2</ele><time>2026-04-05T09:18:32.729Z</time></trkpt><trkpt lat="45.6266088" lon="9.4953889"><ele>217.0</ele><time>2026-04-05T09:18:33.729Z</time></trkpt><trkpt lat="45.6265519" lon="9.4955268"><ele>216.75</ele><time>2026-04-05T09:18:35.729Z</time></trkpt><trkpt lat="45.6264859" lon="9.4956746"><ele>216.5</ele><time>2026-04-05T09:18:37.728Z</time></trkpt><trkpt lat="45.6264251" lon="9.4958158"><ele>216.25</ele><time>2026-04-05T09:18:39.728Z</time></trkpt><trkpt lat="45.6263685" lon="9.4959575"><ele>216.0</ele><time>2026-04-05T09:18:41.729Z</time></trkpt><trkpt lat="45.6263062" lon="9.4960889"><ele>216.0</ele><time>2026-04-05T09:18:43.729Z</time></trkpt><trkpt lat="45.6262581" lon="9.4962251"><ele>216.00000000000003</ele><time>2026-04-05T09:18:45.729Z</time></trkpt><trkpt lat="45.6261915" lon="9.4963554"><ele>216.00000000000003</ele><time>2026-04-05T09:18:47.728Z</time></trkpt><trkpt lat="45.6261311" lon="9.4964811"><ele>216.0</ele><time>2026-04-05T09:18:49.729Z</time></trkpt><trkpt lat="45.6260545" lon="9.4965965"><ele>216.0</ele><time>2026-04-05T09:18:51.729Z</time></trkpt><trkpt lat="45.6259771" lon="9.4967004"><ele>216.0</ele><time>2026-04-05T09:18:53.729Z</time></trkpt><trkpt lat="45.625894" lon="9.4967956"><ele>216.00000000000003</ele><time>2026-04-05T09:18:55.729Z</time></trkpt><trkpt lat="45.6257974" lon="9.4968723"><ele>216.00000000000003</ele><time>2026-04-05T09:18:57.729Z</time></trkpt><trkpt lat="45.625712" lon="9.4969581"><ele>216.0</ele><time>2026-04-05T09:18:59.729Z</time></trkpt><trkpt lat="45.6256327" lon="9.4970545"><ele>216.0</ele><time>2026-04-05T09:19:01.728Z</time></trkpt><trkpt lat="45.6255601" lon="9.4971556"><ele>216.4</ele><time>2026-04-05T09:19:03.729Z</time></trkpt><trkpt lat="45.6254829" lon="9.4972584"><ele>216.8</ele><time>2026-04-05T09:19:05.728Z</time></trkpt><trkpt lat="45.6253968" lon="9.4973379"><ele>217.20000000000002</ele><time>2026-04-05T09:19:07.729Z</time></trkpt><trkpt lat="45.625318" lon="9.4974113"><ele>217.60000000000002</ele><time>2026-04-05T09:19:09.728Z</time></trkpt><trkpt lat="45.6252484" lon="9.4975065"><ele>218.0</ele><time>2026-04-05T09:19:11.729Z</time></trkpt><trkpt lat="45.6251859" lon="9.4976327"><ele>218.0</ele><time>2026-04-05T09:19:13.729Z</time></trkpt><trkpt lat="45.6251213" lon="9.4977359"><ele>218.0</ele><time>2026-04-05T09:19:15.728Z</time></trkpt><trkpt lat="45.6250482" lon="9.497823"><ele>218.0</ele><time>2026-04-05T09:19:17.729Z</time></trkpt><trkpt lat="45.624976" lon="9.4979354"><ele>218.0</ele><time>2026-04-05T09:19:19.728Z</time></trkpt><trkpt lat="45.6248816" lon="9.4980403"><ele>218.0</ele><time>2026-04-05T09:19:21.728Z</time></trkpt><trkpt lat="45.6248186" lon="9.4980781"><ele>218.2</ele><time>2026-04-05T09:19:22.729Z</time></trkpt><trkpt lat="45.6247809" lon="9.4981541"><ele>218.4</ele><time>2026-04-05T09:19:23.729Z</time></trkpt><trkpt lat="45.6246867" lon="9.4982762"><ele>218.59999999999997</ele><time>2026-04-05T09:19:25.728Z</time></trkpt><trkpt lat="45.6246067" lon="9.4983975"><ele>218.79999999999998</ele><time>2026-04-05T09:19:27.728Z</time></trkpt><trkpt lat="45.6245549" lon="9.4984671"><ele>219.0</ele><time>2026-04-05T09:19:28.729Z</time></trkpt><trkpt lat="45.6244505" lon="9.4985564"><ele>218.39999999999998</ele><time>2026-04-05T09:19:30.728Z</time></trkpt><trkpt lat="45.624355" lon="9.4986454"><ele>217.79999999999998</ele><time>2026-04-05T09:19:32.729Z</time></trkpt><trkpt lat="45.6242786" lon="9.4987561"><ele>217.20000000000002</ele><time>2026-04-05T09:19:34.728Z</time></trkpt><trkpt lat="45.624227" lon="9.4988094"><ele>216.60000000000002</ele><time>2026-04-05T09:19:35.729Z</time></trkpt><trkpt lat="45.6241417" lon="9.4989201"><ele>216.0</ele><time>2026-04-05T09:19:37.729Z</time></trkpt><trkpt lat="45.6240631" lon="9.4990303"><ele>216.0</ele><time>2026-04-05T09:19:39.728Z</time></trkpt><trkpt lat="45.6239872" lon="9.4991439"><ele>216.00000000000003</ele><time>2026-04-05T09:19:41.729Z</time></trkpt><trkpt lat="45.6239175" lon="9.4992637"><ele>216.00000000000003</ele><time>2026-04-05T09:19:43.729Z</time></trkpt><trkpt lat="45.6238531" lon="9.4994011"><ele>216.0</ele><time>2026-04-05T09:19:45.729Z</time></trkpt><trkpt lat="45.6237875" lon="9.4995227"><ele>216.0</ele><time>2026-04-05T09:19:47.729Z</time></trkpt><trkpt lat="45.6237154" lon="9.4996371"><ele>216.0</ele><time>2026-04-05T09:19:49.729Z</time></trkpt><trkpt lat="45.6236428" lon="9.4997424"><ele>216.00000000000003</ele><time>2026-04-05T09:19:51.729Z</time></trkpt><trkpt lat="45.6235787" lon="9.4998256"><ele>216.00000000000003</ele><time>2026-04-05T09:19:53.729Z</time></trkpt><trkpt lat="45.6235118" lon="9.4999021"><ele>216.0</ele><time>2026-04-05T09:19:55.728Z</time></trkpt><trkpt lat="45.6234515" lon="9.4999936"><ele>216.0</ele><time>2026-04-05T09:19:57.729Z</time></trkpt><trkpt lat="45.6233701" lon="9.5001251"><ele>216.0</ele><time>2026-04-05T09:19:59.729Z</time></trkpt><trkpt lat="45.6232952" lon="9.5002352"><ele>216.00000000000003</ele><time>2026-04-05T09:20:01.729Z</time></trkpt><trkpt lat="45.6232167" lon="9.5003373"><ele>216.00000000000003</ele><time>2026-04-05T09:20:03.729Z</time></trkpt><trkpt lat="45.6231767" lon="9.5004685"><ele>216.0</ele><time>2026-04-05T09:20:05.729Z</time></trkpt><trkpt lat="45.623181" lon="9.5005595"><ele>216.0</ele><time>2026-04-05T09:20:07.729Z</time></trkpt><trkpt lat="45.6231993" lon="9.500701"><ele>216.0</ele><time>2026-04-05T09:20:09.729Z</time></trkpt><trkpt lat="45.623179" lon="9.5008764"><ele>216.00000000000003</ele><time>2026-04-05T09:20:11.729Z</time></trkpt><trkpt lat="45.6231257" lon="9.501003"><ele>216.00000000000003</ele><time>2026-04-05T09:20:13.729Z</time></trkpt><trkpt lat="45.623107" lon="9.501098"><ele>216.0</ele><time>2026-04-05T09:20:14.729Z</time></trkpt><trkpt lat="45.623068" lon="9.5012316"><ele>216.0</ele><time>2026-04-05T09:20:16.729Z</time></trkpt><trkpt lat="45.6229927" lon="9.5013587"><ele>215.60000000000002</ele><time>2026-04-05T09:20:18.729Z</time></trkpt><trkpt lat="45.6229063" lon="9.5014733"><ele>215.20000000000002</ele><time>2026-04-05T09:20:20.729Z</time></trkpt><trkpt lat="45.622821" lon="9.5015829"><ele>214.79999999999998</ele><time>2026-04-05T09:20:22.729Z</time></trkpt><trkpt lat="45.622739" lon="9.5017021"><ele>214.39999999999998</ele><time>2026-04-05T09:20:24.729Z</time></trkpt><trkpt lat="45.6226921" lon="9.5017696"><ele>214.0</ele><time>2026-04-05T09:20:25.729Z</time></trkpt><trkpt lat="45.6226343" lon="9.5018167"><ele>214.0</ele><time>2026-04-05T09:20:26.729Z</time></trkpt><trkpt lat="45.6225763" lon="9.5019263"><ele>213.99999999999997</ele><time>2026-04-05T09:20:28.728Z</time></trkpt><trkpt lat="45.6225339" lon="9.5019954"><ele>213.99999999999997</ele><time>2026-04-05T09:20:29.728Z</time></trkpt><trkpt lat="45.6224817" lon="9.5020509"><ele>214.0</ele><time>2026-04-05T09:20:30.729Z</time></trkpt><trkpt lat="45.6223946" lon="9.5021625"><ele>214.0</ele><time>2026-04-05T09:20:32.729Z</time></trkpt><trkpt lat="45.6223137" lon="9.5022802"><ele>213.79999999999998</ele><time>2026-04-05T09:20:34.729Z</time></trkpt><trkpt lat="45.6222514" lon="9.5023797"><ele>213.59999999999997</ele><time>2026-04-05T09:20:36.729Z</time></trkpt><trkpt lat="45.6222763" lon="9.5025026"><ele>213.4</ele><time>2026-04-05T09:20:38.729Z</time></trkpt><trkpt lat="45.6223085" lon="9.5026061"><ele>213.2</ele><time>2026-04-05T09:20:40.728Z</time></trkpt><trkpt lat="45.6223028" lon="9.5027244"><ele>213.0</ele><time>2026-04-05T09:20:42.729Z</time></trkpt><trkpt lat="45.6222194" lon="9.5028316"><ele>213.0</ele><time>2026-04-05T09:20:44.728Z</time></trkpt><trkpt lat="45.6221555" lon="9.5029484"><ele>213.0</ele><time>2026-04-05T09:20:46.728Z</time></trkpt><trkpt lat="45.6221065" lon="9.5030197"><ele>213.0</ele><time>2026-04-05T09:20:47.729Z</time></trkpt><trkpt lat="45.6220544" lon="9.5030952"><ele>213.0</ele><time>2026-04-05T09:20:48.729Z</time></trkpt><trkpt lat="45.6220103" lon="9.5031661"><ele>213.0</ele><time>2026-04-05T09:20:49.729Z</time></trkpt><trkpt lat="45.6219211" lon="9.5033044"><ele>213.0</ele><time>2026-04-05T09:20:51.729Z</time></trkpt><trkpt lat="45.6218754" lon="9.5033782"><ele>213.0</ele><time>2026-04-05T09:20:52.729Z</time></trkpt><trkpt lat="45.621788" lon="9.5035151"><ele>213.0</ele><time>2026-04-05T09:20:54.729Z</time></trkpt><trkpt lat="45.6217404" lon="9.5035845"><ele>213.0</ele><time>2026-04-05T09:20:55.729Z</time></trkpt><trkpt lat="45.6216574" lon="9.5037144"><ele>213.0</ele><time>2026-04-05T09:20:57.729Z</time></trkpt><trkpt lat="45.6215692" lon="9.5038283"><ele>213.0</ele><time>2026-04-05T09:20:59.729Z</time></trkpt><trkpt lat="45.6215195" lon="9.5039029"><ele>213.0</ele><time>2026-04-05T09:21:00.729Z</time></trkpt><trkpt lat="45.6214306" lon="9.5040285"><ele>213.0</ele><time>2026-04-05T09:21:02.729Z</time></trkpt><trkpt lat="45.6213746" lon="9.5041071"><ele>213.0</ele><time>2026-04-05T09:21:03.729Z</time></trkpt><trkpt lat="45.6213091" lon="9.5042287"><ele>213.0</ele><time>2026-04-05T09:21:05.728Z</time></trkpt><trkpt lat="45.6212203" lon="9.5043502"><ele>213.0</ele><time>2026-04-05T09:21:07.729Z</time></trkpt><trkpt lat="45.6211756" lon="9.5044195"><ele>212.8</ele><time>2026-04-05T09:21:08.728Z</time></trkpt><trkpt lat="45.6211254" lon="9.5044859"><ele>212.60000000000002</ele><time>2026-04-05T09:21:09.729Z</time></trkpt><trkpt lat="45.6210421" lon="9.504621"><ele>212.39999999999998</ele><time>2026-04-05T09:21:11.729Z</time></trkpt><trkpt lat="45.6209998" lon="9.5047374"><ele>212.2</ele><time>2026-04-05T09:21:13.729Z</time></trkpt><trkpt lat="45.6210513" lon="9.5048464"><ele>212.0</ele><time>2026-04-05T09:21:15.728Z</time></trkpt><trkpt lat="45.6211271" lon="9.5049737"><ele>212.0</ele><time>2026-04-05T09:21:17.729Z</time></trkpt><trkpt lat="45.6212177" lon="9.505085"><ele>212.0</ele><time>2026-04-05T09:21:19.728Z</time></trkpt><trkpt lat="45.621265" lon="9.5051451"><ele>212.0</ele><time>2026-04-05T09:21:20.729Z</time></trkpt><trkpt lat="45.6213375" lon="9.5052634"><ele>212.0</ele><time>2026-04-05T09:21:22.729Z</time></trkpt><trkpt lat="45.6213905" lon="9.5053305"><ele>212.0</ele><time>2026-04-05T09:21:23.729Z</time></trkpt><trkpt lat="45.6214781" lon="9.5054313"><ele>212.0</ele><time>2026-04-05T09:21:25.729Z</time></trkpt><trkpt lat="45.6215251" lon="9.5055629"><ele>212.0</ele><time>2026-04-05T09:21:27.728Z</time></trkpt><trkpt lat="45.621527" lon="9.5056799"><ele>212.0</ele><time>2026-04-05T09:21:29.729Z</time></trkpt><trkpt lat="45.6214862" lon="9.5058089"><ele>212.0</ele><time>2026-04-05T09:21:31.729Z</time></trkpt><trkpt lat="45.6214076" lon="9.5059278"><ele>212.0</ele><time>2026-04-05T09:21:33.729Z</time></trkpt><trkpt lat="45.6213668" lon="9.5060022"><ele>212.0</ele><time>2026-04-05T09:21:34.729Z</time></trkpt><trkpt lat="45.6212748" lon="9.5061261"><ele>212.0</ele><time>2026-04-05T09:21:36.729Z</time></trkpt><trkpt lat="45.6212151" lon="9.5061776"><ele>212.0</ele><time>2026-04-05T09:21:37.729Z</time></trkpt><trkpt lat="45.6211183" lon="9.5062889"><ele>212.0</ele><time>2026-04-05T09:21:39.728Z</time></trkpt><trkpt lat="45.6210513" lon="9.5063318"><ele>212.0</ele><time>2026-04-05T09:21:40.729Z</time></trkpt><trkpt lat="45.6209586" lon="9.5064068"><ele>211.6</ele><time>2026-04-05T09:21:42.729Z</time></trkpt><trkpt lat="45.6208947" lon="9.5064517"><ele>211.2</ele><time>2026-04-05T09:21:43.728Z</time></trkpt><trkpt lat="45.6207853" lon="9.5065267"><ele>210.8</ele><time>2026-04-05T09:21:45.728Z</time></trkpt><trkpt lat="45.6206903" lon="9.5066033"><ele>210.4</ele><time>2026-04-05T09:21:47.729Z</time></trkpt><trkpt lat="45.6205862" lon="9.5066893"><ele>210.0</ele><time>2026-04-05T09:21:49.729Z</time></trkpt><trkpt lat="45.6205205" lon="9.5067209"><ele>210.0</ele><time>2026-04-05T09:21:50.728Z</time></trkpt><trkpt lat="45.6204496" lon="9.5067742"><ele>210.0</ele><time>2026-04-05T09:21:51.729Z</time></trkpt><trkpt lat="45.6203868" lon="9.5068158"><ele>210.0</ele><time>2026-04-05T09:21:52.728Z</time></trkpt><trkpt lat="45.6203157" lon="9.5068631"><ele>210.0</ele><time>2026-04-05T09:21:53.729Z</time></trkpt><trkpt lat="45.6202503" lon="9.5069064"><ele>210.0</ele><time>2026-04-05T09:21:54.729Z</time></trkpt><trkpt lat="45.6201899" lon="9.5069392"><ele>210.0</ele><time>2026-04-05T09:21:55.729Z</time></trkpt><trkpt lat="45.6201245" lon="9.5069753"><ele>210.0</ele><time>2026-04-05T09:21:56.729Z</time></trkpt><trkpt lat="45.620016" lon="9.5070395"><ele>209.85714285714286</ele><time>2026-04-05T09:21:58.729Z</time></trkpt><trkpt lat="45.6199412" lon="9.5070796"><ele>209.71428571428572</ele><time>2026-04-05T09:21:59.728Z</time></trkpt><trkpt lat="45.6198671" lon="9.5071218"><ele>209.57142857142856</ele><time>2026-04-05T09:22:00.728Z</time></trkpt><trkpt lat="45.6197962" lon="9.5071443"><ele>209.42857142857144</ele><time>2026-04-05T09:22:01.729Z</time></trkpt><trkpt lat="45.6197397" lon="9.5071863"><ele>209.28571428571428</ele><time>2026-04-05T09:22:02.729Z</time></trkpt><trkpt lat="45.6196765" lon="9.5072242"><ele>209.14285714285714</ele><time>2026-04-05T09:22:03.729Z</time></trkpt><trkpt lat="45.619598" lon="9.5072584"><ele>209.0</ele><time>2026-04-05T09:22:04.729Z</time></trkpt><trkpt lat="45.6195328" lon="9.5073223"><ele>208.79999999999998</ele><time>2026-04-05T09:22:05.729Z</time></trkpt><trkpt lat="45.6194355" lon="9.5073933"><ele>208.6</ele><time>2026-04-05T09:22:06.728Z</time></trkpt><trkpt lat="45.6193308" lon="9.5074666"><ele>208.4</ele><time>2026-04-05T09:22:08.729Z</time></trkpt><trkpt lat="45.6191956" lon="9.5075555"><ele>208.2</ele><time>2026-04-05T09:22:10.729Z</time></trkpt><trkpt lat="45.6191339" lon="9.5076042"><ele>208.0</ele><time>2026-04-05T09:22:11.729Z</time></trkpt><trkpt lat="45.6190783" lon="9.5076594"><ele>207.99999999999997</ele><time>2026-04-05T09:22:12.729Z</time></trkpt><trkpt lat="45.6190097" lon="9.5077244"><ele>208.0</ele><time>2026-04-05T09:22:13.728Z</time></trkpt><trkpt lat="45.6189418" lon="9.5077776"><ele>208.0</ele><time>2026-04-05T09:22:14.728Z</time></trkpt><trkpt lat="45.6188927" lon="9.5078428"><ele>208.0</ele><time>2026-04-05T09:22:15.729Z</time></trkpt><trkpt lat="45.6188371" lon="9.5079154"><ele>207.99999999999997</ele><time>2026-04-05T09:22:16.729Z</time></trkpt><trkpt lat="45.6187684" lon="9.5080003"><ele>208.0</ele><time>2026-04-05T09:22:17.729Z</time></trkpt><trkpt lat="45.6187233" lon="9.508078"><ele>207.49999999999997</ele><time>2026-04-05T09:22:18.729Z</time></trkpt><trkpt lat="45.6186645" lon="9.5081614"><ele>207.0</ele><time>2026-04-05T09:22:19.729Z</time></trkpt><trkpt lat="45.6186117" lon="9.5082334"><ele>206.5</ele><time>2026-04-05T09:22:20.729Z</time></trkpt><trkpt lat="45.6185457" lon="9.5083055"><ele>206.0</ele><time>2026-04-05T09:22:21.729Z</time></trkpt><trkpt lat="45.6184732" lon="9.5083709"><ele>205.49999999999997</ele><time>2026-04-05T09:22:22.729Z</time></trkpt><trkpt lat="45.6184067" lon="9.508447"><ele>205.0</ele><time>2026-04-05T09:22:23.729Z</time></trkpt><trkpt lat="45.6183314" lon="9.508525"><ele>204.99999999999997</ele><time>2026-04-05T09:22:24.729Z</time></trkpt><trkpt lat="45.6182647" lon="9.5086102"><ele>205.0</ele><time>2026-04-05T09:22:25.729Z</time></trkpt><trkpt lat="45.6182154" lon="9.5086708"><ele>205.0</ele><time>2026-04-05T09:22:26.729Z</time></trkpt><trkpt lat="45.6181406" lon="9.5087911"><ele>205.0</ele><time>2026-04-05T09:22:28.729Z</time></trkpt><trkpt lat="45.618088" lon="9.5088565"><ele>204.99999999999997</ele><time>2026-04-05T09:22:29.729Z</time></trkpt><trkpt lat="45.618036" lon="9.5089177"><ele>205.0</ele><time>2026-04-05T09:22:30.729Z</time></trkpt><trkpt lat="45.6179413" lon="9.5090086"><ele>204.66666666666666</ele><time>2026-04-05T09:22:32.729Z</time></trkpt><trkpt lat="45.6178501" lon="9.5091063"><ele>204.33333333333331</ele><time>2026-04-05T09:22:34.728Z</time></trkpt><trkpt lat="45.6177994" lon="9.5091619"><ele>204.0</ele><time>2026-04-05T09:22:35.729Z</time></trkpt><trkpt lat="45.6176909" lon="9.5092658"><ele>203.66666666666669</ele><time>2026-04-05T09:22:37.729Z</time></trkpt><trkpt lat="45.6176383" lon="9.5093159"><ele>203.33333333333334</ele><time>2026-04-05T09:22:38.729Z</time></trkpt><trkpt lat="45.617579" lon="9.5093741"><ele>203.0</ele><time>2026-04-05T09:22:39.729Z</time></trkpt><trkpt lat="45.6174836" lon="9.5094883"><ele>201.60000000000002</ele><time>2026-04-05T09:22:41.729Z</time></trkpt><trkpt lat="45.6173908" lon="9.5096013"><ele>200.20000000000002</ele><time>2026-04-05T09:22:43.729Z</time></trkpt><trkpt lat="45.6172787" lon="9.5097006"><ele>198.8</ele><time>2026-04-05T09:22:45.728Z</time></trkpt><trkpt lat="45.6172117" lon="9.5097555"><ele>197.4</ele><time>2026-04-05T09:22:46.729Z</time></trkpt><trkpt lat="45.6171498" lon="9.5098102"><ele>196.0</ele><time>2026-04-05T09:22:47.728Z</time></trkpt><trkpt lat="45.6170498" lon="9.5099167"><ele>195.99999999999997</ele><time>2026-04-05T09:22:49.728Z</time></trkpt><trkpt lat="45.6169901" lon="9.5099715"><ele>196.0</ele><time>2026-04-05T09:22:50.729Z</time></trkpt><trkpt lat="45.6169166" lon="9.5100258"><ele>196.0</ele><time>2026-04-05T09:22:51.729Z</time></trkpt><trkpt lat="45.6168481" lon="9.5100572"><ele>196.0</ele><time>2026-04-05T09:22:52.729Z</time></trkpt><trkpt lat="45.6167646" lon="9.510105"><ele>195.99999999999997</ele><time>2026-04-05T09:22:53.728Z</time></trkpt><trkpt lat="45.6166786" lon="9.510154"><ele>196.0</ele><time>2026-04-05T09:22:54.729Z</time></trkpt><trkpt lat="45.6165985" lon="9.5101785"><ele>196.8</ele><time>2026-04-05T09:22:55.728Z</time></trkpt><trkpt lat="45.6165178" lon="9.5102047"><ele>197.60000000000002</ele><time>2026-04-05T09:22:56.729Z</time></trkpt><trkpt lat="45.6164502" lon="9.5102342"><ele>198.4</ele><time>2026-04-05T09:22:57.729Z</time></trkpt><trkpt lat="45.6163222" lon="9.5102332"><ele>199.2</ele><time>2026-04-05T09:22:59.729Z</time></trkpt><trkpt lat="45.6162301" lon="9.5102586"><ele>200.0</ele><time>2026-04-05T09:23:00.729Z</time></trkpt><trkpt lat="45.6161575" lon="9.5102985"><ele>199.66666666666669</ele><time>2026-04-05T09:23:01.729Z</time></trkpt><trkpt lat="45.6160859" lon="9.5103473"><ele>199.33333333333334</ele><time>2026-04-05T09:23:02.729Z</time></trkpt><trkpt lat="45.6160192" lon="9.5104233"><ele>199.0</ele><time>2026-04-05T09:23:03.728Z</time></trkpt><trkpt lat="45.6159494" lon="9.5104989"><ele>198.66666666666669</ele><time>2026-04-05T09:23:04.729Z</time></trkpt><trkpt lat="45.6159158" lon="9.5105817"><ele>198.33333333333334</ele><time>2026-04-05T09:23:05.729Z</time></trkpt><trkpt lat="45.6158708" lon="9.5107475"><ele>198.0</ele><time>2026-04-05T09:23:07.729Z</time></trkpt><trkpt lat="45.6158297" lon="9.5108172"><ele>197.16666666666666</ele><time>2026-04-05T09:23:08.729Z</time></trkpt><trkpt lat="45.6157896" lon="9.5108882"><ele>196.33333333333331</ele><time>2026-04-05T09:23:09.729Z</time></trkpt><trkpt lat="45.6157393" lon="9.5109705"><ele>195.5</ele><time>2026-04-05T09:23:10.729Z</time></trkpt><trkpt lat="45.6156983" lon="9.5110401"><ele>194.66666666666666</ele><time>2026-04-05T09:23:11.729Z</time></trkpt><trkpt lat="45.6156411" lon="9.5110934"><ele>193.83333333333331</ele><time>2026-04-05T09:23:12.729Z</time></trkpt><trkpt lat="45.6155662" lon="9.5112225"><ele>193.0</ele><time>2026-04-05T09:23:14.729Z</time></trkpt><trkpt lat="45.6155124" lon="9.5112921"><ele>192.66666666666666</ele><time>2026-04-05T09:23:15.729Z</time></trkpt><trkpt lat="45.615474" lon="9.511366"><ele>192.33333333333331</ele><time>2026-04-05T09:23:16.729Z</time></trkpt><trkpt lat="45.6154133" lon="9.51143"><ele>192.0</ele><time>2026-04-05T09:23:17.729Z</time></trkpt><trkpt lat="45.6153719" lon="9.5115268"><ele>191.66666666666666</ele><time>2026-04-05T09:23:18.728Z</time></trkpt><trkpt lat="45.6153247" lon="9.5116239"><ele>191.33333333333331</ele><time>2026-04-05T09:23:19.729Z</time></trkpt><trkpt lat="45.6152908" lon="9.511728"><ele>191.0</ele><time>2026-04-05T09:23:20.729Z</time></trkpt><trkpt lat="45.6152652" lon="9.5118227"><ele>191.0</ele><time>2026-04-05T09:23:21.729Z</time></trkpt><trkpt lat="45.6152454" lon="9.5119256"><ele>191.0</ele><time>2026-04-05T09:23:22.729Z</time></trkpt><trkpt lat="45.6152264" lon="9.5120259"><ele>191.0</ele><time>2026-04-05T09:23:23.728Z</time></trkpt><trkpt lat="45.6152067" lon="9.5121268"><ele>191.0</ele><time>2026-04-05T09:23:24.728Z</time></trkpt><trkpt lat="45.6151975" lon="9.5122176"><ele>191.0</ele><time>2026-04-05T09:23:25.729Z</time></trkpt><trkpt lat="45.6151956" lon="9.5123341"><ele>191.0</ele><time>2026-04-05T09:23:26.729Z</time></trkpt><trkpt lat="45.6151831" lon="9.5124388"><ele>191.0</ele><time>2026-04-05T09:23:27.729Z</time></trkpt><trkpt lat="45.6151679" lon="9.5125419"><ele>190.5</ele><time>2026-04-05T09:23:28.728Z</time></trkpt><trkpt lat="45.6151508" lon="9.5126348"><ele>190.0</ele><time>2026-04-05T09:23:29.729Z</time></trkpt><trkpt lat="45.6151344" lon="9.5127261"><ele>189.5</ele><time>2026-04-05T09:23:30.729Z</time></trkpt><trkpt lat="45.6151043" lon="9.5128115"><ele>189.0</ele><time>2026-04-05T09:23:31.729Z</time></trkpt><trkpt lat="45.6150893" lon="9.512991"><ele>188.5</ele><time>2026-04-05T09:23:33.728Z</time></trkpt><trkpt lat="45.6150978" lon="9.5131076"><ele>188.0</ele><time>2026-04-05T09:23:34.729Z</time></trkpt><trkpt lat="45.6150669" lon="9.5132204"><ele>188.0</ele><time>2026-04-05T09:23:35.729Z</time></trkpt><trkpt lat="45.6150638" lon="9.5133579"><ele>188.0</ele><time>2026-04-05T09:23:36.729Z</time></trkpt><trkpt lat="45.6150597" lon="9.5134536"><ele>188.0</ele><time>2026-04-05T09:23:37.729Z</time></trkpt><trkpt lat="45.6150425" lon="9.5135582"><ele>188.0</ele><time>2026-04-05T09:23:38.729Z</time></trkpt><trkpt lat="45.6150226" lon="9.5136705"><ele>188.0</ele><time>2026-04-05T09:23:39.729Z</time></trkpt><trkpt lat="45.6150061" lon="9.5137765"><ele>188.0</ele><time>2026-04-05T09:23:40.728Z</time></trkpt><trkpt lat="45.6149901" lon="9.5138643"><ele>187.33333333333331</ele><time>2026-04-05T09:23:41.729Z</time></trkpt><trkpt lat="45.6149681" lon="9.5139669"><ele>186.66666666666666</ele><time>2026-04-05T09:23:42.729Z</time></trkpt><trkpt lat="45.6149512" lon="9.514054"><ele>186.0</ele><time>2026-04-05T09:23:43.729Z</time></trkpt><trkpt lat="45.6149318" lon="9.5141625"><ele>185.33333333333334</ele><time>2026-04-05T09:23:44.728Z</time></trkpt><trkpt lat="45.6149093" lon="9.5142475"><ele>184.66666666666669</ele><time>2026-04-05T09:23:45.729Z</time></trkpt><trkpt lat="45.6148636" lon="9.5143968"><ele>184.0</ele><time>2026-04-05T09:23:48.097Z</time></trkpt><trkpt lat="45.6147994" lon="9.5145631"><ele>184.5</ele><time>2026-04-05T09:23:49.732Z</time></trkpt><trkpt lat="45.6147541" lon="9.514637"><ele>185.0</ele><time>2026-04-05T09:23:50.727Z</time></trkpt><trkpt lat="45.6147178" lon="9.5147259"><ele>185.5</ele><time>2026-04-05T09:23:51.728Z</time></trkpt><trkpt lat="45.6146672" lon="9.5148113"><ele>186.0</ele><time>2026-04-05T09:23:52.728Z</time></trkpt><trkpt lat="45.6146135" lon="9.514897"><ele>186.5</ele><time>2026-04-05T09:23:53.73Z</time></trkpt><trkpt lat="45.6145197" lon="9.5149933"><ele>187.0</ele><time>2026-04-05T09:23:55.729Z</time></trkpt><trkpt lat="45.6144673" lon="9.5150818"><ele>184.2</ele><time>2026-04-05T09:23:58.73Z</time></trkpt><trkpt lat="45.6145615" lon="9.5150609"><ele>181.39999999999998</ele><time>2026-04-05T09:24:02.73Z</time></trkpt><trkpt lat="45.6146592" lon="9.5149955"><ele>178.60000000000002</ele><time>2026-04-05T09:24:04.73Z</time></trkpt><trkpt lat="45.6147176" lon="9.5149455"><ele>175.8</ele><time>2026-04-05T09:24:05.73Z</time></trkpt><trkpt lat="45.6148201" lon="9.5148447"><ele>173.0</ele><time>2026-04-05T09:24:07.73Z</time></trkpt><trkpt lat="45.6149016" lon="9.5147084"><ele>175.2</ele><time>2026-04-05T09:24:09.73Z</time></trkpt><trkpt lat="45.6149666" lon="9.514536"><ele>177.4</ele><time>2026-04-05T09:24:11.729Z</time></trkpt><trkpt lat="45.6150013" lon="9.5144472"><ele>179.6</ele><time>2026-04-05T09:24:12.729Z</time></trkpt><trkpt lat="45.6150238" lon="9.5143627"><ele>181.79999999999998</ele><time>2026-04-05T09:24:13.73Z</time></trkpt><trkpt lat="45.6150575" lon="9.5141849"><ele>184.0</ele><time>2026-04-05T09:24:15.73Z</time></trkpt><trkpt lat="45.6150848" lon="9.5140591"><ele>184.0</ele><time>2026-04-05T09:24:16.729Z</time></trkpt><trkpt lat="45.6151104" lon="9.5138885"><ele>184.0</ele><time>2026-04-05T09:24:17.73Z</time></trkpt><trkpt lat="45.6151278" lon="9.5137961"><ele>184.0</ele><time>2026-04-05T09:24:18.73Z</time></trkpt><trkpt lat="45.6151747" lon="9.5136719"><ele>184.0</ele><time>2026-04-05T09:24:19.729Z</time></trkpt><trkpt lat="45.615196" lon="9.5135459"><ele>184.0</ele><time>2026-04-05T09:24:20.729Z</time></trkpt><trkpt lat="45.6152322" lon="9.5134288"><ele>184.66666666666669</ele><time>2026-04-05T09:24:21.73Z</time></trkpt><trkpt lat="45.6152584" lon="9.5133464"><ele>185.33333333333334</ele><time>2026-04-05T09:24:22.73Z</time></trkpt><trkpt lat="45.6153221" lon="9.5132873"><ele>186.0</ele><time>2026-04-05T09:24:24.73Z</time></trkpt><trkpt lat="45.6153869" lon="9.5132892"><ele>186.66666666666666</ele><time>2026-04-05T09:24:26.73Z</time></trkpt><trkpt lat="45.6153525" lon="9.5134081"><ele>187.33333333333331</ele><time>2026-04-05T09:24:28.73Z</time></trkpt><trkpt lat="45.6153166" lon="9.5135482"><ele>188.0</ele><time>2026-04-05T09:24:30.73Z</time></trkpt><trkpt lat="45.6153039" lon="9.5137128"><ele>187.2</ele><time>2026-04-05T09:24:32.729Z</time></trkpt><trkpt lat="45.615289" lon="9.5138385"><ele>186.4</ele><time>2026-04-05T09:24:35.73Z</time></trkpt><trkpt lat="45.615287" lon="9.5139638"><ele>185.6</ele><time>2026-04-05T09:24:37.729Z</time></trkpt><trkpt lat="45.6152925" lon="9.5141281"><ele>184.79999999999998</ele><time>2026-04-05T09:24:39.73Z</time></trkpt><trkpt lat="45.6152902" lon="9.5143059"><ele>184.0</ele><time>2026-04-05T09:24:41.73Z</time></trkpt><trkpt lat="45.6152754" lon="9.5144011"><ele>184.0</ele><time>2026-04-05T09:24:42.73Z</time></trkpt><trkpt lat="45.6152556" lon="9.5145007"><ele>184.0</ele><time>2026-04-05T09:24:43.73Z</time></trkpt><trkpt lat="45.6152569" lon="9.5145995"><ele>184.0</ele><time>2026-04-05T09:24:44.73Z</time></trkpt><trkpt lat="45.6152497" lon="9.5147227"><ele>184.0</ele><time>2026-04-05T09:24:45.729Z</time></trkpt><trkpt lat="45.6152367" lon="9.5148475"><ele>184.0</ele><time>2026-04-05T09:24:46.73Z</time></trkpt><trkpt lat="45.6152262" lon="9.5149633"><ele>184.0</ele><time>2026-04-05T09:24:47.73Z</time></trkpt><trkpt lat="45.6152128" lon="9.5150881"><ele>182.16666666666669</ele><time>2026-04-05T09:24:48.73Z</time></trkpt><trkpt lat="45.6152069" lon="9.5151866"><ele>180.33333333333334</ele><time>2026-04-05T09:24:49.73Z</time></trkpt><trkpt lat="45.6151941" lon="9.5152946"><ele>178.5</ele><time>2026-04-05T09:24:50.73Z</time></trkpt><trkpt lat="45.6151848" lon="9.5153976"><ele>176.66666666666666</ele><time>2026-04-05T09:24:51.73Z</time></trkpt><trkpt lat="45.6151813" lon="9.5155214"><ele>174.83333333333331</ele><time>2026-04-05T09:24:52.729Z</time></trkpt><trkpt lat="45.6151654" lon="9.5156962"><ele>173.0</ele><time>2026-04-05T09:24:54.73Z</time></trkpt><trkpt lat="45.615158" lon="9.5158059"><ele>170.0</ele><time>2026-04-05T09:24:56.73Z</time></trkpt><trkpt lat="45.6152218" lon="9.5158891"><ele>167.0</ele><time>2026-04-05T09:24:59.73Z</time></trkpt><trkpt lat="45.6152809" lon="9.5159359"><ele>164.0</ele><time>2026-04-05T09:25:01.73Z</time></trkpt><trkpt lat="45.6153582" lon="9.515988"><ele>161.0</ele><time>2026-04-05T09:25:03.729Z</time></trkpt><trkpt lat="45.6154597" lon="9.5159859"><ele>158.0</ele><time>2026-04-05T09:25:05.73Z</time></trkpt><trkpt lat="45.6155685" lon="9.5160229"><ele>157.6</ele><time>2026-04-05T09:25:07.73Z</time></trkpt><trkpt lat="45.6156562" lon="9.5160134"><ele>157.20000000000002</ele><time>2026-04-05T09:25:09.73Z</time></trkpt><trkpt lat="45.6157617" lon="9.5160356"><ele>156.8</ele><time>2026-04-05T09:25:11.73Z</time></trkpt><trkpt lat="45.6158653" lon="9.5160648"><ele>156.4</ele><time>2026-04-05T09:25:13.73Z</time></trkpt><trkpt lat="45.6159518" lon="9.5160951"><ele>156.0</ele><time>2026-04-05T09:25:15.73Z</time></trkpt><trkpt lat="45.6160378" lon="9.5161089"><ele>156.0</ele><time>2026-04-05T09:25:17.73Z</time></trkpt><trkpt lat="45.6161457" lon="9.5161"><ele>156.0</ele><time>2026-04-05T09:25:19.73Z</time></trkpt><trkpt lat="45.6162402" lon="9.5161108"><ele>156.0</ele><time>2026-04-05T09:25:20.73Z</time></trkpt><trkpt lat="45.6163274" lon="9.5161008"><ele>156.0</ele><time>2026-04-05T09:25:21.729Z</time></trkpt><trkpt lat="45.6164047" lon="9.5160939"><ele>156.0</ele><time>2026-04-05T09:25:22.73Z</time></trkpt><trkpt lat="45.6165337" lon="9.5160971"><ele>156.2</ele><time>2026-04-05T09:25:24.729Z</time></trkpt><trkpt lat="45.6166106" lon="9.5161834"><ele>156.39999999999998</ele><time>2026-04-05T09:25:26.73Z</time></trkpt><trkpt lat="45.6167142" lon="9.5162871"><ele>156.6</ele><time>2026-04-05T09:25:28.73Z</time></trkpt><trkpt lat="45.616786" lon="9.516269"><ele>156.79999999999998</ele><time>2026-04-05T09:25:29.729Z</time></trkpt><trkpt lat="45.6169119" lon="9.51632"><ele>157.0</ele><time>2026-04-05T09:25:31.73Z</time></trkpt><trkpt lat="45.6169991" lon="9.5163629"><ele>156.2</ele><time>2026-04-05T09:25:33.73Z</time></trkpt><trkpt lat="45.6170668" lon="9.5164068"><ele>155.39999999999998</ele><time>2026-04-05T09:25:34.729Z</time></trkpt><trkpt lat="45.6171614" lon="9.5164428"><ele>154.60000000000002</ele><time>2026-04-05T09:25:36.729Z</time></trkpt><trkpt lat="45.6172718" lon="9.5164639"><ele>153.8</ele><time>2026-04-05T09:25:38.73Z</time></trkpt><trkpt lat="45.6173727" lon="9.5164976"><ele>153.0</ele><time>2026-04-05T09:25:40.729Z</time></trkpt><trkpt lat="45.6174835" lon="9.5165372"><ele>153.0</ele><time>2026-04-05T09:25:42.729Z</time></trkpt><trkpt lat="45.6175969" lon="9.51658"><ele>153.0</ele><time>2026-04-05T09:25:44.73Z</time></trkpt><trkpt lat="45.6177387" lon="9.5166281"><ele>153.0</ele><time>2026-04-05T09:25:46.729Z</time></trkpt><trkpt lat="45.6178372" lon="9.5166694"><ele>153.0</ele><time>2026-04-05T09:25:48.73Z</time></trkpt><trkpt lat="45.6179583" lon="9.5167119"><ele>153.0</ele><time>2026-04-05T09:25:50.73Z</time></trkpt><trkpt lat="45.6180787" lon="9.5167549"><ele>153.0</ele><time>2026-04-05T09:25:52.73Z</time></trkpt><trkpt lat="45.618156" lon="9.5167836"><ele>153.0</ele><time>2026-04-05T09:25:53.73Z</time></trkpt><trkpt lat="45.618224" lon="9.5168178"><ele>153.0</ele><time>2026-04-05T09:25:54.73Z</time></trkpt><trkpt lat="45.6182879" lon="9.5168362"><ele>153.0</ele><time>2026-04-05T09:25:55.729Z</time></trkpt><trkpt lat="45.6183608" lon="9.5168606"><ele>153.0</ele><time>2026-04-05T09:25:56.73Z</time></trkpt><trkpt lat="45.6184314" lon="9.516884"><ele>153.0</ele><time>2026-04-05T09:25:57.73Z</time></trkpt><trkpt lat="45.6185515" lon="9.5169168"><ele>153.0</ele><time>2026-04-05T09:25:59.73Z</time></trkpt><trkpt lat="45.6186157" lon="9.5169307"><ele>153.0</ele><time>2026-04-05T09:26:00.73Z</time></trkpt><trkpt lat="45.6186782" lon="9.5169512"><ele>153.0</ele><time>2026-04-05T09:26:01.73Z</time></trkpt><trkpt lat="45.6187894" lon="9.5169874"><ele>153.0</ele><time>2026-04-05T09:26:03.729Z</time></trkpt><trkpt lat="45.618896" lon="9.5170254"><ele>152.5</ele><time>2026-04-05T09:26:05.73Z</time></trkpt><trkpt lat="45.6189834" lon="9.5170734"><ele>152.0</ele><time>2026-04-05T09:26:07.73Z</time></trkpt><trkpt lat="45.6190837" lon="9.5171015"><ele>151.5</ele><time>2026-04-05T09:26:09.73Z</time></trkpt><trkpt lat="45.6191535" lon="9.5171238"><ele>151.0</ele><time>2026-04-05T09:26:10.729Z</time></trkpt><trkpt lat="45.6192586" lon="9.5171483"><ele>150.5</ele><time>2026-04-05T09:26:12.729Z</time></trkpt><trkpt lat="45.6193227" lon="9.5171828"><ele>150.0</ele><time>2026-04-05T09:26:13.73Z</time></trkpt><trkpt lat="45.6193844" lon="9.5172062"><ele>150.6</ele><time>2026-04-05T09:26:14.73Z</time></trkpt><trkpt lat="45.6195026" lon="9.5172567"><ele>151.2</ele><time>2026-04-05T09:26:16.729Z</time></trkpt><trkpt lat="45.6195703" lon="9.5172765"><ele>151.8</ele><time>2026-04-05T09:26:17.73Z</time></trkpt><trkpt lat="45.6196857" lon="9.517279"><ele>152.4</ele><time>2026-04-05T09:26:19.73Z</time></trkpt><trkpt lat="45.6198066" lon="9.5172905"><ele>153.0</ele><time>2026-04-05T09:26:21.73Z</time></trkpt><trkpt lat="45.6199303" lon="9.5172908"><ele>153.0</ele><time>2026-04-05T09:26:23.73Z</time></trkpt><trkpt lat="45.6200555" lon="9.5173173"><ele>153.0</ele><time>2026-04-05T09:26:25.73Z</time></trkpt><trkpt lat="45.6201786" lon="9.5173424"><ele>153.0</ele><time>2026-04-05T09:26:27.73Z</time></trkpt><trkpt lat="45.6202449" lon="9.5173511"><ele>153.0</ele><time>2026-04-05T09:26:28.73Z</time></trkpt><trkpt lat="45.6203102" lon="9.5173649"><ele>153.0</ele><time>2026-04-05T09:26:29.73Z</time></trkpt><trkpt lat="45.6203725" lon="9.5173813"><ele>153.0</ele><time>2026-04-05T09:26:30.73Z</time></trkpt><trkpt lat="45.6204798" lon="9.5174008"><ele>153.16666666666666</ele><time>2026-04-05T09:26:32.73Z</time></trkpt><trkpt lat="45.6205938" lon="9.5174488"><ele>153.33333333333334</ele><time>2026-04-05T09:26:34.73Z</time></trkpt><trkpt lat="45.6206564" lon="9.5174674"><ele>153.5</ele><time>2026-04-05T09:26:35.73Z</time></trkpt><trkpt lat="45.6207201" lon="9.5175009"><ele>153.66666666666669</ele><time>2026-04-05T09:26:36.73Z</time></trkpt><trkpt lat="45.6208407" lon="9.517529"><ele>153.83333333333334</ele><time>2026-04-05T09:26:38.73Z</time></trkpt><trkpt lat="45.6209038" lon="9.5175348"><ele>154.0</ele><time>2026-04-05T09:26:39.73Z</time></trkpt><trkpt lat="45.620973" lon="9.5175334"><ele>154.0</ele><time>2026-04-05T09:26:40.73Z</time></trkpt><trkpt lat="45.6210977" lon="9.5175282"><ele>154.0</ele><time>2026-04-05T09:26:42.73Z</time></trkpt><trkpt lat="45.6211739" lon="9.5175376"><ele>154.0</ele><time>2026-04-05T09:26:43.73Z</time></trkpt><trkpt lat="45.621245" lon="9.5175429"><ele>154.0</ele><time>2026-04-05T09:26:44.73Z</time></trkpt><trkpt lat="45.6213735" lon="9.5175352"><ele>154.0</ele><time>2026-04-05T09:26:46.73Z</time></trkpt><trkpt lat="45.6214422" lon="9.5175215"><ele>153.4</ele><time>2026-04-05T09:26:47.73Z</time></trkpt><trkpt lat="45.6215739" lon="9.5175005"><ele>152.8</ele><time>2026-04-05T09:26:49.729Z</time></trkpt><trkpt lat="45.621641" lon="9.517475"><ele>152.2</ele><time>2026-04-05T09:26:50.73Z</time></trkpt><trkpt lat="45.6217375" lon="9.5174421"><ele>151.6</ele><time>2026-04-05T09:26:52.73Z</time></trkpt><trkpt lat="45.6218553" lon="9.5173933"><ele>151.0</ele><time>2026-04-05T09:26:55.729Z</time></trkpt><trkpt lat="45.6219651" lon="9.5173549"><ele>150.6</ele><time>2026-04-05T09:26:57.73Z</time></trkpt><trkpt lat="45.6220663" lon="9.5173064"><ele>150.2</ele><time>2026-04-05T09:26:59.729Z</time></trkpt><trkpt lat="45.622167" lon="9.5172687"><ele>149.8</ele><time>2026-04-05T09:27:01.73Z</time></trkpt><trkpt lat="45.6222558" lon="9.5172644"><ele>149.4</ele><time>2026-04-05T09:27:03.73Z</time></trkpt><trkpt lat="45.6223585" lon="9.5172322"><ele>149.0</ele><time>2026-04-05T09:27:05.73Z</time></trkpt><trkpt lat="45.6224603" lon="9.5171696"><ele>149.0</ele><time>2026-04-05T09:27:07.73Z</time></trkpt><trkpt lat="45.6225223" lon="9.5171398"><ele>149.0</ele><time>2026-04-05T09:27:08.729Z</time></trkpt><trkpt lat="45.6225825" lon="9.5171116"><ele>149.0</ele><time>2026-04-05T09:27:09.73Z</time></trkpt><trkpt lat="45.6226982" lon="9.5170629"><ele>149.0</ele><time>2026-04-05T09:27:11.73Z</time></trkpt><trkpt lat="45.622805" lon="9.5170467"><ele>149.0</ele><time>2026-04-05T09:27:13.73Z</time></trkpt><trkpt lat="45.6229252" lon="9.5170047"><ele>149.5</ele><time>2026-04-05T09:27:15.73Z</time></trkpt><trkpt lat="45.6229985" lon="9.5169833"><ele>150.0</ele><time>2026-04-05T09:27:16.73Z</time></trkpt><trkpt lat="45.6230584" lon="9.5169539"><ele>150.5</ele><time>2026-04-05T09:27:17.73Z</time></trkpt><trkpt lat="45.6231218" lon="9.5169213"><ele>151.0</ele><time>2026-04-05T09:27:18.73Z</time></trkpt><trkpt lat="45.6232285" lon="9.5168536"><ele>151.5</ele><time>2026-04-05T09:27:20.73Z</time></trkpt><trkpt lat="45.6233349" lon="9.5167915"><ele>152.0</ele><time>2026-04-05T09:27:22.73Z</time></trkpt><trkpt lat="45.6234375" lon="9.5167021"><ele>152.0</ele><time>2026-04-05T09:27:24.73Z</time></trkpt><trkpt lat="45.6235415" lon="9.5166262"><ele>152.0</ele><time>2026-04-05T09:27:26.73Z</time></trkpt><trkpt lat="45.6236444" lon="9.5165393"><ele>152.0</ele><time>2026-04-05T09:27:28.73Z</time></trkpt><trkpt lat="45.6236973" lon="9.5164789"><ele>152.0</ele><time>2026-04-05T09:27:29.73Z</time></trkpt><trkpt lat="45.6237534" lon="9.5164277"><ele>152.0</ele><time>2026-04-05T09:27:30.73Z</time></trkpt><trkpt lat="45.6238408" lon="9.5163245"><ele>151.79999999999998</ele><time>2026-04-05T09:27:32.73Z</time></trkpt><trkpt lat="45.6239424" lon="9.5162225"><ele>151.6</ele><time>2026-04-05T09:27:34.73Z</time></trkpt><trkpt lat="45.6240404" lon="9.5161183"><ele>151.39999999999998</ele><time>2026-04-05T09:27:36.73Z</time></trkpt><trkpt lat="45.6241001" lon="9.5160442"><ele>151.2</ele><time>2026-04-05T09:27:37.73Z</time></trkpt><trkpt lat="45.624153" lon="9.515995"><ele>151.0</ele><time>2026-04-05T09:27:38.729Z</time></trkpt><trkpt lat="45.6242037" lon="9.5159312"><ele>151.0</ele><time>2026-04-05T09:27:39.729Z</time></trkpt><trkpt lat="45.6242893" lon="9.515796"><ele>151.0</ele><time>2026-04-05T09:27:41.73Z</time></trkpt><trkpt lat="45.6243331" lon="9.515714"><ele>151.0</ele><time>2026-04-05T09:27:42.73Z</time></trkpt><trkpt lat="45.6243762" lon="9.5156459"><ele>151.0</ele><time>2026-04-05T09:27:43.73Z</time></trkpt><trkpt lat="45.6244274" lon="9.5155679"><ele>151.0</ele><time>2026-04-05T09:27:44.73Z</time></trkpt><trkpt lat="45.6244822" lon="9.5154774"><ele>151.0</ele><time>2026-04-05T09:27:45.73Z</time></trkpt><trkpt lat="45.6245491" lon="9.5153914"><ele>151.6</ele><time>2026-04-05T09:27:46.73Z</time></trkpt><trkpt lat="45.6245931" lon="9.515318"><ele>152.2</ele><time>2026-04-05T09:27:47.73Z</time></trkpt><trkpt lat="45.6246894" lon="9.5151716"><ele>152.8</ele><time>2026-04-05T09:27:49.73Z</time></trkpt><trkpt lat="45.624698" lon="9.5150813"><ele>153.4</ele><time>2026-04-05T09:27:50.73Z</time></trkpt><trkpt lat="45.6247672" lon="9.5149084"><ele>154.0</ele><time>2026-04-05T09:27:52.729Z</time></trkpt><trkpt lat="45.6247949" lon="9.5147993"><ele>154.0</ele><time>2026-04-05T09:27:53.73Z</time></trkpt><trkpt lat="45.6248168" lon="9.5147091"><ele>154.0</ele><time>2026-04-05T09:27:54.73Z</time></trkpt><trkpt lat="45.6248446" lon="9.5145307"><ele>154.0</ele><time>2026-04-05T09:27:56.73Z</time></trkpt><trkpt lat="45.6248721" lon="9.5143642"><ele>154.0</ele><time>2026-04-05T09:27:58.729Z</time></trkpt><trkpt lat="45.6248891" lon="9.5142774"><ele>154.0</ele><time>2026-04-05T09:27:59.73Z</time></trkpt><trkpt lat="45.624906" lon="9.5141098"><ele>153.25</ele><time>2026-04-05T09:28:01.73Z</time></trkpt><trkpt lat="45.6249166" lon="9.5139589"><ele>152.5</ele><time>2026-04-05T09:28:03.73Z</time></trkpt><trkpt lat="45.6249442" lon="9.5138081"><ele>151.75</ele><time>2026-04-05T09:28:05.73Z</time></trkpt><trkpt lat="45.6249757" lon="9.513659"><ele>151.0</ele><time>2026-04-05T09:28:07.73Z</time></trkpt><trkpt lat="45.6250089" lon="9.5134825"><ele>151.0</ele><time>2026-04-05T09:28:09.73Z</time></trkpt><trkpt lat="45.6250298" lon="9.5133033"><ele>151.0</ele><time>2026-04-05T09:28:11.73Z</time></trkpt><trkpt lat="45.6250416" lon="9.5132017"><ele>151.0</ele><time>2026-04-05T09:28:12.73Z</time></trkpt><trkpt lat="45.6250621" lon="9.5130321"><ele>151.0</ele><time>2026-04-05T09:28:14.73Z</time></trkpt><trkpt lat="45.6250695" lon="9.5129422"><ele>151.0</ele><time>2026-04-05T09:28:15.73Z</time></trkpt><trkpt lat="45.6250813" lon="9.5128346"><ele>151.5</ele><time>2026-04-05T09:28:16.73Z</time></trkpt><trkpt lat="45.6250852" lon="9.512736"><ele>152.0</ele><time>2026-04-05T09:28:17.729Z</time></trkpt><trkpt lat="45.6251131" lon="9.5125698"><ele>152.5</ele><time>2026-04-05T09:28:19.73Z</time></trkpt><trkpt lat="45.6251336" lon="9.512476"><ele>153.0</ele><time>2026-04-05T09:28:20.73Z</time></trkpt><trkpt lat="45.6251493" lon="9.5123805"><ele>153.5</ele><time>2026-04-05T09:28:21.73Z</time></trkpt><trkpt lat="45.6251696" lon="9.5122884"><ele>154.0</ele><time>2026-04-05T09:28:22.729Z</time></trkpt><trkpt lat="45.6252071" lon="9.512101"><ele>154.2</ele><time>2026-04-05T09:28:24.73Z</time></trkpt><trkpt lat="45.6252329" lon="9.5119379"><ele>154.4</ele><time>2026-04-05T09:28:26.73Z</time></trkpt><trkpt lat="45.6252599" lon="9.5117728"><ele>154.6</ele><time>2026-04-05T09:28:28.73Z</time></trkpt><trkpt lat="45.6252862" lon="9.5116444"><ele>154.8</ele><time>2026-04-05T09:28:29.73Z</time></trkpt><trkpt lat="45.6253091" lon="9.5115041"><ele>155.0</ele><time>2026-04-05T09:28:30.73Z</time></trkpt><trkpt lat="45.625337" lon="9.5113689"><ele>155.0</ele><time>2026-04-05T09:28:31.73Z</time></trkpt><trkpt lat="45.6253565" lon="9.5112698"><ele>155.0</ele><time>2026-04-05T09:28:32.73Z</time></trkpt><trkpt lat="45.6253806" lon="9.5111599"><ele>155.0</ele><time>2026-04-05T09:28:33.73Z</time></trkpt><trkpt lat="45.6254077" lon="9.5109819"><ele>155.0</ele><time>2026-04-05T09:28:35.73Z</time></trkpt><trkpt lat="45.6254523" lon="9.5108197"><ele>155.0</ele><time>2026-04-05T09:28:37.729Z</time></trkpt><trkpt lat="45.6254899" lon="9.5106618"><ele>154.8</ele><time>2026-04-05T09:28:39.729Z</time></trkpt><trkpt lat="45.6255262" lon="9.5105028"><ele>154.6</ele><time>2026-04-05T09:28:41.729Z</time></trkpt><trkpt lat="45.6255573" lon="9.5103422"><ele>154.4</ele><time>2026-04-05T09:28:43.729Z</time></trkpt><trkpt lat="45.6255745" lon="9.5102298"><ele>154.2</ele><time>2026-04-05T09:28:44.73Z</time></trkpt><trkpt lat="45.6255906" lon="9.51014"><ele>154.0</ele><time>2026-04-05T09:28:45.73Z</time></trkpt><trkpt lat="45.6256156" lon="9.5100411"><ele>154.0</ele><time>2026-04-05T09:28:46.73Z</time></trkpt><trkpt lat="45.6256304" lon="9.5099533"><ele>154.0</ele><time>2026-04-05T09:28:47.73Z</time></trkpt><trkpt lat="45.6256593" lon="9.5097905"><ele>154.0</ele><time>2026-04-05T09:28:49.73Z</time></trkpt><trkpt lat="45.6256858" lon="9.5096317"><ele>154.0</ele><time>2026-04-05T09:28:51.73Z</time></trkpt><trkpt lat="45.6257067" lon="9.5095395"><ele>154.0</ele><time>2026-04-05T09:28:52.73Z</time></trkpt><trkpt lat="45.6257213" lon="9.5094485"><ele>154.0</ele><time>2026-04-05T09:28:53.73Z</time></trkpt><trkpt lat="45.6257381" lon="9.5093582"><ele>154.33333333333334</ele><time>2026-04-05T09:28:54.73Z</time></trkpt><trkpt lat="45.6257493" lon="9.5092636"><ele>154.66666666666669</ele><time>2026-04-05T09:28:55.729Z</time></trkpt><trkpt lat="45.6257704" lon="9.509159"><ele>155.0</ele><time>2026-04-05T09:28:56.729Z</time></trkpt><trkpt lat="45.6257907" lon="9.5090716"><ele>155.33333333333334</ele><time>2026-04-05T09:28:57.73Z</time></trkpt><trkpt lat="45.625817" lon="9.5089005"><ele>155.66666666666666</ele><time>2026-04-05T09:28:59.73Z</time></trkpt><trkpt lat="45.6258475" lon="9.5087924"><ele>156.0</ele><time>2026-04-05T09:29:00.729Z</time></trkpt><trkpt lat="45.6258775" lon="9.5086829"><ele>156.83333333333334</ele><time>2026-04-05T09:29:01.729Z</time></trkpt><trkpt lat="45.6258891" lon="9.5085926"><ele>157.66666666666666</ele><time>2026-04-05T09:29:02.73Z</time></trkpt><trkpt lat="45.6259081" lon="9.5084965"><ele>158.5</ele><time>2026-04-05T09:29:03.73Z</time></trkpt><trkpt lat="45.6259285" lon="9.5083993"><ele>159.33333333333331</ele><time>2026-04-05T09:29:04.73Z</time></trkpt><trkpt lat="45.6259749" lon="9.5082277"><ele>160.16666666666666</ele><time>2026-04-05T09:29:06.73Z</time></trkpt><trkpt lat="45.6259965" lon="9.5081373"><ele>161.0</ele><time>2026-04-05T09:29:07.73Z</time></trkpt><trkpt lat="45.6260156" lon="9.5080419"><ele>161.0</ele><time>2026-04-05T09:29:08.73Z</time></trkpt><trkpt lat="45.6260475" lon="9.5079492"><ele>161.0</ele><time>2026-04-05T09:29:09.73Z</time></trkpt><trkpt lat="45.6260779" lon="9.5078457"><ele>161.0</ele><time>2026-04-05T09:29:10.729Z</time></trkpt><trkpt lat="45.6261125" lon="9.5077665"><ele>161.0</ele><time>2026-04-05T09:29:11.729Z</time></trkpt><trkpt lat="45.626177" lon="9.5076073"><ele>161.0</ele><time>2026-04-05T09:29:13.729Z</time></trkpt><trkpt lat="45.6262128" lon="9.5075055"><ele>161.0</ele><time>2026-04-05T09:29:14.73Z</time></trkpt><trkpt lat="45.6262477" lon="9.5074269"><ele>159.83333333333331</ele><time>2026-04-05T09:29:15.73Z</time></trkpt><trkpt lat="45.6262841" lon="9.5073465"><ele>158.66666666666666</ele><time>2026-04-05T09:29:16.73Z</time></trkpt><trkpt lat="45.6263655" lon="9.5072051"><ele>157.5</ele><time>2026-04-05T09:29:18.73Z</time></trkpt><trkpt lat="45.6264077" lon="9.5071196"><ele>156.33333333333334</ele><time>2026-04-05T09:29:19.73Z</time></trkpt><trkpt lat="45.626448" lon="9.5070481"><ele>155.16666666666669</ele><time>2026-04-05T09:29:20.729Z</time></trkpt><trkpt lat="45.6264787" lon="9.5069676"><ele>154.0</ele><time>2026-04-05T09:29:21.73Z</time></trkpt><trkpt lat="45.6265597" lon="9.5068418"><ele>154.0</ele><time>2026-04-05T09:29:23.729Z</time></trkpt><trkpt lat="45.6266266" lon="9.5066954"><ele>154.0</ele><time>2026-04-05T09:29:25.73Z</time></trkpt><trkpt lat="45.6266858" lon="9.5066045"><ele>154.0</ele><time>2026-04-05T09:29:27.73Z</time></trkpt><trkpt lat="45.6267265" lon="9.5065284"><ele>154.0</ele><time>2026-04-05T09:29:28.73Z</time></trkpt><trkpt lat="45.6267651" lon="9.5064346"><ele>154.0</ele><time>2026-04-05T09:29:29.73Z</time></trkpt><trkpt lat="45.626804" lon="9.506322"><ele>154.0</ele><time>2026-04-05T09:29:30.729Z</time></trkpt><trkpt lat="45.6268501" lon="9.5062313"><ele>153.83333333333334</ele><time>2026-04-05T09:29:31.73Z</time></trkpt><trkpt lat="45.6268932" lon="9.5061434"><ele>153.66666666666669</ele><time>2026-04-05T09:29:32.73Z</time></trkpt><trkpt lat="45.6269672" lon="9.5060058"><ele>153.5</ele><time>2026-04-05T09:29:34.73Z</time></trkpt><trkpt lat="45.6270121" lon="9.5059298"><ele>153.33333333333334</ele><time>2026-04-05T09:29:35.729Z</time></trkpt><trkpt lat="45.6270508" lon="9.5058518"><ele>153.16666666666666</ele><time>2026-04-05T09:29:36.729Z</time></trkpt><trkpt lat="45.6270923" lon="9.5057729"><ele>153.0</ele><time>2026-04-05T09:29:37.729Z</time></trkpt><trkpt lat="45.6271326" lon="9.5056949"><ele>153.0</ele><time>2026-04-05T09:29:38.73Z</time></trkpt><trkpt lat="45.6271693" lon="9.5056214"><ele>153.0</ele><time>2026-04-05T09:29:39.73Z</time></trkpt><trkpt lat="45.6272129" lon="9.5055443"><ele>153.0</ele><time>2026-04-05T09:29:40.73Z</time></trkpt><trkpt lat="45.6272472" lon="9.5054546"><ele>153.0</ele><time>2026-04-05T09:29:41.729Z</time></trkpt><trkpt lat="45.627283" lon="9.5053692"><ele>153.0</ele><time>2026-04-05T09:29:42.73Z</time></trkpt><trkpt lat="45.6273175" lon="9.5052824"><ele>153.0</ele><time>2026-04-05T09:29:43.73Z</time></trkpt><trkpt lat="45.6273536" lon="9.5051885"><ele>153.0</ele><time>2026-04-05T09:29:44.729Z</time></trkpt><trkpt lat="45.6274243" lon="9.505049"><ele>153.33333333333334</ele><time>2026-04-05T09:29:46.73Z</time></trkpt><trkpt lat="45.627452" lon="9.5049643"><ele>153.66666666666666</ele><time>2026-04-05T09:29:47.73Z</time></trkpt><trkpt lat="45.6275132" lon="9.5048062"><ele>154.0</ele><time>2026-04-05T09:29:49.73Z</time></trkpt><trkpt lat="45.627543" lon="9.5047211"><ele>154.33333333333331</ele><time>2026-04-05T09:29:50.73Z</time></trkpt><trkpt lat="45.6275783" lon="9.5046279"><ele>154.66666666666666</ele><time>2026-04-05T09:29:51.73Z</time></trkpt><trkpt lat="45.6276166" lon="9.5045332"><ele>155.0</ele><time>2026-04-05T09:29:52.73Z</time></trkpt><trkpt lat="45.6276835" lon="9.5043646"><ele>155.6</ele><time>2026-04-05T09:29:54.73Z</time></trkpt><trkpt lat="45.6277135" lon="9.5042663"><ele>156.2</ele><time>2026-04-05T09:29:55.73Z</time></trkpt><trkpt lat="45.6277483" lon="9.5041854"><ele>156.8</ele><time>2026-04-05T09:29:56.73Z</time></trkpt><trkpt lat="45.6277746" lon="9.5041004"><ele>157.4</ele><time>2026-04-05T09:29:57.73Z</time></trkpt><trkpt lat="45.6278246" lon="9.5039214"><ele>158.0</ele><time>2026-04-05T09:29:59.73Z</time></trkpt><trkpt lat="45.6278768" lon="9.5037701"><ele>157.0</ele><time>2026-04-05T09:30:01.729Z</time></trkpt><trkpt lat="45.6278998" lon="9.5036862"><ele>156.0</ele><time>2026-04-05T09:30:02.73Z</time></trkpt><trkpt lat="45.6279296" lon="9.5035789"><ele>155.0</ele><time>2026-04-05T09:30:03.73Z</time></trkpt><trkpt lat="45.6279721" lon="9.503412"><ele>154.0</ele><time>2026-04-05T09:30:05.73Z</time></trkpt><trkpt lat="45.6279875" lon="9.5033241"><ele>153.0</ele><time>2026-04-05T09:30:06.73Z</time></trkpt><trkpt lat="45.6280362" lon="9.5031639"><ele>153.0</ele><time>2026-04-05T09:30:08.73Z</time></trkpt><trkpt lat="45.628064" lon="9.5030827"><ele>153.0</ele><time>2026-04-05T09:30:09.729Z</time></trkpt><trkpt lat="45.6280856" lon="9.5029868"><ele>153.0</ele><time>2026-04-05T09:30:10.73Z</time></trkpt><trkpt lat="45.6281089" lon="9.5028894"><ele>153.0</ele><time>2026-04-05T09:30:11.73Z</time></trkpt><trkpt lat="45.628135" lon="9.5027992"><ele>153.0</ele><time>2026-04-05T09:30:12.73Z</time></trkpt><trkpt lat="45.6281641" lon="9.5027056"><ele>153.0</ele><time>2026-04-05T09:30:13.73Z</time></trkpt><trkpt lat="45.6281872" lon="9.5026185"><ele>153.0</ele><time>2026-04-05T09:30:14.73Z</time></trkpt><trkpt lat="45.6282282" lon="9.5024634"><ele>154.5</ele><time>2026-04-05T09:30:16.73Z</time></trkpt><trkpt lat="45.6282827" lon="9.5022964"><ele>156.0</ele><time>2026-04-05T09:30:18.73Z</time></trkpt><trkpt lat="45.6283326" lon="9.5021355"><ele>157.5</ele><time>2026-04-05T09:30:20.73Z</time></trkpt><trkpt lat="45.6283754" lon="9.5020158"><ele>159.0</ele><time>2026-04-05T09:30:21.73Z</time></trkpt><trkpt lat="45.6284147" lon="9.5018683"><ele>159.5</ele><time>2026-04-05T09:30:22.729Z</time></trkpt><trkpt lat="45.6284555" lon="9.5017464"><ele>160.0</ele><time>2026-04-05T09:30:24.729Z</time></trkpt><trkpt lat="45.6284799" lon="9.5016529"><ele>160.5</ele><time>2026-04-05T09:30:25.729Z</time></trkpt><trkpt lat="45.6285028" lon="9.5015634"><ele>161.0</ele><time>2026-04-05T09:30:26.73Z</time></trkpt><trkpt lat="45.6285462" lon="9.5013772"><ele>161.5</ele><time>2026-04-05T09:30:28.73Z</time></trkpt><trkpt lat="45.6285636" lon="9.5012761"><ele>162.0</ele><time>2026-04-05T09:30:29.73Z</time></trkpt><trkpt lat="45.6286154" lon="9.5011126"><ele>162.8</ele><time>2026-04-05T09:30:31.73Z</time></trkpt><trkpt lat="45.6286401" lon="9.5010259"><ele>163.6</ele><time>2026-04-05T09:30:32.73Z</time></trkpt><trkpt lat="45.6286975" lon="9.5008203"><ele>164.4</ele><time>2026-04-05T09:30:34.729Z</time></trkpt><trkpt lat="45.6287317" lon="9.5007282"><ele>165.20000000000002</ele><time>2026-04-05T09:30:35.73Z</time></trkpt><trkpt lat="45.6287815" lon="9.5005367"><ele>166.0</ele><time>2026-04-05T09:30:37.73Z</time></trkpt><trkpt lat="45.6288168" lon="9.500421"><ele>164.83333333333334</ele><time>2026-04-05T09:30:38.73Z</time></trkpt><trkpt lat="45.628866" lon="9.500255"><ele>163.66666666666669</ele><time>2026-04-05T09:30:40.73Z</time></trkpt><trkpt lat="45.628897" lon="9.5001654"><ele>162.5</ele><time>2026-04-05T09:30:41.73Z</time></trkpt><trkpt lat="45.6289283" lon="9.5000728"><ele>161.33333333333334</ele><time>2026-04-05T09:30:42.73Z</time></trkpt><trkpt lat="45.6289665" lon="9.4999948"><ele>160.16666666666666</ele><time>2026-04-05T09:30:43.73Z</time></trkpt><trkpt lat="45.6289968" lon="9.4999107"><ele>159.0</ele><time>2026-04-05T09:30:44.73Z</time></trkpt><trkpt lat="45.629023" lon="9.4998287"><ele>159.0</ele><time>2026-04-05T09:30:45.73Z</time></trkpt><trkpt lat="45.6290548" lon="9.4997471"><ele>159.0</ele><time>2026-04-05T09:30:46.73Z</time></trkpt><trkpt lat="45.6291094" lon="9.4995984"><ele>159.0</ele><time>2026-04-05T09:30:48.73Z</time></trkpt><trkpt lat="45.629176" lon="9.4994365"><ele>159.0</ele><time>2026-04-05T09:30:50.73Z</time></trkpt><trkpt lat="45.6292134" lon="9.4993617"><ele>159.0</ele><time>2026-04-05T09:30:51.73Z</time></trkpt><trkpt lat="45.6292824" lon="9.4992071"><ele>158.66666666666666</ele><time>2026-04-05T09:30:53.73Z</time></trkpt><trkpt lat="45.6293201" lon="9.4991297"><ele>158.33333333333334</ele><time>2026-04-05T09:30:54.73Z</time></trkpt><trkpt lat="45.6293709" lon="9.4989682"><ele>158.0</ele><time>2026-04-05T09:30:56.73Z</time></trkpt><trkpt lat="45.629415" lon="9.4988968"><ele>157.66666666666669</ele><time>2026-04-05T09:30:57.73Z</time></trkpt><trkpt lat="45.6294406" lon="9.4987825"><ele>157.33333333333334</ele><time>2026-04-05T09:30:58.73Z</time></trkpt><trkpt lat="45.629474" lon="9.4986929"><ele>157.0</ele><time>2026-04-05T09:30:59.729Z</time></trkpt><trkpt lat="45.6295394" lon="9.4985436"><ele>157.0</ele><time>2026-04-05T09:31:01.729Z</time></trkpt><trkpt lat="45.6295863" lon="9.4984523"><ele>157.0</ele><time>2026-04-05T09:31:02.73Z</time></trkpt><trkpt lat="45.6296173" lon="9.4983636"><ele>157.0</ele><time>2026-04-05T09:31:03.729Z</time></trkpt><trkpt lat="45.6296536" lon="9.4982756"><ele>157.0</ele><time>2026-04-05T09:31:04.729Z</time></trkpt><trkpt lat="45.6297242" lon="9.4981108"><ele>157.0</ele><time>2026-04-05T09:31:06.73Z</time></trkpt><trkpt lat="45.6297718" lon="9.4980131"><ele>157.0</ele><time>2026-04-05T09:31:07.73Z</time></trkpt><trkpt lat="45.6298028" lon="9.4979347"><ele>157.66666666666669</ele><time>2026-04-05T09:31:08.73Z</time></trkpt><trkpt lat="45.6298434" lon="9.4978502"><ele>158.33333333333334</ele><time>2026-04-05T09:31:09.73Z</time></trkpt><trkpt lat="45.6298883" lon="9.4977684"><ele>159.0</ele><time>2026-04-05T09:31:10.73Z</time></trkpt><trkpt lat="45.6299314" lon="9.4976856"><ele>159.66666666666666</ele><time>2026-04-05T09:31:11.73Z</time></trkpt><trkpt lat="45.6299673" lon="9.4976031"><ele>160.33333333333331</ele><time>2026-04-05T09:31:12.73Z</time></trkpt><trkpt lat="45.6300312" lon="9.4974519"><ele>161.0</ele><time>2026-04-05T09:31:14.73Z</time></trkpt><trkpt lat="45.6300702" lon="9.4973757"><ele>161.0</ele><time>2026-04-05T09:31:15.73Z</time></trkpt><trkpt lat="45.6301116" lon="9.4972789"><ele>161.0</ele><time>2026-04-05T09:31:16.729Z</time></trkpt><trkpt lat="45.6301998" lon="9.4971565"><ele>161.0</ele><time>2026-04-05T09:31:18.729Z</time></trkpt><trkpt lat="45.6302563" lon="9.4970888"><ele>161.0</ele><time>2026-04-05T09:31:19.73Z</time></trkpt><trkpt lat="45.630311" lon="9.4970247"><ele>161.0</ele><time>2026-04-05T09:31:20.73Z</time></trkpt><trkpt lat="45.630365" lon="9.4969614"><ele>161.0</ele><time>2026-04-05T09:31:21.73Z</time></trkpt><trkpt lat="45.630429" lon="9.4968912"><ele>159.66666666666666</ele><time>2026-04-05T09:31:22.73Z</time></trkpt><trkpt lat="45.6304816" lon="9.4968155"><ele>158.33333333333331</ele><time>2026-04-05T09:31:23.73Z</time></trkpt><trkpt lat="45.6305342" lon="9.496763"><ele>157.0</ele><time>2026-04-05T09:31:24.73Z</time></trkpt><trkpt lat="45.6305822" lon="9.4966741"><ele>155.66666666666666</ele><time>2026-04-05T09:31:25.729Z</time></trkpt><trkpt lat="45.6306262" lon="9.4965869"><ele>154.33333333333334</ele><time>2026-04-05T09:31:26.73Z</time></trkpt><trkpt lat="45.6306725" lon="9.4965057"><ele>153.0</ele><time>2026-04-05T09:31:27.73Z</time></trkpt><trkpt lat="45.6307529" lon="9.4963475"><ele>155.2</ele><time>2026-04-05T09:31:29.73Z</time></trkpt><trkpt lat="45.630821" lon="9.4961815"><ele>157.4</ele><time>2026-04-05T09:31:31.729Z</time></trkpt><trkpt lat="45.6308473" lon="9.4960955"><ele>159.6</ele><time>2026-04-05T09:31:32.73Z</time></trkpt><trkpt lat="45.6308935" lon="9.4959835"><ele>161.79999999999998</ele><time>2026-04-05T09:31:34.729Z</time></trkpt><trkpt lat="45.6309492" lon="9.495866"><ele>164.0</ele><time>2026-04-05T09:31:36.73Z</time></trkpt><trkpt lat="45.6310195" lon="9.495768"><ele>164.0</ele><time>2026-04-05T09:31:38.729Z</time></trkpt><trkpt lat="45.6310807" lon="9.4956502"><ele>164.0</ele><time>2026-04-05T09:31:40.729Z</time></trkpt><trkpt lat="45.631138" lon="9.4955102"><ele>164.0</ele><time>2026-04-05T09:31:42.73Z</time></trkpt><trkpt lat="45.6312004" lon="9.495379"><ele>164.0</ele><time>2026-04-05T09:31:44.73Z</time></trkpt><trkpt lat="45.6312677" lon="9.4952444"><ele>164.0</ele><time>2026-04-05T09:31:46.73Z</time></trkpt><trkpt lat="45.6313088" lon="9.4951695"><ele>163.39999999999998</ele><time>2026-04-05T09:31:47.73Z</time></trkpt><trkpt lat="45.6313903" lon="9.4950324"><ele>162.8</ele><time>2026-04-05T09:31:49.729Z</time></trkpt><trkpt lat="45.6314475" lon="9.494979"><ele>162.2</ele><time>2026-04-05T09:31:50.73Z</time></trkpt><trkpt lat="45.631536" lon="9.4948698"><ele>161.60000000000002</ele><time>2026-04-05T09:31:52.73Z</time></trkpt><trkpt lat="45.6316353" lon="9.494783"><ele>161.0</ele><time>2026-04-05T09:31:54.73Z</time></trkpt><trkpt lat="45.6317" lon="9.4947407"><ele>161.0</ele><time>2026-04-05T09:31:55.73Z</time></trkpt><trkpt lat="45.6318037" lon="9.4946573"><ele>161.0</ele><time>2026-04-05T09:31:57.73Z</time></trkpt><trkpt lat="45.6318725" lon="9.4946237"><ele>161.0</ele><time>2026-04-05T09:31:58.73Z</time></trkpt><trkpt lat="45.6319316" lon="9.4945745"><ele>161.0</ele><time>2026-04-05T09:31:59.73Z</time></trkpt><trkpt lat="45.6320048" lon="9.4944842"><ele>161.0</ele><time>2026-04-05T09:32:01.73Z</time></trkpt><trkpt lat="45.6320359" lon="9.4944027"><ele>161.0</ele><time>2026-04-05T09:32:02.73Z</time></trkpt><trkpt lat="45.6320979" lon="9.4943736"><ele>160.83333333333331</ele><time>2026-04-05T09:32:03.73Z</time></trkpt><trkpt lat="45.6321706" lon="9.494289"><ele>160.66666666666666</ele><time>2026-04-05T09:32:04.73Z</time></trkpt><trkpt lat="45.6322235" lon="9.4942384"><ele>160.5</ele><time>2026-04-05T09:32:05.73Z</time></trkpt><trkpt lat="45.6323408" lon="9.494153"><ele>160.33333333333334</ele><time>2026-04-05T09:32:07.729Z</time></trkpt><trkpt lat="45.6324023" lon="9.4941266"><ele>160.16666666666669</ele><time>2026-04-05T09:32:08.729Z</time></trkpt><trkpt lat="45.6324652" lon="9.4940895"><ele>160.0</ele><time>2026-04-05T09:32:09.73Z</time></trkpt><trkpt lat="45.6325563" lon="9.4940195"><ele>160.0</ele><time>2026-04-05T09:32:10.73Z</time></trkpt><trkpt lat="45.6326228" lon="9.4939864"><ele>160.0</ele><time>2026-04-05T09:32:11.73Z</time></trkpt><trkpt lat="45.6327004" lon="9.4939302"><ele>160.0</ele><time>2026-04-05T09:32:12.73Z</time></trkpt><trkpt lat="45.6328206" lon="9.4939136"><ele>160.0</ele><time>2026-04-05T09:32:14.73Z</time></trkpt><trkpt lat="45.6328795" lon="9.4938678"><ele>160.0</ele><time>2026-04-05T09:32:15.73Z</time></trkpt><trkpt lat="45.6330061" lon="9.4938687"><ele>158.5</ele><time>2026-04-05T09:32:17.73Z</time></trkpt><trkpt lat="45.6330684" lon="9.4938853"><ele>157.0</ele><time>2026-04-05T09:32:18.73Z</time></trkpt><trkpt lat="45.633137" lon="9.4938713"><ele>155.5</ele><time>2026-04-05T09:32:19.73Z</time></trkpt><trkpt lat="45.6332055" lon="9.4938741"><ele>154.0</ele><time>2026-04-05T09:32:20.73Z</time></trkpt><trkpt lat="45.633271" lon="9.4938577"><ele>152.5</ele><time>2026-04-05T09:32:21.729Z</time></trkpt><trkpt lat="45.6333441" lon="9.4938379"><ele>151.0</ele><time>2026-04-05T09:32:22.73Z</time></trkpt><trkpt lat="45.6334744" lon="9.4938367"><ele>151.00000000000003</ele><time>2026-04-05T09:32:24.73Z</time></trkpt><trkpt lat="45.6335438" lon="9.4938355"><ele>151.0</ele><time>2026-04-05T09:32:25.73Z</time></trkpt><trkpt lat="45.6336207" lon="9.4938481"><ele>151.0</ele><time>2026-04-05T09:32:26.73Z</time></trkpt><trkpt lat="45.6336956" lon="9.4938421"><ele>151.0</ele><time>2026-04-05T09:32:27.729Z</time></trkpt><trkpt lat="45.6337809" lon="9.4938394"><ele>151.0</ele><time>2026-04-05T09:32:28.73Z</time></trkpt><trkpt lat="45.6338442" lon="9.493845"><ele>151.00000000000003</ele><time>2026-04-05T09:32:29.729Z</time></trkpt><trkpt lat="45.6339145" lon="9.4938456"><ele>151.0</ele><time>2026-04-05T09:32:30.73Z</time></trkpt><trkpt lat="45.6339849" lon="9.4938428"><ele>151.33333333333334</ele><time>2026-04-05T09:32:31.73Z</time></trkpt><trkpt lat="45.6340544" lon="9.4938477"><ele>151.66666666666669</ele><time>2026-04-05T09:32:32.73Z</time></trkpt><trkpt lat="45.6341251" lon="9.4938628"><ele>152.0</ele><time>2026-04-05T09:32:33.73Z</time></trkpt><trkpt lat="45.6342548" lon="9.4938881"><ele>152.33333333333334</ele><time>2026-04-05T09:32:35.73Z</time></trkpt><trkpt lat="45.6343191" lon="9.4939051"><ele>152.66666666666666</ele><time>2026-04-05T09:32:36.73Z</time></trkpt><trkpt lat="45.6343896" lon="9.4939285"><ele>153.0</ele><time>2026-04-05T09:32:37.73Z</time></trkpt><trkpt lat="45.6344579" lon="9.4939383"><ele>152.71428571428572</ele><time>2026-04-05T09:32:38.73Z</time></trkpt><trkpt lat="45.6345214" lon="9.4939565"><ele>152.42857142857144</ele><time>2026-04-05T09:32:39.73Z</time></trkpt><trkpt lat="45.6345967" lon="9.493978"><ele>152.14285714285717</ele><time>2026-04-05T09:32:40.73Z</time></trkpt><trkpt lat="45.634659" lon="9.4940021"><ele>151.85714285714286</ele><time>2026-04-05T09:32:41.73Z</time></trkpt><trkpt lat="45.6347216" lon="9.4940232"><ele>151.57142857142858</ele><time>2026-04-05T09:32:42.73Z</time></trkpt><trkpt lat="45.6347876" lon="9.4940452"><ele>151.2857142857143</ele><time>2026-04-05T09:32:43.73Z</time></trkpt><trkpt lat="45.6348522" lon="9.4940743"><ele>151.0</ele><time>2026-04-05T09:32:44.73Z</time></trkpt><trkpt lat="45.6349196" lon="9.494091"><ele>151.0</ele><time>2026-04-05T09:32:45.729Z</time></trkpt><trkpt lat="45.6350336" lon="9.4941259"><ele>151.0</ele><time>2026-04-05T09:32:47.73Z</time></trkpt><trkpt lat="45.6351564" lon="9.4941551"><ele>151.0</ele><time>2026-04-05T09:32:49.729Z</time></trkpt><trkpt lat="45.635217" lon="9.494184"><ele>151.0</ele><time>2026-04-05T09:32:50.729Z</time></trkpt><trkpt lat="45.6353352" lon="9.4942337"><ele>151.0</ele><time>2026-04-05T09:32:52.73Z</time></trkpt><trkpt lat="45.635402" lon="9.4942567"><ele>151.33333333333334</ele><time>2026-04-05T09:32:53.73Z</time></trkpt><trkpt lat="45.6354611" lon="9.4942899"><ele>151.66666666666669</ele><time>2026-04-05T09:32:54.73Z</time></trkpt><trkpt lat="45.6355291" lon="9.4943207"><ele>152.0</ele><time>2026-04-05T09:32:55.73Z</time></trkpt><trkpt lat="45.6355941" lon="9.4943512"><ele>152.33333333333334</ele><time>2026-04-05T09:32:56.73Z</time></trkpt><trkpt lat="45.6356564" lon="9.4943774"><ele>152.66666666666666</ele><time>2026-04-05T09:32:57.73Z</time></trkpt><trkpt lat="45.6357836" lon="9.4944187"><ele>153.0</ele><time>2026-04-05T09:32:59.73Z</time></trkpt><trkpt lat="45.6358523" lon="9.4944542"><ele>153.0</ele><time>2026-04-05T09:33:00.729Z</time></trkpt><trkpt lat="45.635974" lon="9.4945112"><ele>153.0</ele><time>2026-04-05T09:33:02.73Z</time></trkpt><trkpt lat="45.636043" lon="9.4945439"><ele>153.0</ele><time>2026-04-05T09:33:03.73Z</time></trkpt><trkpt lat="45.6361063" lon="9.4945651"><ele>153.0</ele><time>2026-04-05T09:33:04.73Z</time></trkpt><trkpt lat="45.636184" lon="9.4945854"><ele>153.0</ele><time>2026-04-05T09:33:05.73Z</time></trkpt><trkpt lat="45.6362506" lon="9.4945961"><ele>153.0</ele><time>2026-04-05T09:33:06.73Z</time></trkpt><trkpt lat="45.6363152" lon="9.4946141"><ele>153.33333333333334</ele><time>2026-04-05T09:33:07.73Z</time></trkpt><trkpt lat="45.6363832" lon="9.4946275"><ele>153.66666666666666</ele><time>2026-04-05T09:33:08.73Z</time></trkpt><trkpt lat="45.6364641" lon="9.494632"><ele>154.0</ele><time>2026-04-05T09:33:09.73Z</time></trkpt><trkpt lat="45.6365292" lon="9.4946227"><ele>154.33333333333331</ele><time>2026-04-05T09:33:10.73Z</time></trkpt><trkpt lat="45.6366605" lon="9.4946228"><ele>154.66666666666666</ele><time>2026-04-05T09:33:12.73Z</time></trkpt><trkpt lat="45.6367293" lon="9.4946159"><ele>155.0</ele><time>2026-04-05T09:33:13.73Z</time></trkpt><trkpt lat="45.6368015" lon="9.4946189"><ele>155.0</ele><time>2026-04-05T09:33:14.73Z</time></trkpt><trkpt lat="45.6369304" lon="9.494607"><ele>155.0</ele><time>2026-04-05T09:33:16.73Z</time></trkpt><trkpt lat="45.6370611" lon="9.4945871"><ele>155.0</ele><time>2026-04-05T09:33:18.73Z</time></trkpt><trkpt lat="45.6371376" lon="9.4945768"><ele>155.0</ele><time>2026-04-05T09:33:19.73Z</time></trkpt><trkpt lat="45.637206" lon="9.4945527"><ele>155.0</ele><time>2026-04-05T09:33:20.73Z</time></trkpt><trkpt lat="45.6372773" lon="9.4945414"><ele>154.8</ele><time>2026-04-05T09:33:21.73Z</time></trkpt><trkpt lat="45.6373978" lon="9.4945009"><ele>154.6</ele><time>2026-04-05T09:33:23.73Z</time></trkpt><trkpt lat="45.6374621" lon="9.4944793"><ele>154.4</ele><time>2026-04-05T09:33:24.73Z</time></trkpt><trkpt lat="45.6375861" lon="9.4944376"><ele>154.2</ele><time>2026-04-05T09:33:26.73Z</time></trkpt><trkpt lat="45.6376688" lon="9.4944068"><ele>154.0</ele><time>2026-04-05T09:33:27.73Z</time></trkpt><trkpt lat="45.6377309" lon="9.4943893"><ele>153.8</ele><time>2026-04-05T09:33:28.73Z</time></trkpt><trkpt lat="45.6378479" lon="9.4943397"><ele>153.60000000000002</ele><time>2026-04-05T09:33:30.73Z</time></trkpt><trkpt lat="45.637923" lon="9.4943153"><ele>153.4</ele><time>2026-04-05T09:33:31.73Z</time></trkpt><trkpt lat="45.6380313" lon="9.494278"><ele>153.20000000000002</ele><time>2026-04-05T09:33:33.729Z</time></trkpt><trkpt lat="45.6381057" lon="9.4942474"><ele>153.0</ele><time>2026-04-05T09:33:34.73Z</time></trkpt><trkpt lat="45.6382389" lon="9.4942108"><ele>153.0</ele><time>2026-04-05T09:33:36.729Z</time></trkpt><trkpt lat="45.6383114" lon="9.4942026"><ele>153.0</ele><time>2026-04-05T09:33:37.729Z</time></trkpt><trkpt lat="45.6384001" lon="9.4941788"><ele>153.0</ele><time>2026-04-05T09:33:38.73Z</time></trkpt><trkpt lat="45.6384649" lon="9.4941611"><ele>153.0</ele><time>2026-04-05T09:33:39.73Z</time></trkpt><trkpt lat="45.6385339" lon="9.4941461"><ele>153.0</ele><time>2026-04-05T09:33:40.73Z</time></trkpt><trkpt lat="45.6386554" lon="9.4941037"><ele>153.0</ele><time>2026-04-05T09:33:42.73Z</time></trkpt><trkpt lat="45.6387219" lon="9.4940872"><ele>152.4</ele><time>2026-04-05T09:33:43.73Z</time></trkpt><trkpt lat="45.6387975" lon="9.4940521"><ele>151.8</ele><time>2026-04-05T09:33:44.73Z</time></trkpt><trkpt lat="45.638872" lon="9.494051"><ele>151.2</ele><time>2026-04-05T09:33:45.73Z</time></trkpt><trkpt lat="45.6390095" lon="9.4940442"><ele>150.6</ele><time>2026-04-05T09:33:47.729Z</time></trkpt><trkpt lat="45.6391373" lon="9.4940164"><ele>150.0</ele><time>2026-04-05T09:33:49.73Z</time></trkpt><trkpt lat="45.6392062" lon="9.4939799"><ele>149.99999999999997</ele><time>2026-04-05T09:33:50.73Z</time></trkpt><trkpt lat="45.6392745" lon="9.4939684"><ele>150.0</ele><time>2026-04-05T09:33:51.73Z</time></trkpt><trkpt lat="45.6393444" lon="9.4939641"><ele>150.0</ele><time>2026-04-05T09:33:52.73Z</time></trkpt><trkpt lat="45.639414" lon="9.4939645"><ele>150.0</ele><time>2026-04-05T09:33:53.729Z</time></trkpt><trkpt lat="45.6394897" lon="9.4939595"><ele>150.0</ele><time>2026-04-05T09:33:54.73Z</time></trkpt><trkpt lat="45.6395573" lon="9.4939503"><ele>149.99999999999997</ele><time>2026-04-05T09:33:55.73Z</time></trkpt><trkpt lat="45.6396269" lon="9.4939398"><ele>150.0</ele><time>2026-04-05T09:33:56.73Z</time></trkpt><trkpt lat="45.6396987" lon="9.4939294"><ele>149.85714285714283</ele><time>2026-04-05T09:33:57.73Z</time></trkpt><trkpt lat="45.6397669" lon="9.4939287"><ele>149.71428571428572</ele><time>2026-04-05T09:33:58.73Z</time></trkpt><trkpt lat="45.6398316" lon="9.4939248"><ele>149.57142857142856</ele><time>2026-04-05T09:33:59.73Z</time></trkpt><trkpt lat="45.6398971" lon="9.4939292"><ele>149.42857142857142</ele><time>2026-04-05T09:34:00.73Z</time></trkpt><trkpt lat="45.6399739" lon="9.4939367"><ele>149.28571428571428</ele><time>2026-04-05T09:34:01.729Z</time></trkpt><trkpt lat="45.6400393" lon="9.4939285"><ele>149.14285714285714</ele><time>2026-04-05T09:34:02.73Z</time></trkpt><trkpt lat="45.6401028" lon="9.4939336"><ele>149.0</ele><time>2026-04-05T09:34:03.73Z</time></trkpt><trkpt lat="45.6401743" lon="9.4939207"><ele>149.0</ele><time>2026-04-05T09:34:04.73Z</time></trkpt><trkpt lat="45.6402582" lon="9.4939171"><ele>149.0</ele><time>2026-04-05T09:34:05.73Z</time></trkpt><trkpt lat="45.6403278" lon="9.4939265"><ele>149.0</ele><time>2026-04-05T09:34:06.73Z</time></trkpt><trkpt lat="45.6404019" lon="9.4939239"><ele>149.0</ele><time>2026-04-05T09:34:07.729Z</time></trkpt><trkpt lat="45.6404755" lon="9.4939121"><ele>149.0</ele><time>2026-04-05T09:34:08.73Z</time></trkpt><trkpt lat="45.6405434" lon="9.4939146"><ele>149.0</ele><time>2026-04-05T09:34:09.73Z</time></trkpt><trkpt lat="45.6406164" lon="9.4939218"><ele>149.0</ele><time>2026-04-05T09:34:10.73Z</time></trkpt><trkpt lat="45.6406889" lon="9.4939274"><ele>149.5</ele><time>2026-04-05T09:34:11.73Z</time></trkpt><trkpt lat="45.6407562" lon="9.4939399"><ele>150.0</ele><time>2026-04-05T09:34:12.73Z</time></trkpt><trkpt lat="45.6408433" lon="9.4939453"><ele>150.5</ele><time>2026-04-05T09:34:13.729Z</time></trkpt><trkpt lat="45.6409415" lon="9.4939258"><ele>151.0</ele><time>2026-04-05T09:34:14.73Z</time></trkpt><trkpt lat="45.6410394" lon="9.4939557"><ele>151.5</ele><time>2026-04-05T09:34:16.73Z</time></trkpt><trkpt lat="45.641114" lon="9.4939449"><ele>152.0</ele><time>2026-04-05T09:34:17.73Z</time></trkpt><trkpt lat="45.6411975" lon="9.493971"><ele>152.7142857142857</ele><time>2026-04-05T09:34:18.729Z</time></trkpt><trkpt lat="45.6412819" lon="9.4939819"><ele>153.42857142857144</ele><time>2026-04-05T09:34:19.73Z</time></trkpt><trkpt lat="45.6413493" lon="9.4939944"><ele>154.14285714285714</ele><time>2026-04-05T09:34:20.729Z</time></trkpt><trkpt lat="45.6414194" lon="9.4940059"><ele>154.85714285714283</ele><time>2026-04-05T09:34:21.729Z</time></trkpt><trkpt lat="45.6414867" lon="9.4940054"><ele>155.57142857142856</ele><time>2026-04-05T09:34:22.729Z</time></trkpt><trkpt lat="45.6415549" lon="9.4940199"><ele>156.28571428571428</ele><time>2026-04-05T09:34:23.73Z</time></trkpt><trkpt lat="45.6416319" lon="9.4940494"><ele>157.0</ele><time>2026-04-05T09:34:24.73Z</time></trkpt><trkpt lat="45.6416999" lon="9.4940621"><ele>157.0</ele><time>2026-04-05T09:34:25.73Z</time></trkpt><trkpt lat="45.641779" lon="9.494068"><ele>157.0</ele><time>2026-04-05T09:34:26.73Z</time></trkpt><trkpt lat="45.6418612" lon="9.4940889"><ele>157.0</ele><time>2026-04-05T09:34:27.729Z</time></trkpt><trkpt lat="45.641931" lon="9.4940929"><ele>157.0</ele><time>2026-04-05T09:34:28.73Z</time></trkpt><trkpt lat="45.6419985" lon="9.494094"><ele>157.0</ele><time>2026-04-05T09:34:29.73Z</time></trkpt><trkpt lat="45.6420754" lon="9.4940905"><ele>157.0</ele><time>2026-04-05T09:34:30.73Z</time></trkpt><trkpt lat="45.6421481" lon="9.4940979"><ele>156.33333333333334</ele><time>2026-04-05T09:34:31.73Z</time></trkpt><trkpt lat="45.6422191" lon="9.4940995"><ele>155.66666666666669</ele><time>2026-04-05T09:34:32.73Z</time></trkpt><trkpt lat="45.6422924" lon="9.4941143"><ele>155.0</ele><time>2026-04-05T09:34:33.729Z</time></trkpt><trkpt lat="45.6423736" lon="9.4941291"><ele>154.33333333333334</ele><time>2026-04-05T09:34:34.73Z</time></trkpt><trkpt lat="45.6424938" lon="9.4941586"><ele>153.66666666666666</ele><time>2026-04-05T09:34:36.73Z</time></trkpt><trkpt lat="45.6425633" lon="9.4941651"><ele>153.0</ele><time>2026-04-05T09:34:37.73Z</time></trkpt><trkpt lat="45.64263" lon="9.4941824"><ele>153.0</ele><time>2026-04-05T09:34:38.73Z</time></trkpt><trkpt lat="45.6427001" lon="9.4941807"><ele>153.0</ele><time>2026-04-05T09:34:39.73Z</time></trkpt><trkpt lat="45.642844" lon="9.4941874"><ele>153.0</ele><time>2026-04-05T09:34:41.73Z</time></trkpt><trkpt lat="45.6429823" lon="9.4941885"><ele>153.0</ele><time>2026-04-05T09:34:43.73Z</time></trkpt><trkpt lat="45.6430521" lon="9.494185"><ele>153.0</ele><time>2026-04-05T09:34:44.73Z</time></trkpt><trkpt lat="45.6431305" lon="9.4941749"><ele>153.14285714285714</ele><time>2026-04-05T09:34:45.729Z</time></trkpt><trkpt lat="45.6431998" lon="9.4941765"><ele>153.28571428571428</ele><time>2026-04-05T09:34:46.73Z</time></trkpt><trkpt lat="45.6432635" lon="9.4941759"><ele>153.42857142857144</ele><time>2026-04-05T09:34:47.73Z</time></trkpt><trkpt lat="45.6433307" lon="9.4941743"><ele>153.57142857142856</ele><time>2026-04-05T09:34:48.73Z</time></trkpt><trkpt lat="45.643398" lon="9.4941694"><ele>153.71428571428572</ele><time>2026-04-05T09:34:49.73Z</time></trkpt><trkpt lat="45.6434678" lon="9.4941645"><ele>153.85714285714286</ele><time>2026-04-05T09:34:50.73Z</time></trkpt><trkpt lat="45.6435476" lon="9.494177"><ele>154.0</ele><time>2026-04-05T09:34:51.73Z</time></trkpt><trkpt lat="45.6436788" lon="9.4941689"><ele>154.33333333333334</ele><time>2026-04-05T09:34:53.73Z</time></trkpt><trkpt lat="45.6437612" lon="9.4941662"><ele>154.66666666666669</ele><time>2026-04-05T09:34:54.73Z</time></trkpt><trkpt lat="45.6438946" lon="9.4941576"><ele>155.0</ele><time>2026-04-05T09:34:56.73Z</time></trkpt><trkpt lat="45.6439696" lon="9.4941602"><ele>155.33333333333334</ele><time>2026-04-05T09:34:57.729Z</time></trkpt><trkpt lat="45.6440382" lon="9.4941594"><ele>155.66666666666666</ele><time>2026-04-05T09:34:58.73Z</time></trkpt><trkpt lat="45.64411" lon="9.4941614"><ele>156.0</ele><time>2026-04-05T09:34:59.73Z</time></trkpt><trkpt lat="45.6441773" lon="9.4941528"><ele>156.0</ele><time>2026-04-05T09:35:00.73Z</time></trkpt><trkpt lat="45.6442699" lon="9.4941562"><ele>156.0</ele><time>2026-04-05T09:35:01.729Z</time></trkpt><trkpt lat="45.6443798" lon="9.4941538"><ele>156.0</ele><time>2026-04-05T09:35:03.73Z</time></trkpt><trkpt lat="45.6444569" lon="9.4941633"><ele>156.0</ele><time>2026-04-05T09:35:04.73Z</time></trkpt><trkpt lat="45.644536" lon="9.4941515"><ele>156.0</ele><time>2026-04-05T09:35:05.729Z</time></trkpt><trkpt lat="45.6446111" lon="9.4941457"><ele>156.0</ele><time>2026-04-05T09:35:06.73Z</time></trkpt><trkpt lat="45.6446787" lon="9.4941375"><ele>156.16666666666666</ele><time>2026-04-05T09:35:07.73Z</time></trkpt><trkpt lat="45.6447661" lon="9.4941668"><ele>156.33333333333334</ele><time>2026-04-05T09:35:08.73Z</time></trkpt><trkpt lat="45.6448378" lon="9.4941752"><ele>156.5</ele><time>2026-04-05T09:35:09.729Z</time></trkpt><trkpt lat="45.6449143" lon="9.494183"><ele>156.66666666666669</ele><time>2026-04-05T09:35:10.729Z</time></trkpt><trkpt lat="45.6449921" lon="9.4941753"><ele>156.83333333333334</ele><time>2026-04-05T09:35:11.73Z</time></trkpt><trkpt lat="45.6450631" lon="9.4941773"><ele>157.0</ele><time>2026-04-05T09:35:12.73Z</time></trkpt><trkpt lat="45.645149" lon="9.4941794"><ele>157.0</ele><time>2026-04-05T09:35:13.73Z</time></trkpt><trkpt lat="45.6452136" lon="9.4941711"><ele>157.0</ele><time>2026-04-05T09:35:14.73Z</time></trkpt><trkpt lat="45.6452842" lon="9.494161"><ele>157.0</ele><time>2026-04-05T09:35:15.729Z</time></trkpt><trkpt lat="45.6453599" lon="9.4941622"><ele>157.0</ele><time>2026-04-05T09:35:16.73Z</time></trkpt><trkpt lat="45.6454344" lon="9.4941606"><ele>157.0</ele><time>2026-04-05T09:35:17.73Z</time></trkpt><trkpt lat="45.6455534" lon="9.4941628"><ele>157.0</ele><time>2026-04-05T09:35:19.729Z</time></trkpt><trkpt lat="45.6456206" lon="9.4941618"><ele>157.66666666666669</ele><time>2026-04-05T09:35:20.729Z</time></trkpt><trkpt lat="45.6456908" lon="9.4941719"><ele>158.33333333333334</ele><time>2026-04-05T09:35:21.73Z</time></trkpt><trkpt lat="45.6457703" lon="9.4941736"><ele>159.0</ele><time>2026-04-05T09:35:22.73Z</time></trkpt><trkpt lat="45.6458372" lon="9.4941762"><ele>159.66666666666666</ele><time>2026-04-05T09:35:23.73Z</time></trkpt><trkpt lat="45.6459109" lon="9.4941631"><ele>160.33333333333331</ele><time>2026-04-05T09:35:24.729Z</time></trkpt><trkpt lat="45.6459914" lon="9.4941648"><ele>161.0</ele><time>2026-04-05T09:35:25.73Z</time></trkpt><trkpt lat="45.6460751" lon="9.4941567"><ele>161.0</ele><time>2026-04-05T09:35:26.73Z</time></trkpt><trkpt lat="45.6461441" lon="9.4941484"><ele>161.0</ele><time>2026-04-05T09:35:27.73Z</time></trkpt><trkpt lat="45.6462176" lon="9.4941325"><ele>161.0</ele><time>2026-04-05T09:35:28.73Z</time></trkpt><trkpt lat="45.6462891" lon="9.4941176"><ele>161.0</ele><time>2026-04-05T09:35:29.73Z</time></trkpt><trkpt lat="45.6463656" lon="9.4941131"><ele>161.0</ele><time>2026-04-05T09:35:30.73Z</time></trkpt><trkpt lat="45.6464443" lon="9.494136"><ele>161.0</ele><time>2026-04-05T09:35:31.73Z</time></trkpt><trkpt lat="45.6465137" lon="9.4941439"><ele>161.0</ele><time>2026-04-05T09:35:32.73Z</time></trkpt><trkpt lat="45.6465838" lon="9.4941083"><ele>161.0</ele><time>2026-04-05T09:35:33.73Z</time></trkpt><trkpt lat="45.6466521" lon="9.4941303"><ele>161.0</ele><time>2026-04-05T09:35:34.73Z</time></trkpt><trkpt lat="45.646714" lon="9.4941045"><ele>161.0</ele><time>2026-04-05T09:35:35.73Z</time></trkpt><trkpt lat="45.6467796" lon="9.4941145"><ele>161.0</ele><time>2026-04-05T09:35:36.729Z</time></trkpt><trkpt lat="45.646854" lon="9.4941178"><ele>161.0</ele><time>2026-04-05T09:35:37.73Z</time></trkpt><trkpt lat="45.6469206" lon="9.4941269"><ele>161.0</ele><time>2026-04-05T09:35:38.729Z</time></trkpt><trkpt lat="45.6469926" lon="9.4941346"><ele>161.0</ele><time>2026-04-05T09:35:39.73Z</time></trkpt><trkpt lat="45.6470522" lon="9.4940697"><ele>160.0</ele><time>2026-04-05T09:35:40.73Z</time></trkpt><trkpt lat="45.6471404" lon="9.4940247"><ele>159.0</ele><time>2026-04-05T09:35:41.73Z</time></trkpt><trkpt lat="45.647208" lon="9.4939675"><ele>158.0</ele><time>2026-04-05T09:35:42.73Z</time></trkpt><trkpt lat="45.6472878" lon="9.4939516"><ele>157.0</ele><time>2026-04-05T09:35:43.73Z</time></trkpt><trkpt lat="45.6473479" lon="9.4939071"><ele>156.0</ele><time>2026-04-05T09:35:44.73Z</time></trkpt><trkpt lat="45.6474012" lon="9.4938488"><ele>155.0</ele><time>2026-04-05T09:35:45.73Z</time></trkpt><trkpt lat="45.6474687" lon="9.4937979"><ele>154.4</ele><time>2026-04-05T09:35:46.73Z</time></trkpt><trkpt lat="45.6475853" lon="9.4936951"><ele>153.8</ele><time>2026-04-05T09:35:48.73Z</time></trkpt><trkpt lat="45.6476872" lon="9.4936198"><ele>153.2</ele><time>2026-04-05T09:35:50.729Z</time></trkpt><trkpt lat="45.6477481" lon="9.4935646"><ele>152.6</ele><time>2026-04-05T09:35:51.73Z</time></trkpt><trkpt lat="45.6478005" lon="9.4935142"><ele>152.0</ele><time>2026-04-05T09:35:52.73Z</time></trkpt><trkpt lat="45.6478523" lon="9.4934529"><ele>152.0</ele><time>2026-04-05T09:35:53.729Z</time></trkpt><trkpt lat="45.6479111" lon="9.493375"><ele>152.0</ele><time>2026-04-05T09:35:54.73Z</time></trkpt><trkpt lat="45.6479682" lon="9.493298"><ele>152.0</ele><time>2026-04-05T09:35:55.73Z</time></trkpt><trkpt lat="45.6480101" lon="9.493205"><ele>152.0</ele><time>2026-04-05T09:35:56.73Z</time></trkpt><trkpt lat="45.6480881" lon="9.493056"><ele>152.0</ele><time>2026-04-05T09:35:58.73Z</time></trkpt><trkpt lat="45.6481238" lon="9.4929785"><ele>152.0</ele><time>2026-04-05T09:35:59.73Z</time></trkpt><trkpt lat="45.6481599" lon="9.4928971"><ele>152.4</ele><time>2026-04-05T09:36:00.73Z</time></trkpt><trkpt lat="45.6482007" lon="9.4928106"><ele>152.79999999999998</ele><time>2026-04-05T09:36:01.729Z</time></trkpt><trkpt lat="45.6482545" lon="9.4926231"><ele>153.2</ele><time>2026-04-05T09:36:03.73Z</time></trkpt><trkpt lat="45.6482907" lon="9.4925144"><ele>153.6</ele><time>2026-04-05T09:36:05.73Z</time></trkpt><trkpt lat="45.6483144" lon="9.4924117"><ele>154.0</ele><time>2026-04-05T09:36:07.73Z</time></trkpt><trkpt lat="45.6483352" lon="9.4922582"><ele>154.0</ele><time>2026-04-05T09:36:09.729Z</time></trkpt><trkpt lat="45.6483678" lon="9.4921088"><ele>154.0</ele><time>2026-04-05T09:36:11.73Z</time></trkpt><trkpt lat="45.6483999" lon="9.4920255"><ele>154.0</ele><time>2026-04-05T09:36:12.729Z</time></trkpt><trkpt lat="45.648432" lon="9.491889"><ele>154.0</ele><time>2026-04-05T09:36:14.73Z</time></trkpt><trkpt lat="45.6484781" lon="9.491729"><ele>154.0</ele><time>2026-04-05T09:36:16.73Z</time></trkpt><trkpt lat="45.6485466" lon="9.4915655"><ele>154.0</ele><time>2026-04-05T09:36:18.73Z</time></trkpt><trkpt lat="45.64858" lon="9.4914856"><ele>154.0</ele><time>2026-04-05T09:36:19.729Z</time></trkpt><trkpt lat="45.6486168" lon="9.4914115"><ele>154.0</ele><time>2026-04-05T09:36:20.73Z</time></trkpt><trkpt lat="45.6486478" lon="9.4913226"><ele>154.0</ele><time>2026-04-05T09:36:21.729Z</time></trkpt><trkpt lat="45.6486746" lon="9.4911462"><ele>154.0</ele><time>2026-04-05T09:36:23.73Z</time></trkpt><trkpt lat="45.6486984" lon="9.4910402"><ele>154.0</ele><time>2026-04-05T09:36:24.729Z</time></trkpt><trkpt lat="45.6487649" lon="9.4908909"><ele>153.75</ele><time>2026-04-05T09:36:26.729Z</time></trkpt><trkpt lat="45.6487953" lon="9.4907233"><ele>153.5</ele><time>2026-04-05T09:36:28.73Z</time></trkpt><trkpt lat="45.6488373" lon="9.4905312"><ele>153.25</ele><time>2026-04-05T09:36:30.73Z</time></trkpt><trkpt lat="45.648882" lon="9.4904388"><ele>153.0</ele><time>2026-04-05T09:36:31.729Z</time></trkpt><trkpt lat="45.6489736" lon="9.4902935"><ele>153.6</ele><time>2026-04-05T09:36:33.73Z</time></trkpt><trkpt lat="45.6490171" lon="9.4902261"><ele>154.20000000000002</ele><time>2026-04-05T09:36:34.73Z</time></trkpt><trkpt lat="45.6490601" lon="9.4901489"><ele>154.8</ele><time>2026-04-05T09:36:35.73Z</time></trkpt><trkpt lat="45.6491446" lon="9.4900307"><ele>155.4</ele><time>2026-04-05T09:36:37.73Z</time></trkpt><trkpt lat="45.6492252" lon="9.4898937"><ele>156.0</ele><time>2026-04-05T09:36:39.73Z</time></trkpt><trkpt lat="45.6493125" lon="9.4897567"><ele>156.0</ele><time>2026-04-05T09:36:41.73Z</time></trkpt><trkpt lat="45.6493482" lon="9.4896761"><ele>156.0</ele><time>2026-04-05T09:36:42.73Z</time></trkpt><trkpt lat="45.6493944" lon="9.4895146"><ele>156.0</ele><time>2026-04-05T09:36:44.73Z</time></trkpt><trkpt lat="45.6494452" lon="9.489365"><ele>156.0</ele><time>2026-04-05T09:36:46.729Z</time></trkpt><trkpt lat="45.6495157" lon="9.4891963"><ele>156.0</ele><time>2026-04-05T09:36:48.73Z</time></trkpt><trkpt lat="45.6495478" lon="9.4890765"><ele>155.6</ele><time>2026-04-05T09:36:49.73Z</time></trkpt><trkpt lat="45.6495942" lon="9.4889483"><ele>155.2</ele><time>2026-04-05T09:36:51.729Z</time></trkpt><trkpt lat="45.6496574" lon="9.4887737"><ele>154.8</ele><time>2026-04-05T09:36:53.729Z</time></trkpt><trkpt lat="45.6496793" lon="9.4886692"><ele>154.4</ele><time>2026-04-05T09:36:54.73Z</time></trkpt><trkpt lat="45.6497363" lon="9.4885873"><ele>154.0</ele><time>2026-04-05T09:36:55.73Z</time></trkpt><trkpt lat="45.6497946" lon="9.4884322"><ele>153.85714285714286</ele><time>2026-04-05T09:36:56.73Z</time></trkpt><trkpt lat="45.6498488" lon="9.4883232"><ele>153.71428571428572</ele><time>2026-04-05T09:36:57.73Z</time></trkpt><trkpt lat="45.6498765" lon="9.4882274"><ele>153.57142857142856</ele><time>2026-04-05T09:36:58.73Z</time></trkpt><trkpt lat="45.6499039" lon="9.4881246"><ele>153.42857142857144</ele><time>2026-04-05T09:36:59.73Z</time></trkpt><trkpt lat="45.6499228" lon="9.4880327"><ele>153.28571428571428</ele><time>2026-04-05T09:37:00.729Z</time></trkpt><trkpt lat="45.6499442" lon="9.4879421"><ele>153.14285714285714</ele><time>2026-04-05T09:37:01.73Z</time></trkpt><trkpt lat="45.6499779" lon="9.4878605"><ele>153.0</ele><time>2026-04-05T09:37:02.73Z</time></trkpt><trkpt lat="45.6500233" lon="9.4877196"><ele>152.8</ele><time>2026-04-05T09:37:03.73Z</time></trkpt><trkpt lat="45.6500283" lon="9.4876208"><ele>152.60000000000002</ele><time>2026-04-05T09:37:04.73Z</time></trkpt><trkpt lat="45.6501161" lon="9.4874341"><ele>152.39999999999998</ele><time>2026-04-05T09:37:06.729Z</time></trkpt><trkpt lat="45.6501797" lon="9.4873262"><ele>152.2</ele><time>2026-04-05T09:37:08.73Z</time></trkpt><trkpt lat="45.6502303" lon="9.4872684"><ele>152.0</ele><time>2026-04-05T09:37:09.73Z</time></trkpt><trkpt lat="45.6502974" lon="9.4871533"><ele>151.79999999999998</ele><time>2026-04-05T09:37:11.73Z</time></trkpt><trkpt lat="45.6503608" lon="9.4870027"><ele>151.6</ele><time>2026-04-05T09:37:13.729Z</time></trkpt><trkpt lat="45.6503959" lon="9.4868464"><ele>151.39999999999998</ele><time>2026-04-05T09:37:15.729Z</time></trkpt><trkpt lat="45.6504297" lon="9.4867119"><ele>151.2</ele><time>2026-04-05T09:37:17.73Z</time></trkpt><trkpt lat="45.6504693" lon="9.4865636"><ele>151.0</ele><time>2026-04-05T09:37:19.729Z</time></trkpt><trkpt lat="45.6504881" lon="9.4864018"><ele>151.0</ele><time>2026-04-05T09:37:21.73Z</time></trkpt><trkpt lat="45.6504728" lon="9.4862968"><ele>151.0</ele><time>2026-04-05T09:37:22.73Z</time></trkpt><trkpt lat="45.6504751" lon="9.4862031"><ele>151.0</ele><time>2026-04-05T09:37:23.729Z</time></trkpt><trkpt lat="45.650479" lon="9.4860839"><ele>151.0</ele><time>2026-04-05T09:37:26.73Z</time></trkpt><trkpt lat="45.6504991" lon="9.4859618"><ele>151.0</ele><time>2026-04-05T09:37:35.73Z</time></trkpt><trkpt lat="45.6504322" lon="9.4859579"><ele>151.0</ele><time>2026-04-05T09:37:45.729Z</time></trkpt><trkpt lat="45.6503735" lon="9.4860342"><ele>152.2857142857143</ele><time>2026-04-05T09:37:52.73Z</time></trkpt><trkpt lat="45.6503207" lon="9.4860865"><ele>153.57142857142858</ele><time>2026-04-05T09:37:57.73Z</time></trkpt><trkpt lat="45.6502454" lon="9.4861092"><ele>154.85714285714286</ele><time>2026-04-05T09:38:01.73Z</time></trkpt><trkpt lat="45.6501803" lon="9.4861228"><ele>156.14285714285717</ele><time>2026-04-05T09:38:04.73Z</time></trkpt><trkpt lat="45.6501073" lon="9.4861087"><ele>157.42857142857144</ele><time>2026-04-05T09:38:09.73Z</time></trkpt><trkpt lat="45.6500215" lon="9.4860676"><ele>158.71428571428572</ele><time>2026-04-05T09:38:14.73Z</time></trkpt><trkpt lat="45.649955" lon="9.4860777"><ele>160.0</ele><time>2026-04-05T09:38:18.73Z</time></trkpt><trkpt lat="45.6498838" lon="9.4860945"><ele>161.28571428571428</ele><time>2026-04-05T09:38:23.729Z</time></trkpt><trkpt lat="45.6498128" lon="9.4861347"><ele>162.57142857142858</ele><time>2026-04-05T09:38:27.729Z</time></trkpt><trkpt lat="45.6497503" lon="9.4861725"><ele>163.85714285714286</ele><time>2026-04-05T09:38:33.73Z</time></trkpt><trkpt lat="45.6496888" lon="9.4862123"><ele>165.14285714285714</ele><time>2026-04-05T09:38:38.73Z</time></trkpt><trkpt lat="45.6496348" lon="9.4862782"><ele>166.42857142857142</ele><time>2026-04-05T09:38:48.729Z</time></trkpt><trkpt lat="45.649565" lon="9.4863367"><ele>167.71428571428572</ele><time>2026-04-05T09:38:53.73Z</time></trkpt><trkpt lat="45.6495013" lon="9.4863456"><ele>169.0</ele><time>2026-04-05T09:38:57.73Z</time></trkpt><trkpt lat="45.6494541" lon="9.4864324"><ele>171.71428571428572</ele><time>2026-04-05T09:39:03.73Z</time></trkpt><trkpt lat="45.6493912" lon="9.4864977"><ele>174.42857142857142</ele><time>2026-04-05T09:39:11.73Z</time></trkpt><trkpt lat="45.6493131" lon="9.4865338"><ele>177.14285714285714</ele><time>2026-04-05T09:39:14.73Z</time></trkpt><trkpt lat="45.6492482" lon="9.4865776"><ele>179.85714285714286</ele><time>2026-04-05T09:39:17.73Z</time></trkpt><trkpt lat="45.6491893" lon="9.486617"><ele>182.57142857142856</ele><time>2026-04-05T09:39:21.73Z</time></trkpt><trkpt lat="45.6491217" lon="9.4866608"><ele>185.28571428571428</ele><time>2026-04-05T09:39:25.73Z</time></trkpt><trkpt lat="45.6490446" lon="9.4866648"><ele>188.0</ele><time>2026-04-05T09:39:30.729Z</time></trkpt><trkpt lat="45.6489724" lon="9.4866546"><ele>188.0</ele><time>2026-04-05T09:39:36.73Z</time></trkpt><trkpt lat="45.6489066" lon="9.486632"><ele>188.0</ele><time>2026-04-05T09:39:40.73Z</time></trkpt><trkpt lat="45.6488381" lon="9.4866037"><ele>188.0</ele><time>2026-04-05T09:39:44.73Z</time></trkpt><trkpt lat="45.6488487" lon="9.4865018"><ele>188.0</ele><time>2026-04-05T09:40:05.73Z</time></trkpt><trkpt lat="45.6489032" lon="9.4864293"><ele>188.0</ele><time>2026-04-05T09:40:09.73Z</time></trkpt><trkpt lat="45.6489859" lon="9.4863627"><ele>188.0</ele><time>2026-04-05T09:40:15.73Z</time></trkpt><trkpt lat="45.6490402" lon="9.4863163"><ele>188.0</ele><time>2026-04-05T09:40:18.729Z</time></trkpt><trkpt lat="45.6490739" lon="9.4862267"><ele>190.42857142857142</ele><time>2026-04-05T09:40:23.73Z</time></trkpt><trkpt lat="45.6491116" lon="9.4861435"><ele>192.85714285714283</ele><time>2026-04-05T09:40:29.73Z</time></trkpt><trkpt lat="45.6490615" lon="9.4860856"><ele>195.28571428571428</ele><time>2026-04-05T09:40:33.729Z</time></trkpt><trkpt lat="45.6490289" lon="9.4859848"><ele>197.71428571428572</ele><time>2026-04-05T09:40:38.729Z</time></trkpt><trkpt lat="45.6489945" lon="9.4858945"><ele>200.14285714285714</ele><time>2026-04-05T09:40:43.73Z</time></trkpt><trkpt lat="45.6489515" lon="9.4858261"><ele>202.57142857142858</ele><time>2026-04-05T09:40:48.73Z</time></trkpt><trkpt lat="45.6489504" lon="9.4857314"><ele>205.0</ele><time>2026-04-05T09:40:53.729Z</time></trkpt><trkpt lat="45.6489174" lon="9.4856187"><ele>205.0</ele><time>2026-04-05T09:40:57.729Z</time></trkpt><trkpt lat="45.6488816" lon="9.4855146"><ele>205.0</ele><time>2026-04-05T09:41:00.729Z</time></trkpt><trkpt lat="45.6488215" lon="9.4854389"><ele>205.0</ele><time>2026-04-05T09:41:03.73Z</time></trkpt><trkpt lat="45.6487508" lon="9.485402"><ele>205.0</ele><time>2026-04-05T09:41:06.729Z</time></trkpt><trkpt lat="45.6486847" lon="9.4854014"><ele>205.0</ele><time>2026-04-05T09:41:09.73Z</time></trkpt><trkpt lat="45.6486222" lon="9.4854379"><ele>205.0</ele><time>2026-04-05T09:41:12.729Z</time></trkpt><trkpt lat="45.6485612" lon="9.48548"><ele>205.0</ele><time>2026-04-05T09:41:15.729Z</time></trkpt><trkpt lat="45.6484907" lon="9.4855289"><ele>205.85714285714286</ele><time>2026-04-05T09:41:19.73Z</time></trkpt><trkpt lat="45.6484239" lon="9.4855795"><ele>206.7142857142857</ele><time>2026-04-05T09:41:24.73Z</time></trkpt><trkpt lat="45.648359" lon="9.4855287"><ele>207.57142857142856</ele><time>2026-04-05T09:41:28.73Z</time></trkpt><trkpt lat="45.6483082" lon="9.4854712"><ele>208.42857142857144</ele><time>2026-04-05T09:41:32.729Z</time></trkpt><trkpt lat="45.6482585" lon="9.4854064"><ele>209.28571428571428</ele><time>2026-04-05T09:41:37.73Z</time></trkpt><trkpt lat="45.6482346" lon="9.4853205"><ele>210.14285714285714</ele><time>2026-04-05T09:41:39.729Z</time></trkpt><trkpt lat="45.6482038" lon="9.4852074"><ele>211.0</ele><time>2026-04-05T09:41:42.73Z</time></trkpt><trkpt lat="45.6481704" lon="9.4851087"><ele>212.0</ele><time>2026-04-05T09:41:45.729Z</time></trkpt><trkpt lat="45.6481381" lon="9.4850076"><ele>213.0</ele><time>2026-04-05T09:41:48.73Z</time></trkpt><trkpt lat="45.6481089" lon="9.4849118"><ele>214.0</ele><time>2026-04-05T09:41:51.73Z</time></trkpt><trkpt lat="45.6481025" lon="9.4848221"><ele>215.0</ele><time>2026-04-05T09:41:54.73Z</time></trkpt><trkpt lat="45.6481485" lon="9.4847473"><ele>216.0</ele><time>2026-04-05T09:41:57.729Z</time></trkpt><trkpt lat="45.648198" lon="9.4846849"><ele>217.0</ele><time>2026-04-05T09:42:00.729Z</time></trkpt><trkpt lat="45.64826" lon="9.4846221"><ele>218.0</ele><time>2026-04-05T09:42:03.73Z</time></trkpt><trkpt lat="45.6483346" lon="9.484564"><ele>218.33333333333334</ele><time>2026-04-05T09:42:06.73Z</time></trkpt><trkpt lat="45.6484195" lon="9.4845068"><ele>218.66666666666669</ele><time>2026-04-05T09:42:09.729Z</time></trkpt><trkpt lat="45.6484886" lon="9.4844598"><ele>219.0</ele><time>2026-04-05T09:42:11.73Z</time></trkpt><trkpt lat="45.6485478" lon="9.4844146"><ele>219.33333333333331</ele><time>2026-04-05T09:42:13.73Z</time></trkpt><trkpt lat="45.6486124" lon="9.484367"><ele>219.66666666666666</ele><time>2026-04-05T09:42:15.73Z</time></trkpt><trkpt lat="45.6486761" lon="9.4843283"><ele>220.0</ele><time>2026-04-05T09:42:17.73Z</time></trkpt><trkpt lat="45.648741" lon="9.4842823"><ele>219.99999999999997</ele><time>2026-04-05T09:42:19.729Z</time></trkpt><trkpt lat="45.6487986" lon="9.4842325"><ele>220.0</ele><time>2026-04-05T09:42:21.73Z</time></trkpt><trkpt lat="45.648859" lon="9.4841766"><ele>220.0</ele><time>2026-04-05T09:42:23.73Z</time></trkpt><trkpt lat="45.6489232" lon="9.4841194"><ele>220.0</ele><time>2026-04-05T09:42:25.73Z</time></trkpt><trkpt lat="45.6490029" lon="9.4840639"><ele>219.99999999999997</ele><time>2026-04-05T09:42:27.73Z</time></trkpt><trkpt lat="45.6490866" lon="9.4840204"><ele>220.0</ele><time>2026-04-05T09:42:29.73Z</time></trkpt><trkpt lat="45.649161" lon="9.4839673"><ele>220.0</ele><time>2026-04-05T09:42:31.73Z</time></trkpt><trkpt lat="45.6492403" lon="9.4839099"><ele>220.0</ele><time>2026-04-05T09:42:33.73Z</time></trkpt><trkpt lat="45.6493251" lon="9.4838491"><ele>220.0</ele><time>2026-04-05T09:42:35.73Z</time></trkpt><trkpt lat="45.6494022" lon="9.4838008"><ele>220.0</ele><time>2026-04-05T09:42:37.73Z</time></trkpt><trkpt lat="45.6494853" lon="9.483749"><ele>220.0</ele><time>2026-04-05T09:42:39.73Z</time></trkpt><trkpt lat="45.6495956" lon="9.4836892"><ele>220.0</ele><time>2026-04-05T09:42:41.73Z</time></trkpt><trkpt lat="45.6497127" lon="9.4836297"><ele>220.0</ele><time>2026-04-05T09:42:43.73Z</time></trkpt><trkpt lat="45.6497741" lon="9.4836015"><ele>220.0</ele><time>2026-04-05T09:42:44.73Z</time></trkpt><trkpt lat="45.6498818" lon="9.4835456"><ele>220.0</ele><time>2026-04-05T09:42:46.73Z</time></trkpt><trkpt lat="45.6499887" lon="9.4834858"><ele>220.0</ele><time>2026-04-05T09:42:48.73Z</time></trkpt><trkpt lat="45.6500979" lon="9.4834271"><ele>220.0</ele><time>2026-04-05T09:42:50.73Z</time></trkpt><trkpt lat="45.6501981" lon="9.4833641"><ele>220.0</ele><time>2026-04-05T09:42:52.73Z</time></trkpt><trkpt lat="45.650302" lon="9.4833049"><ele>220.0</ele><time>2026-04-05T09:42:54.73Z</time></trkpt><trkpt lat="45.6503941" lon="9.483238"><ele>220.0</ele><time>2026-04-05T09:42:56.73Z</time></trkpt><trkpt lat="45.6504886" lon="9.4831709"><ele>220.0</ele><time>2026-04-05T09:42:58.73Z</time></trkpt><trkpt lat="45.6505754" lon="9.483106"><ele>219.4</ele><time>2026-04-05T09:43:00.73Z</time></trkpt><trkpt lat="45.6506544" lon="9.4830313"><ele>218.8</ele><time>2026-04-05T09:43:02.73Z</time></trkpt><trkpt lat="45.6507468" lon="9.4829532"><ele>218.2</ele><time>2026-04-05T09:43:04.73Z</time></trkpt><trkpt lat="45.650843" lon="9.4828846"><ele>217.6</ele><time>2026-04-05T09:43:06.73Z</time></trkpt><trkpt lat="45.6509367" lon="9.4828129"><ele>217.0</ele><time>2026-04-05T09:43:08.73Z</time></trkpt><trkpt lat="45.6510319" lon="9.4827406"><ele>218.39999999999998</ele><time>2026-04-05T09:43:10.73Z</time></trkpt><trkpt lat="45.651128" lon="9.4826626"><ele>219.79999999999998</ele><time>2026-04-05T09:43:12.729Z</time></trkpt><trkpt lat="45.6512204" lon="9.4825766"><ele>221.2</ele><time>2026-04-05T09:43:14.729Z</time></trkpt><trkpt lat="45.6513017" lon="9.4824842"><ele>222.6</ele><time>2026-04-05T09:43:16.73Z</time></trkpt><trkpt lat="45.6513984" lon="9.4823836"><ele>224.0</ele><time>2026-04-05T09:43:18.729Z</time></trkpt><trkpt lat="45.6514928" lon="9.4822732"><ele>224.0</ele><time>2026-04-05T09:43:20.73Z</time></trkpt><trkpt lat="45.65159" lon="9.4821741"><ele>224.0</ele><time>2026-04-05T09:43:22.73Z</time></trkpt><trkpt lat="45.6517506" lon="9.4820435"><ele>224.0</ele><time>2026-04-05T09:43:24.729Z</time></trkpt><trkpt lat="45.6518477" lon="9.4819643"><ele>224.0</ele><time>2026-04-05T09:43:26.729Z</time></trkpt><trkpt lat="45.6519403" lon="9.4818899"><ele>224.50000000000003</ele><time>2026-04-05T09:43:28.73Z</time></trkpt><trkpt lat="45.6520207" lon="9.4818452"><ele>225.0</ele><time>2026-04-05T09:43:30.73Z</time></trkpt><trkpt lat="45.6521165" lon="9.4817857"><ele>225.5</ele><time>2026-04-05T09:43:32.73Z</time></trkpt><trkpt lat="45.6521848" lon="9.4817661"><ele>226.0</ele><time>2026-04-05T09:43:33.729Z</time></trkpt><trkpt lat="45.6522819" lon="9.4817459"><ele>226.50000000000003</ele><time>2026-04-05T09:43:35.73Z</time></trkpt><trkpt lat="45.6523707" lon="9.48173"><ele>227.0</ele><time>2026-04-05T09:43:37.729Z</time></trkpt><trkpt lat="45.6524797" lon="9.4817056"><ele>227.0</ele><time>2026-04-05T09:43:39.73Z</time></trkpt><trkpt lat="45.6525949" lon="9.4817122"><ele>227.0</ele><time>2026-04-05T09:43:41.73Z</time></trkpt><trkpt lat="45.6526938" lon="9.4817189"><ele>227.0</ele><time>2026-04-05T09:43:43.729Z</time></trkpt><trkpt lat="45.6527857" lon="9.4817137"><ele>227.0</ele><time>2026-04-05T09:43:45.73Z</time></trkpt><trkpt lat="45.6528802" lon="9.4817017"><ele>227.0</ele><time>2026-04-05T09:43:47.73Z</time></trkpt><trkpt lat="45.6529754" lon="9.4816756"><ele>226.50000000000003</ele><time>2026-04-05T09:43:49.73Z</time></trkpt><trkpt lat="45.653057" lon="9.4816641"><ele>226.0</ele><time>2026-04-05T09:43:51.73Z</time></trkpt><trkpt lat="45.6531297" lon="9.4816267"><ele>225.5</ele><time>2026-04-05T09:43:53.73Z</time></trkpt><trkpt lat="45.6532139" lon="9.4816019"><ele>225.0</ele><time>2026-04-05T09:43:55.73Z</time></trkpt><trkpt lat="45.653302" lon="9.4815847"><ele>224.50000000000003</ele><time>2026-04-05T09:43:57.729Z</time></trkpt><trkpt lat="45.6534029" lon="9.4815643"><ele>224.0</ele><time>2026-04-05T09:43:59.729Z</time></trkpt><trkpt lat="45.6535045" lon="9.4815438"><ele>224.0</ele><time>2026-04-05T09:44:01.73Z</time></trkpt><trkpt lat="45.6536105" lon="9.4815227"><ele>223.99999999999997</ele><time>2026-04-05T09:44:03.73Z</time></trkpt><trkpt lat="45.6537133" lon="9.4814903"><ele>223.99999999999997</ele><time>2026-04-05T09:44:05.73Z</time></trkpt><trkpt lat="45.6538155" lon="9.48146"><ele>224.0</ele><time>2026-04-05T09:44:07.73Z</time></trkpt><trkpt lat="45.6539142" lon="9.4814256"><ele>224.0</ele><time>2026-04-05T09:44:09.73Z</time></trkpt><trkpt lat="45.6540094" lon="9.4813737"><ele>223.79999999999998</ele><time>2026-04-05T09:44:11.73Z</time></trkpt><trkpt lat="45.6541047" lon="9.4813186"><ele>223.59999999999997</ele><time>2026-04-05T09:44:13.73Z</time></trkpt><trkpt lat="45.6542015" lon="9.4812614"><ele>223.4</ele><time>2026-04-05T09:44:15.73Z</time></trkpt><trkpt lat="45.6542899" lon="9.4812017"><ele>223.2</ele><time>2026-04-05T09:44:17.73Z</time></trkpt><trkpt lat="45.6543748" lon="9.4811391"><ele>223.0</ele><time>2026-04-05T09:44:19.73Z</time></trkpt><trkpt lat="45.6544607" lon="9.4810799"><ele>222.99999999999997</ele><time>2026-04-05T09:44:21.73Z</time></trkpt><trkpt lat="45.6545534" lon="9.4810138"><ele>223.0</ele><time>2026-04-05T09:44:23.73Z</time></trkpt><trkpt lat="45.6546372" lon="9.4809415"><ele>223.0</ele><time>2026-04-05T09:44:25.73Z</time></trkpt><trkpt lat="45.6547142" lon="9.4808924"><ele>223.0</ele><time>2026-04-05T09:44:27.73Z</time></trkpt><trkpt lat="45.6547854" lon="9.480879"><ele>222.99999999999997</ele><time>2026-04-05T09:44:29.73Z</time></trkpt><trkpt lat="45.6548683" lon="9.4808238"><ele>223.0</ele><time>2026-04-05T09:44:31.73Z</time></trkpt><trkpt lat="45.6549519" lon="9.4807815"><ele>223.0</ele><time>2026-04-05T09:44:33.73Z</time></trkpt><trkpt lat="45.6550167" lon="9.4807209"><ele>223.0</ele><time>2026-04-05T09:44:35.73Z</time></trkpt><trkpt lat="45.6550911" lon="9.4806401"><ele>223.0</ele><time>2026-04-05T09:44:37.73Z</time></trkpt><trkpt lat="45.6551719" lon="9.4805677"><ele>223.0</ele><time>2026-04-05T09:44:39.729Z</time></trkpt><trkpt lat="45.6552487" lon="9.4804562"><ele>223.0</ele><time>2026-04-05T09:44:41.73Z</time></trkpt><trkpt lat="45.6553383" lon="9.4803452"><ele>224.0</ele><time>2026-04-05T09:44:43.73Z</time></trkpt><trkpt lat="45.6554412" lon="9.4802649"><ele>225.0</ele><time>2026-04-05T09:44:45.73Z</time></trkpt><trkpt lat="45.6555485" lon="9.480189"><ele>226.0</ele><time>2026-04-05T09:44:47.73Z</time></trkpt><trkpt lat="45.6556556" lon="9.480126"><ele>227.0</ele><time>2026-04-05T09:44:49.73Z</time></trkpt><trkpt lat="45.6557699" lon="9.4800765"><ele>227.0</ele><time>2026-04-05T09:44:51.73Z</time></trkpt><trkpt lat="45.6558666" lon="9.4800127"><ele>227.0</ele><time>2026-04-05T09:44:53.73Z</time></trkpt><trkpt lat="45.6559509" lon="9.4799464"><ele>227.0</ele><time>2026-04-05T09:44:55.73Z</time></trkpt><trkpt lat="45.6560509" lon="9.4798758"><ele>227.0</ele><time>2026-04-05T09:44:57.73Z</time></trkpt><trkpt lat="45.6561582" lon="9.4797922"><ele>227.0</ele><time>2026-04-05T09:44:59.73Z</time></trkpt><trkpt lat="45.65626" lon="9.4797183"><ele>226.8</ele><time>2026-04-05T09:45:01.729Z</time></trkpt><trkpt lat="45.6563563" lon="9.4796593"><ele>226.6</ele><time>2026-04-05T09:45:03.73Z</time></trkpt><trkpt lat="45.656453" lon="9.4795823"><ele>226.40000000000003</ele><time>2026-04-05T09:45:05.73Z</time></trkpt><trkpt lat="45.6565337" lon="9.4795048"><ele>226.20000000000002</ele><time>2026-04-05T09:45:07.73Z</time></trkpt><trkpt lat="45.6565907" lon="9.4794283"><ele>226.0</ele><time>2026-04-05T09:45:09.729Z</time></trkpt><trkpt lat="45.6566517" lon="9.4793491"><ele>225.99999999999997</ele><time>2026-04-05T09:45:11.73Z</time></trkpt><trkpt lat="45.6567264" lon="9.4792814"><ele>226.0</ele><time>2026-04-05T09:45:13.729Z</time></trkpt><trkpt lat="45.6568063" lon="9.4792106"><ele>226.0</ele><time>2026-04-05T09:45:15.729Z</time></trkpt><trkpt lat="45.6569081" lon="9.4791368"><ele>226.0</ele><time>2026-04-05T09:45:17.73Z</time></trkpt><trkpt lat="45.656966" lon="9.4790969"><ele>225.99999999999997</ele><time>2026-04-05T09:45:18.73Z</time></trkpt><trkpt lat="45.6570301" lon="9.4790606"><ele>226.0</ele><time>2026-04-05T09:45:19.729Z</time></trkpt><trkpt lat="45.6571406" lon="9.4789988"><ele>227.0</ele><time>2026-04-05T09:45:21.729Z</time></trkpt><trkpt lat="45.6572426" lon="9.4789251"><ele>228.0</ele><time>2026-04-05T09:45:23.73Z</time></trkpt><trkpt lat="45.6573436" lon="9.4788397"><ele>229.0</ele><time>2026-04-05T09:45:25.73Z</time></trkpt><trkpt lat="45.6574334" lon="9.4787419"><ele>230.0</ele><time>2026-04-05T09:45:27.729Z</time></trkpt><trkpt lat="45.6575216" lon="9.4786485"><ele>230.0</ele><time>2026-04-05T09:45:29.729Z</time></trkpt><trkpt lat="45.6576287" lon="9.4785694"><ele>230.0</ele><time>2026-04-05T09:45:31.73Z</time></trkpt><trkpt lat="45.6577456" lon="9.4785118"><ele>230.0</ele><time>2026-04-05T09:45:33.729Z</time></trkpt><trkpt lat="45.6578559" lon="9.4784695"><ele>230.0</ele><time>2026-04-05T09:45:35.73Z</time></trkpt><trkpt lat="45.657972" lon="9.4784593"><ele>230.0</ele><time>2026-04-05T09:45:37.73Z</time></trkpt><trkpt lat="45.658085" lon="9.4784667"><ele>230.0</ele><time>2026-04-05T09:45:39.73Z</time></trkpt><trkpt lat="45.6581947" lon="9.4784535"><ele>230.0</ele><time>2026-04-05T09:45:41.729Z</time></trkpt><trkpt lat="45.6583042" lon="9.4784135"><ele>230.0</ele><time>2026-04-05T09:45:43.729Z</time></trkpt><trkpt lat="45.6584154" lon="9.4783461"><ele>230.00000000000003</ele><time>2026-04-05T09:45:45.729Z</time></trkpt><trkpt lat="45.6584762" lon="9.4783043"><ele>230.0</ele><time>2026-04-05T09:45:46.729Z</time></trkpt><trkpt lat="45.6585366" lon="9.4782732"><ele>230.0</ele><time>2026-04-05T09:45:47.73Z</time></trkpt><trkpt lat="45.6586414" lon="9.4782647"><ele>230.0</ele><time>2026-04-05T09:45:48.73Z</time></trkpt><trkpt lat="45.6587227" lon="9.4783161"><ele>230.00000000000003</ele><time>2026-04-05T09:45:50.73Z</time></trkpt><trkpt lat="45.6588071" lon="9.4783686"><ele>230.0</ele><time>2026-04-05T09:45:52.73Z</time></trkpt><trkpt lat="45.6588889" lon="9.4784325"><ele>229.75</ele><time>2026-04-05T09:45:54.73Z</time></trkpt><trkpt lat="45.6590632" lon="9.4784414"><ele>229.5</ele><time>2026-04-05T09:45:58.729Z</time></trkpt><trkpt lat="45.659141" lon="9.4784049"><ele>229.25</ele><time>2026-04-05T09:46:00.73Z</time></trkpt><trkpt lat="45.659238" lon="9.4783749"><ele>229.0</ele><time>2026-04-05T09:46:02.73Z</time></trkpt><trkpt lat="45.6593255" lon="9.4783238"><ele>229.0</ele><time>2026-04-05T09:46:04.73Z</time></trkpt><trkpt lat="45.6594246" lon="9.4782967"><ele>229.0</ele><time>2026-04-05T09:46:06.729Z</time></trkpt><trkpt lat="45.6595236" lon="9.4782469"><ele>229.0</ele><time>2026-04-05T09:46:08.73Z</time></trkpt><trkpt lat="45.6596412" lon="9.4782023"><ele>229.0</ele><time>2026-04-05T09:46:10.73Z</time></trkpt><trkpt lat="45.6597639" lon="9.4781714"><ele>229.49999999999997</ele><time>2026-04-05T09:46:12.73Z</time></trkpt><trkpt lat="45.6598677" lon="9.478126"><ele>230.0</ele><time>2026-04-05T09:46:14.73Z</time></trkpt><trkpt lat="45.6599197" lon="9.4780718"><ele>230.5</ele><time>2026-04-05T09:46:15.73Z</time></trkpt><trkpt lat="45.6599778" lon="9.4780329"><ele>231.0</ele><time>2026-04-05T09:46:16.73Z</time></trkpt><trkpt lat="45.6600394" lon="9.4780001"><ele>231.49999999999997</ele><time>2026-04-05T09:46:17.73Z</time></trkpt><trkpt lat="45.660135" lon="9.4779253"><ele>232.0</ele><time>2026-04-05T09:46:19.73Z</time></trkpt><trkpt lat="45.6602416" lon="9.4778552"><ele>232.49999999999997</ele><time>2026-04-05T09:46:21.73Z</time></trkpt><trkpt lat="45.6603399" lon="9.4777947"><ele>233.0</ele><time>2026-04-05T09:46:23.73Z</time></trkpt><trkpt lat="45.6604074" lon="9.477762"><ele>233.5</ele><time>2026-04-05T09:46:25.729Z</time></trkpt><trkpt lat="45.6604663" lon="9.4777301"><ele>234.0</ele><time>2026-04-05T09:46:27.729Z</time></trkpt><trkpt lat="45.6605321" lon="9.4776755"><ele>234.49999999999997</ele><time>2026-04-05T09:46:29.73Z</time></trkpt><trkpt lat="45.6605893" lon="9.4776177"><ele>235.0</ele><time>2026-04-05T09:46:32.73Z</time></trkpt><trkpt lat="45.6606495" lon="9.4775286"><ele>235.0</ele><time>2026-04-05T09:46:35.73Z</time></trkpt><trkpt lat="45.6607404" lon="9.4774951"><ele>235.0</ele><time>2026-04-05T09:46:37.73Z</time></trkpt><trkpt lat="45.6608342" lon="9.4774627"><ele>235.0</ele><time>2026-04-05T09:46:39.73Z</time></trkpt><trkpt lat="45.6609275" lon="9.4774232"><ele>235.0</ele><time>2026-04-05T09:46:41.73Z</time></trkpt><trkpt lat="45.6610233" lon="9.4773906"><ele>235.0</ele><time>2026-04-05T09:46:43.73Z</time></trkpt><trkpt lat="45.6611178" lon="9.4773539"><ele>235.2</ele><time>2026-04-05T09:46:45.729Z</time></trkpt><trkpt lat="45.6612109" lon="9.4773183"><ele>235.4</ele><time>2026-04-05T09:46:47.73Z</time></trkpt><trkpt lat="45.6613127" lon="9.4772853"><ele>235.60000000000002</ele><time>2026-04-05T09:46:49.73Z</time></trkpt><trkpt lat="45.661416" lon="9.4772461"><ele>235.8</ele><time>2026-04-05T09:46:51.729Z</time></trkpt><trkpt lat="45.6615255" lon="9.4772144"><ele>236.0</ele><time>2026-04-05T09:46:53.729Z</time></trkpt><trkpt lat="45.6616361" lon="9.4771898"><ele>236.0</ele><time>2026-04-05T09:46:55.729Z</time></trkpt><trkpt lat="45.6617408" lon="9.4771615"><ele>236.00000000000003</ele><time>2026-04-05T09:46:57.73Z</time></trkpt><trkpt lat="45.6618511" lon="9.4771376"><ele>236.00000000000003</ele><time>2026-04-05T09:46:59.73Z</time></trkpt><trkpt lat="45.6619573" lon="9.4771156"><ele>236.0</ele><time>2026-04-05T09:47:01.73Z</time></trkpt><trkpt lat="45.6620604" lon="9.4771045"><ele>236.0</ele><time>2026-04-05T09:47:03.73Z</time></trkpt><trkpt lat="45.6621552" lon="9.4770844"><ele>236.0</ele><time>2026-04-05T09:47:05.73Z</time></trkpt><trkpt lat="45.6622461" lon="9.4770692"><ele>236.00000000000003</ele><time>2026-04-05T09:47:07.729Z</time></trkpt><trkpt lat="45.662341" lon="9.477052"><ele>236.00000000000003</ele><time>2026-04-05T09:47:09.73Z</time></trkpt><trkpt lat="45.6624281" lon="9.4770136"><ele>236.0</ele><time>2026-04-05T09:47:11.73Z</time></trkpt><trkpt lat="45.6625175" lon="9.4769771"><ele>236.0</ele><time>2026-04-05T09:47:13.73Z</time></trkpt><trkpt lat="45.6626067" lon="9.4769376"><ele>236.0</ele><time>2026-04-05T09:47:15.73Z</time></trkpt><trkpt lat="45.6626972" lon="9.4768704"><ele>236.00000000000003</ele><time>2026-04-05T09:47:17.73Z</time></trkpt><trkpt lat="45.6626898" lon="9.4766997"><ele>236.00000000000003</ele><time>2026-04-05T09:47:19.73Z</time></trkpt><trkpt lat="45.6626739" lon="9.476594"><ele>236.0</ele><time>2026-04-05T09:47:21.73Z</time></trkpt><trkpt lat="45.6626642" lon="9.4764634"><ele>236.0</ele><time>2026-04-05T09:47:23.729Z</time></trkpt><trkpt lat="45.6626567" lon="9.4763163"><ele>236.33333333333334</ele><time>2026-04-05T09:47:25.73Z</time></trkpt><trkpt lat="45.6626473" lon="9.4761812"><ele>236.66666666666669</ele><time>2026-04-05T09:47:27.73Z</time></trkpt><trkpt lat="45.6626257" lon="9.4760411"><ele>237.0</ele><time>2026-04-05T09:47:29.73Z</time></trkpt><trkpt lat="45.6626037" lon="9.475913"><ele>237.33333333333331</ele><time>2026-04-05T09:47:31.73Z</time></trkpt><trkpt lat="45.6625913" lon="9.4758008"><ele>237.66666666666666</ele><time>2026-04-05T09:47:33.73Z</time></trkpt><trkpt lat="45.6626325" lon="9.4757068"><ele>238.0</ele><time>2026-04-05T09:47:35.73Z</time></trkpt><trkpt lat="45.6627104" lon="9.4756695"><ele>238.4</ele><time>2026-04-05T09:47:37.729Z</time></trkpt><trkpt lat="45.6627975" lon="9.4756375"><ele>238.8</ele><time>2026-04-05T09:47:39.73Z</time></trkpt><trkpt lat="45.6628935" lon="9.4756252"><ele>239.2</ele><time>2026-04-05T09:47:41.73Z</time></trkpt><trkpt lat="45.6629779" lon="9.4756102"><ele>239.6</ele><time>2026-04-05T09:47:44.089Z</time></trkpt><trkpt lat="45.663061" lon="9.4755715"><ele>240.0</ele><time>2026-04-05T09:47:45.719Z</time></trkpt><trkpt lat="45.6631781" lon="9.475551"><ele>240.0</ele><time>2026-04-05T09:47:47.726Z</time></trkpt><trkpt lat="45.663279" lon="9.475485"><ele>240.0</ele><time>2026-04-05T09:47:49.729Z</time></trkpt><trkpt lat="45.6632931" lon="9.4753344"><ele>240.0</ele><time>2026-04-05T09:47:51.729Z</time></trkpt><trkpt lat="45.6632922" lon="9.4752115"><ele>240.0</ele><time>2026-04-05T09:47:53.729Z</time></trkpt><trkpt lat="45.6632886" lon="9.4750635"><ele>240.0</ele><time>2026-04-05T09:47:55.73Z</time></trkpt><trkpt lat="45.663274" lon="9.4749175"><ele>240.16666666666666</ele><time>2026-04-05T09:47:57.73Z</time></trkpt><trkpt lat="45.6632634" lon="9.4747942"><ele>240.33333333333331</ele><time>2026-04-05T09:47:59.729Z</time></trkpt><trkpt lat="45.6632536" lon="9.4746652"><ele>240.5</ele><time>2026-04-05T09:48:01.729Z</time></trkpt><trkpt lat="45.663241" lon="9.4745412"><ele>240.66666666666666</ele><time>2026-04-05T09:48:03.73Z</time></trkpt><trkpt lat="45.6632189" lon="9.4744353"><ele>240.83333333333331</ele><time>2026-04-05T09:48:05.73Z</time></trkpt><trkpt lat="45.6631922" lon="9.4743417"><ele>241.0</ele><time>2026-04-05T09:48:07.73Z</time></trkpt><trkpt lat="45.6631643" lon="9.4742318"><ele>241.66666666666666</ele><time>2026-04-05T09:48:09.729Z</time></trkpt><trkpt lat="45.6631334" lon="9.4741252"><ele>242.33333333333331</ele><time>2026-04-05T09:48:11.73Z</time></trkpt><trkpt lat="45.6631028" lon="9.4740053"><ele>243.0</ele><time>2026-04-05T09:48:13.729Z</time></trkpt><trkpt lat="45.6630787" lon="9.4738794"><ele>243.66666666666669</ele><time>2026-04-05T09:48:15.73Z</time></trkpt><trkpt lat="45.6630548" lon="9.4737496"><ele>244.33333333333334</ele><time>2026-04-05T09:48:17.729Z</time></trkpt><trkpt lat="45.6630343" lon="9.4736336"><ele>245.0</ele><time>2026-04-05T09:48:19.73Z</time></trkpt><trkpt lat="45.663026" lon="9.4735109"><ele>245.16666666666669</ele><time>2026-04-05T09:48:21.73Z</time></trkpt><trkpt lat="45.6630148" lon="9.4733739"><ele>245.33333333333334</ele><time>2026-04-05T09:48:23.73Z</time></trkpt><trkpt lat="45.6630013" lon="9.4732616"><ele>245.5</ele><time>2026-04-05T09:48:25.73Z</time></trkpt><trkpt lat="45.6629858" lon="9.47315"><ele>245.66666666666669</ele><time>2026-04-05T09:48:27.736Z</time></trkpt><trkpt lat="45.6629704" lon="9.4730226"><ele>245.83333333333334</ele><time>2026-04-05T09:48:29.73Z</time></trkpt><trkpt lat="45.6629517" lon="9.4728833"><ele>246.0</ele><time>2026-04-05T09:48:31.729Z</time></trkpt><trkpt lat="45.6629299" lon="9.4727406"><ele>246.0</ele><time>2026-04-05T09:48:33.73Z</time></trkpt><trkpt lat="45.6629076" lon="9.4725914"><ele>246.00000000000003</ele><time>2026-04-05T09:48:35.73Z</time></trkpt><trkpt lat="45.6628853" lon="9.4724411"><ele>246.00000000000003</ele><time>2026-04-05T09:48:37.73Z</time></trkpt><trkpt lat="45.6628647" lon="9.4722843"><ele>246.0</ele><time>2026-04-05T09:48:39.73Z</time></trkpt><trkpt lat="45.6628401" lon="9.4721155"><ele>246.0</ele><time>2026-04-05T09:48:41.73Z</time></trkpt><trkpt lat="45.6628184" lon="9.4719561"><ele>246.0</ele><time>2026-04-05T09:48:43.729Z</time></trkpt><trkpt lat="45.6627966" lon="9.4717942"><ele>246.00000000000003</ele><time>2026-04-05T09:48:45.73Z</time></trkpt><trkpt lat="45.662787" lon="9.4717"><ele>246.00000000000003</ele><time>2026-04-05T09:48:46.729Z</time></trkpt><trkpt lat="45.6627625" lon="9.4715418"><ele>246.0</ele><time>2026-04-05T09:48:48.73Z</time></trkpt><trkpt lat="45.6627553" lon="9.4713739"><ele>246.0</ele><time>2026-04-05T09:48:50.729Z</time></trkpt><trkpt lat="45.6627506" lon="9.4712183"><ele>246.20000000000002</ele><time>2026-04-05T09:48:52.73Z</time></trkpt><trkpt lat="45.6627486" lon="9.4710638"><ele>246.40000000000003</ele><time>2026-04-05T09:48:54.73Z</time></trkpt><trkpt lat="45.6627516" lon="9.4709095"><ele>246.6</ele><time>2026-04-05T09:48:56.73Z</time></trkpt><trkpt lat="45.662767" lon="9.4707513"><ele>246.8</ele><time>2026-04-05T09:48:58.73Z</time></trkpt><trkpt lat="45.6627738" lon="9.4705985"><ele>247.0</ele><time>2026-04-05T09:49:00.729Z</time></trkpt><trkpt lat="45.6627807" lon="9.4704463"><ele>247.2</ele><time>2026-04-05T09:49:02.73Z</time></trkpt><trkpt lat="45.6627824" lon="9.4702835"><ele>247.39999999999998</ele><time>2026-04-05T09:49:04.73Z</time></trkpt><trkpt lat="45.6627804" lon="9.4701298"><ele>247.60000000000002</ele><time>2026-04-05T09:49:06.73Z</time></trkpt><trkpt lat="45.6627809" lon="9.4699572"><ele>247.8</ele><time>2026-04-05T09:49:08.73Z</time></trkpt><trkpt lat="45.6627783" lon="9.4698647"><ele>248.0</ele><time>2026-04-05T09:49:09.73Z</time></trkpt><trkpt lat="45.6627638" lon="9.4696959"><ele>248.25</ele><time>2026-04-05T09:49:11.729Z</time></trkpt><trkpt lat="45.6627482" lon="9.469538"><ele>248.5</ele><time>2026-04-05T09:49:13.729Z</time></trkpt><trkpt lat="45.6627224" lon="9.4693702"><ele>248.75</ele><time>2026-04-05T09:49:15.73Z</time></trkpt><trkpt lat="45.6626927" lon="9.4692028"><ele>249.0</ele><time>2026-04-05T09:49:17.729Z</time></trkpt><trkpt lat="45.6626616" lon="9.4690472"><ele>249.0</ele><time>2026-04-05T09:49:19.73Z</time></trkpt><trkpt lat="45.6626239" lon="9.4688876"><ele>249.0</ele><time>2026-04-05T09:49:21.73Z</time></trkpt><trkpt lat="45.6625792" lon="9.4687339"><ele>249.0</ele><time>2026-04-05T09:49:23.73Z</time></trkpt><trkpt lat="45.6625504" lon="9.4685819"><ele>249.0</ele><time>2026-04-05T09:49:25.73Z</time></trkpt><trkpt lat="45.6625884" lon="9.4684367"><ele>249.0</ele><time>2026-04-05T09:49:27.73Z</time></trkpt><trkpt lat="45.6626839" lon="9.4683461"><ele>249.0</ele><time>2026-04-05T09:49:29.73Z</time></trkpt><trkpt lat="45.6627943" lon="9.4682983"><ele>249.0</ele><time>2026-04-05T09:49:31.73Z</time></trkpt><trkpt lat="45.6629055" lon="9.4682633"><ele>249.0</ele><time>2026-04-05T09:49:33.729Z</time></trkpt><trkpt lat="45.6630173" lon="9.4682273"><ele>249.0</ele><time>2026-04-05T09:49:35.73Z</time></trkpt><trkpt lat="45.6631358" lon="9.4681793"><ele>249.0</ele><time>2026-04-05T09:49:37.73Z</time></trkpt><trkpt lat="45.6632434" lon="9.4681422"><ele>249.0</ele><time>2026-04-05T09:49:39.729Z</time></trkpt><trkpt lat="45.6633516" lon="9.4680963"><ele>249.0</ele><time>2026-04-05T09:49:41.73Z</time></trkpt><trkpt lat="45.6634691" lon="9.4680699"><ele>249.0</ele><time>2026-04-05T09:49:43.73Z</time></trkpt><trkpt lat="45.6635302" lon="9.4680464"><ele>248.99999999999997</ele><time>2026-04-05T09:49:44.73Z</time></trkpt><trkpt lat="45.6636409" lon="9.4680161"><ele>248.99999999999997</ele><time>2026-04-05T09:49:46.73Z</time></trkpt><trkpt lat="45.6637551" lon="9.4679781"><ele>249.0</ele><time>2026-04-05T09:49:48.73Z</time></trkpt><trkpt lat="45.6638424" lon="9.4678916"><ele>249.0</ele><time>2026-04-05T09:49:50.73Z</time></trkpt><trkpt lat="45.6638693" lon="9.4677482"><ele>249.25</ele><time>2026-04-05T09:49:52.73Z</time></trkpt><trkpt lat="45.6638622" lon="9.4675785"><ele>249.5</ele><time>2026-04-05T09:49:54.73Z</time></trkpt><trkpt lat="45.6638547" lon="9.4674023"><ele>249.75</ele><time>2026-04-05T09:49:56.73Z</time></trkpt><trkpt lat="45.6638439" lon="9.4672462"><ele>250.0</ele><time>2026-04-05T09:49:58.73Z</time></trkpt><trkpt lat="45.6638384" lon="9.4670857"><ele>250.0</ele><time>2026-04-05T09:50:00.73Z</time></trkpt><trkpt lat="45.6638317" lon="9.4669915"><ele>250.0</ele><time>2026-04-05T09:50:01.73Z</time></trkpt><trkpt lat="45.6638309" lon="9.4668163"><ele>250.0</ele><time>2026-04-05T09:50:03.73Z</time></trkpt><trkpt lat="45.6638232" lon="9.466654"><ele>250.0</ele><time>2026-04-05T09:50:05.73Z</time></trkpt><trkpt lat="45.663815" lon="9.4664824"><ele>250.0</ele><time>2026-04-05T09:50:07.73Z</time></trkpt><trkpt lat="45.6638114" lon="9.4663057"><ele>250.25</ele><time>2026-04-05T09:50:09.729Z</time></trkpt><trkpt lat="45.6638095" lon="9.4661439"><ele>250.5</ele><time>2026-04-05T09:50:11.73Z</time></trkpt><trkpt lat="45.6638009" lon="9.4659818"><ele>250.75</ele><time>2026-04-05T09:50:13.73Z</time></trkpt><trkpt lat="45.6637917" lon="9.4658047"><ele>251.0</ele><time>2026-04-05T09:50:15.73Z</time></trkpt><trkpt lat="45.6637854" lon="9.4656344"><ele>251.0</ele><time>2026-04-05T09:50:17.729Z</time></trkpt><trkpt lat="45.6637715" lon="9.4654606"><ele>251.00000000000003</ele><time>2026-04-05T09:50:19.73Z</time></trkpt><trkpt lat="45.6637668" lon="9.4653667"><ele>251.00000000000003</ele><time>2026-04-05T09:50:20.73Z</time></trkpt><trkpt lat="45.6637535" lon="9.4651964"><ele>251.0</ele><time>2026-04-05T09:50:22.729Z</time></trkpt><trkpt lat="45.6637379" lon="9.4650277"><ele>251.0</ele><time>2026-04-05T09:50:24.73Z</time></trkpt><trkpt lat="45.6637338" lon="9.4649328"><ele>251.0</ele><time>2026-04-05T09:50:25.73Z</time></trkpt><trkpt lat="45.663736" lon="9.4647596"><ele>251.00000000000003</ele><time>2026-04-05T09:50:27.73Z</time></trkpt><trkpt lat="45.6637727" lon="9.464597"><ele>251.00000000000003</ele><time>2026-04-05T09:50:29.73Z</time></trkpt><trkpt lat="45.6638074" lon="9.4645159"><ele>251.0</ele><time>2026-04-05T09:50:30.73Z</time></trkpt><trkpt lat="45.663878" lon="9.4643889"><ele>251.0</ele><time>2026-04-05T09:50:32.73Z</time></trkpt><trkpt lat="45.6639606" lon="9.4642542"><ele>251.0</ele><time>2026-04-05T09:50:34.73Z</time></trkpt><trkpt lat="45.6640369" lon="9.4641207"><ele>251.00000000000003</ele><time>2026-04-05T09:50:36.73Z</time></trkpt><trkpt lat="45.6641102" lon="9.4639889"><ele>251.00000000000003</ele><time>2026-04-05T09:50:38.729Z</time></trkpt><trkpt lat="45.6641877" lon="9.4638454"><ele>251.0</ele><time>2026-04-05T09:50:40.73Z</time></trkpt><trkpt lat="45.6642303" lon="9.463776"><ele>251.0</ele><time>2026-04-05T09:50:41.73Z</time></trkpt><trkpt lat="45.6642706" lon="9.463703"><ele>251.20000000000002</ele><time>2026-04-05T09:50:42.73Z</time></trkpt><trkpt lat="45.6643121" lon="9.4636317"><ele>251.40000000000003</ele><time>2026-04-05T09:50:43.73Z</time></trkpt><trkpt lat="45.6643514" lon="9.4635577"><ele>251.6</ele><time>2026-04-05T09:50:44.73Z</time></trkpt><trkpt lat="45.6644291" lon="9.4634279"><ele>251.8</ele><time>2026-04-05T09:50:46.728Z</time></trkpt><trkpt lat="45.6645025" lon="9.4632885"><ele>252.0</ele><time>2026-04-05T09:50:48.729Z</time></trkpt><trkpt lat="45.6645714" lon="9.4631454"><ele>252.25</ele><time>2026-04-05T09:50:50.73Z</time></trkpt><trkpt lat="45.66464" lon="9.4630004"><ele>252.5</ele><time>2026-04-05T09:50:52.729Z</time></trkpt><trkpt lat="45.6647002" lon="9.4628586"><ele>252.75</ele><time>2026-04-05T09:50:54.73Z</time></trkpt><trkpt lat="45.6647673" lon="9.4627077"><ele>253.0</ele><time>2026-04-05T09:50:56.729Z</time></trkpt><trkpt lat="45.6648236" lon="9.4625662"><ele>253.5</ele><time>2026-04-05T09:50:58.73Z</time></trkpt><trkpt lat="45.6648864" lon="9.4624075"><ele>254.0</ele><time>2026-04-05T09:51:00.73Z</time></trkpt><trkpt lat="45.6649496" lon="9.4622551"><ele>254.5</ele><time>2026-04-05T09:51:02.73Z</time></trkpt><trkpt lat="45.6650165" lon="9.4621084"><ele>255.0</ele><time>2026-04-05T09:51:04.73Z</time></trkpt><trkpt lat="45.6650803" lon="9.4619677"><ele>255.0</ele><time>2026-04-05T09:51:06.73Z</time></trkpt><trkpt lat="45.6651377" lon="9.4618337"><ele>255.0</ele><time>2026-04-05T09:51:08.729Z</time></trkpt><trkpt lat="45.6651741" lon="9.4617575"><ele>255.0</ele><time>2026-04-05T09:51:09.73Z</time></trkpt><trkpt lat="45.6652189" lon="9.4616046"><ele>255.0</ele><time>2026-04-05T09:51:11.729Z</time></trkpt><trkpt lat="45.6652474" lon="9.4614564"><ele>255.0</ele><time>2026-04-05T09:51:13.73Z</time></trkpt><trkpt lat="45.6652692" lon="9.4613633"><ele>254.6</ele><time>2026-04-05T09:51:14.729Z</time></trkpt><trkpt lat="45.6652878" lon="9.4612739"><ele>254.2</ele><time>2026-04-05T09:51:15.729Z</time></trkpt><trkpt lat="45.6653181" lon="9.4611938"><ele>253.8</ele><time>2026-04-05T09:51:16.729Z</time></trkpt><trkpt lat="45.665377" lon="9.4610415"><ele>253.4</ele><time>2026-04-05T09:51:18.73Z</time></trkpt><trkpt lat="45.6654355" lon="9.4609173"><ele>253.0</ele><time>2026-04-05T09:51:20.73Z</time></trkpt><trkpt lat="45.6655305" lon="9.4608432"><ele>253.0</ele><time>2026-04-05T09:51:22.729Z</time></trkpt><trkpt lat="45.6656365" lon="9.4608581"><ele>253.0</ele><time>2026-04-05T09:51:24.73Z</time></trkpt><trkpt lat="45.6657444" lon="9.460893"><ele>253.0</ele><time>2026-04-05T09:51:26.73Z</time></trkpt><trkpt lat="45.6658569" lon="9.4609121"><ele>253.0</ele><time>2026-04-05T09:51:28.73Z</time></trkpt><trkpt lat="45.6659613" lon="9.4609368"><ele>253.0</ele><time>2026-04-05T09:51:30.73Z</time></trkpt><trkpt lat="45.6660262" lon="9.4609436"><ele>252.8</ele><time>2026-04-05T09:51:31.73Z</time></trkpt><trkpt lat="45.6661308" lon="9.4609557"><ele>252.60000000000002</ele><time>2026-04-05T09:51:33.729Z</time></trkpt><trkpt lat="45.6661978" lon="9.4609744"><ele>252.39999999999998</ele><time>2026-04-05T09:51:34.73Z</time></trkpt><trkpt lat="45.6663176" lon="9.4609844"><ele>252.2</ele><time>2026-04-05T09:51:36.729Z</time></trkpt><trkpt lat="45.6664281" lon="9.4609939"><ele>252.0</ele><time>2026-04-05T09:51:38.729Z</time></trkpt><trkpt lat="45.6664919" lon="9.4610084"><ele>252.0</ele><time>2026-04-05T09:51:39.729Z</time></trkpt><trkpt lat="45.6666065" lon="9.4610307"><ele>252.0</ele><time>2026-04-05T09:51:41.73Z</time></trkpt><trkpt lat="45.6667219" lon="9.4610481"><ele>252.0</ele><time>2026-04-05T09:51:43.729Z</time></trkpt><trkpt lat="45.6668411" lon="9.4610848"><ele>252.0</ele><time>2026-04-05T09:51:45.73Z</time></trkpt><trkpt lat="45.6669582" lon="9.4611066"><ele>252.33333333333334</ele><time>2026-04-05T09:51:47.73Z</time></trkpt><trkpt lat="45.6670254" lon="9.4611153"><ele>252.66666666666669</ele><time>2026-04-05T09:51:48.729Z</time></trkpt><trkpt lat="45.6670972" lon="9.4611309"><ele>253.0</ele><time>2026-04-05T09:51:49.73Z</time></trkpt><trkpt lat="45.6672204" lon="9.4611515"><ele>253.33333333333334</ele><time>2026-04-05T09:51:51.73Z</time></trkpt><trkpt lat="45.6673238" lon="9.4611767"><ele>253.66666666666669</ele><time>2026-04-05T09:51:53.73Z</time></trkpt><trkpt lat="45.6673864" lon="9.4611879"><ele>254.0</ele><time>2026-04-05T09:51:54.73Z</time></trkpt><trkpt lat="45.6675063" lon="9.4612025"><ele>254.0</ele><time>2026-04-05T09:51:56.73Z</time></trkpt><trkpt lat="45.6676153" lon="9.4612167"><ele>253.99999999999997</ele><time>2026-04-05T09:51:58.73Z</time></trkpt><trkpt lat="45.6676794" lon="9.4612298"><ele>253.99999999999997</ele><time>2026-04-05T09:51:59.73Z</time></trkpt><trkpt lat="45.6678" lon="9.461251"><ele>254.0</ele><time>2026-04-05T09:52:01.73Z</time></trkpt><trkpt lat="45.6679062" lon="9.4612791"><ele>254.0</ele><time>2026-04-05T09:52:03.73Z</time></trkpt><trkpt lat="45.6680195" lon="9.4612428"><ele>254.00000000000003</ele><time>2026-04-05T09:52:05.73Z</time></trkpt><trkpt lat="45.6680763" lon="9.4611781"><ele>254.0</ele><time>2026-04-05T09:52:06.73Z</time></trkpt><trkpt lat="45.668135" lon="9.4610224"><ele>254.0</ele><time>2026-04-05T09:52:08.73Z</time></trkpt><trkpt lat="45.6681654" lon="9.4609316"><ele>254.0</ele><time>2026-04-05T09:52:09.729Z</time></trkpt><trkpt lat="45.6681802" lon="9.4608416"><ele>254.00000000000003</ele><time>2026-04-05T09:52:10.73Z</time></trkpt><trkpt lat="45.6681966" lon="9.4607462"><ele>254.0</ele><time>2026-04-05T09:52:11.73Z</time></trkpt><trkpt lat="45.6682142" lon="9.4606571"><ele>254.00000000000003</ele><time>2026-04-05T09:52:12.729Z</time></trkpt><trkpt lat="45.6682204" lon="9.4605638"><ele>254.0</ele><time>2026-04-05T09:52:13.73Z</time></trkpt><trkpt lat="45.668237" lon="9.4604745"><ele>254.0</ele><time>2026-04-05T09:52:14.73Z</time></trkpt><trkpt lat="45.6682416" lon="9.4603806"><ele>254.0</ele><time>2026-04-05T09:52:15.729Z</time></trkpt><trkpt lat="45.6682563" lon="9.4602771"><ele>254.00000000000003</ele><time>2026-04-05T09:52:16.73Z</time></trkpt><trkpt lat="45.6682715" lon="9.4600903"><ele>254.0</ele><time>2026-04-05T09:52:18.73Z</time></trkpt><trkpt lat="45.6682782" lon="9.4599869"><ele>254.16666666666669</ele><time>2026-04-05T09:52:19.729Z</time></trkpt><trkpt lat="45.6682944" lon="9.4598822"><ele>254.33333333333334</ele><time>2026-04-05T09:52:20.73Z</time></trkpt><trkpt lat="45.6683073" lon="9.4597917"><ele>254.5</ele><time>2026-04-05T09:52:21.73Z</time></trkpt><trkpt lat="45.6683192" lon="9.4596987"><ele>254.66666666666669</ele><time>2026-04-05T09:52:22.729Z</time></trkpt><trkpt lat="45.6683325" lon="9.4595165"><ele>254.83333333333334</ele><time>2026-04-05T09:52:24.73Z</time></trkpt><trkpt lat="45.6683425" lon="9.4593542"><ele>255.0</ele><time>2026-04-05T09:52:26.729Z</time></trkpt><trkpt lat="45.6683573" lon="9.4592665"><ele>255.2</ele><time>2026-04-05T09:52:27.73Z</time></trkpt><trkpt lat="45.6683786" lon="9.4590777"><ele>255.4</ele><time>2026-04-05T09:52:29.73Z</time></trkpt><trkpt lat="45.6683859" lon="9.4589831"><ele>255.60000000000002</ele><time>2026-04-05T09:52:30.73Z</time></trkpt><trkpt lat="45.6683945" lon="9.4588895"><ele>255.8</ele><time>2026-04-05T09:52:31.73Z</time></trkpt><trkpt lat="45.6684135" lon="9.4587076"><ele>256.0</ele><time>2026-04-05T09:52:33.729Z</time></trkpt><trkpt lat="45.6684295" lon="9.4585313"><ele>256.16666666666663</ele><time>2026-04-05T09:52:35.73Z</time></trkpt><trkpt lat="45.6684515" lon="9.458357"><ele>256.3333333333333</ele><time>2026-04-05T09:52:37.729Z</time></trkpt><trkpt lat="45.668472" lon="9.4582706"><ele>256.5</ele><time>2026-04-05T09:52:38.729Z</time></trkpt><trkpt lat="45.6685395" lon="9.4581334"><ele>256.6666666666667</ele><time>2026-04-05T09:52:40.729Z</time></trkpt><trkpt lat="45.6685866" lon="9.4580705"><ele>256.83333333333337</ele><time>2026-04-05T09:52:41.729Z</time></trkpt><trkpt lat="45.6686441" lon="9.4580089"><ele>257.0</ele><time>2026-04-05T09:52:42.73Z</time></trkpt><trkpt lat="45.6687578" lon="9.4579307"><ele>256.5</ele><time>2026-04-05T09:52:44.73Z</time></trkpt><trkpt lat="45.6688672" lon="9.457853"><ele>256.0</ele><time>2026-04-05T09:52:46.73Z</time></trkpt><trkpt lat="45.6689747" lon="9.4577867"><ele>255.5</ele><time>2026-04-05T09:52:48.73Z</time></trkpt><trkpt lat="45.6690877" lon="9.4577122"><ele>255.0</ele><time>2026-04-05T09:52:50.73Z</time></trkpt><trkpt lat="45.6692011" lon="9.45764"><ele>255.0</ele><time>2026-04-05T09:52:52.729Z</time></trkpt><trkpt lat="45.6693136" lon="9.4575598"><ele>255.0</ele><time>2026-04-05T09:52:54.73Z</time></trkpt><trkpt lat="45.6694241" lon="9.4574811"><ele>255.0</ele><time>2026-04-05T09:52:56.73Z</time></trkpt><trkpt lat="45.6694833" lon="9.4574411"><ele>255.0</ele><time>2026-04-05T09:52:57.73Z</time></trkpt><trkpt lat="45.6695402" lon="9.4574025"><ele>255.0</ele><time>2026-04-05T09:52:58.73Z</time></trkpt><trkpt lat="45.6696001" lon="9.4573674"><ele>255.0</ele><time>2026-04-05T09:52:59.73Z</time></trkpt><trkpt lat="45.6697156" lon="9.4573119"><ele>255.0</ele><time>2026-04-05T09:53:01.73Z</time></trkpt><trkpt lat="45.6697798" lon="9.4572989"><ele>255.0</ele><time>2026-04-05T09:53:02.73Z</time></trkpt><trkpt lat="45.6698436" lon="9.4572931"><ele>255.0</ele><time>2026-04-05T09:53:03.73Z</time></trkpt><trkpt lat="45.6699103" lon="9.4572908"><ele>255.0</ele><time>2026-04-05T09:53:04.73Z</time></trkpt><trkpt lat="45.6700365" lon="9.457312"><ele>255.0</ele><time>2026-04-05T09:53:06.73Z</time></trkpt><trkpt lat="45.6701699" lon="9.4573424"><ele>255.0</ele><time>2026-04-05T09:53:08.73Z</time></trkpt><trkpt lat="45.6702388" lon="9.4573539"><ele>255.0</ele><time>2026-04-05T09:53:09.729Z</time></trkpt><trkpt lat="45.6703502" lon="9.4573489"><ele>255.0</ele><time>2026-04-05T09:53:11.73Z</time></trkpt><trkpt lat="45.6704778" lon="9.4573631"><ele>255.0</ele><time>2026-04-05T09:53:13.73Z</time></trkpt><trkpt lat="45.6705447" lon="9.4573745"><ele>255.0</ele><time>2026-04-05T09:53:14.729Z</time></trkpt><trkpt lat="45.6706617" lon="9.4574105"><ele>255.5</ele><time>2026-04-05T09:53:16.73Z</time></trkpt><trkpt lat="45.670788" lon="9.4574389"><ele>256.0</ele><time>2026-04-05T09:53:18.73Z</time></trkpt><trkpt lat="45.6709088" lon="9.4574616"><ele>256.5</ele><time>2026-04-05T09:53:20.729Z</time></trkpt><trkpt lat="45.6710296" lon="9.4574752"><ele>257.0</ele><time>2026-04-05T09:53:22.729Z</time></trkpt><trkpt lat="45.6711485" lon="9.4574753"><ele>257.6</ele><time>2026-04-05T09:53:24.73Z</time></trkpt><trkpt lat="45.6712191" lon="9.4574875"><ele>258.2</ele><time>2026-04-05T09:53:25.73Z</time></trkpt><trkpt lat="45.6713428" lon="9.4575081"><ele>258.8</ele><time>2026-04-05T09:53:27.73Z</time></trkpt><trkpt lat="45.6714584" lon="9.4575228"><ele>259.4</ele><time>2026-04-05T09:53:29.73Z</time></trkpt><trkpt lat="45.6715296" lon="9.4575277"><ele>260.0</ele><time>2026-04-05T09:53:30.73Z</time></trkpt><trkpt lat="45.6716485" lon="9.4575445"><ele>260.0</ele><time>2026-04-05T09:53:32.73Z</time></trkpt><trkpt lat="45.6717142" lon="9.4575492"><ele>260.0</ele><time>2026-04-05T09:53:33.73Z</time></trkpt><trkpt lat="45.6717796" lon="9.4575629"><ele>260.0</ele><time>2026-04-05T09:53:34.73Z</time></trkpt><trkpt lat="45.6719035" lon="9.4575372"><ele>260.0</ele><time>2026-04-05T09:53:36.73Z</time></trkpt><trkpt lat="45.6719674" lon="9.4575194"><ele>260.0</ele><time>2026-04-05T09:53:37.73Z</time></trkpt><trkpt lat="45.6720867" lon="9.457457"><ele>260.0</ele><time>2026-04-05T09:53:39.73Z</time></trkpt><trkpt lat="45.6722006" lon="9.4573721"><ele>259.6666666666667</ele><time>2026-04-05T09:53:41.73Z</time></trkpt><trkpt lat="45.6722564" lon="9.4573289"><ele>259.33333333333337</ele><time>2026-04-05T09:53:42.73Z</time></trkpt><trkpt lat="45.6723636" lon="9.4572355"><ele>259.0</ele><time>2026-04-05T09:53:44.729Z</time></trkpt><trkpt lat="45.6724695" lon="9.4571449"><ele>258.6666666666667</ele><time>2026-04-05T09:53:46.73Z</time></trkpt><trkpt lat="45.6725257" lon="9.4571024"><ele>258.3333333333333</ele><time>2026-04-05T09:53:47.729Z</time></trkpt><trkpt lat="45.6725841" lon="9.457058"><ele>258.0</ele><time>2026-04-05T09:53:48.73Z</time></trkpt><trkpt lat="45.6726473" lon="9.4570232"><ele>258.6</ele><time>2026-04-05T09:53:49.73Z</time></trkpt><trkpt lat="45.6727747" lon="9.4569852"><ele>259.20000000000005</ele><time>2026-04-05T09:53:51.729Z</time></trkpt><trkpt lat="45.6728381" lon="9.4569692"><ele>259.8</ele><time>2026-04-05T09:53:52.73Z</time></trkpt><trkpt lat="45.6729656" lon="9.4569597"><ele>260.40000000000003</ele><time>2026-04-05T09:53:54.73Z</time></trkpt><trkpt lat="45.6730329" lon="9.4569606"><ele>261.0</ele><time>2026-04-05T09:53:55.73Z</time></trkpt><trkpt lat="45.673099" lon="9.4569599"><ele>261.0</ele><time>2026-04-05T09:53:56.729Z</time></trkpt><trkpt lat="45.6731653" lon="9.4569549"><ele>261.0</ele><time>2026-04-05T09:53:57.73Z</time></trkpt><trkpt lat="45.6732953" lon="9.4569482"><ele>261.0</ele><time>2026-04-05T09:53:59.73Z</time></trkpt><trkpt lat="45.6733632" lon="9.4569436"><ele>261.0</ele><time>2026-04-05T09:54:00.73Z</time></trkpt><trkpt lat="45.6734895" lon="9.4569223"><ele>261.0</ele><time>2026-04-05T09:54:02.729Z</time></trkpt><trkpt lat="45.6735572" lon="9.4569048"><ele>261.0</ele><time>2026-04-05T09:54:03.729Z</time></trkpt><trkpt lat="45.673626" lon="9.4568788"><ele>261.0</ele><time>2026-04-05T09:54:04.73Z</time></trkpt><trkpt lat="45.6736994" lon="9.4568503"><ele>261.0</ele><time>2026-04-05T09:54:05.729Z</time></trkpt><trkpt lat="45.6737694" lon="9.4568188"><ele>261.0</ele><time>2026-04-05T09:54:06.73Z</time></trkpt><trkpt lat="45.673839" lon="9.4567878"><ele>261.0</ele><time>2026-04-05T09:54:07.729Z</time></trkpt><trkpt lat="45.67391" lon="9.4567531"><ele>261.0</ele><time>2026-04-05T09:54:08.73Z</time></trkpt><trkpt lat="45.6739824" lon="9.4567194"><ele>261.0</ele><time>2026-04-05T09:54:09.73Z</time></trkpt><trkpt lat="45.6740523" lon="9.4566789"><ele>261.0</ele><time>2026-04-05T09:54:10.73Z</time></trkpt><trkpt lat="45.6741261" lon="9.4566368"><ele>261.0</ele><time>2026-04-05T09:54:11.73Z</time></trkpt><trkpt lat="45.6741946" lon="9.456577"><ele>261.0</ele><time>2026-04-05T09:54:12.73Z</time></trkpt><trkpt lat="45.6742646" lon="9.4565105"><ele>261.0</ele><time>2026-04-05T09:54:13.73Z</time></trkpt><trkpt lat="45.6743213" lon="9.4564302"><ele>261.0</ele><time>2026-04-05T09:54:14.73Z</time></trkpt><trkpt lat="45.6743732" lon="9.4563429"><ele>261.0</ele><time>2026-04-05T09:54:15.73Z</time></trkpt><trkpt lat="45.6744195" lon="9.4562507"><ele>260.14285714285717</ele><time>2026-04-05T09:54:16.73Z</time></trkpt><trkpt lat="45.6744602" lon="9.4561495"><ele>259.2857142857143</ele><time>2026-04-05T09:54:17.729Z</time></trkpt><trkpt lat="45.6745065" lon="9.4560556"><ele>258.42857142857144</ele><time>2026-04-05T09:54:18.73Z</time></trkpt><trkpt lat="45.674544" lon="9.4559679"><ele>257.57142857142856</ele><time>2026-04-05T09:54:19.73Z</time></trkpt><trkpt lat="45.6745817" lon="9.4558836"><ele>256.7142857142857</ele><time>2026-04-05T09:54:20.73Z</time></trkpt><trkpt lat="45.6746141" lon="9.4557918"><ele>255.85714285714286</ele><time>2026-04-05T09:54:21.73Z</time></trkpt><trkpt lat="45.6746501" lon="9.4556997"><ele>255.0</ele><time>2026-04-05T09:54:22.73Z</time></trkpt><trkpt lat="45.674684" lon="9.4556088"><ele>255.0</ele><time>2026-04-05T09:54:23.73Z</time></trkpt><trkpt lat="45.6747214" lon="9.4555234"><ele>255.0</ele><time>2026-04-05T09:54:24.729Z</time></trkpt><trkpt lat="45.6747556" lon="9.4554342"><ele>255.0</ele><time>2026-04-05T09:54:25.73Z</time></trkpt><trkpt lat="45.6747895" lon="9.4553472"><ele>255.0</ele><time>2026-04-05T09:54:26.73Z</time></trkpt><trkpt lat="45.6748235" lon="9.4552505"><ele>255.0</ele><time>2026-04-05T09:54:27.73Z</time></trkpt><trkpt lat="45.674858" lon="9.4551366"><ele>255.0</ele><time>2026-04-05T09:54:28.73Z</time></trkpt><trkpt lat="45.6748865" lon="9.4550225"><ele>255.16666666666666</ele><time>2026-04-05T09:54:29.729Z</time></trkpt><trkpt lat="45.6749257" lon="9.4548492"><ele>255.33333333333331</ele><time>2026-04-05T09:54:31.73Z</time></trkpt><trkpt lat="45.6749515" lon="9.4547657"><ele>255.5</ele><time>2026-04-05T09:54:32.73Z</time></trkpt><trkpt lat="45.6749733" lon="9.4546753"><ele>255.66666666666666</ele><time>2026-04-05T09:54:33.729Z</time></trkpt><trkpt lat="45.6749983" lon="9.45458"><ele>255.83333333333331</ele><time>2026-04-05T09:54:34.73Z</time></trkpt><trkpt lat="45.6750145" lon="9.454487"><ele>256.0</ele><time>2026-04-05T09:54:35.73Z</time></trkpt><trkpt lat="45.675033" lon="9.454384"><ele>256.3333333333333</ele><time>2026-04-05T09:54:36.729Z</time></trkpt><trkpt lat="45.6750442" lon="9.4542938"><ele>256.66666666666663</ele><time>2026-04-05T09:54:37.73Z</time></trkpt><trkpt lat="45.6750558" lon="9.4541982"><ele>257.0</ele><time>2026-04-05T09:54:38.73Z</time></trkpt><trkpt lat="45.675081" lon="9.4540222"><ele>257.3333333333333</ele><time>2026-04-05T09:54:40.73Z</time></trkpt><trkpt lat="45.6750877" lon="9.4539305"><ele>257.6666666666667</ele><time>2026-04-05T09:54:41.73Z</time></trkpt><trkpt lat="45.6750987" lon="9.4537594"><ele>258.0</ele><time>2026-04-05T09:54:43.73Z</time></trkpt><trkpt lat="45.6751082" lon="9.4536659"><ele>258.4</ele><time>2026-04-05T09:54:44.73Z</time></trkpt><trkpt lat="45.6751127" lon="9.4535714"><ele>258.8</ele><time>2026-04-05T09:54:45.73Z</time></trkpt><trkpt lat="45.6751313" lon="9.4534055"><ele>259.2</ele><time>2026-04-05T09:54:47.73Z</time></trkpt><trkpt lat="45.6751516" lon="9.4533134"><ele>259.6</ele><time>2026-04-05T09:54:48.73Z</time></trkpt><trkpt lat="45.6751958" lon="9.4531651"><ele>260.0</ele><time>2026-04-05T09:54:50.729Z</time></trkpt><trkpt lat="45.6752596" lon="9.4530177"><ele>260.1666666666667</ele><time>2026-04-05T09:54:52.729Z</time></trkpt><trkpt lat="45.675332" lon="9.4528833"><ele>260.33333333333337</ele><time>2026-04-05T09:54:54.73Z</time></trkpt><trkpt lat="45.6754088" lon="9.4527602"><ele>260.5</ele><time>2026-04-05T09:54:56.729Z</time></trkpt><trkpt lat="45.6754547" lon="9.4526937"><ele>260.6666666666667</ele><time>2026-04-05T09:54:57.73Z</time></trkpt><trkpt lat="45.6755055" lon="9.4526205"><ele>260.8333333333333</ele><time>2026-04-05T09:54:58.73Z</time></trkpt><trkpt lat="45.6755438" lon="9.452547"><ele>261.0</ele><time>2026-04-05T09:54:59.729Z</time></trkpt><trkpt lat="45.6756275" lon="9.4524053"><ele>261.0</ele><time>2026-04-05T09:55:01.73Z</time></trkpt><trkpt lat="45.6756701" lon="9.452335"><ele>261.0</ele><time>2026-04-05T09:55:02.73Z</time></trkpt><trkpt lat="45.6757011" lon="9.4522504"><ele>261.0</ele><time>2026-04-05T09:55:03.73Z</time></trkpt><trkpt lat="45.6757563" lon="9.4521879"><ele>261.0</ele><time>2026-04-05T09:55:04.73Z</time></trkpt><trkpt lat="45.6757955" lon="9.4521142"><ele>261.0</ele><time>2026-04-05T09:55:05.73Z</time></trkpt><trkpt lat="45.6758468" lon="9.4520572"><ele>261.0</ele><time>2026-04-05T09:55:06.73Z</time></trkpt><trkpt lat="45.6758829" lon="9.4519785"><ele>261.0</ele><time>2026-04-05T09:55:07.73Z</time></trkpt><trkpt lat="45.6759205" lon="9.451901"><ele>261.0</ele><time>2026-04-05T09:55:08.73Z</time></trkpt><trkpt lat="45.67595" lon="9.4518192"><ele>261.0</ele><time>2026-04-05T09:55:09.73Z</time></trkpt><trkpt lat="45.6759863" lon="9.4517328"><ele>261.0</ele><time>2026-04-05T09:55:10.729Z</time></trkpt><trkpt lat="45.6760457" lon="9.4515625"><ele>261.0</ele><time>2026-04-05T09:55:12.73Z</time></trkpt><trkpt lat="45.6760815" lon="9.4514732"><ele>261.0</ele><time>2026-04-05T09:55:13.73Z</time></trkpt><trkpt lat="45.6761097" lon="9.4513742"><ele>261.0</ele><time>2026-04-05T09:55:14.73Z</time></trkpt><trkpt lat="45.676142" lon="9.4512723"><ele>260.8</ele><time>2026-04-05T09:55:15.73Z</time></trkpt><trkpt lat="45.6761618" lon="9.4511863"><ele>260.6</ele><time>2026-04-05T09:55:16.73Z</time></trkpt><trkpt lat="45.6762118" lon="9.4510185"><ele>260.4</ele><time>2026-04-05T09:55:18.73Z</time></trkpt><trkpt lat="45.676269" lon="9.450851"><ele>260.2</ele><time>2026-04-05T09:55:20.73Z</time></trkpt><trkpt lat="45.676308" lon="9.4507732"><ele>260.0</ele><time>2026-04-05T09:55:21.73Z</time></trkpt><trkpt lat="45.6763765" lon="9.450636"><ele>260.0</ele><time>2026-04-05T09:55:23.73Z</time></trkpt><trkpt lat="45.6764598" lon="9.4505049"><ele>260.0</ele><time>2026-04-05T09:55:25.73Z</time></trkpt><trkpt lat="45.6765095" lon="9.4504318"><ele>260.0</ele><time>2026-04-05T09:55:26.73Z</time></trkpt><trkpt lat="45.6766098" lon="9.4503241"><ele>260.0</ele><time>2026-04-05T09:55:28.73Z</time></trkpt><trkpt lat="45.6767199" lon="9.4502221"><ele>260.0</ele><time>2026-04-05T09:55:30.73Z</time></trkpt><trkpt lat="45.6768233" lon="9.4501335"><ele>260.0</ele><time>2026-04-05T09:55:32.73Z</time></trkpt><trkpt lat="45.6768803" lon="9.4500903"><ele>260.0</ele><time>2026-04-05T09:55:33.73Z</time></trkpt><trkpt lat="45.676935" lon="9.4500402"><ele>260.0</ele><time>2026-04-05T09:55:34.73Z</time></trkpt><trkpt lat="45.6770228" lon="9.4499484"><ele>260.0</ele><time>2026-04-05T09:55:36.729Z</time></trkpt><trkpt lat="45.6771188" lon="9.4498766"><ele>260.0</ele><time>2026-04-05T09:55:38.73Z</time></trkpt><trkpt lat="45.6772271" lon="9.4498944"><ele>260.0</ele><time>2026-04-05T09:55:40.73Z</time></trkpt><trkpt lat="45.6773207" lon="9.4499351"><ele>260.0</ele><time>2026-04-05T09:55:42.73Z</time></trkpt><trkpt lat="45.677413" lon="9.44998"><ele>260.0</ele><time>2026-04-05T09:55:44.73Z</time></trkpt><trkpt lat="45.6775054" lon="9.4500599"><ele>260.0</ele><time>2026-04-05T09:55:46.73Z</time></trkpt><trkpt lat="45.6775726" lon="9.4501906"><ele>260.0</ele><time>2026-04-05T09:55:48.729Z</time></trkpt><trkpt lat="45.6776147" lon="9.4502639"><ele>260.0</ele><time>2026-04-05T09:55:49.73Z</time></trkpt><trkpt lat="45.6776928" lon="9.4504136"><ele>260.0</ele><time>2026-04-05T09:55:51.73Z</time></trkpt><trkpt lat="45.677729" lon="9.4504934"><ele>260.0</ele><time>2026-04-05T09:55:52.73Z</time></trkpt><trkpt lat="45.6777883" lon="9.4505395"><ele>260.0</ele><time>2026-04-05T09:55:53.73Z</time></trkpt><trkpt lat="45.6778384" lon="9.4505953"><ele>260.0</ele><time>2026-04-05T09:55:54.729Z</time></trkpt><trkpt lat="45.6778795" lon="9.4506705"><ele>260.0</ele><time>2026-04-05T09:55:55.73Z</time></trkpt><trkpt lat="45.6779253" lon="9.4507329"><ele>260.0</ele><time>2026-04-05T09:55:56.73Z</time></trkpt><trkpt lat="45.6779783" lon="9.4508017"><ele>260.0</ele><time>2026-04-05T09:55:57.729Z</time></trkpt><trkpt lat="45.6780683" lon="9.4509266"><ele>260.0</ele><time>2026-04-05T09:55:59.73Z</time></trkpt><trkpt lat="45.6781683" lon="9.4510296"><ele>260.0</ele><time>2026-04-05T09:56:01.73Z</time></trkpt><trkpt lat="45.6782209" lon="9.4510826"><ele>260.0</ele><time>2026-04-05T09:56:02.73Z</time></trkpt><trkpt lat="45.6783299" lon="9.4511828"><ele>260.0</ele><time>2026-04-05T09:56:04.73Z</time></trkpt><trkpt lat="45.6784465" lon="9.4512568"><ele>260.0</ele><time>2026-04-05T09:56:06.73Z</time></trkpt><trkpt lat="45.678564" lon="9.4512964"><ele>260.0</ele><time>2026-04-05T09:56:08.73Z</time></trkpt><trkpt lat="45.6786878" lon="9.4513159"><ele>260.0</ele><time>2026-04-05T09:56:10.729Z</time></trkpt><trkpt lat="45.6788077" lon="9.4513617"><ele>259.6</ele><time>2026-04-05T09:56:12.73Z</time></trkpt><trkpt lat="45.67893" lon="9.4513823"><ele>259.2</ele><time>2026-04-05T09:56:14.73Z</time></trkpt><trkpt lat="45.6790537" lon="9.4514003"><ele>258.8</ele><time>2026-04-05T09:56:16.73Z</time></trkpt><trkpt lat="45.6791244" lon="9.4514098"><ele>258.4</ele><time>2026-04-05T09:56:17.729Z</time></trkpt><trkpt lat="45.6792465" lon="9.4514127"><ele>258.0</ele><time>2026-04-05T09:56:19.73Z</time></trkpt><trkpt lat="45.6793612" lon="9.4514155"><ele>258.6</ele><time>2026-04-05T09:56:21.73Z</time></trkpt><trkpt lat="45.6795011" lon="9.451418"><ele>259.20000000000005</ele><time>2026-04-05T09:56:23.729Z</time></trkpt><trkpt lat="45.679565" lon="9.4514224"><ele>259.8</ele><time>2026-04-05T09:56:24.729Z</time></trkpt><trkpt lat="45.6796283" lon="9.4514182"><ele>260.40000000000003</ele><time>2026-04-05T09:56:25.73Z</time></trkpt><trkpt lat="45.6796913" lon="9.451421"><ele>261.0</ele><time>2026-04-05T09:56:26.73Z</time></trkpt><trkpt lat="45.6798136" lon="9.4514295"><ele>261.0</ele><time>2026-04-05T09:56:28.73Z</time></trkpt><trkpt lat="45.6798911" lon="9.4514347"><ele>261.0</ele><time>2026-04-05T09:56:29.73Z</time></trkpt><trkpt lat="45.6799562" lon="9.4514277"><ele>261.0</ele><time>2026-04-05T09:56:30.73Z</time></trkpt><trkpt lat="45.6800706" lon="9.4514332"><ele>261.0</ele><time>2026-04-05T09:56:32.73Z</time></trkpt><trkpt lat="45.6801923" lon="9.4514284"><ele>261.0</ele><time>2026-04-05T09:56:34.73Z</time></trkpt><trkpt lat="45.6803168" lon="9.4514269"><ele>261.40000000000003</ele><time>2026-04-05T09:56:36.73Z</time></trkpt><trkpt lat="45.6804418" lon="9.4514356"><ele>261.8</ele><time>2026-04-05T09:56:38.729Z</time></trkpt><trkpt lat="45.6805061" lon="9.4514421"><ele>262.20000000000005</ele><time>2026-04-05T09:56:39.73Z</time></trkpt><trkpt lat="45.68058" lon="9.4514551"><ele>262.6</ele><time>2026-04-05T09:56:40.73Z</time></trkpt><trkpt lat="45.6806453" lon="9.4514613"><ele>263.0</ele><time>2026-04-05T09:56:41.729Z</time></trkpt><trkpt lat="45.6807704" lon="9.4514692"><ele>263.0</ele><time>2026-04-05T09:56:43.73Z</time></trkpt><trkpt lat="45.6808947" lon="9.4514717"><ele>263.0</ele><time>2026-04-05T09:56:45.729Z</time></trkpt><trkpt lat="45.680962" lon="9.4514715"><ele>263.0</ele><time>2026-04-05T09:56:46.73Z</time></trkpt><trkpt lat="45.6810769" lon="9.451472"><ele>263.0</ele><time>2026-04-05T09:56:48.729Z</time></trkpt><trkpt lat="45.6811833" lon="9.4514742"><ele>263.0</ele><time>2026-04-05T09:56:50.729Z</time></trkpt><trkpt lat="45.6812863" lon="9.451463"><ele>262.1666666666667</ele><time>2026-04-05T09:56:52.73Z</time></trkpt><trkpt lat="45.6813496" lon="9.4515004"><ele>261.33333333333337</ele><time>2026-04-05T09:56:54.73Z</time></trkpt><trkpt lat="45.6814469" lon="9.4514217"><ele>260.5</ele><time>2026-04-05T09:58:36.73Z</time></trkpt><trkpt lat="45.6814864" lon="9.4513502"><ele>259.6666666666667</ele><time>2026-04-05T09:58:40.729Z</time></trkpt><trkpt lat="45.6815439" lon="9.4512904"><ele>258.8333333333333</ele><time>2026-04-05T09:58:42.729Z</time></trkpt><trkpt lat="45.6816158" lon="9.4511956"><ele>258.0</ele><time>2026-04-05T09:58:44.73Z</time></trkpt><trkpt lat="45.681653" lon="9.4511031"><ele>258.0</ele><time>2026-04-05T09:58:45.73Z</time></trkpt><trkpt lat="45.6817313" lon="9.4509674"><ele>258.0</ele><time>2026-04-05T09:58:47.73Z</time></trkpt><trkpt lat="45.6818198" lon="9.4508334"><ele>258.0</ele><time>2026-04-05T09:58:49.73Z</time></trkpt><trkpt lat="45.6818635" lon="9.4507597"><ele>258.0</ele><time>2026-04-05T09:58:50.729Z</time></trkpt><trkpt lat="45.681933" lon="9.4506095"><ele>258.0</ele><time>2026-04-05T09:58:52.73Z</time></trkpt><trkpt lat="45.6819675" lon="9.4505283"><ele>256.8</ele><time>2026-04-05T09:58:53.73Z</time></trkpt><trkpt lat="45.6820002" lon="9.4504405"><ele>255.60000000000002</ele><time>2026-04-05T09:58:54.73Z</time></trkpt><trkpt lat="45.682033" lon="9.4503563"><ele>254.39999999999998</ele><time>2026-04-05T09:58:55.73Z</time></trkpt><trkpt lat="45.6821156" lon="9.4502372"><ele>253.2</ele><time>2026-04-05T09:58:57.729Z</time></trkpt><trkpt lat="45.6822203" lon="9.4501656"><ele>252.0</ele><time>2026-04-05T09:58:59.73Z</time></trkpt><trkpt lat="45.6823333" lon="9.4500743"><ele>252.0</ele><time>2026-04-05T09:59:01.729Z</time></trkpt><trkpt lat="45.6823946" lon="9.4500325"><ele>252.0</ele><time>2026-04-05T09:59:02.729Z</time></trkpt><trkpt lat="45.6824518" lon="9.4499888"><ele>252.0</ele><time>2026-04-05T09:59:03.73Z</time></trkpt><trkpt lat="45.6825122" lon="9.4499508"><ele>252.0</ele><time>2026-04-05T09:59:04.73Z</time></trkpt><trkpt lat="45.682574" lon="9.4499053"><ele>252.0</ele><time>2026-04-05T09:59:05.73Z</time></trkpt><trkpt lat="45.682642" lon="9.4498755"><ele>252.0</ele><time>2026-04-05T09:59:06.73Z</time></trkpt><trkpt lat="45.6827112" lon="9.4498508"><ele>252.0</ele><time>2026-04-05T09:59:07.73Z</time></trkpt><trkpt lat="45.6828393" lon="9.4498114"><ele>247.0</ele><time>2026-04-05T09:59:09.73Z</time></trkpt><trkpt lat="45.6829076" lon="9.4497891"><ele>242.0</ele><time>2026-04-05T09:59:10.73Z</time></trkpt><trkpt lat="45.6829775" lon="9.4497563"><ele>237.0</ele><time>2026-04-05T09:59:11.73Z</time></trkpt><trkpt lat="45.6830422" lon="9.4497226"><ele>232.0</ele><time>2026-04-05T09:59:12.73Z</time></trkpt><trkpt lat="45.6831081" lon="9.449713"><ele>227.0</ele><time>2026-04-05T09:59:13.729Z</time></trkpt><trkpt lat="45.6832267" lon="9.4496906"><ele>222.0</ele><time>2026-04-05T09:59:15.73Z</time></trkpt><trkpt lat="45.6833475" lon="9.4496473"><ele>226.33333333333334</ele><time>2026-04-05T09:59:17.73Z</time></trkpt><trkpt lat="45.6834145" lon="9.449587"><ele>230.66666666666669</ele><time>2026-04-05T09:59:18.73Z</time></trkpt><trkpt lat="45.6834989" lon="9.4495572"><ele>235.0</ele><time>2026-04-05T09:59:19.729Z</time></trkpt><trkpt lat="45.6835624" lon="9.4495122"><ele>239.33333333333334</ele><time>2026-04-05T09:59:20.73Z</time></trkpt><trkpt lat="45.6836238" lon="9.4494752"><ele>243.66666666666669</ele><time>2026-04-05T09:59:21.73Z</time></trkpt><trkpt lat="45.6837079" lon="9.4494561"><ele>248.0</ele><time>2026-04-05T09:59:23.73Z</time></trkpt><trkpt lat="45.6837806" lon="9.4494627"><ele>248.00000000000003</ele><time>2026-04-05T09:59:25.73Z</time></trkpt><trkpt lat="45.6838553" lon="9.4494785"><ele>248.0</ele><time>2026-04-05T09:59:27.73Z</time></trkpt><trkpt lat="45.6839276" lon="9.4494871"><ele>248.0</ele><time>2026-04-05T09:59:29.73Z</time></trkpt><trkpt lat="45.684002" lon="9.4495207"><ele>248.0</ele><time>2026-04-05T09:59:31.73Z</time></trkpt><trkpt lat="45.6840973" lon="9.4495488"><ele>248.00000000000003</ele><time>2026-04-05T09:59:33.73Z</time></trkpt><trkpt lat="45.6841959" lon="9.4495833"><ele>248.0</ele><time>2026-04-05T09:59:35.729Z</time></trkpt><trkpt lat="45.6842756" lon="9.4496215"><ele>248.00000000000003</ele><time>2026-04-05T09:59:37.73Z</time></trkpt><trkpt lat="45.6843623" lon="9.4496118"><ele>248.0</ele><time>2026-04-05T09:59:40.73Z</time></trkpt><trkpt lat="45.6844262" lon="9.4495903"><ele>248.0</ele><time>2026-04-05T09:59:43.729Z</time></trkpt><trkpt lat="45.6844907" lon="9.4495752"><ele>248.0</ele><time>2026-04-05T09:59:45.73Z</time></trkpt><trkpt lat="45.6846018" lon="9.4495587"><ele>248.00000000000003</ele><time>2026-04-05T09:59:47.729Z</time></trkpt><trkpt lat="45.6847192" lon="9.4495389"><ele>248.0</ele><time>2026-04-05T09:59:49.73Z</time></trkpt><trkpt lat="45.6848334" lon="9.4495572"><ele>247.60000000000002</ele><time>2026-04-05T09:59:51.729Z</time></trkpt><trkpt lat="45.6848973" lon="9.4495782"><ele>247.20000000000002</ele><time>2026-04-05T09:59:52.729Z</time></trkpt><trkpt lat="45.6850374" lon="9.4496598"><ele>246.8</ele><time>2026-04-05T09:59:54.73Z</time></trkpt><trkpt lat="45.6851126" lon="9.4497151"><ele>246.4</ele><time>2026-04-05T09:59:55.729Z</time></trkpt><trkpt lat="45.6851694" lon="9.4497541"><ele>246.0</ele><time>2026-04-05T09:59:56.73Z</time></trkpt><trkpt lat="45.6853005" lon="9.4498082"><ele>240.16666666666666</ele><time>2026-04-05T09:59:58.73Z</time></trkpt><trkpt lat="45.6853651" lon="9.4498308"><ele>234.33333333333331</ele><time>2026-04-05T09:59:59.73Z</time></trkpt><trkpt lat="45.6854517" lon="9.449852"><ele>228.5</ele><time>2026-04-05T10:00:00.73Z</time></trkpt><trkpt lat="45.6855295" lon="9.4498669"><ele>222.66666666666666</ele><time>2026-04-05T10:00:01.729Z</time></trkpt><trkpt lat="45.6856133" lon="9.4498971"><ele>216.83333333333331</ele><time>2026-04-05T10:00:02.73Z</time></trkpt><trkpt lat="45.6856854" lon="9.4499237"><ele>211.0</ele><time>2026-04-05T10:00:03.73Z</time></trkpt><trkpt lat="45.6857534" lon="9.4499555"><ele>210.99999999999997</ele><time>2026-04-05T10:00:04.73Z</time></trkpt><trkpt lat="45.6858314" lon="9.4499934"><ele>211.0</ele><time>2026-04-05T10:00:05.73Z</time></trkpt><trkpt lat="45.6859095" lon="9.450036"><ele>211.0</ele><time>2026-04-05T10:00:06.729Z</time></trkpt><trkpt lat="45.685982" lon="9.4500735"><ele>211.0</ele><time>2026-04-05T10:00:07.729Z</time></trkpt><trkpt lat="45.6860577" lon="9.4501309"><ele>210.99999999999997</ele><time>2026-04-05T10:00:08.729Z</time></trkpt><trkpt lat="45.6861368" lon="9.450194"><ele>211.0</ele><time>2026-04-05T10:00:09.73Z</time></trkpt><trkpt lat="45.6862084" lon="9.4502664"><ele>212.83333333333331</ele><time>2026-04-05T10:00:10.73Z</time></trkpt><trkpt lat="45.6862761" lon="9.4503326"><ele>214.66666666666666</ele><time>2026-04-05T10:00:11.729Z</time></trkpt><trkpt lat="45.6863394" lon="9.4504028"><ele>216.5</ele><time>2026-04-05T10:00:12.73Z</time></trkpt><trkpt lat="45.6864067" lon="9.4504667"><ele>218.33333333333331</ele><time>2026-04-05T10:00:13.73Z</time></trkpt><trkpt lat="45.6864747" lon="9.4505322"><ele>220.16666666666666</ele><time>2026-04-05T10:00:14.729Z</time></trkpt><trkpt lat="45.6865525" lon="9.4505936"><ele>222.0</ele><time>2026-04-05T10:00:15.729Z</time></trkpt><trkpt lat="45.6866212" lon="9.4506541"><ele>219.83333333333334</ele><time>2026-04-05T10:00:16.73Z</time></trkpt><trkpt lat="45.6866987" lon="9.4507079"><ele>217.66666666666669</ele><time>2026-04-05T10:00:17.73Z</time></trkpt><trkpt lat="45.6867746" lon="9.4507694"><ele>215.5</ele><time>2026-04-05T10:00:18.73Z</time></trkpt><trkpt lat="45.6868524" lon="9.4508128"><ele>213.33333333333334</ele><time>2026-04-05T10:00:19.729Z</time></trkpt><trkpt lat="45.6869334" lon="9.4508478"><ele>211.16666666666669</ele><time>2026-04-05T10:00:20.73Z</time></trkpt><trkpt lat="45.6870017" lon="9.4508858"><ele>209.0</ele><time>2026-04-05T10:00:21.73Z</time></trkpt><trkpt lat="45.6870654" lon="9.4509154"><ele>209.0</ele><time>2026-04-05T10:00:22.729Z</time></trkpt><trkpt lat="45.6871392" lon="9.450941"><ele>209.0</ele><time>2026-04-05T10:00:23.73Z</time></trkpt><trkpt lat="45.6872035" lon="9.4509677"><ele>209.0</ele><time>2026-04-05T10:00:24.73Z</time></trkpt><trkpt lat="45.6872798" lon="9.4509936"><ele>209.0</ele><time>2026-04-05T10:00:25.73Z</time></trkpt><trkpt lat="45.687352" lon="9.4510171"><ele>209.0</ele><time>2026-04-05T10:00:26.73Z</time></trkpt><trkpt lat="45.6874167" lon="9.451025"><ele>209.0</ele><time>2026-04-05T10:00:27.73Z</time></trkpt><trkpt lat="45.6874837" lon="9.4510342"><ele>209.0</ele><time>2026-04-05T10:00:28.73Z</time></trkpt><trkpt lat="45.6875642" lon="9.4510367"><ele>209.0</ele><time>2026-04-05T10:00:29.73Z</time></trkpt><trkpt lat="45.6876337" lon="9.4510311"><ele>209.0</ele><time>2026-04-05T10:00:30.73Z</time></trkpt><trkpt lat="45.6877036" lon="9.4510199"><ele>209.0</ele><time>2026-04-05T10:00:31.729Z</time></trkpt><trkpt lat="45.6877709" lon="9.4510138"><ele>209.0</ele><time>2026-04-05T10:00:32.73Z</time></trkpt><trkpt lat="45.6878434" lon="9.4510013"><ele>209.0</ele><time>2026-04-05T10:00:33.73Z</time></trkpt><trkpt lat="45.6879151" lon="9.450985"><ele>209.0</ele><time>2026-04-05T10:00:34.73Z</time></trkpt><trkpt lat="45.6879823" lon="9.4509685"><ele>209.0</ele><time>2026-04-05T10:00:35.729Z</time></trkpt><trkpt lat="45.6880482" lon="9.4509597"><ele>210.2</ele><time>2026-04-05T10:00:36.73Z</time></trkpt><trkpt lat="45.6881188" lon="9.4509509"><ele>211.39999999999998</ele><time>2026-04-05T10:00:37.73Z</time></trkpt><trkpt lat="45.6882431" lon="9.4509152"><ele>212.6</ele><time>2026-04-05T10:00:39.73Z</time></trkpt><trkpt lat="45.6883479" lon="9.4508952"><ele>213.8</ele><time>2026-04-05T10:00:41.73Z</time></trkpt><trkpt lat="45.6884199" lon="9.4508741"><ele>215.0</ele><time>2026-04-05T10:00:42.73Z</time></trkpt><trkpt lat="45.688524" lon="9.4508478"><ele>214.8</ele><time>2026-04-05T10:00:44.73Z</time></trkpt><trkpt lat="45.6886419" lon="9.4508462"><ele>214.6</ele><time>2026-04-05T10:00:46.729Z</time></trkpt><trkpt lat="45.6887469" lon="9.4508369"><ele>214.39999999999998</ele><time>2026-04-05T10:00:48.73Z</time></trkpt><trkpt lat="45.6888528" lon="9.4508224"><ele>214.2</ele><time>2026-04-05T10:00:50.73Z</time></trkpt><trkpt lat="45.6889577" lon="9.4507945"><ele>214.0</ele><time>2026-04-05T10:00:52.73Z</time></trkpt><trkpt lat="45.6890239" lon="9.4507745"><ele>214.0</ele><time>2026-04-05T10:00:53.73Z</time></trkpt><trkpt lat="45.6891252" lon="9.4507743"><ele>213.99999999999997</ele><time>2026-04-05T10:00:55.73Z</time></trkpt><trkpt lat="45.6892228" lon="9.4508014"><ele>213.99999999999997</ele><time>2026-04-05T10:00:57.73Z</time></trkpt><trkpt lat="45.6893276" lon="9.4508498"><ele>214.0</ele><time>2026-04-05T10:00:59.73Z</time></trkpt><trkpt lat="45.689438" lon="9.4509256"><ele>214.0</ele><time>2026-04-05T10:01:01.73Z</time></trkpt><trkpt lat="45.6895457" lon="9.4510113"><ele>213.16666666666666</ele><time>2026-04-05T10:01:03.729Z</time></trkpt><trkpt lat="45.6895945" lon="9.4510711"><ele>212.33333333333331</ele><time>2026-04-05T10:01:04.729Z</time></trkpt><trkpt lat="45.6896944" lon="9.4511644"><ele>211.5</ele><time>2026-04-05T10:01:06.729Z</time></trkpt><trkpt lat="45.6897667" lon="9.4512579"><ele>210.66666666666669</ele><time>2026-04-05T10:01:08.73Z</time></trkpt><trkpt lat="45.6898128" lon="9.4513272"><ele>209.83333333333334</ele><time>2026-04-05T10:01:10.73Z</time></trkpt><trkpt lat="45.6898625" lon="9.4513989"><ele>209.0</ele><time>2026-04-05T10:01:20.73Z</time></trkpt><trkpt lat="45.6899167" lon="9.451457"><ele>209.00000000000003</ele><time>2026-04-05T10:01:22.73Z</time></trkpt><trkpt lat="45.689975" lon="9.4515148"><ele>209.0</ele><time>2026-04-05T10:01:24.73Z</time></trkpt><trkpt lat="45.6900372" lon="9.4515827"><ele>209.0</ele><time>2026-04-05T10:01:26.73Z</time></trkpt><trkpt lat="45.6901141" lon="9.4516574"><ele>209.0</ele><time>2026-04-05T10:01:28.729Z</time></trkpt><trkpt lat="45.690187" lon="9.4517429"><ele>209.00000000000003</ele><time>2026-04-05T10:01:30.73Z</time></trkpt><trkpt lat="45.6902575" lon="9.4518282"><ele>209.0</ele><time>2026-04-05T10:01:32.73Z</time></trkpt><trkpt lat="45.6903327" lon="9.4519368"><ele>208.5</ele><time>2026-04-05T10:01:34.73Z</time></trkpt><trkpt lat="45.6904117" lon="9.45201"><ele>208.0</ele><time>2026-04-05T10:01:36.729Z</time></trkpt><trkpt lat="45.6905286" lon="9.4520383"><ele>207.5</ele><time>2026-04-05T10:01:38.73Z</time></trkpt><trkpt lat="45.6906551" lon="9.4520917"><ele>207.0</ele><time>2026-04-05T10:01:40.729Z</time></trkpt><trkpt lat="45.6907806" lon="9.4521584"><ele>207.0</ele><time>2026-04-05T10:01:42.73Z</time></trkpt><trkpt lat="45.6908995" lon="9.4522007"><ele>207.0</ele><time>2026-04-05T10:01:44.73Z</time></trkpt><trkpt lat="45.6909707" lon="9.452216"><ele>207.0</ele><time>2026-04-05T10:01:45.73Z</time></trkpt><trkpt lat="45.6910756" lon="9.4522995"><ele>207.0</ele><time>2026-04-05T10:01:47.729Z</time></trkpt><trkpt lat="45.6911977" lon="9.452339"><ele>207.0</ele><time>2026-04-05T10:01:49.729Z</time></trkpt><trkpt lat="45.6912643" lon="9.4523839"><ele>208.8</ele><time>2026-04-05T10:01:50.73Z</time></trkpt><trkpt lat="45.6913258" lon="9.4524256"><ele>210.6</ele><time>2026-04-05T10:01:51.729Z</time></trkpt><trkpt lat="45.6914362" lon="9.4524668"><ele>212.40000000000003</ele><time>2026-04-05T10:01:53.729Z</time></trkpt><trkpt lat="45.6914939" lon="9.4525069"><ele>214.20000000000002</ele><time>2026-04-05T10:01:54.73Z</time></trkpt><trkpt lat="45.6916085" lon="9.4525722"><ele>216.0</ele><time>2026-04-05T10:01:56.73Z</time></trkpt><trkpt lat="45.6916857" lon="9.4526045"><ele>216.0</ele><time>2026-04-05T10:01:57.73Z</time></trkpt><trkpt lat="45.6917471" lon="9.4526262"><ele>216.00000000000003</ele><time>2026-04-05T10:01:58.73Z</time></trkpt><trkpt lat="45.6918791" lon="9.4527054"><ele>216.00000000000003</ele><time>2026-04-05T10:02:00.73Z</time></trkpt><trkpt lat="45.6919832" lon="9.4527735"><ele>216.0</ele><time>2026-04-05T10:02:02.73Z</time></trkpt><trkpt lat="45.6920879" lon="9.4528447"><ele>216.0</ele><time>2026-04-05T10:02:04.73Z</time></trkpt><trkpt lat="45.6922035" lon="9.4529394"><ele>214.0</ele><time>2026-04-05T10:02:06.73Z</time></trkpt><trkpt lat="45.6923104" lon="9.4530069"><ele>212.00000000000003</ele><time>2026-04-05T10:02:08.729Z</time></trkpt><trkpt lat="45.6923788" lon="9.4530415"><ele>210.0</ele><time>2026-04-05T10:02:09.73Z</time></trkpt><trkpt lat="45.6924445" lon="9.4530876"><ele>208.0</ele><time>2026-04-05T10:02:10.73Z</time></trkpt><trkpt lat="45.6925545" lon="9.4531677"><ele>206.0</ele><time>2026-04-05T10:02:12.73Z</time></trkpt><trkpt lat="45.6926521" lon="9.4532382"><ele>206.00000000000003</ele><time>2026-04-05T10:02:14.73Z</time></trkpt><trkpt lat="45.6927226" lon="9.4532561"><ele>206.0</ele><time>2026-04-05T10:02:15.73Z</time></trkpt><trkpt lat="45.6927783" lon="9.4533087"><ele>206.0</ele><time>2026-04-05T10:02:16.73Z</time></trkpt><trkpt lat="45.692902" lon="9.4533659"><ele>206.0</ele><time>2026-04-05T10:02:18.73Z</time></trkpt><trkpt lat="45.6929979" lon="9.4534519"><ele>206.00000000000003</ele><time>2026-04-05T10:02:20.73Z</time></trkpt><trkpt lat="45.6930518" lon="9.4535078"><ele>206.0</ele><time>2026-04-05T10:02:21.73Z</time></trkpt><trkpt lat="45.6931536" lon="9.4536013"><ele>206.66666666666669</ele><time>2026-04-05T10:02:23.729Z</time></trkpt><trkpt lat="45.6932235" lon="9.4536288"><ele>207.33333333333334</ele><time>2026-04-05T10:02:24.729Z</time></trkpt><trkpt lat="45.6932751" lon="9.4536984"><ele>208.0</ele><time>2026-04-05T10:02:25.73Z</time></trkpt><trkpt lat="45.6933615" lon="9.4537954"><ele>208.66666666666669</ele><time>2026-04-05T10:02:27.73Z</time></trkpt><trkpt lat="45.6934209" lon="9.4538533"><ele>209.33333333333334</ele><time>2026-04-05T10:02:28.73Z</time></trkpt><trkpt lat="45.6935197" lon="9.4539502"><ele>210.0</ele><time>2026-04-05T10:02:30.73Z</time></trkpt><trkpt lat="45.693578" lon="9.4540072"><ele>212.0</ele><time>2026-04-05T10:02:31.73Z</time></trkpt><trkpt lat="45.6936469" lon="9.4540644"><ele>214.0</ele><time>2026-04-05T10:02:32.729Z</time></trkpt><trkpt lat="45.6937698" lon="9.4541062"><ele>216.0</ele><time>2026-04-05T10:02:34.73Z</time></trkpt><trkpt lat="45.6938342" lon="9.4541064"><ele>218.0</ele><time>2026-04-05T10:02:35.73Z</time></trkpt><trkpt lat="45.693902" lon="9.4541275"><ele>220.0</ele><time>2026-04-05T10:02:36.73Z</time></trkpt><trkpt lat="45.6939769" lon="9.4541759"><ele>222.0</ele><time>2026-04-05T10:02:37.73Z</time></trkpt><trkpt lat="45.6940501" lon="9.4542106"><ele>222.0</ele><time>2026-04-05T10:02:38.73Z</time></trkpt><trkpt lat="45.694113" lon="9.4542748"><ele>222.0</ele><time>2026-04-05T10:02:39.729Z</time></trkpt><trkpt lat="45.6942252" lon="9.454383"><ele>222.0</ele><time>2026-04-05T10:02:41.729Z</time></trkpt><trkpt lat="45.6942994" lon="9.4544572"><ele>222.0</ele><time>2026-04-05T10:02:42.73Z</time></trkpt><trkpt lat="45.694365" lon="9.4544748"><ele>222.0</ele><time>2026-04-05T10:02:43.73Z</time></trkpt><trkpt lat="45.6944244" lon="9.4545219"><ele>222.0</ele><time>2026-04-05T10:02:44.73Z</time></trkpt><trkpt lat="45.6944884" lon="9.4545633"><ele>219.2</ele><time>2026-04-05T10:02:45.73Z</time></trkpt><trkpt lat="45.6945584" lon="9.4546239"><ele>216.39999999999998</ele><time>2026-04-05T10:02:46.729Z</time></trkpt><trkpt lat="45.6946823" lon="9.4546675"><ele>213.60000000000002</ele><time>2026-04-05T10:02:48.73Z</time></trkpt><trkpt lat="45.6947467" lon="9.4547066"><ele>210.8</ele><time>2026-04-05T10:02:49.73Z</time></trkpt><trkpt lat="45.6948158" lon="9.4547514"><ele>208.0</ele><time>2026-04-05T10:02:50.73Z</time></trkpt><trkpt lat="45.6949426" lon="9.4547749"><ele>207.99999999999997</ele><time>2026-04-05T10:02:52.73Z</time></trkpt><trkpt lat="45.695008" lon="9.4547791"><ele>208.0</ele><time>2026-04-05T10:02:53.73Z</time></trkpt><trkpt lat="45.6950879" lon="9.4548056"><ele>208.0</ele><time>2026-04-05T10:02:54.73Z</time></trkpt><trkpt lat="45.6951546" lon="9.4548156"><ele>208.0</ele><time>2026-04-05T10:02:55.73Z</time></trkpt><trkpt lat="45.695266" lon="9.454846"><ele>207.99999999999997</ele><time>2026-04-05T10:02:57.729Z</time></trkpt><trkpt lat="45.6953307" lon="9.4548816"><ele>208.0</ele><time>2026-04-05T10:02:58.73Z</time></trkpt><trkpt lat="45.6954083" lon="9.4548989"><ele>208.57142857142856</ele><time>2026-04-05T10:02:59.73Z</time></trkpt><trkpt lat="45.6954882" lon="9.4549097"><ele>209.14285714285717</ele><time>2026-04-05T10:03:00.73Z</time></trkpt><trkpt lat="45.6955576" lon="9.4549237"><ele>209.71428571428572</ele><time>2026-04-05T10:03:01.729Z</time></trkpt><trkpt lat="45.695634" lon="9.4549286"><ele>210.28571428571428</ele><time>2026-04-05T10:03:02.729Z</time></trkpt><trkpt lat="45.6956952" lon="9.4549724"><ele>210.85714285714283</ele><time>2026-04-05T10:03:03.73Z</time></trkpt><trkpt lat="45.6957585" lon="9.4550091"><ele>211.42857142857144</ele><time>2026-04-05T10:03:04.729Z</time></trkpt><trkpt lat="45.695829" lon="9.4550155"><ele>212.0</ele><time>2026-04-05T10:03:05.729Z</time></trkpt><trkpt lat="45.695946" lon="9.4550535"><ele>212.00000000000003</ele><time>2026-04-05T10:03:07.73Z</time></trkpt><trkpt lat="45.6960098" lon="9.4550903"><ele>212.0</ele><time>2026-04-05T10:03:08.73Z</time></trkpt><trkpt lat="45.6960888" lon="9.4551127"><ele>212.0</ele><time>2026-04-05T10:03:09.73Z</time></trkpt><trkpt lat="45.6962073" lon="9.4551351"><ele>212.0</ele><time>2026-04-05T10:03:11.73Z</time></trkpt><trkpt lat="45.6962706" lon="9.4551357"><ele>212.00000000000003</ele><time>2026-04-05T10:03:12.729Z</time></trkpt><trkpt lat="45.6963357" lon="9.4551382"><ele>212.0</ele><time>2026-04-05T10:03:13.73Z</time></trkpt><trkpt lat="45.696399" lon="9.4551494"><ele>212.0</ele><time>2026-04-05T10:03:14.73Z</time></trkpt><trkpt lat="45.696519" lon="9.4551554"><ele>212.0</ele><time>2026-04-05T10:03:16.73Z</time></trkpt><trkpt lat="45.6966355" lon="9.455104"><ele>212.0</ele><time>2026-04-05T10:03:18.73Z</time></trkpt><trkpt lat="45.6967044" lon="9.4551143"><ele>212.0</ele><time>2026-04-05T10:03:19.73Z</time></trkpt><trkpt lat="45.6968179" lon="9.4551151"><ele>212.0</ele><time>2026-04-05T10:03:21.73Z</time></trkpt><trkpt lat="45.6968886" lon="9.4550798"><ele>212.0</ele><time>2026-04-05T10:03:23.73Z</time></trkpt><trkpt lat="45.697051" lon="9.4550845"><ele>212.0</ele><time>2026-04-05T10:03:27.73Z</time></trkpt><trkpt lat="45.6971638" lon="9.4550656"><ele>212.0</ele><time>2026-04-05T10:03:29.73Z</time></trkpt><trkpt lat="45.697228" lon="9.4550606"><ele>212.0</ele><time>2026-04-05T10:03:30.729Z</time></trkpt><trkpt lat="45.6973173" lon="9.4550132"><ele>212.0</ele><time>2026-04-05T10:03:31.73Z</time></trkpt><trkpt lat="45.6973854" lon="9.4549832"><ele>212.00000000000003</ele><time>2026-04-05T10:03:32.73Z</time></trkpt><trkpt lat="45.6974573" lon="9.4549816"><ele>212.0</ele><time>2026-04-05T10:03:33.729Z</time></trkpt><trkpt lat="45.6975226" lon="9.4549563"><ele>212.0</ele><time>2026-04-05T10:03:34.729Z</time></trkpt><trkpt lat="45.6975963" lon="9.4549632"><ele>212.0</ele><time>2026-04-05T10:03:35.73Z</time></trkpt><trkpt lat="45.6977297" lon="9.4549445"><ele>212.00000000000003</ele><time>2026-04-05T10:03:37.729Z</time></trkpt><trkpt lat="45.6978075" lon="9.4549066"><ele>212.0</ele><time>2026-04-05T10:03:38.73Z</time></trkpt><trkpt lat="45.697886" lon="9.4548987"><ele>211.16666666666669</ele><time>2026-04-05T10:03:39.73Z</time></trkpt><trkpt lat="45.6979704" lon="9.4548936"><ele>210.33333333333334</ele><time>2026-04-05T10:03:40.73Z</time></trkpt><trkpt lat="45.6981034" lon="9.4549114"><ele>209.5</ele><time>2026-04-05T10:03:42.729Z</time></trkpt><trkpt lat="45.698169" lon="9.4549329"><ele>208.66666666666669</ele><time>2026-04-05T10:03:43.729Z</time></trkpt><trkpt lat="45.6982339" lon="9.4549268"><ele>207.83333333333334</ele><time>2026-04-05T10:03:44.73Z</time></trkpt><trkpt lat="45.6983084" lon="9.4549297"><ele>207.0</ele><time>2026-04-05T10:03:45.729Z</time></trkpt><trkpt lat="45.6983905" lon="9.4549698"><ele>207.0</ele><time>2026-04-05T10:03:46.729Z</time></trkpt><trkpt lat="45.6984912" lon="9.4549889"><ele>207.0</ele><time>2026-04-05T10:03:48.73Z</time></trkpt><trkpt lat="45.6985593" lon="9.4549907"><ele>207.0</ele><time>2026-04-05T10:03:49.73Z</time></trkpt><trkpt lat="45.6986794" lon="9.455008"><ele>207.0</ele><time>2026-04-05T10:03:51.729Z</time></trkpt><trkpt lat="45.6987909" lon="9.4550481"><ele>207.0</ele><time>2026-04-05T10:03:53.73Z</time></trkpt><trkpt lat="45.698916" lon="9.4550953"><ele>206.14285714285717</ele><time>2026-04-05T10:03:55.729Z</time></trkpt><trkpt lat="45.6989749" lon="9.4551403"><ele>205.28571428571428</ele><time>2026-04-05T10:03:56.73Z</time></trkpt><trkpt lat="45.6990415" lon="9.4551695"><ele>204.42857142857144</ele><time>2026-04-05T10:03:57.73Z</time></trkpt><trkpt lat="45.6991136" lon="9.4551769"><ele>203.57142857142858</ele><time>2026-04-05T10:03:58.73Z</time></trkpt><trkpt lat="45.6991831" lon="9.4552085"><ele>202.71428571428572</ele><time>2026-04-05T10:03:59.73Z</time></trkpt><trkpt lat="45.6992646" lon="9.4552442"><ele>201.85714285714286</ele><time>2026-04-05T10:04:00.73Z</time></trkpt><trkpt lat="45.6993297" lon="9.455258"><ele>201.0</ele><time>2026-04-05T10:04:01.73Z</time></trkpt><trkpt lat="45.6994025" lon="9.455269"><ele>202.16666666666666</ele><time>2026-04-05T10:04:02.73Z</time></trkpt><trkpt lat="45.6994652" lon="9.4552775"><ele>203.33333333333331</ele><time>2026-04-05T10:04:03.73Z</time></trkpt><trkpt lat="45.6995324" lon="9.4552867"><ele>204.5</ele><time>2026-04-05T10:04:04.73Z</time></trkpt><trkpt lat="45.6996497" lon="9.455294"><ele>205.66666666666666</ele><time>2026-04-05T10:04:06.73Z</time></trkpt><trkpt lat="45.6997155" lon="9.455305"><ele>206.83333333333331</ele><time>2026-04-05T10:04:07.729Z</time></trkpt><trkpt lat="45.6998297" lon="9.4553665"><ele>208.0</ele><time>2026-04-05T10:04:09.73Z</time></trkpt><trkpt lat="45.6998833" lon="9.4554168"><ele>206.4</ele><time>2026-04-05T10:04:10.73Z</time></trkpt><trkpt lat="45.6999666" lon="9.4555206"><ele>204.8</ele><time>2026-04-05T10:04:12.73Z</time></trkpt><trkpt lat="45.7000493" lon="9.4556469"><ele>203.2</ele><time>2026-04-05T10:04:14.73Z</time></trkpt><trkpt lat="45.7000958" lon="9.4557109"><ele>201.6</ele><time>2026-04-05T10:04:15.729Z</time></trkpt><trkpt lat="45.7001892" lon="9.4558299"><ele>200.0</ele><time>2026-04-05T10:04:17.73Z</time></trkpt><trkpt lat="45.7002375" lon="9.4559001"><ele>200.00000000000003</ele><time>2026-04-05T10:04:18.73Z</time></trkpt><trkpt lat="45.7002901" lon="9.4559511"><ele>200.0</ele><time>2026-04-05T10:04:19.73Z</time></trkpt><trkpt lat="45.700341" lon="9.4560118"><ele>200.0</ele><time>2026-04-05T10:04:20.73Z</time></trkpt><trkpt lat="45.7003977" lon="9.4560758"><ele>200.0</ele><time>2026-04-05T10:04:21.73Z</time></trkpt><trkpt lat="45.700453" lon="9.4561372"><ele>200.00000000000003</ele><time>2026-04-05T10:04:22.73Z</time></trkpt><trkpt lat="45.7005191" lon="9.4562032"><ele>200.0</ele><time>2026-04-05T10:04:23.729Z</time></trkpt><trkpt lat="45.7006312" lon="9.4563338"><ele>199.0</ele><time>2026-04-05T10:04:25.73Z</time></trkpt><trkpt lat="45.7006816" lon="9.4564045"><ele>198.0</ele><time>2026-04-05T10:04:26.729Z</time></trkpt><trkpt lat="45.7007269" lon="9.456476"><ele>197.0</ele><time>2026-04-05T10:04:27.73Z</time></trkpt><trkpt lat="45.7008205" lon="9.456595"><ele>196.0</ele><time>2026-04-05T10:04:29.73Z</time></trkpt><trkpt lat="45.7008795" lon="9.4566623"><ele>195.0</ele><time>2026-04-05T10:04:30.729Z</time></trkpt><trkpt lat="45.7009581" lon="9.4567836"><ele>195.0</ele><time>2026-04-05T10:04:32.73Z</time></trkpt><trkpt lat="45.7010395" lon="9.4568865"><ele>195.0</ele><time>2026-04-05T10:04:34.729Z</time></trkpt><trkpt lat="45.7010946" lon="9.4569591"><ele>195.0</ele><time>2026-04-05T10:04:35.729Z</time></trkpt><trkpt lat="45.7011452" lon="9.4570215"><ele>195.0</ele><time>2026-04-05T10:04:36.73Z</time></trkpt><trkpt lat="45.7012402" lon="9.4571593"><ele>195.0</ele><time>2026-04-05T10:04:38.73Z</time></trkpt><trkpt lat="45.7013469" lon="9.4572965"><ele>195.57142857142856</ele><time>2026-04-05T10:04:40.73Z</time></trkpt><trkpt lat="45.7014055" lon="9.4573338"><ele>196.14285714285714</ele><time>2026-04-05T10:04:41.73Z</time></trkpt><trkpt lat="45.7014534" lon="9.4573976"><ele>196.71428571428572</ele><time>2026-04-05T10:04:42.73Z</time></trkpt><trkpt lat="45.7015055" lon="9.4574513"><ele>197.28571428571428</ele><time>2026-04-05T10:04:43.73Z</time></trkpt><trkpt lat="45.7015676" lon="9.4574994"><ele>197.85714285714286</ele><time>2026-04-05T10:04:44.73Z</time></trkpt><trkpt lat="45.7016418" lon="9.4575665"><ele>198.42857142857142</ele><time>2026-04-05T10:04:46.73Z</time></trkpt><trkpt lat="45.7017056" lon="9.4576085"><ele>199.0</ele><time>2026-04-05T10:04:47.729Z</time></trkpt><trkpt lat="45.701794" lon="9.4576743"><ele>199.0</ele><time>2026-04-05T10:04:49.729Z</time></trkpt><trkpt lat="45.7018988" lon="9.4577383"><ele>199.0</ele><time>2026-04-05T10:04:51.73Z</time></trkpt><trkpt lat="45.7019915" lon="9.4577781"><ele>199.0</ele><time>2026-04-05T10:04:53.73Z</time></trkpt><trkpt lat="45.7020943" lon="9.4578454"><ele>199.0</ele><time>2026-04-05T10:04:55.73Z</time></trkpt><trkpt lat="45.702158" lon="9.4578817"><ele>199.0</ele><time>2026-04-05T10:04:56.729Z</time></trkpt><trkpt lat="45.7022343" lon="9.4579177"><ele>199.28571428571428</ele><time>2026-04-05T10:04:57.73Z</time></trkpt><trkpt lat="45.7023034" lon="9.4579481"><ele>199.57142857142856</ele><time>2026-04-05T10:04:58.73Z</time></trkpt><trkpt lat="45.702385" lon="9.4579838"><ele>199.85714285714283</ele><time>2026-04-05T10:04:59.73Z</time></trkpt><trkpt lat="45.7024589" lon="9.4579978"><ele>200.14285714285714</ele><time>2026-04-05T10:05:00.729Z</time></trkpt><trkpt lat="45.7025227" lon="9.458027"><ele>200.42857142857144</ele><time>2026-04-05T10:05:01.73Z</time></trkpt><trkpt lat="45.7025813" lon="9.4580664"><ele>200.7142857142857</ele><time>2026-04-05T10:05:02.73Z</time></trkpt><trkpt lat="45.7026491" lon="9.4580879"><ele>201.0</ele><time>2026-04-05T10:05:03.73Z</time></trkpt><trkpt lat="45.7027165" lon="9.4580709"><ele>201.5</ele><time>2026-04-05T10:05:04.73Z</time></trkpt><trkpt lat="45.7027988" lon="9.4580696"><ele>202.0</ele><time>2026-04-05T10:05:05.729Z</time></trkpt><trkpt lat="45.702871" lon="9.4580488"><ele>202.5</ele><time>2026-04-05T10:05:06.73Z</time></trkpt><trkpt lat="45.7029427" lon="9.4580335"><ele>203.0</ele><time>2026-04-05T10:05:07.73Z</time></trkpt><trkpt lat="45.7030078" lon="9.4580073"><ele>203.5</ele><time>2026-04-05T10:05:08.729Z</time></trkpt><trkpt lat="45.7031359" lon="9.4579706"><ele>204.0</ele><time>2026-04-05T10:05:10.73Z</time></trkpt><trkpt lat="45.703205" lon="9.4579352"><ele>204.75</ele><time>2026-04-05T10:05:11.729Z</time></trkpt><trkpt lat="45.7033257" lon="9.4579"><ele>205.5</ele><time>2026-04-05T10:05:13.729Z</time></trkpt><trkpt lat="45.7034446" lon="9.4578501"><ele>206.25</ele><time>2026-04-05T10:05:15.73Z</time></trkpt><trkpt lat="45.7035702" lon="9.4577762"><ele>207.0</ele><time>2026-04-05T10:05:17.73Z</time></trkpt><trkpt lat="45.7036426" lon="9.457757"><ele>207.0</ele><time>2026-04-05T10:05:18.73Z</time></trkpt><trkpt lat="45.70369" lon="9.4576661"><ele>207.0</ele><time>2026-04-05T10:05:19.73Z</time></trkpt><trkpt lat="45.7037513" lon="9.4576055"><ele>207.0</ele><time>2026-04-05T10:05:20.73Z</time></trkpt><trkpt lat="45.7038274" lon="9.4575049"><ele>207.0</ele><time>2026-04-05T10:05:22.73Z</time></trkpt><trkpt lat="45.7038905" lon="9.4574657"><ele>207.0</ele><time>2026-04-05T10:05:23.73Z</time></trkpt><trkpt lat="45.7039688" lon="9.4573693"><ele>207.0</ele><time>2026-04-05T10:05:24.73Z</time></trkpt><trkpt lat="45.7040226" lon="9.4573043"><ele>207.0</ele><time>2026-04-05T10:05:25.73Z</time></trkpt><trkpt lat="45.7040806" lon="9.4572577"><ele>207.0</ele><time>2026-04-05T10:05:26.73Z</time></trkpt><trkpt lat="45.7041833" lon="9.4571462"><ele>207.0</ele><time>2026-04-05T10:05:28.73Z</time></trkpt><trkpt lat="45.7042763" lon="9.4570401"><ele>207.0</ele><time>2026-04-05T10:05:30.73Z</time></trkpt><trkpt lat="45.7043732" lon="9.4569417"><ele>207.0</ele><time>2026-04-05T10:05:32.73Z</time></trkpt><trkpt lat="45.7044233" lon="9.4568673"><ele>206.83333333333334</ele><time>2026-04-05T10:05:33.73Z</time></trkpt><trkpt lat="45.7044855" lon="9.4568391"><ele>206.66666666666669</ele><time>2026-04-05T10:05:34.73Z</time></trkpt><trkpt lat="45.704553" lon="9.4567854"><ele>206.5</ele><time>2026-04-05T10:05:35.73Z</time></trkpt><trkpt lat="45.7046175" lon="9.4567521"><ele>206.33333333333334</ele><time>2026-04-05T10:05:36.729Z</time></trkpt><trkpt lat="45.7046828" lon="9.4567117"><ele>206.16666666666669</ele><time>2026-04-05T10:05:37.73Z</time></trkpt><trkpt lat="45.7047974" lon="9.4567122"><ele>206.0</ele><time>2026-04-05T10:05:39.73Z</time></trkpt><trkpt lat="45.7049263" lon="9.4567275"><ele>206.00000000000003</ele><time>2026-04-05T10:05:41.729Z</time></trkpt><trkpt lat="45.7049919" lon="9.4567571"><ele>206.0</ele><time>2026-04-05T10:05:42.73Z</time></trkpt><trkpt lat="45.7051034" lon="9.4568154"><ele>206.0</ele><time>2026-04-05T10:05:44.73Z</time></trkpt><trkpt lat="45.7051695" lon="9.4568509"><ele>206.0</ele><time>2026-04-05T10:05:45.729Z</time></trkpt><trkpt lat="45.7052488" lon="9.4568568"><ele>206.00000000000003</ele><time>2026-04-05T10:05:46.73Z</time></trkpt><trkpt lat="45.7053454" lon="9.4569159"><ele>206.0</ele><time>2026-04-05T10:05:48.729Z</time></trkpt><trkpt lat="45.7054659" lon="9.4569139"><ele>205.8</ele><time>2026-04-05T10:05:51.73Z</time></trkpt><trkpt lat="45.7055752" lon="9.456876"><ele>205.60000000000002</ele><time>2026-04-05T10:05:54.729Z</time></trkpt><trkpt lat="45.7056719" lon="9.4568261"><ele>205.4</ele><time>2026-04-05T10:05:56.73Z</time></trkpt><trkpt lat="45.7057896" lon="9.4567789"><ele>205.2</ele><time>2026-04-05T10:05:58.73Z</time></trkpt><trkpt lat="45.7058584" lon="9.4567028"><ele>205.0</ele><time>2026-04-05T10:05:59.729Z</time></trkpt><trkpt lat="45.7059339" lon="9.4566382"><ele>204.99999999999997</ele><time>2026-04-05T10:06:01.729Z</time></trkpt><trkpt lat="45.7060145" lon="9.4566926"><ele>205.0</ele><time>2026-04-05T10:06:05.73Z</time></trkpt><trkpt lat="45.7060766" lon="9.4567135"><ele>205.0</ele><time>2026-04-05T10:06:07.73Z</time></trkpt><trkpt lat="45.7061719" lon="9.4567271"><ele>205.0</ele><time>2026-04-05T10:06:09.729Z</time></trkpt><trkpt lat="45.7062515" lon="9.4567637"><ele>204.99999999999997</ele><time>2026-04-05T10:06:11.729Z</time></trkpt><trkpt lat="45.7063491" lon="9.4568051"><ele>205.0</ele><time>2026-04-05T10:06:14.73Z</time></trkpt><trkpt lat="45.706594" lon="9.4568299"><ele>204.2</ele><time>2026-04-05T10:06:18.729Z</time></trkpt><trkpt lat="45.7066581" lon="9.4568237"><ele>203.4</ele><time>2026-04-05T10:06:19.73Z</time></trkpt><trkpt lat="45.7067787" lon="9.4568129"><ele>202.60000000000002</ele><time>2026-04-05T10:06:21.73Z</time></trkpt><trkpt lat="45.7068877" lon="9.4567808"><ele>201.8</ele><time>2026-04-05T10:06:23.73Z</time></trkpt><trkpt lat="45.7069986" lon="9.4567356"><ele>201.0</ele><time>2026-04-05T10:06:25.73Z</time></trkpt><trkpt lat="45.7070582" lon="9.4567018"><ele>200.16666666666666</ele><time>2026-04-05T10:06:27.729Z</time></trkpt><trkpt lat="45.7071165" lon="9.4566422"><ele>199.33333333333331</ele><time>2026-04-05T10:06:29.73Z</time></trkpt><trkpt lat="45.7072209" lon="9.4566135"><ele>198.5</ele><time>2026-04-05T10:06:33.73Z</time></trkpt><trkpt lat="45.707289" lon="9.4565653"><ele>197.66666666666666</ele><time>2026-04-05T10:06:35.73Z</time></trkpt><trkpt lat="45.7073576" lon="9.4565102"><ele>196.83333333333331</ele><time>2026-04-05T10:06:37.73Z</time></trkpt><trkpt lat="45.7074332" lon="9.4564524"><ele>196.0</ele><time>2026-04-05T10:06:39.729Z</time></trkpt><trkpt lat="45.7074888" lon="9.4563791"><ele>195.99999999999997</ele><time>2026-04-05T10:06:41.73Z</time></trkpt><trkpt lat="45.7075223" lon="9.4562867"><ele>196.0</ele><time>2026-04-05T10:06:43.73Z</time></trkpt><trkpt lat="45.707533" lon="9.4561568"><ele>196.0</ele><time>2026-04-05T10:06:46.73Z</time></trkpt><trkpt lat="45.7075089" lon="9.4560477"><ele>196.0</ele><time>2026-04-05T10:06:49.729Z</time></trkpt><trkpt lat="45.7074919" lon="9.4559448"><ele>195.99999999999997</ele><time>2026-04-05T10:06:52.73Z</time></trkpt><trkpt lat="45.7074502" lon="9.4558379"><ele>196.0</ele><time>2026-04-05T10:06:56.729Z</time></trkpt><trkpt lat="45.7074075" lon="9.4557535"><ele>196.85714285714286</ele><time>2026-04-05T10:06:59.73Z</time></trkpt><trkpt lat="45.7073666" lon="9.4556552"><ele>197.71428571428572</ele><time>2026-04-05T10:07:03.73Z</time></trkpt><trkpt lat="45.7073222" lon="9.455553"><ele>198.57142857142856</ele><time>2026-04-05T10:07:07.73Z</time></trkpt><trkpt lat="45.7072848" lon="9.4554727"><ele>199.42857142857144</ele><time>2026-04-05T10:07:10.73Z</time></trkpt><trkpt lat="45.7072517" lon="9.4553913"><ele>200.28571428571428</ele><time>2026-04-05T10:07:13.729Z</time></trkpt><trkpt lat="45.7072302" lon="9.4553023"><ele>201.14285714285714</ele><time>2026-04-05T10:07:16.73Z</time></trkpt><trkpt lat="45.7072135" lon="9.4552134"><ele>202.0</ele><time>2026-04-05T10:07:19.729Z</time></trkpt><trkpt lat="45.7071895" lon="9.4551227"><ele>203.33333333333331</ele><time>2026-04-05T10:07:22.73Z</time></trkpt><trkpt lat="45.7071638" lon="9.4550293"><ele>204.66666666666666</ele><time>2026-04-05T10:07:25.73Z</time></trkpt><trkpt lat="45.7071391" lon="9.4549334"><ele>206.0</ele><time>2026-04-05T10:07:28.73Z</time></trkpt><trkpt lat="45.7071123" lon="9.4548283"><ele>207.33333333333331</ele><time>2026-04-05T10:07:31.729Z</time></trkpt><trkpt lat="45.7070866" lon="9.4547312"><ele>208.66666666666666</ele><time>2026-04-05T10:07:34.73Z</time></trkpt><trkpt lat="45.7070379" lon="9.4546437"><ele>210.0</ele><time>2026-04-05T10:07:36.73Z</time></trkpt><trkpt lat="45.7069638" lon="9.4545437"><ele>211.2</ele><time>2026-04-05T10:07:38.729Z</time></trkpt><trkpt lat="45.706897" lon="9.454462"><ele>212.4</ele><time>2026-04-05T10:07:40.73Z</time></trkpt><trkpt lat="45.7068564" lon="9.4543717"><ele>213.60000000000002</ele><time>2026-04-05T10:07:45.73Z</time></trkpt><trkpt lat="45.7069278" lon="9.454432"><ele>214.8</ele><time>2026-04-05T10:07:47.73Z</time></trkpt><trkpt lat="45.7068717" lon="9.4542501"><ele>216.0</ele><time>2026-04-05T10:07:54.723Z</time></trkpt><trkpt lat="45.706847" lon="9.4541497"><ele>217.42857142857142</ele><time>2026-04-05T10:07:58.718Z</time></trkpt><trkpt lat="45.7068132" lon="9.454048"><ele>218.85714285714283</ele><time>2026-04-05T10:08:02.718Z</time></trkpt><trkpt lat="45.7067924" lon="9.4539604"><ele>220.28571428571428</ele><time>2026-04-05T10:08:05.718Z</time></trkpt><trkpt lat="45.7067671" lon="9.4538565"><ele>221.71428571428572</ele><time>2026-04-05T10:08:09.717Z</time></trkpt><trkpt lat="45.7067385" lon="9.4537597"><ele>223.14285714285714</ele><time>2026-04-05T10:08:13.718Z</time></trkpt><trkpt lat="45.7067329" lon="9.4536606"><ele>224.57142857142858</ele><time>2026-04-05T10:08:17.718Z</time></trkpt><trkpt lat="45.7067367" lon="9.4535596"><ele>226.0</ele><time>2026-04-05T10:08:21.718Z</time></trkpt><trkpt lat="45.7067399" lon="9.453465"><ele>227.16666666666666</ele><time>2026-04-05T10:08:25.718Z</time></trkpt><trkpt lat="45.7067339" lon="9.4533637"><ele>228.33333333333331</ele><time>2026-04-05T10:08:29.718Z</time></trkpt><trkpt lat="45.7067422" lon="9.453255"><ele>229.5</ele><time>2026-04-05T10:08:33.718Z</time></trkpt><trkpt lat="45.7067519" lon="9.4531526"><ele>230.66666666666669</ele><time>2026-04-05T10:08:37.718Z</time></trkpt><trkpt lat="45.7067772" lon="9.4530623"><ele>231.83333333333334</ele><time>2026-04-05T10:08:42.717Z</time></trkpt><trkpt lat="45.7067921" lon="9.4529593"><ele>233.0</ele><time>2026-04-05T10:08:46.718Z</time></trkpt><trkpt lat="45.7068277" lon="9.4527278"><ele>233.28571428571428</ele><time>2026-04-05T10:08:51.717Z</time></trkpt><trkpt lat="45.7068455" lon="9.4526266"><ele>233.57142857142856</ele><time>2026-04-05T10:08:53.718Z</time></trkpt><trkpt lat="45.7068521" lon="9.4525293"><ele>233.85714285714283</ele><time>2026-04-05T10:08:56.718Z</time></trkpt><trkpt lat="45.7068608" lon="9.4524354"><ele>234.14285714285714</ele><time>2026-04-05T10:09:01.718Z</time></trkpt><trkpt lat="45.7068763" lon="9.4523386"><ele>234.4285714285714</ele><time>2026-04-05T10:09:05.718Z</time></trkpt><trkpt lat="45.7068921" lon="9.4522405"><ele>234.7142857142857</ele><time>2026-04-05T10:09:08.717Z</time></trkpt><trkpt lat="45.7069129" lon="9.4521203"><ele>235.0</ele><time>2026-04-05T10:09:11.718Z</time></trkpt><trkpt lat="45.7069119" lon="9.45194"><ele>235.83333333333331</ele><time>2026-04-05T10:09:20.718Z</time></trkpt><trkpt lat="45.7069107" lon="9.4518245"><ele>236.66666666666666</ele><time>2026-04-05T10:09:23.718Z</time></trkpt><trkpt lat="45.7069048" lon="9.451708"><ele>237.5</ele><time>2026-04-05T10:09:26.718Z</time></trkpt><trkpt lat="45.7068992" lon="9.4515896"><ele>238.33333333333331</ele><time>2026-04-05T10:09:29.718Z</time></trkpt><trkpt lat="45.7068895" lon="9.4514645"><ele>239.16666666666666</ele><time>2026-04-05T10:09:32.717Z</time></trkpt><trkpt lat="45.7068777" lon="9.4513453"><ele>240.0</ele><time>2026-04-05T10:09:35.718Z</time></trkpt><trkpt lat="45.7068633" lon="9.4512171"><ele>240.0</ele><time>2026-04-05T10:09:38.718Z</time></trkpt><trkpt lat="45.7068412" lon="9.4511279"><ele>240.0</ele><time>2026-04-05T10:09:40.718Z</time></trkpt><trkpt lat="45.7068341" lon="9.451011"><ele>240.0</ele><time>2026-04-05T10:09:43.718Z</time></trkpt><trkpt lat="45.7068202" lon="9.4508828"><ele>240.0</ele><time>2026-04-05T10:09:46.718Z</time></trkpt><trkpt lat="45.7068089" lon="9.4507876"><ele>240.0</ele><time>2026-04-05T10:09:48.718Z</time></trkpt><trkpt lat="45.7067977" lon="9.4506824"><ele>240.0</ele><time>2026-04-05T10:09:50.718Z</time></trkpt><trkpt lat="45.7067855" lon="9.450574"><ele>240.0</ele><time>2026-04-05T10:09:52.718Z</time></trkpt><trkpt lat="45.7067707" lon="9.4504669"><ele>240.0</ele><time>2026-04-05T10:09:54.717Z</time></trkpt><trkpt lat="45.7067607" lon="9.4503608"><ele>240.0</ele><time>2026-04-05T10:09:56.718Z</time></trkpt><trkpt lat="45.7067549" lon="9.4502606"><ele>240.0</ele><time>2026-04-05T10:09:58.718Z</time></trkpt><trkpt lat="45.7067521" lon="9.4501654"><ele>240.0</ele><time>2026-04-05T10:10:00.717Z</time></trkpt><trkpt lat="45.7067492" lon="9.4500629"><ele>240.0</ele><time>2026-04-05T10:10:02.718Z</time></trkpt><trkpt lat="45.7067491" lon="9.4499556"><ele>240.0</ele><time>2026-04-05T10:10:04.718Z</time></trkpt><trkpt lat="45.7067498" lon="9.4498455"><ele>240.5</ele><time>2026-04-05T10:10:06.717Z</time></trkpt><trkpt lat="45.706759" lon="9.4497357"><ele>241.0</ele><time>2026-04-05T10:10:08.717Z</time></trkpt><trkpt lat="45.7067843" lon="9.4496258"><ele>241.5</ele><time>2026-04-05T10:10:10.717Z</time></trkpt><trkpt lat="45.7068388" lon="9.4495237"><ele>242.0</ele><time>2026-04-05T10:10:12.718Z</time></trkpt><trkpt lat="45.7069116" lon="9.4494704"><ele>242.5</ele><time>2026-04-05T10:10:14.718Z</time></trkpt><trkpt lat="45.7069822" lon="9.4494469"><ele>243.0</ele><time>2026-04-05T10:10:16.718Z</time></trkpt><trkpt lat="45.7070496" lon="9.4494419"><ele>243.4</ele><time>2026-04-05T10:10:18.718Z</time></trkpt><trkpt lat="45.7071444" lon="9.4494127"><ele>243.8</ele><time>2026-04-05T10:10:20.718Z</time></trkpt><trkpt lat="45.7072061" lon="9.4493945"><ele>244.2</ele><time>2026-04-05T10:10:21.718Z</time></trkpt><trkpt lat="45.7073213" lon="9.4493644"><ele>244.6</ele><time>2026-04-05T10:10:23.717Z</time></trkpt><trkpt lat="45.7074315" lon="9.4493316"><ele>245.0</ele><time>2026-04-05T10:10:25.717Z</time></trkpt><trkpt lat="45.7075546" lon="9.4492947"><ele>245.00000000000003</ele><time>2026-04-05T10:10:27.718Z</time></trkpt><trkpt lat="45.7076185" lon="9.449276"><ele>245.0</ele><time>2026-04-05T10:10:28.718Z</time></trkpt><trkpt lat="45.7076859" lon="9.4492605"><ele>245.0</ele><time>2026-04-05T10:10:29.718Z</time></trkpt><trkpt lat="45.7077528" lon="9.4492451"><ele>245.0</ele><time>2026-04-05T10:10:30.718Z</time></trkpt><trkpt lat="45.7078196" lon="9.449233"><ele>245.00000000000003</ele><time>2026-04-05T10:10:31.718Z</time></trkpt><trkpt lat="45.7079586" lon="9.4492116"><ele>245.0</ele><time>2026-04-05T10:10:32.718Z</time></trkpt><trkpt lat="45.7080811" lon="9.4491803"><ele>244.83333333333334</ele><time>2026-04-05T10:10:34.717Z</time></trkpt><trkpt lat="45.7081988" lon="9.4491492"><ele>244.66666666666669</ele><time>2026-04-05T10:10:36.718Z</time></trkpt><trkpt lat="45.7082634" lon="9.4491353"><ele>244.5</ele><time>2026-04-05T10:10:37.718Z</time></trkpt><trkpt lat="45.7083881" lon="9.4491061"><ele>244.33333333333331</ele><time>2026-04-05T10:10:39.718Z</time></trkpt><trkpt lat="45.7084537" lon="9.4490939"><ele>244.16666666666666</ele><time>2026-04-05T10:10:40.718Z</time></trkpt><trkpt lat="45.7085163" lon="9.4490761"><ele>244.0</ele><time>2026-04-05T10:10:41.718Z</time></trkpt><trkpt lat="45.7085868" lon="9.4490624"><ele>243.79999999999998</ele><time>2026-04-05T10:10:42.717Z</time></trkpt><trkpt lat="45.7086503" lon="9.4490451"><ele>243.59999999999997</ele><time>2026-04-05T10:10:43.718Z</time></trkpt><trkpt lat="45.7087759" lon="9.4490043"><ele>243.4</ele><time>2026-04-05T10:10:45.718Z</time></trkpt><trkpt lat="45.7088393" lon="9.4489958"><ele>243.2</ele><time>2026-04-05T10:10:46.718Z</time></trkpt><trkpt lat="45.7089129" lon="9.4489838"><ele>243.0</ele><time>2026-04-05T10:10:47.718Z</time></trkpt><trkpt lat="45.7090344" lon="9.448953"><ele>243.0</ele><time>2026-04-05T10:10:49.718Z</time></trkpt><trkpt lat="45.7091656" lon="9.4489218"><ele>243.0</ele><time>2026-04-05T10:10:51.718Z</time></trkpt><trkpt lat="45.7092345" lon="9.4489074"><ele>243.0</ele><time>2026-04-05T10:10:52.718Z</time></trkpt><trkpt lat="45.7093" lon="9.4489008"><ele>243.0</ele><time>2026-04-05T10:10:53.717Z</time></trkpt><trkpt lat="45.7093717" lon="9.4489004"><ele>243.0</ele><time>2026-04-05T10:10:54.717Z</time></trkpt><trkpt lat="45.7094364" lon="9.4488932"><ele>243.0</ele><time>2026-04-05T10:10:55.717Z</time></trkpt><trkpt lat="45.7095045" lon="9.4488848"><ele>243.28571428571428</ele><time>2026-04-05T10:10:56.718Z</time></trkpt><trkpt lat="45.7095729" lon="9.4488718"><ele>243.57142857142858</ele><time>2026-04-05T10:10:57.718Z</time></trkpt><trkpt lat="45.7096423" lon="9.4488606"><ele>243.85714285714286</ele><time>2026-04-05T10:10:58.718Z</time></trkpt><trkpt lat="45.7097123" lon="9.4488505"><ele>244.14285714285714</ele><time>2026-04-05T10:10:59.718Z</time></trkpt><trkpt lat="45.7097809" lon="9.4488358"><ele>244.42857142857144</ele><time>2026-04-05T10:11:00.718Z</time></trkpt><trkpt lat="45.7098549" lon="9.4488246"><ele>244.71428571428572</ele><time>2026-04-05T10:11:01.717Z</time></trkpt><trkpt lat="45.7099288" lon="9.4488038"><ele>245.0</ele><time>2026-04-05T10:11:02.718Z</time></trkpt><trkpt lat="45.7099975" lon="9.4487855"><ele>245.28571428571428</ele><time>2026-04-05T10:11:03.717Z</time></trkpt><trkpt lat="45.7100591" lon="9.448766"><ele>245.57142857142856</ele><time>2026-04-05T10:11:04.717Z</time></trkpt><trkpt lat="45.7101257" lon="9.4487439"><ele>245.85714285714286</ele><time>2026-04-05T10:11:05.718Z</time></trkpt><trkpt lat="45.7101916" lon="9.4487116"><ele>246.14285714285714</ele><time>2026-04-05T10:11:06.717Z</time></trkpt><trkpt lat="45.7102597" lon="9.448677"><ele>246.42857142857142</ele><time>2026-04-05T10:11:07.718Z</time></trkpt><trkpt lat="45.7103273" lon="9.4486359"><ele>246.71428571428572</ele><time>2026-04-05T10:11:08.718Z</time></trkpt><trkpt lat="45.7103912" lon="9.448599"><ele>247.0</ele><time>2026-04-05T10:11:09.718Z</time></trkpt><trkpt lat="45.7104557" lon="9.4485518"><ele>247.0</ele><time>2026-04-05T10:11:10.718Z</time></trkpt><trkpt lat="45.7105173" lon="9.448502"><ele>247.0</ele><time>2026-04-05T10:11:11.718Z</time></trkpt><trkpt lat="45.7106164" lon="9.4484045"><ele>247.0</ele><time>2026-04-05T10:11:13.718Z</time></trkpt><trkpt lat="45.7107163" lon="9.448313"><ele>247.0</ele><time>2026-04-05T10:11:15.718Z</time></trkpt><trkpt lat="45.7107754" lon="9.4482775"><ele>247.0</ele><time>2026-04-05T10:11:16.717Z</time></trkpt><trkpt lat="45.7108662" lon="9.4481817"><ele>246.99999999999997</ele><time>2026-04-05T10:11:18.718Z</time></trkpt><trkpt lat="45.7108897" lon="9.4480454"><ele>247.0</ele><time>2026-04-05T10:11:21.718Z</time></trkpt><trkpt lat="45.7108363" lon="9.4479086"><ele>247.0</ele><time>2026-04-05T10:11:23.717Z</time></trkpt><trkpt lat="45.7108303" lon="9.4477981"><ele>247.0</ele><time>2026-04-05T10:11:25.718Z</time></trkpt><trkpt lat="45.7108499" lon="9.4476863"><ele>246.99999999999997</ele><time>2026-04-05T10:11:28.718Z</time></trkpt><trkpt lat="45.710901" lon="9.4475953"><ele>247.0</ele><time>2026-04-05T10:11:32.718Z</time></trkpt><trkpt lat="45.7109468" lon="9.4475129"><ele>248.2</ele><time>2026-04-05T10:11:36.718Z</time></trkpt><trkpt lat="45.7109996" lon="9.4474159"><ele>249.39999999999998</ele><time>2026-04-05T10:11:40.718Z</time></trkpt><trkpt lat="45.7110568" lon="9.4473399"><ele>250.60000000000002</ele><time>2026-04-05T10:11:45.718Z</time></trkpt><trkpt lat="45.711107" lon="9.4472642"><ele>251.8</ele><time>2026-04-05T10:11:49.725Z</time></trkpt><trkpt lat="45.7112065" lon="9.447082"><ele>253.0</ele><time>2026-04-05T10:11:53.718Z</time></trkpt><trkpt lat="45.7112557" lon="9.4470182"><ele>255.16666666666666</ele><time>2026-04-05T10:11:56.718Z</time></trkpt><trkpt lat="45.7113204" lon="9.4469413"><ele>257.3333333333333</ele><time>2026-04-05T10:12:00.717Z</time></trkpt><trkpt lat="45.7113648" lon="9.4468738"><ele>259.5</ele><time>2026-04-05T10:12:03.718Z</time></trkpt><trkpt lat="45.7114173" lon="9.4468133"><ele>261.6666666666667</ele><time>2026-04-05T10:12:06.718Z</time></trkpt><trkpt lat="45.7114845" lon="9.4467432"><ele>263.83333333333337</ele><time>2026-04-05T10:12:10.718Z</time></trkpt><trkpt lat="45.7115391" lon="9.4466728"><ele>266.0</ele><time>2026-04-05T10:12:13.718Z</time></trkpt><trkpt lat="45.7115956" lon="9.446596"><ele>266.0</ele><time>2026-04-05T10:12:17.717Z</time></trkpt><trkpt lat="45.7116447" lon="9.4465213"><ele>266.0</ele><time>2026-04-05T10:12:21.718Z</time></trkpt><trkpt lat="45.7117028" lon="9.4464511"><ele>266.0</ele><time>2026-04-05T10:12:25.718Z</time></trkpt><trkpt lat="45.7117548" lon="9.446388"><ele>266.0</ele><time>2026-04-05T10:12:28.717Z</time></trkpt><trkpt lat="45.7118199" lon="9.4463083"><ele>266.0</ele><time>2026-04-05T10:12:32.718Z</time></trkpt><trkpt lat="45.7118656" lon="9.4462452"><ele>266.0</ele><time>2026-04-05T10:12:35.718Z</time></trkpt><trkpt lat="45.711935" lon="9.4461709"><ele>266.42857142857144</ele><time>2026-04-05T10:12:39.717Z</time></trkpt><trkpt lat="45.7119833" lon="9.4461119"><ele>266.8571428571429</ele><time>2026-04-05T10:12:42.718Z</time></trkpt><trkpt lat="45.7120351" lon="9.446045"><ele>267.2857142857143</ele><time>2026-04-05T10:12:45.718Z</time></trkpt><trkpt lat="45.7120885" lon="9.4459663"><ele>267.7142857142857</ele><time>2026-04-05T10:12:49.718Z</time></trkpt><trkpt lat="45.7121416" lon="9.4458929"><ele>268.14285714285717</ele><time>2026-04-05T10:12:52.718Z</time></trkpt><trkpt lat="45.7122023" lon="9.4458321"><ele>268.57142857142856</ele><time>2026-04-05T10:12:55.718Z</time></trkpt><trkpt lat="45.7122483" lon="9.4457665"><ele>269.0</ele><time>2026-04-05T10:12:58.718Z</time></trkpt><trkpt lat="45.712311" lon="9.4456887"><ele>269.0</ele><time>2026-04-05T10:13:02.717Z</time></trkpt><trkpt lat="45.7123644" lon="9.4456262"><ele>269.0</ele><time>2026-04-05T10:13:05.718Z</time></trkpt><trkpt lat="45.7124184" lon="9.4455499"><ele>269.0</ele><time>2026-04-05T10:13:08.718Z</time></trkpt><trkpt lat="45.7124767" lon="9.4454768"><ele>269.0</ele><time>2026-04-05T10:13:11.718Z</time></trkpt><trkpt lat="45.7125342" lon="9.44541"><ele>269.0</ele><time>2026-04-05T10:13:14.718Z</time></trkpt><trkpt lat="45.7125976" lon="9.4453325"><ele>269.0</ele><time>2026-04-05T10:13:18.718Z</time></trkpt><trkpt lat="45.7126486" lon="9.445279"><ele>269.0</ele><time>2026-04-05T10:13:23.717Z</time></trkpt><trkpt lat="45.7127008" lon="9.4452136"><ele>268.6666666666667</ele><time>2026-04-05T10:13:26.718Z</time></trkpt><trkpt lat="45.7127665" lon="9.4451364"><ele>268.33333333333337</ele><time>2026-04-05T10:13:30.718Z</time></trkpt><trkpt lat="45.7128334" lon="9.445067"><ele>268.0</ele><time>2026-04-05T10:13:33.718Z</time></trkpt><trkpt lat="45.7128912" lon="9.4449989"><ele>267.6666666666667</ele><time>2026-04-05T10:13:36.718Z</time></trkpt><trkpt lat="45.7129504" lon="9.4449283"><ele>267.3333333333333</ele><time>2026-04-05T10:13:39.718Z</time></trkpt><trkpt lat="45.713002" lon="9.4448393"><ele>267.0</ele><time>2026-04-05T10:13:42.718Z</time></trkpt><trkpt lat="45.7130505" lon="9.4447533"><ele>267.00000000000006</ele><time>2026-04-05T10:13:45.717Z</time></trkpt><trkpt lat="45.7130921" lon="9.4446466"><ele>267.0</ele><time>2026-04-05T10:13:49.718Z</time></trkpt><trkpt lat="45.7131246" lon="9.4445588"><ele>267.0</ele><time>2026-04-05T10:13:52.718Z</time></trkpt><trkpt lat="45.7131487" lon="9.4444658"><ele>267.0</ele><time>2026-04-05T10:13:55.718Z</time></trkpt><trkpt lat="45.7131827" lon="9.4443722"><ele>267.0</ele><time>2026-04-05T10:13:58.718Z</time></trkpt><trkpt lat="45.7132134" lon="9.4442786"><ele>267.00000000000006</ele><time>2026-04-05T10:14:01.718Z</time></trkpt><trkpt lat="45.7132438" lon="9.4441814"><ele>267.0</ele><time>2026-04-05T10:14:04.718Z</time></trkpt><trkpt lat="45.7132767" lon="9.4440841"><ele>270.8333333333333</ele><time>2026-04-05T10:14:07.717Z</time></trkpt><trkpt lat="45.7133216" lon="9.4439993"><ele>274.6666666666667</ele><time>2026-04-05T10:14:10.718Z</time></trkpt><trkpt lat="45.7133689" lon="9.4439132"><ele>278.5</ele><time>2026-04-05T10:14:13.718Z</time></trkpt><trkpt lat="45.7134254" lon="9.4438368"><ele>282.33333333333337</ele><time>2026-04-05T10:14:16.718Z</time></trkpt><trkpt lat="45.7134739" lon="9.4437532"><ele>286.1666666666667</ele><time>2026-04-05T10:14:19.718Z</time></trkpt><trkpt lat="45.7135187" lon="9.4436611"><ele>290.0</ele><time>2026-04-05T10:14:22.717Z</time></trkpt><trkpt lat="45.7135731" lon="9.4435783"><ele>290.0</ele><time>2026-04-05T10:14:25.718Z</time></trkpt><trkpt lat="45.7136319" lon="9.4434832"><ele>290.0</ele><time>2026-04-05T10:14:28.717Z</time></trkpt><trkpt lat="45.7136838" lon="9.4433987"><ele>290.0</ele><time>2026-04-05T10:14:31.717Z</time></trkpt><trkpt lat="45.7137416" lon="9.4433025"><ele>290.0</ele><time>2026-04-05T10:14:34.718Z</time></trkpt><trkpt lat="45.7137803" lon="9.4432245"><ele>290.0</ele><time>2026-04-05T10:14:36.718Z</time></trkpt><trkpt lat="45.7138194" lon="9.4431523"><ele>290.0</ele><time>2026-04-05T10:14:38.718Z</time></trkpt><trkpt lat="45.7138506" lon="9.4430723"><ele>290.0</ele><time>2026-04-05T10:14:40.718Z</time></trkpt><trkpt lat="45.7138725" lon="9.4429767"><ele>290.0</ele><time>2026-04-05T10:14:42.718Z</time></trkpt><trkpt lat="45.7138822" lon="9.4428775"><ele>290.0</ele><time>2026-04-05T10:14:44.718Z</time></trkpt><trkpt lat="45.7138851" lon="9.442771"><ele>290.0</ele><time>2026-04-05T10:14:46.718Z</time></trkpt><trkpt lat="45.7138931" lon="9.442666"><ele>290.0</ele><time>2026-04-05T10:14:48.718Z</time></trkpt><trkpt lat="45.7139084" lon="9.4425779"><ele>290.0</ele><time>2026-04-05T10:14:50.717Z</time></trkpt><trkpt lat="45.7139413" lon="9.4424574"><ele>290.0</ele><time>2026-04-05T10:14:53.718Z</time></trkpt><trkpt lat="45.7140274" lon="9.4424088"><ele>290.5</ele><time>2026-04-05T10:14:56.718Z</time></trkpt><trkpt lat="45.7141058" lon="9.4424277"><ele>291.0</ele><time>2026-04-05T10:15:01.718Z</time></trkpt><trkpt lat="45.714189" lon="9.4424381"><ele>291.5</ele><time>2026-04-05T10:15:05.718Z</time></trkpt><trkpt lat="45.7142636" lon="9.4424329"><ele>292.0</ele><time>2026-04-05T10:15:08.717Z</time></trkpt><trkpt lat="45.7143238" lon="9.442384"><ele>292.5</ele><time>2026-04-05T10:15:11.718Z</time></trkpt><trkpt lat="45.7143957" lon="9.4423491"><ele>293.0</ele><time>2026-04-05T10:15:14.718Z</time></trkpt><trkpt lat="45.7144764" lon="9.4423115"><ele>293.0</ele><time>2026-04-05T10:15:17.718Z</time></trkpt><trkpt lat="45.7145515" lon="9.4422681"><ele>293.0</ele><time>2026-04-05T10:15:20.718Z</time></trkpt><trkpt lat="45.714639" lon="9.4422044"><ele>293.0</ele><time>2026-04-05T10:15:23.717Z</time></trkpt><trkpt lat="45.7147069" lon="9.4421413"><ele>293.0</ele><time>2026-04-05T10:15:25.718Z</time></trkpt><trkpt lat="45.7147717" lon="9.4420847"><ele>293.0</ele><time>2026-04-05T10:15:27.717Z</time></trkpt><trkpt lat="45.7148381" lon="9.4420307"><ele>293.0</ele><time>2026-04-05T10:15:29.718Z</time></trkpt><trkpt lat="45.7149029" lon="9.4419786"><ele>294.99999999999994</ele><time>2026-04-05T10:15:31.718Z</time></trkpt><trkpt lat="45.7149659" lon="9.4419209"><ele>297.0</ele><time>2026-04-05T10:15:33.718Z</time></trkpt><trkpt lat="45.7150354" lon="9.4418667"><ele>299.0</ele><time>2026-04-05T10:15:35.718Z</time></trkpt><trkpt lat="45.7151028" lon="9.441811"><ele>301.0</ele><time>2026-04-05T10:15:37.718Z</time></trkpt><trkpt lat="45.7151653" lon="9.4417646"><ele>303.0</ele><time>2026-04-05T10:15:39.718Z</time></trkpt><trkpt lat="45.7152236" lon="9.4417099"><ele>304.99999999999994</ele><time>2026-04-05T10:15:41.718Z</time></trkpt><trkpt lat="45.7152833" lon="9.4416547"><ele>307.0</ele><time>2026-04-05T10:15:43.717Z</time></trkpt><trkpt lat="45.7153419" lon="9.4415921"><ele>307.0</ele><time>2026-04-05T10:15:45.718Z</time></trkpt><trkpt lat="45.7154081" lon="9.4415398"><ele>307.0</ele><time>2026-04-05T10:15:47.718Z</time></trkpt><trkpt lat="45.7154766" lon="9.4414747"><ele>307.0</ele><time>2026-04-05T10:15:49.718Z</time></trkpt><trkpt lat="45.7155478" lon="9.4414155"><ele>307.0</ele><time>2026-04-05T10:15:51.718Z</time></trkpt><trkpt lat="45.7156246" lon="9.4413625"><ele>307.0</ele><time>2026-04-05T10:15:53.718Z</time></trkpt><trkpt lat="45.7156931" lon="9.4413135"><ele>307.0</ele><time>2026-04-05T10:15:55.718Z</time></trkpt><trkpt lat="45.7157517" lon="9.4412616"><ele>307.99999999999994</ele><time>2026-04-05T10:15:57.718Z</time></trkpt><trkpt lat="45.7158091" lon="9.4412108"><ele>309.0</ele><time>2026-04-05T10:15:59.718Z</time></trkpt><trkpt lat="45.7158708" lon="9.4411652"><ele>310.0</ele><time>2026-04-05T10:16:01.718Z</time></trkpt><trkpt lat="45.7159316" lon="9.4411226"><ele>311.0</ele><time>2026-04-05T10:16:03.717Z</time></trkpt><trkpt lat="45.7159905" lon="9.4410664"><ele>312.0</ele><time>2026-04-05T10:16:05.717Z</time></trkpt><trkpt lat="45.7160467" lon="9.441012"><ele>312.99999999999994</ele><time>2026-04-05T10:16:07.718Z</time></trkpt><trkpt lat="45.7161074" lon="9.4409661"><ele>314.0</ele><time>2026-04-05T10:16:09.718Z</time></trkpt><trkpt lat="45.7161673" lon="9.4409093"><ele>314.0</ele><time>2026-04-05T10:16:11.718Z</time></trkpt><trkpt lat="45.7162261" lon="9.4408484"><ele>314.0</ele><time>2026-04-05T10:16:13.718Z</time></trkpt><trkpt lat="45.7162787" lon="9.4407942"><ele>314.0</ele><time>2026-04-05T10:16:15.718Z</time></trkpt><trkpt lat="45.7163577" lon="9.4407206"><ele>314.0</ele><time>2026-04-05T10:16:18.718Z</time></trkpt><trkpt lat="45.7164384" lon="9.4406491"><ele>314.0</ele><time>2026-04-05T10:16:21.718Z</time></trkpt><trkpt lat="45.7164997" lon="9.4406057"><ele>314.0</ele><time>2026-04-05T10:16:23.718Z</time></trkpt><trkpt lat="45.7165583" lon="9.4405594"><ele>314.0</ele><time>2026-04-05T10:16:25.718Z</time></trkpt><trkpt lat="45.7166272" lon="9.4405054"><ele>314.0</ele><time>2026-04-05T10:16:27.718Z</time></trkpt><trkpt lat="45.7166982" lon="9.4404271"><ele>314.0</ele><time>2026-04-05T10:16:29.718Z</time></trkpt><trkpt lat="45.7167514" lon="9.4403615"><ele>314.0</ele><time>2026-04-05T10:16:31.717Z</time></trkpt><trkpt lat="45.7168013" lon="9.4402996"><ele>314.0</ele><time>2026-04-05T10:16:33.718Z</time></trkpt><trkpt lat="45.7168629" lon="9.440215"><ele>314.0</ele><time>2026-04-05T10:16:36.718Z</time></trkpt><trkpt lat="45.7169138" lon="9.4401459"><ele>314.71428571428567</ele><time>2026-04-05T10:16:39.717Z</time></trkpt><trkpt lat="45.7169649" lon="9.4400919"><ele>315.42857142857144</ele><time>2026-04-05T10:16:42.718Z</time></trkpt><trkpt lat="45.7170239" lon="9.440007"><ele>316.1428571428571</ele><time>2026-04-05T10:16:48.677Z</time></trkpt><trkpt lat="45.717072" lon="9.4399401"><ele>316.85714285714283</ele><time>2026-04-05T10:16:51.492Z</time></trkpt><trkpt lat="45.717129" lon="9.4398587"><ele>317.57142857142856</ele><time>2026-04-05T10:16:54.718Z</time></trkpt><trkpt lat="45.7171811" lon="9.4397871"><ele>318.2857142857143</ele><time>2026-04-05T10:16:57.68Z</time></trkpt><trkpt lat="45.7172341" lon="9.4397131"><ele>319.0</ele><time>2026-04-05T10:17:00.734Z</time></trkpt><trkpt lat="45.7172846" lon="9.4396384"><ele>321.66666666666663</ele><time>2026-04-05T10:17:03.715Z</time></trkpt><trkpt lat="45.7173301" lon="9.4395628"><ele>324.3333333333333</ele><time>2026-04-05T10:17:06.473Z</time></trkpt><trkpt lat="45.717388" lon="9.439494"><ele>327.0</ele><time>2026-04-05T10:17:09.231Z</time></trkpt><trkpt lat="45.7174648" lon="9.4393937"><ele>329.6666666666667</ele><time>2026-04-05T10:17:12.718Z</time></trkpt><trkpt lat="45.7175138" lon="9.4393182"><ele>332.33333333333337</ele><time>2026-04-05T10:17:14.718Z</time></trkpt><trkpt lat="45.7175661" lon="9.4392325"><ele>335.0</ele><time>2026-04-05T10:17:16.717Z</time></trkpt><trkpt lat="45.7176528" lon="9.4390874"><ele>334.99999999999994</ele><time>2026-04-05T10:17:17.717Z</time></trkpt><trkpt lat="45.717698" lon="9.4390207"><ele>335.0</ele><time>2026-04-05T10:17:19.718Z</time></trkpt><trkpt lat="45.7177399" lon="9.4389494"><ele>335.0</ele><time>2026-04-05T10:17:21.718Z</time></trkpt><trkpt lat="45.717785" lon="9.4388838"><ele>335.0</ele><time>2026-04-05T10:17:23.717Z</time></trkpt><trkpt lat="45.7178305" lon="9.4388126"><ele>335.0</ele><time>2026-04-05T10:17:25.718Z</time></trkpt><trkpt lat="45.7178758" lon="9.4387295"><ele>334.99999999999994</ele><time>2026-04-05T10:17:27.717Z</time></trkpt><trkpt lat="45.7179218" lon="9.4386536"><ele>335.0</ele><time>2026-04-05T10:17:29.718Z</time></trkpt><trkpt lat="45.7179534" lon="9.4385648"><ele>333.83333333333337</ele><time>2026-04-05T10:17:31.718Z</time></trkpt><trkpt lat="45.717964" lon="9.4384701"><ele>332.6666666666667</ele><time>2026-04-05T10:17:33.717Z</time></trkpt><trkpt lat="45.7179705" lon="9.4383792"><ele>331.5</ele><time>2026-04-05T10:17:35.718Z</time></trkpt><trkpt lat="45.7179713" lon="9.438289"><ele>330.3333333333333</ele><time>2026-04-05T10:17:37.718Z</time></trkpt><trkpt lat="45.7179729" lon="9.4381518"><ele>329.16666666666663</ele><time>2026-04-05T10:17:40.718Z</time></trkpt><trkpt lat="45.7179774" lon="9.4380449"><ele>328.0</ele><time>2026-04-05T10:17:42.717Z</time></trkpt><trkpt lat="45.7179919" lon="9.4379236"><ele>328.0</ele><time>2026-04-05T10:17:44.718Z</time></trkpt><trkpt lat="45.7180021" lon="9.4377973"><ele>328.0</ele><time>2026-04-05T10:17:46.717Z</time></trkpt><trkpt lat="45.7180068" lon="9.4376536"><ele>328.0</ele><time>2026-04-05T10:17:48.718Z</time></trkpt><trkpt lat="45.7180186" lon="9.4375244"><ele>328.0</ele><time>2026-04-05T10:17:50.717Z</time></trkpt><trkpt lat="45.718035" lon="9.4373901"><ele>328.0</ele><time>2026-04-05T10:17:52.718Z</time></trkpt><trkpt lat="45.7180388" lon="9.4372613"><ele>328.0</ele><time>2026-04-05T10:17:54.718Z</time></trkpt><trkpt lat="45.7179876" lon="9.4371426"><ele>328.0</ele><time>2026-04-05T10:17:58.718Z</time></trkpt><trkpt lat="45.7179649" lon="9.4368547"><ele>328.0</ele><time>2026-04-05T10:17:59.718Z</time></trkpt><trkpt lat="45.717899" lon="9.436715"><ele>328.0</ele><time>2026-04-05T10:18:01.718Z</time></trkpt><trkpt lat="45.7178109" lon="9.4365772"><ele>328.79999999999995</ele><time>2026-04-05T10:18:03.717Z</time></trkpt><trkpt lat="45.717728" lon="9.436465"><ele>329.6</ele><time>2026-04-05T10:18:05.718Z</time></trkpt><trkpt lat="45.7176494" lon="9.4363501"><ele>330.4</ele><time>2026-04-05T10:18:07.718Z</time></trkpt><trkpt lat="45.7175664" lon="9.4362398"><ele>331.20000000000005</ele><time>2026-04-05T10:18:09.718Z</time></trkpt><trkpt lat="45.7175128" lon="9.4361772"><ele>332.0</ele><time>2026-04-05T10:18:10.718Z</time></trkpt><trkpt lat="45.7174499" lon="9.4360549"><ele>332.0</ele><time>2026-04-05T10:18:12.718Z</time></trkpt><trkpt lat="45.7174171" lon="9.4359777"><ele>332.0</ele><time>2026-04-05T10:18:13.717Z</time></trkpt><trkpt lat="45.7173845" lon="9.4358286"><ele>332.0</ele><time>2026-04-05T10:18:15.718Z</time></trkpt><trkpt lat="45.7173709" lon="9.4356711"><ele>332.0</ele><time>2026-04-05T10:18:17.718Z</time></trkpt><trkpt lat="45.7173647" lon="9.4355031"><ele>332.0</ele><time>2026-04-05T10:18:19.718Z</time></trkpt><trkpt lat="45.7174022" lon="9.4353455"><ele>331.8</ele><time>2026-04-05T10:18:21.718Z</time></trkpt><trkpt lat="45.7174466" lon="9.4351901"><ele>331.6</ele><time>2026-04-05T10:18:23.718Z</time></trkpt><trkpt lat="45.7174717" lon="9.4350347"><ele>331.40000000000003</ele><time>2026-04-05T10:18:25.717Z</time></trkpt><trkpt lat="45.7174824" lon="9.4349266"><ele>331.20000000000005</ele><time>2026-04-05T10:18:26.718Z</time></trkpt><trkpt lat="45.7174374" lon="9.4348125"><ele>331.0</ele><time>2026-04-05T10:18:28.718Z</time></trkpt><trkpt lat="45.71738" lon="9.4347312"><ele>331.0</ele><time>2026-04-05T10:18:30.717Z</time></trkpt><trkpt lat="45.7173129" lon="9.4346492"><ele>331.0</ele><time>2026-04-05T10:18:32.718Z</time></trkpt><trkpt lat="45.7172496" lon="9.4347098"><ele>331.0</ele><time>2026-04-05T10:18:38.718Z</time></trkpt><trkpt lat="45.7172023" lon="9.4348002"><ele>331.0</ele><time>2026-04-05T10:18:43.718Z</time></trkpt><trkpt lat="45.7171496" lon="9.4348925"><ele>331.0</ele><time>2026-04-05T10:18:48.718Z</time></trkpt><trkpt lat="45.7170918" lon="9.434935"><ele>331.0</ele><time>2026-04-05T10:18:51.718Z</time></trkpt><trkpt lat="45.7170859" lon="9.4350491"><ele>331.0</ele><time>2026-04-05T10:18:54.717Z</time></trkpt><trkpt lat="45.7170468" lon="9.4351409"><ele>331.0</ele><time>2026-04-05T10:18:57.717Z</time></trkpt><trkpt lat="45.7170112" lon="9.4352212"><ele>331.0</ele><time>2026-04-05T10:19:00.718Z</time></trkpt><trkpt lat="45.7169686" lon="9.4353039"><ele>331.0</ele><time>2026-04-05T10:19:03.718Z</time></trkpt><trkpt lat="45.7169406" lon="9.4353939"><ele>331.0</ele><time>2026-04-05T10:19:06.717Z</time></trkpt><trkpt lat="45.716902" lon="9.435472"><ele>331.0</ele><time>2026-04-05T10:19:10.717Z</time></trkpt><trkpt lat="45.7168716" lon="9.4355567"><ele>331.0</ele><time>2026-04-05T10:19:14.717Z</time></trkpt><trkpt lat="45.7168505" lon="9.4356502"><ele>333.42857142857144</ele><time>2026-04-05T10:19:18.718Z</time></trkpt><trkpt lat="45.7168457" lon="9.435764"><ele>335.85714285714283</ele><time>2026-04-05T10:19:22.718Z</time></trkpt><trkpt lat="45.7168417" lon="9.4358688"><ele>338.2857142857143</ele><time>2026-04-05T10:19:25.718Z</time></trkpt><trkpt lat="45.716811" lon="9.4359596"><ele>340.7142857142857</ele><time>2026-04-05T10:19:30.718Z</time></trkpt><trkpt lat="45.7167868" lon="9.4360531"><ele>343.14285714285717</ele><time>2026-04-05T10:19:33.718Z</time></trkpt><trkpt lat="45.716773" lon="9.4361638"><ele>345.57142857142856</ele><time>2026-04-05T10:19:38.718Z</time></trkpt><trkpt lat="45.7167531" lon="9.4362632"><ele>348.0</ele><time>2026-04-05T10:19:43.718Z</time></trkpt><trkpt lat="45.7167452" lon="9.4363711"><ele>348.42857142857144</ele><time>2026-04-05T10:19:46.718Z</time></trkpt><trkpt lat="45.7167404" lon="9.4364685"><ele>348.8571428571429</ele><time>2026-04-05T10:19:49.718Z</time></trkpt><trkpt lat="45.7167251" lon="9.4365697"><ele>349.28571428571433</ele><time>2026-04-05T10:19:52.717Z</time></trkpt><trkpt lat="45.7167008" lon="9.436665"><ele>349.7142857142857</ele><time>2026-04-05T10:19:56.718Z</time></trkpt><trkpt lat="45.7166946" lon="9.4367646"><ele>350.14285714285717</ele><time>2026-04-05T10:20:01.718Z</time></trkpt><trkpt lat="45.7166713" lon="9.4368555"><ele>350.5714285714286</ele><time>2026-04-05T10:20:05.718Z</time></trkpt><trkpt lat="45.7166332" lon="9.4369608"><ele>351.0</ele><time>2026-04-05T10:20:08.718Z</time></trkpt><trkpt lat="45.7165949" lon="9.4370562"><ele>351.5</ele><time>2026-04-05T10:20:11.718Z</time></trkpt><trkpt lat="45.7165726" lon="9.4371672"><ele>352.0</ele><time>2026-04-05T10:20:14.718Z</time></trkpt><trkpt lat="45.7165637" lon="9.4372787"><ele>352.5</ele><time>2026-04-05T10:20:17.718Z</time></trkpt><trkpt lat="45.7165709" lon="9.4373779"><ele>353.0</ele><time>2026-04-05T10:20:20.718Z</time></trkpt><trkpt lat="45.7165933" lon="9.4374747"><ele>353.5</ele><time>2026-04-05T10:20:23.717Z</time></trkpt><trkpt lat="45.7166286" lon="9.4375805"><ele>354.0</ele><time>2026-04-05T10:20:27.718Z</time></trkpt><trkpt lat="45.7166641" lon="9.4376803"><ele>354.0</ele><time>2026-04-05T10:20:29.718Z</time></trkpt><trkpt lat="45.7167143" lon="9.4377746"><ele>354.0</ele><time>2026-04-05T10:20:32.718Z</time></trkpt><trkpt lat="45.7167678" lon="9.437859"><ele>354.0</ele><time>2026-04-05T10:20:34.717Z</time></trkpt><trkpt lat="45.716825" lon="9.4379375"><ele>354.0</ele><time>2026-04-05T10:20:37.718Z</time></trkpt><trkpt lat="45.7168739" lon="9.438032"><ele>354.0</ele><time>2026-04-05T10:20:40.718Z</time></trkpt><trkpt lat="45.7168733" lon="9.4382046"><ele>354.0</ele><time>2026-04-05T10:20:43.717Z</time></trkpt><trkpt lat="45.7168596" lon="9.4383151"><ele>354.6</ele><time>2026-04-05T10:20:45.718Z</time></trkpt><trkpt lat="45.7168148" lon="9.4384186"><ele>355.2</ele><time>2026-04-05T10:20:48.718Z</time></trkpt><trkpt lat="45.7167644" lon="9.4385164"><ele>355.8</ele><time>2026-04-05T10:20:51.718Z</time></trkpt><trkpt lat="45.7167059" lon="9.4385811"><ele>356.40000000000003</ele><time>2026-04-05T10:20:53.717Z</time></trkpt><trkpt lat="45.7166335" lon="9.4387909"><ele>357.0</ele><time>2026-04-05T10:20:55.718Z</time></trkpt><trkpt lat="45.7165804" lon="9.4388585"><ele>355.1666666666667</ele><time>2026-04-05T10:20:57.718Z</time></trkpt><trkpt lat="45.7165227" lon="9.4389017"><ele>353.3333333333333</ele><time>2026-04-05T10:20:58.718Z</time></trkpt><trkpt lat="45.7164385" lon="9.4389587"><ele>351.5</ele><time>2026-04-05T10:21:00.718Z</time></trkpt><trkpt lat="45.7163665" lon="9.4390185"><ele>349.66666666666663</ele><time>2026-04-05T10:21:02.718Z</time></trkpt><trkpt lat="45.7162845" lon="9.4390893"><ele>347.8333333333333</ele><time>2026-04-05T10:21:04.717Z</time></trkpt><trkpt lat="45.7162197" lon="9.4391435"><ele>346.0</ele><time>2026-04-05T10:21:05.718Z</time></trkpt><trkpt lat="45.7161153" lon="9.4392187"><ele>347.3333333333333</ele><time>2026-04-05T10:21:07.718Z</time></trkpt><trkpt lat="45.7160225" lon="9.4392908"><ele>348.66666666666663</ele><time>2026-04-05T10:21:09.717Z</time></trkpt><trkpt lat="45.7159259" lon="9.439363"><ele>350.0</ele><time>2026-04-05T10:21:11.718Z</time></trkpt><trkpt lat="45.71586" lon="9.4394155"><ele>351.3333333333333</ele><time>2026-04-05T10:21:12.718Z</time></trkpt><trkpt lat="45.7157926" lon="9.4394606"><ele>352.6666666666667</ele><time>2026-04-05T10:21:13.717Z</time></trkpt><trkpt lat="45.7157375" lon="9.4395213"><ele>354.0</ele><time>2026-04-05T10:21:14.717Z</time></trkpt><trkpt lat="45.7156812" lon="9.4396003"><ele>352.0</ele><time>2026-04-05T10:21:15.717Z</time></trkpt><trkpt lat="45.7156137" lon="9.4396744"><ele>350.0</ele><time>2026-04-05T10:21:16.718Z</time></trkpt><trkpt lat="45.7155566" lon="9.4397444"><ele>348.0</ele><time>2026-04-05T10:21:17.718Z</time></trkpt><trkpt lat="45.7155057" lon="9.4398115"><ele>346.0</ele><time>2026-04-05T10:21:18.717Z</time></trkpt><trkpt lat="45.7154195" lon="9.4399143"><ele>344.0</ele><time>2026-04-05T10:21:20.718Z</time></trkpt><trkpt lat="45.7153051" lon="9.4399982"><ele>344.0</ele><time>2026-04-05T10:21:22.717Z</time></trkpt><trkpt lat="45.7152467" lon="9.4400408"><ele>344.0</ele><time>2026-04-05T10:21:23.718Z</time></trkpt><trkpt lat="45.7151712" lon="9.4400952"><ele>344.0</ele><time>2026-04-05T10:21:24.718Z</time></trkpt><trkpt lat="45.7151156" lon="9.4401623"><ele>344.0</ele><time>2026-04-05T10:21:25.718Z</time></trkpt><trkpt lat="45.7150408" lon="9.4402358"><ele>344.0</ele><time>2026-04-05T10:21:26.718Z</time></trkpt><trkpt lat="45.7149667" lon="9.4403167"><ele>344.0</ele><time>2026-04-05T10:21:28.718Z</time></trkpt><trkpt lat="45.7148901" lon="9.4403876"><ele>342.4</ele><time>2026-04-05T10:21:30.717Z</time></trkpt><trkpt lat="45.7147885" lon="9.4404749"><ele>340.79999999999995</ele><time>2026-04-05T10:21:32.717Z</time></trkpt><trkpt lat="45.7147287" lon="9.4405381"><ele>339.20000000000005</ele><time>2026-04-05T10:21:34.718Z</time></trkpt><trkpt lat="45.7146611" lon="9.4406274"><ele>337.6</ele><time>2026-04-05T10:21:36.718Z</time></trkpt><trkpt lat="45.7145671" lon="9.4407122"><ele>336.0</ele><time>2026-04-05T10:21:38.718Z</time></trkpt><trkpt lat="45.7144691" lon="9.4407813"><ele>336.0</ele><time>2026-04-05T10:21:40.717Z</time></trkpt><trkpt lat="45.7144125" lon="9.4408292"><ele>336.0</ele><time>2026-04-05T10:21:41.718Z</time></trkpt><trkpt lat="45.714326" lon="9.4409491"><ele>336.0</ele><time>2026-04-05T10:21:43.718Z</time></trkpt><trkpt lat="45.7142532" lon="9.4410234"><ele>336.0</ele><time>2026-04-05T10:21:45.717Z</time></trkpt><trkpt lat="45.7141529" lon="9.4410894"><ele>336.0</ele><time>2026-04-05T10:21:47.717Z</time></trkpt><trkpt lat="45.7140603" lon="9.4411312"><ele>337.1666666666667</ele><time>2026-04-05T10:21:50.718Z</time></trkpt><trkpt lat="45.7139927" lon="9.4411132"><ele>338.3333333333333</ele><time>2026-04-05T10:21:51.718Z</time></trkpt><trkpt lat="45.7138943" lon="9.4411137"><ele>339.5</ele><time>2026-04-05T10:21:53.718Z</time></trkpt><trkpt lat="45.7138308" lon="9.4411256"><ele>340.66666666666663</ele><time>2026-04-05T10:21:54.718Z</time></trkpt><trkpt lat="45.7137171" lon="9.4411169"><ele>341.8333333333333</ele><time>2026-04-05T10:21:56.718Z</time></trkpt><trkpt lat="45.713636" lon="9.4411101"><ele>343.0</ele><time>2026-04-05T10:21:57.718Z</time></trkpt><trkpt lat="45.7135611" lon="9.4410945"><ele>343.0</ele><time>2026-04-05T10:21:58.718Z</time></trkpt><trkpt lat="45.7134963" lon="9.4410729"><ele>343.0</ele><time>2026-04-05T10:21:59.717Z</time></trkpt><trkpt lat="45.71342" lon="9.4410522"><ele>343.0</ele><time>2026-04-05T10:22:00.718Z</time></trkpt><trkpt lat="45.7133275" lon="9.4410422"><ele>343.0</ele><time>2026-04-05T10:22:01.718Z</time></trkpt><trkpt lat="45.7132563" lon="9.4410331"><ele>343.0</ele><time>2026-04-05T10:22:02.718Z</time></trkpt><trkpt lat="45.7131703" lon="9.4410333"><ele>343.0</ele><time>2026-04-05T10:22:03.718Z</time></trkpt><trkpt lat="45.7130775" lon="9.440973"><ele>343.0</ele><time>2026-04-05T10:22:04.718Z</time></trkpt><trkpt lat="45.7129941" lon="9.44094"><ele>343.0</ele><time>2026-04-05T10:22:05.718Z</time></trkpt><trkpt lat="45.7128946" lon="9.4409133"><ele>343.0</ele><time>2026-04-05T10:22:06.718Z</time></trkpt><trkpt lat="45.7128234" lon="9.440857"><ele>343.0</ele><time>2026-04-05T10:22:07.717Z</time></trkpt><trkpt lat="45.7127438" lon="9.4408215"><ele>343.0</ele><time>2026-04-05T10:22:08.718Z</time></trkpt><trkpt lat="45.7126768" lon="9.4408022"><ele>343.0</ele><time>2026-04-05T10:22:09.718Z</time></trkpt><trkpt lat="45.7126071" lon="9.4407552"><ele>341.16666666666663</ele><time>2026-04-05T10:22:11.718Z</time></trkpt><trkpt lat="45.7125372" lon="9.4407369"><ele>339.3333333333333</ele><time>2026-04-05T10:22:13.717Z</time></trkpt><trkpt lat="45.7124625" lon="9.4407672"><ele>337.5</ele><time>2026-04-05T10:22:15.717Z</time></trkpt><trkpt lat="45.7124076" lon="9.4408398"><ele>335.6666666666667</ele><time>2026-04-05T10:22:17.718Z</time></trkpt><trkpt lat="45.7123364" lon="9.4409451"><ele>333.83333333333337</ele><time>2026-04-05T10:22:19.718Z</time></trkpt><trkpt lat="45.7122613" lon="9.4410778"><ele>332.0</ele><time>2026-04-05T10:22:21.718Z</time></trkpt><trkpt lat="45.7122214" lon="9.4411567"><ele>332.0</ele><time>2026-04-05T10:22:22.717Z</time></trkpt><trkpt lat="45.7121855" lon="9.4412449"><ele>332.0</ele><time>2026-04-05T10:22:23.718Z</time></trkpt><trkpt lat="45.7121323" lon="9.441332"><ele>332.0</ele><time>2026-04-05T10:22:24.718Z</time></trkpt><trkpt lat="45.7120885" lon="9.4414353"><ele>332.0</ele><time>2026-04-05T10:22:25.718Z</time></trkpt><trkpt lat="45.7119993" lon="9.4415781"><ele>332.0</ele><time>2026-04-05T10:22:27.718Z</time></trkpt><trkpt lat="45.7119203" lon="9.4416954"><ele>333.40000000000003</ele><time>2026-04-05T10:22:29.718Z</time></trkpt><trkpt lat="45.7118699" lon="9.4417763"><ele>334.8</ele><time>2026-04-05T10:22:31.718Z</time></trkpt><trkpt lat="45.7117938" lon="9.4418306"><ele>336.2</ele><time>2026-04-05T10:22:34.718Z</time></trkpt><trkpt lat="45.7118252" lon="9.4416965"><ele>337.6</ele><time>2026-04-05T10:22:36.718Z</time></trkpt><trkpt lat="45.7118921" lon="9.4414941"><ele>339.0</ele><time>2026-04-05T10:22:38.717Z</time></trkpt><trkpt lat="45.7119318" lon="9.4413847"><ele>337.8333333333333</ele><time>2026-04-05T10:22:39.717Z</time></trkpt><trkpt lat="45.7119582" lon="9.4412939"><ele>336.6666666666667</ele><time>2026-04-05T10:22:40.718Z</time></trkpt><trkpt lat="45.7119745" lon="9.4411985"><ele>335.5</ele><time>2026-04-05T10:22:41.718Z</time></trkpt><trkpt lat="45.7119712" lon="9.4411032"><ele>334.33333333333337</ele><time>2026-04-05T10:22:42.718Z</time></trkpt><trkpt lat="45.7119721" lon="9.4409538"><ele>333.1666666666667</ele><time>2026-04-05T10:22:44.718Z</time></trkpt><trkpt lat="45.7119288" lon="9.4408007"><ele>332.0</ele><time>2026-04-05T10:22:46.718Z</time></trkpt><trkpt lat="45.7118659" lon="9.440709"><ele>331.1666666666667</ele><time>2026-04-05T10:22:48.718Z</time></trkpt><trkpt lat="45.7117977" lon="9.4406374"><ele>330.33333333333337</ele><time>2026-04-05T10:22:50.717Z</time></trkpt><trkpt lat="45.7117291" lon="9.4405604"><ele>329.5</ele><time>2026-04-05T10:22:52.717Z</time></trkpt><trkpt lat="45.7116778" lon="9.4404697"><ele>328.6666666666667</ele><time>2026-04-05T10:22:54.718Z</time></trkpt><trkpt lat="45.7116129" lon="9.4403955"><ele>327.8333333333333</ele><time>2026-04-05T10:22:56.718Z</time></trkpt><trkpt lat="45.7115516" lon="9.4403245"><ele>327.0</ele><time>2026-04-05T10:22:58.718Z</time></trkpt><trkpt lat="45.7114949" lon="9.4402613"><ele>327.0</ele><time>2026-04-05T10:23:00.718Z</time></trkpt><trkpt lat="45.7114326" lon="9.4401814"><ele>327.0</ele><time>2026-04-05T10:23:02.718Z</time></trkpt><trkpt lat="45.7113708" lon="9.4401181"><ele>327.0</ele><time>2026-04-05T10:23:04.717Z</time></trkpt><trkpt lat="45.7113105" lon="9.4400478"><ele>327.0</ele><time>2026-04-05T10:23:06.718Z</time></trkpt><trkpt lat="45.7112527" lon="9.439958"><ele>327.0</ele><time>2026-04-05T10:23:08.717Z</time></trkpt><trkpt lat="45.7111956" lon="9.439859"><ele>327.0</ele><time>2026-04-05T10:23:10.717Z</time></trkpt><trkpt lat="45.7111339" lon="9.4397526"><ele>326.40000000000003</ele><time>2026-04-05T10:23:12.718Z</time></trkpt><trkpt lat="45.7110676" lon="9.4396605"><ele>325.8</ele><time>2026-04-05T10:23:14.718Z</time></trkpt><trkpt lat="45.7109945" lon="9.4395666"><ele>325.2</ele><time>2026-04-05T10:23:16.718Z</time></trkpt><trkpt lat="45.7109137" lon="9.439476"><ele>324.6</ele><time>2026-04-05T10:23:18.718Z</time></trkpt><trkpt lat="45.7108324" lon="9.4393972"><ele>324.0</ele><time>2026-04-05T10:23:20.717Z</time></trkpt><trkpt lat="45.7107503" lon="9.4393197"><ele>324.0</ele><time>2026-04-05T10:23:22.718Z</time></trkpt><trkpt lat="45.7106626" lon="9.4392867"><ele>324.0</ele><time>2026-04-05T10:23:24.718Z</time></trkpt><trkpt lat="45.7105636" lon="9.439217"><ele>324.0</ele><time>2026-04-05T10:23:26.717Z</time></trkpt><trkpt lat="45.710504" lon="9.4391146"><ele>324.0</ele><time>2026-04-05T10:23:28.718Z</time></trkpt><trkpt lat="45.7104513" lon="9.438964"><ele>324.0</ele><time>2026-04-05T10:23:30.718Z</time></trkpt><trkpt lat="45.7104029" lon="9.4387931"><ele>323.1666666666667</ele><time>2026-04-05T10:23:32.718Z</time></trkpt><trkpt lat="45.7103761" lon="9.438709"><ele>322.3333333333333</ele><time>2026-04-05T10:23:33.717Z</time></trkpt><trkpt lat="45.7103545" lon="9.4386189"><ele>321.5</ele><time>2026-04-05T10:23:34.718Z</time></trkpt><trkpt lat="45.7103314" lon="9.4385122"><ele>320.66666666666663</ele><time>2026-04-05T10:23:35.718Z</time></trkpt><trkpt lat="45.710313" lon="9.43834"><ele>319.8333333333333</ele><time>2026-04-05T10:23:37.718Z</time></trkpt><trkpt lat="45.7103057" lon="9.4382493"><ele>319.0</ele><time>2026-04-05T10:23:38.717Z</time></trkpt><trkpt lat="45.7103027" lon="9.4380907"><ele>318.59999999999997</ele><time>2026-04-05T10:23:40.717Z</time></trkpt><trkpt lat="45.710299" lon="9.4379529"><ele>318.2</ele><time>2026-04-05T10:23:42.718Z</time></trkpt><trkpt lat="45.7102939" lon="9.4378245"><ele>317.79999999999995</ele><time>2026-04-05T10:23:44.718Z</time></trkpt><trkpt lat="45.7103071" lon="9.4376921"><ele>317.4</ele><time>2026-04-05T10:23:46.718Z</time></trkpt><trkpt lat="45.7103421" lon="9.4375221"><ele>317.0</ele><time>2026-04-05T10:23:48.718Z</time></trkpt><trkpt lat="45.7103687" lon="9.4373494"><ele>317.0</ele><time>2026-04-05T10:23:50.717Z</time></trkpt><trkpt lat="45.7103854" lon="9.437259"><ele>317.0</ele><time>2026-04-05T10:23:51.718Z</time></trkpt><trkpt lat="45.710403" lon="9.4371528"><ele>317.0</ele><time>2026-04-05T10:23:52.718Z</time></trkpt><trkpt lat="45.7104218" lon="9.4370621"><ele>317.0</ele><time>2026-04-05T10:23:53.718Z</time></trkpt><trkpt lat="45.7104521" lon="9.4368996"><ele>317.0</ele><time>2026-04-05T10:23:55.718Z</time></trkpt><trkpt lat="45.7104723" lon="9.4367893"><ele>317.0</ele><time>2026-04-05T10:23:56.718Z</time></trkpt><trkpt lat="45.710517" lon="9.4366067"><ele>317.1666666666667</ele><time>2026-04-05T10:23:58.718Z</time></trkpt><trkpt lat="45.7105282" lon="9.4365123"><ele>317.33333333333337</ele><time>2026-04-05T10:23:59.718Z</time></trkpt><trkpt lat="45.7105329" lon="9.4363941"><ele>317.5</ele><time>2026-04-05T10:24:00.717Z</time></trkpt><trkpt lat="45.7105212" lon="9.4362704"><ele>317.6666666666667</ele><time>2026-04-05T10:24:01.717Z</time></trkpt><trkpt lat="45.710496" lon="9.4361332"><ele>317.8333333333333</ele><time>2026-04-05T10:24:02.718Z</time></trkpt><trkpt lat="45.7104662" lon="9.4360148"><ele>318.0</ele><time>2026-04-05T10:24:03.718Z</time></trkpt><trkpt lat="45.7104256" lon="9.4358983"><ele>318.1666666666667</ele><time>2026-04-05T10:24:04.717Z</time></trkpt><trkpt lat="45.7103838" lon="9.4358123"><ele>318.3333333333333</ele><time>2026-04-05T10:24:05.718Z</time></trkpt><trkpt lat="45.7103484" lon="9.4357118"><ele>318.5</ele><time>2026-04-05T10:24:06.718Z</time></trkpt><trkpt lat="45.7103072" lon="9.4356047"><ele>318.66666666666663</ele><time>2026-04-05T10:24:07.718Z</time></trkpt><trkpt lat="45.7102743" lon="9.4355102"><ele>318.8333333333333</ele><time>2026-04-05T10:24:08.717Z</time></trkpt><trkpt lat="45.7102322" lon="9.4354168"><ele>319.0</ele><time>2026-04-05T10:24:09.718Z</time></trkpt><trkpt lat="45.7101903" lon="9.4353332"><ele>319.0</ele><time>2026-04-05T10:24:10.718Z</time></trkpt><trkpt lat="45.7101443" lon="9.4352458"><ele>319.0</ele><time>2026-04-05T10:24:11.717Z</time></trkpt><trkpt lat="45.7100945" lon="9.4351745"><ele>319.0</ele><time>2026-04-05T10:24:12.718Z</time></trkpt><trkpt lat="45.7100464" lon="9.4350878"><ele>319.0</ele><time>2026-04-05T10:24:13.718Z</time></trkpt><trkpt lat="45.7099891" lon="9.4350206"><ele>319.0</ele><time>2026-04-05T10:24:14.717Z</time></trkpt><trkpt lat="45.7099303" lon="9.4349466"><ele>319.0</ele><time>2026-04-05T10:24:15.718Z</time></trkpt><trkpt lat="45.7098787" lon="9.4348756"><ele>319.0</ele><time>2026-04-05T10:24:16.718Z</time></trkpt><trkpt lat="45.7098256" lon="9.434807"><ele>319.0</ele><time>2026-04-05T10:24:17.718Z</time></trkpt><trkpt lat="45.7097738" lon="9.4347396"><ele>319.0</ele><time>2026-04-05T10:24:18.718Z</time></trkpt><trkpt lat="45.7097067" lon="9.4346679"><ele>319.0</ele><time>2026-04-05T10:24:19.718Z</time></trkpt><trkpt lat="45.7096569" lon="9.4345876"><ele>319.0</ele><time>2026-04-05T10:24:20.718Z</time></trkpt><trkpt lat="45.7095981" lon="9.4345144"><ele>319.0</ele><time>2026-04-05T10:24:21.718Z</time></trkpt><trkpt lat="45.7094702" lon="9.4344018"><ele>319.16666666666663</ele><time>2026-04-05T10:24:23.718Z</time></trkpt><trkpt lat="45.7093934" lon="9.4343271"><ele>319.3333333333333</ele><time>2026-04-05T10:24:24.718Z</time></trkpt><trkpt lat="45.7093504" lon="9.4342356"><ele>319.5</ele><time>2026-04-05T10:24:25.718Z</time></trkpt><trkpt lat="45.7093264" lon="9.4341076"><ele>319.6666666666667</ele><time>2026-04-05T10:24:26.718Z</time></trkpt><trkpt lat="45.7092881" lon="9.4339848"><ele>319.83333333333337</ele><time>2026-04-05T10:24:27.718Z</time></trkpt><trkpt lat="45.7092516" lon="9.4338638"><ele>320.0</ele><time>2026-04-05T10:24:28.717Z</time></trkpt><trkpt lat="45.7092224" lon="9.4337343"><ele>318.6666666666667</ele><time>2026-04-05T10:24:29.718Z</time></trkpt><trkpt lat="45.709201" lon="9.4335952"><ele>317.33333333333337</ele><time>2026-04-05T10:24:30.717Z</time></trkpt><trkpt lat="45.7091813" lon="9.4334689"><ele>316.0</ele><time>2026-04-05T10:24:31.717Z</time></trkpt><trkpt lat="45.7091602" lon="9.4333537"><ele>314.6666666666667</ele><time>2026-04-05T10:24:32.718Z</time></trkpt><trkpt lat="45.7091427" lon="9.4332616"><ele>313.3333333333333</ele><time>2026-04-05T10:24:33.718Z</time></trkpt><trkpt lat="45.7091107" lon="9.4331337"><ele>312.0</ele><time>2026-04-05T10:24:34.718Z</time></trkpt><trkpt lat="45.7090896" lon="9.4329974"><ele>311.6666666666667</ele><time>2026-04-05T10:24:35.718Z</time></trkpt><trkpt lat="45.7090452" lon="9.4328619"><ele>311.3333333333333</ele><time>2026-04-05T10:24:36.718Z</time></trkpt><trkpt lat="45.709011" lon="9.4327434"><ele>311.0</ele><time>2026-04-05T10:24:37.717Z</time></trkpt><trkpt lat="45.7089792" lon="9.4326175"><ele>310.66666666666663</ele><time>2026-04-05T10:24:38.718Z</time></trkpt><trkpt lat="45.7089522" lon="9.4325004"><ele>310.3333333333333</ele><time>2026-04-05T10:24:39.718Z</time></trkpt><trkpt lat="45.7089273" lon="9.4323978"><ele>310.0</ele><time>2026-04-05T10:24:40.718Z</time></trkpt><trkpt lat="45.7089109" lon="9.4322812"><ele>310.0</ele><time>2026-04-05T10:24:41.718Z</time></trkpt><trkpt lat="45.7088742" lon="9.4321749"><ele>310.0</ele><time>2026-04-05T10:24:42.717Z</time></trkpt><trkpt lat="45.7088464" lon="9.4320874"><ele>310.0</ele><time>2026-04-05T10:24:43.718Z</time></trkpt><trkpt lat="45.7088115" lon="9.4319863"><ele>310.0</ele><time>2026-04-05T10:24:44.718Z</time></trkpt><trkpt lat="45.7087813" lon="9.4319013"><ele>310.0</ele><time>2026-04-05T10:24:45.718Z</time></trkpt><trkpt lat="45.7087489" lon="9.4318153"><ele>310.0</ele><time>2026-04-05T10:24:46.718Z</time></trkpt><trkpt lat="45.7087019" lon="9.431753"><ele>310.0</ele><time>2026-04-05T10:24:47.718Z</time></trkpt><trkpt lat="45.7086318" lon="9.4316331"><ele>311.16666666666663</ele><time>2026-04-05T10:24:49.717Z</time></trkpt><trkpt lat="45.7085702" lon="9.4315237"><ele>312.3333333333333</ele><time>2026-04-05T10:24:51.718Z</time></trkpt><trkpt lat="45.7085179" lon="9.4314326"><ele>313.5</ele><time>2026-04-05T10:24:53.718Z</time></trkpt><trkpt lat="45.7084649" lon="9.4313285"><ele>314.6666666666667</ele><time>2026-04-05T10:24:55.718Z</time></trkpt><trkpt lat="45.7084203" lon="9.4312457"><ele>315.83333333333337</ele><time>2026-04-05T10:24:57.718Z</time></trkpt><trkpt lat="45.7083808" lon="9.4311433"><ele>317.0</ele><time>2026-04-05T10:25:00.718Z</time></trkpt><trkpt lat="45.7083285" lon="9.431056"><ele>317.5</ele><time>2026-04-05T10:25:03.718Z</time></trkpt><trkpt lat="45.7082944" lon="9.4309712"><ele>318.0</ele><time>2026-04-05T10:25:05.718Z</time></trkpt><trkpt lat="45.70826" lon="9.4308802"><ele>318.5</ele><time>2026-04-05T10:25:07.718Z</time></trkpt><trkpt lat="45.7082067" lon="9.4307489"><ele>319.0</ele><time>2026-04-05T10:25:09.718Z</time></trkpt><trkpt lat="45.7081624" lon="9.4306364"><ele>319.5</ele><time>2026-04-05T10:25:11.718Z</time></trkpt><trkpt lat="45.708143" lon="9.4305408"><ele>320.0</ele><time>2026-04-05T10:25:12.718Z</time></trkpt><trkpt lat="45.7081104" lon="9.4303691"><ele>320.0</ele><time>2026-04-05T10:25:14.717Z</time></trkpt><trkpt lat="45.7081099" lon="9.4302787"><ele>320.0</ele><time>2026-04-05T10:25:15.718Z</time></trkpt><trkpt lat="45.7080704" lon="9.4301218"><ele>320.0</ele><time>2026-04-05T10:25:17.718Z</time></trkpt><trkpt lat="45.7080565" lon="9.4300222"><ele>320.0</ele><time>2026-04-05T10:25:18.717Z</time></trkpt><trkpt lat="45.7080227" lon="9.4299403"><ele>320.0</ele><time>2026-04-05T10:25:19.718Z</time></trkpt><trkpt lat="45.7079777" lon="9.4298673"><ele>320.0</ele><time>2026-04-05T10:25:20.717Z</time></trkpt><trkpt lat="45.7079312" lon="9.4297055"><ele>319.6666666666667</ele><time>2026-04-05T10:25:22.718Z</time></trkpt><trkpt lat="45.7078564" lon="9.429586"><ele>319.33333333333337</ele><time>2026-04-05T10:25:24.718Z</time></trkpt><trkpt lat="45.7077977" lon="9.4294903"><ele>319.0</ele><time>2026-04-05T10:25:26.718Z</time></trkpt><trkpt lat="45.7077618" lon="9.4293623"><ele>318.6666666666667</ele><time>2026-04-05T10:25:28.718Z</time></trkpt><trkpt lat="45.7077175" lon="9.4292942"><ele>318.3333333333333</ele><time>2026-04-05T10:25:30.718Z</time></trkpt><trkpt lat="45.7077101" lon="9.4291872"><ele>318.0</ele><time>2026-04-05T10:25:32.718Z</time></trkpt><trkpt lat="45.7077144" lon="9.4290435"><ele>318.0</ele><time>2026-04-05T10:25:35.718Z</time></trkpt><trkpt lat="45.7077342" lon="9.4289164"><ele>318.0</ele><time>2026-04-05T10:25:37.718Z</time></trkpt><trkpt lat="45.7077535" lon="9.4288103"><ele>318.0</ele><time>2026-04-05T10:25:39.718Z</time></trkpt><trkpt lat="45.7077715" lon="9.4286975"><ele>318.0</ele><time>2026-04-05T10:25:41.718Z</time></trkpt><trkpt lat="45.7077907" lon="9.4286112"><ele>318.0</ele><time>2026-04-05T10:25:43.718Z</time></trkpt><trkpt lat="45.7078107" lon="9.4285208"><ele>318.0</ele><time>2026-04-05T10:25:45.718Z</time></trkpt><trkpt lat="45.707828" lon="9.4284277"><ele>318.0</ele><time>2026-04-05T10:25:47.718Z</time></trkpt><trkpt lat="45.7078521" lon="9.4282994"><ele>318.5</ele><time>2026-04-05T10:25:50.718Z</time></trkpt><trkpt lat="45.7078617" lon="9.4281832"><ele>319.0</ele><time>2026-04-05T10:25:52.717Z</time></trkpt><trkpt lat="45.7077809" lon="9.4281312"><ele>319.5</ele><time>2026-04-05T10:25:54.718Z</time></trkpt><trkpt lat="45.7077138" lon="9.4280955"><ele>320.0</ele><time>2026-04-05T10:25:56.718Z</time></trkpt><trkpt lat="45.7076409" lon="9.4280882"><ele>320.5</ele><time>2026-04-05T10:25:58.717Z</time></trkpt><trkpt lat="45.7075742" lon="9.4280656"><ele>321.0</ele><time>2026-04-05T10:26:00.718Z</time></trkpt><trkpt lat="45.7075044" lon="9.4280537"><ele>322.0</ele><time>2026-04-05T10:26:01.718Z</time></trkpt><trkpt lat="45.7074353" lon="9.4280371"><ele>323.0</ele><time>2026-04-05T10:26:04.718Z</time></trkpt><trkpt lat="45.7073775" lon="9.4279901"><ele>324.0</ele><time>2026-04-05T10:26:07.717Z</time></trkpt><trkpt lat="45.7074066" lon="9.4278808"><ele>325.0</ele><time>2026-04-05T10:26:10.718Z</time></trkpt><trkpt lat="45.7074747" lon="9.4278146"><ele>326.0</ele><time>2026-04-05T10:26:11.717Z</time></trkpt><trkpt lat="45.7075617" lon="9.4277142"><ele>327.0</ele><time>2026-04-05T10:26:13.718Z</time></trkpt><trkpt lat="45.7076604" lon="9.427605"><ele>327.0</ele><time>2026-04-05T10:26:15.717Z</time></trkpt><trkpt lat="45.7077117" lon="9.4275226"><ele>327.0</ele><time>2026-04-05T10:26:16.718Z</time></trkpt><trkpt lat="45.7077228" lon="9.4273998"><ele>327.0</ele><time>2026-04-05T10:26:17.718Z</time></trkpt><trkpt lat="45.7076499" lon="9.427294"><ele>327.0</ele><time>2026-04-05T10:26:19.717Z</time></trkpt><trkpt lat="45.707628" lon="9.4271334"><ele>327.0</ele><time>2026-04-05T10:26:21.717Z</time></trkpt><trkpt lat="45.707586" lon="9.4270029"><ele>326.6</ele><time>2026-04-05T10:26:23.718Z</time></trkpt><trkpt lat="45.7075277" lon="9.4268647"><ele>326.20000000000005</ele><time>2026-04-05T10:26:25.718Z</time></trkpt><trkpt lat="45.7075055" lon="9.4267212"><ele>325.8</ele><time>2026-04-05T10:26:27.718Z</time></trkpt><trkpt lat="45.7074898" lon="9.4266003"><ele>325.4</ele><time>2026-04-05T10:26:29.718Z</time></trkpt><trkpt lat="45.7075243" lon="9.4264919"><ele>325.0</ele><time>2026-04-05T10:26:31.717Z</time></trkpt><trkpt lat="45.7075546" lon="9.4263337"><ele>325.0</ele><time>2026-04-05T10:26:33.717Z</time></trkpt><trkpt lat="45.7075672" lon="9.4261966"><ele>325.0</ele><time>2026-04-05T10:26:35.717Z</time></trkpt><trkpt lat="45.7075654" lon="9.426044"><ele>325.0</ele><time>2026-04-05T10:26:37.717Z</time></trkpt><trkpt lat="45.7075015" lon="9.4259418"><ele>325.0</ele><time>2026-04-05T10:26:39.718Z</time></trkpt><trkpt lat="45.7074481" lon="9.4258371"><ele>325.0</ele><time>2026-04-05T10:26:41.718Z</time></trkpt><trkpt lat="45.707401" lon="9.4257589"><ele>325.0</ele><time>2026-04-05T10:26:43.717Z</time></trkpt><trkpt lat="45.7073413" lon="9.4256642"><ele>325.0</ele><time>2026-04-05T10:26:45.718Z</time></trkpt><trkpt lat="45.7073054" lon="9.4255602"><ele>325.0</ele><time>2026-04-05T10:26:47.718Z</time></trkpt><trkpt lat="45.7072824" lon="9.4254497"><ele>325.0</ele><time>2026-04-05T10:26:49.718Z</time></trkpt><trkpt lat="45.7072595" lon="9.4253468"><ele>325.0</ele><time>2026-04-05T10:26:51.718Z</time></trkpt><trkpt lat="45.7072233" lon="9.4252381"><ele>325.0</ele><time>2026-04-05T10:26:53.718Z</time></trkpt><trkpt lat="45.7071589" lon="9.4251521"><ele>325.0</ele><time>2026-04-05T10:26:55.718Z</time></trkpt><trkpt lat="45.7070887" lon="9.4250618"><ele>325.0</ele><time>2026-04-05T10:26:57.718Z</time></trkpt><trkpt lat="45.7070322" lon="9.4249841"><ele>325.0</ele><time>2026-04-05T10:26:59.718Z</time></trkpt><trkpt lat="45.7069696" lon="9.4249192"><ele>325.0</ele><time>2026-04-05T10:27:01.718Z</time></trkpt><trkpt lat="45.7069189" lon="9.4248293"><ele>325.0</ele><time>2026-04-05T10:27:03.718Z</time></trkpt><trkpt lat="45.706907" lon="9.4247143"><ele>325.0</ele><time>2026-04-05T10:27:05.717Z</time></trkpt><trkpt lat="45.7069451" lon="9.4246108"><ele>325.5</ele><time>2026-04-05T10:27:07.718Z</time></trkpt><trkpt lat="45.7069692" lon="9.424523"><ele>326.0</ele><time>2026-04-05T10:27:09.718Z</time></trkpt><trkpt lat="45.7069984" lon="9.4243956"><ele>326.5</ele><time>2026-04-05T10:27:11.718Z</time></trkpt><trkpt lat="45.7070209" lon="9.4242493"><ele>327.0</ele><time>2026-04-05T10:27:13.718Z</time></trkpt><trkpt lat="45.7070541" lon="9.4241093"><ele>327.5</ele><time>2026-04-05T10:27:15.718Z</time></trkpt><trkpt lat="45.7070811" lon="9.4240046"><ele>328.0</ele><time>2026-04-05T10:27:17.718Z</time></trkpt><trkpt lat="45.7070807" lon="9.4239107"><ele>329.16666666666663</ele><time>2026-04-05T10:27:19.718Z</time></trkpt><trkpt lat="45.7070413" lon="9.4237996"><ele>330.3333333333333</ele><time>2026-04-05T10:27:22.717Z</time></trkpt><trkpt lat="45.7069673" lon="9.4237497"><ele>331.5</ele><time>2026-04-05T10:27:25.718Z</time></trkpt><trkpt lat="45.7069292" lon="9.423653"><ele>332.6666666666667</ele><time>2026-04-05T10:27:27.717Z</time></trkpt><trkpt lat="45.7068659" lon="9.4236196"><ele>333.83333333333337</ele><time>2026-04-05T10:27:29.718Z</time></trkpt><trkpt lat="45.7067795" lon="9.4235592"><ele>335.0</ele><time>2026-04-05T10:27:32.718Z</time></trkpt><trkpt lat="45.7067183" lon="9.4235194"><ele>336.33333333333337</ele><time>2026-04-05T10:27:34.718Z</time></trkpt><trkpt lat="45.7066591" lon="9.4234749"><ele>337.6666666666667</ele><time>2026-04-05T10:27:36.718Z</time></trkpt><trkpt lat="45.7065821" lon="9.4234429"><ele>339.0</ele><time>2026-04-05T10:27:39.717Z</time></trkpt><trkpt lat="45.7065089" lon="9.4234531"><ele>340.3333333333333</ele><time>2026-04-05T10:27:42.718Z</time></trkpt><trkpt lat="45.7064387" lon="9.4234709"><ele>341.66666666666663</ele><time>2026-04-05T10:27:46.717Z</time></trkpt><trkpt lat="45.7063588" lon="9.4234595"><ele>343.0</ele><time>2026-04-05T10:27:49.718Z</time></trkpt><trkpt lat="45.706283" lon="9.4234176"><ele>343.0</ele><time>2026-04-05T10:27:51.718Z</time></trkpt><trkpt lat="45.7062262" lon="9.4233585"><ele>343.0</ele><time>2026-04-05T10:27:53.718Z</time></trkpt><trkpt lat="45.7061341" lon="9.4233282"><ele>343.0</ele><time>2026-04-05T10:27:56.718Z</time></trkpt><trkpt lat="45.7060718" lon="9.4232965"><ele>343.0</ele><time>2026-04-05T10:27:58.717Z</time></trkpt><trkpt lat="45.7060168" lon="9.4232146"><ele>343.0</ele><time>2026-04-05T10:28:01.718Z</time></trkpt><trkpt lat="45.7059655" lon="9.4231516"><ele>343.0</ele><time>2026-04-05T10:28:03.718Z</time></trkpt><trkpt lat="45.7058924" lon="9.4230774"><ele>343.0</ele><time>2026-04-05T10:28:06.718Z</time></trkpt><trkpt lat="45.7058153" lon="9.4230264"><ele>343.0</ele><time>2026-04-05T10:28:09.718Z</time></trkpt><trkpt lat="45.705739" lon="9.4229757"><ele>343.0</ele><time>2026-04-05T10:28:12.717Z</time></trkpt><trkpt lat="45.7056719" lon="9.4229457"><ele>343.0</ele><time>2026-04-05T10:28:15.718Z</time></trkpt><trkpt lat="45.7056017" lon="9.4229409"><ele>343.0</ele><time>2026-04-05T10:28:18.717Z</time></trkpt><trkpt lat="45.7055184" lon="9.4229065"><ele>343.0</ele><time>2026-04-05T10:28:21.718Z</time></trkpt><trkpt lat="45.7054048" lon="9.4228685"><ele>343.79999999999995</ele><time>2026-04-05T10:28:23.718Z</time></trkpt><trkpt lat="45.7052879" lon="9.4228686"><ele>344.6</ele><time>2026-04-05T10:28:25.718Z</time></trkpt><trkpt lat="45.7052228" lon="9.4228792"><ele>345.4</ele><time>2026-04-05T10:28:26.718Z</time></trkpt><trkpt lat="45.7051077" lon="9.4228928"><ele>346.20000000000005</ele><time>2026-04-05T10:28:28.718Z</time></trkpt><trkpt lat="45.7049967" lon="9.4228833"><ele>347.0</ele><time>2026-04-05T10:28:30.718Z</time></trkpt><trkpt lat="45.7048943" lon="9.4228746"><ele>347.40000000000003</ele><time>2026-04-05T10:28:32.718Z</time></trkpt><trkpt lat="45.7047942" lon="9.4228682"><ele>347.8</ele><time>2026-04-05T10:28:34.718Z</time></trkpt><trkpt lat="45.7046941" lon="9.4228733"><ele>348.2</ele><time>2026-04-05T10:28:36.718Z</time></trkpt><trkpt lat="45.7045946" lon="9.4228827"><ele>348.6</ele><time>2026-04-05T10:28:38.718Z</time></trkpt><trkpt lat="45.7044923" lon="9.4228865"><ele>349.0</ele><time>2026-04-05T10:28:40.717Z</time></trkpt><trkpt lat="45.7043771" lon="9.4228793"><ele>348.2</ele><time>2026-04-05T10:28:42.718Z</time></trkpt><trkpt lat="45.7042708" lon="9.4228693"><ele>347.4</ele><time>2026-04-05T10:28:44.718Z</time></trkpt><trkpt lat="45.7042007" lon="9.4228375"><ele>346.6</ele><time>2026-04-05T10:28:46.718Z</time></trkpt><trkpt lat="45.7041177" lon="9.4228057"><ele>345.8</ele><time>2026-04-05T10:28:50.718Z</time></trkpt><trkpt lat="45.7040626" lon="9.4227396"><ele>345.0</ele><time>2026-04-05T10:28:52.718Z</time></trkpt><trkpt lat="45.7039633" lon="9.4225757"><ele>345.0</ele><time>2026-04-05T10:28:54.717Z</time></trkpt><trkpt lat="45.7038735" lon="9.4224779"><ele>345.0</ele><time>2026-04-05T10:28:55.717Z</time></trkpt><trkpt lat="45.7037952" lon="9.4224266"><ele>345.0</ele><time>2026-04-05T10:28:56.718Z</time></trkpt><trkpt lat="45.7037351" lon="9.4223871"><ele>345.0</ele><time>2026-04-05T10:28:57.718Z</time></trkpt><trkpt lat="45.703656" lon="9.4223607"><ele>345.0</ele><time>2026-04-05T10:28:58.718Z</time></trkpt><trkpt lat="45.703569" lon="9.4222986"><ele>345.0</ele><time>2026-04-05T10:28:59.717Z</time></trkpt><trkpt lat="45.7035034" lon="9.4222539"><ele>342.75</ele><time>2026-04-05T10:29:00.717Z</time></trkpt><trkpt lat="45.7034284" lon="9.4222242"><ele>340.5</ele><time>2026-04-05T10:29:01.718Z</time></trkpt><trkpt lat="45.703368" lon="9.4221281"><ele>338.25</ele><time>2026-04-05T10:29:03.718Z</time></trkpt><trkpt lat="45.7033052" lon="9.4220321"><ele>336.0</ele><time>2026-04-05T10:29:05.717Z</time></trkpt><trkpt lat="45.7031213" lon="9.4218563"><ele>335.5</ele><time>2026-04-05T10:29:12.718Z</time></trkpt><trkpt lat="45.7030379" lon="9.4217475"><ele>335.0</ele><time>2026-04-05T10:29:14.718Z</time></trkpt><trkpt lat="45.7029495" lon="9.4216655"><ele>334.5</ele><time>2026-04-05T10:29:15.717Z</time></trkpt><trkpt lat="45.7028891" lon="9.4216152"><ele>334.0</ele><time>2026-04-05T10:29:16.718Z</time></trkpt><trkpt lat="45.702802" lon="9.4215821"><ele>333.5</ele><time>2026-04-05T10:29:17.718Z</time></trkpt><trkpt lat="45.70274" lon="9.4215619"><ele>333.0</ele><time>2026-04-05T10:29:18.718Z</time></trkpt><trkpt lat="45.7026659" lon="9.4215537"><ele>331.0</ele><time>2026-04-05T10:29:19.718Z</time></trkpt><trkpt lat="45.7025964" lon="9.4215423"><ele>329.0</ele><time>2026-04-05T10:29:20.718Z</time></trkpt><trkpt lat="45.702522" lon="9.4215258"><ele>327.0</ele><time>2026-04-05T10:29:21.718Z</time></trkpt><trkpt lat="45.7023924" lon="9.4215153"><ele>325.0</ele><time>2026-04-05T10:29:23.718Z</time></trkpt><trkpt lat="45.7022797" lon="9.4214521"><ele>323.0</ele><time>2026-04-05T10:29:25.717Z</time></trkpt><trkpt lat="45.7022753" lon="9.4212989"><ele>322.59999999999997</ele><time>2026-04-05T10:29:28.718Z</time></trkpt><trkpt lat="45.7022471" lon="9.4211502"><ele>322.2</ele><time>2026-04-05T10:29:30.718Z</time></trkpt><trkpt lat="45.7022281" lon="9.421055"><ele>321.8</ele><time>2026-04-05T10:29:31.718Z</time></trkpt><trkpt lat="45.7022151" lon="9.4209373"><ele>321.4</ele><time>2026-04-05T10:29:32.718Z</time></trkpt><trkpt lat="45.7021859" lon="9.4207411"><ele>321.0</ele><time>2026-04-05T10:29:34.718Z</time></trkpt><trkpt lat="45.7021814" lon="9.4206508"><ele>321.0</ele><time>2026-04-05T10:29:35.718Z</time></trkpt><trkpt lat="45.7021947" lon="9.4205279"><ele>321.0</ele><time>2026-04-05T10:29:36.718Z</time></trkpt><trkpt lat="45.7022023" lon="9.4204151"><ele>321.0</ele><time>2026-04-05T10:29:37.718Z</time></trkpt><trkpt lat="45.7022182" lon="9.4202442"><ele>321.0</ele><time>2026-04-05T10:29:39.718Z</time></trkpt><trkpt lat="45.702182" lon="9.4201073"><ele>321.0</ele><time>2026-04-05T10:29:41.718Z</time></trkpt><trkpt lat="45.7021386" lon="9.4200378"><ele>320.57142857142856</ele><time>2026-04-05T10:29:42.718Z</time></trkpt><trkpt lat="45.7021014" lon="9.4199572"><ele>320.1428571428571</ele><time>2026-04-05T10:29:43.718Z</time></trkpt><trkpt lat="45.7020582" lon="9.419872"><ele>319.71428571428567</ele><time>2026-04-05T10:29:44.717Z</time></trkpt><trkpt lat="45.7020059" lon="9.419787"><ele>319.2857142857143</ele><time>2026-04-05T10:29:45.718Z</time></trkpt><trkpt lat="45.7019571" lon="9.4197064"><ele>318.8571428571429</ele><time>2026-04-05T10:29:46.717Z</time></trkpt><trkpt lat="45.7019203" lon="9.419618"><ele>318.4285714285714</ele><time>2026-04-05T10:29:47.717Z</time></trkpt><trkpt lat="45.7018838" lon="9.4195256"><ele>318.0</ele><time>2026-04-05T10:29:48.718Z</time></trkpt><trkpt lat="45.701837" lon="9.4194468"><ele>317.1666666666667</ele><time>2026-04-05T10:29:49.718Z</time></trkpt><trkpt lat="45.701802" lon="9.4193539"><ele>316.3333333333333</ele><time>2026-04-05T10:29:50.718Z</time></trkpt><trkpt lat="45.7017675" lon="9.4192631"><ele>315.5</ele><time>2026-04-05T10:29:51.718Z</time></trkpt><trkpt lat="45.7017137" lon="9.4191793"><ele>314.66666666666663</ele><time>2026-04-05T10:29:52.717Z</time></trkpt><trkpt lat="45.7016705" lon="9.4190921"><ele>313.8333333333333</ele><time>2026-04-05T10:29:53.718Z</time></trkpt><trkpt lat="45.7016186" lon="9.419014"><ele>313.0</ele><time>2026-04-05T10:29:54.718Z</time></trkpt><trkpt lat="45.7015617" lon="9.4189422"><ele>313.0</ele><time>2026-04-05T10:29:55.717Z</time></trkpt><trkpt lat="45.7015075" lon="9.4188721"><ele>313.0</ele><time>2026-04-05T10:29:56.717Z</time></trkpt><trkpt lat="45.7014406" lon="9.4188212"><ele>313.0</ele><time>2026-04-05T10:29:57.717Z</time></trkpt><trkpt lat="45.7013768" lon="9.4187549"><ele>313.0</ele><time>2026-04-05T10:29:58.718Z</time></trkpt><trkpt lat="45.7013121" lon="9.4187064"><ele>313.0</ele><time>2026-04-05T10:29:59.718Z</time></trkpt><trkpt lat="45.701247" lon="9.418647"><ele>313.0</ele><time>2026-04-05T10:30:00.718Z</time></trkpt><trkpt lat="45.7011899" lon="9.4185927"><ele>313.0</ele><time>2026-04-05T10:30:01.717Z</time></trkpt><trkpt lat="45.7010838" lon="9.4185019"><ele>313.0</ele><time>2026-04-05T10:30:03.718Z</time></trkpt><trkpt lat="45.7011025" lon="9.4184023"><ele>313.0</ele><time>2026-04-05T10:30:05.718Z</time></trkpt><trkpt lat="45.701136" lon="9.4182725"><ele>313.0</ele><time>2026-04-05T10:30:07.718Z</time></trkpt><trkpt lat="45.7012133" lon="9.4181235"><ele>313.0</ele><time>2026-04-05T10:30:09.718Z</time></trkpt><trkpt lat="45.7012665" lon="9.4179724"><ele>313.0</ele><time>2026-04-05T10:30:11.717Z</time></trkpt><trkpt lat="45.7013288" lon="9.417817"><ele>312.66666666666663</ele><time>2026-04-05T10:30:13.717Z</time></trkpt><trkpt lat="45.7013728" lon="9.4177079"><ele>312.3333333333333</ele><time>2026-04-05T10:30:14.717Z</time></trkpt><trkpt lat="45.7014051" lon="9.4176242"><ele>312.0</ele><time>2026-04-05T10:30:15.717Z</time></trkpt><trkpt lat="45.7014417" lon="9.4175397"><ele>311.6666666666667</ele><time>2026-04-05T10:30:16.717Z</time></trkpt><trkpt lat="45.7015006" lon="9.4174041"><ele>311.33333333333337</ele><time>2026-04-05T10:30:18.718Z</time></trkpt><trkpt lat="45.7015336" lon="9.4173084"><ele>311.0</ele><time>2026-04-05T10:30:19.718Z</time></trkpt><trkpt lat="45.7015743" lon="9.4172165"><ele>310.7142857142857</ele><time>2026-04-05T10:30:20.718Z</time></trkpt><trkpt lat="45.7015888" lon="9.4171122"><ele>310.42857142857144</ele><time>2026-04-05T10:30:21.717Z</time></trkpt><trkpt lat="45.7016303" lon="9.417034"><ele>310.14285714285717</ele><time>2026-04-05T10:30:22.718Z</time></trkpt><trkpt lat="45.7016903" lon="9.4169672"><ele>309.8571428571429</ele><time>2026-04-05T10:30:23.718Z</time></trkpt><trkpt lat="45.7017374" lon="9.4168899"><ele>309.57142857142856</ele><time>2026-04-05T10:30:24.718Z</time></trkpt><trkpt lat="45.7017731" lon="9.4168003"><ele>309.28571428571433</ele><time>2026-04-05T10:30:25.718Z</time></trkpt><trkpt lat="45.7018036" lon="9.4166917"><ele>309.0</ele><time>2026-04-05T10:30:26.718Z</time></trkpt><trkpt lat="45.7018492" lon="9.4165525"><ele>309.0</ele><time>2026-04-05T10:30:28.718Z</time></trkpt><trkpt lat="45.7018843" lon="9.4163401"><ele>309.0</ele><time>2026-04-05T10:30:30.717Z</time></trkpt><trkpt lat="45.7019151" lon="9.4161924"><ele>309.0</ele><time>2026-04-05T10:30:31.718Z</time></trkpt><trkpt lat="45.7019447" lon="9.4160382"><ele>309.0</ele><time>2026-04-05T10:30:32.718Z</time></trkpt><trkpt lat="45.7019658" lon="9.4159332"><ele>309.0</ele><time>2026-04-05T10:30:33.718Z</time></trkpt><trkpt lat="45.7019839" lon="9.4158449"><ele>308.6666666666667</ele><time>2026-04-05T10:30:34.717Z</time></trkpt><trkpt lat="45.7020192" lon="9.4157347"><ele>308.3333333333333</ele><time>2026-04-05T10:30:35.718Z</time></trkpt><trkpt lat="45.7020548" lon="9.4156337"><ele>308.0</ele><time>2026-04-05T10:30:36.718Z</time></trkpt><trkpt lat="45.7020853" lon="9.4155128"><ele>307.66666666666663</ele><time>2026-04-05T10:30:37.718Z</time></trkpt><trkpt lat="45.7021194" lon="9.415411"><ele>307.3333333333333</ele><time>2026-04-05T10:30:38.718Z</time></trkpt><trkpt lat="45.7021457" lon="9.4153017"><ele>307.0</ele><time>2026-04-05T10:30:39.718Z</time></trkpt><trkpt lat="45.702197" lon="9.4151633"><ele>306.8</ele><time>2026-04-05T10:30:41.718Z</time></trkpt><trkpt lat="45.7022887" lon="9.415054"><ele>306.6</ele><time>2026-04-05T10:30:43.718Z</time></trkpt><trkpt lat="45.7023894" lon="9.4149535"><ele>306.40000000000003</ele><time>2026-04-05T10:30:45.718Z</time></trkpt><trkpt lat="45.7024727" lon="9.4148249"><ele>306.2</ele><time>2026-04-05T10:30:47.718Z</time></trkpt><trkpt lat="45.7025196" lon="9.4147405"><ele>306.0</ele><time>2026-04-05T10:30:48.718Z</time></trkpt><trkpt lat="45.7026117" lon="9.4145695"><ele>305.8</ele><time>2026-04-05T10:30:50.717Z</time></trkpt><trkpt lat="45.7026552" lon="9.4144483"><ele>305.6</ele><time>2026-04-05T10:30:51.718Z</time></trkpt><trkpt lat="45.7027473" lon="9.4143116"><ele>305.4</ele><time>2026-04-05T10:30:53.718Z</time></trkpt><trkpt lat="45.7027908" lon="9.414234"><ele>305.2</ele><time>2026-04-05T10:30:54.717Z</time></trkpt><trkpt lat="45.702833" lon="9.414149"><ele>305.0</ele><time>2026-04-05T10:30:55.718Z</time></trkpt><trkpt lat="45.7028798" lon="9.4140441"><ele>304.1666666666667</ele><time>2026-04-05T10:30:56.717Z</time></trkpt><trkpt lat="45.7029281" lon="9.4139576"><ele>303.33333333333337</ele><time>2026-04-05T10:30:57.717Z</time></trkpt><trkpt lat="45.7029801" lon="9.413882"><ele>302.5</ele><time>2026-04-05T10:30:58.718Z</time></trkpt><trkpt lat="45.7030396" lon="9.4137876"><ele>301.6666666666667</ele><time>2026-04-05T10:30:59.718Z</time></trkpt><trkpt lat="45.7031006" lon="9.4137194"><ele>300.8333333333333</ele><time>2026-04-05T10:31:00.718Z</time></trkpt><trkpt lat="45.703167" lon="9.4136491"><ele>300.0</ele><time>2026-04-05T10:31:01.718Z</time></trkpt><trkpt lat="45.7032852" lon="9.4136003"><ele>299.8333333333333</ele><time>2026-04-05T10:31:03.718Z</time></trkpt><trkpt lat="45.703369" lon="9.4135732"><ele>299.6666666666667</ele><time>2026-04-05T10:31:04.718Z</time></trkpt><trkpt lat="45.7034418" lon="9.413554"><ele>299.5</ele><time>2026-04-05T10:31:05.718Z</time></trkpt><trkpt lat="45.7035232" lon="9.4135336"><ele>299.33333333333337</ele><time>2026-04-05T10:31:06.718Z</time></trkpt><trkpt lat="45.7036068" lon="9.4134991"><ele>299.1666666666667</ele><time>2026-04-05T10:31:07.718Z</time></trkpt><trkpt lat="45.7036749" lon="9.4134623"><ele>299.0</ele><time>2026-04-05T10:31:08.718Z</time></trkpt><trkpt lat="45.7038011" lon="9.4133751"><ele>299.0</ele><time>2026-04-05T10:31:10.718Z</time></trkpt><trkpt lat="45.7038969" lon="9.4133385"><ele>299.0</ele><time>2026-04-05T10:31:11.718Z</time></trkpt><trkpt lat="45.7039727" lon="9.4133021"><ele>299.0</ele><time>2026-04-05T10:31:12.718Z</time></trkpt><trkpt lat="45.7040518" lon="9.4132853"><ele>299.0</ele><time>2026-04-05T10:31:13.717Z</time></trkpt><trkpt lat="45.7041779" lon="9.4132246"><ele>299.0</ele><time>2026-04-05T10:31:15.718Z</time></trkpt><trkpt lat="45.7042391" lon="9.4131926"><ele>299.0</ele><time>2026-04-05T10:31:16.718Z</time></trkpt><trkpt lat="45.7043035" lon="9.4131535"><ele>299.0</ele><time>2026-04-05T10:31:17.717Z</time></trkpt><trkpt lat="45.7043721" lon="9.4131015"><ele>299.0</ele><time>2026-04-05T10:31:18.717Z</time></trkpt><trkpt lat="45.7044466" lon="9.4130346"><ele>299.0</ele><time>2026-04-05T10:31:19.718Z</time></trkpt><trkpt lat="45.7045546" lon="9.4129526"><ele>299.0</ele><time>2026-04-05T10:31:21.718Z</time></trkpt><trkpt lat="45.7046209" lon="9.4129164"><ele>299.0</ele><time>2026-04-05T10:31:22.718Z</time></trkpt><trkpt lat="45.704695" lon="9.4128519"><ele>299.0</ele><time>2026-04-05T10:31:23.718Z</time></trkpt><trkpt lat="45.7047408" lon="9.4127509"><ele>299.0</ele><time>2026-04-05T10:31:24.718Z</time></trkpt><trkpt lat="45.7047776" lon="9.4126481"><ele>299.0</ele><time>2026-04-05T10:31:25.718Z</time></trkpt><trkpt lat="45.7048107" lon="9.4125635"><ele>299.0</ele><time>2026-04-05T10:31:26.718Z</time></trkpt><trkpt lat="45.7048525" lon="9.4124724"><ele>299.0</ele><time>2026-04-05T10:31:27.718Z</time></trkpt><trkpt lat="45.7048758" lon="9.4123702"><ele>299.0</ele><time>2026-04-05T10:31:28.718Z</time></trkpt><trkpt lat="45.7049132" lon="9.4122688"><ele>299.0</ele><time>2026-04-05T10:31:29.717Z</time></trkpt><trkpt lat="45.7049693" lon="9.4121879"><ele>299.0</ele><time>2026-04-05T10:31:30.718Z</time></trkpt><trkpt lat="45.7050332" lon="9.4121366"><ele>299.0</ele><time>2026-04-05T10:31:31.718Z</time></trkpt><trkpt lat="45.7050985" lon="9.4121048"><ele>299.0</ele><time>2026-04-05T10:31:32.717Z</time></trkpt><trkpt lat="45.7051712" lon="9.4120477"><ele>299.0</ele><time>2026-04-05T10:31:33.718Z</time></trkpt><trkpt lat="45.705235" lon="9.4120142"><ele>299.0</ele><time>2026-04-05T10:31:34.717Z</time></trkpt><trkpt lat="45.7053016" lon="9.4119961"><ele>299.0</ele><time>2026-04-05T10:31:35.718Z</time></trkpt><trkpt lat="45.7054107" lon="9.4119385"><ele>299.0</ele><time>2026-04-05T10:31:37.718Z</time></trkpt><trkpt lat="45.7054818" lon="9.4119111"><ele>299.0</ele><time>2026-04-05T10:31:38.718Z</time></trkpt><trkpt lat="45.7055393" lon="9.4118734"><ele>299.0</ele><time>2026-04-05T10:31:39.717Z</time></trkpt><trkpt lat="45.7056195" lon="9.4118457"><ele>299.0</ele><time>2026-04-05T10:31:40.718Z</time></trkpt><trkpt lat="45.7056977" lon="9.4118217"><ele>299.0</ele><time>2026-04-05T10:31:41.718Z</time></trkpt><trkpt lat="45.7057702" lon="9.411796"><ele>299.0</ele><time>2026-04-05T10:31:42.718Z</time></trkpt><trkpt lat="45.7058371" lon="9.4117611"><ele>299.0</ele><time>2026-04-05T10:31:43.718Z</time></trkpt><trkpt lat="45.7058973" lon="9.4117221"><ele>299.0</ele><time>2026-04-05T10:31:44.717Z</time></trkpt><trkpt lat="45.7059591" lon="9.4116725"><ele>299.0</ele><time>2026-04-05T10:31:45.718Z</time></trkpt><trkpt lat="45.7060206" lon="9.4116147"><ele>299.0</ele><time>2026-04-05T10:31:46.718Z</time></trkpt><trkpt lat="45.7060765" lon="9.4114685"><ele>299.0</ele><time>2026-04-05T10:31:48.717Z</time></trkpt><trkpt lat="45.7060605" lon="9.4113752"><ele>299.0</ele><time>2026-04-05T10:31:49.718Z</time></trkpt><trkpt lat="45.706069" lon="9.4112793"><ele>299.0</ele><time>2026-04-05T10:31:50.718Z</time></trkpt><trkpt lat="45.7060727" lon="9.4111863"><ele>299.0</ele><time>2026-04-05T10:31:51.718Z</time></trkpt><trkpt lat="45.7060843" lon="9.411075"><ele>299.0</ele><time>2026-04-05T10:31:52.717Z</time></trkpt><trkpt lat="45.7060962" lon="9.4109784"><ele>299.0</ele><time>2026-04-05T10:31:53.717Z</time></trkpt><trkpt lat="45.7061196" lon="9.410882"><ele>299.0</ele><time>2026-04-05T10:31:54.717Z</time></trkpt><trkpt lat="45.7061245" lon="9.4107891"><ele>299.0</ele><time>2026-04-05T10:31:55.718Z</time></trkpt><trkpt lat="45.7061382" lon="9.4106999"><ele>299.0</ele><time>2026-04-05T10:31:56.718Z</time></trkpt><trkpt lat="45.7061712" lon="9.4106117"><ele>299.0</ele><time>2026-04-05T10:31:57.718Z</time></trkpt><trkpt lat="45.7062021" lon="9.4105075"><ele>299.0</ele><time>2026-04-05T10:31:58.718Z</time></trkpt><trkpt lat="45.7062334" lon="9.4104268"><ele>299.0</ele><time>2026-04-05T10:31:59.718Z</time></trkpt><trkpt lat="45.7063148" lon="9.4103565"><ele>299.0</ele><time>2026-04-05T10:32:01.718Z</time></trkpt><trkpt lat="45.70639" lon="9.4102933"><ele>299.0</ele><time>2026-04-05T10:32:03.718Z</time></trkpt><trkpt lat="45.7064537" lon="9.4101882"><ele>299.0</ele><time>2026-04-05T10:32:05.718Z</time></trkpt><trkpt lat="45.7064645" lon="9.4100435"><ele>299.0</ele><time>2026-04-05T10:32:07.717Z</time></trkpt><trkpt lat="45.706439" lon="9.4099339"><ele>299.0</ele><time>2026-04-05T10:32:09.718Z</time></trkpt><trkpt lat="45.7063686" lon="9.4098031"><ele>299.0</ele><time>2026-04-05T10:32:11.717Z</time></trkpt><trkpt lat="45.7063211" lon="9.4096318"><ele>299.0</ele><time>2026-04-05T10:32:13.717Z</time></trkpt><trkpt lat="45.7063148" lon="9.4094807"><ele>299.0</ele><time>2026-04-05T10:32:14.718Z</time></trkpt><trkpt lat="45.706301" lon="9.4093824"><ele>299.0</ele><time>2026-04-05T10:32:15.718Z</time></trkpt><trkpt lat="45.7062713" lon="9.4091827"><ele>298.59999999999997</ele><time>2026-04-05T10:32:17.718Z</time></trkpt><trkpt lat="45.7062665" lon="9.4090494"><ele>298.2</ele><time>2026-04-05T10:32:18.718Z</time></trkpt><trkpt lat="45.7062537" lon="9.4089389"><ele>297.79999999999995</ele><time>2026-04-05T10:32:19.717Z</time></trkpt><trkpt lat="45.7062654" lon="9.4087703"><ele>297.4</ele><time>2026-04-05T10:32:20.718Z</time></trkpt><trkpt lat="45.7062613" lon="9.4086295"><ele>297.0</ele><time>2026-04-05T10:32:21.718Z</time></trkpt><trkpt lat="45.7062591" lon="9.4085132"><ele>297.0</ele><time>2026-04-05T10:32:22.718Z</time></trkpt><trkpt lat="45.7062607" lon="9.4084048"><ele>297.0</ele><time>2026-04-05T10:32:23.718Z</time></trkpt><trkpt lat="45.70626" lon="9.4083063"><ele>297.0</ele><time>2026-04-05T10:32:24.718Z</time></trkpt><trkpt lat="45.7062513" lon="9.4082155"><ele>297.0</ele><time>2026-04-05T10:32:25.718Z</time></trkpt><trkpt lat="45.7062442" lon="9.4080552"><ele>297.0</ele><time>2026-04-05T10:32:27.718Z</time></trkpt><trkpt lat="45.7062501" lon="9.4079285"><ele>297.0</ele><time>2026-04-05T10:32:29.718Z</time></trkpt><trkpt lat="45.7062515" lon="9.4078159"><ele>297.57142857142856</ele><time>2026-04-05T10:32:31.718Z</time></trkpt><trkpt lat="45.7062529" lon="9.4077164"><ele>298.14285714285717</ele><time>2026-04-05T10:32:33.718Z</time></trkpt><trkpt lat="45.7062405" lon="9.4076272"><ele>298.7142857142857</ele><time>2026-04-05T10:32:35.718Z</time></trkpt><trkpt lat="45.7062366" lon="9.4075044"><ele>299.2857142857143</ele><time>2026-04-05T10:32:37.718Z</time></trkpt><trkpt lat="45.7062411" lon="9.4073899"><ele>299.8571428571429</ele><time>2026-04-05T10:32:39.717Z</time></trkpt><trkpt lat="45.7062405" lon="9.4072878"><ele>300.42857142857144</ele><time>2026-04-05T10:32:41.718Z</time></trkpt><trkpt lat="45.7062321" lon="9.4071854"><ele>301.0</ele><time>2026-04-05T10:32:43.718Z</time></trkpt><trkpt lat="45.7062349" lon="9.4070825"><ele>301.3333333333333</ele><time>2026-04-05T10:32:45.718Z</time></trkpt><trkpt lat="45.7062423" lon="9.4069756"><ele>301.66666666666663</ele><time>2026-04-05T10:32:47.717Z</time></trkpt><trkpt lat="45.7062727" lon="9.4068592"><ele>302.0</ele><time>2026-04-05T10:32:49.718Z</time></trkpt><trkpt lat="45.7063157" lon="9.4067543"><ele>302.3333333333333</ele><time>2026-04-05T10:32:51.718Z</time></trkpt><trkpt lat="45.7063597" lon="9.4066488"><ele>302.6666666666667</ele><time>2026-04-05T10:32:53.718Z</time></trkpt><trkpt lat="45.7063962" lon="9.4065574"><ele>303.0</ele><time>2026-04-05T10:32:55.718Z</time></trkpt><trkpt lat="45.706424" lon="9.4064581"><ele>303.2</ele><time>2026-04-05T10:32:57.718Z</time></trkpt><trkpt lat="45.7064732" lon="9.406327"><ele>303.4</ele><time>2026-04-05T10:33:00.718Z</time></trkpt><trkpt lat="45.7064992" lon="9.4062435"><ele>303.59999999999997</ele><time>2026-04-05T10:33:02.718Z</time></trkpt><trkpt lat="45.7065435" lon="9.4061367"><ele>303.8</ele><time>2026-04-05T10:33:04.718Z</time></trkpt><trkpt lat="45.7065885" lon="9.4060237"><ele>304.0</ele><time>2026-04-05T10:33:06.718Z</time></trkpt><trkpt lat="45.7066376" lon="9.4058894"><ele>304.0</ele><time>2026-04-05T10:33:08.718Z</time></trkpt><trkpt lat="45.7066875" lon="9.4057827"><ele>304.0</ele><time>2026-04-05T10:33:10.718Z</time></trkpt><trkpt lat="45.7067404" lon="9.4056726"><ele>304.0</ele><time>2026-04-05T10:33:12.717Z</time></trkpt><trkpt lat="45.7067732" lon="9.4055742"><ele>304.0</ele><time>2026-04-05T10:33:14.718Z</time></trkpt><trkpt lat="45.7068047" lon="9.4054626"><ele>304.0</ele><time>2026-04-05T10:33:16.718Z</time></trkpt><trkpt lat="45.7068514" lon="9.4053451"><ele>304.0</ele><time>2026-04-05T10:33:18.717Z</time></trkpt><trkpt lat="45.706902" lon="9.4052212"><ele>304.59999999999997</ele><time>2026-04-05T10:33:20.718Z</time></trkpt><trkpt lat="45.7069543" lon="9.4050926"><ele>305.2</ele><time>2026-04-05T10:33:22.718Z</time></trkpt><trkpt lat="45.7070138" lon="9.4049666"><ele>305.79999999999995</ele><time>2026-04-05T10:33:24.718Z</time></trkpt><trkpt lat="45.7070828" lon="9.4048502"><ele>306.4</ele><time>2026-04-05T10:33:26.718Z</time></trkpt><trkpt lat="45.7071468" lon="9.4047443"><ele>307.0</ele><time>2026-04-05T10:33:28.718Z</time></trkpt><trkpt lat="45.7072211" lon="9.40465"><ele>307.0</ele><time>2026-04-05T10:33:30.718Z</time></trkpt><trkpt lat="45.7072943" lon="9.404559"><ele>307.0</ele><time>2026-04-05T10:33:32.718Z</time></trkpt><trkpt lat="45.7073851" lon="9.404468"><ele>307.0</ele><time>2026-04-05T10:33:34.718Z</time></trkpt><trkpt lat="45.7074698" lon="9.4043714"><ele>307.0</ele><time>2026-04-05T10:33:36.718Z</time></trkpt><trkpt lat="45.7075564" lon="9.4042731"><ele>307.0</ele><time>2026-04-05T10:33:38.718Z</time></trkpt><trkpt lat="45.7076399" lon="9.4041822"><ele>307.0</ele><time>2026-04-05T10:33:40.718Z</time></trkpt><trkpt lat="45.7077364" lon="9.4040928"><ele>307.0</ele><time>2026-04-05T10:33:42.717Z</time></trkpt><trkpt lat="45.7077881" lon="9.4040411"><ele>307.0</ele><time>2026-04-05T10:33:43.717Z</time></trkpt><trkpt lat="45.7078875" lon="9.4039424"><ele>307.0</ele><time>2026-04-05T10:33:45.718Z</time></trkpt><trkpt lat="45.7079804" lon="9.4038383"><ele>307.0</ele><time>2026-04-05T10:33:47.718Z</time></trkpt><trkpt lat="45.7080668" lon="9.4037223"><ele>306.75</ele><time>2026-04-05T10:33:49.717Z</time></trkpt><trkpt lat="45.7081657" lon="9.4036277"><ele>306.5</ele><time>2026-04-05T10:33:51.718Z</time></trkpt><trkpt lat="45.7082502" lon="9.403532"><ele>306.25</ele><time>2026-04-05T10:33:53.718Z</time></trkpt><trkpt lat="45.7083505" lon="9.4034116"><ele>306.0</ele><time>2026-04-05T10:33:55.717Z</time></trkpt><trkpt lat="45.7084291" lon="9.4032643"><ele>306.0</ele><time>2026-04-05T10:33:57.718Z</time></trkpt><trkpt lat="45.7084797" lon="9.4031674"><ele>306.0</ele><time>2026-04-05T10:33:58.718Z</time></trkpt><trkpt lat="45.7085342" lon="9.4030813"><ele>306.0</ele><time>2026-04-05T10:33:59.718Z</time></trkpt><trkpt lat="45.7085631" lon="9.4029728"><ele>306.0</ele><time>2026-04-05T10:34:00.718Z</time></trkpt><trkpt lat="45.7085924" lon="9.4028724"><ele>306.0</ele><time>2026-04-05T10:34:01.718Z</time></trkpt><trkpt lat="45.708619" lon="9.4027651"><ele>306.0</ele><time>2026-04-05T10:34:02.718Z</time></trkpt><trkpt lat="45.7086561" lon="9.4026408"><ele>305.0</ele><time>2026-04-05T10:34:03.717Z</time></trkpt><trkpt lat="45.7086859" lon="9.4025043"><ele>304.0</ele><time>2026-04-05T10:34:04.718Z</time></trkpt><trkpt lat="45.7087138" lon="9.4023763"><ele>303.0</ele><time>2026-04-05T10:34:05.718Z</time></trkpt><trkpt lat="45.7087435" lon="9.4022429"><ele>302.0</ele><time>2026-04-05T10:34:06.718Z</time></trkpt><trkpt lat="45.7087713" lon="9.4021072"><ele>301.0</ele><time>2026-04-05T10:34:07.718Z</time></trkpt><trkpt lat="45.7087937" lon="9.4019856"><ele>299.6</ele><time>2026-04-05T10:34:08.718Z</time></trkpt><trkpt lat="45.7088277" lon="9.4018871"><ele>298.20000000000005</ele><time>2026-04-05T10:34:09.717Z</time></trkpt><trkpt lat="45.7088433" lon="9.4017487"><ele>296.79999999999995</ele><time>2026-04-05T10:34:10.717Z</time></trkpt><trkpt lat="45.7088659" lon="9.4016205"><ele>295.4</ele><time>2026-04-05T10:34:11.717Z</time></trkpt><trkpt lat="45.7089152" lon="9.4014674"><ele>294.0</ele><time>2026-04-05T10:34:13.718Z</time></trkpt><trkpt lat="45.7089548" lon="9.4013754"><ele>292.6666666666667</ele><time>2026-04-05T10:34:15.718Z</time></trkpt><trkpt lat="45.709" lon="9.4012712"><ele>291.3333333333333</ele><time>2026-04-05T10:34:17.718Z</time></trkpt><trkpt lat="45.7090875" lon="9.4011929"><ele>290.0</ele><time>2026-04-05T10:34:19.718Z</time></trkpt><trkpt lat="45.7091428" lon="9.4011483"><ele>288.66666666666663</ele><time>2026-04-05T10:34:20.718Z</time></trkpt><trkpt lat="45.7091993" lon="9.4011025"><ele>287.3333333333333</ele><time>2026-04-05T10:34:21.718Z</time></trkpt><trkpt lat="45.7092623" lon="9.4010554"><ele>286.0</ele><time>2026-04-05T10:34:22.718Z</time></trkpt><trkpt lat="45.7093276" lon="9.4010242"><ele>286.2</ele><time>2026-04-05T10:34:23.718Z</time></trkpt><trkpt lat="45.7094139" lon="9.4009618"><ele>286.40000000000003</ele><time>2026-04-05T10:34:24.718Z</time></trkpt><trkpt lat="45.7094977" lon="9.4009077"><ele>286.6</ele><time>2026-04-05T10:34:25.717Z</time></trkpt><trkpt lat="45.7095747" lon="9.4008391"><ele>286.8</ele><time>2026-04-05T10:34:26.718Z</time></trkpt><trkpt lat="45.709648" lon="9.4007671"><ele>287.0</ele><time>2026-04-05T10:34:27.717Z</time></trkpt><trkpt lat="45.7097147" lon="9.400669"><ele>287.0</ele><time>2026-04-05T10:34:28.718Z</time></trkpt><trkpt lat="45.7097742" lon="9.4005645"><ele>287.0</ele><time>2026-04-05T10:34:29.718Z</time></trkpt><trkpt lat="45.709839" lon="9.4004342"><ele>287.0</ele><time>2026-04-05T10:34:30.717Z</time></trkpt><trkpt lat="45.7098769" lon="9.4003283"><ele>287.0</ele><time>2026-04-05T10:34:31.718Z</time></trkpt><trkpt lat="45.709923" lon="9.4002449"><ele>287.0</ele><time>2026-04-05T10:34:32.718Z</time></trkpt><trkpt lat="45.7099881" lon="9.4001412"><ele>286.5</ele><time>2026-04-05T10:34:33.718Z</time></trkpt><trkpt lat="45.7100473" lon="9.4000544"><ele>286.0</ele><time>2026-04-05T10:34:34.718Z</time></trkpt><trkpt lat="45.7101087" lon="9.3999791"><ele>285.5</ele><time>2026-04-05T10:34:35.718Z</time></trkpt><trkpt lat="45.7101706" lon="9.3998943"><ele>285.0</ele><time>2026-04-05T10:34:36.718Z</time></trkpt><trkpt lat="45.7102301" lon="9.3997936"><ele>284.5</ele><time>2026-04-05T10:34:37.718Z</time></trkpt><trkpt lat="45.7102875" lon="9.3997046"><ele>284.0</ele><time>2026-04-05T10:34:38.718Z</time></trkpt><trkpt lat="45.7103425" lon="9.3996166"><ele>285.0</ele><time>2026-04-05T10:34:39.718Z</time></trkpt><trkpt lat="45.7103884" lon="9.3995202"><ele>286.0</ele><time>2026-04-05T10:34:40.717Z</time></trkpt><trkpt lat="45.7104352" lon="9.3994336"><ele>287.0</ele><time>2026-04-05T10:34:41.718Z</time></trkpt><trkpt lat="45.7104798" lon="9.3993468"><ele>288.0</ele><time>2026-04-05T10:34:42.718Z</time></trkpt><trkpt lat="45.7105257" lon="9.3992692"><ele>289.0</ele><time>2026-04-05T10:34:43.718Z</time></trkpt><trkpt lat="45.7105569" lon="9.39917"><ele>290.0</ele><time>2026-04-05T10:34:44.717Z</time></trkpt><trkpt lat="45.7105916" lon="9.3990168"><ele>290.0</ele><time>2026-04-05T10:34:46.718Z</time></trkpt><trkpt lat="45.7105529" lon="9.3988838"><ele>290.0</ele><time>2026-04-05T10:34:48.717Z</time></trkpt><trkpt lat="45.7104593" lon="9.3987519"><ele>290.0</ele><time>2026-04-05T10:34:50.718Z</time></trkpt><trkpt lat="45.7104086" lon="9.3986598"><ele>290.0</ele><time>2026-04-05T10:34:51.718Z</time></trkpt><trkpt lat="45.710356" lon="9.3985877"><ele>290.0</ele><time>2026-04-05T10:34:52.718Z</time></trkpt><trkpt lat="45.7103347" lon="9.39849"><ele>289.0</ele><time>2026-04-05T10:34:53.718Z</time></trkpt><trkpt lat="45.7103708" lon="9.3983031"><ele>288.0</ele><time>2026-04-05T10:34:55.717Z</time></trkpt><trkpt lat="45.7103816" lon="9.3981953"><ele>287.0</ele><time>2026-04-05T10:34:56.718Z</time></trkpt><trkpt lat="45.7103977" lon="9.3980545"><ele>286.0</ele><time>2026-04-05T10:34:57.718Z</time></trkpt><trkpt lat="45.7104281" lon="9.3979175"><ele>285.0</ele><time>2026-04-05T10:34:58.717Z</time></trkpt><trkpt lat="45.7104375" lon="9.3977882"><ele>283.6</ele><time>2026-04-05T10:34:59.718Z</time></trkpt><trkpt lat="45.7104435" lon="9.397637"><ele>282.2</ele><time>2026-04-05T10:35:00.717Z</time></trkpt><trkpt lat="45.7104375" lon="9.3974948"><ele>280.8</ele><time>2026-04-05T10:35:01.718Z</time></trkpt><trkpt lat="45.7104281" lon="9.397365"><ele>279.4</ele><time>2026-04-05T10:35:02.718Z</time></trkpt><trkpt lat="45.71044" lon="9.3972448"><ele>278.0</ele><time>2026-04-05T10:35:03.718Z</time></trkpt><trkpt lat="45.7104681" lon="9.3971321"><ele>277.1666666666667</ele><time>2026-04-05T10:35:04.718Z</time></trkpt><trkpt lat="45.7104924" lon="9.397024"><ele>276.33333333333337</ele><time>2026-04-05T10:35:05.718Z</time></trkpt><trkpt lat="45.7105145" lon="9.3969046"><ele>275.5</ele><time>2026-04-05T10:35:06.718Z</time></trkpt><trkpt lat="45.7105296" lon="9.3967904"><ele>274.6666666666667</ele><time>2026-04-05T10:35:07.717Z</time></trkpt><trkpt lat="45.7105292" lon="9.3966912"><ele>273.8333333333333</ele><time>2026-04-05T10:35:08.718Z</time></trkpt><trkpt lat="45.7104959" lon="9.3965233"><ele>273.0</ele><time>2026-04-05T10:35:10.718Z</time></trkpt><trkpt lat="45.7104496" lon="9.3963899"><ele>272.6</ele><time>2026-04-05T10:35:12.718Z</time></trkpt><trkpt lat="45.7104012" lon="9.3962489"><ele>272.20000000000005</ele><time>2026-04-05T10:35:14.718Z</time></trkpt><trkpt lat="45.7103423" lon="9.396112"><ele>271.8</ele><time>2026-04-05T10:35:16.718Z</time></trkpt><trkpt lat="45.7103123" lon="9.3960267"><ele>271.40000000000003</ele><time>2026-04-05T10:35:17.717Z</time></trkpt><trkpt lat="45.7102863" lon="9.3959428"><ele>271.0</ele><time>2026-04-05T10:35:18.718Z</time></trkpt><trkpt lat="45.7102554" lon="9.3957927"><ele>271.8333333333333</ele><time>2026-04-05T10:35:20.718Z</time></trkpt><trkpt lat="45.7102364" lon="9.3957056"><ele>272.66666666666663</ele><time>2026-04-05T10:35:21.718Z</time></trkpt><trkpt lat="45.7102247" lon="9.3956138"><ele>273.5</ele><time>2026-04-05T10:35:22.718Z</time></trkpt><trkpt lat="45.7102" lon="9.3954614"><ele>274.3333333333333</ele><time>2026-04-05T10:35:24.718Z</time></trkpt><trkpt lat="45.7101749" lon="9.3953352"><ele>275.1666666666667</ele><time>2026-04-05T10:35:26.718Z</time></trkpt><trkpt lat="45.7101793" lon="9.3952146"><ele>276.0</ele><time>2026-04-05T10:35:28.717Z</time></trkpt><trkpt lat="45.7101441" lon="9.3950731"><ele>276.6666666666667</ele><time>2026-04-05T10:35:30.718Z</time></trkpt><trkpt lat="45.7100982" lon="9.3949669"><ele>277.3333333333333</ele><time>2026-04-05T10:35:32.717Z</time></trkpt><trkpt lat="45.7100621" lon="9.3948777"><ele>278.0</ele><time>2026-04-05T10:35:34.717Z</time></trkpt><trkpt lat="45.7100524" lon="9.3947568"><ele>278.66666666666663</ele><time>2026-04-05T10:35:36.718Z</time></trkpt><trkpt lat="45.710019" lon="9.3946335"><ele>279.3333333333333</ele><time>2026-04-05T10:35:38.717Z</time></trkpt><trkpt lat="45.7099903" lon="9.3945169"><ele>280.0</ele><time>2026-04-05T10:35:40.718Z</time></trkpt><trkpt lat="45.7099504" lon="9.3944005"><ele>280.0</ele><time>2026-04-05T10:35:42.718Z</time></trkpt><trkpt lat="45.70993" lon="9.3942701"><ele>280.0</ele><time>2026-04-05T10:35:44.718Z</time></trkpt><trkpt lat="45.709878" lon="9.3941435"><ele>280.0</ele><time>2026-04-05T10:35:46.718Z</time></trkpt><trkpt lat="45.7098385" lon="9.3940187"><ele>280.0</ele><time>2026-04-05T10:35:48.718Z</time></trkpt><trkpt lat="45.709817" lon="9.3938746"><ele>280.0</ele><time>2026-04-05T10:35:50.718Z</time></trkpt><trkpt lat="45.7097893" lon="9.3937521"><ele>280.16666666666663</ele><time>2026-04-05T10:35:52.718Z</time></trkpt><trkpt lat="45.7097522" lon="9.3936449"><ele>280.3333333333333</ele><time>2026-04-05T10:35:54.718Z</time></trkpt><trkpt lat="45.709718" lon="9.3935223"><ele>280.5</ele><time>2026-04-05T10:35:56.718Z</time></trkpt><trkpt lat="45.709691" lon="9.393392"><ele>280.6666666666667</ele><time>2026-04-05T10:35:58.718Z</time></trkpt><trkpt lat="45.7096793" lon="9.3932667"><ele>280.83333333333337</ele><time>2026-04-05T10:36:00.718Z</time></trkpt><trkpt lat="45.7096847" lon="9.3931624"><ele>281.0</ele><time>2026-04-05T10:36:02.717Z</time></trkpt><trkpt lat="45.7096936" lon="9.3930506"><ele>281.7142857142857</ele><time>2026-04-05T10:36:04.717Z</time></trkpt><trkpt lat="45.7097094" lon="9.3929602"><ele>282.42857142857144</ele><time>2026-04-05T10:36:06.718Z</time></trkpt><trkpt lat="45.7097347" lon="9.3928674"><ele>283.1428571428571</ele><time>2026-04-05T10:36:08.717Z</time></trkpt><trkpt lat="45.7097602" lon="9.3927603"><ele>283.8571428571429</ele><time>2026-04-05T10:36:10.718Z</time></trkpt><trkpt lat="45.7097862" lon="9.3926537"><ele>284.57142857142856</ele><time>2026-04-05T10:36:13.718Z</time></trkpt><trkpt lat="45.7098025" lon="9.3925576"><ele>285.2857142857143</ele><time>2026-04-05T10:36:15.718Z</time></trkpt><trkpt lat="45.7098106" lon="9.3924657"><ele>286.0</ele><time>2026-04-05T10:36:17.718Z</time></trkpt><trkpt lat="45.7098232" lon="9.3923756"><ele>286.0</ele><time>2026-04-05T10:36:19.718Z</time></trkpt><trkpt lat="45.7098315" lon="9.3922788"><ele>286.0</ele><time>2026-04-05T10:36:22.718Z</time></trkpt><trkpt lat="45.7098652" lon="9.3921616"><ele>286.0</ele><time>2026-04-05T10:36:25.718Z</time></trkpt><trkpt lat="45.7098899" lon="9.3920745"><ele>286.0</ele><time>2026-04-05T10:36:27.718Z</time></trkpt><trkpt lat="45.7099259" lon="9.3919659"><ele>286.0</ele><time>2026-04-05T10:36:30.717Z</time></trkpt><trkpt lat="45.7099708" lon="9.3918824"><ele>286.0</ele><time>2026-04-05T10:36:33.718Z</time></trkpt><trkpt lat="45.710012" lon="9.3917953"><ele>287.85714285714283</ele><time>2026-04-05T10:36:35.718Z</time></trkpt><trkpt lat="45.7100607" lon="9.3916941"><ele>289.7142857142857</ele><time>2026-04-05T10:36:38.718Z</time></trkpt><trkpt lat="45.7101109" lon="9.3916024"><ele>291.57142857142856</ele><time>2026-04-05T10:36:41.718Z</time></trkpt><trkpt lat="45.7101363" lon="9.3915076"><ele>293.42857142857144</ele><time>2026-04-05T10:36:43.718Z</time></trkpt><trkpt lat="45.7101702" lon="9.3914187"><ele>295.2857142857143</ele><time>2026-04-05T10:36:45.717Z</time></trkpt><trkpt lat="45.7102048" lon="9.3913284"><ele>297.1428571428571</ele><time>2026-04-05T10:36:47.717Z</time></trkpt><trkpt lat="45.7102214" lon="9.391237"><ele>299.0</ele><time>2026-04-05T10:36:49.717Z</time></trkpt><trkpt lat="45.7102534" lon="9.3911363"><ele>299.85714285714283</ele><time>2026-04-05T10:36:52.718Z</time></trkpt><trkpt lat="45.7103077" lon="9.3910793"><ele>300.7142857142857</ele><time>2026-04-05T10:36:54.718Z</time></trkpt><trkpt lat="45.7103357" lon="9.3909882"><ele>301.57142857142856</ele><time>2026-04-05T10:36:57.718Z</time></trkpt><trkpt lat="45.7103693" lon="9.3908992"><ele>302.42857142857144</ele><time>2026-04-05T10:37:00.718Z</time></trkpt><trkpt lat="45.7104047" lon="9.3908169"><ele>303.2857142857143</ele><time>2026-04-05T10:37:02.718Z</time></trkpt><trkpt lat="45.7104377" lon="9.3907017"><ele>304.14285714285717</ele><time>2026-04-05T10:37:05.718Z</time></trkpt><trkpt lat="45.7104494" lon="9.3906111"><ele>305.0</ele><time>2026-04-05T10:37:08.718Z</time></trkpt><trkpt lat="45.7104936" lon="9.3905297"><ele>305.5714285714286</ele><time>2026-04-05T10:37:11.718Z</time></trkpt><trkpt lat="45.7105482" lon="9.3904457"><ele>306.1428571428571</ele><time>2026-04-05T10:37:13.718Z</time></trkpt><trkpt lat="45.7105741" lon="9.3903616"><ele>306.7142857142857</ele><time>2026-04-05T10:37:15.718Z</time></trkpt><trkpt lat="45.7106049" lon="9.3902686"><ele>307.28571428571433</ele><time>2026-04-05T10:37:18.718Z</time></trkpt><trkpt lat="45.7106344" lon="9.390161"><ele>307.8571428571429</ele><time>2026-04-05T10:37:21.718Z</time></trkpt><trkpt lat="45.7106364" lon="9.3900506"><ele>308.42857142857144</ele><time>2026-04-05T10:37:24.718Z</time></trkpt><trkpt lat="45.710643" lon="9.389953"><ele>309.0</ele><time>2026-04-05T10:37:26.718Z</time></trkpt><trkpt lat="45.7106795" lon="9.3898112"><ele>309.0</ele><time>2026-04-05T10:37:28.717Z</time></trkpt><trkpt lat="45.7107316" lon="9.3896598"><ele>309.0</ele><time>2026-04-05T10:37:30.718Z</time></trkpt><trkpt lat="45.7107811" lon="9.3895029"><ele>309.0</ele><time>2026-04-05T10:37:31.718Z</time></trkpt><trkpt lat="45.7108214" lon="9.3893668"><ele>309.0</ele><time>2026-04-05T10:37:33.718Z</time></trkpt><trkpt lat="45.7108739" lon="9.389253"><ele>309.0</ele><time>2026-04-05T10:37:35.717Z</time></trkpt><trkpt lat="45.7108998" lon="9.3891279"><ele>309.0</ele><time>2026-04-05T10:37:38.717Z</time></trkpt><trkpt lat="45.7108972" lon="9.3890183"><ele>309.0</ele><time>2026-04-05T10:37:40.718Z</time></trkpt><trkpt lat="45.7108752" lon="9.3889015"><ele>309.0</ele><time>2026-04-05T10:37:43.718Z</time></trkpt><trkpt lat="45.7108492" lon="9.3887876"><ele>309.0</ele><time>2026-04-05T10:37:46.718Z</time></trkpt><trkpt lat="45.7108329" lon="9.3886862"><ele>309.0</ele><time>2026-04-05T10:37:48.718Z</time></trkpt><trkpt lat="45.7108058" lon="9.3885571"><ele>309.0</ele><time>2026-04-05T10:37:50.717Z</time></trkpt><trkpt lat="45.7107948" lon="9.3884452"><ele>308.4</ele><time>2026-04-05T10:37:51.718Z</time></trkpt><trkpt lat="45.710734" lon="9.3883274"><ele>307.79999999999995</ele><time>2026-04-05T10:37:53.718Z</time></trkpt><trkpt lat="45.7106813" lon="9.3882515"><ele>307.20000000000005</ele><time>2026-04-05T10:37:54.718Z</time></trkpt><trkpt lat="45.7106321" lon="9.3881753"><ele>306.6</ele><time>2026-04-05T10:37:55.718Z</time></trkpt><trkpt lat="45.7105566" lon="9.3880561"><ele>306.0</ele><time>2026-04-05T10:37:57.718Z</time></trkpt><trkpt lat="45.7105361" lon="9.3879072"><ele>304.6</ele><time>2026-04-05T10:37:58.718Z</time></trkpt><trkpt lat="45.7105113" lon="9.3877966"><ele>303.20000000000005</ele><time>2026-04-05T10:37:59.718Z</time></trkpt><trkpt lat="45.7105086" lon="9.3877064"><ele>301.79999999999995</ele><time>2026-04-05T10:38:00.718Z</time></trkpt><trkpt lat="45.7104925" lon="9.387534"><ele>300.4</ele><time>2026-04-05T10:38:02.718Z</time></trkpt><trkpt lat="45.7105074" lon="9.3873943"><ele>299.0</ele><time>2026-04-05T10:38:03.717Z</time></trkpt><trkpt lat="45.7105179" lon="9.3872512"><ele>298.33333333333337</ele><time>2026-04-05T10:38:04.718Z</time></trkpt><trkpt lat="45.7105238" lon="9.3871246"><ele>297.6666666666667</ele><time>2026-04-05T10:38:05.717Z</time></trkpt><trkpt lat="45.7105149" lon="9.3870064"><ele>297.0</ele><time>2026-04-05T10:38:06.718Z</time></trkpt><trkpt lat="45.7105037" lon="9.3869001"><ele>296.3333333333333</ele><time>2026-04-05T10:38:07.718Z</time></trkpt><trkpt lat="45.7105271" lon="9.3867657"><ele>295.66666666666663</ele><time>2026-04-05T10:38:08.717Z</time></trkpt><trkpt lat="45.7105202" lon="9.3866469"><ele>295.0</ele><time>2026-04-05T10:38:09.718Z</time></trkpt><trkpt lat="45.7105144" lon="9.3865135"><ele>295.0</ele><time>2026-04-05T10:38:10.718Z</time></trkpt><trkpt lat="45.7104828" lon="9.3864085"><ele>295.0</ele><time>2026-04-05T10:38:11.718Z</time></trkpt><trkpt lat="45.7104244" lon="9.3862707"><ele>295.0</ele><time>2026-04-05T10:38:13.718Z</time></trkpt><trkpt lat="45.7103671" lon="9.3861746"><ele>295.0</ele><time>2026-04-05T10:38:15.717Z</time></trkpt><trkpt lat="45.7103208" lon="9.3860544"><ele>295.0</ele><time>2026-04-05T10:38:17.717Z</time></trkpt><trkpt lat="45.7102672" lon="9.3859661"><ele>295.0</ele><time>2026-04-05T10:38:19.718Z</time></trkpt><trkpt lat="45.7102245" lon="9.3858615"><ele>295.0</ele><time>2026-04-05T10:38:21.717Z</time></trkpt><trkpt lat="45.7101979" lon="9.3857532"><ele>295.0</ele><time>2026-04-05T10:38:23.717Z</time></trkpt><trkpt lat="45.7101905" lon="9.3856336"><ele>295.0</ele><time>2026-04-05T10:38:25.717Z</time></trkpt><trkpt lat="45.7101919" lon="9.3855195"><ele>295.0</ele><time>2026-04-05T10:38:27.718Z</time></trkpt><trkpt lat="45.7102066" lon="9.3854071"><ele>295.0</ele><time>2026-04-05T10:38:29.718Z</time></trkpt><trkpt lat="45.7102382" lon="9.3853018"><ele>296.4</ele><time>2026-04-05T10:38:31.718Z</time></trkpt><trkpt lat="45.7102801" lon="9.3851928"><ele>297.8</ele><time>2026-04-05T10:38:33.718Z</time></trkpt><trkpt lat="45.7103299" lon="9.3850827"><ele>299.2</ele><time>2026-04-05T10:38:35.718Z</time></trkpt><trkpt lat="45.7103793" lon="9.3849753"><ele>300.6</ele><time>2026-04-05T10:38:37.718Z</time></trkpt><trkpt lat="45.7104312" lon="9.3848575"><ele>302.0</ele><time>2026-04-05T10:38:39.718Z</time></trkpt><trkpt lat="45.710489" lon="9.3847379"><ele>302.0</ele><time>2026-04-05T10:38:41.718Z</time></trkpt><trkpt lat="45.7105482" lon="9.3846219"><ele>302.0</ele><time>2026-04-05T10:38:43.718Z</time></trkpt><trkpt lat="45.7106023" lon="9.3845083"><ele>302.0</ele><time>2026-04-05T10:38:45.718Z</time></trkpt><trkpt lat="45.7106637" lon="9.3843911"><ele>302.0</ele><time>2026-04-05T10:38:47.717Z</time></trkpt><trkpt lat="45.7107182" lon="9.3842584"><ele>302.0</ele><time>2026-04-05T10:38:49.718Z</time></trkpt><trkpt lat="45.710764" lon="9.3841253"><ele>302.0</ele><time>2026-04-05T10:38:51.717Z</time></trkpt><trkpt lat="45.7108129" lon="9.3839947"><ele>302.0</ele><time>2026-04-05T10:38:53.718Z</time></trkpt><trkpt lat="45.7108649" lon="9.3838579"><ele>302.0</ele><time>2026-04-05T10:38:55.718Z</time></trkpt><trkpt lat="45.7109355" lon="9.3837248"><ele>302.0</ele><time>2026-04-05T10:38:57.717Z</time></trkpt><trkpt lat="45.7109724" lon="9.3836498"><ele>302.0</ele><time>2026-04-05T10:38:58.718Z</time></trkpt><trkpt lat="45.7110446" lon="9.3835273"><ele>301.4</ele><time>2026-04-05T10:39:00.718Z</time></trkpt><trkpt lat="45.7111277" lon="9.383375"><ele>300.79999999999995</ele><time>2026-04-05T10:39:02.717Z</time></trkpt><trkpt lat="45.7111932" lon="9.383267"><ele>300.2</ele><time>2026-04-05T10:39:04.718Z</time></trkpt><trkpt lat="45.7112303" lon="9.3831664"><ele>299.59999999999997</ele><time>2026-04-05T10:39:05.717Z</time></trkpt><trkpt lat="45.71128" lon="9.3830845"><ele>299.0</ele><time>2026-04-05T10:39:06.718Z</time></trkpt><trkpt lat="45.7113511" lon="9.3829337"><ele>299.0</ele><time>2026-04-05T10:39:08.718Z</time></trkpt><trkpt lat="45.7113822" lon="9.3828422"><ele>299.0</ele><time>2026-04-05T10:39:09.718Z</time></trkpt><trkpt lat="45.7114483" lon="9.3826998"><ele>299.0</ele><time>2026-04-05T10:39:11.718Z</time></trkpt><trkpt lat="45.711498" lon="9.3825361"><ele>299.0</ele><time>2026-04-05T10:39:13.718Z</time></trkpt><trkpt lat="45.7115411" lon="9.3824543"><ele>299.0</ele><time>2026-04-05T10:39:14.718Z</time></trkpt><trkpt lat="45.7116094" lon="9.3823163"><ele>299.0</ele><time>2026-04-05T10:39:16.717Z</time></trkpt><trkpt lat="45.7116498" lon="9.3822468"><ele>299.0</ele><time>2026-04-05T10:39:17.718Z</time></trkpt><trkpt lat="45.7117141" lon="9.382093"><ele>299.0</ele><time>2026-04-05T10:39:19.718Z</time></trkpt><trkpt lat="45.7117962" lon="9.3819264"><ele>299.0</ele><time>2026-04-05T10:39:21.718Z</time></trkpt><trkpt lat="45.7118754" lon="9.3817612"><ele>298.8</ele><time>2026-04-05T10:39:23.718Z</time></trkpt><trkpt lat="45.7119418" lon="9.3816227"><ele>298.59999999999997</ele><time>2026-04-05T10:39:25.718Z</time></trkpt><trkpt lat="45.7120044" lon="9.3815281"><ele>298.4</ele><time>2026-04-05T10:39:27.718Z</time></trkpt><trkpt lat="45.7120543" lon="9.3814711"><ele>298.2</ele><time>2026-04-05T10:39:28.718Z</time></trkpt><trkpt lat="45.7121319" lon="9.3814216"><ele>298.0</ele><time>2026-04-05T10:39:29.718Z</time></trkpt><trkpt lat="45.7122506" lon="9.3813283"><ele>297.5</ele><time>2026-04-05T10:39:31.717Z</time></trkpt><trkpt lat="45.7123681" lon="9.381253"><ele>297.0</ele><time>2026-04-05T10:39:33.718Z</time></trkpt><trkpt lat="45.7124461" lon="9.3812256"><ele>296.5</ele><time>2026-04-05T10:39:34.718Z</time></trkpt><trkpt lat="45.7125144" lon="9.3812005"><ele>296.0</ele><time>2026-04-05T10:39:35.717Z</time></trkpt><trkpt lat="45.7125852" lon="9.3811773"><ele>295.5</ele><time>2026-04-05T10:39:36.718Z</time></trkpt><trkpt lat="45.7126588" lon="9.3811549"><ele>295.0</ele><time>2026-04-05T10:39:37.718Z</time></trkpt><trkpt lat="45.7127327" lon="9.3811239"><ele>295.0</ele><time>2026-04-05T10:39:38.718Z</time></trkpt><trkpt lat="45.7128042" lon="9.3811017"><ele>295.0</ele><time>2026-04-05T10:39:39.718Z</time></trkpt><trkpt lat="45.7128777" lon="9.3810931"><ele>295.0</ele><time>2026-04-05T10:39:40.717Z</time></trkpt><trkpt lat="45.71294" lon="9.3810719"><ele>295.0</ele><time>2026-04-05T10:39:41.718Z</time></trkpt><trkpt lat="45.7130066" lon="9.3810093"><ele>295.0</ele><time>2026-04-05T10:39:42.718Z</time></trkpt><trkpt lat="45.7130741" lon="9.3809853"><ele>295.0</ele><time>2026-04-05T10:39:43.717Z</time></trkpt><trkpt lat="45.7131894" lon="9.3809431"><ele>295.0</ele><time>2026-04-05T10:39:45.718Z</time></trkpt><trkpt lat="45.7132422" lon="9.3808646"><ele>295.0</ele><time>2026-04-05T10:39:47.718Z</time></trkpt><trkpt lat="45.7133095" lon="9.3808627"><ele>295.0</ele><time>2026-04-05T10:39:48.718Z</time></trkpt><trkpt lat="45.7134034" lon="9.3808882"><ele>295.0</ele><time>2026-04-05T10:39:50.718Z</time></trkpt><trkpt lat="45.7133222" lon="9.3808608"><ele>295.0</ele><time>2026-04-05T10:39:51.718Z</time></trkpt><trkpt lat="45.7132585" lon="9.3808039"><ele>295.0</ele><time>2026-04-05T10:39:53.718Z</time></trkpt><trkpt lat="45.7131872" lon="9.3807462"><ele>295.0</ele><time>2026-04-05T10:39:55.718Z</time></trkpt><trkpt lat="45.7131291" lon="9.3807088"><ele>295.0</ele><time>2026-04-05T10:39:57.718Z</time></trkpt><trkpt lat="45.7130561" lon="9.3806448"><ele>295.0</ele><time>2026-04-05T10:39:59.718Z</time></trkpt><trkpt lat="45.7130255" lon="9.3805632"><ele>295.0</ele><time>2026-04-05T10:40:00.718Z</time></trkpt><trkpt lat="45.7129596" lon="9.3804884"><ele>295.0</ele><time>2026-04-05T10:40:02.717Z</time></trkpt><trkpt lat="45.7129028" lon="9.3803945"><ele>295.0</ele><time>2026-04-05T10:40:04.718Z</time></trkpt><trkpt lat="45.7128176" lon="9.3803415"><ele>295.16666666666663</ele><time>2026-04-05T10:40:06.717Z</time></trkpt><trkpt lat="45.7127019" lon="9.3802793"><ele>295.3333333333333</ele><time>2026-04-05T10:40:08.717Z</time></trkpt><trkpt lat="45.7126311" lon="9.3801989"><ele>295.5</ele><time>2026-04-05T10:40:10.718Z</time></trkpt><trkpt lat="45.7125577" lon="9.3801463"><ele>295.6666666666667</ele><time>2026-04-05T10:40:12.717Z</time></trkpt><trkpt lat="45.7124922" lon="9.3801432"><ele>295.83333333333337</ele><time>2026-04-05T10:40:14.718Z</time></trkpt><trkpt lat="45.7124125" lon="9.3801364"><ele>296.0</ele><time>2026-04-05T10:40:17.718Z</time></trkpt><trkpt lat="45.7123421" lon="9.3801131"><ele>296.0</ele><time>2026-04-05T10:40:20.718Z</time></trkpt><trkpt lat="45.7122776" lon="9.3801174"><ele>296.0</ele><time>2026-04-05T10:40:22.717Z</time></trkpt><trkpt lat="45.712202" lon="9.3801694"><ele>296.0</ele><time>2026-04-05T10:40:23.718Z</time></trkpt><trkpt lat="45.712126" lon="9.3801316"><ele>296.0</ele><time>2026-04-05T10:40:26.718Z</time></trkpt><trkpt lat="45.712028" lon="9.3800954"><ele>296.0</ele><time>2026-04-05T10:40:29.718Z</time></trkpt><trkpt lat="45.7119571" lon="9.3800864"><ele>296.0</ele><time>2026-04-05T10:40:31.718Z</time></trkpt><trkpt lat="45.7118918" lon="9.3800663"><ele>296.7142857142857</ele><time>2026-04-05T10:40:33.718Z</time></trkpt><trkpt lat="45.7118259" lon="9.3800617"><ele>297.42857142857144</ele><time>2026-04-05T10:40:35.718Z</time></trkpt><trkpt lat="45.7117586" lon="9.3800701"><ele>298.1428571428571</ele><time>2026-04-05T10:40:39.718Z</time></trkpt><trkpt lat="45.7116914" lon="9.3800854"><ele>298.8571428571429</ele><time>2026-04-05T10:40:42.718Z</time></trkpt><trkpt lat="45.7116233" lon="9.3800617"><ele>299.57142857142856</ele><time>2026-04-05T10:40:44.718Z</time></trkpt><trkpt lat="45.711558" lon="9.3800108"><ele>300.2857142857143</ele><time>2026-04-05T10:40:47.718Z</time></trkpt><trkpt lat="45.7114897" lon="9.3799691"><ele>301.0</ele><time>2026-04-05T10:40:50.718Z</time></trkpt><trkpt lat="45.71144" lon="9.3799101"><ele>301.0</ele><time>2026-04-05T10:40:52.718Z</time></trkpt><trkpt lat="45.7113701" lon="9.3798297"><ele>301.0</ele><time>2026-04-05T10:40:55.718Z</time></trkpt><trkpt lat="45.7113196" lon="9.3797516"><ele>301.0</ele><time>2026-04-05T10:40:58.718Z</time></trkpt><trkpt lat="45.7112904" lon="9.3796669"><ele>301.0</ele><time>2026-04-05T10:41:00.718Z</time></trkpt><trkpt lat="45.7112512" lon="9.379558"><ele>301.0</ele><time>2026-04-05T10:41:03.718Z</time></trkpt><trkpt lat="45.7112084" lon="9.3794572"><ele>301.0</ele><time>2026-04-05T10:41:06.718Z</time></trkpt><trkpt lat="45.711169" lon="9.3793358"><ele>301.5</ele><time>2026-04-05T10:41:09.718Z</time></trkpt><trkpt lat="45.7111221" lon="9.3792557"><ele>302.0</ele><time>2026-04-05T10:41:11.717Z</time></trkpt><trkpt lat="45.7110721" lon="9.379168"><ele>302.5</ele><time>2026-04-05T10:41:14.718Z</time></trkpt><trkpt lat="45.7110423" lon="9.3790758"><ele>303.0</ele><time>2026-04-05T10:41:17.718Z</time></trkpt><trkpt lat="45.711013" lon="9.3789511"><ele>303.5</ele><time>2026-04-05T10:41:20.718Z</time></trkpt><trkpt lat="45.7109981" lon="9.3788292"><ele>304.0</ele><time>2026-04-05T10:41:23.718Z</time></trkpt><trkpt lat="45.7109852" lon="9.3787367"><ele>304.16666666666663</ele><time>2026-04-05T10:41:25.718Z</time></trkpt><trkpt lat="45.7109705" lon="9.3786111"><ele>304.3333333333333</ele><time>2026-04-05T10:41:28.717Z</time></trkpt><trkpt lat="45.7109636" lon="9.3785211"><ele>304.5</ele><time>2026-04-05T10:41:30.718Z</time></trkpt><trkpt lat="45.7109525" lon="9.3783976"><ele>304.6666666666667</ele><time>2026-04-05T10:41:33.718Z</time></trkpt><trkpt lat="45.7109428" lon="9.3782813"><ele>304.83333333333337</ele><time>2026-04-05T10:41:36.717Z</time></trkpt><trkpt lat="45.7109318" lon="9.3781708"><ele>305.0</ele><time>2026-04-05T10:41:39.718Z</time></trkpt><trkpt lat="45.7109243" lon="9.3780532"><ele>306.2857142857143</ele><time>2026-04-05T10:41:42.718Z</time></trkpt><trkpt lat="45.7109114" lon="9.377945"><ele>307.57142857142856</ele><time>2026-04-05T10:41:45.717Z</time></trkpt><trkpt lat="45.7109012" lon="9.3778475"><ele>308.85714285714283</ele><time>2026-04-05T10:41:48.718Z</time></trkpt><trkpt lat="45.7108947" lon="9.3777211"><ele>310.1428571428571</ele><time>2026-04-05T10:41:51.718Z</time></trkpt><trkpt lat="45.7108839" lon="9.3776201"><ele>311.42857142857144</ele><time>2026-04-05T10:41:54.717Z</time></trkpt><trkpt lat="45.7108773" lon="9.3775213"><ele>312.71428571428567</ele><time>2026-04-05T10:41:57.717Z</time></trkpt><trkpt lat="45.7108634" lon="9.3774259"><ele>314.0</ele><time>2026-04-05T10:42:00.718Z</time></trkpt><trkpt lat="45.710856" lon="9.3773267"><ele>314.0</ele><time>2026-04-05T10:42:03.718Z</time></trkpt><trkpt lat="45.7108556" lon="9.3772141"><ele>314.0</ele><time>2026-04-05T10:42:06.718Z</time></trkpt><trkpt lat="45.7108525" lon="9.3770986"><ele>314.0</ele><time>2026-04-05T10:42:09.718Z</time></trkpt><trkpt lat="45.7108569" lon="9.3769925"><ele>314.0</ele><time>2026-04-05T10:42:12.717Z</time></trkpt><trkpt lat="45.7108523" lon="9.3768822"><ele>314.0</ele><time>2026-04-05T10:42:16.718Z</time></trkpt><trkpt lat="45.7107926" lon="9.3767915"><ele>314.0</ele><time>2026-04-05T10:42:19.717Z</time></trkpt><trkpt lat="45.7107042" lon="9.3768"><ele>314.0</ele><time>2026-04-05T10:42:22.718Z</time></trkpt><trkpt lat="45.7106457" lon="9.3768463"><ele>314.0</ele><time>2026-04-05T10:42:24.718Z</time></trkpt><trkpt lat="45.7105906" lon="9.3769604"><ele>314.0</ele><time>2026-04-05T10:42:26.718Z</time></trkpt><trkpt lat="45.7105168" lon="9.3770242"><ele>314.0</ele><time>2026-04-05T10:42:28.718Z</time></trkpt><trkpt lat="45.7104177" lon="9.3771254"><ele>314.0</ele><time>2026-04-05T10:42:30.717Z</time></trkpt><trkpt lat="45.7103391" lon="9.3772286"><ele>314.0</ele><time>2026-04-05T10:42:32.718Z</time></trkpt><trkpt lat="45.7102662" lon="9.3773317"><ele>314.0</ele><time>2026-04-05T10:42:34.718Z</time></trkpt><trkpt lat="45.7101792" lon="9.3774046"><ele>314.0</ele><time>2026-04-05T10:42:36.718Z</time></trkpt><trkpt lat="45.7101243" lon="9.3774806"><ele>314.0</ele><time>2026-04-05T10:42:38.717Z</time></trkpt><trkpt lat="45.7100412" lon="9.3775004"><ele>314.0</ele><time>2026-04-05T10:42:40.717Z</time></trkpt><trkpt lat="45.7099336" lon="9.3774871"><ele>315.83333333333337</ele><time>2026-04-05T10:42:43.718Z</time></trkpt><trkpt lat="45.7098597" lon="9.3774637"><ele>317.6666666666667</ele><time>2026-04-05T10:42:45.718Z</time></trkpt><trkpt lat="45.7097555" lon="9.3774096"><ele>319.5</ele><time>2026-04-05T10:42:47.718Z</time></trkpt><trkpt lat="45.7096894" lon="9.3773523"><ele>321.3333333333333</ele><time>2026-04-05T10:42:49.717Z</time></trkpt><trkpt lat="45.7096358" lon="9.3772925"><ele>323.16666666666663</ele><time>2026-04-05T10:42:51.718Z</time></trkpt><trkpt lat="45.7095668" lon="9.3772741"><ele>325.0</ele><time>2026-04-05T10:42:53.718Z</time></trkpt><trkpt lat="45.7095037" lon="9.3773265"><ele>325.0</ele><time>2026-04-05T10:42:56.718Z</time></trkpt><trkpt lat="45.7094552" lon="9.3773915"><ele>325.0</ele><time>2026-04-05T10:42:58.718Z</time></trkpt><trkpt lat="45.7093922" lon="9.377491"><ele>325.0</ele><time>2026-04-05T10:43:01.718Z</time></trkpt><trkpt lat="45.7093716" lon="9.3775798"><ele>325.0</ele><time>2026-04-05T10:43:03.717Z</time></trkpt><trkpt lat="45.7093824" lon="9.3777016"><ele>325.0</ele><time>2026-04-05T10:43:05.717Z</time></trkpt><trkpt lat="45.7093473" lon="9.377807"><ele>325.0</ele><time>2026-04-05T10:43:09.718Z</time></trkpt><trkpt lat="45.7092908" lon="9.3778813"><ele>326.85714285714283</ele><time>2026-04-05T10:43:14.718Z</time></trkpt><trkpt lat="45.7092691" lon="9.3779664"><ele>328.7142857142857</ele><time>2026-04-05T10:43:17.718Z</time></trkpt><trkpt lat="45.7092694" lon="9.3780634"><ele>330.57142857142856</ele><time>2026-04-05T10:43:19.717Z</time></trkpt><trkpt lat="45.7092809" lon="9.378174"><ele>332.42857142857144</ele><time>2026-04-05T10:43:22.718Z</time></trkpt><trkpt lat="45.7092852" lon="9.3782754"><ele>334.2857142857143</ele><time>2026-04-05T10:43:25.718Z</time></trkpt><trkpt lat="45.7092882" lon="9.378371"><ele>336.14285714285717</ele><time>2026-04-05T10:43:28.718Z</time></trkpt><trkpt lat="45.709308" lon="9.378457"><ele>338.0</ele><time>2026-04-05T10:43:31.718Z</time></trkpt><trkpt lat="45.7092927" lon="9.3785655"><ele>338.83333333333337</ele><time>2026-04-05T10:43:35.718Z</time></trkpt><trkpt lat="45.7092678" lon="9.3786757"><ele>339.6666666666667</ele><time>2026-04-05T10:43:39.718Z</time></trkpt><trkpt lat="45.7092514" lon="9.3787862"><ele>340.5</ele><time>2026-04-05T10:43:42.718Z</time></trkpt><trkpt lat="45.7092437" lon="9.378896"><ele>341.3333333333333</ele><time>2026-04-05T10:43:45.718Z</time></trkpt><trkpt lat="45.7092376" lon="9.3789921"><ele>342.16666666666663</ele><time>2026-04-05T10:43:48.718Z</time></trkpt><trkpt lat="45.7092497" lon="9.3790958"><ele>343.0</ele><time>2026-04-05T10:43:53.718Z</time></trkpt><trkpt lat="45.7092748" lon="9.3791937"><ele>344.0</ele><time>2026-04-05T10:43:56.718Z</time></trkpt><trkpt lat="45.709314" lon="9.3792841"><ele>345.0</ele><time>2026-04-05T10:43:59.718Z</time></trkpt><trkpt lat="45.709351" lon="9.379373"><ele>346.0</ele><time>2026-04-05T10:44:02.718Z</time></trkpt><trkpt lat="45.7093477" lon="9.3794721"><ele>347.0</ele><time>2026-04-05T10:44:05.718Z</time></trkpt><trkpt lat="45.7093623" lon="9.3795787"><ele>348.0</ele><time>2026-04-05T10:44:08.718Z</time></trkpt><trkpt lat="45.7093144" lon="9.3796745"><ele>349.0</ele><time>2026-04-05T10:44:11.718Z</time></trkpt><trkpt lat="45.7093339" lon="9.3797775"><ele>350.0</ele><time>2026-04-05T10:44:14.717Z</time></trkpt><trkpt lat="45.7093631" lon="9.3798762"><ele>350.0</ele><time>2026-04-05T10:44:17.718Z</time></trkpt><trkpt lat="45.7093539" lon="9.3799965"><ele>350.0</ele><time>2026-04-05T10:44:20.718Z</time></trkpt><trkpt lat="45.7093261" lon="9.3800943"><ele>350.0</ele><time>2026-04-05T10:44:23.717Z</time></trkpt><trkpt lat="45.7092831" lon="9.3801933"><ele>350.0</ele><time>2026-04-05T10:44:26.718Z</time></trkpt><trkpt lat="45.7092328" lon="9.3802536"><ele>350.0</ele><time>2026-04-05T10:44:28.717Z</time></trkpt><trkpt lat="45.7091659" lon="9.3803338"><ele>350.0</ele><time>2026-04-05T10:44:30.718Z</time></trkpt><trkpt lat="45.7090966" lon="9.3804211"><ele>350.0</ele><time>2026-04-05T10:44:32.718Z</time></trkpt><trkpt lat="45.7090357" lon="9.3805113"><ele>350.0</ele><time>2026-04-05T10:44:35.718Z</time></trkpt><trkpt lat="45.7089906" lon="9.3805958"><ele>350.0</ele><time>2026-04-05T10:44:37.718Z</time></trkpt><trkpt lat="45.708919" lon="9.3807247"><ele>350.0</ele><time>2026-04-05T10:44:39.718Z</time></trkpt><trkpt lat="45.7088443" lon="9.3808619"><ele>350.0</ele><time>2026-04-05T10:44:41.718Z</time></trkpt><trkpt lat="45.7087065" lon="9.3810532"><ele>351.1666666666667</ele><time>2026-04-05T10:44:43.718Z</time></trkpt><trkpt lat="45.7086406" lon="9.3811311"><ele>352.33333333333337</ele><time>2026-04-05T10:44:45.718Z</time></trkpt><trkpt lat="45.7085703" lon="9.3811784"><ele>353.5</ele><time>2026-04-05T10:44:47.718Z</time></trkpt><trkpt lat="45.7084859" lon="9.3812208"><ele>354.6666666666667</ele><time>2026-04-05T10:44:49.718Z</time></trkpt><trkpt lat="45.7084246" lon="9.3812614"><ele>355.8333333333333</ele><time>2026-04-05T10:44:50.718Z</time></trkpt><trkpt lat="45.70836" lon="9.3812863"><ele>357.0</ele><time>2026-04-05T10:44:51.718Z</time></trkpt><trkpt lat="45.7082607" lon="9.3813106"><ele>357.0</ele><time>2026-04-05T10:44:53.718Z</time></trkpt><trkpt lat="45.7081972" lon="9.3813209"><ele>357.0</ele><time>2026-04-05T10:44:54.717Z</time></trkpt><trkpt lat="45.708052" lon="9.3813579"><ele>357.0</ele><time>2026-04-05T10:44:56.718Z</time></trkpt><trkpt lat="45.7079469" lon="9.3813986"><ele>357.0</ele><time>2026-04-05T10:44:58.718Z</time></trkpt><trkpt lat="45.7078241" lon="9.3813986"><ele>357.0</ele><time>2026-04-05T10:45:00.718Z</time></trkpt><trkpt lat="45.7076989" lon="9.3814787"><ele>355.6666666666667</ele><time>2026-04-05T10:45:02.718Z</time></trkpt><trkpt lat="45.7076212" lon="9.3815003"><ele>354.3333333333333</ele><time>2026-04-05T10:45:03.717Z</time></trkpt><trkpt lat="45.7075367" lon="9.3815702"><ele>353.0</ele><time>2026-04-05T10:45:05.718Z</time></trkpt><trkpt lat="45.7074572" lon="9.3815956"><ele>351.66666666666663</ele><time>2026-04-05T10:45:07.717Z</time></trkpt><trkpt lat="45.7074049" lon="9.3816617"><ele>350.3333333333333</ele><time>2026-04-05T10:45:09.718Z</time></trkpt><trkpt lat="45.7073041" lon="9.3817047"><ele>349.0</ele><time>2026-04-05T10:45:11.718Z</time></trkpt><trkpt lat="45.7072316" lon="9.3817708"><ele>348.99999999999994</ele><time>2026-04-05T10:45:13.718Z</time></trkpt><trkpt lat="45.7071675" lon="9.381796"><ele>349.0</ele><time>2026-04-05T10:45:15.718Z</time></trkpt><trkpt lat="45.7070916" lon="9.3817964"><ele>349.0</ele><time>2026-04-05T10:45:17.718Z</time></trkpt><trkpt lat="45.7070245" lon="9.3817976"><ele>349.0</ele><time>2026-04-05T10:45:19.718Z</time></trkpt><trkpt lat="45.7069599" lon="9.3818011"><ele>349.0</ele><time>2026-04-05T10:45:21.718Z</time></trkpt><trkpt lat="45.7068943" lon="9.3818189"><ele>348.99999999999994</ele><time>2026-04-05T10:45:23.718Z</time></trkpt><trkpt lat="45.7068231" lon="9.3818255"><ele>349.0</ele><time>2026-04-05T10:45:26.718Z</time></trkpt><trkpt lat="45.706745" lon="9.3818602"><ele>349.1428571428571</ele><time>2026-04-05T10:45:30.717Z</time></trkpt><trkpt lat="45.7066803" lon="9.3818943"><ele>349.2857142857143</ele><time>2026-04-05T10:45:33.718Z</time></trkpt><trkpt lat="45.7066241" lon="9.3819552"><ele>349.42857142857144</ele><time>2026-04-05T10:45:36.718Z</time></trkpt><trkpt lat="45.70655" lon="9.3820017"><ele>349.57142857142856</ele><time>2026-04-05T10:45:39.718Z</time></trkpt><trkpt lat="45.7064991" lon="9.382057"><ele>349.7142857142857</ele><time>2026-04-05T10:45:42.718Z</time></trkpt><trkpt lat="45.7064609" lon="9.382154"><ele>349.85714285714283</ele><time>2026-04-05T10:45:46.718Z</time></trkpt><trkpt lat="45.7064199" lon="9.3822472"><ele>350.0</ele><time>2026-04-05T10:45:49.718Z</time></trkpt><trkpt lat="45.706388" lon="9.3823262"><ele>350.0</ele><time>2026-04-05T10:45:52.718Z</time></trkpt><trkpt lat="45.706333" lon="9.3823977"><ele>350.0</ele><time>2026-04-05T10:45:59.725Z</time></trkpt><trkpt lat="45.7062872" lon="9.3824807"><ele>350.0</ele><time>2026-04-05T10:46:02.718Z</time></trkpt><trkpt lat="45.7062466" lon="9.3825593"><ele>350.0</ele><time>2026-04-05T10:46:04.718Z</time></trkpt><trkpt lat="45.7061862" lon="9.3826509"><ele>350.0</ele><time>2026-04-05T10:46:07.718Z</time></trkpt><trkpt lat="45.7060904" lon="9.3827277"><ele>350.0</ele><time>2026-04-05T10:46:09.717Z</time></trkpt><trkpt lat="45.7060277" lon="9.3827739"><ele>352.0</ele><time>2026-04-05T10:46:12.717Z</time></trkpt><trkpt lat="45.7059704" lon="9.3828518"><ele>354.0</ele><time>2026-04-05T10:46:16.718Z</time></trkpt><trkpt lat="45.7058952" lon="9.3829154"><ele>356.0</ele><time>2026-04-05T10:46:20.718Z</time></trkpt><trkpt lat="45.7058432" lon="9.3829794"><ele>358.0</ele><time>2026-04-05T10:46:23.717Z</time></trkpt><trkpt lat="45.7057768" lon="9.3829929"><ele>360.0</ele><time>2026-04-05T10:46:27.718Z</time></trkpt><trkpt lat="45.7057079" lon="9.3829671"><ele>362.0</ele><time>2026-04-05T10:46:31.718Z</time></trkpt><trkpt lat="45.7056452" lon="9.3829494"><ele>364.0</ele><time>2026-04-05T10:46:35.718Z</time></trkpt><trkpt lat="45.7055839" lon="9.3829132"><ele>364.0</ele><time>2026-04-05T10:46:39.717Z</time></trkpt><trkpt lat="45.7055051" lon="9.3828874"><ele>364.0</ele><time>2026-04-05T10:46:44.717Z</time></trkpt><trkpt lat="45.7054294" lon="9.3828612"><ele>364.0</ele><time>2026-04-05T10:46:49.718Z</time></trkpt><trkpt lat="45.7053583" lon="9.3828257"><ele>364.0</ele><time>2026-04-05T10:46:53.718Z</time></trkpt><trkpt lat="45.7052987" lon="9.3827807"><ele>364.0</ele><time>2026-04-05T10:46:57.718Z</time></trkpt><trkpt lat="45.7052341" lon="9.3827241"><ele>364.0</ele><time>2026-04-05T10:47:02.718Z</time></trkpt><trkpt lat="45.7052134" lon="9.3826273"><ele>364.0</ele><time>2026-04-05T10:47:06.718Z</time></trkpt><trkpt lat="45.7052348" lon="9.3825198"><ele>364.0</ele><time>2026-04-05T10:47:10.718Z</time></trkpt><trkpt lat="45.705249" lon="9.3824256"><ele>364.0</ele><time>2026-04-05T10:47:14.718Z</time></trkpt><trkpt lat="45.7052701" lon="9.3823352"><ele>364.0</ele><time>2026-04-05T10:47:18.717Z</time></trkpt><trkpt lat="45.7052766" lon="9.3822248"><ele>364.0</ele><time>2026-04-05T10:47:23.718Z</time></trkpt><trkpt lat="45.7052948" lon="9.3821361"><ele>364.0</ele><time>2026-04-05T10:47:27.718Z</time></trkpt><trkpt lat="45.7053183" lon="9.3820414"><ele>364.0</ele><time>2026-04-05T10:47:32.718Z</time></trkpt><trkpt lat="45.7053285" lon="9.3819386"><ele>364.0</ele><time>2026-04-05T10:47:37.718Z</time></trkpt><trkpt lat="45.7053498" lon="9.3818414"><ele>365.7142857142857</ele><time>2026-04-05T10:47:42.718Z</time></trkpt><trkpt lat="45.7053766" lon="9.3817404"><ele>367.42857142857144</ele><time>2026-04-05T10:47:47.718Z</time></trkpt><trkpt lat="45.7053834" lon="9.3816504"><ele>369.1428571428571</ele><time>2026-04-05T10:47:51.718Z</time></trkpt><trkpt lat="45.705396" lon="9.3815552"><ele>370.8571428571429</ele><time>2026-04-05T10:47:55.718Z</time></trkpt><trkpt lat="45.7054045" lon="9.3814551"><ele>372.57142857142856</ele><time>2026-04-05T10:47:59.718Z</time></trkpt><trkpt lat="45.7054147" lon="9.3813421"><ele>374.2857142857143</ele><time>2026-04-05T10:48:04.718Z</time></trkpt><trkpt lat="45.7054354" lon="9.3812381"><ele>376.0</ele><time>2026-04-05T10:48:08.718Z</time></trkpt><trkpt lat="45.7054762" lon="9.3811365"><ele>378.2857142857143</ele><time>2026-04-05T10:48:12.717Z</time></trkpt><trkpt lat="45.7055013" lon="9.3810424"><ele>380.57142857142856</ele><time>2026-04-05T10:48:15.717Z</time></trkpt><trkpt lat="45.705527" lon="9.380938"><ele>382.8571428571429</ele><time>2026-04-05T10:48:19.718Z</time></trkpt><trkpt lat="45.705549" lon="9.3808392"><ele>385.1428571428571</ele><time>2026-04-05T10:48:23.718Z</time></trkpt><trkpt lat="45.7055669" lon="9.3807432"><ele>387.42857142857144</ele><time>2026-04-05T10:48:27.717Z</time></trkpt><trkpt lat="45.7055979" lon="9.380646"><ele>389.7142857142857</ele><time>2026-04-05T10:48:31.717Z</time></trkpt><trkpt lat="45.7056276" lon="9.3805552"><ele>392.0</ele><time>2026-04-05T10:48:35.718Z</time></trkpt><trkpt lat="45.7056494" lon="9.3804645"><ele>394.14285714285717</ele><time>2026-04-05T10:48:39.718Z</time></trkpt><trkpt lat="45.7056782" lon="9.3803748"><ele>396.2857142857143</ele><time>2026-04-05T10:48:43.718Z</time></trkpt><trkpt lat="45.7057167" lon="9.3802977"><ele>398.42857142857144</ele><time>2026-04-05T10:48:47.718Z</time></trkpt><trkpt lat="45.7057734" lon="9.3802136"><ele>400.57142857142856</ele><time>2026-04-05T10:48:51.718Z</time></trkpt><trkpt lat="45.7058173" lon="9.3801265"><ele>402.7142857142857</ele><time>2026-04-05T10:48:55.718Z</time></trkpt><trkpt lat="45.705863" lon="9.3800637"><ele>404.8571428571429</ele><time>2026-04-05T10:48:58.717Z</time></trkpt><trkpt lat="45.7059232" lon="9.3800078"><ele>407.0</ele><time>2026-04-05T10:49:02.717Z</time></trkpt><trkpt lat="45.7059925" lon="9.3799468"><ele>407.00000000000006</ele><time>2026-04-05T10:49:06.717Z</time></trkpt><trkpt lat="45.7060526" lon="9.3798954"><ele>407.0</ele><time>2026-04-05T10:49:09.718Z</time></trkpt><trkpt lat="45.7061162" lon="9.3798398"><ele>407.0</ele><time>2026-04-05T10:49:12.718Z</time></trkpt><trkpt lat="45.7061698" lon="9.3797873"><ele>407.0</ele><time>2026-04-05T10:49:15.718Z</time></trkpt><trkpt lat="45.70623" lon="9.3797259"><ele>407.0</ele><time>2026-04-05T10:49:18.718Z</time></trkpt><trkpt lat="45.7062882" lon="9.3796489"><ele>407.00000000000006</ele><time>2026-04-05T10:49:21.718Z</time></trkpt><trkpt lat="45.7063571" lon="9.3795883"><ele>407.0</ele><time>2026-04-05T10:49:24.718Z</time></trkpt><trkpt lat="45.7064217" lon="9.3794981"><ele>408.14285714285717</ele><time>2026-04-05T10:49:27.718Z</time></trkpt><trkpt lat="45.7064932" lon="9.3794209"><ele>409.2857142857143</ele><time>2026-04-05T10:49:30.718Z</time></trkpt><trkpt lat="45.7065486" lon="9.3793464"><ele>410.42857142857144</ele><time>2026-04-05T10:49:33.718Z</time></trkpt><trkpt lat="45.7066012" lon="9.3792823"><ele>411.57142857142856</ele><time>2026-04-05T10:49:36.717Z</time></trkpt><trkpt lat="45.7066563" lon="9.3792262"><ele>412.7142857142857</ele><time>2026-04-05T10:49:39.717Z</time></trkpt><trkpt lat="45.7067157" lon="9.3791863"><ele>413.8571428571429</ele><time>2026-04-05T10:49:42.718Z</time></trkpt><trkpt lat="45.706792" lon="9.3791505"><ele>415.0</ele><time>2026-04-05T10:49:46.718Z</time></trkpt><trkpt lat="45.7068516" lon="9.3791057"><ele>413.8571428571429</ele><time>2026-04-05T10:49:49.717Z</time></trkpt><trkpt lat="45.7069181" lon="9.3790749"><ele>412.7142857142857</ele><time>2026-04-05T10:49:52.718Z</time></trkpt><trkpt lat="45.7069806" lon="9.3790444"><ele>411.57142857142856</ele><time>2026-04-05T10:49:55.717Z</time></trkpt><trkpt lat="45.707049" lon="9.3790216"><ele>410.42857142857144</ele><time>2026-04-05T10:49:58.718Z</time></trkpt><trkpt lat="45.707112" lon="9.3789915"><ele>409.2857142857143</ele><time>2026-04-05T10:50:01.718Z</time></trkpt><trkpt lat="45.7071755" lon="9.3789384"><ele>408.14285714285717</ele><time>2026-04-05T10:50:05.718Z</time></trkpt><trkpt lat="45.7072266" lon="9.3788592"><ele>407.0</ele><time>2026-04-05T10:50:09.718Z</time></trkpt><trkpt lat="45.7072841" lon="9.3787758"><ele>407.00000000000006</ele><time>2026-04-05T10:50:12.718Z</time></trkpt><trkpt lat="45.7072912" lon="9.3786706"><ele>407.0</ele><time>2026-04-05T10:50:15.717Z</time></trkpt><trkpt lat="45.7072798" lon="9.3785764"><ele>407.0</ele><time>2026-04-05T10:50:18.718Z</time></trkpt><trkpt lat="45.7072528" lon="9.3784903"><ele>407.0</ele><time>2026-04-05T10:50:21.718Z</time></trkpt><trkpt lat="45.7072197" lon="9.3784115"><ele>407.0</ele><time>2026-04-05T10:50:24.718Z</time></trkpt><trkpt lat="45.7071845" lon="9.3783343"><ele>407.00000000000006</ele><time>2026-04-05T10:50:27.718Z</time></trkpt><trkpt lat="45.7071331" lon="9.3782395"><ele>407.0</ele><time>2026-04-05T10:50:31.718Z</time></trkpt><trkpt lat="45.7070891" lon="9.3781737"><ele>407.00000000000006</ele><time>2026-04-05T10:50:34.717Z</time></trkpt><trkpt lat="45.7070556" lon="9.3780943"><ele>407.0</ele><time>2026-04-05T10:50:37.718Z</time></trkpt><trkpt lat="45.7070224" lon="9.3780145"><ele>407.0</ele><time>2026-04-05T10:50:40.718Z</time></trkpt><trkpt lat="45.7069922" lon="9.3779284"><ele>407.0</ele><time>2026-04-05T10:50:43.718Z</time></trkpt><trkpt lat="45.7069638" lon="9.3778357"><ele>407.0</ele><time>2026-04-05T10:50:46.718Z</time></trkpt><trkpt lat="45.706947" lon="9.3777335"><ele>407.00000000000006</ele><time>2026-04-05T10:50:49.718Z</time></trkpt><trkpt lat="45.706925" lon="9.3776396"><ele>407.0</ele><time>2026-04-05T10:50:52.718Z</time></trkpt><trkpt lat="45.7068982" lon="9.377542"><ele>410.00000000000006</ele><time>2026-04-05T10:50:55.717Z</time></trkpt><trkpt lat="45.7068768" lon="9.3774545"><ele>413.0</ele><time>2026-04-05T10:50:58.717Z</time></trkpt><trkpt lat="45.7068572" lon="9.3773584"><ele>416.0</ele><time>2026-04-05T10:51:01.718Z</time></trkpt><trkpt lat="45.7068262" lon="9.3772703"><ele>419.0</ele><time>2026-04-05T10:51:04.718Z</time></trkpt><trkpt lat="45.7067998" lon="9.3771877"><ele>422.0</ele><time>2026-04-05T10:51:07.718Z</time></trkpt><trkpt lat="45.7067615" lon="9.377112"><ele>425.00000000000006</ele><time>2026-04-05T10:51:10.718Z</time></trkpt><trkpt lat="45.7067166" lon="9.3770486"><ele>428.0</ele><time>2026-04-05T10:51:13.717Z</time></trkpt><trkpt lat="45.7066586" lon="9.3770025"><ele>428.00000000000006</ele><time>2026-04-05T10:51:16.718Z</time></trkpt><trkpt lat="45.7065802" lon="9.3769523"><ele>428.0</ele><time>2026-04-05T10:51:19.718Z</time></trkpt><trkpt lat="45.7065254" lon="9.376906"><ele>428.0</ele><time>2026-04-05T10:51:21.718Z</time></trkpt><trkpt lat="45.7064603" lon="9.3768477"><ele>428.0</ele><time>2026-04-05T10:51:24.718Z</time></trkpt><trkpt lat="45.7063981" lon="9.3768059"><ele>428.0</ele><time>2026-04-05T10:51:28.718Z</time></trkpt><trkpt lat="45.7063407" lon="9.3767386"><ele>428.00000000000006</ele><time>2026-04-05T10:51:32.717Z</time></trkpt><trkpt lat="45.7062842" lon="9.3766702"><ele>428.0</ele><time>2026-04-05T10:51:36.718Z</time></trkpt><trkpt lat="45.7062334" lon="9.3766035"><ele>428.00000000000006</ele><time>2026-04-05T10:51:40.717Z</time></trkpt><trkpt lat="45.706179" lon="9.3765501"><ele>428.0</ele><time>2026-04-05T10:51:44.718Z</time></trkpt><trkpt lat="45.7061249" lon="9.3764855"><ele>428.0</ele><time>2026-04-05T10:51:48.718Z</time></trkpt><trkpt lat="45.7060661" lon="9.3764013"><ele>428.0</ele><time>2026-04-05T10:51:52.718Z</time></trkpt><trkpt lat="45.7060024" lon="9.3763895"><ele>428.0</ele><time>2026-04-05T10:51:55.717Z</time></trkpt><trkpt lat="45.7059327" lon="9.3763568"><ele>428.00000000000006</ele><time>2026-04-05T10:52:03.718Z</time></trkpt><trkpt lat="45.7058835" lon="9.3762559"><ele>428.0</ele><time>2026-04-05T10:52:07.718Z</time></trkpt><trkpt lat="45.7058344" lon="9.3761714"><ele>428.0</ele><time>2026-04-05T10:52:10.718Z</time></trkpt><trkpt lat="45.7057976" lon="9.3760755"><ele>428.0</ele><time>2026-04-05T10:52:14.717Z</time></trkpt><trkpt lat="45.7062334" lon="9.3766035"><ele>428.00000000000006</ele><time>2026-04-05T10:51:40.717Z</time></trkpt><trkpt lat="45.706179" lon="9.3765501"><ele>428.0</ele><time>2026-04-05T10:51:44.718Z</time></trkpt><trkpt lat="45.7061249" lon="9.3764855"><ele>428.0</ele><time>2026-04-05T10:51:48.718Z</time></trkpt><trkpt lat="45.7060661" lon="9.3764013"><ele>428.0</ele><time>2026-04-05T10:51:52.718Z</time></trkpt><trkpt lat="45.7060024" lon="9.3763895"><ele>428.0</ele><time>2026-04-05T10:51:55.717Z</time></trkpt><trkpt lat="45.7059327" lon="9.3763568"><ele>428.00000000000006</ele><time>2026-04-05T10:52:03.718Z</time></trkpt><trkpt lat="45.7058835" lon="9.3762559"><ele>428.0</ele><time>2026-04-05T10:52:07.718Z</time></trkpt><trkpt lat="45.7058344" lon="9.3761714"><ele>431.79999999999995</ele><time>2026-04-05T10:52:10.718Z</time></trkpt><trkpt lat="45.7057976" lon="9.3760755"><ele>435.59999999999997</ele><time>2026-04-05T10:52:14.717Z</time></trkpt><trkpt lat="45.7057838" lon="9.3759775"><ele>439.40000000000003</ele><time>2026-04-05T10:52:18.718Z</time></trkpt><trkpt lat="45.7057539" lon="9.3758866"><ele>443.20000000000005</ele><time>2026-04-05T10:52:23.718Z</time></trkpt><trkpt lat="45.705716" lon="9.3758138"><ele>447.0</ele><time>2026-04-05T10:52:26.717Z</time></trkpt><trkpt lat="45.7057489" lon="9.3755692"><ele>447.0</ele><time>2026-04-05T10:52:36.718Z</time></trkpt><trkpt lat="45.7057865" lon="9.3754608"><ele>447.0</ele><time>2026-04-05T10:52:39.717Z</time></trkpt><trkpt lat="45.7058026" lon="9.3753464"><ele>447.0</ele><time>2026-04-05T10:52:42.718Z</time></trkpt><trkpt lat="45.705811" lon="9.3752307"><ele>447.0</ele><time>2026-04-05T10:52:46.718Z</time></trkpt><trkpt lat="45.7058676" lon="9.3749462"><ele>447.0</ele><time>2026-04-05T11:00:35.731Z</time></trkpt><trkpt lat="45.705912" lon="9.3747459"><ele>447.0</ele><time>2026-04-05T11:00:41.943Z</time></trkpt><trkpt lat="45.7062029" lon="9.3743708"><ele>461.0</ele><time>2026-04-05T11:00:53.503Z</time></trkpt><trkpt lat="45.7063828" lon="9.3736523"><ele>460.99999999999994</ele><time>2026-04-05T11:01:22.718Z</time></trkpt><trkpt lat="45.7063747" lon="9.3734971"><ele>461.0</ele><time>2026-04-05T11:01:31.713Z</time></trkpt><trkpt lat="45.7063851" lon="9.3733689"><ele>461.0</ele><time>2026-04-05T11:01:34.713Z</time></trkpt><trkpt lat="45.7064409" lon="9.3732657"><ele>461.0</ele><time>2026-04-05T11:01:36.713Z</time></trkpt><trkpt lat="45.706486" lon="9.3731847"><ele>460.99999999999994</ele><time>2026-04-05T11:01:39.713Z</time></trkpt><trkpt lat="45.7065286" lon="9.3730763"><ele>461.0</ele><time>2026-04-05T11:01:42.712Z</time></trkpt><trkpt lat="45.7065671" lon="9.3729851"><ele>461.0</ele><time>2026-04-05T11:01:45.712Z</time></trkpt><trkpt lat="45.7066387" lon="9.3729392"><ele>461.0</ele><time>2026-04-05T11:01:48.712Z</time></trkpt><trkpt lat="45.7067223" lon="9.3729085"><ele>461.0</ele><time>2026-04-05T11:01:51.713Z</time></trkpt><trkpt lat="45.7067859" lon="9.3728841"><ele>461.0</ele><time>2026-04-05T11:01:53.713Z</time></trkpt><trkpt lat="45.7063747" lon="9.3734971"><ele>460.99999999999994</ele><time>2026-04-05T11:01:31.713Z</time></trkpt><trkpt lat="45.7063851" lon="9.3733689"><ele>461.0</ele><time>2026-04-05T11:01:34.713Z</time></trkpt><trkpt lat="45.7064409" lon="9.3732657"><ele>461.0</ele><time>2026-04-05T11:01:36.713Z</time></trkpt><trkpt lat="45.706486" lon="9.3731847"><ele>461.0</ele><time>2026-04-05T11:01:39.713Z</time></trkpt><trkpt lat="45.7065286" lon="9.3730763"><ele>460.99999999999994</ele><time>2026-04-05T11:01:42.712Z</time></trkpt><trkpt lat="45.7065671" lon="9.3729851"><ele>461.0</ele><time>2026-04-05T11:01:45.712Z</time></trkpt><trkpt lat="45.7066387" lon="9.3729392"><ele>461.3333333333333</ele><time>2026-04-05T11:01:48.712Z</time></trkpt><trkpt lat="45.7067223" lon="9.3729085"><ele>461.66666666666663</ele><time>2026-04-05T11:01:51.713Z</time></trkpt><trkpt lat="45.7067859" lon="9.3728841"><ele>462.0</ele><time>2026-04-05T11:01:53.713Z</time></trkpt><trkpt lat="45.70685" lon="9.3728538"><ele>462.33333333333337</ele><time>2026-04-05T11:01:55.713Z</time></trkpt><trkpt lat="45.7069176" lon="9.3728037"><ele>462.6666666666667</ele><time>2026-04-05T11:01:58.713Z</time></trkpt><trkpt lat="45.7070028" lon="9.3727584"><ele>463.0</ele><time>2026-04-05T11:02:01.712Z</time></trkpt><trkpt lat="45.7070829" lon="9.372731"><ele>461.83333333333337</ele><time>2026-04-05T11:02:03.713Z</time></trkpt><trkpt lat="45.7071751" lon="9.3727025"><ele>460.6666666666667</ele><time>2026-04-05T11:02:05.712Z</time></trkpt><trkpt lat="45.707267" lon="9.3726706"><ele>459.5</ele><time>2026-04-05T11:02:07.713Z</time></trkpt><trkpt lat="45.7073516" lon="9.3726454"><ele>458.33333333333337</ele><time>2026-04-05T11:02:09.713Z</time></trkpt><trkpt lat="45.7074231" lon="9.3726112"><ele>457.1666666666667</ele><time>2026-04-05T11:02:11.713Z</time></trkpt><trkpt lat="45.7074791" lon="9.3725203"><ele>456.0</ele><time>2026-04-05T11:02:14.712Z</time></trkpt><trkpt lat="45.7074963" lon="9.3724121"><ele>456.0</ele><time>2026-04-05T11:02:17.713Z</time></trkpt><trkpt lat="45.7075253" lon="9.3722743"><ele>456.0</ele><time>2026-04-05T11:02:19.713Z</time></trkpt><trkpt lat="45.7075502" lon="9.3721399"><ele>456.0</ele><time>2026-04-05T11:02:21.713Z</time></trkpt><trkpt lat="45.7075644" lon="9.3719942"><ele>456.0</ele><time>2026-04-05T11:02:23.713Z</time></trkpt><trkpt lat="45.7075711" lon="9.3718462"><ele>456.0</ele><time>2026-04-05T11:02:25.713Z</time></trkpt><trkpt lat="45.7075694" lon="9.3716971"><ele>456.20000000000005</ele><time>2026-04-05T11:02:27.713Z</time></trkpt><trkpt lat="45.7075551" lon="9.3715339"><ele>456.40000000000003</ele><time>2026-04-05T11:02:29.713Z</time></trkpt><trkpt lat="45.70754" lon="9.3714406"><ele>456.6</ele><time>2026-04-05T11:02:30.713Z</time></trkpt><trkpt lat="45.7075421" lon="9.3712642"><ele>456.8</ele><time>2026-04-05T11:02:32.712Z</time></trkpt><trkpt lat="45.7075641" lon="9.371111"><ele>457.0</ele><time>2026-04-05T11:02:34.713Z</time></trkpt><trkpt lat="45.7075923" lon="9.3709532"><ele>456.40000000000003</ele><time>2026-04-05T11:02:36.712Z</time></trkpt><trkpt lat="45.7076505" lon="9.3707771"><ele>455.80000000000007</ele><time>2026-04-05T11:02:38.713Z</time></trkpt><trkpt lat="45.7076954" lon="9.3706539"><ele>455.2</ele><time>2026-04-05T11:02:40.713Z</time></trkpt><trkpt lat="45.7077394" lon="9.3705189"><ele>454.6</ele><time>2026-04-05T11:02:42.713Z</time></trkpt><trkpt lat="45.7077917" lon="9.3703978"><ele>454.0</ele><time>2026-04-05T11:02:44.713Z</time></trkpt><trkpt lat="45.7078384" lon="9.3702753"><ele>454.0</ele><time>2026-04-05T11:02:46.713Z</time></trkpt><trkpt lat="45.7078836" lon="9.3701434"><ele>454.0</ele><time>2026-04-05T11:02:48.713Z</time></trkpt><trkpt lat="45.7079309" lon="9.3700369"><ele>454.0</ele><time>2026-04-05T11:02:50.713Z</time></trkpt><trkpt lat="45.7079773" lon="9.369935"><ele>454.0</ele><time>2026-04-05T11:02:52.713Z</time></trkpt><trkpt lat="45.7080287" lon="9.3698282"><ele>454.0</ele><time>2026-04-05T11:02:55.713Z</time></trkpt><trkpt lat="45.7080755" lon="9.3697224"><ele>455.50000000000006</ele><time>2026-04-05T11:02:58.713Z</time></trkpt><trkpt lat="45.7081243" lon="9.3696296"><ele>457.0</ele><time>2026-04-05T11:03:01.713Z</time></trkpt><trkpt lat="45.7081663" lon="9.3695401"><ele>458.5</ele><time>2026-04-05T11:03:04.713Z</time></trkpt><trkpt lat="45.7082089" lon="9.3694515"><ele>460.0</ele><time>2026-04-05T11:03:07.713Z</time></trkpt><trkpt lat="45.7082556" lon="9.3693666"><ele>461.50000000000006</ele><time>2026-04-05T11:03:10.713Z</time></trkpt><trkpt lat="45.7083011" lon="9.3692877"><ele>463.0</ele><time>2026-04-05T11:03:13.712Z</time></trkpt><trkpt lat="45.7083466" lon="9.3691963"><ele>463.00000000000006</ele><time>2026-04-05T11:03:16.713Z</time></trkpt><trkpt lat="45.7083944" lon="9.3690973"><ele>463.0</ele><time>2026-04-05T11:03:19.713Z</time></trkpt><trkpt lat="45.7084333" lon="9.3690123"><ele>463.0</ele><time>2026-04-05T11:03:22.713Z</time></trkpt><trkpt lat="45.7084728" lon="9.3689313"><ele>463.0</ele><time>2026-04-05T11:03:25.713Z</time></trkpt><trkpt lat="45.7085259" lon="9.3688323"><ele>463.00000000000006</ele><time>2026-04-05T11:03:29.713Z</time></trkpt><trkpt lat="45.7085527" lon="9.3687359"><ele>463.0</ele><time>2026-04-05T11:03:33.713Z</time></trkpt><trkpt lat="45.7085671" lon="9.368628"><ele>464.2857142857143</ele><time>2026-04-05T11:03:37.712Z</time></trkpt><trkpt lat="45.7085846" lon="9.368519"><ele>465.57142857142856</ele><time>2026-04-05T11:03:41.713Z</time></trkpt><trkpt lat="45.7086033" lon="9.3684252"><ele>466.85714285714283</ele><time>2026-04-05T11:03:45.713Z</time></trkpt><trkpt lat="45.7086241" lon="9.3683292"><ele>468.1428571428571</ele><time>2026-04-05T11:03:49.713Z</time></trkpt><trkpt lat="45.7086438" lon="9.3682281"><ele>469.42857142857144</ele><time>2026-04-05T11:03:53.713Z</time></trkpt><trkpt lat="45.708671" lon="9.3681324"><ele>470.71428571428567</ele><time>2026-04-05T11:03:57.713Z</time></trkpt><trkpt lat="45.7087059" lon="9.3680387"><ele>472.0</ele><time>2026-04-05T11:04:01.712Z</time></trkpt><trkpt lat="45.708741" lon="9.3679582"><ele>472.33333333333337</ele><time>2026-04-05T11:04:04.713Z</time></trkpt><trkpt lat="45.7087731" lon="9.3678698"><ele>472.6666666666667</ele><time>2026-04-05T11:04:07.713Z</time></trkpt><trkpt lat="45.7088093" lon="9.3677774"><ele>473.0</ele><time>2026-04-05T11:04:10.712Z</time></trkpt><trkpt lat="45.7088506" lon="9.3676734"><ele>473.33333333333337</ele><time>2026-04-05T11:04:13.713Z</time></trkpt><trkpt lat="45.7088807" lon="9.3675547"><ele>473.6666666666667</ele><time>2026-04-05T11:04:16.713Z</time></trkpt><trkpt lat="45.7089089" lon="9.367431"><ele>474.0</ele><time>2026-04-05T11:04:19.712Z</time></trkpt><trkpt lat="45.7089425" lon="9.3673047"><ele>473.99999999999994</ele><time>2026-04-05T11:04:22.713Z</time></trkpt><trkpt lat="45.708972" lon="9.3672211"><ele>474.0</ele><time>2026-04-05T11:04:24.713Z</time></trkpt><trkpt lat="45.708998" lon="9.3671312"><ele>473.99999999999994</ele><time>2026-04-05T11:04:26.713Z</time></trkpt><trkpt lat="45.7090299" lon="9.3670406"><ele>473.99999999999994</ele><time>2026-04-05T11:04:28.712Z</time></trkpt><trkpt lat="45.7090635" lon="9.3669402"><ele>474.0</ele><time>2026-04-05T11:04:30.712Z</time></trkpt><trkpt lat="45.7090937" lon="9.3668406"><ele>473.99999999999994</ele><time>2026-04-05T11:04:32.712Z</time></trkpt><trkpt lat="45.7091138" lon="9.3667334"><ele>473.99999999999994</ele><time>2026-04-05T11:04:34.713Z</time></trkpt><trkpt lat="45.7091376" lon="9.3666216"><ele>473.6</ele><time>2026-04-05T11:04:36.712Z</time></trkpt><trkpt lat="45.7091791" lon="9.3665214"><ele>473.2</ele><time>2026-04-05T11:04:38.713Z</time></trkpt><trkpt lat="45.7092203" lon="9.366411"><ele>472.80000000000007</ele><time>2026-04-05T11:04:40.713Z</time></trkpt><trkpt lat="45.7092607" lon="9.3663011"><ele>472.40000000000003</ele><time>2026-04-05T11:04:42.713Z</time></trkpt><trkpt lat="45.7093198" lon="9.3661764"><ele>472.0</ele><time>2026-04-05T11:04:44.713Z</time></trkpt><trkpt lat="45.7093763" lon="9.3660714"><ele>471.50000000000006</ele><time>2026-04-05T11:04:46.713Z</time></trkpt><trkpt lat="45.7094294" lon="9.3659759"><ele>471.0</ele><time>2026-04-05T11:04:48.712Z</time></trkpt><trkpt lat="45.7094812" lon="9.3658601"><ele>470.5</ele><time>2026-04-05T11:04:50.713Z</time></trkpt><trkpt lat="45.7095077" lon="9.36576"><ele>470.0</ele><time>2026-04-05T11:04:55.713Z</time></trkpt><trkpt lat="45.7095199" lon="9.3656385"><ele>469.50000000000006</ele><time>2026-04-05T11:04:57.713Z</time></trkpt><trkpt lat="45.709541" lon="9.3655056"><ele>469.0</ele><time>2026-04-05T11:04:59.712Z</time></trkpt><trkpt lat="45.7095548" lon="9.3654165"><ele>469.0</ele><time>2026-04-05T11:05:00.713Z</time></trkpt><trkpt lat="45.7095857" lon="9.3652566"><ele>469.0</ele><time>2026-04-05T11:05:02.713Z</time></trkpt><trkpt lat="45.7096251" lon="9.3651515"><ele>469.0</ele><time>2026-04-05T11:05:05.713Z</time></trkpt><trkpt lat="45.7096494" lon="9.365063"><ele>469.0</ele><time>2026-04-05T11:05:07.713Z</time></trkpt><trkpt lat="45.7096987" lon="9.3649306"><ele>469.0</ele><time>2026-04-05T11:05:09.713Z</time></trkpt><trkpt lat="45.7097399" lon="9.3647774"><ele>470.0</ele><time>2026-04-05T11:05:11.713Z</time></trkpt><trkpt lat="45.7097695" lon="9.3646432"><ele>471.0</ele><time>2026-04-05T11:05:13.712Z</time></trkpt><trkpt lat="45.709806" lon="9.3644932"><ele>472.0</ele><time>2026-04-05T11:05:15.713Z</time></trkpt><trkpt lat="45.7098384" lon="9.3643469"><ele>473.0</ele><time>2026-04-05T11:05:17.713Z</time></trkpt><trkpt lat="45.7099366" lon="9.3638776"><ele>473.2</ele><time>2026-04-05T11:05:19.713Z</time></trkpt><trkpt lat="45.7099719" lon="9.3637413"><ele>473.4</ele><time>2026-04-05T11:05:21.712Z</time></trkpt><trkpt lat="45.7100065" lon="9.3636388"><ele>473.59999999999997</ele><time>2026-04-05T11:05:22.713Z</time></trkpt><trkpt lat="45.7100525" lon="9.3635065"><ele>473.79999999999995</ele><time>2026-04-05T11:05:24.713Z</time></trkpt><trkpt lat="45.7100861" lon="9.363382"><ele>474.0</ele><time>2026-04-05T11:05:26.713Z</time></trkpt><trkpt lat="45.7101357" lon="9.3632416"><ele>473.99999999999994</ele><time>2026-04-05T11:05:28.713Z</time></trkpt><trkpt lat="45.7101776" lon="9.3631308"><ele>474.0</ele><time>2026-04-05T11:05:30.713Z</time></trkpt><trkpt lat="45.7102282" lon="9.3630352"><ele>473.99999999999994</ele><time>2026-04-05T11:05:32.713Z</time></trkpt><trkpt lat="45.7102699" lon="9.3629614"><ele>473.99999999999994</ele><time>2026-04-05T11:05:34.713Z</time></trkpt><trkpt lat="45.7103124" lon="9.3628901"><ele>474.0</ele><time>2026-04-05T11:05:36.713Z</time></trkpt><trkpt lat="45.7103577" lon="9.3628169"><ele>473.99999999999994</ele><time>2026-04-05T11:05:38.713Z</time></trkpt><trkpt lat="45.7104158" lon="9.362761"><ele>473.99999999999994</ele><time>2026-04-05T11:05:40.713Z</time></trkpt><trkpt lat="45.7104809" lon="9.3627105"><ele>474.8333333333333</ele><time>2026-04-05T11:05:42.712Z</time></trkpt><trkpt lat="45.7105497" lon="9.3626648"><ele>475.66666666666663</ele><time>2026-04-05T11:05:44.712Z</time></trkpt><trkpt lat="45.7106115" lon="9.3626135"><ele>476.5</ele><time>2026-04-05T11:05:46.713Z</time></trkpt><trkpt lat="45.7106778" lon="9.3625577"><ele>477.3333333333333</ele><time>2026-04-05T11:05:48.713Z</time></trkpt><trkpt lat="45.7107435" lon="9.3625042"><ele>478.16666666666663</ele><time>2026-04-05T11:05:50.713Z</time></trkpt><trkpt lat="45.7108086" lon="9.3624439"><ele>479.0</ele><time>2026-04-05T11:05:52.713Z</time></trkpt><trkpt lat="45.7108723" lon="9.3623803"><ele>478.99999999999994</ele><time>2026-04-05T11:05:54.713Z</time></trkpt><trkpt lat="45.7109348" lon="9.3623124"><ele>479.0</ele><time>2026-04-05T11:05:56.712Z</time></trkpt><trkpt lat="45.7109961" lon="9.3622431"><ele>479.0</ele><time>2026-04-05T11:05:58.712Z</time></trkpt><trkpt lat="45.7110618" lon="9.3621786"><ele>479.0</ele><time>2026-04-05T11:06:00.713Z</time></trkpt><trkpt lat="45.7111269" lon="9.3621218"><ele>478.99999999999994</ele><time>2026-04-05T11:06:02.713Z</time></trkpt><trkpt lat="45.7111929" lon="9.3620679"><ele>479.0</ele><time>2026-04-05T11:06:04.712Z</time></trkpt><trkpt lat="45.7103124" lon="9.3628901"><ele>479.0</ele><time>2026-04-05T11:05:36.713Z</time></trkpt><trkpt lat="45.7103577" lon="9.3628169"><ele>479.0</ele><time>2026-04-05T11:05:38.713Z</time></trkpt><trkpt lat="45.7104158" lon="9.362761"><ele>479.0</ele><time>2026-04-05T11:05:40.713Z</time></trkpt><trkpt lat="45.7104809" lon="9.3627105"><ele>479.0</ele><time>2026-04-05T11:05:42.712Z</time></trkpt><trkpt lat="45.7105497" lon="9.3626648"><ele>479.0</ele><time>2026-04-05T11:05:44.712Z</time></trkpt><trkpt lat="45.7106115" lon="9.3626135"><ele>479.0</ele><time>2026-04-05T11:05:46.713Z</time></trkpt><trkpt lat="45.7106778" lon="9.3625577"><ele>479.0</ele><time>2026-04-05T11:05:48.713Z</time></trkpt><trkpt lat="45.7107435" lon="9.3625042"><ele>478.99999999999994</ele><time>2026-04-05T11:05:50.713Z</time></trkpt><trkpt lat="45.7108086" lon="9.3624439"><ele>479.0</ele><time>2026-04-05T11:05:52.713Z</time></trkpt><trkpt lat="45.7108723" lon="9.3623803"><ele>479.0</ele><time>2026-04-05T11:05:54.713Z</time></trkpt><trkpt lat="45.7109348" lon="9.3623124"><ele>479.0</ele><time>2026-04-05T11:05:56.712Z</time></trkpt><trkpt lat="45.7109961" lon="9.3622431"><ele>478.99999999999994</ele><time>2026-04-05T11:05:58.712Z</time></trkpt><trkpt lat="45.7110618" lon="9.3621786"><ele>479.0</ele><time>2026-04-05T11:06:00.713Z</time></trkpt><trkpt lat="45.7111269" lon="9.3621218"><ele>480.57142857142856</ele><time>2026-04-05T11:06:02.713Z</time></trkpt><trkpt lat="45.7111929" lon="9.3620679"><ele>482.14285714285717</ele><time>2026-04-05T11:06:04.712Z</time></trkpt><trkpt lat="45.7112594" lon="9.3620156"><ele>483.7142857142857</ele><time>2026-04-05T11:06:06.713Z</time></trkpt><trkpt lat="45.711324" lon="9.3619626"><ele>485.2857142857143</ele><time>2026-04-05T11:06:08.713Z</time></trkpt><trkpt lat="45.7113871" lon="9.3619092"><ele>486.8571428571429</ele><time>2026-04-05T11:06:10.713Z</time></trkpt><trkpt lat="45.711451" lon="9.3618542"><ele>488.42857142857144</ele><time>2026-04-05T11:06:12.713Z</time></trkpt><trkpt lat="45.7115129" lon="9.3617948"><ele>490.0</ele><time>2026-04-05T11:06:14.712Z</time></trkpt><trkpt lat="45.7115744" lon="9.361735"><ele>490.00000000000006</ele><time>2026-04-05T11:06:16.712Z</time></trkpt><trkpt lat="45.7116397" lon="9.3616716"><ele>490.0</ele><time>2026-04-05T11:06:18.713Z</time></trkpt><trkpt lat="45.7117115" lon="9.3616106"><ele>490.0</ele><time>2026-04-05T11:06:20.712Z</time></trkpt><trkpt lat="45.7117788" lon="9.3615435"><ele>490.0</ele><time>2026-04-05T11:06:22.712Z</time></trkpt><trkpt lat="45.711846" lon="9.3614811"><ele>490.00000000000006</ele><time>2026-04-05T11:06:24.712Z</time></trkpt><trkpt lat="45.7119196" lon="9.3614158"><ele>490.0</ele><time>2026-04-05T11:06:26.712Z</time></trkpt><trkpt lat="45.7119996" lon="9.3613501"><ele>490.2</ele><time>2026-04-05T11:06:28.713Z</time></trkpt><trkpt lat="45.7120767" lon="9.3612666"><ele>490.4</ele><time>2026-04-05T11:06:30.713Z</time></trkpt><trkpt lat="45.7121429" lon="9.3611727"><ele>490.6</ele><time>2026-04-05T11:06:32.713Z</time></trkpt><trkpt lat="45.7122053" lon="9.3610721"><ele>490.8</ele><time>2026-04-05T11:06:34.712Z</time></trkpt><trkpt lat="45.7122704" lon="9.3609695"><ele>491.0</ele><time>2026-04-05T11:06:36.712Z</time></trkpt><trkpt lat="45.7123284" lon="9.3608532"><ele>491.0</ele><time>2026-04-05T11:06:38.713Z</time></trkpt><trkpt lat="45.7123636" lon="9.3607273"><ele>491.0</ele><time>2026-04-05T11:06:40.713Z</time></trkpt><trkpt lat="45.7123848" lon="9.3606023"><ele>491.0</ele><time>2026-04-05T11:06:42.712Z</time></trkpt><trkpt lat="45.7123975" lon="9.3604779"><ele>491.0</ele><time>2026-04-05T11:06:44.713Z</time></trkpt><trkpt lat="45.7124071" lon="9.3603532"><ele>491.0</ele><time>2026-04-05T11:06:46.713Z</time></trkpt><trkpt lat="45.7124198" lon="9.3602086"><ele>490.25</ele><time>2026-04-05T11:06:48.713Z</time></trkpt><trkpt lat="45.7124318" lon="9.3601058"><ele>489.5</ele><time>2026-04-05T11:06:49.713Z</time></trkpt><trkpt lat="45.7124545" lon="9.3599659"><ele>488.75</ele><time>2026-04-05T11:06:50.713Z</time></trkpt><trkpt lat="45.7125291" lon="9.3596774"><ele>488.0</ele><time>2026-04-05T11:06:51.713Z</time></trkpt><trkpt lat="45.7125414" lon="9.3595813"><ele>487.3333333333333</ele><time>2026-04-05T11:06:52.713Z</time></trkpt><trkpt lat="45.7125562" lon="9.3594587"><ele>486.66666666666663</ele><time>2026-04-05T11:06:53.713Z</time></trkpt><trkpt lat="45.7125761" lon="9.3593487"><ele>486.0</ele><time>2026-04-05T11:06:54.713Z</time></trkpt><trkpt lat="45.7125888" lon="9.3592412"><ele>485.33333333333337</ele><time>2026-04-05T11:06:55.713Z</time></trkpt><trkpt lat="45.7125999" lon="9.3591356"><ele>484.6666666666667</ele><time>2026-04-05T11:06:56.713Z</time></trkpt><trkpt lat="45.7126126" lon="9.3590379"><ele>484.0</ele><time>2026-04-05T11:06:57.713Z</time></trkpt><trkpt lat="45.7126279" lon="9.3589452"><ele>484.4</ele><time>2026-04-05T11:06:58.712Z</time></trkpt><trkpt lat="45.7126338" lon="9.3588448"><ele>484.79999999999995</ele><time>2026-04-05T11:06:59.713Z</time></trkpt><trkpt lat="45.712653" lon="9.3587401"><ele>485.20000000000005</ele><time>2026-04-05T11:07:00.713Z</time></trkpt><trkpt lat="45.7126642" lon="9.3586446"><ele>485.6</ele><time>2026-04-05T11:07:01.713Z</time></trkpt><trkpt lat="45.7126915" lon="9.3584825"><ele>486.0</ele><time>2026-04-05T11:07:03.713Z</time></trkpt><trkpt lat="45.7127223" lon="9.3582936"><ele>486.0</ele><time>2026-04-05T11:07:05.713Z</time></trkpt><trkpt lat="45.7127334" lon="9.3582033"><ele>486.0</ele><time>2026-04-05T11:07:06.713Z</time></trkpt><trkpt lat="45.7127509" lon="9.3580326"><ele>486.0</ele><time>2026-04-05T11:07:08.713Z</time></trkpt><trkpt lat="45.7127637" lon="9.3579359"><ele>486.0</ele><time>2026-04-05T11:07:09.713Z</time></trkpt><trkpt lat="45.7127801" lon="9.3578463"><ele>486.0</ele><time>2026-04-05T11:07:10.713Z</time></trkpt><trkpt lat="45.7128002" lon="9.3576747"><ele>486.0</ele><time>2026-04-05T11:07:12.712Z</time></trkpt><trkpt lat="45.7128251" lon="9.3575175"><ele>485.20000000000005</ele><time>2026-04-05T11:07:14.713Z</time></trkpt><trkpt lat="45.712842" lon="9.3573526"><ele>484.40000000000003</ele><time>2026-04-05T11:07:16.712Z</time></trkpt><trkpt lat="45.7128654" lon="9.3571973"><ele>483.6</ele><time>2026-04-05T11:07:18.713Z</time></trkpt><trkpt lat="45.7128864" lon="9.3570459"><ele>482.8</ele><time>2026-04-05T11:07:20.713Z</time></trkpt><trkpt lat="45.7128964" lon="9.3569149"><ele>482.0</ele><time>2026-04-05T11:07:22.713Z</time></trkpt><trkpt lat="45.7129004" lon="9.3567774"><ele>482.0</ele><time>2026-04-05T11:07:24.713Z</time></trkpt><trkpt lat="45.7129061" lon="9.3566567"><ele>482.00000000000006</ele><time>2026-04-05T11:07:26.713Z</time></trkpt><trkpt lat="45.712902" lon="9.3564863"><ele>482.00000000000006</ele><time>2026-04-05T11:07:28.713Z</time></trkpt><trkpt lat="45.7128886" lon="9.356394"><ele>482.0</ele><time>2026-04-05T11:07:29.713Z</time></trkpt><trkpt lat="45.7129074" lon="9.3562543"><ele>482.0</ele><time>2026-04-05T11:07:31.712Z</time></trkpt><trkpt lat="45.7129185" lon="9.356129"><ele>483.20000000000005</ele><time>2026-04-05T11:07:33.713Z</time></trkpt><trkpt lat="45.7129463" lon="9.3559751"><ele>484.40000000000003</ele><time>2026-04-05T11:07:35.713Z</time></trkpt><trkpt lat="45.7129888" lon="9.3558459"><ele>485.59999999999997</ele><time>2026-04-05T11:07:37.713Z</time></trkpt><trkpt lat="45.7130507" lon="9.3557157"><ele>486.79999999999995</ele><time>2026-04-05T11:07:39.713Z</time></trkpt><trkpt lat="45.7131282" lon="9.3555986"><ele>488.0</ele><time>2026-04-05T11:07:41.713Z</time></trkpt><trkpt lat="45.713194" lon="9.355483"><ele>488.2</ele><time>2026-04-05T11:07:43.713Z</time></trkpt><trkpt lat="45.7132709" lon="9.3553595"><ele>488.4</ele><time>2026-04-05T11:07:45.713Z</time></trkpt><trkpt lat="45.7133427" lon="9.3552438"><ele>488.59999999999997</ele><time>2026-04-05T11:07:47.713Z</time></trkpt><trkpt lat="45.7134073" lon="9.3551407"><ele>488.79999999999995</ele><time>2026-04-05T11:07:49.713Z</time></trkpt><trkpt lat="45.7134702" lon="9.3550405"><ele>489.0</ele><time>2026-04-05T11:07:51.712Z</time></trkpt><trkpt lat="45.71353" lon="9.3549295"><ele>489.6</ele><time>2026-04-05T11:07:53.712Z</time></trkpt><trkpt lat="45.7135731" lon="9.3548062"><ele>490.2</ele><time>2026-04-05T11:07:55.713Z</time></trkpt><trkpt lat="45.713615" lon="9.3546621"><ele>490.80000000000007</ele><time>2026-04-05T11:07:57.713Z</time></trkpt><trkpt lat="45.7136252" lon="9.354508"><ele>491.40000000000003</ele><time>2026-04-05T11:07:59.712Z</time></trkpt><trkpt lat="45.7136219" lon="9.3543655"><ele>492.0</ele><time>2026-04-05T11:08:01.713Z</time></trkpt><trkpt lat="45.7136393" lon="9.3542208"><ele>492.40000000000003</ele><time>2026-04-05T11:08:03.713Z</time></trkpt><trkpt lat="45.7136645" lon="9.3540723"><ele>492.80000000000007</ele><time>2026-04-05T11:08:05.713Z</time></trkpt><trkpt lat="45.7136974" lon="9.3539927"><ele>493.2</ele><time>2026-04-05T11:08:06.713Z</time></trkpt><trkpt lat="45.7137407" lon="9.3539228"><ele>493.6</ele><time>2026-04-05T11:08:07.712Z</time></trkpt><trkpt lat="45.7138318" lon="9.3538559"><ele>494.0</ele><time>2026-04-05T11:08:09.713Z</time></trkpt><trkpt lat="45.7139504" lon="9.3538612"><ele>494.0</ele><time>2026-04-05T11:08:11.712Z</time></trkpt><trkpt lat="45.7140639" lon="9.3538969"><ele>494.0</ele><time>2026-04-05T11:08:13.712Z</time></trkpt><trkpt lat="45.7141647" lon="9.3539712"><ele>494.0</ele><time>2026-04-05T11:08:15.713Z</time></trkpt><trkpt lat="45.7142647" lon="9.3540576"><ele>494.0</ele><time>2026-04-05T11:08:17.713Z</time></trkpt><trkpt lat="45.7143753" lon="9.3541324"><ele>491.6</ele><time>2026-04-05T11:08:19.713Z</time></trkpt><trkpt lat="45.7144845" lon="9.3542245"><ele>489.2</ele><time>2026-04-05T11:08:21.713Z</time></trkpt><trkpt lat="45.7146005" lon="9.3543099"><ele>486.80000000000007</ele><time>2026-04-05T11:08:23.713Z</time></trkpt><trkpt lat="45.7146632" lon="9.3543239"><ele>484.40000000000003</ele><time>2026-04-05T11:08:24.712Z</time></trkpt><trkpt lat="45.7147437" lon="9.35439"><ele>482.0</ele><time>2026-04-05T11:08:25.713Z</time></trkpt><trkpt lat="45.714806" lon="9.3544556"><ele>481.99999999999994</ele><time>2026-04-05T11:08:26.712Z</time></trkpt><trkpt lat="45.7148668" lon="9.3545063"><ele>482.0</ele><time>2026-04-05T11:08:27.713Z</time></trkpt><trkpt lat="45.7149352" lon="9.3545663"><ele>482.0</ele><time>2026-04-05T11:08:28.713Z</time></trkpt><trkpt lat="45.7150012" lon="9.3546198"><ele>482.0</ele><time>2026-04-05T11:08:29.713Z</time></trkpt><trkpt lat="45.7150656" lon="9.354663"><ele>481.99999999999994</ele><time>2026-04-05T11:08:30.713Z</time></trkpt><trkpt lat="45.7151336" lon="9.3547056"><ele>482.0</ele><time>2026-04-05T11:08:31.713Z</time></trkpt><trkpt lat="45.7152029" lon="9.3547588"><ele>481.28571428571433</ele><time>2026-04-05T11:08:32.713Z</time></trkpt><trkpt lat="45.7152708" lon="9.3548227"><ele>480.5714285714286</ele><time>2026-04-05T11:08:33.713Z</time></trkpt><trkpt lat="45.715331" lon="9.3548627"><ele>479.8571428571429</ele><time>2026-04-05T11:08:34.713Z</time></trkpt><trkpt lat="45.7153977" lon="9.3549045"><ele>479.1428571428571</ele><time>2026-04-05T11:08:35.713Z</time></trkpt><trkpt lat="45.715464" lon="9.3549617"><ele>478.4285714285714</ele><time>2026-04-05T11:08:36.713Z</time></trkpt><trkpt lat="45.7155258" lon="9.3550059"><ele>477.71428571428567</ele><time>2026-04-05T11:08:37.712Z</time></trkpt><trkpt lat="45.7155809" lon="9.3550559"><ele>477.0</ele><time>2026-04-05T11:08:38.713Z</time></trkpt><trkpt lat="45.7156369" lon="9.3551036"><ele>477.0</ele><time>2026-04-05T11:08:39.713Z</time></trkpt><trkpt lat="45.7156896" lon="9.3551552"><ele>477.0</ele><time>2026-04-05T11:08:40.713Z</time></trkpt><trkpt lat="45.7157592" lon="9.3552361"><ele>477.0</ele><time>2026-04-05T11:08:42.713Z</time></trkpt><trkpt lat="45.7158305" lon="9.3552513"><ele>477.0</ele><time>2026-04-05T11:08:44.712Z</time></trkpt><trkpt lat="45.7159258" lon="9.3552777"><ele>477.0</ele><time>2026-04-05T11:08:46.713Z</time></trkpt><trkpt lat="45.7160382" lon="9.355329"><ele>477.0</ele><time>2026-04-05T11:08:48.713Z</time></trkpt><trkpt lat="45.716126" lon="9.3553617"><ele>475.5</ele><time>2026-04-05T11:08:50.713Z</time></trkpt><trkpt lat="45.7162315" lon="9.3553937"><ele>474.0</ele><time>2026-04-05T11:08:52.713Z</time></trkpt><trkpt lat="45.7163161" lon="9.3554175"><ele>472.5</ele><time>2026-04-05T11:08:54.713Z</time></trkpt><trkpt lat="45.716384" lon="9.3554288"><ele>471.0</ele><time>2026-04-05T11:08:55.712Z</time></trkpt><trkpt lat="45.7164716" lon="9.3554315"><ele>469.5</ele><time>2026-04-05T11:08:57.713Z</time></trkpt><trkpt lat="45.716541" lon="9.3554321"><ele>468.0</ele><time>2026-04-05T11:08:58.713Z</time></trkpt><trkpt lat="45.7166087" lon="9.3554555"><ele>468.0</ele><time>2026-04-05T11:08:59.713Z</time></trkpt><trkpt lat="45.7167088" lon="9.355505"><ele>467.99999999999994</ele><time>2026-04-05T11:09:01.713Z</time></trkpt><trkpt lat="45.7167772" lon="9.3555266"><ele>467.99999999999994</ele><time>2026-04-05T11:09:02.713Z</time></trkpt><trkpt lat="45.7168957" lon="9.3555637"><ele>468.0</ele><time>2026-04-05T11:09:04.712Z</time></trkpt><trkpt lat="45.7169841" lon="9.3555934"><ele>468.0</ele><time>2026-04-05T11:09:06.713Z</time></trkpt><trkpt lat="45.7170726" lon="9.3555763"><ele>468.8333333333333</ele><time>2026-04-05T11:09:08.713Z</time></trkpt><trkpt lat="45.7171371" lon="9.3555057"><ele>469.66666666666663</ele><time>2026-04-05T11:09:09.713Z</time></trkpt><trkpt lat="45.7171984" lon="9.3554744"><ele>470.5</ele><time>2026-04-05T11:09:10.713Z</time></trkpt><trkpt lat="45.7173038" lon="9.3553803"><ele>471.3333333333333</ele><time>2026-04-05T11:09:12.713Z</time></trkpt><trkpt lat="45.7173694" lon="9.3553569"><ele>472.16666666666663</ele><time>2026-04-05T11:09:13.713Z</time></trkpt><trkpt lat="45.717425" lon="9.3552904"><ele>473.0</ele><time>2026-04-05T11:09:14.712Z</time></trkpt><trkpt lat="45.7175169" lon="9.3551921"><ele>473.0</ele><time>2026-04-05T11:09:16.713Z</time></trkpt><trkpt lat="45.7176258" lon="9.3550974"><ele>472.99999999999994</ele><time>2026-04-05T11:09:18.713Z</time></trkpt><trkpt lat="45.7177315" lon="9.3550546"><ele>472.99999999999994</ele><time>2026-04-05T11:09:20.712Z</time></trkpt><trkpt lat="45.7178514" lon="9.3550124"><ele>473.0</ele><time>2026-04-05T11:09:22.713Z</time></trkpt><trkpt lat="45.717917" lon="9.3549796"><ele>473.0</ele><time>2026-04-05T11:09:23.713Z</time></trkpt><trkpt lat="45.7180327" lon="9.3549298"><ele>474.3333333333333</ele><time>2026-04-05T11:09:25.713Z</time></trkpt><trkpt lat="45.7181044" lon="9.3549079"><ele>475.66666666666663</ele><time>2026-04-05T11:09:26.713Z</time></trkpt><trkpt lat="45.7181769" lon="9.3548806"><ele>477.0</ele><time>2026-04-05T11:09:27.713Z</time></trkpt><trkpt lat="45.7182457" lon="9.3548548"><ele>478.33333333333337</ele><time>2026-04-05T11:09:28.713Z</time></trkpt><trkpt lat="45.7183114" lon="9.3547955"><ele>479.6666666666667</ele><time>2026-04-05T11:09:29.713Z</time></trkpt><trkpt lat="45.7183744" lon="9.354745"><ele>481.0</ele><time>2026-04-05T11:09:30.713Z</time></trkpt><trkpt lat="45.7184714" lon="9.3546844"><ele>478.1666666666667</ele><time>2026-04-05T11:09:32.712Z</time></trkpt><trkpt lat="45.7185771" lon="9.3545185"><ele>475.33333333333337</ele><time>2026-04-05T11:09:34.712Z</time></trkpt><trkpt lat="45.7186377" lon="9.3544773"><ele>472.5</ele><time>2026-04-05T11:09:35.713Z</time></trkpt><trkpt lat="45.7186968" lon="9.3544252"><ele>469.66666666666663</ele><time>2026-04-05T11:09:36.713Z</time></trkpt><trkpt lat="45.7187509" lon="9.354357"><ele>466.8333333333333</ele><time>2026-04-05T11:09:37.713Z</time></trkpt><trkpt lat="45.7187889" lon="9.3542562"><ele>464.0</ele><time>2026-04-05T11:09:38.713Z</time></trkpt><trkpt lat="45.7188496" lon="9.3541949"><ele>464.0</ele><time>2026-04-05T11:09:39.713Z</time></trkpt><trkpt lat="45.7189661" lon="9.3541166"><ele>464.0</ele><time>2026-04-05T11:09:41.713Z</time></trkpt><trkpt lat="45.7190462" lon="9.3540782"><ele>464.0</ele><time>2026-04-05T11:09:42.713Z</time></trkpt><trkpt lat="45.7191533" lon="9.3540307"><ele>464.0</ele><time>2026-04-05T11:09:44.712Z</time></trkpt><trkpt lat="45.7193038" lon="9.353998"><ele>463.99999999999994</ele><time>2026-04-05T11:09:46.713Z</time></trkpt><trkpt lat="45.7193795" lon="9.3539774"><ele>464.0</ele><time>2026-04-05T11:09:47.713Z</time></trkpt><trkpt lat="45.7194628" lon="9.3539381"><ele>464.0</ele><time>2026-04-05T11:09:48.713Z</time></trkpt><trkpt lat="45.7195389" lon="9.3539242"><ele>464.0</ele><time>2026-04-05T11:09:49.713Z</time></trkpt><trkpt lat="45.7196032" lon="9.3539106"><ele>463.99999999999994</ele><time>2026-04-05T11:09:50.712Z</time></trkpt><trkpt lat="45.7196884" lon="9.3539047"><ele>464.0</ele><time>2026-04-05T11:09:51.712Z</time></trkpt><trkpt lat="45.7198385" lon="9.3538895"><ele>463.4285714285715</ele><time>2026-04-05T11:09:53.713Z</time></trkpt><trkpt lat="45.7199103" lon="9.3538689"><ele>462.8571428571429</ele><time>2026-04-05T11:09:54.713Z</time></trkpt><trkpt lat="45.7199761" lon="9.3538656"><ele>462.2857142857143</ele><time>2026-04-05T11:09:55.713Z</time></trkpt><trkpt lat="45.720051" lon="9.3538583"><ele>461.7142857142857</ele><time>2026-04-05T11:09:56.713Z</time></trkpt><trkpt lat="45.720135" lon="9.3538749"><ele>461.1428571428571</ele><time>2026-04-05T11:09:57.712Z</time></trkpt><trkpt lat="45.7202019" lon="9.3538973"><ele>460.5714285714285</ele><time>2026-04-05T11:09:58.713Z</time></trkpt><trkpt lat="45.7202713" lon="9.3538865"><ele>459.99999999999994</ele><time>2026-04-05T11:09:59.712Z</time></trkpt><trkpt lat="45.7203406" lon="9.3538899"><ele>458.00000000000006</ele><time>2026-04-05T11:10:00.712Z</time></trkpt><trkpt lat="45.7204128" lon="9.3538482"><ele>456.0</ele><time>2026-04-05T11:10:01.713Z</time></trkpt><trkpt lat="45.7204886" lon="9.3538109"><ele>454.0</ele><time>2026-04-05T11:10:02.713Z</time></trkpt><trkpt lat="45.7205611" lon="9.3537547"><ele>452.0</ele><time>2026-04-05T11:10:03.713Z</time></trkpt><trkpt lat="45.7206312" lon="9.3536927"><ele>450.00000000000006</ele><time>2026-04-05T11:10:04.713Z</time></trkpt><trkpt lat="45.7206949" lon="9.3536373"><ele>448.0</ele><time>2026-04-05T11:10:05.712Z</time></trkpt><trkpt lat="45.7207491" lon="9.3535888"><ele>448.00000000000006</ele><time>2026-04-05T11:10:06.713Z</time></trkpt><trkpt lat="45.7207977" lon="9.3535266"><ele>448.0</ele><time>2026-04-05T11:10:07.713Z</time></trkpt><trkpt lat="45.7208861" lon="9.353401"><ele>448.0</ele><time>2026-04-05T11:10:09.713Z</time></trkpt><trkpt lat="45.7209359" lon="9.3533196"><ele>448.0</ele><time>2026-04-05T11:10:10.713Z</time></trkpt><trkpt lat="45.7209924" lon="9.3532233"><ele>448.00000000000006</ele><time>2026-04-05T11:10:11.713Z</time></trkpt><trkpt lat="45.7210278" lon="9.3531342"><ele>448.0</ele><time>2026-04-05T11:10:12.713Z</time></trkpt><trkpt lat="45.7210949" lon="9.3530584"><ele>445.83333333333337</ele><time>2026-04-05T11:10:13.713Z</time></trkpt><trkpt lat="45.7211412" lon="9.3529775"><ele>443.6666666666667</ele><time>2026-04-05T11:10:14.712Z</time></trkpt><trkpt lat="45.7212002" lon="9.3529077"><ele>441.5</ele><time>2026-04-05T11:10:15.713Z</time></trkpt><trkpt lat="45.7212687" lon="9.3528353"><ele>439.33333333333337</ele><time>2026-04-05T11:10:16.713Z</time></trkpt><trkpt lat="45.7213362" lon="9.3527687"><ele>437.1666666666667</ele><time>2026-04-05T11:10:17.713Z</time></trkpt><trkpt lat="45.7214186" lon="9.3527035"><ele>435.0</ele><time>2026-04-05T11:10:18.713Z</time></trkpt><trkpt lat="45.7215102" lon="9.3526321"><ele>435.0</ele><time>2026-04-05T11:10:19.713Z</time></trkpt><trkpt lat="45.7216004" lon="9.3525773"><ele>435.0</ele><time>2026-04-05T11:10:20.712Z</time></trkpt><trkpt lat="45.7216729" lon="9.3525104"><ele>435.0</ele><time>2026-04-05T11:10:21.713Z</time></trkpt><trkpt lat="45.7217503" lon="9.3524342"><ele>435.0</ele><time>2026-04-05T11:10:22.713Z</time></trkpt><trkpt lat="45.7218456" lon="9.3523716"><ele>435.0</ele><time>2026-04-05T11:10:23.713Z</time></trkpt><trkpt lat="45.7219252" lon="9.3523135"><ele>434.3333333333333</ele><time>2026-04-05T11:10:24.713Z</time></trkpt><trkpt lat="45.7220088" lon="9.3522777"><ele>433.66666666666663</ele><time>2026-04-05T11:10:25.712Z</time></trkpt><trkpt lat="45.7220825" lon="9.3522376"><ele>433.0</ele><time>2026-04-05T11:10:26.713Z</time></trkpt><trkpt lat="45.7221624" lon="9.3522084"><ele>432.3333333333333</ele><time>2026-04-05T11:10:27.713Z</time></trkpt><trkpt lat="45.7222335" lon="9.3521729"><ele>431.66666666666663</ele><time>2026-04-05T11:10:28.713Z</time></trkpt><trkpt lat="45.7222953" lon="9.3521397"><ele>431.0</ele><time>2026-04-05T11:10:29.712Z</time></trkpt><trkpt lat="45.7223919" lon="9.3520628"><ele>430.99999999999994</ele><time>2026-04-05T11:10:31.713Z</time></trkpt><trkpt lat="45.7224663" lon="9.3519848"><ele>431.0</ele><time>2026-04-05T11:10:33.713Z</time></trkpt><trkpt lat="45.7225265" lon="9.3519124"><ele>431.0</ele><time>2026-04-05T11:10:35.713Z</time></trkpt><trkpt lat="45.7225954" lon="9.3518365"><ele>431.0</ele><time>2026-04-05T11:10:37.713Z</time></trkpt><trkpt lat="45.7226721" lon="9.3517812"><ele>430.99999999999994</ele><time>2026-04-05T11:10:39.713Z</time></trkpt><trkpt lat="45.7227274" lon="9.3517286"><ele>431.0</ele><time>2026-04-05T11:10:41.713Z</time></trkpt><trkpt lat="45.7227942" lon="9.3516922"><ele>431.3333333333333</ele><time>2026-04-05T11:10:43.713Z</time></trkpt><trkpt lat="45.7228794" lon="9.3516364"><ele>431.66666666666663</ele><time>2026-04-05T11:10:45.713Z</time></trkpt><trkpt lat="45.7229428" lon="9.3515709"><ele>432.0</ele><time>2026-04-05T11:10:47.713Z</time></trkpt><trkpt lat="45.7230414" lon="9.3515161"><ele>432.33333333333337</ele><time>2026-04-05T11:10:49.713Z</time></trkpt><trkpt lat="45.723098" lon="9.3514595"><ele>432.6666666666667</ele><time>2026-04-05T11:10:51.712Z</time></trkpt><trkpt lat="45.7231751" lon="9.3513967"><ele>433.0</ele><time>2026-04-05T11:10:53.712Z</time></trkpt><trkpt lat="45.7232884" lon="9.3513654"><ele>433.0</ele><time>2026-04-05T11:10:55.712Z</time></trkpt><trkpt lat="45.7233632" lon="9.3513582"><ele>432.99999999999994</ele><time>2026-04-05T11:10:56.713Z</time></trkpt><trkpt lat="45.7234546" lon="9.35135"><ele>432.99999999999994</ele><time>2026-04-05T11:10:58.712Z</time></trkpt><trkpt lat="45.7235976" lon="9.351361"><ele>433.0</ele><time>2026-04-05T11:11:01.713Z</time></trkpt><trkpt lat="45.7237095" lon="9.3513094"><ele>433.0</ele><time>2026-04-05T11:11:03.712Z</time></trkpt><trkpt lat="45.7238319" lon="9.3512801"><ele>432.33333333333337</ele><time>2026-04-05T11:11:05.713Z</time></trkpt><trkpt lat="45.7238957" lon="9.3513376"><ele>431.6666666666667</ele><time>2026-04-05T11:11:06.712Z</time></trkpt><trkpt lat="45.723977" lon="9.3513401"><ele>431.0</ele><time>2026-04-05T11:11:07.712Z</time></trkpt><trkpt lat="45.7240626" lon="9.3513788"><ele>430.33333333333337</ele><time>2026-04-05T11:11:08.713Z</time></trkpt><trkpt lat="45.7241485" lon="9.3514007"><ele>429.6666666666667</ele><time>2026-04-05T11:11:09.713Z</time></trkpt><trkpt lat="45.7242351" lon="9.3513915"><ele>429.0</ele><time>2026-04-05T11:11:10.712Z</time></trkpt><trkpt lat="45.724378" lon="9.3513586"><ele>429.1666666666667</ele><time>2026-04-05T11:11:12.713Z</time></trkpt><trkpt lat="45.7244668" lon="9.3513534"><ele>429.33333333333337</ele><time>2026-04-05T11:11:13.712Z</time></trkpt><trkpt lat="45.7245558" lon="9.3513339"><ele>429.5</ele><time>2026-04-05T11:11:14.712Z</time></trkpt><trkpt lat="45.7246368" lon="9.3513191"><ele>429.6666666666667</ele><time>2026-04-05T11:11:15.713Z</time></trkpt><trkpt lat="45.7247167" lon="9.3513278"><ele>429.83333333333337</ele><time>2026-04-05T11:11:16.712Z</time></trkpt><trkpt lat="45.7247991" lon="9.3513468"><ele>430.0</ele><time>2026-04-05T11:11:17.713Z</time></trkpt><trkpt lat="45.7248702" lon="9.3513688"><ele>430.33333333333337</ele><time>2026-04-05T11:11:18.713Z</time></trkpt><trkpt lat="45.7249476" lon="9.3514082"><ele>430.6666666666667</ele><time>2026-04-05T11:11:19.713Z</time></trkpt><trkpt lat="45.7250169" lon="9.3514444"><ele>431.0</ele><time>2026-04-05T11:11:20.713Z</time></trkpt><trkpt lat="45.7250843" lon="9.351499"><ele>431.33333333333337</ele><time>2026-04-05T11:11:21.712Z</time></trkpt><trkpt lat="45.7251605" lon="9.351533"><ele>431.6666666666667</ele><time>2026-04-05T11:11:22.712Z</time></trkpt><trkpt lat="45.7252419" lon="9.3515555"><ele>432.0</ele><time>2026-04-05T11:11:23.713Z</time></trkpt><trkpt lat="45.7253204" lon="9.3515741"><ele>432.0</ele><time>2026-04-05T11:11:24.713Z</time></trkpt><trkpt lat="45.7254065" lon="9.35159"><ele>432.0</ele><time>2026-04-05T11:11:25.712Z</time></trkpt><trkpt lat="45.725484" lon="9.3516143"><ele>432.0</ele><time>2026-04-05T11:11:26.713Z</time></trkpt><trkpt lat="45.7255504" lon="9.3516279"><ele>432.0</ele><time>2026-04-05T11:11:27.713Z</time></trkpt><trkpt lat="45.725628" lon="9.3516474"><ele>432.0</ele><time>2026-04-05T11:11:28.713Z</time></trkpt><trkpt lat="45.7257178" lon="9.3516663"><ele>432.0</ele><time>2026-04-05T11:11:30.713Z</time></trkpt><trkpt lat="45.7258027" lon="9.3516771"><ele>432.0</ele><time>2026-04-05T11:11:32.713Z</time></trkpt><trkpt lat="45.7259006" lon="9.3516608"><ele>432.0</ele><time>2026-04-05T11:11:34.712Z</time></trkpt><trkpt lat="45.7259792" lon="9.3516319"><ele>432.0</ele><time>2026-04-05T11:11:36.713Z</time></trkpt><trkpt lat="45.7260317" lon="9.3515691"><ele>432.0</ele><time>2026-04-05T11:11:38.712Z</time></trkpt><trkpt lat="45.7260956" lon="9.3515096"><ele>432.0</ele><time>2026-04-05T11:11:40.713Z</time></trkpt><trkpt lat="45.7261484" lon="9.3514546"><ele>432.0</ele><time>2026-04-05T11:11:42.713Z</time></trkpt><trkpt lat="45.7261955" lon="9.3513797"><ele>431.6666666666667</ele><time>2026-04-05T11:11:45.713Z</time></trkpt><trkpt lat="45.7262638" lon="9.3513099"><ele>431.33333333333337</ele><time>2026-04-05T11:11:49.713Z</time></trkpt><trkpt lat="45.7263217" lon="9.3512565"><ele>431.0</ele><time>2026-04-05T11:11:53.712Z</time></trkpt><trkpt lat="45.7263909" lon="9.3512239"><ele>430.6666666666667</ele><time>2026-04-05T11:11:57.713Z</time></trkpt><trkpt lat="45.726454" lon="9.3512051"><ele>430.33333333333337</ele><time>2026-04-05T11:12:00.713Z</time></trkpt><trkpt lat="45.7265281" lon="9.3511949"><ele>430.0</ele><time>2026-04-05T11:12:04.713Z</time></trkpt><trkpt lat="45.726664" lon="9.3511874"><ele>430.00000000000006</ele><time>2026-04-05T11:12:09.713Z</time></trkpt><trkpt lat="45.7267452" lon="9.3511821"><ele>430.0</ele><time>2026-04-05T11:12:12.713Z</time></trkpt><trkpt lat="45.7268212" lon="9.351164"><ele>430.0</ele><time>2026-04-05T11:12:15.713Z</time></trkpt><trkpt lat="45.7268934" lon="9.3511604"><ele>430.0</ele><time>2026-04-05T11:12:18.712Z</time></trkpt><trkpt lat="45.7269752" lon="9.3511641"><ele>430.00000000000006</ele><time>2026-04-05T11:12:21.713Z</time></trkpt><trkpt lat="45.7270673" lon="9.3511677"><ele>430.0</ele><time>2026-04-05T11:12:24.713Z</time></trkpt><trkpt lat="45.7271426" lon="9.3511719"><ele>430.6666666666667</ele><time>2026-04-05T11:12:26.713Z</time></trkpt><trkpt lat="45.7272106" lon="9.3511677"><ele>431.33333333333337</ele><time>2026-04-05T11:12:28.712Z</time></trkpt><trkpt lat="45.7272883" lon="9.3511555"><ele>432.0</ele><time>2026-04-05T11:12:30.712Z</time></trkpt><trkpt lat="45.7273716" lon="9.3511407"><ele>432.66666666666663</ele><time>2026-04-05T11:12:32.713Z</time></trkpt><trkpt lat="45.7274751" lon="9.351119"><ele>433.3333333333333</ele><time>2026-04-05T11:12:34.713Z</time></trkpt><trkpt lat="45.7275715" lon="9.3510953"><ele>434.0</ele><time>2026-04-05T11:12:36.713Z</time></trkpt><trkpt lat="45.7276493" lon="9.3510734"><ele>434.99999999999994</ele><time>2026-04-05T11:12:39.713Z</time></trkpt><trkpt lat="45.7277375" lon="9.3510393"><ele>436.0</ele><time>2026-04-05T11:12:43.712Z</time></trkpt><trkpt lat="45.7278137" lon="9.3510213"><ele>437.0</ele><time>2026-04-05T11:12:45.712Z</time></trkpt><trkpt lat="45.7278976" lon="9.3509965"><ele>438.0</ele><time>2026-04-05T11:12:47.713Z</time></trkpt><trkpt lat="45.7279721" lon="9.3509517"><ele>438.99999999999994</ele><time>2026-04-05T11:12:50.712Z</time></trkpt><trkpt lat="45.7280465" lon="9.3509269"><ele>440.0</ele><time>2026-04-05T11:12:53.713Z</time></trkpt><trkpt lat="45.7281355" lon="9.3509021"><ele>439.99999999999994</ele><time>2026-04-05T11:12:56.712Z</time></trkpt><trkpt lat="45.7281974" lon="9.3508856"><ele>440.0</ele><time>2026-04-05T11:12:58.713Z</time></trkpt><trkpt lat="45.7282686" lon="9.35086"><ele>440.0</ele><time>2026-04-05T11:13:01.713Z</time></trkpt><trkpt lat="45.728345" lon="9.3508346"><ele>440.0</ele><time>2026-04-05T11:13:05.713Z</time></trkpt><trkpt lat="45.7284128" lon="9.3508353"><ele>440.0</ele><time>2026-04-05T11:13:08.713Z</time></trkpt><trkpt lat="45.7284804" lon="9.3508373"><ele>439.99999999999994</ele><time>2026-04-05T11:13:11.712Z</time></trkpt><trkpt lat="45.7285449" lon="9.3508327"><ele>440.0</ele><time>2026-04-05T11:13:13.712Z</time></trkpt><trkpt lat="45.7286143" lon="9.3508307"><ele>441.57142857142856</ele><time>2026-04-05T11:13:16.713Z</time></trkpt><trkpt lat="45.7286864" lon="9.350814"><ele>443.1428571428571</ele><time>2026-04-05T11:13:19.712Z</time></trkpt><trkpt lat="45.7287539" lon="9.3508073"><ele>444.71428571428567</ele><time>2026-04-05T11:13:21.712Z</time></trkpt><trkpt lat="45.7288348" lon="9.3508039"><ele>446.2857142857143</ele><time>2026-04-05T11:13:24.713Z</time></trkpt><trkpt lat="45.728912" lon="9.350806"><ele>447.8571428571429</ele><time>2026-04-05T11:13:29.712Z</time></trkpt><trkpt lat="45.7289758" lon="9.3508015"><ele>449.4285714285714</ele><time>2026-04-05T11:13:33.712Z</time></trkpt><trkpt lat="45.7290572" lon="9.3508011"><ele>451.0</ele><time>2026-04-05T11:13:36.713Z</time></trkpt><trkpt lat="45.7291326" lon="9.3507974"><ele>451.0</ele><time>2026-04-05T11:13:39.713Z</time></trkpt><trkpt lat="45.7292017" lon="9.3507715"><ele>451.0</ele><time>2026-04-05T11:13:42.713Z</time></trkpt><trkpt lat="45.7292681" lon="9.3507504"><ele>451.0</ele><time>2026-04-05T11:13:45.713Z</time></trkpt><trkpt lat="45.7293362" lon="9.3507296"><ele>451.0</ele><time>2026-04-05T11:13:48.713Z</time></trkpt><trkpt lat="45.729403" lon="9.3507089"><ele>451.0</ele><time>2026-04-05T11:13:51.713Z</time></trkpt><trkpt lat="45.7294801" lon="9.3506888"><ele>451.0</ele><time>2026-04-05T11:13:55.713Z</time></trkpt><trkpt lat="45.7295588" lon="9.3506683"><ele>451.0</ele><time>2026-04-05T11:13:59.713Z</time></trkpt><trkpt lat="45.7296348" lon="9.3506681"><ele>452.2857142857143</ele><time>2026-04-05T11:14:03.713Z</time></trkpt><trkpt lat="45.729716" lon="9.3506345"><ele>453.57142857142856</ele><time>2026-04-05T11:14:07.713Z</time></trkpt><trkpt lat="45.7297807" lon="9.3506087"><ele>454.85714285714283</ele><time>2026-04-05T11:14:10.713Z</time></trkpt><trkpt lat="45.7298387" lon="9.3505722"><ele>456.1428571428571</ele><time>2026-04-05T11:14:14.713Z</time></trkpt><trkpt lat="45.7298971" lon="9.3505364"><ele>457.42857142857144</ele><time>2026-04-05T11:14:18.713Z</time></trkpt><trkpt lat="45.7299724" lon="9.3504978"><ele>458.71428571428567</ele><time>2026-04-05T11:14:22.713Z</time></trkpt><trkpt lat="45.7300352" lon="9.3504888"><ele>459.99999999999994</ele><time>2026-04-05T11:14:25.713Z</time></trkpt><trkpt lat="45.730111" lon="9.3504588"><ele>461.8571428571428</ele><time>2026-04-05T11:14:29.713Z</time></trkpt><trkpt lat="45.7301853" lon="9.3504215"><ele>463.71428571428567</ele><time>2026-04-05T11:14:34.713Z</time></trkpt><trkpt lat="45.7302711" lon="9.3504056"><ele>465.57142857142856</ele><time>2026-04-05T11:14:38.713Z</time></trkpt><trkpt lat="45.7303388" lon="9.3504005"><ele>467.4285714285714</ele><time>2026-04-05T11:14:41.713Z</time></trkpt><trkpt lat="45.7304031" lon="9.3503909"><ele>469.2857142857142</ele><time>2026-04-05T11:14:44.713Z</time></trkpt><trkpt lat="45.7304781" lon="9.3503883"><ele>471.14285714285717</ele><time>2026-04-05T11:14:48.713Z</time></trkpt><trkpt lat="45.7305522" lon="9.3503972"><ele>473.0</ele><time>2026-04-05T11:14:52.713Z</time></trkpt><trkpt lat="45.7306212" lon="9.350375"><ele>476.3333333333333</ele><time>2026-04-05T11:14:56.713Z</time></trkpt><trkpt lat="45.730711" lon="9.3503658"><ele>479.66666666666663</ele><time>2026-04-05T11:14:59.713Z</time></trkpt><trkpt lat="45.7307705" lon="9.3503986"><ele>483.0</ele><time>2026-04-05T11:15:02.713Z</time></trkpt><trkpt lat="45.7307243" lon="9.3503195"><ele>486.33333333333337</ele><time>2026-04-05T11:15:11.713Z</time></trkpt><trkpt lat="45.7306578" lon="9.3502803"><ele>489.6666666666667</ele><time>2026-04-05T11:15:14.713Z</time></trkpt><trkpt lat="45.7305792" lon="9.3502363"><ele>493.0</ele><time>2026-04-05T11:15:17.713Z</time></trkpt><trkpt lat="45.7305069" lon="9.3501975"><ele>493.0</ele><time>2026-04-05T11:15:20.713Z</time></trkpt><trkpt lat="45.730441" lon="9.3501729"><ele>493.0</ele><time>2026-04-05T11:15:23.713Z</time></trkpt><trkpt lat="45.730364" lon="9.3501425"><ele>493.0</ele><time>2026-04-05T11:15:29.712Z</time></trkpt><trkpt lat="45.7303065" lon="9.3500986"><ele>493.0</ele><time>2026-04-05T11:15:33.713Z</time></trkpt><trkpt lat="45.7302371" lon="9.3500502"><ele>493.0</ele><time>2026-04-05T11:15:37.713Z</time></trkpt><trkpt lat="45.7301834" lon="9.3499744"><ele>493.0</ele><time>2026-04-05T11:15:40.713Z</time></trkpt><trkpt lat="45.7301788" lon="9.3498735"><ele>493.0</ele><time>2026-04-05T11:15:43.712Z</time></trkpt><trkpt lat="45.7302103" lon="9.34979"><ele>494.0</ele><time>2026-04-05T11:15:46.713Z</time></trkpt><trkpt lat="45.7302593" lon="9.3497076"><ele>495.0</ele><time>2026-04-05T11:15:49.712Z</time></trkpt><trkpt lat="45.7303067" lon="9.3496451"><ele>496.0</ele><time>2026-04-05T11:15:52.713Z</time></trkpt><trkpt lat="45.7303652" lon="9.3495663"><ele>497.0</ele><time>2026-04-05T11:15:56.713Z</time></trkpt><trkpt lat="45.7304209" lon="9.3495005"><ele>498.0</ele><time>2026-04-05T11:16:00.713Z</time></trkpt><trkpt lat="45.7304723" lon="9.3494331"><ele>499.0</ele><time>2026-04-05T11:16:04.713Z</time></trkpt><trkpt lat="45.7305232" lon="9.3493572"><ele>500.0</ele><time>2026-04-05T11:16:08.713Z</time></trkpt><trkpt lat="45.7305673" lon="9.349278"><ele>500.0</ele><time>2026-04-05T11:16:12.713Z</time></trkpt><trkpt lat="45.7305979" lon="9.3491836"><ele>500.0</ele><time>2026-04-05T11:16:16.713Z</time></trkpt><trkpt lat="45.7306362" lon="9.3490932"><ele>500.0</ele><time>2026-04-05T11:16:21.713Z</time></trkpt><trkpt lat="45.7306624" lon="9.3490033"><ele>500.0</ele><time>2026-04-05T11:16:24.713Z</time></trkpt><trkpt lat="45.7306693" lon="9.3489136"><ele>500.0</ele><time>2026-04-05T11:16:27.713Z</time></trkpt><trkpt lat="45.7306661" lon="9.3488235"><ele>500.0</ele><time>2026-04-05T11:16:30.712Z</time></trkpt><trkpt lat="45.73066" lon="9.3487325"><ele>500.0</ele><time>2026-04-05T11:16:33.713Z</time></trkpt><trkpt lat="45.7306513" lon="9.3486408"><ele>500.57142857142856</ele><time>2026-04-05T11:16:36.713Z</time></trkpt><trkpt lat="45.7306452" lon="9.3485509"><ele>501.14285714285717</ele><time>2026-04-05T11:16:39.713Z</time></trkpt><trkpt lat="45.7306366" lon="9.3484343"><ele>501.7142857142857</ele><time>2026-04-05T11:16:43.713Z</time></trkpt><trkpt lat="45.7306282" lon="9.3483245"><ele>502.2857142857143</ele><time>2026-04-05T11:16:47.712Z</time></trkpt><trkpt lat="45.7306071" lon="9.3482199"><ele>502.8571428571429</ele><time>2026-04-05T11:16:51.713Z</time></trkpt><trkpt lat="45.7305891" lon="9.3481302"><ele>503.42857142857144</ele><time>2026-04-05T11:16:55.713Z</time></trkpt><trkpt lat="45.7305628" lon="9.3480304"><ele>504.0</ele><time>2026-04-05T11:16:59.713Z</time></trkpt><trkpt lat="45.7305459" lon="9.3479326"><ele>504.0</ele><time>2026-04-05T11:17:03.713Z</time></trkpt><trkpt lat="45.7305373" lon="9.3478305"><ele>504.0</ele><time>2026-04-05T11:17:07.713Z</time></trkpt><trkpt lat="45.7305301" lon="9.3477277"><ele>504.0</ele><time>2026-04-05T11:17:11.713Z</time></trkpt><trkpt lat="45.7305284" lon="9.3476307"><ele>504.0</ele><time>2026-04-05T11:17:15.713Z</time></trkpt><trkpt lat="45.7306282" lon="9.3483245"><ele>504.0</ele><time>2026-04-05T11:16:47.712Z</time></trkpt><trkpt lat="45.7306071" lon="9.3482199"><ele>504.0</ele><time>2026-04-05T11:16:51.713Z</time></trkpt><trkpt lat="45.7305891" lon="9.3481302"><ele>504.0</ele><time>2026-04-05T11:16:55.713Z</time></trkpt><trkpt lat="45.7305628" lon="9.3480304"><ele>504.0</ele><time>2026-04-05T11:16:59.713Z</time></trkpt><trkpt lat="45.7305459" lon="9.3479326"><ele>504.0</ele><time>2026-04-05T11:17:03.713Z</time></trkpt><trkpt lat="45.7305373" lon="9.3478305"><ele>504.0</ele><time>2026-04-05T11:17:07.713Z</time></trkpt><trkpt lat="45.7305301" lon="9.3477277"><ele>504.0</ele><time>2026-04-05T11:17:11.713Z</time></trkpt><trkpt lat="45.7305284" lon="9.3476307"><ele>504.0</ele><time>2026-04-05T11:17:15.713Z</time></trkpt><trkpt lat="45.7305644" lon="9.347532"><ele>504.0</ele><time>2026-04-05T11:17:20.713Z</time></trkpt><trkpt lat="45.7306242" lon="9.3474991"><ele>504.0</ele><time>2026-04-05T11:17:23.713Z</time></trkpt><trkpt lat="45.7306961" lon="9.3475013"><ele>504.0</ele><time>2026-04-05T11:17:27.713Z</time></trkpt><trkpt lat="45.7307796" lon="9.3475166"><ele>504.0</ele><time>2026-04-05T11:17:31.713Z</time></trkpt><trkpt lat="45.7308437" lon="9.347531"><ele>504.0</ele><time>2026-04-05T11:17:34.713Z</time></trkpt><trkpt lat="45.7309059" lon="9.3475522"><ele>504.0</ele><time>2026-04-05T11:17:37.713Z</time></trkpt><trkpt lat="45.7309847" lon="9.3475853"><ele>504.0</ele><time>2026-04-05T11:17:41.712Z</time></trkpt><trkpt lat="45.7310463" lon="9.3476053"><ele>504.0</ele><time>2026-04-05T11:17:44.712Z</time></trkpt><trkpt lat="45.7311136" lon="9.3476224"><ele>504.0</ele><time>2026-04-05T11:17:47.713Z</time></trkpt><trkpt lat="45.7311795" lon="9.3476538"><ele>504.0</ele><time>2026-04-05T11:17:50.713Z</time></trkpt><trkpt lat="45.7312441" lon="9.3476809"><ele>504.0</ele><time>2026-04-05T11:17:53.713Z</time></trkpt><trkpt lat="45.731313" lon="9.3477137"><ele>504.0</ele><time>2026-04-05T11:17:56.713Z</time></trkpt><trkpt lat="45.7313834" lon="9.3477468"><ele>504.0</ele><time>2026-04-05T11:17:59.713Z</time></trkpt><trkpt lat="45.7314532" lon="9.3477851"><ele>504.3333333333333</ele><time>2026-04-05T11:18:02.713Z</time></trkpt><trkpt lat="45.7315245" lon="9.3478245"><ele>504.66666666666663</ele><time>2026-04-05T11:18:05.713Z</time></trkpt><trkpt lat="45.7315999" lon="9.3478524"><ele>505.0</ele><time>2026-04-05T11:18:08.712Z</time></trkpt><trkpt lat="45.7316827" lon="9.3478763"><ele>505.3333333333333</ele><time>2026-04-05T11:18:11.713Z</time></trkpt><trkpt lat="45.7317602" lon="9.3478947"><ele>505.66666666666663</ele><time>2026-04-05T11:18:14.713Z</time></trkpt><trkpt lat="45.7318299" lon="9.3478996"><ele>506.0</ele><time>2026-04-05T11:18:17.713Z</time></trkpt><trkpt lat="45.7319072" lon="9.3479004"><ele>506.99999999999994</ele><time>2026-04-05T11:18:20.713Z</time></trkpt><trkpt lat="45.7319929" lon="9.3479019"><ele>508.0</ele><time>2026-04-05T11:18:23.712Z</time></trkpt><trkpt lat="45.7320718" lon="9.3478443"><ele>509.0</ele><time>2026-04-05T11:18:26.713Z</time></trkpt><trkpt lat="45.7321489" lon="9.3477758"><ele>510.0</ele><time>2026-04-05T11:18:29.713Z</time></trkpt><trkpt lat="45.7321891" lon="9.3476977"><ele>510.99999999999994</ele><time>2026-04-05T11:18:31.713Z</time></trkpt><trkpt lat="45.7322427" lon="9.3476368"><ele>512.0</ele><time>2026-04-05T11:18:33.712Z</time></trkpt><trkpt lat="45.7322913" lon="9.3475706"><ele>511.99999999999994</ele><time>2026-04-05T11:18:35.713Z</time></trkpt><trkpt lat="45.732347" lon="9.3475148"><ele>512.0</ele><time>2026-04-05T11:18:37.712Z</time></trkpt><trkpt lat="45.7324117" lon="9.3474635"><ele>512.0</ele><time>2026-04-05T11:18:39.713Z</time></trkpt><trkpt lat="45.7324649" lon="9.3473971"><ele>512.0</ele><time>2026-04-05T11:18:41.713Z</time></trkpt><trkpt lat="45.7325221" lon="9.3473348"><ele>511.99999999999994</ele><time>2026-04-05T11:18:43.713Z</time></trkpt><trkpt lat="45.7325857" lon="9.3472667"><ele>512.0</ele><time>2026-04-05T11:18:45.713Z</time></trkpt><trkpt lat="45.7326634" lon="9.3472141"><ele>512.1666666666666</ele><time>2026-04-05T11:18:47.713Z</time></trkpt><trkpt lat="45.7327382" lon="9.3471732"><ele>512.3333333333333</ele><time>2026-04-05T11:18:49.713Z</time></trkpt><trkpt lat="45.7328141" lon="9.3471367"><ele>512.5</ele><time>2026-04-05T11:18:51.713Z</time></trkpt><trkpt lat="45.7328859" lon="9.3470925"><ele>512.6666666666666</ele><time>2026-04-05T11:18:53.712Z</time></trkpt><trkpt lat="45.7329562" lon="9.3470544"><ele>512.8333333333334</ele><time>2026-04-05T11:18:55.713Z</time></trkpt><trkpt lat="45.7330314" lon="9.3470271"><ele>513.0</ele><time>2026-04-05T11:18:57.712Z</time></trkpt><trkpt lat="45.7331143" lon="9.347031"><ele>513.0</ele><time>2026-04-05T11:18:59.713Z</time></trkpt><trkpt lat="45.7331964" lon="9.3470413"><ele>513.0</ele><time>2026-04-05T11:19:01.713Z</time></trkpt><trkpt lat="45.733279" lon="9.3470729"><ele>513.0</ele><time>2026-04-05T11:19:03.713Z</time></trkpt><trkpt lat="45.7333584" lon="9.3470941"><ele>513.0</ele><time>2026-04-05T11:19:05.713Z</time></trkpt><trkpt lat="45.7334258" lon="9.3471126"><ele>513.0</ele><time>2026-04-05T11:19:07.712Z</time></trkpt><trkpt lat="45.733511" lon="9.347159"><ele>513.0</ele><time>2026-04-05T11:19:10.713Z</time></trkpt><trkpt lat="45.7335637" lon="9.3472223"><ele>512.75</ele><time>2026-04-05T11:19:12.713Z</time></trkpt><trkpt lat="45.7336158" lon="9.3473272"><ele>512.5</ele><time>2026-04-05T11:19:17.713Z</time></trkpt><trkpt lat="45.7336597" lon="9.3474606"><ele>512.25</ele><time>2026-04-05T11:19:21.713Z</time></trkpt><trkpt lat="45.7336975" lon="9.3475718"><ele>512.0</ele><time>2026-04-05T11:19:23.713Z</time></trkpt><trkpt lat="45.7338033" lon="9.3477679"><ele>512.0</ele><time>2026-04-05T11:19:25.712Z</time></trkpt><trkpt lat="45.7338202" lon="9.3478896"><ele>512.0</ele><time>2026-04-05T11:19:27.712Z</time></trkpt><trkpt lat="45.7338647" lon="9.3480398"><ele>512.0</ele><time>2026-04-05T11:19:29.713Z</time></trkpt><trkpt lat="45.7339347" lon="9.3481724"><ele>512.0</ele><time>2026-04-05T11:19:31.713Z</time></trkpt><trkpt lat="45.733982" lon="9.348247"><ele>512.0</ele><time>2026-04-05T11:19:32.713Z</time></trkpt><trkpt lat="45.7340425" lon="9.3483491"><ele>512.2</ele><time>2026-04-05T11:19:34.713Z</time></trkpt><trkpt lat="45.7341157" lon="9.3485087"><ele>512.4000000000001</ele><time>2026-04-05T11:19:36.712Z</time></trkpt><trkpt lat="45.7341638" lon="9.3485859"><ele>512.5999999999999</ele><time>2026-04-05T11:19:37.713Z</time></trkpt><trkpt lat="45.7342046" lon="9.3486597"><ele>512.8</ele><time>2026-04-05T11:19:38.713Z</time></trkpt><trkpt lat="45.7342723" lon="9.3487581"><ele>513.0</ele><time>2026-04-05T11:19:40.713Z</time></trkpt><trkpt lat="45.7343334" lon="9.3488553"><ele>513.1666666666666</ele><time>2026-04-05T11:19:42.712Z</time></trkpt><trkpt lat="45.7343782" lon="9.348919"><ele>513.3333333333334</ele><time>2026-04-05T11:19:43.712Z</time></trkpt><trkpt lat="45.7344761" lon="9.3490183"><ele>513.5</ele><time>2026-04-05T11:19:45.713Z</time></trkpt><trkpt lat="45.7345314" lon="9.3490735"><ele>513.6666666666667</ele><time>2026-04-05T11:19:46.713Z</time></trkpt><trkpt lat="45.7346248" lon="9.3491158"><ele>513.8333333333334</ele><time>2026-04-05T11:19:48.713Z</time></trkpt><trkpt lat="45.7347083" lon="9.3490467"><ele>514.0</ele><time>2026-04-05T11:19:49.713Z</time></trkpt><trkpt lat="45.7348682" lon="9.3490689"><ele>514.0</ele><time>2026-04-05T11:19:52.713Z</time></trkpt><trkpt lat="45.7349271" lon="9.3491041"><ele>514.0</ele><time>2026-04-05T11:19:53.713Z</time></trkpt><trkpt lat="45.7349911" lon="9.3491387"><ele>514.0</ele><time>2026-04-05T11:19:54.713Z</time></trkpt><trkpt lat="45.7350628" lon="9.3491976"><ele>514.0</ele><time>2026-04-05T11:19:55.712Z</time></trkpt><trkpt lat="45.7351122" lon="9.3492553"><ele>514.0</ele><time>2026-04-05T11:19:56.713Z</time></trkpt><trkpt lat="45.735178" lon="9.3493202"><ele>514.0</ele><time>2026-04-05T11:19:57.713Z</time></trkpt><trkpt lat="45.7352315" lon="9.3493768"><ele>514.0</ele><time>2026-04-05T11:19:58.713Z</time></trkpt><trkpt lat="45.7352867" lon="9.3494289"><ele>512.2857142857142</ele><time>2026-04-05T11:19:59.713Z</time></trkpt><trkpt lat="45.7353322" lon="9.3494914"><ele>510.57142857142856</ele><time>2026-04-05T11:20:00.713Z</time></trkpt><trkpt lat="45.7353253" lon="9.3496145"><ele>508.85714285714283</ele><time>2026-04-05T11:20:01.713Z</time></trkpt><trkpt lat="45.7353314" lon="9.3497105"><ele>507.1428571428571</ele><time>2026-04-05T11:20:02.713Z</time></trkpt><trkpt lat="45.7353306" lon="9.3498025"><ele>505.42857142857144</ele><time>2026-04-05T11:20:03.712Z</time></trkpt><trkpt lat="45.7353361" lon="9.3499191"><ele>503.71428571428567</ele><time>2026-04-05T11:20:04.713Z</time></trkpt><trkpt lat="45.7353344" lon="9.3500363"><ele>501.99999999999994</ele><time>2026-04-05T11:20:05.713Z</time></trkpt><trkpt lat="45.735327" lon="9.3501431"><ele>500.6666666666667</ele><time>2026-04-05T11:20:06.713Z</time></trkpt><trkpt lat="45.7353199" lon="9.3502365"><ele>499.33333333333337</ele><time>2026-04-05T11:20:07.713Z</time></trkpt><trkpt lat="45.7353027" lon="9.3503388"><ele>498.0</ele><time>2026-04-05T11:20:08.713Z</time></trkpt><trkpt lat="45.7353002" lon="9.3504673"><ele>496.66666666666663</ele><time>2026-04-05T11:20:09.712Z</time></trkpt><trkpt lat="45.7352756" lon="9.3505734"><ele>495.3333333333333</ele><time>2026-04-05T11:20:10.713Z</time></trkpt><trkpt lat="45.735257" lon="9.3506712"><ele>494.0</ele><time>2026-04-05T11:20:11.713Z</time></trkpt><trkpt lat="45.7352209" lon="9.3507826"><ele>493.66666666666663</ele><time>2026-04-05T11:20:12.713Z</time></trkpt><trkpt lat="45.7352046" lon="9.3509003"><ele>493.3333333333333</ele><time>2026-04-05T11:20:13.712Z</time></trkpt><trkpt lat="45.7351521" lon="9.3510067"><ele>493.0</ele><time>2026-04-05T11:20:14.713Z</time></trkpt><trkpt lat="45.7351206" lon="9.3511219"><ele>492.66666666666663</ele><time>2026-04-05T11:20:15.713Z</time></trkpt><trkpt lat="45.7350838" lon="9.3512248"><ele>492.3333333333333</ele><time>2026-04-05T11:20:16.713Z</time></trkpt><trkpt lat="45.7350591" lon="9.3513335"><ele>492.0</ele><time>2026-04-05T11:20:17.713Z</time></trkpt><trkpt lat="45.7350788" lon="9.3514359"><ele>492.0</ele><time>2026-04-05T11:20:18.713Z</time></trkpt><trkpt lat="45.7350768" lon="9.3515692"><ele>492.00000000000006</ele><time>2026-04-05T11:20:19.713Z</time></trkpt><trkpt lat="45.7351172" lon="9.3517027"><ele>492.00000000000006</ele><time>2026-04-05T11:20:20.713Z</time></trkpt><trkpt lat="45.7351274" lon="9.3518315"><ele>492.0</ele><time>2026-04-05T11:20:21.713Z</time></trkpt><trkpt lat="45.7351268" lon="9.3519565"><ele>492.0</ele><time>2026-04-05T11:20:22.712Z</time></trkpt><trkpt lat="45.7351286" lon="9.3520728"><ele>492.00000000000006</ele><time>2026-04-05T11:20:23.713Z</time></trkpt><trkpt lat="45.7351119" lon="9.3521796"><ele>492.0</ele><time>2026-04-05T11:20:24.712Z</time></trkpt><trkpt lat="45.7351365" lon="9.3522703"><ele>492.00000000000006</ele><time>2026-04-05T11:20:25.713Z</time></trkpt><trkpt lat="45.7351332" lon="9.3523783"><ele>492.00000000000006</ele><time>2026-04-05T11:20:26.712Z</time></trkpt><trkpt lat="45.7351066" lon="9.3524675"><ele>492.0</ele><time>2026-04-05T11:20:27.713Z</time></trkpt><trkpt lat="45.7350895" lon="9.3525632"><ele>492.00000000000006</ele><time>2026-04-05T11:20:28.713Z</time></trkpt><trkpt lat="45.7350881" lon="9.3526611"><ele>492.00000000000006</ele><time>2026-04-05T11:20:29.713Z</time></trkpt><trkpt lat="45.7350691" lon="9.3528209"><ele>490.6</ele><time>2026-04-05T11:20:31.713Z</time></trkpt><trkpt lat="45.7350209" lon="9.3529085"><ele>489.20000000000005</ele><time>2026-04-05T11:20:32.713Z</time></trkpt><trkpt lat="45.7349897" lon="9.3530271"><ele>487.8</ele><time>2026-04-05T11:20:34.713Z</time></trkpt><trkpt lat="45.7348937" lon="9.3530889"><ele>486.4</ele><time>2026-04-05T11:20:36.713Z</time></trkpt><trkpt lat="45.7347832" lon="9.3530592"><ele>485.0</ele><time>2026-04-05T11:20:38.712Z</time></trkpt><trkpt lat="45.7346767" lon="9.3530334"><ele>485.0</ele><time>2026-04-05T11:20:41.713Z</time></trkpt><trkpt lat="45.7345643" lon="9.3529994"><ele>485.0</ele><time>2026-04-05T11:20:43.712Z</time></trkpt><trkpt lat="45.7344793" lon="9.3529537"><ele>485.0</ele><time>2026-04-05T11:20:45.713Z</time></trkpt><trkpt lat="45.7344067" lon="9.3529072"><ele>485.0</ele><time>2026-04-05T11:20:47.713Z</time></trkpt><trkpt lat="45.7342873" lon="9.3528837"><ele>485.0</ele><time>2026-04-05T11:20:49.713Z</time></trkpt><trkpt lat="45.7342116" lon="9.352881"><ele>484.6</ele><time>2026-04-05T11:20:50.713Z</time></trkpt><trkpt lat="45.7341208" lon="9.3528363"><ele>484.2</ele><time>2026-04-05T11:20:52.713Z</time></trkpt><trkpt lat="45.733974" lon="9.3528696"><ele>483.79999999999995</ele><time>2026-04-05T11:20:59.712Z</time></trkpt><trkpt lat="45.7338865" lon="9.3528943"><ele>483.4</ele><time>2026-04-05T11:21:01.712Z</time></trkpt><trkpt lat="45.7337954" lon="9.3529233"><ele>483.0</ele><time>2026-04-05T11:21:04.712Z</time></trkpt><trkpt lat="45.7337369" lon="9.3529768"><ele>483.0</ele><time>2026-04-05T11:21:06.713Z</time></trkpt><trkpt lat="45.7336416" lon="9.3530374"><ele>483.0</ele><time>2026-04-05T11:21:08.713Z</time></trkpt><trkpt lat="45.7335753" lon="9.3530921"><ele>483.0</ele><time>2026-04-05T11:21:09.713Z</time></trkpt><trkpt lat="45.7334831" lon="9.3531826"><ele>483.0</ele><time>2026-04-05T11:21:11.713Z</time></trkpt><trkpt lat="45.7334118" lon="9.3532446"><ele>483.0</ele><time>2026-04-05T11:21:13.713Z</time></trkpt><trkpt lat="45.7333562" lon="9.3533047"><ele>483.0</ele><time>2026-04-05T11:21:16.713Z</time></trkpt><trkpt lat="45.7332974" lon="9.3533857"><ele>478.59999999999997</ele><time>2026-04-05T11:21:19.713Z</time></trkpt><trkpt lat="45.7332251" lon="9.353496"><ele>474.19999999999993</ele><time>2026-04-05T11:21:21.713Z</time></trkpt><trkpt lat="45.7331452" lon="9.3536152"><ele>469.8</ele><time>2026-04-05T11:21:23.713Z</time></trkpt><trkpt lat="45.7331064" lon="9.353737"><ele>465.4</ele><time>2026-04-05T11:21:25.713Z</time></trkpt><trkpt lat="45.7330711" lon="9.3538441"><ele>461.0</ele><time>2026-04-05T11:21:27.712Z</time></trkpt><trkpt lat="45.7330469" lon="9.3539334"><ele>459.0</ele><time>2026-04-05T11:21:29.713Z</time></trkpt><trkpt lat="45.7330891" lon="9.3540539"><ele>457.0</ele><time>2026-04-05T11:21:31.713Z</time></trkpt><trkpt lat="45.7330682" lon="9.3541939"><ele>455.0</ele><time>2026-04-05T11:21:33.712Z</time></trkpt><trkpt lat="45.7330228" lon="9.3543224"><ele>453.0</ele><time>2026-04-05T11:21:35.713Z</time></trkpt><trkpt lat="45.7329528" lon="9.354425"><ele>451.0</ele><time>2026-04-05T11:21:37.712Z</time></trkpt><trkpt lat="45.7328765" lon="9.3544956"><ele>451.00000000000006</ele><time>2026-04-05T11:21:39.713Z</time></trkpt><trkpt lat="45.7328238" lon="9.3546091"><ele>451.0</ele><time>2026-04-05T11:21:41.712Z</time></trkpt><trkpt lat="45.7327932" lon="9.35473"><ele>451.0</ele><time>2026-04-05T11:21:43.713Z</time></trkpt><trkpt lat="45.7327457" lon="9.3548135"><ele>451.0</ele><time>2026-04-05T11:21:51.713Z</time></trkpt><trkpt lat="45.7326763" lon="9.3547481"><ele>451.00000000000006</ele><time>2026-04-05T11:21:55.713Z</time></trkpt><trkpt lat="45.7326221" lon="9.3546981"><ele>451.0</ele><time>2026-04-05T11:21:57.713Z</time></trkpt><trkpt lat="45.7325611" lon="9.3546513"><ele>449.4</ele><time>2026-04-05T11:21:59.713Z</time></trkpt><trkpt lat="45.7324621" lon="9.3546424"><ele>447.8</ele><time>2026-04-05T11:22:01.713Z</time></trkpt><trkpt lat="45.7323792" lon="9.3545315"><ele>446.19999999999993</ele><time>2026-04-05T11:22:03.713Z</time></trkpt><trkpt lat="45.732315" lon="9.3544974"><ele>444.59999999999997</ele><time>2026-04-05T11:22:05.712Z</time></trkpt><trkpt lat="45.7322227" lon="9.3545255"><ele>443.0</ele><time>2026-04-05T11:22:07.713Z</time></trkpt><trkpt lat="45.7321539" lon="9.3545781"><ele>443.0</ele><time>2026-04-05T11:22:08.713Z</time></trkpt><trkpt lat="45.7320943" lon="9.3546316"><ele>442.99999999999994</ele><time>2026-04-05T11:22:09.713Z</time></trkpt><trkpt lat="45.7320301" lon="9.3548039"><ele>442.99999999999994</ele><time>2026-04-05T11:22:11.713Z</time></trkpt><trkpt lat="45.7319941" lon="9.3548822"><ele>443.0</ele><time>2026-04-05T11:22:12.713Z</time></trkpt><trkpt lat="45.7318784" lon="9.354912"><ele>443.0</ele><time>2026-04-05T11:22:14.713Z</time></trkpt><trkpt lat="45.7317583" lon="9.3548957"><ele>441.8333333333333</ele><time>2026-04-05T11:22:16.713Z</time></trkpt><trkpt lat="45.7316769" lon="9.3548683"><ele>440.66666666666663</ele><time>2026-04-05T11:22:17.713Z</time></trkpt><trkpt lat="45.7315857" lon="9.3548518"><ele>439.5</ele><time>2026-04-05T11:22:18.713Z</time></trkpt><trkpt lat="45.7315126" lon="9.3547948"><ele>438.33333333333337</ele><time>2026-04-05T11:22:19.713Z</time></trkpt><trkpt lat="45.731453" lon="9.3547571"><ele>437.1666666666667</ele><time>2026-04-05T11:22:20.712Z</time></trkpt><trkpt lat="45.7313877" lon="9.3547352"><ele>436.0</ele><time>2026-04-05T11:22:21.713Z</time></trkpt><trkpt lat="45.7312598" lon="9.3546756"><ele>436.0</ele><time>2026-04-05T11:22:23.712Z</time></trkpt><trkpt lat="45.7311902" lon="9.3546385"><ele>436.0</ele><time>2026-04-05T11:22:24.713Z</time></trkpt><trkpt lat="45.7310688" lon="9.3547212"><ele>436.0</ele><time>2026-04-05T11:22:26.712Z</time></trkpt><trkpt lat="45.7310099" lon="9.3547778"><ele>436.0</ele><time>2026-04-05T11:22:27.713Z</time></trkpt><trkpt lat="45.7309635" lon="9.3549224"><ele>436.0</ele><time>2026-04-05T11:22:29.713Z</time></trkpt><trkpt lat="45.7309187" lon="9.3549964"><ele>436.6</ele><time>2026-04-05T11:22:30.713Z</time></trkpt><trkpt lat="45.7308805" lon="9.3550708"><ele>437.20000000000005</ele><time>2026-04-05T11:22:31.713Z</time></trkpt><trkpt lat="45.7308266" lon="9.3551495"><ele>437.79999999999995</ele><time>2026-04-05T11:22:32.712Z</time></trkpt><trkpt lat="45.7307653" lon="9.3552307"><ele>438.4</ele><time>2026-04-05T11:22:33.713Z</time></trkpt><trkpt lat="45.73067" lon="9.3553323"><ele>439.0</ele><time>2026-04-05T11:22:35.713Z</time></trkpt><trkpt lat="45.7305854" lon="9.3554667"><ele>440.2</ele><time>2026-04-05T11:22:37.713Z</time></trkpt><trkpt lat="45.7304879" lon="9.355585"><ele>441.4</ele><time>2026-04-05T11:22:39.713Z</time></trkpt><trkpt lat="45.7303878" lon="9.3557111"><ele>442.6</ele><time>2026-04-05T11:22:41.713Z</time></trkpt><trkpt lat="45.7303213" lon="9.3558337"><ele>443.8</ele><time>2026-04-05T11:22:43.713Z</time></trkpt><trkpt lat="45.7302705" lon="9.3559027"><ele>445.0</ele><time>2026-04-05T11:22:44.713Z</time></trkpt><trkpt lat="45.7301977" lon="9.3559707"><ele>445.00000000000006</ele><time>2026-04-05T11:22:46.713Z</time></trkpt><trkpt lat="45.7301413" lon="9.3560195"><ele>445.0</ele><time>2026-04-05T11:22:47.712Z</time></trkpt><trkpt lat="45.7300622" lon="9.3560789"><ele>445.0</ele><time>2026-04-05T11:22:49.713Z</time></trkpt><trkpt lat="45.7299867" lon="9.3561452"><ele>445.0</ele><time>2026-04-05T11:22:51.712Z</time></trkpt><trkpt lat="45.7299174" lon="9.3562418"><ele>445.00000000000006</ele><time>2026-04-05T11:22:53.713Z</time></trkpt><trkpt lat="45.7298641" lon="9.3563204"><ele>445.0</ele><time>2026-04-05T11:22:55.712Z</time></trkpt><trkpt lat="45.7297835" lon="9.3564065"><ele>444.33333333333337</ele><time>2026-04-05T11:22:57.712Z</time></trkpt><trkpt lat="45.7297076" lon="9.3564572"><ele>443.6666666666667</ele><time>2026-04-05T11:22:59.713Z</time></trkpt><trkpt lat="45.7296341" lon="9.3564911"><ele>443.0</ele><time>2026-04-05T11:23:01.713Z</time></trkpt><trkpt lat="45.729553" lon="9.3565018"><ele>442.33333333333337</ele><time>2026-04-05T11:23:04.713Z</time></trkpt><trkpt lat="45.7294691" lon="9.3565321"><ele>441.6666666666667</ele><time>2026-04-05T11:23:07.713Z</time></trkpt><trkpt lat="45.7293915" lon="9.3565934"><ele>441.0</ele><time>2026-04-05T11:23:10.713Z</time></trkpt><trkpt lat="45.7293457" lon="9.3566618"><ele>441.0</ele><time>2026-04-05T11:23:12.712Z</time></trkpt><trkpt lat="45.7293238" lon="9.3567562"><ele>441.0</ele><time>2026-04-05T11:23:17.713Z</time></trkpt><trkpt lat="45.7293014" lon="9.3568556"><ele>441.0</ele><time>2026-04-05T11:23:19.713Z</time></trkpt><trkpt lat="45.7292758" lon="9.3569456"><ele>441.0</ele><time>2026-04-05T11:23:21.714Z</time></trkpt><trkpt lat="45.7291996" lon="9.3572046"><ele>441.0</ele><time>2026-04-05T11:23:23.713Z</time></trkpt><trkpt lat="45.7291599" lon="9.3572918"><ele>440.20000000000005</ele><time>2026-04-05T11:23:25.713Z</time></trkpt><trkpt lat="45.7291247" lon="9.3573729"><ele>439.40000000000003</ele><time>2026-04-05T11:23:27.713Z</time></trkpt><trkpt lat="45.7290673" lon="9.3574918"><ele>438.6</ele><time>2026-04-05T11:23:29.713Z</time></trkpt><trkpt lat="45.7290103" lon="9.3575483"><ele>437.8</ele><time>2026-04-05T11:23:30.713Z</time></trkpt><trkpt lat="45.7289341" lon="9.357667"><ele>437.0</ele><time>2026-04-05T11:23:32.713Z</time></trkpt><trkpt lat="45.728851" lon="9.3577926"><ele>436.99999999999994</ele><time>2026-04-05T11:23:34.713Z</time></trkpt><trkpt lat="45.7287626" lon="9.3579172"><ele>437.0</ele><time>2026-04-05T11:23:36.713Z</time></trkpt><trkpt lat="45.7287143" lon="9.3579776"><ele>437.0</ele><time>2026-04-05T11:23:37.713Z</time></trkpt><trkpt lat="45.7286607" lon="9.3580395"><ele>437.0</ele><time>2026-04-05T11:23:38.713Z</time></trkpt><trkpt lat="45.7286099" lon="9.3580993"><ele>436.99999999999994</ele><time>2026-04-05T11:23:39.713Z</time></trkpt><trkpt lat="45.7285311" lon="9.35822"><ele>437.0</ele><time>2026-04-05T11:23:41.713Z</time></trkpt><trkpt lat="45.7284532" lon="9.3583631"><ele>437.20000000000005</ele><time>2026-04-05T11:23:43.713Z</time></trkpt><trkpt lat="45.7283773" lon="9.3584701"><ele>437.40000000000003</ele><time>2026-04-05T11:23:45.713Z</time></trkpt><trkpt lat="45.7283386" lon="9.3585934"><ele>437.59999999999997</ele><time>2026-04-05T11:23:47.713Z</time></trkpt><trkpt lat="45.7283393" lon="9.3587079"><ele>437.79999999999995</ele><time>2026-04-05T11:23:49.713Z</time></trkpt><trkpt lat="45.7283708" lon="9.3588394"><ele>438.0</ele><time>2026-04-05T11:23:51.713Z</time></trkpt><trkpt lat="45.7283914" lon="9.3589889"><ele>438.4</ele><time>2026-04-05T11:23:54.713Z</time></trkpt><trkpt lat="45.72843" lon="9.3591201"><ele>438.79999999999995</ele><time>2026-04-05T11:23:56.713Z</time></trkpt><trkpt lat="45.7284803" lon="9.3592672"><ele>439.2</ele><time>2026-04-05T11:23:58.713Z</time></trkpt><trkpt lat="45.7285366" lon="9.3593975"><ele>439.6</ele><time>2026-04-05T11:24:00.713Z</time></trkpt><trkpt lat="45.7285559" lon="9.3594898"><ele>440.0</ele><time>2026-04-05T11:24:01.713Z</time></trkpt><trkpt lat="45.7285907" lon="9.3596106"><ele>438.8</ele><time>2026-04-05T11:24:03.713Z</time></trkpt><trkpt lat="45.7286293" lon="9.3597672"><ele>437.6</ele><time>2026-04-05T11:24:05.713Z</time></trkpt><trkpt lat="45.7286485" lon="9.3598832"><ele>436.4</ele><time>2026-04-05T11:24:07.713Z</time></trkpt><trkpt lat="45.7286771" lon="9.360002"><ele>435.2</ele><time>2026-04-05T11:24:09.713Z</time></trkpt><trkpt lat="45.7287149" lon="9.360117"><ele>434.0</ele><time>2026-04-05T11:24:11.712Z</time></trkpt><trkpt lat="45.7287145" lon="9.3602406"><ele>433.99999999999994</ele><time>2026-04-05T11:24:14.713Z</time></trkpt><trkpt lat="45.7286755" lon="9.3603763"><ele>434.0</ele><time>2026-04-05T11:24:17.713Z</time></trkpt><trkpt lat="45.7286736" lon="9.36049"><ele>434.0</ele><time>2026-04-05T11:24:19.712Z</time></trkpt><trkpt lat="45.7286594" lon="9.3606232"><ele>434.0</ele><time>2026-04-05T11:24:21.713Z</time></trkpt><trkpt lat="45.7286516" lon="9.3607319"><ele>433.99999999999994</ele><time>2026-04-05T11:24:23.713Z</time></trkpt><trkpt lat="45.7286162" lon="9.3608432"><ele>434.0</ele><time>2026-04-05T11:24:25.713Z</time></trkpt><trkpt lat="45.7285787" lon="9.3609614"><ele>434.0</ele><time>2026-04-05T11:24:27.713Z</time></trkpt><trkpt lat="45.7285518" lon="9.3610758"><ele>434.0</ele><time>2026-04-05T11:24:29.712Z</time></trkpt><trkpt lat="45.7285439" lon="9.3612171"><ele>434.0</ele><time>2026-04-05T11:24:31.713Z</time></trkpt><trkpt lat="45.7285626" lon="9.3613651"><ele>434.0</ele><time>2026-04-05T11:24:33.713Z</time></trkpt><trkpt lat="45.7285759" lon="9.3615231"><ele>434.0</ele><time>2026-04-05T11:24:35.713Z</time></trkpt><trkpt lat="45.7285658" lon="9.3616278"><ele>436.2</ele><time>2026-04-05T11:24:36.712Z</time></trkpt><trkpt lat="45.7286048" lon="9.3617849"><ele>438.4</ele><time>2026-04-05T11:24:38.712Z</time></trkpt><trkpt lat="45.7285863" lon="9.3619002"><ele>440.6</ele><time>2026-04-05T11:24:40.712Z</time></trkpt><trkpt lat="45.7285766" lon="9.362027"><ele>442.8</ele><time>2026-04-05T11:24:42.712Z</time></trkpt><trkpt lat="45.7285793" lon="9.3621796"><ele>445.0</ele><time>2026-04-05T11:24:44.712Z</time></trkpt><trkpt lat="45.728606" lon="9.3623338"><ele>445.0</ele><time>2026-04-05T11:24:46.712Z</time></trkpt><trkpt lat="45.7285993" lon="9.3624742"><ele>445.0</ele><time>2026-04-05T11:24:48.713Z</time></trkpt><trkpt lat="45.7285536" lon="9.3626202"><ele>445.0</ele><time>2026-04-05T11:24:50.712Z</time></trkpt><trkpt lat="45.7285096" lon="9.3627756"><ele>445.0</ele><time>2026-04-05T11:24:52.713Z</time></trkpt><trkpt lat="45.728458" lon="9.3629208"><ele>445.0</ele><time>2026-04-05T11:24:54.713Z</time></trkpt><trkpt lat="45.728416" lon="9.3630841"><ele>436.2</ele><time>2026-04-05T11:24:56.713Z</time></trkpt><trkpt lat="45.7283926" lon="9.363175"><ele>427.4</ele><time>2026-04-05T11:24:57.713Z</time></trkpt><trkpt lat="45.7283666" lon="9.3632664"><ele>418.6</ele><time>2026-04-05T11:24:58.713Z</time></trkpt><trkpt lat="45.7283514" lon="9.3634361"><ele>409.8</ele><time>2026-04-05T11:25:00.713Z</time></trkpt><trkpt lat="45.7283384" lon="9.3635544"><ele>401.0</ele><time>2026-04-05T11:25:02.911Z</time></trkpt><trkpt lat="45.7282785" lon="9.3637854"><ele>400.6</ele><time>2026-04-05T11:25:05.714Z</time></trkpt><trkpt lat="45.7282421" lon="9.3638737"><ele>400.20000000000005</ele><time>2026-04-05T11:25:06.712Z</time></trkpt><trkpt lat="45.7281718" lon="9.3640324"><ele>399.79999999999995</ele><time>2026-04-05T11:25:08.713Z</time></trkpt><trkpt lat="45.7281519" lon="9.3642162"><ele>399.4</ele><time>2026-04-05T11:25:10.709Z</time></trkpt><trkpt lat="45.7281382" lon="9.3643405"><ele>399.0</ele><time>2026-04-05T11:25:11.709Z</time></trkpt><trkpt lat="45.7281079" lon="9.3644527"><ele>399.0</ele><time>2026-04-05T11:25:12.708Z</time></trkpt><trkpt lat="45.7280821" lon="9.3645603"><ele>399.0</ele><time>2026-04-05T11:25:13.709Z</time></trkpt><trkpt lat="45.7280506" lon="9.3646504"><ele>399.0</ele><time>2026-04-05T11:25:14.709Z</time></trkpt><trkpt lat="45.7280085" lon="9.3647363"><ele>399.0</ele><time>2026-04-05T11:25:15.709Z</time></trkpt><trkpt lat="45.7279481" lon="9.3647957"><ele>399.0</ele><time>2026-04-05T11:25:16.709Z</time></trkpt><trkpt lat="45.7279235" lon="9.3648907"><ele>399.0</ele><time>2026-04-05T11:25:17.708Z</time></trkpt><trkpt lat="45.7278959" lon="9.3649721"><ele>399.0</ele><time>2026-04-05T11:25:18.709Z</time></trkpt><trkpt lat="45.7278183" lon="9.3651026"><ele>399.79999999999995</ele><time>2026-04-05T11:25:20.709Z</time></trkpt><trkpt lat="45.7277507" lon="9.3652141"><ele>400.59999999999997</ele><time>2026-04-05T11:25:22.709Z</time></trkpt><trkpt lat="45.7276938" lon="9.3653179"><ele>401.4</ele><time>2026-04-05T11:25:24.709Z</time></trkpt><trkpt lat="45.7276515" lon="9.3654461"><ele>402.2</ele><time>2026-04-05T11:25:26.709Z</time></trkpt><trkpt lat="45.7276242" lon="9.3655713"><ele>403.0</ele><time>2026-04-05T11:25:28.709Z</time></trkpt><trkpt lat="45.7275911" lon="9.3656649"><ele>399.6666666666667</ele><time>2026-04-05T11:25:30.709Z</time></trkpt><trkpt lat="45.7275941" lon="9.3657586"><ele>396.33333333333337</ele><time>2026-04-05T11:25:31.709Z</time></trkpt><trkpt lat="45.7275508" lon="9.3658398"><ele>393.0</ele><time>2026-04-05T11:25:33.709Z</time></trkpt><trkpt lat="45.7275451" lon="9.3660185"><ele>389.6666666666667</ele><time>2026-04-05T11:25:35.709Z</time></trkpt><trkpt lat="45.7275671" lon="9.3661368"><ele>386.33333333333337</ele><time>2026-04-05T11:25:36.709Z</time></trkpt><trkpt lat="45.7275449" lon="9.3662627"><ele>383.0</ele><time>2026-04-05T11:25:37.709Z</time></trkpt><trkpt lat="45.727568" lon="9.3664573"><ele>383.0</ele><time>2026-04-05T11:25:39.709Z</time></trkpt><trkpt lat="45.7275854" lon="9.3665558"><ele>383.0</ele><time>2026-04-05T11:25:40.709Z</time></trkpt><trkpt lat="45.7276051" lon="9.3666619"><ele>383.0</ele><time>2026-04-05T11:25:41.709Z</time></trkpt><trkpt lat="45.7276211" lon="9.3667714"><ele>383.0</ele><time>2026-04-05T11:25:42.708Z</time></trkpt><trkpt lat="45.7276131" lon="9.3669601"><ele>383.0</ele><time>2026-04-05T11:25:44.709Z</time></trkpt><trkpt lat="45.7275584" lon="9.3670237"><ele>383.0</ele><time>2026-04-05T11:25:45.709Z</time></trkpt><trkpt lat="45.7274851" lon="9.3671181"><ele>385.33333333333337</ele><time>2026-04-05T11:25:47.709Z</time></trkpt><trkpt lat="45.7274318" lon="9.3672052"><ele>387.6666666666667</ele><time>2026-04-05T11:25:49.709Z</time></trkpt><trkpt lat="45.7273378" lon="9.3672128"><ele>390.0</ele><time>2026-04-05T11:25:51.709Z</time></trkpt><trkpt lat="45.7272645" lon="9.3672396"><ele>392.33333333333337</ele><time>2026-04-05T11:25:53.709Z</time></trkpt><trkpt lat="45.7271864" lon="9.3672914"><ele>394.6666666666667</ele><time>2026-04-05T11:25:55.709Z</time></trkpt><trkpt lat="45.7271298" lon="9.3673373"><ele>397.0</ele><time>2026-04-05T11:25:56.709Z</time></trkpt><trkpt lat="45.727025" lon="9.3674018"><ele>397.0</ele><time>2026-04-05T11:25:58.709Z</time></trkpt><trkpt lat="45.7269241" lon="9.3674747"><ele>397.0</ele><time>2026-04-05T11:26:00.708Z</time></trkpt><trkpt lat="45.7268566" lon="9.3676121"><ele>397.0</ele><time>2026-04-05T11:26:02.709Z</time></trkpt><trkpt lat="45.726769" lon="9.367725"><ele>397.0</ele><time>2026-04-05T11:26:04.709Z</time></trkpt><trkpt lat="45.7267129" lon="9.3677777"><ele>397.0</ele><time>2026-04-05T11:26:05.709Z</time></trkpt><trkpt lat="45.7266327" lon="9.3678745"><ele>396.00000000000006</ele><time>2026-04-05T11:26:07.709Z</time></trkpt><trkpt lat="45.7265937" lon="9.3679458"><ele>395.0</ele><time>2026-04-05T11:26:08.708Z</time></trkpt><trkpt lat="45.7265342" lon="9.3680327"><ele>394.0</ele><time>2026-04-05T11:26:10.709Z</time></trkpt><trkpt lat="45.7264653" lon="9.3681172"><ele>393.0</ele><time>2026-04-05T11:26:12.709Z</time></trkpt><trkpt lat="45.7263973" lon="9.3682097"><ele>392.00000000000006</ele><time>2026-04-05T11:26:14.708Z</time></trkpt><trkpt lat="45.7263536" lon="9.3682803"><ele>391.0</ele><time>2026-04-05T11:26:16.709Z</time></trkpt><trkpt lat="45.7262858" lon="9.3683932"><ele>391.0</ele><time>2026-04-05T11:26:18.708Z</time></trkpt><trkpt lat="45.726285" lon="9.3685427"><ele>391.0</ele><time>2026-04-05T11:26:20.709Z</time></trkpt><trkpt lat="45.7263339" lon="9.3686693"><ele>391.0</ele><time>2026-04-05T11:26:22.708Z</time></trkpt><trkpt lat="45.7263918" lon="9.368781"><ele>391.0</ele><time>2026-04-05T11:26:24.709Z</time></trkpt><trkpt lat="45.7264598" lon="9.3689042"><ele>391.0</ele><time>2026-04-05T11:26:26.709Z</time></trkpt><trkpt lat="45.7265269" lon="9.3690148"><ele>391.0</ele><time>2026-04-05T11:26:28.708Z</time></trkpt><trkpt lat="45.7265797" lon="9.3691582"><ele>391.0</ele><time>2026-04-05T11:26:30.709Z</time></trkpt><trkpt lat="45.7265894" lon="9.3693178"><ele>391.0</ele><time>2026-04-05T11:26:32.708Z</time></trkpt><trkpt lat="45.7265684" lon="9.3694583"><ele>391.0</ele><time>2026-04-05T11:26:34.709Z</time></trkpt><trkpt lat="45.7265381" lon="9.3696116"><ele>391.0</ele><time>2026-04-05T11:26:36.709Z</time></trkpt><trkpt lat="45.7264842" lon="9.3697389"><ele>391.8</ele><time>2026-04-05T11:26:38.709Z</time></trkpt><trkpt lat="45.7264261" lon="9.3698456"><ele>392.6</ele><time>2026-04-05T11:26:40.709Z</time></trkpt><trkpt lat="45.726354" lon="9.3699674"><ele>393.4</ele><time>2026-04-05T11:26:42.709Z</time></trkpt><trkpt lat="45.7262937" lon="9.370111"><ele>394.2</ele><time>2026-04-05T11:26:44.709Z</time></trkpt><trkpt lat="45.7262433" lon="9.3702415"><ele>395.0</ele><time>2026-04-05T11:26:46.709Z</time></trkpt><trkpt lat="45.7261722" lon="9.3703599"><ele>395.0</ele><time>2026-04-05T11:26:48.708Z</time></trkpt><trkpt lat="45.7260797" lon="9.3704457"><ele>395.0</ele><time>2026-04-05T11:26:50.709Z</time></trkpt><trkpt lat="45.7259766" lon="9.370477"><ele>395.0</ele><time>2026-04-05T11:26:52.709Z</time></trkpt><trkpt lat="45.7258921" lon="9.3705079"><ele>395.0</ele><time>2026-04-05T11:26:54.709Z</time></trkpt><trkpt lat="45.7258268" lon="9.3705264"><ele>395.0</ele><time>2026-04-05T11:26:55.709Z</time></trkpt><trkpt lat="45.7257144" lon="9.3705507"><ele>394.2</ele><time>2026-04-05T11:26:57.708Z</time></trkpt><trkpt lat="45.7256182" lon="9.3705806"><ele>393.4</ele><time>2026-04-05T11:26:59.709Z</time></trkpt><trkpt lat="45.7255521" lon="9.3705767"><ele>392.6</ele><time>2026-04-05T11:27:01.709Z</time></trkpt><trkpt lat="45.7254972" lon="9.3706342"><ele>391.8</ele><time>2026-04-05T11:27:02.709Z</time></trkpt><trkpt lat="45.7253929" lon="9.3707055"><ele>391.0</ele><time>2026-04-05T11:27:04.709Z</time></trkpt><trkpt lat="45.7252991" lon="9.3708097"><ele>391.00000000000006</ele><time>2026-04-05T11:27:06.709Z</time></trkpt><trkpt lat="45.7252694" lon="9.3708932"><ele>391.0</ele><time>2026-04-05T11:27:10.709Z</time></trkpt><trkpt lat="45.7253402" lon="9.370832"><ele>391.0</ele><time>2026-04-05T11:29:45.708Z</time></trkpt><trkpt lat="45.7252978" lon="9.3709251"><ele>391.0</ele><time>2026-04-05T11:30:08.708Z</time></trkpt><trkpt lat="45.7253125" lon="9.3710629"><ele>391.00000000000006</ele><time>2026-04-05T11:30:10.709Z</time></trkpt><trkpt lat="45.7253218" lon="9.3712013"><ele>391.0</ele><time>2026-04-05T11:30:12.708Z</time></trkpt><trkpt lat="45.725343" lon="9.3713148"><ele>392.4</ele><time>2026-04-05T11:30:14.709Z</time></trkpt><trkpt lat="45.7253684" lon="9.371452"><ele>393.8</ele><time>2026-04-05T11:30:16.708Z</time></trkpt><trkpt lat="45.7253835" lon="9.3715522"><ele>395.2</ele><time>2026-04-05T11:30:17.709Z</time></trkpt><trkpt lat="45.7254106" lon="9.3716757"><ele>396.59999999999997</ele><time>2026-04-05T11:30:19.708Z</time></trkpt><trkpt lat="45.7254373" lon="9.3718311"><ele>398.0</ele><time>2026-04-05T11:30:21.709Z</time></trkpt><trkpt lat="45.725448" lon="9.3719798"><ele>398.0</ele><time>2026-04-05T11:30:23.709Z</time></trkpt><trkpt lat="45.7254441" lon="9.3721284"><ele>398.0</ele><time>2026-04-05T11:30:25.709Z</time></trkpt><trkpt lat="45.725384" lon="9.3722531"><ele>398.0</ele><time>2026-04-05T11:30:27.708Z</time></trkpt><trkpt lat="45.7253149" lon="9.3723623"><ele>398.0</ele><time>2026-04-05T11:30:29.709Z</time></trkpt><trkpt lat="45.7252412" lon="9.3724567"><ele>398.0</ele><time>2026-04-05T11:30:31.709Z</time></trkpt><trkpt lat="45.7251762" lon="9.372556"><ele>396.0</ele><time>2026-04-05T11:30:33.709Z</time></trkpt><trkpt lat="45.7251091" lon="9.3726411"><ele>394.0</ele><time>2026-04-05T11:30:35.709Z</time></trkpt><trkpt lat="45.7250396" lon="9.3727468"><ele>392.0</ele><time>2026-04-05T11:30:37.709Z</time></trkpt><trkpt lat="45.7249572" lon="9.3728598"><ele>390.0</ele><time>2026-04-05T11:30:39.709Z</time></trkpt><trkpt lat="45.7248763" lon="9.372968"><ele>388.0</ele><time>2026-04-05T11:30:41.709Z</time></trkpt><trkpt lat="45.7247984" lon="9.3730465"><ele>388.00000000000006</ele><time>2026-04-05T11:30:43.709Z</time></trkpt><trkpt lat="45.7247065" lon="9.3730889"><ele>388.0</ele><time>2026-04-05T11:30:45.709Z</time></trkpt><trkpt lat="45.7245961" lon="9.373124"><ele>388.0</ele><time>2026-04-05T11:30:47.709Z</time></trkpt><trkpt lat="45.7245304" lon="9.3731467"><ele>388.0</ele><time>2026-04-05T11:30:48.709Z</time></trkpt><trkpt lat="45.7244656" lon="9.3731597"><ele>388.00000000000006</ele><time>2026-04-05T11:30:49.708Z</time></trkpt><trkpt lat="45.7243939" lon="9.373164"><ele>388.0</ele><time>2026-04-05T11:30:50.708Z</time></trkpt><trkpt lat="45.7242891" lon="9.3731442"><ele>386.79999999999995</ele><time>2026-04-05T11:30:52.709Z</time></trkpt><trkpt lat="45.7241923" lon="9.3730852"><ele>385.6</ele><time>2026-04-05T11:30:54.708Z</time></trkpt><trkpt lat="45.7240961" lon="9.3729946"><ele>384.4</ele><time>2026-04-05T11:30:56.708Z</time></trkpt><trkpt lat="45.7239973" lon="9.3729018"><ele>383.20000000000005</ele><time>2026-04-05T11:30:58.708Z</time></trkpt><trkpt lat="45.7239345" lon="9.372867"><ele>382.0</ele><time>2026-04-05T11:30:59.709Z</time></trkpt><trkpt lat="45.7238568" lon="9.372835"><ele>379.16666666666663</ele><time>2026-04-05T11:31:00.708Z</time></trkpt><trkpt lat="45.7237898" lon="9.3728093"><ele>376.3333333333333</ele><time>2026-04-05T11:31:01.708Z</time></trkpt><trkpt lat="45.7237209" lon="9.3727884"><ele>373.5</ele><time>2026-04-05T11:31:02.709Z</time></trkpt><trkpt lat="45.7236515" lon="9.3727769"><ele>370.6666666666667</ele><time>2026-04-05T11:31:03.709Z</time></trkpt><trkpt lat="45.7235425" lon="9.3727745"><ele>367.83333333333337</ele><time>2026-04-05T11:31:05.709Z</time></trkpt><trkpt lat="45.7234643" lon="9.3728279"><ele>365.0</ele><time>2026-04-05T11:31:07.708Z</time></trkpt><trkpt lat="45.7234328" lon="9.372961"><ele>365.0</ele><time>2026-04-05T11:31:09.709Z</time></trkpt><trkpt lat="45.7234023" lon="9.3730576"><ele>365.0</ele><time>2026-04-05T11:31:11.709Z</time></trkpt><trkpt lat="45.7233425" lon="9.372969"><ele>365.0</ele><time>2026-04-05T11:31:14.709Z</time></trkpt><trkpt lat="45.7233242" lon="9.372862"><ele>365.0</ele><time>2026-04-05T11:31:16.709Z</time></trkpt><trkpt lat="45.7232945" lon="9.3727754"><ele>365.0</ele><time>2026-04-05T11:31:18.709Z</time></trkpt><trkpt lat="45.7232624" lon="9.3726831"><ele>365.0</ele><time>2026-04-05T11:31:19.708Z</time></trkpt><trkpt lat="45.7232199" lon="9.3725153"><ele>364.83333333333337</ele><time>2026-04-05T11:31:21.709Z</time></trkpt><trkpt lat="45.7231627" lon="9.3723156"><ele>364.6666666666667</ele><time>2026-04-05T11:31:23.709Z</time></trkpt><trkpt lat="45.7231339" lon="9.3722192"><ele>364.5</ele><time>2026-04-05T11:31:24.709Z</time></trkpt><trkpt lat="45.7231002" lon="9.3721262"><ele>364.3333333333333</ele><time>2026-04-05T11:31:25.709Z</time></trkpt><trkpt lat="45.7230609" lon="9.372033"><ele>364.16666666666663</ele><time>2026-04-05T11:31:26.709Z</time></trkpt><trkpt lat="45.7230262" lon="9.3719566"><ele>364.0</ele><time>2026-04-05T11:31:27.709Z</time></trkpt><trkpt lat="45.7229806" lon="9.3718862"><ele>361.79999999999995</ele><time>2026-04-05T11:31:28.709Z</time></trkpt><trkpt lat="45.7228829" lon="9.3717606"><ele>359.59999999999997</ele><time>2026-04-05T11:31:30.709Z</time></trkpt><trkpt lat="45.7228282" lon="9.3716903"><ele>357.4</ele><time>2026-04-05T11:31:31.709Z</time></trkpt><trkpt lat="45.7227287" lon="9.3715837"><ele>355.2</ele><time>2026-04-05T11:31:33.709Z</time></trkpt><trkpt lat="45.7226181" lon="9.3715275"><ele>353.0</ele><time>2026-04-05T11:31:35.709Z</time></trkpt><trkpt lat="45.7224903" lon="9.3714974"><ele>352.4</ele><time>2026-04-05T11:31:37.709Z</time></trkpt><trkpt lat="45.722371" lon="9.3714967"><ele>351.79999999999995</ele><time>2026-04-05T11:31:39.709Z</time></trkpt><trkpt lat="45.7222829" lon="9.3715513"><ele>351.2</ele><time>2026-04-05T11:31:41.709Z</time></trkpt><trkpt lat="45.7222071" lon="9.3715958"><ele>350.6</ele><time>2026-04-05T11:31:43.709Z</time></trkpt><trkpt lat="45.7221354" lon="9.3716936"><ele>350.0</ele><time>2026-04-05T11:31:45.709Z</time></trkpt><trkpt lat="45.7221416" lon="9.3717932"><ele>350.0</ele><time>2026-04-05T11:31:46.709Z</time></trkpt><trkpt lat="45.722141" lon="9.3718894"><ele>350.0</ele><time>2026-04-05T11:31:47.709Z</time></trkpt><trkpt lat="45.722157" lon="9.3719812"><ele>350.0</ele><time>2026-04-05T11:31:48.708Z</time></trkpt><trkpt lat="45.7232945" lon="9.3727754"><ele>350.6</ele><time>2026-04-05T11:31:18.709Z</time></trkpt><trkpt lat="45.7232624" lon="9.3726831"><ele>351.2</ele><time>2026-04-05T11:31:19.708Z</time></trkpt><trkpt lat="45.7232199" lon="9.3725153"><ele>351.79999999999995</ele><time>2026-04-05T11:31:21.709Z</time></trkpt><trkpt lat="45.7231627" lon="9.3723156"><ele>352.4</ele><time>2026-04-05T11:31:23.709Z</time></trkpt><trkpt lat="45.7231339" lon="9.3722192"><ele>353.0</ele><time>2026-04-05T11:31:24.709Z</time></trkpt><trkpt lat="45.7231002" lon="9.3721262"><ele>353.0</ele><time>2026-04-05T11:31:25.709Z</time></trkpt><trkpt lat="45.7230609" lon="9.372033"><ele>353.0</ele><time>2026-04-05T11:31:26.709Z</time></trkpt><trkpt lat="45.7230262" lon="9.3719566"><ele>353.0</ele><time>2026-04-05T11:31:27.709Z</time></trkpt><trkpt lat="45.7229806" lon="9.3718862"><ele>353.0</ele><time>2026-04-05T11:31:28.709Z</time></trkpt><trkpt lat="45.7228829" lon="9.3717606"><ele>353.0</ele><time>2026-04-05T11:31:30.709Z</time></trkpt><trkpt lat="45.7228282" lon="9.3716903"><ele>353.0</ele><time>2026-04-05T11:31:31.709Z</time></trkpt><trkpt lat="45.7227287" lon="9.3715837"><ele>352.25</ele><time>2026-04-05T11:31:33.709Z</time></trkpt><trkpt lat="45.7226181" lon="9.3715275"><ele>351.5</ele><time>2026-04-05T11:31:35.709Z</time></trkpt><trkpt lat="45.7224903" lon="9.3714974"><ele>350.75</ele><time>2026-04-05T11:31:37.709Z</time></trkpt><trkpt lat="45.722371" lon="9.3714967"><ele>350.0</ele><time>2026-04-05T11:31:39.709Z</time></trkpt><trkpt lat="45.7222829" lon="9.3715513"><ele>350.0</ele><time>2026-04-05T11:31:41.709Z</time></trkpt><trkpt lat="45.7222071" lon="9.3715958"><ele>350.0</ele><time>2026-04-05T11:31:43.709Z</time></trkpt><trkpt lat="45.7221354" lon="9.3716936"><ele>350.0</ele><time>2026-04-05T11:31:45.709Z</time></trkpt><trkpt lat="45.7221416" lon="9.3717932"><ele>350.0</ele><time>2026-04-05T11:31:46.709Z</time></trkpt><trkpt lat="45.722141" lon="9.3718894"><ele>350.0</ele><time>2026-04-05T11:31:47.709Z</time></trkpt><trkpt lat="45.722157" lon="9.3719812"><ele>350.0</ele><time>2026-04-05T11:31:48.708Z</time></trkpt><trkpt lat="45.7221923" lon="9.3720686"><ele>350.0</ele><time>2026-04-05T11:31:49.708Z</time></trkpt><trkpt lat="45.7222228" lon="9.3721569"><ele>350.0</ele><time>2026-04-05T11:31:50.709Z</time></trkpt><trkpt lat="45.7222515" lon="9.3722445"><ele>350.0</ele><time>2026-04-05T11:31:51.709Z</time></trkpt><trkpt lat="45.7222793" lon="9.3723306"><ele>350.0</ele><time>2026-04-05T11:31:52.709Z</time></trkpt><trkpt lat="45.7223172" lon="9.3724118"><ele>350.0</ele><time>2026-04-05T11:31:53.709Z</time></trkpt><trkpt lat="45.7223841" lon="9.3725648"><ele>350.0</ele><time>2026-04-05T11:31:55.709Z</time></trkpt><trkpt lat="45.7224211" lon="9.3726698"><ele>349.2</ele><time>2026-04-05T11:31:56.709Z</time></trkpt><trkpt lat="45.7224844" lon="9.3728327"><ele>348.4</ele><time>2026-04-05T11:31:58.709Z</time></trkpt><trkpt lat="45.7225196" lon="9.3729197"><ele>347.6</ele><time>2026-04-05T11:31:59.709Z</time></trkpt><trkpt lat="45.7225525" lon="9.3730144"><ele>346.8</ele><time>2026-04-05T11:32:00.709Z</time></trkpt><trkpt lat="45.7226023" lon="9.373176"><ele>346.0</ele><time>2026-04-05T11:32:02.709Z</time></trkpt><trkpt lat="45.7226209" lon="9.3732679"><ele>345.3333333333333</ele><time>2026-04-05T11:32:03.708Z</time></trkpt><trkpt lat="45.7226367" lon="9.3733679"><ele>344.66666666666663</ele><time>2026-04-05T11:32:04.709Z</time></trkpt><trkpt lat="45.7226383" lon="9.3734772"><ele>344.0</ele><time>2026-04-05T11:32:05.708Z</time></trkpt><trkpt lat="45.722619" lon="9.3735722"><ele>343.3333333333333</ele><time>2026-04-05T11:32:06.709Z</time></trkpt><trkpt lat="45.7225916" lon="9.3736588"><ele>342.6666666666667</ele><time>2026-04-05T11:32:07.709Z</time></trkpt><trkpt lat="45.7225543" lon="9.3737386"><ele>342.0</ele><time>2026-04-05T11:32:08.709Z</time></trkpt><trkpt lat="45.722462" lon="9.3738644"><ele>344.20000000000005</ele><time>2026-04-05T11:32:10.709Z</time></trkpt><trkpt lat="45.7224021" lon="9.3738932"><ele>346.4</ele><time>2026-04-05T11:32:11.709Z</time></trkpt><trkpt lat="45.7222829" lon="9.3739428"><ele>348.6</ele><time>2026-04-05T11:32:13.709Z</time></trkpt><trkpt lat="45.7222195" lon="9.3739503"><ele>350.79999999999995</ele><time>2026-04-05T11:32:14.709Z</time></trkpt><trkpt lat="45.7221088" lon="9.3739667"><ele>353.0</ele><time>2026-04-05T11:32:16.709Z</time></trkpt><trkpt lat="45.7219976" lon="9.3739711"><ele>352.33333333333337</ele><time>2026-04-05T11:32:18.708Z</time></trkpt><trkpt lat="45.7218927" lon="9.3739598"><ele>351.6666666666667</ele><time>2026-04-05T11:32:20.709Z</time></trkpt><trkpt lat="45.7218192" lon="9.3739741"><ele>351.0</ele><time>2026-04-05T11:32:22.709Z</time></trkpt><trkpt lat="45.7217524" lon="9.3740131"><ele>350.3333333333333</ele><time>2026-04-05T11:32:24.708Z</time></trkpt><trkpt lat="45.7216968" lon="9.3740687"><ele>349.66666666666663</ele><time>2026-04-05T11:32:26.709Z</time></trkpt><trkpt lat="45.7216361" lon="9.3741363"><ele>349.0</ele><time>2026-04-05T11:32:28.709Z</time></trkpt><trkpt lat="45.7215817" lon="9.3741997"><ele>349.0</ele><time>2026-04-05T11:32:30.709Z</time></trkpt><trkpt lat="45.7215367" lon="9.3742923"><ele>349.0</ele><time>2026-04-05T11:32:32.708Z</time></trkpt><trkpt lat="45.7214644" lon="9.3743727"><ele>349.0</ele><time>2026-04-05T11:32:34.709Z</time></trkpt><trkpt lat="45.7213989" lon="9.3744504"><ele>349.0</ele><time>2026-04-05T11:32:36.709Z</time></trkpt><trkpt lat="45.721314" lon="9.3745352"><ele>349.0</ele><time>2026-04-05T11:32:38.709Z</time></trkpt><trkpt lat="45.7212393" lon="9.3745964"><ele>349.0</ele><time>2026-04-05T11:32:40.709Z</time></trkpt><trkpt lat="45.7211758" lon="9.3746653"><ele>348.4</ele><time>2026-04-05T11:32:42.709Z</time></trkpt><trkpt lat="45.7211199" lon="9.3747639"><ele>347.79999999999995</ele><time>2026-04-05T11:32:44.709Z</time></trkpt><trkpt lat="45.7210718" lon="9.3748657"><ele>347.20000000000005</ele><time>2026-04-05T11:32:46.709Z</time></trkpt><trkpt lat="45.7210264" lon="9.3749751"><ele>346.6</ele><time>2026-04-05T11:32:48.709Z</time></trkpt><trkpt lat="45.7209471" lon="9.3749753"><ele>346.0</ele><time>2026-04-05T11:32:49.709Z</time></trkpt><trkpt lat="45.7208187" lon="9.3749437"><ele>346.0</ele><time>2026-04-05T11:32:51.709Z</time></trkpt><trkpt lat="45.7207127" lon="9.374909"><ele>346.0</ele><time>2026-04-05T11:32:53.708Z</time></trkpt><trkpt lat="45.7205824" lon="9.3748768"><ele>346.0</ele><time>2026-04-05T11:32:55.709Z</time></trkpt><trkpt lat="45.7205075" lon="9.3748797"><ele>346.0</ele><time>2026-04-05T11:32:56.709Z</time></trkpt><trkpt lat="45.7203574" lon="9.3748722"><ele>346.0</ele><time>2026-04-05T11:32:58.709Z</time></trkpt><trkpt lat="45.7202869" lon="9.3748567"><ele>346.0</ele><time>2026-04-05T11:32:59.709Z</time></trkpt><trkpt lat="45.7202115" lon="9.3748594"><ele>346.0</ele><time>2026-04-05T11:33:00.709Z</time></trkpt><trkpt lat="45.7201424" lon="9.3748673"><ele>346.0</ele><time>2026-04-05T11:33:01.709Z</time></trkpt><trkpt lat="45.7200671" lon="9.3748763"><ele>346.0</ele><time>2026-04-05T11:33:02.709Z</time></trkpt><trkpt lat="45.719981" lon="9.3748997"><ele>346.0</ele><time>2026-04-05T11:33:03.709Z</time></trkpt><trkpt lat="45.7199167" lon="9.3749249"><ele>346.0</ele><time>2026-04-05T11:33:04.709Z</time></trkpt><trkpt lat="45.7198432" lon="9.3749344"><ele>345.0</ele><time>2026-04-05T11:33:05.709Z</time></trkpt><trkpt lat="45.7197622" lon="9.3749472"><ele>344.0</ele><time>2026-04-05T11:33:06.708Z</time></trkpt><trkpt lat="45.7196689" lon="9.3749444"><ele>343.0</ele><time>2026-04-05T11:33:07.709Z</time></trkpt><trkpt lat="45.7195973" lon="9.3749183"><ele>342.0</ele><time>2026-04-05T11:33:08.708Z</time></trkpt><trkpt lat="45.7195193" lon="9.374881"><ele>341.0</ele><time>2026-04-05T11:33:09.708Z</time></trkpt><trkpt lat="45.7194267" lon="9.3748336"><ele>340.0</ele><time>2026-04-05T11:33:10.709Z</time></trkpt><trkpt lat="45.7193368" lon="9.3747803"><ele>338.8</ele><time>2026-04-05T11:33:11.709Z</time></trkpt><trkpt lat="45.7192346" lon="9.3747341"><ele>337.6</ele><time>2026-04-05T11:33:12.709Z</time></trkpt><trkpt lat="45.7191425" lon="9.374697"><ele>336.4</ele><time>2026-04-05T11:33:13.709Z</time></trkpt><trkpt lat="45.7190582" lon="9.3746312"><ele>335.2</ele><time>2026-04-05T11:33:14.709Z</time></trkpt><trkpt lat="45.7189524" lon="9.3746018"><ele>334.0</ele><time>2026-04-05T11:33:15.709Z</time></trkpt><trkpt lat="45.7188575" lon="9.3745842"><ele>334.0</ele><time>2026-04-05T11:33:16.709Z</time></trkpt><trkpt lat="45.7187686" lon="9.3745517"><ele>334.0</ele><time>2026-04-05T11:33:17.708Z</time></trkpt><trkpt lat="45.7186733" lon="9.3745325"><ele>334.0</ele><time>2026-04-05T11:33:18.709Z</time></trkpt><trkpt lat="45.718577" lon="9.3744985"><ele>334.0</ele><time>2026-04-05T11:33:19.709Z</time></trkpt><trkpt lat="45.7185151" lon="9.3744531"><ele>334.0</ele><time>2026-04-05T11:33:20.709Z</time></trkpt><trkpt lat="45.7184381" lon="9.3744402"><ele>334.0</ele><time>2026-04-05T11:33:21.708Z</time></trkpt><trkpt lat="45.7183303" lon="9.3743631"><ele>330.4</ele><time>2026-04-05T11:33:23.709Z</time></trkpt><trkpt lat="45.7183111" lon="9.3742116"><ele>326.79999999999995</ele><time>2026-04-05T11:33:25.708Z</time></trkpt><trkpt lat="45.7182993" lon="9.3740304"><ele>323.20000000000005</ele><time>2026-04-05T11:33:27.709Z</time></trkpt><trkpt lat="45.7182586" lon="9.373954"><ele>319.6</ele><time>2026-04-05T11:33:28.709Z</time></trkpt><trkpt lat="45.7182023" lon="9.3738964"><ele>316.0</ele><time>2026-04-05T11:33:29.709Z</time></trkpt><trkpt lat="45.7181272" lon="9.373854"><ele>315.66666666666663</ele><time>2026-04-05T11:33:30.709Z</time></trkpt><trkpt lat="45.7180715" lon="9.3737939"><ele>315.3333333333333</ele><time>2026-04-05T11:33:31.708Z</time></trkpt><trkpt lat="45.7180003" lon="9.3737541"><ele>315.0</ele><time>2026-04-05T11:33:32.708Z</time></trkpt><trkpt lat="45.717919" lon="9.3736962"><ele>314.6666666666667</ele><time>2026-04-05T11:33:33.709Z</time></trkpt><trkpt lat="45.7178161" lon="9.3736444"><ele>314.33333333333337</ele><time>2026-04-05T11:33:34.709Z</time></trkpt><trkpt lat="45.7177314" lon="9.373589"><ele>314.0</ele><time>2026-04-05T11:33:35.709Z</time></trkpt><trkpt lat="45.7176357" lon="9.3735274"><ele>311.8</ele><time>2026-04-05T11:33:36.709Z</time></trkpt><trkpt lat="45.717528" lon="9.3734576"><ele>309.59999999999997</ele><time>2026-04-05T11:33:37.709Z</time></trkpt><trkpt lat="45.7174501" lon="9.3733997"><ele>307.4</ele><time>2026-04-05T11:33:38.709Z</time></trkpt><trkpt lat="45.7173644" lon="9.3733352"><ele>305.2</ele><time>2026-04-05T11:33:39.709Z</time></trkpt><trkpt lat="45.7172894" lon="9.373276"><ele>303.0</ele><time>2026-04-05T11:33:40.709Z</time></trkpt><trkpt lat="45.7172091" lon="9.3732305"><ele>303.0</ele><time>2026-04-05T11:33:41.709Z</time></trkpt><trkpt lat="45.7171408" lon="9.3731794"><ele>303.0</ele><time>2026-04-05T11:33:42.708Z</time></trkpt><trkpt lat="45.7170803" lon="9.3731359"><ele>303.0</ele><time>2026-04-05T11:33:43.709Z</time></trkpt><trkpt lat="45.7169801" lon="9.3731501"><ele>303.0</ele><time>2026-04-05T11:33:45.709Z</time></trkpt><trkpt lat="45.7168925" lon="9.373288"><ele>303.0</ele><time>2026-04-05T11:33:47.708Z</time></trkpt><trkpt lat="45.7188575" lon="9.3745842"><ele>305.1666666666667</ele><time>2026-04-05T11:33:16.709Z</time></trkpt><trkpt lat="45.7187686" lon="9.3745517"><ele>307.3333333333333</ele><time>2026-04-05T11:33:17.708Z</time></trkpt><trkpt lat="45.7186733" lon="9.3745325"><ele>309.5</ele><time>2026-04-05T11:33:18.709Z</time></trkpt><trkpt lat="45.718577" lon="9.3744985"><ele>311.66666666666663</ele><time>2026-04-05T11:33:19.709Z</time></trkpt><trkpt lat="45.7185151" lon="9.3744531"><ele>313.8333333333333</ele><time>2026-04-05T11:33:20.709Z</time></trkpt><trkpt lat="45.7184381" lon="9.3744402"><ele>316.0</ele><time>2026-04-05T11:33:21.708Z</time></trkpt><trkpt lat="45.7183303" lon="9.3743631"><ele>316.0</ele><time>2026-04-05T11:33:23.709Z</time></trkpt><trkpt lat="45.7183111" lon="9.3742116"><ele>316.0</ele><time>2026-04-05T11:33:25.708Z</time></trkpt><trkpt lat="45.7182993" lon="9.3740304"><ele>316.0</ele><time>2026-04-05T11:33:27.709Z</time></trkpt><trkpt lat="45.7182586" lon="9.373954"><ele>316.0</ele><time>2026-04-05T11:33:28.709Z</time></trkpt><trkpt lat="45.7182023" lon="9.3738964"><ele>316.0</ele><time>2026-04-05T11:33:29.709Z</time></trkpt><trkpt lat="45.7181272" lon="9.373854"><ele>315.66666666666663</ele><time>2026-04-05T11:33:30.709Z</time></trkpt><trkpt lat="45.7180715" lon="9.3737939"><ele>315.3333333333333</ele><time>2026-04-05T11:33:31.708Z</time></trkpt><trkpt lat="45.7180003" lon="9.3737541"><ele>315.0</ele><time>2026-04-05T11:33:32.708Z</time></trkpt><trkpt lat="45.717919" lon="9.3736962"><ele>314.6666666666667</ele><time>2026-04-05T11:33:33.709Z</time></trkpt><trkpt lat="45.7178161" lon="9.3736444"><ele>314.33333333333337</ele><time>2026-04-05T11:33:34.709Z</time></trkpt><trkpt lat="45.7177314" lon="9.373589"><ele>314.0</ele><time>2026-04-05T11:33:35.709Z</time></trkpt><trkpt lat="45.7176357" lon="9.3735274"><ele>311.8</ele><time>2026-04-05T11:33:36.709Z</time></trkpt><trkpt lat="45.717528" lon="9.3734576"><ele>309.59999999999997</ele><time>2026-04-05T11:33:37.709Z</time></trkpt><trkpt lat="45.7174501" lon="9.3733997"><ele>307.4</ele><time>2026-04-05T11:33:38.709Z</time></trkpt><trkpt lat="45.7173644" lon="9.3733352"><ele>305.2</ele><time>2026-04-05T11:33:39.709Z</time></trkpt><trkpt lat="45.7172894" lon="9.373276"><ele>303.0</ele><time>2026-04-05T11:33:40.709Z</time></trkpt><trkpt lat="45.7172091" lon="9.3732305"><ele>303.0</ele><time>2026-04-05T11:33:41.709Z</time></trkpt><trkpt lat="45.7171408" lon="9.3731794"><ele>303.0</ele><time>2026-04-05T11:33:42.708Z</time></trkpt><trkpt lat="45.7170803" lon="9.3731359"><ele>303.0</ele><time>2026-04-05T11:33:43.709Z</time></trkpt><trkpt lat="45.7169801" lon="9.3731501"><ele>303.0</ele><time>2026-04-05T11:33:45.709Z</time></trkpt><trkpt lat="45.7168925" lon="9.373288"><ele>303.0</ele><time>2026-04-05T11:33:47.708Z</time></trkpt><trkpt lat="45.7168537" lon="9.3733807"><ele>302.0</ele><time>2026-04-05T11:33:48.708Z</time></trkpt><trkpt lat="45.7168219" lon="9.3734739"><ele>301.0</ele><time>2026-04-05T11:33:49.709Z</time></trkpt><trkpt lat="45.7167757" lon="9.3735679"><ele>300.0</ele><time>2026-04-05T11:33:50.709Z</time></trkpt><trkpt lat="45.7167145" lon="9.3736424"><ele>299.0</ele><time>2026-04-05T11:33:51.709Z</time></trkpt><trkpt lat="45.716658" lon="9.3737206"><ele>298.0</ele><time>2026-04-05T11:33:52.709Z</time></trkpt><trkpt lat="45.7165878" lon="9.3737953"><ele>297.0</ele><time>2026-04-05T11:33:53.709Z</time></trkpt><trkpt lat="45.7165234" lon="9.3738392"><ele>297.0</ele><time>2026-04-05T11:33:54.709Z</time></trkpt><trkpt lat="45.7164588" lon="9.3738767"><ele>297.0</ele><time>2026-04-05T11:33:55.709Z</time></trkpt><trkpt lat="45.7163902" lon="9.373915"><ele>297.0</ele><time>2026-04-05T11:33:56.708Z</time></trkpt><trkpt lat="45.7163182" lon="9.3739427"><ele>297.0</ele><time>2026-04-05T11:33:57.708Z</time></trkpt><trkpt lat="45.7162484" lon="9.3739775"><ele>297.0</ele><time>2026-04-05T11:33:58.709Z</time></trkpt><trkpt lat="45.7161797" lon="9.3740119"><ele>297.0</ele><time>2026-04-05T11:33:59.709Z</time></trkpt><trkpt lat="45.716116" lon="9.3740554"><ele>297.0</ele><time>2026-04-05T11:34:00.709Z</time></trkpt><trkpt lat="45.7160519" lon="9.3741002"><ele>296.6666666666667</ele><time>2026-04-05T11:34:01.709Z</time></trkpt><trkpt lat="45.7159947" lon="9.3741479"><ele>296.3333333333333</ele><time>2026-04-05T11:34:02.709Z</time></trkpt><trkpt lat="45.7159328" lon="9.3741904"><ele>296.0</ele><time>2026-04-05T11:34:03.709Z</time></trkpt><trkpt lat="45.7158628" lon="9.3742448"><ele>295.66666666666663</ele><time>2026-04-05T11:34:04.709Z</time></trkpt><trkpt lat="45.7157614" lon="9.3743569"><ele>295.3333333333333</ele><time>2026-04-05T11:34:06.709Z</time></trkpt><trkpt lat="45.7157091" lon="9.3744207"><ele>295.0</ele><time>2026-04-05T11:34:07.709Z</time></trkpt><trkpt lat="45.7156523" lon="9.3744965"><ele>295.00000000000006</ele><time>2026-04-05T11:34:08.709Z</time></trkpt><trkpt lat="45.7156177" lon="9.374574"><ele>295.0</ele><time>2026-04-05T11:34:09.709Z</time></trkpt><trkpt lat="45.715584" lon="9.3746614"><ele>295.0</ele><time>2026-04-05T11:34:10.708Z</time></trkpt><trkpt lat="45.7155561" lon="9.374755"><ele>295.0</ele><time>2026-04-05T11:34:11.708Z</time></trkpt><trkpt lat="45.7155346" lon="9.3748563"><ele>295.0</ele><time>2026-04-05T11:34:12.709Z</time></trkpt><trkpt lat="45.7155067" lon="9.3749631"><ele>295.00000000000006</ele><time>2026-04-05T11:34:13.709Z</time></trkpt><trkpt lat="45.7154814" lon="9.3750662"><ele>295.0</ele><time>2026-04-05T11:34:14.709Z</time></trkpt><trkpt lat="45.7154598" lon="9.3751697"><ele>295.0</ele><time>2026-04-05T11:34:15.709Z</time></trkpt><trkpt lat="45.7154256" lon="9.3752708"><ele>295.0</ele><time>2026-04-05T11:34:16.709Z</time></trkpt><trkpt lat="45.7153977" lon="9.3753717"><ele>295.0</ele><time>2026-04-05T11:34:17.709Z</time></trkpt><trkpt lat="45.715361" lon="9.3754731"><ele>295.0</ele><time>2026-04-05T11:34:18.709Z</time></trkpt><trkpt lat="45.715327" lon="9.3755809"><ele>295.0</ele><time>2026-04-05T11:34:19.709Z</time></trkpt><trkpt lat="45.7152985" lon="9.3756781"><ele>295.0</ele><time>2026-04-05T11:34:20.708Z</time></trkpt><trkpt lat="45.7152668" lon="9.3757746"><ele>294.66666666666663</ele><time>2026-04-05T11:34:21.709Z</time></trkpt><trkpt lat="45.7152361" lon="9.3758782"><ele>294.3333333333333</ele><time>2026-04-05T11:34:22.709Z</time></trkpt><trkpt lat="45.7152076" lon="9.3759687"><ele>294.0</ele><time>2026-04-05T11:34:23.709Z</time></trkpt><trkpt lat="45.7151849" lon="9.3760652"><ele>293.6666666666667</ele><time>2026-04-05T11:34:24.709Z</time></trkpt><trkpt lat="45.7151547" lon="9.3761709"><ele>293.33333333333337</ele><time>2026-04-05T11:34:25.709Z</time></trkpt><trkpt lat="45.7151303" lon="9.3762709"><ele>293.0</ele><time>2026-04-05T11:34:26.709Z</time></trkpt><trkpt lat="45.7150909" lon="9.3763714"><ele>292.6666666666667</ele><time>2026-04-05T11:34:27.709Z</time></trkpt><trkpt lat="45.7150634" lon="9.3764718"><ele>292.33333333333337</ele><time>2026-04-05T11:34:28.709Z</time></trkpt><trkpt lat="45.7150294" lon="9.3765668"><ele>292.0</ele><time>2026-04-05T11:34:29.709Z</time></trkpt><trkpt lat="45.7149894" lon="9.3766745"><ele>291.6666666666667</ele><time>2026-04-05T11:34:30.709Z</time></trkpt><trkpt lat="45.7149598" lon="9.3767761"><ele>291.3333333333333</ele><time>2026-04-05T11:34:31.709Z</time></trkpt><trkpt lat="45.7149246" lon="9.3768782"><ele>291.0</ele><time>2026-04-05T11:34:32.709Z</time></trkpt><trkpt lat="45.714892" lon="9.3769894"><ele>291.0</ele><time>2026-04-05T11:34:33.709Z</time></trkpt><trkpt lat="45.7148642" lon="9.3770884"><ele>291.0</ele><time>2026-04-05T11:34:34.709Z</time></trkpt><trkpt lat="45.714821" lon="9.3771952"><ele>291.0</ele><time>2026-04-05T11:34:35.709Z</time></trkpt><trkpt lat="45.7147792" lon="9.3772794"><ele>291.0</ele><time>2026-04-05T11:34:36.709Z</time></trkpt><trkpt lat="45.7147525" lon="9.3773654"><ele>291.0</ele><time>2026-04-05T11:34:37.709Z</time></trkpt><trkpt lat="45.7147314" lon="9.3774692"><ele>291.0</ele><time>2026-04-05T11:34:38.709Z</time></trkpt><trkpt lat="45.7146989" lon="9.3775722"><ele>291.0</ele><time>2026-04-05T11:34:39.709Z</time></trkpt><trkpt lat="45.714676" lon="9.3776618"><ele>291.0</ele><time>2026-04-05T11:34:40.708Z</time></trkpt><trkpt lat="45.7146447" lon="9.377774"><ele>291.0</ele><time>2026-04-05T11:34:41.709Z</time></trkpt><trkpt lat="45.7146054" lon="9.3778749"><ele>291.0</ele><time>2026-04-05T11:34:42.709Z</time></trkpt><trkpt lat="45.7145496" lon="9.3780294"><ele>291.0</ele><time>2026-04-05T11:34:44.708Z</time></trkpt><trkpt lat="45.7145093" lon="9.3781164"><ele>291.0</ele><time>2026-04-05T11:34:45.709Z</time></trkpt><trkpt lat="45.7144696" lon="9.3781972"><ele>291.1666666666667</ele><time>2026-04-05T11:34:46.709Z</time></trkpt><trkpt lat="45.7144356" lon="9.3782784"><ele>291.3333333333333</ele><time>2026-04-05T11:34:47.708Z</time></trkpt><trkpt lat="45.7144038" lon="9.3783603"><ele>291.5</ele><time>2026-04-05T11:34:48.708Z</time></trkpt><trkpt lat="45.7143697" lon="9.3784499"><ele>291.66666666666663</ele><time>2026-04-05T11:34:49.709Z</time></trkpt><trkpt lat="45.7143041" lon="9.3786204"><ele>291.8333333333333</ele><time>2026-04-05T11:34:51.709Z</time></trkpt><trkpt lat="45.7142878" lon="9.3787087"><ele>292.0</ele><time>2026-04-05T11:34:52.709Z</time></trkpt><trkpt lat="45.7142612" lon="9.3788071"><ele>291.6</ele><time>2026-04-05T11:34:53.709Z</time></trkpt><trkpt lat="45.7142238" lon="9.3789928"><ele>291.2</ele><time>2026-04-05T11:34:55.709Z</time></trkpt><trkpt lat="45.7141946" lon="9.3791645"><ele>290.8</ele><time>2026-04-05T11:34:57.709Z</time></trkpt><trkpt lat="45.714172" lon="9.3792769"><ele>290.4</ele><time>2026-04-05T11:34:58.708Z</time></trkpt><trkpt lat="45.7141394" lon="9.3793757"><ele>290.0</ele><time>2026-04-05T11:34:59.709Z</time></trkpt><trkpt lat="45.7141184" lon="9.3794709"><ele>290.0</ele><time>2026-04-05T11:35:00.709Z</time></trkpt><trkpt lat="45.7140942" lon="9.379561"><ele>290.0</ele><time>2026-04-05T11:35:01.709Z</time></trkpt><trkpt lat="45.7140378" lon="9.3797267"><ele>290.0</ele><time>2026-04-05T11:35:03.708Z</time></trkpt><trkpt lat="45.7140002" lon="9.3798293"><ele>290.0</ele><time>2026-04-05T11:35:04.709Z</time></trkpt><trkpt lat="45.7139692" lon="9.3799093"><ele>290.0</ele><time>2026-04-05T11:35:05.709Z</time></trkpt><trkpt lat="45.713934" lon="9.3799893"><ele>290.0</ele><time>2026-04-05T11:35:06.709Z</time></trkpt><trkpt lat="45.7138613" lon="9.3801266"><ele>290.4</ele><time>2026-04-05T11:35:08.708Z</time></trkpt><trkpt lat="45.7138063" lon="9.3802823"><ele>290.8</ele><time>2026-04-05T11:35:10.708Z</time></trkpt><trkpt lat="45.7137767" lon="9.3804394"><ele>291.2</ele><time>2026-04-05T11:35:12.709Z</time></trkpt><trkpt lat="45.7137252" lon="9.3805061"><ele>291.6</ele><time>2026-04-05T11:35:14.709Z</time></trkpt><trkpt lat="45.7137198" lon="9.3806357"><ele>292.0</ele><time>2026-04-05T11:35:17.709Z</time></trkpt><trkpt lat="45.713657" lon="9.3807266"><ele>292.3333333333333</ele><time>2026-04-05T11:35:21.708Z</time></trkpt><trkpt lat="45.7135934" lon="9.3807671"><ele>292.66666666666663</ele><time>2026-04-05T11:35:23.709Z</time></trkpt><trkpt lat="45.7134959" lon="9.380815"><ele>293.0</ele><time>2026-04-05T11:35:26.709Z</time></trkpt><trkpt lat="45.7134145" lon="9.3808428"><ele>293.3333333333333</ele><time>2026-04-05T11:35:28.709Z</time></trkpt><trkpt lat="45.7133227" lon="9.3808767"><ele>293.6666666666667</ele><time>2026-04-05T11:35:30.709Z</time></trkpt><trkpt lat="45.7132352" lon="9.3809391"><ele>294.0</ele><time>2026-04-05T11:35:33.709Z</time></trkpt><trkpt lat="45.7131632" lon="9.3809597"><ele>294.25</ele><time>2026-04-05T11:35:34.709Z</time></trkpt><trkpt lat="45.7130214" lon="9.3810275"><ele>294.5</ele><time>2026-04-05T11:35:36.708Z</time></trkpt><trkpt lat="45.7128983" lon="9.3810474"><ele>294.75</ele><time>2026-04-05T11:35:38.709Z</time></trkpt><trkpt lat="45.7128187" lon="9.3810848"><ele>295.0</ele><time>2026-04-05T11:35:40.708Z</time></trkpt><trkpt lat="45.7127075" lon="9.381109"><ele>295.0</ele><time>2026-04-05T11:35:42.709Z</time></trkpt><trkpt lat="45.7126013" lon="9.3811356"><ele>295.0</ele><time>2026-04-05T11:35:44.708Z</time></trkpt><trkpt lat="45.712516" lon="9.381171"><ele>295.0</ele><time>2026-04-05T11:35:46.709Z</time></trkpt><trkpt lat="45.7124209" lon="9.3812225"><ele>295.0</ele><time>2026-04-05T11:35:49.709Z</time></trkpt><trkpt lat="45.7123133" lon="9.3813049"><ele>295.0</ele><time>2026-04-05T11:35:51.709Z</time></trkpt><trkpt lat="45.7122243" lon="9.3813821"><ele>295.75</ele><time>2026-04-05T11:35:53.709Z</time></trkpt><trkpt lat="45.712159" lon="9.3814715"><ele>296.5</ele><time>2026-04-05T11:35:55.709Z</time></trkpt><trkpt lat="45.7120478" lon="9.3815668"><ele>297.25</ele><time>2026-04-05T11:35:57.709Z</time></trkpt><trkpt lat="45.7119771" lon="9.3816985"><ele>298.0</ele><time>2026-04-05T11:35:59.709Z</time></trkpt><trkpt lat="45.7119139" lon="9.381834"><ele>298.0</ele><time>2026-04-05T11:36:01.709Z</time></trkpt><trkpt lat="45.7118456" lon="9.3819467"><ele>298.0</ele><time>2026-04-05T11:36:03.709Z</time></trkpt><trkpt lat="45.7117854" lon="9.3820714"><ele>298.0</ele><time>2026-04-05T11:36:05.709Z</time></trkpt><trkpt lat="45.7117492" lon="9.3821942"><ele>298.0</ele><time>2026-04-05T11:36:07.709Z</time></trkpt><trkpt lat="45.7116965" lon="9.3823194"><ele>298.0</ele><time>2026-04-05T11:36:09.709Z</time></trkpt><trkpt lat="45.7116227" lon="9.3824456"><ele>298.2</ele><time>2026-04-05T11:36:11.709Z</time></trkpt><trkpt lat="45.7115777" lon="9.3825087"><ele>298.4</ele><time>2026-04-05T11:36:12.709Z</time></trkpt><trkpt lat="45.7115254" lon="9.3825813"><ele>298.59999999999997</ele><time>2026-04-05T11:36:13.708Z</time></trkpt><trkpt lat="45.7114572" lon="9.3827171"><ele>298.8</ele><time>2026-04-05T11:36:15.709Z</time></trkpt><trkpt lat="45.7113996" lon="9.3828429"><ele>299.0</ele><time>2026-04-05T11:36:17.709Z</time></trkpt><trkpt lat="45.7113325" lon="9.3829805"><ele>298.8</ele><time>2026-04-05T11:36:19.708Z</time></trkpt><trkpt lat="45.7112623" lon="9.3830913"><ele>298.59999999999997</ele><time>2026-04-05T11:36:21.709Z</time></trkpt><trkpt lat="45.7112398" lon="9.3832121"><ele>298.4</ele><time>2026-04-05T11:36:22.709Z</time></trkpt><trkpt lat="45.7112062" lon="9.3833085"><ele>298.2</ele><time>2026-04-05T11:36:23.709Z</time></trkpt><trkpt lat="45.7111273" lon="9.383424"><ele>298.0</ele><time>2026-04-05T11:36:25.708Z</time></trkpt><trkpt lat="45.7110735" lon="9.3835449"><ele>297.8333333333333</ele><time>2026-04-05T11:36:27.709Z</time></trkpt><trkpt lat="45.711024" lon="9.3836787"><ele>297.66666666666663</ele><time>2026-04-05T11:36:29.709Z</time></trkpt><trkpt lat="45.7109653" lon="9.3837417"><ele>297.5</ele><time>2026-04-05T11:36:30.708Z</time></trkpt><trkpt lat="45.7109216" lon="9.3838299"><ele>297.3333333333333</ele><time>2026-04-05T11:36:31.708Z</time></trkpt><trkpt lat="45.7108828" lon="9.3839061"><ele>297.1666666666667</ele><time>2026-04-05T11:36:32.709Z</time></trkpt><trkpt lat="45.7108533" lon="9.3840296"><ele>297.0</ele><time>2026-04-05T11:36:34.709Z</time></trkpt><trkpt lat="45.7108028" lon="9.3841625"><ele>298.0</ele><time>2026-04-05T11:36:36.708Z</time></trkpt><trkpt lat="45.7107484" lon="9.3842956"><ele>299.0</ele><time>2026-04-05T11:36:38.708Z</time></trkpt><trkpt lat="45.7106717" lon="9.3844056"><ele>300.0</ele><time>2026-04-05T11:36:40.709Z</time></trkpt><trkpt lat="45.710619" lon="9.3844725"><ele>301.0</ele><time>2026-04-05T11:36:41.708Z</time></trkpt><trkpt lat="45.7105506" lon="9.3846067"><ele>302.0</ele><time>2026-04-05T11:36:43.709Z</time></trkpt><trkpt lat="45.710481" lon="9.384725"><ele>302.0</ele><time>2026-04-05T11:36:45.709Z</time></trkpt><trkpt lat="45.7104205" lon="9.3848566"><ele>302.0</ele><time>2026-04-05T11:36:47.709Z</time></trkpt><trkpt lat="45.7103701" lon="9.3849231"><ele>302.0</ele><time>2026-04-05T11:36:48.709Z</time></trkpt><trkpt lat="45.7103175" lon="9.3850445"><ele>302.0</ele><time>2026-04-05T11:36:50.709Z</time></trkpt><trkpt lat="45.7102578" lon="9.3851747"><ele>302.0</ele><time>2026-04-05T11:36:52.709Z</time></trkpt><trkpt lat="45.7102107" lon="9.3852483"><ele>301.6</ele><time>2026-04-05T11:36:53.709Z</time></trkpt><trkpt lat="45.7101965" lon="9.3853999"><ele>301.2</ele><time>2026-04-05T11:36:55.709Z</time></trkpt><trkpt lat="45.7101763" lon="9.3855082"><ele>300.8</ele><time>2026-04-05T11:36:56.709Z</time></trkpt><trkpt lat="45.710178" lon="9.3856198"><ele>300.4</ele><time>2026-04-05T11:36:57.709Z</time></trkpt><trkpt lat="45.7101951" lon="9.385771"><ele>300.0</ele><time>2026-04-05T11:36:59.709Z</time></trkpt><trkpt lat="45.7102686" lon="9.3858883"><ele>300.0</ele><time>2026-04-05T11:37:00.709Z</time></trkpt><trkpt lat="45.7103241" lon="9.3859874"><ele>300.0</ele><time>2026-04-05T11:37:01.708Z</time></trkpt><trkpt lat="45.7103924" lon="9.3861147"><ele>300.0</ele><time>2026-04-05T11:37:02.709Z</time></trkpt><trkpt lat="45.7104494" lon="9.3862378"><ele>300.0</ele><time>2026-04-05T11:37:03.709Z</time></trkpt><trkpt lat="45.7104967" lon="9.3863555"><ele>300.0</ele><time>2026-04-05T11:37:04.709Z</time></trkpt><trkpt lat="45.7105245" lon="9.3864729"><ele>299.0</ele><time>2026-04-05T11:37:05.709Z</time></trkpt><trkpt lat="45.7105373" lon="9.3866189"><ele>298.0</ele><time>2026-04-05T11:37:06.709Z</time></trkpt><trkpt lat="45.7105458" lon="9.3867506"><ele>297.0</ele><time>2026-04-05T11:37:07.709Z</time></trkpt><trkpt lat="45.7105501" lon="9.386864"><ele>296.0</ele><time>2026-04-05T11:37:08.709Z</time></trkpt><trkpt lat="45.7105415" lon="9.3869821"><ele>295.0</ele><time>2026-04-05T11:37:09.709Z</time></trkpt><trkpt lat="45.7105228" lon="9.3871177"><ele>295.66666666666663</ele><time>2026-04-05T11:37:10.708Z</time></trkpt><trkpt lat="45.7105124" lon="9.387207"><ele>296.3333333333333</ele><time>2026-04-05T11:37:11.708Z</time></trkpt><trkpt lat="45.7105145" lon="9.3873233"><ele>297.0</ele><time>2026-04-05T11:37:12.709Z</time></trkpt><trkpt lat="45.710505" lon="9.3874359"><ele>297.6666666666667</ele><time>2026-04-05T11:37:13.709Z</time></trkpt><trkpt lat="45.7105068" lon="9.3875366"><ele>298.33333333333337</ele><time>2026-04-05T11:37:14.709Z</time></trkpt><trkpt lat="45.7105021" lon="9.3876506"><ele>299.0</ele><time>2026-04-05T11:37:15.709Z</time></trkpt><trkpt lat="45.7105381" lon="9.3877499"><ele>299.0</ele><time>2026-04-05T11:37:16.709Z</time></trkpt><trkpt lat="45.7105454" lon="9.3879005"><ele>299.0</ele><time>2026-04-05T11:37:18.709Z</time></trkpt><trkpt lat="45.7105754" lon="9.38807"><ele>299.0</ele><time>2026-04-05T11:37:20.709Z</time></trkpt><trkpt lat="45.7106303" lon="9.3881933"><ele>299.0</ele><time>2026-04-05T11:37:22.709Z</time></trkpt><trkpt lat="45.710689" lon="9.3883149"><ele>299.0</ele><time>2026-04-05T11:37:24.708Z</time></trkpt><trkpt lat="45.7107474" lon="9.3883861"><ele>300.1666666666667</ele><time>2026-04-05T11:37:26.709Z</time></trkpt><trkpt lat="45.7108538" lon="9.3884457"><ele>301.33333333333337</ele><time>2026-04-05T11:37:29.708Z</time></trkpt><trkpt lat="45.7109041" lon="9.3885372"><ele>302.5</ele><time>2026-04-05T11:37:32.709Z</time></trkpt><trkpt lat="45.7109337" lon="9.3886431"><ele>303.6666666666667</ele><time>2026-04-05T11:37:34.709Z</time></trkpt><trkpt lat="45.710928" lon="9.3887616"><ele>304.8333333333333</ele><time>2026-04-05T11:37:37.709Z</time></trkpt><trkpt lat="45.7109196" lon="9.3888729"><ele>306.0</ele><time>2026-04-05T11:37:39.708Z</time></trkpt><trkpt lat="45.7109134" lon="9.3889894"><ele>306.6</ele><time>2026-04-05T11:37:41.709Z</time></trkpt><trkpt lat="45.7108977" lon="9.3890784"><ele>307.20000000000005</ele><time>2026-04-05T11:37:43.709Z</time></trkpt><trkpt lat="45.7108541" lon="9.3891911"><ele>307.79999999999995</ele><time>2026-04-05T11:37:46.708Z</time></trkpt><trkpt lat="45.7108053" lon="9.389329"><ele>308.4</ele><time>2026-04-05T11:37:47.708Z</time></trkpt><trkpt lat="45.7107616" lon="9.38947"><ele>309.0</ele><time>2026-04-05T11:37:49.709Z</time></trkpt><trkpt lat="45.7107092" lon="9.3895854"><ele>309.0</ele><time>2026-04-05T11:37:51.708Z</time></trkpt><trkpt lat="45.7107119" lon="9.3896765"><ele>309.0</ele><time>2026-04-05T11:37:52.709Z</time></trkpt><trkpt lat="45.7106793" lon="9.3898434"><ele>309.0</ele><time>2026-04-05T11:37:54.709Z</time></trkpt><trkpt lat="45.7106449" lon="9.3899259"><ele>309.0</ele><time>2026-04-05T11:37:55.709Z</time></trkpt><trkpt lat="45.7106225" lon="9.390032"><ele>309.0</ele><time>2026-04-05T11:37:56.709Z</time></trkpt><trkpt lat="45.7105564" lon="9.3902033"><ele>309.0</ele><time>2026-04-05T11:37:58.709Z</time></trkpt><trkpt lat="45.7105146" lon="9.3903095"><ele>309.0</ele><time>2026-04-05T11:37:59.708Z</time></trkpt><trkpt lat="45.7104883" lon="9.3904372"><ele>309.0</ele><time>2026-04-05T11:38:00.708Z</time></trkpt><trkpt lat="45.7104624" lon="9.3905317"><ele>309.0</ele><time>2026-04-05T11:38:01.708Z</time></trkpt><trkpt lat="45.7104389" lon="9.3906776"><ele>309.0</ele><time>2026-04-05T11:38:02.709Z</time></trkpt><trkpt lat="45.7104124" lon="9.390804"><ele>309.0</ele><time>2026-04-05T11:38:03.709Z</time></trkpt><trkpt lat="45.7103375" lon="9.3909012"><ele>308.2</ele><time>2026-04-05T11:38:04.709Z</time></trkpt><trkpt lat="45.7102838" lon="9.3910145"><ele>307.4</ele><time>2026-04-05T11:38:05.708Z</time></trkpt><trkpt lat="45.7102331" lon="9.3911037"><ele>306.6</ele><time>2026-04-05T11:38:06.709Z</time></trkpt><trkpt lat="45.7101973" lon="9.391228"><ele>305.8</ele><time>2026-04-05T11:38:07.709Z</time></trkpt><trkpt lat="45.7101557" lon="9.391377"><ele>305.0</ele><time>2026-04-05T11:38:08.709Z</time></trkpt><trkpt lat="45.7101058" lon="9.3915068"><ele>303.5</ele><time>2026-04-05T11:38:09.709Z</time></trkpt><trkpt lat="45.7100515" lon="9.391632"><ele>302.0</ele><time>2026-04-05T11:38:10.709Z</time></trkpt><trkpt lat="45.7099784" lon="9.3917553"><ele>300.5</ele><time>2026-04-05T11:38:11.709Z</time></trkpt><trkpt lat="45.7099391" lon="9.3919136"><ele>299.0</ele><time>2026-04-05T11:38:12.709Z</time></trkpt><trkpt lat="45.7098886" lon="9.392068"><ele>296.4</ele><time>2026-04-05T11:38:13.709Z</time></trkpt><trkpt lat="45.7098672" lon="9.3922242"><ele>293.79999999999995</ele><time>2026-04-05T11:38:14.708Z</time></trkpt><trkpt lat="45.7098331" lon="9.3923813"><ele>291.20000000000005</ele><time>2026-04-05T11:38:15.709Z</time></trkpt><trkpt lat="45.7098022" lon="9.3925179"><ele>288.6</ele><time>2026-04-05T11:38:16.709Z</time></trkpt><trkpt lat="45.7097734" lon="9.3926468"><ele>286.0</ele><time>2026-04-05T11:38:17.709Z</time></trkpt><trkpt lat="45.7097446" lon="9.3927705"><ele>286.0</ele><time>2026-04-05T11:38:18.708Z</time></trkpt><trkpt lat="45.7097283" lon="9.3928787"><ele>286.0</ele><time>2026-04-05T11:38:19.709Z</time></trkpt><trkpt lat="45.7097092" lon="9.393079"><ele>286.0</ele><time>2026-04-05T11:38:21.709Z</time></trkpt><trkpt lat="45.709704" lon="9.3931809"><ele>286.0</ele><time>2026-04-05T11:38:22.709Z</time></trkpt><trkpt lat="45.7096993" lon="9.3932877"><ele>286.0</ele><time>2026-04-05T11:38:23.709Z</time></trkpt><trkpt lat="45.7097267" lon="9.3934003"><ele>286.0</ele><time>2026-04-05T11:38:24.709Z</time></trkpt><trkpt lat="45.7097467" lon="9.3935144"><ele>285.16666666666663</ele><time>2026-04-05T11:38:25.708Z</time></trkpt><trkpt lat="45.7097621" lon="9.3936326"><ele>284.3333333333333</ele><time>2026-04-05T11:38:26.709Z</time></trkpt><trkpt lat="45.7097885" lon="9.3937461"><ele>283.5</ele><time>2026-04-05T11:38:27.709Z</time></trkpt><trkpt lat="45.7098022" lon="9.3938662"><ele>282.6666666666667</ele><time>2026-04-05T11:38:28.709Z</time></trkpt><trkpt lat="45.7098208" lon="9.3939754"><ele>281.83333333333337</ele><time>2026-04-05T11:38:29.709Z</time></trkpt><trkpt lat="45.709839" lon="9.3940915"><ele>281.0</ele><time>2026-04-05T11:38:30.709Z</time></trkpt><trkpt lat="45.7098594" lon="9.3941818"><ele>280.83333333333337</ele><time>2026-04-05T11:38:31.709Z</time></trkpt><trkpt lat="45.7098771" lon="9.3942923"><ele>280.6666666666667</ele><time>2026-04-05T11:38:32.708Z</time></trkpt><trkpt lat="45.7098928" lon="9.394402"><ele>280.5</ele><time>2026-04-05T11:38:33.709Z</time></trkpt><trkpt lat="45.7099126" lon="9.3944993"><ele>280.3333333333333</ele><time>2026-04-05T11:38:34.709Z</time></trkpt><trkpt lat="45.7099359" lon="9.3946023"><ele>280.16666666666663</ele><time>2026-04-05T11:38:35.709Z</time></trkpt><trkpt lat="45.7099596" lon="9.3947188"><ele>280.0</ele><time>2026-04-05T11:38:36.709Z</time></trkpt><trkpt lat="45.709987" lon="9.3948154"><ele>280.0</ele><time>2026-04-05T11:38:37.709Z</time></trkpt><trkpt lat="45.7100109" lon="9.3949131"><ele>280.0</ele><time>2026-04-05T11:38:38.709Z</time></trkpt><trkpt lat="45.7100476" lon="9.3950027"><ele>280.0</ele><time>2026-04-05T11:38:39.709Z</time></trkpt><trkpt lat="45.7101036" lon="9.3950753"><ele>280.0</ele><time>2026-04-05T11:38:40.709Z</time></trkpt><trkpt lat="45.7101626" lon="9.3952715"><ele>280.0</ele><time>2026-04-05T11:38:42.709Z</time></trkpt><trkpt lat="45.7101875" lon="9.3954028"><ele>279.3333333333333</ele><time>2026-04-05T11:38:43.709Z</time></trkpt><trkpt lat="45.7102054" lon="9.3955132"><ele>278.66666666666663</ele><time>2026-04-05T11:38:44.709Z</time></trkpt><trkpt lat="45.71023" lon="9.3955983"><ele>278.0</ele><time>2026-04-05T11:38:45.709Z</time></trkpt><trkpt lat="45.7102378" lon="9.3957038"><ele>277.3333333333333</ele><time>2026-04-05T11:38:46.708Z</time></trkpt><trkpt lat="45.7102497" lon="9.3958359"><ele>276.6666666666667</ele><time>2026-04-05T11:38:47.709Z</time></trkpt><trkpt lat="45.7102755" lon="9.39597"><ele>276.0</ele><time>2026-04-05T11:38:48.709Z</time></trkpt><trkpt lat="45.7102899" lon="9.3960598"><ele>275.40000000000003</ele><time>2026-04-05T11:38:49.709Z</time></trkpt><trkpt lat="45.71031" lon="9.3961508"><ele>274.8</ele><time>2026-04-05T11:38:50.709Z</time></trkpt><trkpt lat="45.7103452" lon="9.3962517"><ele>274.20000000000005</ele><time>2026-04-05T11:38:51.708Z</time></trkpt><trkpt lat="45.7103785" lon="9.3963544"><ele>273.6</ele><time>2026-04-05T11:38:52.709Z</time></trkpt><trkpt lat="45.7104286" lon="9.3965057"><ele>273.0</ele><time>2026-04-05T11:38:54.709Z</time></trkpt><trkpt lat="45.7104557" lon="9.396718"><ele>273.0</ele><time>2026-04-05T11:38:56.708Z</time></trkpt><trkpt lat="45.7104613" lon="9.3968411"><ele>273.0</ele><time>2026-04-05T11:38:57.708Z</time></trkpt><trkpt lat="45.7104632" lon="9.3969447"><ele>273.0</ele><time>2026-04-05T11:38:58.709Z</time></trkpt><trkpt lat="45.7104641" lon="9.397037"><ele>273.0</ele><time>2026-04-05T11:38:59.709Z</time></trkpt><trkpt lat="45.7104445" lon="9.3971717"><ele>273.0</ele><time>2026-04-05T11:39:00.709Z</time></trkpt><trkpt lat="45.7104278" lon="9.397293"><ele>273.0</ele><time>2026-04-05T11:39:01.708Z</time></trkpt><trkpt lat="45.7104334" lon="9.3974784"><ele>273.7142857142857</ele><time>2026-04-05T11:39:03.709Z</time></trkpt><trkpt lat="45.7104418" lon="9.3975718"><ele>274.42857142857144</ele><time>2026-04-05T11:39:04.709Z</time></trkpt><trkpt lat="45.710441" lon="9.3976652"><ele>275.1428571428571</ele><time>2026-04-05T11:39:05.709Z</time></trkpt><trkpt lat="45.7104443" lon="9.3977559"><ele>275.8571428571429</ele><time>2026-04-05T11:39:06.708Z</time></trkpt><trkpt lat="45.7104335" lon="9.3978567"><ele>276.57142857142856</ele><time>2026-04-05T11:39:07.709Z</time></trkpt><trkpt lat="45.7104075" lon="9.3979588"><ele>277.2857142857143</ele><time>2026-04-05T11:39:08.709Z</time></trkpt><trkpt lat="45.7104035" lon="9.3980553"><ele>278.0</ele><time>2026-04-05T11:39:09.708Z</time></trkpt><trkpt lat="45.7103652" lon="9.3981284"><ele>279.1666666666667</ele><time>2026-04-05T11:39:10.709Z</time></trkpt><trkpt lat="45.7103301" lon="9.3982092"><ele>280.33333333333337</ele><time>2026-04-05T11:39:11.709Z</time></trkpt><trkpt lat="45.7102977" lon="9.3983519"><ele>281.5</ele><time>2026-04-05T11:39:13.708Z</time></trkpt><trkpt lat="45.710291" lon="9.3984806"><ele>282.6666666666667</ele><time>2026-04-05T11:39:15.709Z</time></trkpt><trkpt lat="45.7103293" lon="9.3985935"><ele>283.8333333333333</ele><time>2026-04-05T11:39:17.708Z</time></trkpt><trkpt lat="45.710385" lon="9.3986979"><ele>285.0</ele><time>2026-04-05T11:39:19.709Z</time></trkpt><trkpt lat="45.710447" lon="9.3988007"><ele>285.8333333333333</ele><time>2026-04-05T11:39:21.709Z</time></trkpt><trkpt lat="45.7104896" lon="9.3988876"><ele>286.6666666666667</ele><time>2026-04-05T11:39:23.708Z</time></trkpt><trkpt lat="45.7105324" lon="9.3989761"><ele>287.5</ele><time>2026-04-05T11:39:25.709Z</time></trkpt><trkpt lat="45.710549" lon="9.3990856"><ele>288.33333333333337</ele><time>2026-04-05T11:39:27.709Z</time></trkpt><trkpt lat="45.7105092" lon="9.3992126"><ele>289.1666666666667</ele><time>2026-04-05T11:39:29.709Z</time></trkpt><trkpt lat="45.7104624" lon="9.3993175"><ele>290.0</ele><time>2026-04-05T11:39:31.708Z</time></trkpt><trkpt lat="45.7104199" lon="9.3994307"><ele>290.0</ele><time>2026-04-05T11:39:33.709Z</time></trkpt><trkpt lat="45.7103495" lon="9.3995913"><ele>290.0</ele><time>2026-04-05T11:39:35.709Z</time></trkpt><trkpt lat="45.7103036" lon="9.3996691"><ele>290.0</ele><time>2026-04-05T11:39:36.709Z</time></trkpt><trkpt lat="45.7102465" lon="9.3997464"><ele>290.0</ele><time>2026-04-05T11:39:37.708Z</time></trkpt><trkpt lat="45.7101593" lon="9.399861"><ele>290.0</ele><time>2026-04-05T11:39:38.709Z</time></trkpt><trkpt lat="45.7101092" lon="9.3999336"><ele>289.5</ele><time>2026-04-05T11:39:39.709Z</time></trkpt><trkpt lat="45.7100671" lon="9.4000129"><ele>289.0</ele><time>2026-04-05T11:39:40.709Z</time></trkpt><trkpt lat="45.7100205" lon="9.4000874"><ele>288.5</ele><time>2026-04-05T11:39:41.709Z</time></trkpt><trkpt lat="45.7099257" lon="9.4002018"><ele>288.0</ele><time>2026-04-05T11:39:43.708Z</time></trkpt><trkpt lat="45.7098704" lon="9.400277"><ele>287.5</ele><time>2026-04-05T11:39:44.709Z</time></trkpt><trkpt lat="45.7098391" lon="9.4004244"><ele>287.0</ele><time>2026-04-05T11:39:46.708Z</time></trkpt><trkpt lat="45.7097906" lon="9.4005565"><ele>287.0</ele><time>2026-04-05T11:39:48.709Z</time></trkpt><trkpt lat="45.7097507" lon="9.400682"><ele>287.0</ele><time>2026-04-05T11:39:50.709Z</time></trkpt><trkpt lat="45.7097064" lon="9.4007898"><ele>287.0</ele><time>2026-04-05T11:39:52.709Z</time></trkpt><trkpt lat="45.709636" lon="9.4008875"><ele>287.0</ele><time>2026-04-05T11:39:54.708Z</time></trkpt><trkpt lat="45.7095662" lon="9.4009311"><ele>287.0</ele><time>2026-04-05T11:39:56.709Z</time></trkpt><trkpt lat="45.7094682" lon="9.4009471"><ele>286.83333333333337</ele><time>2026-04-05T11:39:58.709Z</time></trkpt><trkpt lat="45.7094083" lon="9.4010008"><ele>286.6666666666667</ele><time>2026-04-05T11:40:00.708Z</time></trkpt><trkpt lat="45.709315" lon="9.4010333"><ele>286.5</ele><time>2026-04-05T11:40:03.709Z</time></trkpt><trkpt lat="45.7092498" lon="9.401077"><ele>286.3333333333333</ele><time>2026-04-05T11:40:05.709Z</time></trkpt><trkpt lat="45.7091586" lon="9.4011211"><ele>286.16666666666663</ele><time>2026-04-05T11:40:07.708Z</time></trkpt><trkpt lat="45.7091142" lon="9.4011859"><ele>286.0</ele><time>2026-04-05T11:40:10.709Z</time></trkpt><trkpt lat="45.709052" lon="9.4012273"><ele>286.0</ele><time>2026-04-05T11:40:12.709Z</time></trkpt><trkpt lat="45.7089757" lon="9.401308"><ele>286.0</ele><time>2026-04-05T11:40:15.709Z</time></trkpt><trkpt lat="45.7089229" lon="9.4013787"><ele>286.0</ele><time>2026-04-05T11:40:17.709Z</time></trkpt><trkpt lat="45.7088853" lon="9.4014873"><ele>286.0</ele><time>2026-04-05T11:40:19.709Z</time></trkpt><trkpt lat="45.7088569" lon="9.4015881"><ele>286.0</ele><time>2026-04-05T11:40:22.709Z</time></trkpt><trkpt lat="45.708837" lon="9.4016973"><ele>286.0</ele><time>2026-04-05T11:40:25.709Z</time></trkpt><trkpt lat="45.7088206" lon="9.4018016"><ele>287.3333333333333</ele><time>2026-04-05T11:40:28.708Z</time></trkpt><trkpt lat="45.7088038" lon="9.4019128"><ele>288.66666666666663</ele><time>2026-04-05T11:40:32.708Z</time></trkpt><trkpt lat="45.7087904" lon="9.4020117"><ele>290.0</ele><time>2026-04-05T11:40:35.709Z</time></trkpt><trkpt lat="45.7087636" lon="9.4021523"><ele>291.3333333333333</ele><time>2026-04-05T11:40:38.709Z</time></trkpt><trkpt lat="45.7087387" lon="9.4022724"><ele>292.6666666666667</ele><time>2026-04-05T11:40:41.709Z</time></trkpt><trkpt lat="45.7087245" lon="9.4021704"><ele>294.0</ele><time>2026-04-05T11:40:43.679Z</time></trkpt><trkpt lat="45.7087153" lon="9.4022764"><ele>295.0</ele><time>2026-04-05T11:40:46.715Z</time></trkpt><trkpt lat="45.7086981" lon="9.4023918"><ele>296.0</ele><time>2026-04-05T11:40:49.715Z</time></trkpt><trkpt lat="45.7086822" lon="9.4025269"><ele>297.0</ele><time>2026-04-05T11:40:51.715Z</time></trkpt><trkpt lat="45.7086632" lon="9.4026418"><ele>298.0</ele><time>2026-04-05T11:40:53.661Z</time></trkpt><trkpt lat="45.7086303" lon="9.4027484"><ele>299.0</ele><time>2026-04-05T11:40:55.715Z</time></trkpt><trkpt lat="45.7086003" lon="9.4028296"><ele>300.0</ele><time>2026-04-05T11:40:57.715Z</time></trkpt><trkpt lat="45.7085583" lon="9.402949"><ele>301.0</ele><time>2026-04-05T11:41:00.714Z</time></trkpt><trkpt lat="45.7085119" lon="9.4030534"><ele>302.0</ele><time>2026-04-05T11:41:03.715Z</time></trkpt><trkpt lat="45.7084688" lon="9.4031449"><ele>303.0</ele><time>2026-04-05T11:41:06.681Z</time></trkpt><trkpt lat="45.708418" lon="9.4032517"><ele>304.0</ele><time>2026-04-05T11:41:09.696Z</time></trkpt><trkpt lat="45.7083597" lon="9.4033429"><ele>305.0</ele><time>2026-04-05T11:41:12.68Z</time></trkpt><trkpt lat="45.7083109" lon="9.4034125"><ele>306.0</ele><time>2026-04-05T11:41:14.743Z</time></trkpt><trkpt lat="45.7082639" lon="9.4034783"><ele>306.0</ele><time>2026-04-05T11:41:16.715Z</time></trkpt><trkpt lat="45.7082133" lon="9.4035476"><ele>306.0</ele><time>2026-04-05T11:41:18.715Z</time></trkpt><trkpt lat="45.7081583" lon="9.4036206"><ele>306.0</ele><time>2026-04-05T11:41:20.715Z</time></trkpt><trkpt lat="45.7080956" lon="9.4037016"><ele>306.0</ele><time>2026-04-05T11:41:22.714Z</time></trkpt><trkpt lat="45.7080396" lon="9.4037539"><ele>306.0</ele><time>2026-04-05T11:41:23.715Z</time></trkpt><trkpt lat="45.7079533" lon="9.4038418"><ele>306.0</ele><time>2026-04-05T11:41:25.715Z</time></trkpt><trkpt lat="45.7078835" lon="9.4039307"><ele>306.2</ele><time>2026-04-05T11:41:27.715Z</time></trkpt><trkpt lat="45.7077953" lon="9.4040111"><ele>306.40000000000003</ele><time>2026-04-05T11:41:29.715Z</time></trkpt><trkpt lat="45.7076996" lon="9.4040913"><ele>306.6</ele><time>2026-04-05T11:41:31.715Z</time></trkpt><trkpt lat="45.7076104" lon="9.4041801"><ele>306.8</ele><time>2026-04-05T11:41:33.714Z</time></trkpt><trkpt lat="45.7075208" lon="9.4042731"><ele>307.0</ele><time>2026-04-05T11:41:35.715Z</time></trkpt><trkpt lat="45.7074344" lon="9.4043703"><ele>307.0</ele><time>2026-04-05T11:41:37.715Z</time></trkpt><trkpt lat="45.707349" lon="9.4044625"><ele>307.0</ele><time>2026-04-05T11:41:39.715Z</time></trkpt><trkpt lat="45.7072693" lon="9.4045602"><ele>307.0</ele><time>2026-04-05T11:41:41.715Z</time></trkpt><trkpt lat="45.7071715" lon="9.4046613"><ele>307.0</ele><time>2026-04-05T11:41:43.715Z</time></trkpt><trkpt lat="45.7070741" lon="9.404768"><ele>307.6</ele><time>2026-04-05T11:41:45.715Z</time></trkpt><trkpt lat="45.7070132" lon="9.4048965"><ele>308.2</ele><time>2026-04-05T11:41:47.715Z</time></trkpt><trkpt lat="45.706991" lon="9.4049855"><ele>308.8</ele><time>2026-04-05T11:41:48.715Z</time></trkpt><trkpt lat="45.7068867" lon="9.4051286"><ele>309.4</ele><time>2026-04-05T11:41:50.715Z</time></trkpt><trkpt lat="45.7068519" lon="9.405212"><ele>310.0</ele><time>2026-04-05T11:41:51.715Z</time></trkpt><trkpt lat="45.7068173" lon="9.4053095"><ele>309.0</ele><time>2026-04-05T11:41:52.715Z</time></trkpt><trkpt lat="45.7067832" lon="9.4054672"><ele>308.0</ele><time>2026-04-05T11:41:54.715Z</time></trkpt><trkpt lat="45.7067478" lon="9.405546"><ele>307.0</ele><time>2026-04-05T11:41:55.715Z</time></trkpt><trkpt lat="45.7067139" lon="9.4056302"><ele>306.0</ele><time>2026-04-05T11:41:56.715Z</time></trkpt><trkpt lat="45.7066799" lon="9.4057079"><ele>305.0</ele><time>2026-04-05T11:41:57.715Z</time></trkpt><trkpt lat="45.7065995" lon="9.4058612"><ele>304.0</ele><time>2026-04-05T11:41:59.715Z</time></trkpt><trkpt lat="45.7065418" lon="9.406001"><ele>304.0</ele><time>2026-04-05T11:42:01.715Z</time></trkpt><trkpt lat="45.7065121" lon="9.4060999"><ele>304.0</ele><time>2026-04-05T11:42:02.715Z</time></trkpt><trkpt lat="45.7064784" lon="9.4061811"><ele>304.0</ele><time>2026-04-05T11:42:03.715Z</time></trkpt><trkpt lat="45.706443" lon="9.4062559"><ele>304.0</ele><time>2026-04-05T11:42:04.714Z</time></trkpt><trkpt lat="45.7063983" lon="9.4063874"><ele>304.0</ele><time>2026-04-05T11:42:06.715Z</time></trkpt><trkpt lat="45.7063745" lon="9.4064722"><ele>304.0</ele><time>2026-04-05T11:42:07.715Z</time></trkpt><trkpt lat="45.7063117" lon="9.4065995"><ele>303.8</ele><time>2026-04-05T11:42:09.715Z</time></trkpt><trkpt lat="45.7062515" lon="9.406719"><ele>303.59999999999997</ele><time>2026-04-05T11:42:11.715Z</time></trkpt><trkpt lat="45.7062351" lon="9.4068551"><ele>303.4</ele><time>2026-04-05T11:42:13.715Z</time></trkpt><trkpt lat="45.7062299" lon="9.4070319"><ele>303.2</ele><time>2026-04-05T11:42:15.714Z</time></trkpt><trkpt lat="45.7062332" lon="9.4071389"><ele>303.0</ele><time>2026-04-05T11:42:16.715Z</time></trkpt><trkpt lat="45.70623" lon="9.4072354"><ele>302.7142857142857</ele><time>2026-04-05T11:42:17.714Z</time></trkpt><trkpt lat="45.706234" lon="9.407341"><ele>302.42857142857144</ele><time>2026-04-05T11:42:18.715Z</time></trkpt><trkpt lat="45.7062378" lon="9.4074374"><ele>302.1428571428571</ele><time>2026-04-05T11:42:19.715Z</time></trkpt><trkpt lat="45.7062407" lon="9.407542"><ele>301.8571428571429</ele><time>2026-04-05T11:42:20.715Z</time></trkpt><trkpt lat="45.7062388" lon="9.4076464"><ele>301.57142857142856</ele><time>2026-04-05T11:42:21.714Z</time></trkpt><trkpt lat="45.7062455" lon="9.4077598"><ele>301.2857142857143</ele><time>2026-04-05T11:42:22.715Z</time></trkpt><trkpt lat="45.7062549" lon="9.4078758"><ele>301.0</ele><time>2026-04-05T11:42:23.715Z</time></trkpt><trkpt lat="45.7062595" lon="9.4080126"><ele>300.2</ele><time>2026-04-05T11:42:24.715Z</time></trkpt><trkpt lat="45.7062586" lon="9.4081594"><ele>299.40000000000003</ele><time>2026-04-05T11:42:25.714Z</time></trkpt><trkpt lat="45.7062703" lon="9.4082968"><ele>298.6</ele><time>2026-04-05T11:42:26.715Z</time></trkpt><trkpt lat="45.7062688" lon="9.408448"><ele>297.8</ele><time>2026-04-05T11:42:27.715Z</time></trkpt><trkpt lat="45.7062664" lon="9.4085945"><ele>297.0</ele><time>2026-04-05T11:42:28.715Z</time></trkpt><trkpt lat="45.7062658" lon="9.4087168"><ele>296.8</ele><time>2026-04-05T11:42:29.715Z</time></trkpt><trkpt lat="45.7062753" lon="9.408862"><ele>296.6</ele><time>2026-04-05T11:42:30.714Z</time></trkpt><trkpt lat="45.7062697" lon="9.4090003"><ele>296.40000000000003</ele><time>2026-04-05T11:42:31.714Z</time></trkpt><trkpt lat="45.706262" lon="9.4091437"><ele>296.2</ele><time>2026-04-05T11:42:32.715Z</time></trkpt><trkpt lat="45.7062975" lon="9.4093"><ele>296.0</ele><time>2026-04-05T11:42:34.714Z</time></trkpt><trkpt lat="45.7063201" lon="9.4093943"><ele>296.0</ele><time>2026-04-05T11:42:35.715Z</time></trkpt><trkpt lat="45.7063393" lon="9.4095682"><ele>296.0</ele><time>2026-04-05T11:42:37.715Z</time></trkpt><trkpt lat="45.7063522" lon="9.4096681"><ele>296.0</ele><time>2026-04-05T11:42:38.715Z</time></trkpt><trkpt lat="45.7063633" lon="9.4097596"><ele>296.0</ele><time>2026-04-05T11:42:40.715Z</time></trkpt><trkpt lat="45.706364" lon="9.4098739"><ele>296.0</ele><time>2026-04-05T11:42:43.714Z</time></trkpt><trkpt lat="45.7063676" lon="9.4099724"><ele>296.0</ele><time>2026-04-05T11:42:44.714Z</time></trkpt><trkpt lat="45.7063481" lon="9.4101034"><ele>296.75</ele><time>2026-04-05T11:42:46.714Z</time></trkpt><trkpt lat="45.706324" lon="9.4102772"><ele>297.5</ele><time>2026-04-05T11:42:48.715Z</time></trkpt><trkpt lat="45.7062635" lon="9.4104345"><ele>298.25</ele><time>2026-04-05T11:42:50.714Z</time></trkpt><trkpt lat="45.7061822" lon="9.4105984"><ele>299.0</ele><time>2026-04-05T11:42:52.715Z</time></trkpt><trkpt lat="45.7061616" lon="9.4106888"><ele>299.0</ele><time>2026-04-05T11:42:53.715Z</time></trkpt><trkpt lat="45.7061372" lon="9.4107977"><ele>299.0</ele><time>2026-04-05T11:42:54.714Z</time></trkpt><trkpt lat="45.7061275" lon="9.410904"><ele>299.0</ele><time>2026-04-05T11:42:55.715Z</time></trkpt><trkpt lat="45.7061162" lon="9.4109953"><ele>299.0</ele><time>2026-04-05T11:42:56.715Z</time></trkpt><trkpt lat="45.7061173" lon="9.4110952"><ele>299.0</ele><time>2026-04-05T11:42:57.715Z</time></trkpt><trkpt lat="45.706105" lon="9.4111888"><ele>299.0</ele><time>2026-04-05T11:42:58.715Z</time></trkpt><trkpt lat="45.7060806" lon="9.4113409"><ele>299.0</ele><time>2026-04-05T11:43:00.715Z</time></trkpt><trkpt lat="45.7060755" lon="9.4114814"><ele>299.0</ele><time>2026-04-05T11:43:02.715Z</time></trkpt><trkpt lat="45.7060986" lon="9.4115804"><ele>299.0</ele><time>2026-04-05T11:43:04.715Z</time></trkpt><trkpt lat="45.7061675" lon="9.4116322"><ele>299.0</ele><time>2026-04-05T11:43:06.715Z</time></trkpt><trkpt lat="45.7062609" lon="9.4115806"><ele>299.0</ele><time>2026-04-05T11:43:08.714Z</time></trkpt><trkpt lat="45.7063519" lon="9.4115476"><ele>299.0</ele><time>2026-04-05T11:43:10.715Z</time></trkpt><trkpt lat="45.7064332" lon="9.4115514"><ele>299.6666666666667</ele><time>2026-04-05T11:43:12.715Z</time></trkpt><trkpt lat="45.7065191" lon="9.4115732"><ele>300.33333333333337</ele><time>2026-04-05T11:43:14.715Z</time></trkpt><trkpt lat="45.7065989" lon="9.4115958"><ele>301.0</ele><time>2026-04-05T11:43:16.715Z</time></trkpt><trkpt lat="45.7066908" lon="9.4116581"><ele>301.6666666666667</ele><time>2026-04-05T11:43:18.715Z</time></trkpt><trkpt lat="45.7067729" lon="9.4117238"><ele>302.3333333333333</ele><time>2026-04-05T11:43:20.715Z</time></trkpt><trkpt lat="45.7068444" lon="9.4117748"><ele>303.0</ele><time>2026-04-05T11:43:22.715Z</time></trkpt><trkpt lat="45.7069447" lon="9.4118792"><ele>303.2</ele><time>2026-04-05T11:43:24.715Z</time></trkpt><trkpt lat="45.7070235" lon="9.4119323"><ele>303.4</ele><time>2026-04-05T11:43:26.715Z</time></trkpt><trkpt lat="45.7071059" lon="9.4119774"><ele>303.59999999999997</ele><time>2026-04-05T11:43:28.715Z</time></trkpt><trkpt lat="45.7072307" lon="9.4120377"><ele>303.8</ele><time>2026-04-05T11:43:31.715Z</time></trkpt><trkpt lat="45.7073151" lon="9.4120905"><ele>304.0</ele><time>2026-04-05T11:43:33.715Z</time></trkpt><trkpt lat="45.7074004" lon="9.4121728"><ele>304.66666666666663</ele><time>2026-04-05T11:43:35.714Z</time></trkpt><trkpt lat="45.7074626" lon="9.4122238"><ele>305.3333333333333</ele><time>2026-04-05T11:43:37.715Z</time></trkpt><trkpt lat="45.7075378" lon="9.4122553"><ele>306.0</ele><time>2026-04-05T11:43:39.715Z</time></trkpt><trkpt lat="45.7076049" lon="9.4123235"><ele>306.6666666666667</ele><time>2026-04-05T11:43:41.715Z</time></trkpt><trkpt lat="45.7076504" lon="9.4123863"><ele>307.33333333333337</ele><time>2026-04-05T11:43:42.715Z</time></trkpt><trkpt lat="45.7077342" lon="9.412451"><ele>308.0</ele><time>2026-04-05T11:43:44.715Z</time></trkpt><trkpt lat="45.7078115" lon="9.4125142"><ele>308.33333333333337</ele><time>2026-04-05T11:43:46.715Z</time></trkpt><trkpt lat="45.7078713" lon="9.4125745"><ele>308.6666666666667</ele><time>2026-04-05T11:43:48.715Z</time></trkpt><trkpt lat="45.7079371" lon="9.4126355"><ele>309.0</ele><time>2026-04-05T11:43:50.714Z</time></trkpt><trkpt lat="45.7080157" lon="9.4127059"><ele>309.3333333333333</ele><time>2026-04-05T11:43:52.714Z</time></trkpt><trkpt lat="45.7080915" lon="9.4127807"><ele>309.66666666666663</ele><time>2026-04-05T11:43:54.715Z</time></trkpt><trkpt lat="45.7081519" lon="9.4128386"><ele>310.0</ele><time>2026-04-05T11:43:56.715Z</time></trkpt><trkpt lat="45.7082052" lon="9.4129049"><ele>310.0</ele><time>2026-04-05T11:43:58.715Z</time></trkpt><trkpt lat="45.7082588" lon="9.4129726"><ele>310.0</ele><time>2026-04-05T11:44:00.714Z</time></trkpt><trkpt lat="45.708311" lon="9.413044"><ele>310.0</ele><time>2026-04-05T11:44:02.714Z</time></trkpt><trkpt lat="45.7083533" lon="9.4131182"><ele>310.0</ele><time>2026-04-05T11:44:04.715Z</time></trkpt><trkpt lat="45.7084077" lon="9.4131883"><ele>310.0</ele><time>2026-04-05T11:44:06.715Z</time></trkpt><trkpt lat="45.7084579" lon="9.4132566"><ele>310.0</ele><time>2026-04-05T11:44:08.715Z</time></trkpt><trkpt lat="45.7085081" lon="9.4133116"><ele>310.0</ele><time>2026-04-05T11:44:11.715Z</time></trkpt><trkpt lat="45.7085763" lon="9.4133797"><ele>310.66666666666663</ele><time>2026-04-05T11:44:14.715Z</time></trkpt><trkpt lat="45.7086466" lon="9.4134472"><ele>311.3333333333333</ele><time>2026-04-05T11:44:17.715Z</time></trkpt><trkpt lat="45.708699" lon="9.4135379"><ele>312.0</ele><time>2026-04-05T11:44:19.714Z</time></trkpt><trkpt lat="45.7087444" lon="9.4136243"><ele>312.6666666666667</ele><time>2026-04-05T11:44:21.715Z</time></trkpt><trkpt lat="45.7087934" lon="9.4137041"><ele>313.33333333333337</ele><time>2026-04-05T11:44:23.715Z</time></trkpt><trkpt lat="45.7088456" lon="9.4137822"><ele>314.0</ele><time>2026-04-05T11:44:25.715Z</time></trkpt><trkpt lat="45.7088953" lon="9.4138474"><ele>314.6666666666667</ele><time>2026-04-05T11:44:27.714Z</time></trkpt><trkpt lat="45.7089504" lon="9.4139313"><ele>315.33333333333337</ele><time>2026-04-05T11:44:29.714Z</time></trkpt><trkpt lat="45.7090092" lon="9.4140082"><ele>316.0</ele><time>2026-04-05T11:44:31.715Z</time></trkpt><trkpt lat="45.7090639" lon="9.414075"><ele>316.6666666666667</ele><time>2026-04-05T11:44:33.714Z</time></trkpt><trkpt lat="45.7091144" lon="9.4141426"><ele>317.3333333333333</ele><time>2026-04-05T11:44:35.715Z</time></trkpt><trkpt lat="45.7091636" lon="9.4142262"><ele>318.0</ele><time>2026-04-05T11:44:37.715Z</time></trkpt><trkpt lat="45.7092129" lon="9.4143067"><ele>318.0</ele><time>2026-04-05T11:44:39.715Z</time></trkpt><trkpt lat="45.7092566" lon="9.414373"><ele>318.0</ele><time>2026-04-05T11:44:41.714Z</time></trkpt><trkpt lat="45.7093092" lon="9.4144361"><ele>318.0</ele><time>2026-04-05T11:44:43.715Z</time></trkpt><trkpt lat="45.7093615" lon="9.4145145"><ele>318.0</ele><time>2026-04-05T11:44:45.714Z</time></trkpt><trkpt lat="45.709404" lon="9.4145955"><ele>318.0</ele><time>2026-04-05T11:44:47.714Z</time></trkpt><trkpt lat="45.7094532" lon="9.4146665"><ele>318.0</ele><time>2026-04-05T11:44:49.714Z</time></trkpt><trkpt lat="45.7095048" lon="9.4147375"><ele>318.0</ele><time>2026-04-05T11:44:51.714Z</time></trkpt><trkpt lat="45.7095513" lon="9.4148012"><ele>319.2857142857143</ele><time>2026-04-05T11:44:53.715Z</time></trkpt><trkpt lat="45.7096203" lon="9.4148894"><ele>320.5714285714286</ele><time>2026-04-05T11:44:56.714Z</time></trkpt><trkpt lat="45.7096731" lon="9.4149545"><ele>321.8571428571429</ele><time>2026-04-05T11:44:58.714Z</time></trkpt><trkpt lat="45.7097164" lon="9.4150271"><ele>323.1428571428571</ele><time>2026-04-05T11:45:00.715Z</time></trkpt><trkpt lat="45.7097519" lon="9.4151127"><ele>324.42857142857144</ele><time>2026-04-05T11:45:02.715Z</time></trkpt><trkpt lat="45.7097921" lon="9.4151831"><ele>325.7142857142857</ele><time>2026-04-05T11:45:04.715Z</time></trkpt><trkpt lat="45.7098425" lon="9.4152438"><ele>327.0</ele><time>2026-04-05T11:45:06.715Z</time></trkpt><trkpt lat="45.7098918" lon="9.4153037"><ele>327.0</ele><time>2026-04-05T11:45:08.715Z</time></trkpt><trkpt lat="45.7099386" lon="9.4153651"><ele>327.0</ele><time>2026-04-05T11:45:10.715Z</time></trkpt><trkpt lat="45.7099576" lon="9.4154585"><ele>327.0</ele><time>2026-04-05T11:45:12.715Z</time></trkpt><trkpt lat="45.7099421" lon="9.4155633"><ele>327.0</ele><time>2026-04-05T11:45:14.715Z</time></trkpt><trkpt lat="45.709911" lon="9.4156516"><ele>327.0</ele><time>2026-04-05T11:45:16.714Z</time></trkpt><trkpt lat="45.7098885" lon="9.4157449"><ele>327.0</ele><time>2026-04-05T11:45:18.715Z</time></trkpt><trkpt lat="45.7098647" lon="9.4158476"><ele>327.0</ele><time>2026-04-05T11:45:20.714Z</time></trkpt><trkpt lat="45.7098462" lon="9.4159467"><ele>326.6666666666667</ele><time>2026-04-05T11:45:22.715Z</time></trkpt><trkpt lat="45.7098376" lon="9.4160476"><ele>326.3333333333333</ele><time>2026-04-05T11:45:24.715Z</time></trkpt><trkpt lat="45.7098345" lon="9.416172"><ele>326.0</ele><time>2026-04-05T11:45:26.715Z</time></trkpt><trkpt lat="45.7098172" lon="9.4163052"><ele>325.66666666666663</ele><time>2026-04-05T11:45:28.714Z</time></trkpt><trkpt lat="45.7097975" lon="9.4164376"><ele>325.3333333333333</ele><time>2026-04-05T11:45:30.715Z</time></trkpt><trkpt lat="45.7097854" lon="9.4165639"><ele>325.0</ele><time>2026-04-05T11:45:35.715Z</time></trkpt><trkpt lat="45.7097738" lon="9.4166544"><ele>324.6</ele><time>2026-04-05T11:45:36.715Z</time></trkpt><trkpt lat="45.709758" lon="9.4167495"><ele>324.2</ele><time>2026-04-05T11:45:37.715Z</time></trkpt><trkpt lat="45.7097448" lon="9.4168384"><ele>323.79999999999995</ele><time>2026-04-05T11:45:38.715Z</time></trkpt><trkpt lat="45.7097295" lon="9.4169959"><ele>323.4</ele><time>2026-04-05T11:45:40.715Z</time></trkpt><trkpt lat="45.7097005" lon="9.4171516"><ele>323.0</ele><time>2026-04-05T11:45:42.715Z</time></trkpt><trkpt lat="45.7096819" lon="9.4173099"><ele>322.5</ele><time>2026-04-05T11:45:44.715Z</time></trkpt><trkpt lat="45.7096717" lon="9.4174775"><ele>322.0</ele><time>2026-04-05T11:45:46.715Z</time></trkpt><trkpt lat="45.7096679" lon="9.4176552"><ele>321.5</ele><time>2026-04-05T11:45:48.715Z</time></trkpt><trkpt lat="45.7096527" lon="9.4178175"><ele>321.0</ele><time>2026-04-05T11:45:50.715Z</time></trkpt><trkpt lat="45.7096422" lon="9.4179828"><ele>321.0</ele><time>2026-04-05T11:45:52.715Z</time></trkpt><trkpt lat="45.7096231" lon="9.4181403"><ele>321.0</ele><time>2026-04-05T11:45:54.715Z</time></trkpt><trkpt lat="45.709528" lon="9.4186019"><ele>321.0</ele><time>2026-04-05T11:45:56.715Z</time></trkpt><trkpt lat="45.709507" lon="9.4186969"><ele>320.75</ele><time>2026-04-05T11:45:57.715Z</time></trkpt><trkpt lat="45.7094811" lon="9.4188553"><ele>320.5</ele><time>2026-04-05T11:45:59.714Z</time></trkpt><trkpt lat="45.7094761" lon="9.4190117"><ele>320.25</ele><time>2026-04-05T11:46:01.715Z</time></trkpt><trkpt lat="45.709497" lon="9.4191787"><ele>320.0</ele><time>2026-04-05T11:46:03.714Z</time></trkpt><trkpt lat="45.709542" lon="9.4193384"><ele>320.0</ele><time>2026-04-05T11:46:05.714Z</time></trkpt><trkpt lat="45.7095782" lon="9.419496"><ele>320.0</ele><time>2026-04-05T11:46:07.715Z</time></trkpt><trkpt lat="45.7096064" lon="9.4195827"><ele>320.0</ele><time>2026-04-05T11:46:08.714Z</time></trkpt><trkpt lat="45.7096461" lon="9.4197486"><ele>320.0</ele><time>2026-04-05T11:46:10.715Z</time></trkpt><trkpt lat="45.7096791" lon="9.4198962"><ele>320.0</ele><time>2026-04-05T11:46:12.715Z</time></trkpt><trkpt lat="45.7096886" lon="9.4200409"><ele>319.6</ele><time>2026-04-05T11:46:14.714Z</time></trkpt><trkpt lat="45.7096785" lon="9.4201467"><ele>319.2</ele><time>2026-04-05T11:46:15.715Z</time></trkpt><trkpt lat="45.7096372" lon="9.4202937"><ele>318.8</ele><time>2026-04-05T11:46:17.715Z</time></trkpt><trkpt lat="45.7095908" lon="9.4204375"><ele>318.4</ele><time>2026-04-05T11:46:19.715Z</time></trkpt><trkpt lat="45.7095511" lon="9.4205735"><ele>318.0</ele><time>2026-04-05T11:46:21.714Z</time></trkpt><trkpt lat="45.7095216" lon="9.4207041"><ele>317.8</ele><time>2026-04-05T11:46:23.714Z</time></trkpt><trkpt lat="45.7094844" lon="9.4208684"><ele>317.6</ele><time>2026-04-05T11:46:25.714Z</time></trkpt><trkpt lat="45.7094425" lon="9.4209569"><ele>317.4</ele><time>2026-04-05T11:46:26.715Z</time></trkpt><trkpt lat="45.70944" lon="9.4211022"><ele>317.2</ele><time>2026-04-05T11:46:28.714Z</time></trkpt><trkpt lat="45.709433" lon="9.4212244"><ele>317.0</ele><time>2026-04-05T11:46:30.715Z</time></trkpt><trkpt lat="45.7094266" lon="9.4213296"><ele>317.6</ele><time>2026-04-05T11:46:32.714Z</time></trkpt><trkpt lat="45.7094194" lon="9.4214524"><ele>318.2</ele><time>2026-04-05T11:46:34.715Z</time></trkpt><trkpt lat="45.7094155" lon="9.4215822"><ele>318.8</ele><time>2026-04-05T11:46:36.714Z</time></trkpt><trkpt lat="45.7093731" lon="9.4217103"><ele>319.4</ele><time>2026-04-05T11:46:38.714Z</time></trkpt><trkpt lat="45.7093104" lon="9.4218571"><ele>320.0</ele><time>2026-04-05T11:46:40.715Z</time></trkpt><trkpt lat="45.7092359" lon="9.421974"><ele>321.6</ele><time>2026-04-05T11:46:42.714Z</time></trkpt><trkpt lat="45.7091645" lon="9.4220789"><ele>323.2</ele><time>2026-04-05T11:46:44.714Z</time></trkpt><trkpt lat="45.7090862" lon="9.42219"><ele>324.79999999999995</ele><time>2026-04-05T11:46:46.714Z</time></trkpt><trkpt lat="45.7090171" lon="9.4222594"><ele>326.4</ele><time>2026-04-05T11:46:48.715Z</time></trkpt><trkpt lat="45.7089246" lon="9.4223169"><ele>328.0</ele><time>2026-04-05T11:46:50.715Z</time></trkpt><trkpt lat="45.7088008" lon="9.4223612"><ele>328.0</ele><time>2026-04-05T11:46:52.715Z</time></trkpt><trkpt lat="45.7086865" lon="9.4223908"><ele>328.0</ele><time>2026-04-05T11:46:54.715Z</time></trkpt><trkpt lat="45.708589" lon="9.4224182"><ele>328.0</ele><time>2026-04-05T11:46:56.715Z</time></trkpt><trkpt lat="45.7084965" lon="9.4224296"><ele>328.0</ele><time>2026-04-05T11:46:58.715Z</time></trkpt><trkpt lat="45.7084154" lon="9.4224844"><ele>328.0</ele><time>2026-04-05T11:47:00.715Z</time></trkpt><trkpt lat="45.7083532" lon="9.4225351"><ele>328.8333333333333</ele><time>2026-04-05T11:47:02.714Z</time></trkpt><trkpt lat="45.7082918" lon="9.4226023"><ele>329.66666666666663</ele><time>2026-04-05T11:47:05.715Z</time></trkpt><trkpt lat="45.7082108" lon="9.4226794"><ele>330.5</ele><time>2026-04-05T11:47:07.714Z</time></trkpt><trkpt lat="45.7081311" lon="9.4227578"><ele>331.3333333333333</ele><time>2026-04-05T11:47:09.715Z</time></trkpt><trkpt lat="45.7080483" lon="9.4228116"><ele>332.1666666666667</ele><time>2026-04-05T11:47:11.715Z</time></trkpt><trkpt lat="45.7079783" lon="9.4228693"><ele>333.0</ele><time>2026-04-05T11:47:13.715Z</time></trkpt><trkpt lat="45.7078865" lon="9.4229001"><ele>333.0</ele><time>2026-04-05T11:47:15.715Z</time></trkpt><trkpt lat="45.7078098" lon="9.4229141"><ele>333.0</ele><time>2026-04-05T11:47:17.715Z</time></trkpt><trkpt lat="45.7076819" lon="9.4228608"><ele>333.0</ele><time>2026-04-05T11:47:19.715Z</time></trkpt><trkpt lat="45.7076142" lon="9.4229214"><ele>333.0</ele><time>2026-04-05T11:47:20.715Z</time></trkpt><trkpt lat="45.7075471" lon="9.4230378"><ele>333.0</ele><time>2026-04-05T11:47:22.715Z</time></trkpt><trkpt lat="45.7074842" lon="9.4231646"><ele>333.3333333333333</ele><time>2026-04-05T11:47:24.715Z</time></trkpt><trkpt lat="45.7074404" lon="9.4232429"><ele>333.6666666666667</ele><time>2026-04-05T11:47:25.714Z</time></trkpt><trkpt lat="45.7073819" lon="9.4233208"><ele>334.0</ele><time>2026-04-05T11:47:26.715Z</time></trkpt><trkpt lat="45.7073359" lon="9.423389"><ele>334.33333333333337</ele><time>2026-04-05T11:47:27.714Z</time></trkpt><trkpt lat="45.7072583" lon="9.4235317"><ele>334.6666666666667</ele><time>2026-04-05T11:47:29.715Z</time></trkpt><trkpt lat="45.7071936" lon="9.423622"><ele>335.0</ele><time>2026-04-05T11:47:30.714Z</time></trkpt><trkpt lat="45.7071677" lon="9.4237187"><ele>333.99999999999994</ele><time>2026-04-05T11:47:31.715Z</time></trkpt><trkpt lat="45.707164" lon="9.4238191"><ele>333.0</ele><time>2026-04-05T11:47:32.715Z</time></trkpt><trkpt lat="45.7071303" lon="9.423925"><ele>332.0</ele><time>2026-04-05T11:47:33.715Z</time></trkpt><trkpt lat="45.7071081" lon="9.4240152"><ele>331.0</ele><time>2026-04-05T11:47:34.714Z</time></trkpt><trkpt lat="45.7070805" lon="9.4241172"><ele>330.0</ele><time>2026-04-05T11:47:35.714Z</time></trkpt><trkpt lat="45.7070468" lon="9.4242248"><ele>328.99999999999994</ele><time>2026-04-05T11:47:36.715Z</time></trkpt><trkpt lat="45.70702" lon="9.4243081"><ele>328.0</ele><time>2026-04-05T11:47:37.715Z</time></trkpt><trkpt lat="45.7069738" lon="9.4244675"><ele>328.0</ele><time>2026-04-05T11:47:39.715Z</time></trkpt><trkpt lat="45.706929" lon="9.4245642"><ele>328.0</ele><time>2026-04-05T11:47:40.715Z</time></trkpt><trkpt lat="45.7068908" lon="9.4247087"><ele>328.0</ele><time>2026-04-05T11:47:42.715Z</time></trkpt><trkpt lat="45.7069096" lon="9.4248638"><ele>328.0</ele><time>2026-04-05T11:47:44.715Z</time></trkpt><trkpt lat="45.7069958" lon="9.4249598"><ele>328.0</ele><time>2026-04-05T11:47:46.715Z</time></trkpt><trkpt lat="45.7070496" lon="9.4250213"><ele>327.25</ele><time>2026-04-05T11:47:47.715Z</time></trkpt><trkpt lat="45.7071505" lon="9.4251356"><ele>326.5</ele><time>2026-04-05T11:47:49.715Z</time></trkpt><trkpt lat="45.7072047" lon="9.425279"><ele>325.75</ele><time>2026-04-05T11:47:51.715Z</time></trkpt><trkpt lat="45.7072233" lon="9.4254436"><ele>325.0</ele><time>2026-04-05T11:47:53.715Z</time></trkpt><trkpt lat="45.7072622" lon="9.4256028"><ele>325.0</ele><time>2026-04-05T11:47:55.715Z</time></trkpt><trkpt lat="45.7072981" lon="9.4256837"><ele>325.0</ele><time>2026-04-05T11:47:56.714Z</time></trkpt><trkpt lat="45.7073876" lon="9.4258243"><ele>325.0</ele><time>2026-04-05T11:47:58.715Z</time></trkpt><trkpt lat="45.7074382" lon="9.4258795"><ele>325.0</ele><time>2026-04-05T11:47:59.715Z</time></trkpt><trkpt lat="45.7075202" lon="9.4260153"><ele>325.0</ele><time>2026-04-05T11:48:01.715Z</time></trkpt><trkpt lat="45.7075591" lon="9.4260967"><ele>325.0</ele><time>2026-04-05T11:48:02.715Z</time></trkpt><trkpt lat="45.7075755" lon="9.4262673"><ele>325.0</ele><time>2026-04-05T11:48:04.715Z</time></trkpt><trkpt lat="45.7075304" lon="9.4264183"><ele>325.0</ele><time>2026-04-05T11:48:06.715Z</time></trkpt><trkpt lat="45.7075037" lon="9.4265708"><ele>325.0</ele><time>2026-04-05T11:48:08.715Z</time></trkpt><trkpt lat="45.7075029" lon="9.4267273"><ele>325.0</ele><time>2026-04-05T11:48:10.715Z</time></trkpt><trkpt lat="45.7075173" lon="9.4268168"><ele>325.0</ele><time>2026-04-05T11:48:11.715Z</time></trkpt><trkpt lat="45.7075372" lon="9.4269235"><ele>325.0</ele><time>2026-04-05T11:48:12.714Z</time></trkpt><trkpt lat="45.7075835" lon="9.4271161"><ele>325.0</ele><time>2026-04-05T11:48:14.715Z</time></trkpt><trkpt lat="45.7076427" lon="9.4272584"><ele>325.0</ele><time>2026-04-05T11:48:16.715Z</time></trkpt><trkpt lat="45.7076496" lon="9.4273531"><ele>325.3333333333333</ele><time>2026-04-05T11:48:17.715Z</time></trkpt><trkpt lat="45.7076503" lon="9.4274649"><ele>325.66666666666663</ele><time>2026-04-05T11:48:18.715Z</time></trkpt><trkpt lat="45.7076193" lon="9.4275526"><ele>326.0</ele><time>2026-04-05T11:48:19.715Z</time></trkpt><trkpt lat="45.7075735" lon="9.4276186"><ele>326.3333333333333</ele><time>2026-04-05T11:48:20.715Z</time></trkpt><trkpt lat="45.7075026" lon="9.427748"><ele>326.6666666666667</ele><time>2026-04-05T11:48:22.715Z</time></trkpt><trkpt lat="45.7074269" lon="9.4278596"><ele>327.0</ele><time>2026-04-05T11:48:24.715Z</time></trkpt><trkpt lat="45.7073417" lon="9.4279586"><ele>327.20000000000005</ele><time>2026-04-05T11:48:26.715Z</time></trkpt><trkpt lat="45.7073944" lon="9.4280782"><ele>327.4</ele><time>2026-04-05T11:48:29.715Z</time></trkpt><trkpt lat="45.7074911" lon="9.4281239"><ele>327.6</ele><time>2026-04-05T11:48:32.715Z</time></trkpt><trkpt lat="45.7076111" lon="9.4281299"><ele>327.79999999999995</ele><time>2026-04-05T11:48:34.715Z</time></trkpt><trkpt lat="45.7077233" lon="9.4281967"><ele>328.0</ele><time>2026-04-05T11:48:36.715Z</time></trkpt><trkpt lat="45.7077945" lon="9.4283483"><ele>328.0</ele><time>2026-04-05T11:48:38.715Z</time></trkpt><trkpt lat="45.7077763" lon="9.4284464"><ele>328.0</ele><time>2026-04-05T11:48:39.715Z</time></trkpt><trkpt lat="45.707764" lon="9.4285566"><ele>328.0</ele><time>2026-04-05T11:48:40.715Z</time></trkpt><trkpt lat="45.7077499" lon="9.4286553"><ele>328.0</ele><time>2026-04-05T11:48:41.715Z</time></trkpt><trkpt lat="45.7077276" lon="9.4287611"><ele>328.0</ele><time>2026-04-05T11:48:42.715Z</time></trkpt><trkpt lat="45.7077044" lon="9.4288763"><ele>328.0</ele><time>2026-04-05T11:48:43.714Z</time></trkpt><trkpt lat="45.7076911" lon="9.4290019"><ele>327.3333333333333</ele><time>2026-04-05T11:48:44.715Z</time></trkpt><trkpt lat="45.7076801" lon="9.4290963"><ele>326.66666666666663</ele><time>2026-04-05T11:48:45.715Z</time></trkpt><trkpt lat="45.7076687" lon="9.4291925"><ele>326.0</ele><time>2026-04-05T11:48:46.715Z</time></trkpt><trkpt lat="45.7076432" lon="9.4293331"><ele>325.3333333333333</ele><time>2026-04-05T11:48:48.714Z</time></trkpt><trkpt lat="45.7075789" lon="9.4294298"><ele>324.6666666666667</ele><time>2026-04-05T11:48:50.715Z</time></trkpt><trkpt lat="45.7074973" lon="9.4295286"><ele>324.0</ele><time>2026-04-05T11:48:52.714Z</time></trkpt><trkpt lat="45.7074219" lon="9.429593"><ele>323.3333333333333</ele><time>2026-04-05T11:48:55.714Z</time></trkpt><trkpt lat="45.7073669" lon="9.4296429"><ele>322.6666666666667</ele><time>2026-04-05T11:48:56.714Z</time></trkpt><trkpt lat="45.7073325" lon="9.4297195"><ele>322.0</ele><time>2026-04-05T11:48:57.715Z</time></trkpt><trkpt lat="45.7072722" lon="9.4297652"><ele>321.33333333333337</ele><time>2026-04-05T11:48:58.715Z</time></trkpt><trkpt lat="45.7072095" lon="9.4298376"><ele>320.6666666666667</ele><time>2026-04-05T11:49:00.714Z</time></trkpt><trkpt lat="45.7071301" lon="9.429923"><ele>320.0</ele><time>2026-04-05T11:49:02.715Z</time></trkpt><trkpt lat="45.7070659" lon="9.4300317"><ele>320.0</ele><time>2026-04-05T11:49:04.714Z</time></trkpt><trkpt lat="45.7070042" lon="9.430068"><ele>320.0</ele><time>2026-04-05T11:49:05.714Z</time></trkpt><trkpt lat="45.7069546" lon="9.430137"><ele>320.0</ele><time>2026-04-05T11:49:07.715Z</time></trkpt><trkpt lat="45.7068701" lon="9.4301665"><ele>320.0</ele><time>2026-04-05T11:49:10.714Z</time></trkpt><trkpt lat="45.7067984" lon="9.4301994"><ele>320.0</ele><time>2026-04-05T11:49:12.715Z</time></trkpt><trkpt lat="45.7067343" lon="9.4302579"><ele>320.0</ele><time>2026-04-05T11:49:14.714Z</time></trkpt><trkpt lat="45.7066623" lon="9.4302842"><ele>320.0</ele><time>2026-04-05T11:49:17.715Z</time></trkpt><trkpt lat="45.7065914" lon="9.4303072"><ele>319.6666666666667</ele><time>2026-04-05T11:49:21.715Z</time></trkpt><trkpt lat="45.7065079" lon="9.430315"><ele>319.33333333333337</ele><time>2026-04-05T11:49:24.714Z</time></trkpt><trkpt lat="45.7064245" lon="9.4302931"><ele>319.0</ele><time>2026-04-05T11:49:27.715Z</time></trkpt><trkpt lat="45.70636" lon="9.4303131"><ele>318.6666666666667</ele><time>2026-04-05T11:49:29.715Z</time></trkpt><trkpt lat="45.7062928" lon="9.4303684"><ele>318.3333333333333</ele><time>2026-04-05T11:49:31.715Z</time></trkpt><trkpt lat="45.706219" lon="9.4304266"><ele>318.0</ele><time>2026-04-05T11:49:33.715Z</time></trkpt><trkpt lat="45.7061438" lon="9.430499"><ele>318.0</ele><time>2026-04-05T11:49:35.715Z</time></trkpt><trkpt lat="45.7060848" lon="9.4305646"><ele>318.0</ele><time>2026-04-05T11:49:36.714Z</time></trkpt><trkpt lat="45.7060159" lon="9.4306458"><ele>318.0</ele><time>2026-04-05T11:49:38.715Z</time></trkpt><trkpt lat="45.7059485" lon="9.4307384"><ele>318.0</ele><time>2026-04-05T11:49:40.715Z</time></trkpt><trkpt lat="45.7058688" lon="9.430862"><ele>318.0</ele><time>2026-04-05T11:49:42.715Z</time></trkpt><trkpt lat="45.7058024" lon="9.4309492"><ele>317.6666666666667</ele><time>2026-04-05T11:49:43.714Z</time></trkpt><trkpt lat="45.7057455" lon="9.4310294"><ele>317.3333333333333</ele><time>2026-04-05T11:49:44.715Z</time></trkpt><trkpt lat="45.7056978" lon="9.4311135"><ele>317.0</ele><time>2026-04-05T11:49:45.714Z</time></trkpt><trkpt lat="45.7056517" lon="9.4312015"><ele>316.66666666666663</ele><time>2026-04-05T11:49:46.715Z</time></trkpt><trkpt lat="45.7055962" lon="9.4312876"><ele>316.3333333333333</ele><time>2026-04-05T11:49:47.714Z</time></trkpt><trkpt lat="45.7055252" lon="9.4313709"><ele>316.0</ele><time>2026-04-05T11:49:48.714Z</time></trkpt><trkpt lat="45.7054843" lon="9.4314467"><ele>316.0</ele><time>2026-04-05T11:49:49.714Z</time></trkpt><trkpt lat="45.705408" lon="9.4315265"><ele>316.0</ele><time>2026-04-05T11:49:50.715Z</time></trkpt><trkpt lat="45.7053515" lon="9.4315989"><ele>316.0</ele><time>2026-04-05T11:49:51.715Z</time></trkpt><trkpt lat="45.7052907" lon="9.4316835"><ele>316.0</ele><time>2026-04-05T11:49:52.715Z</time></trkpt><trkpt lat="45.7052255" lon="9.4317756"><ele>316.0</ele><time>2026-04-05T11:49:53.715Z</time></trkpt><trkpt lat="45.7051381" lon="9.4318595"><ele>315.5</ele><time>2026-04-05T11:49:54.715Z</time></trkpt><trkpt lat="45.7050918" lon="9.4319586"><ele>315.0</ele><time>2026-04-05T11:49:55.715Z</time></trkpt><trkpt lat="45.7050186" lon="9.4320395"><ele>314.5</ele><time>2026-04-05T11:49:56.714Z</time></trkpt><trkpt lat="45.7049562" lon="9.4321167"><ele>314.0</ele><time>2026-04-05T11:49:57.715Z</time></trkpt><trkpt lat="45.7048881" lon="9.4321967"><ele>313.5</ele><time>2026-04-05T11:49:58.715Z</time></trkpt><trkpt lat="45.7048007" lon="9.432257"><ele>313.0</ele><time>2026-04-05T11:49:59.715Z</time></trkpt><trkpt lat="45.7047277" lon="9.4322981"><ele>313.0</ele><time>2026-04-05T11:50:00.715Z</time></trkpt><trkpt lat="45.7046547" lon="9.4323545"><ele>313.0</ele><time>2026-04-05T11:50:01.715Z</time></trkpt><trkpt lat="45.7045846" lon="9.4324044"><ele>313.0</ele><time>2026-04-05T11:50:02.714Z</time></trkpt><trkpt lat="45.7045402" lon="9.4324735"><ele>313.0</ele><time>2026-04-05T11:50:03.715Z</time></trkpt><trkpt lat="45.7044824" lon="9.4325268"><ele>313.0</ele><time>2026-04-05T11:50:04.714Z</time></trkpt><trkpt lat="45.704416" lon="9.4326015"><ele>313.0</ele><time>2026-04-05T11:50:05.715Z</time></trkpt><trkpt lat="45.7043492" lon="9.4326234"><ele>313.0</ele><time>2026-04-05T11:50:06.715Z</time></trkpt><trkpt lat="45.7042805" lon="9.4326527"><ele>312.57142857142856</ele><time>2026-04-05T11:50:07.715Z</time></trkpt><trkpt lat="45.7041871" lon="9.4326814"><ele>312.14285714285717</ele><time>2026-04-05T11:50:08.715Z</time></trkpt><trkpt lat="45.7041227" lon="9.4327005"><ele>311.7142857142857</ele><time>2026-04-05T11:50:09.715Z</time></trkpt><trkpt lat="45.7040535" lon="9.4327294"><ele>311.2857142857143</ele><time>2026-04-05T11:50:10.714Z</time></trkpt><trkpt lat="45.7039877" lon="9.4327497"><ele>310.85714285714283</ele><time>2026-04-05T11:50:11.715Z</time></trkpt><trkpt lat="45.7039141" lon="9.4327794"><ele>310.42857142857144</ele><time>2026-04-05T11:50:12.714Z</time></trkpt><trkpt lat="45.7038495" lon="9.4328163"><ele>310.0</ele><time>2026-04-05T11:50:13.714Z</time></trkpt><trkpt lat="45.7037789" lon="9.4328661"><ele>310.0</ele><time>2026-04-05T11:50:14.715Z</time></trkpt><trkpt lat="45.7037135" lon="9.4329224"><ele>310.0</ele><time>2026-04-05T11:50:15.715Z</time></trkpt><trkpt lat="45.7036395" lon="9.4329708"><ele>310.0</ele><time>2026-04-05T11:50:16.715Z</time></trkpt><trkpt lat="45.7035765" lon="9.4329916"><ele>310.0</ele><time>2026-04-05T11:50:17.715Z</time></trkpt><trkpt lat="45.7035044" lon="9.4330074"><ele>310.0</ele><time>2026-04-05T11:50:18.715Z</time></trkpt><trkpt lat="45.7034352" lon="9.4330505"><ele>310.0</ele><time>2026-04-05T11:50:19.715Z</time></trkpt><trkpt lat="45.7033759" lon="9.4330933"><ele>310.0</ele><time>2026-04-05T11:50:20.714Z</time></trkpt><trkpt lat="45.7033202" lon="9.4331581"><ele>309.2</ele><time>2026-04-05T11:50:21.715Z</time></trkpt><trkpt lat="45.7032455" lon="9.4333062"><ele>308.4</ele><time>2026-04-05T11:50:23.715Z</time></trkpt><trkpt lat="45.7031722" lon="9.4334433"><ele>307.6</ele><time>2026-04-05T11:50:25.715Z</time></trkpt><trkpt lat="45.7030957" lon="9.4335763"><ele>306.8</ele><time>2026-04-05T11:50:27.715Z</time></trkpt><trkpt lat="45.7030546" lon="9.4336497"><ele>306.0</ele><time>2026-04-05T11:50:28.715Z</time></trkpt><trkpt lat="45.7029715" lon="9.4337881"><ele>306.1666666666667</ele><time>2026-04-05T11:50:30.715Z</time></trkpt><trkpt lat="45.7029129" lon="9.4338598"><ele>306.3333333333333</ele><time>2026-04-05T11:50:31.715Z</time></trkpt><trkpt lat="45.7028619" lon="9.4339277"><ele>306.5</ele><time>2026-04-05T11:50:32.714Z</time></trkpt><trkpt lat="45.7027771" lon="9.4340442"><ele>306.66666666666663</ele><time>2026-04-05T11:50:34.715Z</time></trkpt><trkpt lat="45.7027374" lon="9.4341212"><ele>306.8333333333333</ele><time>2026-04-05T11:50:35.715Z</time></trkpt><trkpt lat="45.7026969" lon="9.4341931"><ele>307.0</ele><time>2026-04-05T11:50:36.715Z</time></trkpt><trkpt lat="45.7026612" lon="9.4342677"><ele>306.75</ele><time>2026-04-05T11:50:37.715Z</time></trkpt><trkpt lat="45.7025798" lon="9.4343911"><ele>306.5</ele><time>2026-04-05T11:50:39.714Z</time></trkpt><trkpt lat="45.7025056" lon="9.4345079"><ele>306.25</ele><time>2026-04-05T11:50:41.715Z</time></trkpt><trkpt lat="45.7024452" lon="9.4346468"><ele>306.0</ele><time>2026-04-05T11:50:43.715Z</time></trkpt><trkpt lat="45.7023684" lon="9.4347847"><ele>306.0</ele><time>2026-04-05T11:50:45.715Z</time></trkpt><trkpt lat="45.7023236" lon="9.4348564"><ele>306.0</ele><time>2026-04-05T11:50:46.714Z</time></trkpt><trkpt lat="45.7022616" lon="9.4349788"><ele>306.0</ele><time>2026-04-05T11:50:48.715Z</time></trkpt><trkpt lat="45.7022011" lon="9.435137"><ele>306.0</ele><time>2026-04-05T11:50:50.714Z</time></trkpt><trkpt lat="45.7021504" lon="9.4352069"><ele>306.0</ele><time>2026-04-05T11:50:51.715Z</time></trkpt><trkpt lat="45.7021272" lon="9.435296"><ele>306.0</ele><time>2026-04-05T11:50:52.715Z</time></trkpt><trkpt lat="45.702089" lon="9.4353743"><ele>306.0</ele><time>2026-04-05T11:50:53.715Z</time></trkpt><trkpt lat="45.7020386" lon="9.4355209"><ele>306.0</ele><time>2026-04-05T11:50:55.714Z</time></trkpt><trkpt lat="45.7020038" lon="9.4356748"><ele>306.0</ele><time>2026-04-05T11:50:57.715Z</time></trkpt><trkpt lat="45.7019626" lon="9.4358318"><ele>306.0</ele><time>2026-04-05T11:50:59.714Z</time></trkpt><trkpt lat="45.7018896" lon="9.4359719"><ele>306.1666666666667</ele><time>2026-04-05T11:51:01.714Z</time></trkpt><trkpt lat="45.7018115" lon="9.4361083"><ele>306.3333333333333</ele><time>2026-04-05T11:51:03.715Z</time></trkpt><trkpt lat="45.7017711" lon="9.4361874"><ele>306.5</ele><time>2026-04-05T11:51:04.715Z</time></trkpt><trkpt lat="45.7017351" lon="9.4362751"><ele>306.66666666666663</ele><time>2026-04-05T11:51:05.714Z</time></trkpt><trkpt lat="45.7016901" lon="9.4363539"><ele>306.8333333333333</ele><time>2026-04-05T11:51:06.715Z</time></trkpt><trkpt lat="45.7016454" lon="9.4364268"><ele>307.0</ele><time>2026-04-05T11:51:07.715Z</time></trkpt><trkpt lat="45.7016042" lon="9.436509"><ele>306.71428571428567</ele><time>2026-04-05T11:51:08.715Z</time></trkpt><trkpt lat="45.7015582" lon="9.4365826"><ele>306.42857142857144</ele><time>2026-04-05T11:51:09.714Z</time></trkpt><trkpt lat="45.7015128" lon="9.4366531"><ele>306.1428571428571</ele><time>2026-04-05T11:51:10.715Z</time></trkpt><trkpt lat="45.7014698" lon="9.4367451"><ele>305.85714285714283</ele><time>2026-04-05T11:51:11.715Z</time></trkpt><trkpt lat="45.701438" lon="9.4368368"><ele>305.57142857142856</ele><time>2026-04-05T11:51:12.715Z</time></trkpt><trkpt lat="45.7014018" lon="9.4369296"><ele>305.2857142857143</ele><time>2026-04-05T11:51:13.714Z</time></trkpt><trkpt lat="45.7013717" lon="9.4370245"><ele>305.0</ele><time>2026-04-05T11:51:14.714Z</time></trkpt><trkpt lat="45.7013351" lon="9.4371132"><ele>305.0</ele><time>2026-04-05T11:51:15.715Z</time></trkpt><trkpt lat="45.7013027" lon="9.437197"><ele>305.0</ele><time>2026-04-05T11:51:16.715Z</time></trkpt><trkpt lat="45.7012244" lon="9.4373468"><ele>305.0</ele><time>2026-04-05T11:51:18.715Z</time></trkpt><trkpt lat="45.7011818" lon="9.4374204"><ele>305.0</ele><time>2026-04-05T11:51:19.714Z</time></trkpt><trkpt lat="45.7011089" lon="9.4375559"><ele>305.0</ele><time>2026-04-05T11:51:21.715Z</time></trkpt><trkpt lat="45.7010704" lon="9.4376317"><ele>305.0</ele><time>2026-04-05T11:51:22.715Z</time></trkpt><trkpt lat="45.7009737" lon="9.4377259"><ele>304.8</ele><time>2026-04-05T11:51:24.715Z</time></trkpt><trkpt lat="45.7008583" lon="9.4377407"><ele>304.6</ele><time>2026-04-05T11:51:26.715Z</time></trkpt><trkpt lat="45.7007945" lon="9.4377368"><ele>304.4</ele><time>2026-04-05T11:51:27.714Z</time></trkpt><trkpt lat="45.700701" lon="9.4377383"><ele>304.2</ele><time>2026-04-05T11:51:29.715Z</time></trkpt><trkpt lat="45.7005804" lon="9.4377492"><ele>304.0</ele><time>2026-04-05T11:51:31.714Z</time></trkpt><trkpt lat="45.7004616" lon="9.4377685"><ele>304.0</ele><time>2026-04-05T11:51:33.715Z</time></trkpt><trkpt lat="45.7003717" lon="9.437799"><ele>304.0</ele><time>2026-04-05T11:51:35.714Z</time></trkpt><trkpt lat="45.7003104" lon="9.4378461"><ele>304.0</ele><time>2026-04-05T11:51:36.715Z</time></trkpt><trkpt lat="45.7002126" lon="9.4379126"><ele>304.0</ele><time>2026-04-05T11:51:38.714Z</time></trkpt><trkpt lat="45.7001319" lon="9.4379998"><ele>304.0</ele><time>2026-04-05T11:51:40.715Z</time></trkpt><trkpt lat="45.700076" lon="9.4380703"><ele>304.0</ele><time>2026-04-05T11:51:42.714Z</time></trkpt><trkpt lat="45.6999935" lon="9.4381307"><ele>304.8</ele><time>2026-04-05T11:51:44.715Z</time></trkpt><trkpt lat="45.6998883" lon="9.4381584"><ele>305.59999999999997</ele><time>2026-04-05T11:51:46.715Z</time></trkpt><trkpt lat="45.6998121" lon="9.4381653"><ele>306.4</ele><time>2026-04-05T11:51:48.715Z</time></trkpt><trkpt lat="45.6997205" lon="9.438198"><ele>307.2</ele><time>2026-04-05T11:51:50.715Z</time></trkpt><trkpt lat="45.6996513" lon="9.4382061"><ele>308.0</ele><time>2026-04-05T11:51:51.715Z</time></trkpt><trkpt lat="45.6995464" lon="9.4382468"><ele>308.0</ele><time>2026-04-05T11:51:53.715Z</time></trkpt><trkpt lat="45.6995054" lon="9.4383163"><ele>308.0</ele><time>2026-04-05T11:51:54.715Z</time></trkpt><trkpt lat="45.6993952" lon="9.4384075"><ele>308.0</ele><time>2026-04-05T11:51:56.715Z</time></trkpt><trkpt lat="45.6993083" lon="9.438505"><ele>308.0</ele><time>2026-04-05T11:51:58.715Z</time></trkpt><trkpt lat="45.6992516" lon="9.4386068"><ele>308.0</ele><time>2026-04-05T11:52:00.715Z</time></trkpt><trkpt lat="45.6991887" lon="9.4387435"><ele>307.8</ele><time>2026-04-05T11:52:02.714Z</time></trkpt><trkpt lat="45.6991048" lon="9.4389018"><ele>307.6</ele><time>2026-04-05T11:52:04.715Z</time></trkpt><trkpt lat="45.6990577" lon="9.4389671"><ele>307.4</ele><time>2026-04-05T11:52:05.714Z</time></trkpt><trkpt lat="45.6989937" lon="9.439027"><ele>307.2</ele><time>2026-04-05T11:52:06.715Z</time></trkpt><trkpt lat="45.6989276" lon="9.439146"><ele>307.0</ele><time>2026-04-05T11:52:08.715Z</time></trkpt><trkpt lat="45.6988941" lon="9.4392918"><ele>307.0</ele><time>2026-04-05T11:52:10.715Z</time></trkpt><trkpt lat="45.6988686" lon="9.4394602"><ele>307.0</ele><time>2026-04-05T11:52:12.715Z</time></trkpt><trkpt lat="45.6988272" lon="9.4395468"><ele>307.0</ele><time>2026-04-05T11:52:13.714Z</time></trkpt><trkpt lat="45.6987579" lon="9.439688"><ele>307.0</ele><time>2026-04-05T11:52:15.715Z</time></trkpt><trkpt lat="45.6986652" lon="9.4398293"><ele>306.8</ele><time>2026-04-05T11:52:17.715Z</time></trkpt><trkpt lat="45.6986153" lon="9.4399844"><ele>306.6</ele><time>2026-04-05T11:52:19.714Z</time></trkpt><trkpt lat="45.6985498" lon="9.4401233"><ele>306.40000000000003</ele><time>2026-04-05T11:52:21.715Z</time></trkpt><trkpt lat="45.6985084" lon="9.4402722"><ele>306.2</ele><time>2026-04-05T11:52:23.714Z</time></trkpt><trkpt lat="45.6984486" lon="9.4403512"><ele>306.0</ele><time>2026-04-05T11:52:26.715Z</time></trkpt><trkpt lat="45.6983365" lon="9.4403889"><ele>306.6</ele><time>2026-04-05T11:52:29.714Z</time></trkpt><trkpt lat="45.6982182" lon="9.4403936"><ele>307.20000000000005</ele><time>2026-04-05T11:52:31.715Z</time></trkpt><trkpt lat="45.6980833" lon="9.4404456"><ele>307.79999999999995</ele><time>2026-04-05T11:52:33.715Z</time></trkpt><trkpt lat="45.697993" lon="9.4404768"><ele>308.4</ele><time>2026-04-05T11:52:34.715Z</time></trkpt><trkpt lat="45.6979082" lon="9.4405076"><ele>309.0</ele><time>2026-04-05T11:52:35.715Z</time></trkpt><trkpt lat="45.6978342" lon="9.4405335"><ele>308.3333333333333</ele><time>2026-04-05T11:52:36.715Z</time></trkpt><trkpt lat="45.6977518" lon="9.4405488"><ele>307.6666666666667</ele><time>2026-04-05T11:52:37.714Z</time></trkpt><trkpt lat="45.69767" lon="9.440586"><ele>307.0</ele><time>2026-04-05T11:52:38.715Z</time></trkpt><trkpt lat="45.6975737" lon="9.4405984"><ele>306.33333333333337</ele><time>2026-04-05T11:52:39.715Z</time></trkpt><trkpt lat="45.6975043" lon="9.440607"><ele>305.6666666666667</ele><time>2026-04-05T11:52:40.715Z</time></trkpt><trkpt lat="45.6974329" lon="9.4406016"><ele>305.0</ele><time>2026-04-05T11:52:41.715Z</time></trkpt><trkpt lat="45.6973672" lon="9.4406127"><ele>305.0</ele><time>2026-04-05T11:52:42.715Z</time></trkpt><trkpt lat="45.6972936" lon="9.4406257"><ele>305.0</ele><time>2026-04-05T11:52:43.714Z</time></trkpt><trkpt lat="45.6972251" lon="9.4406696"><ele>305.0</ele><time>2026-04-05T11:52:44.715Z</time></trkpt><trkpt lat="45.6971445" lon="9.4407216"><ele>305.0</ele><time>2026-04-05T11:52:45.715Z</time></trkpt><trkpt lat="45.6970553" lon="9.4407546"><ele>305.0</ele><time>2026-04-05T11:52:46.715Z</time></trkpt><trkpt lat="45.6969436" lon="9.4407731"><ele>305.0</ele><time>2026-04-05T11:52:47.715Z</time></trkpt><trkpt lat="45.6968593" lon="9.440795"><ele>303.5</ele><time>2026-04-05T11:52:48.715Z</time></trkpt><trkpt lat="45.6967701" lon="9.4408071"><ele>302.0</ele><time>2026-04-05T11:52:49.715Z</time></trkpt><trkpt lat="45.6966812" lon="9.4408125"><ele>300.5</ele><time>2026-04-05T11:52:50.714Z</time></trkpt><trkpt lat="45.6965819" lon="9.4408279"><ele>299.0</ele><time>2026-04-05T11:52:51.715Z</time></trkpt><trkpt lat="45.6964996" lon="9.4408293"><ele>297.5</ele><time>2026-04-05T11:52:52.715Z</time></trkpt><trkpt lat="45.6964134" lon="9.4408375"><ele>296.0</ele><time>2026-04-05T11:52:53.715Z</time></trkpt><trkpt lat="45.6963302" lon="9.4408429"><ele>296.0</ele><time>2026-04-05T11:52:54.715Z</time></trkpt><trkpt lat="45.6962385" lon="9.4408581"><ele>296.0</ele><time>2026-04-05T11:52:55.715Z</time></trkpt><trkpt lat="45.696147" lon="9.4408725"><ele>296.0</ele><time>2026-04-05T11:52:56.715Z</time></trkpt><trkpt lat="45.6960599" lon="9.4408744"><ele>296.0</ele><time>2026-04-05T11:52:57.715Z</time></trkpt><trkpt lat="45.6959576" lon="9.440881"><ele>296.0</ele><time>2026-04-05T11:52:58.714Z</time></trkpt><trkpt lat="45.6958671" lon="9.4408857"><ele>295.2</ele><time>2026-04-05T11:52:59.715Z</time></trkpt><trkpt lat="45.6957704" lon="9.4408909"><ele>294.40000000000003</ele><time>2026-04-05T11:53:00.715Z</time></trkpt><trkpt lat="45.6956707" lon="9.4408931"><ele>293.6</ele><time>2026-04-05T11:53:01.714Z</time></trkpt><trkpt lat="45.6955621" lon="9.4408833"><ele>292.8</ele><time>2026-04-05T11:53:02.715Z</time></trkpt><trkpt lat="45.6954617" lon="9.4408644"><ele>292.0</ele><time>2026-04-05T11:53:03.715Z</time></trkpt><trkpt lat="45.695351" lon="9.4408521"><ele>292.0</ele><time>2026-04-05T11:53:04.715Z</time></trkpt><trkpt lat="45.6952636" lon="9.4408196"><ele>292.0</ele><time>2026-04-05T11:53:05.715Z</time></trkpt><trkpt lat="45.6951653" lon="9.440801"><ele>292.0</ele><time>2026-04-05T11:53:06.715Z</time></trkpt><trkpt lat="45.6950619" lon="9.4407975"><ele>292.0</ele><time>2026-04-05T11:53:07.715Z</time></trkpt><trkpt lat="45.6949657" lon="9.4408041"><ele>292.0</ele><time>2026-04-05T11:53:08.715Z</time></trkpt><trkpt lat="45.6948731" lon="9.4408272"><ele>290.8</ele><time>2026-04-05T11:53:09.714Z</time></trkpt><trkpt lat="45.6947869" lon="9.4408727"><ele>289.6</ele><time>2026-04-05T11:53:10.714Z</time></trkpt><trkpt lat="45.6947085" lon="9.4409126"><ele>288.40000000000003</ele><time>2026-04-05T11:53:11.715Z</time></trkpt><trkpt lat="45.6946155" lon="9.4409691"><ele>287.2</ele><time>2026-04-05T11:53:12.715Z</time></trkpt><trkpt lat="45.6945339" lon="9.4410249"><ele>286.0</ele><time>2026-04-05T11:53:13.715Z</time></trkpt><trkpt lat="45.6944516" lon="9.4410809"><ele>285.2</ele><time>2026-04-05T11:53:14.715Z</time></trkpt><trkpt lat="45.6943691" lon="9.4411286"><ele>284.40000000000003</ele><time>2026-04-05T11:53:15.715Z</time></trkpt><trkpt lat="45.6942677" lon="9.4411635"><ele>283.6</ele><time>2026-04-05T11:53:16.715Z</time></trkpt><trkpt lat="45.6941956" lon="9.4411962"><ele>282.8</ele><time>2026-04-05T11:53:17.715Z</time></trkpt><trkpt lat="45.6941055" lon="9.4412411"><ele>282.0</ele><time>2026-04-05T11:53:18.715Z</time></trkpt><trkpt lat="45.6940131" lon="9.4412644"><ele>282.1666666666667</ele><time>2026-04-05T11:53:19.715Z</time></trkpt><trkpt lat="45.6939288" lon="9.4413103"><ele>282.3333333333333</ele><time>2026-04-05T11:53:20.715Z</time></trkpt><trkpt lat="45.6938452" lon="9.4413338"><ele>282.5</ele><time>2026-04-05T11:53:21.715Z</time></trkpt><trkpt lat="45.6937697" lon="9.4413661"><ele>282.66666666666663</ele><time>2026-04-05T11:53:22.715Z</time></trkpt><trkpt lat="45.6936967" lon="9.4413889"><ele>282.8333333333333</ele><time>2026-04-05T11:53:23.715Z</time></trkpt><trkpt lat="45.6936084" lon="9.4414138"><ele>283.0</ele><time>2026-04-05T11:53:24.714Z</time></trkpt><trkpt lat="45.6935128" lon="9.4414458"><ele>282.6</ele><time>2026-04-05T11:53:25.715Z</time></trkpt><trkpt lat="45.693428" lon="9.4414816"><ele>282.20000000000005</ele><time>2026-04-05T11:53:26.715Z</time></trkpt><trkpt lat="45.6933306" lon="9.4415022"><ele>281.8</ele><time>2026-04-05T11:53:27.715Z</time></trkpt><trkpt lat="45.6932418" lon="9.4415462"><ele>281.40000000000003</ele><time>2026-04-05T11:53:28.714Z</time></trkpt><trkpt lat="45.6931448" lon="9.4415793"><ele>281.0</ele><time>2026-04-05T11:53:29.715Z</time></trkpt><trkpt lat="45.6930646" lon="9.4416013"><ele>281.0</ele><time>2026-04-05T11:53:30.715Z</time></trkpt><trkpt lat="45.6929679" lon="9.4416262"><ele>281.0</ele><time>2026-04-05T11:53:31.715Z</time></trkpt><trkpt lat="45.6928715" lon="9.4416588"><ele>281.0</ele><time>2026-04-05T11:53:32.715Z</time></trkpt><trkpt lat="45.6927838" lon="9.4416904"><ele>281.0</ele><time>2026-04-05T11:53:33.715Z</time></trkpt><trkpt lat="45.6927197" lon="9.4417175"><ele>281.0</ele><time>2026-04-05T11:53:34.714Z</time></trkpt><trkpt lat="45.6926359" lon="9.4417329"><ele>281.0</ele><time>2026-04-05T11:53:35.714Z</time></trkpt><trkpt lat="45.6925643" lon="9.441748"><ele>280.0</ele><time>2026-04-05T11:53:36.714Z</time></trkpt><trkpt lat="45.6924897" lon="9.4417638"><ele>279.0</ele><time>2026-04-05T11:53:37.715Z</time></trkpt><trkpt lat="45.6924009" lon="9.4417859"><ele>278.0</ele><time>2026-04-05T11:53:38.715Z</time></trkpt><trkpt lat="45.6922844" lon="9.4417585"><ele>277.0</ele><time>2026-04-05T11:53:40.714Z</time></trkpt><trkpt lat="45.6922121" lon="9.4417607"><ele>276.0</ele><time>2026-04-05T11:53:41.715Z</time></trkpt><trkpt lat="45.6921426" lon="9.4417553"><ele>275.0</ele><time>2026-04-05T11:53:42.715Z</time></trkpt><trkpt lat="45.6920094" lon="9.4417345"><ele>274.6666666666667</ele><time>2026-04-05T11:53:44.714Z</time></trkpt><trkpt lat="45.691923" lon="9.4417165"><ele>274.33333333333337</ele><time>2026-04-05T11:53:45.714Z</time></trkpt><trkpt lat="45.6918564" lon="9.4417036"><ele>274.0</ele><time>2026-04-05T11:53:46.715Z</time></trkpt><trkpt lat="45.6917799" lon="9.4417155"><ele>273.6666666666667</ele><time>2026-04-05T11:53:47.715Z</time></trkpt><trkpt lat="45.6917168" lon="9.4417077"><ele>273.3333333333333</ele><time>2026-04-05T11:53:48.715Z</time></trkpt><trkpt lat="45.6916093" lon="9.4416966"><ele>273.0</ele><time>2026-04-05T11:53:50.715Z</time></trkpt><trkpt lat="45.6915034" lon="9.4418055"><ele>273.0</ele><time>2026-04-05T11:53:52.715Z</time></trkpt><trkpt lat="45.6914733" lon="9.4418917"><ele>273.0</ele><time>2026-04-05T11:53:53.715Z</time></trkpt><trkpt lat="45.691372" lon="9.4419803"><ele>273.0</ele><time>2026-04-05T11:53:55.714Z</time></trkpt><trkpt lat="45.6912457" lon="9.4420315"><ele>273.0</ele><time>2026-04-05T11:53:57.715Z</time></trkpt><trkpt lat="45.69114" lon="9.4420757"><ele>273.0</ele><time>2026-04-05T11:53:59.715Z</time></trkpt><trkpt lat="45.6910715" lon="9.4421263"><ele>274.25</ele><time>2026-04-05T11:54:01.715Z</time></trkpt><trkpt lat="45.6909449" lon="9.4421461"><ele>275.5</ele><time>2026-04-05T11:54:03.715Z</time></trkpt><trkpt lat="45.6908332" lon="9.4421913"><ele>276.75</ele><time>2026-04-05T11:54:05.715Z</time></trkpt><trkpt lat="45.6907363" lon="9.4422479"><ele>278.0</ele><time>2026-04-05T11:54:07.714Z</time></trkpt><trkpt lat="45.6906282" lon="9.4423231"><ele>278.0</ele><time>2026-04-05T11:54:09.715Z</time></trkpt><trkpt lat="45.6905143" lon="9.4424284"><ele>278.0</ele><time>2026-04-05T11:54:11.715Z</time></trkpt><trkpt lat="45.690403" lon="9.4425164"><ele>278.0</ele><time>2026-04-05T11:54:13.715Z</time></trkpt><trkpt lat="45.690281" lon="9.4425775"><ele>278.0</ele><time>2026-04-05T11:54:15.715Z</time></trkpt><trkpt lat="45.6902202" lon="9.4426227"><ele>276.75</ele><time>2026-04-05T11:54:16.715Z</time></trkpt><trkpt lat="45.6901536" lon="9.442673"><ele>275.5</ele><time>2026-04-05T11:54:17.715Z</time></trkpt><trkpt lat="45.690041" lon="9.4427595"><ele>274.25</ele><time>2026-04-05T11:54:19.715Z</time></trkpt><trkpt lat="45.6899257" lon="9.4428519"><ele>273.0</ele><time>2026-04-05T11:54:21.714Z</time></trkpt><trkpt lat="45.6898103" lon="9.4429468"><ele>273.4</ele><time>2026-04-05T11:54:23.715Z</time></trkpt><trkpt lat="45.68971" lon="9.4430474"><ele>273.8</ele><time>2026-04-05T11:54:25.714Z</time></trkpt><trkpt lat="45.6896558" lon="9.4431106"><ele>274.2</ele><time>2026-04-05T11:54:26.715Z</time></trkpt><trkpt lat="45.6895455" lon="9.4431863"><ele>274.6</ele><time>2026-04-05T11:54:28.715Z</time></trkpt><trkpt lat="45.6894776" lon="9.4432495"><ele>275.0</ele><time>2026-04-05T11:54:29.715Z</time></trkpt><trkpt lat="45.6894129" lon="9.4433024"><ele>275.0</ele><time>2026-04-05T11:54:30.715Z</time></trkpt><trkpt lat="45.6893539" lon="9.4433505"><ele>275.0</ele><time>2026-04-05T11:54:31.715Z</time></trkpt><trkpt lat="45.6892947" lon="9.4434026"><ele>275.0</ele><time>2026-04-05T11:54:32.714Z</time></trkpt><trkpt lat="45.6891933" lon="9.4434882"><ele>275.0</ele><time>2026-04-05T11:54:34.714Z</time></trkpt><trkpt lat="45.6891168" lon="9.4435462"><ele>275.0</ele><time>2026-04-05T11:54:35.715Z</time></trkpt><trkpt lat="45.6890469" lon="9.4436019"><ele>275.0</ele><time>2026-04-05T11:54:36.715Z</time></trkpt><trkpt lat="45.6889416" lon="9.4436944"><ele>275.1666666666667</ele><time>2026-04-05T11:54:38.715Z</time></trkpt><trkpt lat="45.6888202" lon="9.4438083"><ele>275.33333333333337</ele><time>2026-04-05T11:54:40.715Z</time></trkpt><trkpt lat="45.6887644" lon="9.4438548"><ele>275.5</ele><time>2026-04-05T11:54:41.715Z</time></trkpt><trkpt lat="45.6886989" lon="9.4439368"><ele>275.6666666666667</ele><time>2026-04-05T11:54:43.715Z</time></trkpt><trkpt lat="45.6886308" lon="9.4439812"><ele>275.8333333333333</ele><time>2026-04-05T11:54:44.715Z</time></trkpt><trkpt lat="45.6885665" lon="9.4440248"><ele>276.0</ele><time>2026-04-05T11:54:45.714Z</time></trkpt><trkpt lat="45.6884947" lon="9.4440676"><ele>276.0</ele><time>2026-04-05T11:54:46.715Z</time></trkpt><trkpt lat="45.6883838" lon="9.4441757"><ele>276.0</ele><time>2026-04-05T11:54:48.715Z</time></trkpt><trkpt lat="45.6883298" lon="9.4442278"><ele>276.0</ele><time>2026-04-05T11:54:49.715Z</time></trkpt><trkpt lat="45.6882394" lon="9.444309"><ele>276.0</ele><time>2026-04-05T11:54:51.715Z</time></trkpt><trkpt lat="45.688174" lon="9.4443755"><ele>276.0</ele><time>2026-04-05T11:54:52.714Z</time></trkpt><trkpt lat="45.688062" lon="9.4444833"><ele>276.0</ele><time>2026-04-05T11:54:54.715Z</time></trkpt><trkpt lat="45.6879573" lon="9.4445815"><ele>276.0</ele><time>2026-04-05T11:54:56.715Z</time></trkpt><trkpt lat="45.687866" lon="9.4446647"><ele>276.0</ele><time>2026-04-05T11:54:58.715Z</time></trkpt><trkpt lat="45.6877944" lon="9.4447183"><ele>276.0</ele><time>2026-04-05T11:54:59.714Z</time></trkpt><trkpt lat="45.687733" lon="9.4447414"><ele>276.0</ele><time>2026-04-05T11:55:00.715Z</time></trkpt><trkpt lat="45.6876614" lon="9.4447895"><ele>275.8571428571429</ele><time>2026-04-05T11:55:01.715Z</time></trkpt><trkpt lat="45.687597" lon="9.4448603"><ele>275.7142857142857</ele><time>2026-04-05T11:55:02.715Z</time></trkpt><trkpt lat="45.6875336" lon="9.4449157"><ele>275.57142857142856</ele><time>2026-04-05T11:55:03.715Z</time></trkpt><trkpt lat="45.687465" lon="9.4449515"><ele>275.42857142857144</ele><time>2026-04-05T11:55:04.715Z</time></trkpt><trkpt lat="45.6874096" lon="9.4450058"><ele>275.2857142857143</ele><time>2026-04-05T11:55:05.715Z</time></trkpt><trkpt lat="45.6873271" lon="9.4450411"><ele>275.14285714285717</ele><time>2026-04-05T11:55:06.715Z</time></trkpt><trkpt lat="45.6872682" lon="9.4450786"><ele>275.0</ele><time>2026-04-05T11:55:07.714Z</time></trkpt><trkpt lat="45.687196" lon="9.4451119"><ele>275.0</ele><time>2026-04-05T11:55:08.715Z</time></trkpt><trkpt lat="45.6871199" lon="9.4451351"><ele>275.0</ele><time>2026-04-05T11:55:09.715Z</time></trkpt><trkpt lat="45.687051" lon="9.4451518"><ele>275.0</ele><time>2026-04-05T11:55:10.714Z</time></trkpt><trkpt lat="45.6869834" lon="9.4451634"><ele>275.0</ele><time>2026-04-05T11:55:11.715Z</time></trkpt><trkpt lat="45.6868736" lon="9.445214"><ele>275.0</ele><time>2026-04-05T11:55:13.714Z</time></trkpt><trkpt lat="45.6867803" lon="9.4452477"><ele>275.0</ele><time>2026-04-05T11:55:15.714Z</time></trkpt><trkpt lat="45.6867031" lon="9.445255"><ele>274.8571428571429</ele><time>2026-04-05T11:55:16.715Z</time></trkpt><trkpt lat="45.6866395" lon="9.4452297"><ele>274.7142857142857</ele><time>2026-04-05T11:55:17.715Z</time></trkpt><trkpt lat="45.6865726" lon="9.4452238"><ele>274.57142857142856</ele><time>2026-04-05T11:55:18.715Z</time></trkpt><trkpt lat="45.6864959" lon="9.4452081"><ele>274.42857142857144</ele><time>2026-04-05T11:55:19.714Z</time></trkpt><trkpt lat="45.6864187" lon="9.4451806"><ele>274.2857142857143</ele><time>2026-04-05T11:55:20.715Z</time></trkpt><trkpt lat="45.6863395" lon="9.4451687"><ele>274.14285714285717</ele><time>2026-04-05T11:55:21.715Z</time></trkpt><trkpt lat="45.6862739" lon="9.4451583"><ele>274.0</ele><time>2026-04-05T11:55:22.715Z</time></trkpt><trkpt lat="45.6862073" lon="9.4451427"><ele>274.0</ele><time>2026-04-05T11:55:23.714Z</time></trkpt><trkpt lat="45.6861331" lon="9.4451313"><ele>274.0</ele><time>2026-04-05T11:55:24.715Z</time></trkpt><trkpt lat="45.6860054" lon="9.4451108"><ele>274.0</ele><time>2026-04-05T11:55:26.715Z</time></trkpt><trkpt lat="45.685927" lon="9.4450974"><ele>274.0</ele><time>2026-04-05T11:55:27.715Z</time></trkpt><trkpt lat="45.685861" lon="9.4450711"><ele>274.0</ele><time>2026-04-05T11:55:28.714Z</time></trkpt><trkpt lat="45.6857986" lon="9.4450478"><ele>274.0</ele><time>2026-04-05T11:55:29.714Z</time></trkpt><trkpt lat="45.6857213" lon="9.4450317"><ele>273.8571428571429</ele><time>2026-04-05T11:55:30.715Z</time></trkpt><trkpt lat="45.6856445" lon="9.4450144"><ele>273.7142857142857</ele><time>2026-04-05T11:55:31.715Z</time></trkpt><trkpt lat="45.6855782" lon="9.4450023"><ele>273.57142857142856</ele><time>2026-04-05T11:55:32.715Z</time></trkpt><trkpt lat="45.6855072" lon="9.4449859"><ele>273.42857142857144</ele><time>2026-04-05T11:55:33.715Z</time></trkpt><trkpt lat="45.6854439" lon="9.4449658"><ele>273.2857142857143</ele><time>2026-04-05T11:55:34.714Z</time></trkpt><trkpt lat="45.6853727" lon="9.4449451"><ele>273.14285714285717</ele><time>2026-04-05T11:55:35.715Z</time></trkpt><trkpt lat="45.6852973" lon="9.4449296"><ele>273.0</ele><time>2026-04-05T11:55:36.715Z</time></trkpt><trkpt lat="45.6852254" lon="9.4449121"><ele>273.0</ele><time>2026-04-05T11:55:37.715Z</time></trkpt><trkpt lat="45.6851549" lon="9.4448887"><ele>273.0</ele><time>2026-04-05T11:55:38.715Z</time></trkpt><trkpt lat="45.6850836" lon="9.4448673"><ele>273.0</ele><time>2026-04-05T11:55:39.715Z</time></trkpt><trkpt lat="45.6850029" lon="9.4448561"><ele>273.0</ele><time>2026-04-05T11:55:40.715Z</time></trkpt><trkpt lat="45.6849256" lon="9.4448412"><ele>273.0</ele><time>2026-04-05T11:55:41.715Z</time></trkpt><trkpt lat="45.6848538" lon="9.4448273"><ele>273.0</ele><time>2026-04-05T11:55:42.715Z</time></trkpt><trkpt lat="45.684784" lon="9.4448006"><ele>273.0</ele><time>2026-04-05T11:55:43.714Z</time></trkpt><trkpt lat="45.68472" lon="9.4447781"><ele>273.0</ele><time>2026-04-05T11:55:44.715Z</time></trkpt><trkpt lat="45.6846575" lon="9.4447466"><ele>273.0</ele><time>2026-04-05T11:55:45.715Z</time></trkpt><trkpt lat="45.6845927" lon="9.4447066"><ele>273.0</ele><time>2026-04-05T11:55:46.714Z</time></trkpt><trkpt lat="45.6845256" lon="9.4446677"><ele>273.0</ele><time>2026-04-05T11:55:47.715Z</time></trkpt><trkpt lat="45.6844575" lon="9.4446421"><ele>273.0</ele><time>2026-04-05T11:55:48.715Z</time></trkpt><trkpt lat="45.6843983" lon="9.4446111"><ele>273.0</ele><time>2026-04-05T11:55:49.714Z</time></trkpt><trkpt lat="45.6843294" lon="9.4445994"><ele>273.0</ele><time>2026-04-05T11:55:50.715Z</time></trkpt><trkpt lat="45.6842593" lon="9.4446053"><ele>273.14285714285717</ele><time>2026-04-05T11:55:51.715Z</time></trkpt><trkpt lat="45.6841892" lon="9.444596"><ele>273.2857142857143</ele><time>2026-04-05T11:55:52.715Z</time></trkpt><trkpt lat="45.6841245" lon="9.4445944"><ele>273.42857142857144</ele><time>2026-04-05T11:55:53.714Z</time></trkpt><trkpt lat="45.6840576" lon="9.4445904"><ele>273.57142857142856</ele><time>2026-04-05T11:55:54.715Z</time></trkpt><trkpt lat="45.6839893" lon="9.4445928"><ele>273.7142857142857</ele><time>2026-04-05T11:55:55.715Z</time></trkpt><trkpt lat="45.6839198" lon="9.4446125"><ele>273.8571428571429</ele><time>2026-04-05T11:55:56.715Z</time></trkpt><trkpt lat="45.6838559" lon="9.4445941"><ele>274.0</ele><time>2026-04-05T11:55:57.714Z</time></trkpt><trkpt lat="45.6837816" lon="9.444583"><ele>274.0</ele><time>2026-04-05T11:55:58.715Z</time></trkpt><trkpt lat="45.6836609" lon="9.4445528"><ele>274.0</ele><time>2026-04-05T11:56:00.714Z</time></trkpt><trkpt lat="45.6835548" lon="9.4445209"><ele>274.0</ele><time>2026-04-05T11:56:02.715Z</time></trkpt><trkpt lat="45.6834456" lon="9.4445112"><ele>274.0</ele><time>2026-04-05T11:56:04.715Z</time></trkpt><trkpt lat="45.6833434" lon="9.4444987"><ele>274.0</ele><time>2026-04-05T11:56:06.715Z</time></trkpt><trkpt lat="45.6832745" lon="9.4444902"><ele>274.0</ele><time>2026-04-05T11:56:38.715Z</time></trkpt><trkpt lat="45.6831989" lon="9.4444906"><ele>274.0</ele><time>2026-04-05T11:56:40.715Z</time></trkpt><trkpt lat="45.6830614" lon="9.4445147"><ele>274.0</ele><time>2026-04-05T11:56:42.715Z</time></trkpt><trkpt lat="45.6829644" lon="9.4445219"><ele>274.0</ele><time>2026-04-05T11:56:44.715Z</time></trkpt><trkpt lat="45.6829011" lon="9.4445319"><ele>274.0</ele><time>2026-04-05T11:56:45.714Z</time></trkpt><trkpt lat="45.6827982" lon="9.4445604"><ele>273.59999999999997</ele><time>2026-04-05T11:56:47.715Z</time></trkpt><trkpt lat="45.6826818" lon="9.4445712"><ele>273.2</ele><time>2026-04-05T11:56:49.715Z</time></trkpt><trkpt lat="45.6825798" lon="9.4445664"><ele>272.79999999999995</ele><time>2026-04-05T11:56:51.715Z</time></trkpt><trkpt lat="45.6824644" lon="9.4446313"><ele>272.4</ele><time>2026-04-05T11:56:52.715Z</time></trkpt><trkpt lat="45.6823708" lon="9.4446488"><ele>272.0</ele><time>2026-04-05T11:56:53.714Z</time></trkpt><trkpt lat="45.6823061" lon="9.4446549"><ele>272.0</ele><time>2026-04-05T11:56:54.715Z</time></trkpt><trkpt lat="45.6821652" lon="9.4446785"><ele>272.0</ele><time>2026-04-05T11:56:56.715Z</time></trkpt><trkpt lat="45.6820625" lon="9.4447571"><ele>272.0</ele><time>2026-04-05T11:56:58.715Z</time></trkpt><trkpt lat="45.6819893" lon="9.4446736"><ele>272.0</ele><time>2026-04-05T11:56:59.715Z</time></trkpt><trkpt lat="45.6818768" lon="9.4446908"><ele>272.0</ele><time>2026-04-05T11:57:01.715Z</time></trkpt><trkpt lat="45.6817754" lon="9.4447052"><ele>272.0</ele><time>2026-04-05T11:57:04.715Z</time></trkpt><trkpt lat="45.6816891" lon="9.4447092"><ele>272.0</ele><time>2026-04-05T11:57:06.715Z</time></trkpt><trkpt lat="45.6816049" lon="9.4447569"><ele>272.0</ele><time>2026-04-05T11:57:08.715Z</time></trkpt><trkpt lat="45.6814664" lon="9.444709"><ele>272.0</ele><time>2026-04-05T11:57:11.715Z</time></trkpt><trkpt lat="45.6813846" lon="9.4446995"><ele>272.0</ele><time>2026-04-05T11:57:12.715Z</time></trkpt><trkpt lat="45.6812564" lon="9.4446566"><ele>272.0</ele><time>2026-04-05T11:57:14.714Z</time></trkpt><trkpt lat="45.6811419" lon="9.4446413"><ele>272.0</ele><time>2026-04-05T11:57:16.715Z</time></trkpt><trkpt lat="45.6810771" lon="9.4446183"><ele>272.0</ele><time>2026-04-05T11:57:17.715Z</time></trkpt><trkpt lat="45.6809634" lon="9.4446261"><ele>272.0</ele><time>2026-04-05T11:57:19.715Z</time></trkpt><trkpt lat="45.6808343" lon="9.4445046"><ele>272.2</ele><time>2026-04-05T11:57:21.714Z</time></trkpt><trkpt lat="45.6807696" lon="9.4444702"><ele>272.4</ele><time>2026-04-05T11:57:22.715Z</time></trkpt><trkpt lat="45.6806312" lon="9.4444574"><ele>272.6</ele><time>2026-04-05T11:57:24.714Z</time></trkpt><trkpt lat="45.6805203" lon="9.4444481"><ele>272.8</ele><time>2026-04-05T11:57:26.715Z</time></trkpt><trkpt lat="45.6804224" lon="9.4444338"><ele>273.0</ele><time>2026-04-05T11:57:28.715Z</time></trkpt><trkpt lat="45.6803586" lon="9.4444244"><ele>272.4</ele><time>2026-04-05T11:57:29.715Z</time></trkpt><trkpt lat="45.6802521" lon="9.444439"><ele>271.8</ele><time>2026-04-05T11:57:31.714Z</time></trkpt><trkpt lat="45.6801574" lon="9.4444749"><ele>271.2</ele><time>2026-04-05T11:57:32.715Z</time></trkpt><trkpt lat="45.6800752" lon="9.4444693"><ele>270.6</ele><time>2026-04-05T11:57:33.715Z</time></trkpt><trkpt lat="45.6799766" lon="9.4443763"><ele>270.0</ele><time>2026-04-05T11:57:35.715Z</time></trkpt><trkpt lat="45.679889" lon="9.4443499"><ele>270.0</ele><time>2026-04-05T11:57:36.715Z</time></trkpt><trkpt lat="45.679766" lon="9.4443469"><ele>270.0</ele><time>2026-04-05T11:57:38.715Z</time></trkpt><trkpt lat="45.6796954" lon="9.4443109"><ele>270.0</ele><time>2026-04-05T11:57:39.715Z</time></trkpt><trkpt lat="45.679579" lon="9.4442607"><ele>270.0</ele><time>2026-04-05T11:57:41.715Z</time></trkpt><trkpt lat="45.6795083" lon="9.4442509"><ele>270.0</ele><time>2026-04-05T11:57:42.715Z</time></trkpt><trkpt lat="45.6794435" lon="9.4442527"><ele>269.4</ele><time>2026-04-05T11:57:43.715Z</time></trkpt><trkpt lat="45.6793788" lon="9.4442479"><ele>268.8</ele><time>2026-04-05T11:57:44.714Z</time></trkpt><trkpt lat="45.6792506" lon="9.4442298"><ele>268.2</ele><time>2026-04-05T11:57:46.715Z</time></trkpt><trkpt lat="45.6791474" lon="9.4441716"><ele>267.6</ele><time>2026-04-05T11:57:48.715Z</time></trkpt><trkpt lat="45.6790129" lon="9.4441426"><ele>267.0</ele><time>2026-04-05T11:57:50.714Z</time></trkpt><trkpt lat="45.678943" lon="9.444139"><ele>267.0</ele><time>2026-04-05T11:57:51.715Z</time></trkpt><trkpt lat="45.6788589" lon="9.4441193"><ele>267.0</ele><time>2026-04-05T11:57:52.715Z</time></trkpt><trkpt lat="45.6787875" lon="9.4441315"><ele>267.0</ele><time>2026-04-05T11:57:53.715Z</time></trkpt><trkpt lat="45.6787163" lon="9.44412"><ele>267.0</ele><time>2026-04-05T11:57:54.715Z</time></trkpt><trkpt lat="45.6786453" lon="9.444089"><ele>267.0</ele><time>2026-04-05T11:57:55.715Z</time></trkpt><trkpt lat="45.6785629" lon="9.4440626"><ele>267.0</ele><time>2026-04-05T11:57:56.715Z</time></trkpt><trkpt lat="45.6784962" lon="9.4440497"><ele>267.0</ele><time>2026-04-05T11:57:57.715Z</time></trkpt><trkpt lat="45.6784173" lon="9.4440251"><ele>267.0</ele><time>2026-04-05T11:57:58.715Z</time></trkpt><trkpt lat="45.6783317" lon="9.4440229"><ele>267.0</ele><time>2026-04-05T11:57:59.715Z</time></trkpt><trkpt lat="45.6782571" lon="9.4440013"><ele>267.0</ele><time>2026-04-05T11:58:00.715Z</time></trkpt><trkpt lat="45.6781834" lon="9.4439957"><ele>267.0</ele><time>2026-04-05T11:58:01.715Z</time></trkpt><trkpt lat="45.6781037" lon="9.443988"><ele>267.0</ele><time>2026-04-05T11:58:02.715Z</time></trkpt><trkpt lat="45.6780303" lon="9.4439729"><ele>267.0</ele><time>2026-04-05T11:58:03.715Z</time></trkpt><trkpt lat="45.6779658" lon="9.4439568"><ele>267.0</ele><time>2026-04-05T11:58:04.715Z</time></trkpt><trkpt lat="45.6778438" lon="9.4439367"><ele>267.0</ele><time>2026-04-05T11:58:06.714Z</time></trkpt><trkpt lat="45.6777706" lon="9.4439215"><ele>267.0</ele><time>2026-04-05T11:58:07.714Z</time></trkpt><trkpt lat="45.6777035" lon="9.4438909"><ele>267.0</ele><time>2026-04-05T11:58:08.715Z</time></trkpt><trkpt lat="45.6776363" lon="9.4438833"><ele>267.0</ele><time>2026-04-05T11:58:09.715Z</time></trkpt><trkpt lat="45.6775695" lon="9.4438725"><ele>266.8333333333333</ele><time>2026-04-05T11:58:10.714Z</time></trkpt><trkpt lat="45.6775054" lon="9.443858"><ele>266.6666666666667</ele><time>2026-04-05T11:58:11.715Z</time></trkpt><trkpt lat="45.6774324" lon="9.4438118"><ele>266.5</ele><time>2026-04-05T11:58:12.714Z</time></trkpt><trkpt lat="45.6773578" lon="9.443817"><ele>266.33333333333337</ele><time>2026-04-05T11:58:13.715Z</time></trkpt><trkpt lat="45.6772852" lon="9.4438112"><ele>266.1666666666667</ele><time>2026-04-05T11:58:14.715Z</time></trkpt><trkpt lat="45.677133" lon="9.4438003"><ele>266.0</ele><time>2026-04-05T11:58:16.714Z</time></trkpt><trkpt lat="45.6770633" lon="9.4437861"><ele>266.0</ele><time>2026-04-05T11:58:17.714Z</time></trkpt><trkpt lat="45.6769957" lon="9.4437845"><ele>266.0</ele><time>2026-04-05T11:58:18.714Z</time></trkpt><trkpt lat="45.6769289" lon="9.4437807"><ele>266.0</ele><time>2026-04-05T11:58:19.715Z</time></trkpt><trkpt lat="45.6768508" lon="9.4437558"><ele>266.0</ele><time>2026-04-05T11:58:20.715Z</time></trkpt><trkpt lat="45.6767784" lon="9.4437263"><ele>266.0</ele><time>2026-04-05T11:58:21.715Z</time></trkpt><trkpt lat="45.6766955" lon="9.4437186"><ele>266.0</ele><time>2026-04-05T11:58:22.715Z</time></trkpt><trkpt lat="45.6766351" lon="9.4436903"><ele>266.0</ele><time>2026-04-05T11:58:23.715Z</time></trkpt><trkpt lat="45.6765744" lon="9.4436664"><ele>265.8</ele><time>2026-04-05T11:58:24.715Z</time></trkpt><trkpt lat="45.6764911" lon="9.4436583"><ele>265.6</ele><time>2026-04-05T11:58:25.715Z</time></trkpt><trkpt lat="45.6764236" lon="9.4436332"><ele>265.4</ele><time>2026-04-05T11:58:26.715Z</time></trkpt><trkpt lat="45.6763092" lon="9.4435815"><ele>265.2</ele><time>2026-04-05T11:58:28.714Z</time></trkpt><trkpt lat="45.6762401" lon="9.4435613"><ele>265.0</ele><time>2026-04-05T11:58:29.714Z</time></trkpt><trkpt lat="45.6761237" lon="9.4434768"><ele>264.75</ele><time>2026-04-05T11:58:31.715Z</time></trkpt><trkpt lat="45.6759913" lon="9.4434187"><ele>264.5</ele><time>2026-04-05T11:58:33.714Z</time></trkpt><trkpt lat="45.6758667" lon="9.443385"><ele>264.25</ele><time>2026-04-05T11:58:35.715Z</time></trkpt><trkpt lat="45.6757357" lon="9.4433349"><ele>264.0</ele><time>2026-04-05T11:58:37.715Z</time></trkpt><trkpt lat="45.6756646" lon="9.4433223"><ele>264.0</ele><time>2026-04-05T11:58:38.714Z</time></trkpt><trkpt lat="45.675603" lon="9.4432944"><ele>264.0</ele><time>2026-04-05T11:58:39.715Z</time></trkpt><trkpt lat="45.6755397" lon="9.4432665"><ele>264.0</ele><time>2026-04-05T11:58:40.715Z</time></trkpt><trkpt lat="45.6754784" lon="9.443228"><ele>264.0</ele><time>2026-04-05T11:58:41.714Z</time></trkpt><trkpt lat="45.6753989" lon="9.4432093"><ele>264.0</ele><time>2026-04-05T11:58:42.714Z</time></trkpt><trkpt lat="45.6753326" lon="9.4431665"><ele>264.0</ele><time>2026-04-05T11:58:43.714Z</time></trkpt><trkpt lat="45.6752666" lon="9.443135"><ele>264.0</ele><time>2026-04-05T11:58:44.715Z</time></trkpt><trkpt lat="45.6751987" lon="9.4431049"><ele>263.7142857142857</ele><time>2026-04-05T11:58:45.715Z</time></trkpt><trkpt lat="45.6751257" lon="9.4430815"><ele>263.42857142857144</ele><time>2026-04-05T11:58:46.715Z</time></trkpt><trkpt lat="45.675042" lon="9.4430572"><ele>263.14285714285717</ele><time>2026-04-05T11:58:47.715Z</time></trkpt><trkpt lat="45.6749752" lon="9.4430342"><ele>262.8571428571429</ele><time>2026-04-05T11:58:48.715Z</time></trkpt><trkpt lat="45.6749077" lon="9.443017"><ele>262.5714285714286</ele><time>2026-04-05T11:58:49.715Z</time></trkpt><trkpt lat="45.6748385" lon="9.4429864"><ele>262.2857142857143</ele><time>2026-04-05T11:58:50.715Z</time></trkpt><trkpt lat="45.6747725" lon="9.442953"><ele>262.0</ele><time>2026-04-05T11:58:51.715Z</time></trkpt><trkpt lat="45.6747067" lon="9.4429265"><ele>261.8571428571429</ele><time>2026-04-05T11:58:52.715Z</time></trkpt><trkpt lat="45.6746293" lon="9.4428939"><ele>261.7142857142857</ele><time>2026-04-05T11:58:53.714Z</time></trkpt><trkpt lat="45.6745681" lon="9.4428704"><ele>261.57142857142856</ele><time>2026-04-05T11:58:54.715Z</time></trkpt><trkpt lat="45.6744961" lon="9.4428386"><ele>261.42857142857144</ele><time>2026-04-05T11:58:55.715Z</time></trkpt><trkpt lat="45.6744287" lon="9.4428192"><ele>261.2857142857143</ele><time>2026-04-05T11:58:56.715Z</time></trkpt><trkpt lat="45.6743583" lon="9.4428024"><ele>261.14285714285717</ele><time>2026-04-05T11:58:57.715Z</time></trkpt><trkpt lat="45.6742953" lon="9.442768"><ele>261.0</ele><time>2026-04-05T11:58:58.715Z</time></trkpt><trkpt lat="45.6742287" lon="9.4427524"><ele>261.0</ele><time>2026-04-05T11:58:59.715Z</time></trkpt><trkpt lat="45.6741215" lon="9.4427736"><ele>261.0</ele><time>2026-04-05T11:59:01.715Z</time></trkpt><trkpt lat="45.6740515" lon="9.4427244"><ele>261.0</ele><time>2026-04-05T11:59:03.715Z</time></trkpt><trkpt lat="45.6739792" lon="9.4426564"><ele>261.0</ele><time>2026-04-05T11:59:05.715Z</time></trkpt><trkpt lat="45.6738808" lon="9.4425895"><ele>261.0</ele><time>2026-04-05T11:59:07.714Z</time></trkpt><trkpt lat="45.6737773" lon="9.4425123"><ele>261.0</ele><time>2026-04-05T11:59:09.715Z</time></trkpt><trkpt lat="45.6737249" lon="9.442455"><ele>261.0</ele><time>2026-04-05T11:59:10.715Z</time></trkpt><trkpt lat="45.6736693" lon="9.4423906"><ele>261.0</ele><time>2026-04-05T11:59:11.714Z</time></trkpt><trkpt lat="45.6735861" lon="9.4422717"><ele>261.0</ele><time>2026-04-05T11:59:13.715Z</time></trkpt><trkpt lat="45.6735268" lon="9.4422012"><ele>261.0</ele><time>2026-04-05T11:59:14.714Z</time></trkpt><trkpt lat="45.6734677" lon="9.4421217"><ele>261.0</ele><time>2026-04-05T11:59:15.715Z</time></trkpt><trkpt lat="45.6734125" lon="9.4420515"><ele>260.8333333333333</ele><time>2026-04-05T11:59:16.714Z</time></trkpt><trkpt lat="45.6733512" lon="9.4419641"><ele>260.6666666666667</ele><time>2026-04-05T11:59:17.715Z</time></trkpt><trkpt lat="45.6732905" lon="9.4418785"><ele>260.5</ele><time>2026-04-05T11:59:18.714Z</time></trkpt><trkpt lat="45.6732316" lon="9.4417748"><ele>260.33333333333337</ele><time>2026-04-05T11:59:19.715Z</time></trkpt><trkpt lat="45.6731682" lon="9.4416965"><ele>260.1666666666667</ele><time>2026-04-05T11:59:20.715Z</time></trkpt><trkpt lat="45.6731108" lon="9.4416147"><ele>260.0</ele><time>2026-04-05T11:59:21.715Z</time></trkpt><trkpt lat="45.6730603" lon="9.4415412"><ele>260.0</ele><time>2026-04-05T11:59:22.715Z</time></trkpt><trkpt lat="45.6730066" lon="9.4414414"><ele>260.0</ele><time>2026-04-05T11:59:23.714Z</time></trkpt><trkpt lat="45.6729584" lon="9.4413204"><ele>260.0</ele><time>2026-04-05T11:59:24.715Z</time></trkpt><trkpt lat="45.6729181" lon="9.4412236"><ele>260.0</ele><time>2026-04-05T11:59:25.715Z</time></trkpt><trkpt lat="45.6728797" lon="9.4411412"><ele>260.0</ele><time>2026-04-05T11:59:26.714Z</time></trkpt><trkpt lat="45.6728508" lon="9.4410577"><ele>260.0</ele><time>2026-04-05T11:59:27.714Z</time></trkpt><trkpt lat="45.6728274" lon="9.4409725"><ele>259.5</ele><time>2026-04-05T11:59:28.715Z</time></trkpt><trkpt lat="45.6727105" lon="9.4408883"><ele>259.0</ele><time>2026-04-05T11:59:30.715Z</time></trkpt><trkpt lat="45.6726342" lon="9.4408621"><ele>258.5</ele><time>2026-04-05T11:59:31.715Z</time></trkpt><trkpt lat="45.6725709" lon="9.4408356"><ele>258.0</ele><time>2026-04-05T11:59:32.715Z</time></trkpt><trkpt lat="45.6725067" lon="9.440817"><ele>257.5</ele><time>2026-04-05T11:59:33.714Z</time></trkpt><trkpt lat="45.6724461" lon="9.4407542"><ele>257.0</ele><time>2026-04-05T11:59:34.715Z</time></trkpt><trkpt lat="45.672399" lon="9.4406762"><ele>257.0</ele><time>2026-04-05T11:59:35.715Z</time></trkpt><trkpt lat="45.6723431" lon="9.4405988"><ele>257.0</ele><time>2026-04-05T11:59:36.715Z</time></trkpt><trkpt lat="45.67228" lon="9.4405352"><ele>257.0</ele><time>2026-04-05T11:59:37.715Z</time></trkpt><trkpt lat="45.6722266" lon="9.44047"><ele>257.0</ele><time>2026-04-05T11:59:38.715Z</time></trkpt><trkpt lat="45.6721555" lon="9.440407"><ele>257.0</ele><time>2026-04-05T11:59:39.715Z</time></trkpt><trkpt lat="45.6720804" lon="9.4403523"><ele>257.0</ele><time>2026-04-05T11:59:40.715Z</time></trkpt><trkpt lat="45.6720107" lon="9.4402999"><ele>256.6666666666667</ele><time>2026-04-05T11:59:41.715Z</time></trkpt><trkpt lat="45.6719499" lon="9.440244"><ele>256.33333333333337</ele><time>2026-04-05T11:59:42.715Z</time></trkpt><trkpt lat="45.6718886" lon="9.4401765"><ele>256.0</ele><time>2026-04-05T11:59:43.714Z</time></trkpt><trkpt lat="45.6718348" lon="9.4401068"><ele>255.66666666666669</ele><time>2026-04-05T11:59:44.715Z</time></trkpt><trkpt lat="45.6717643" lon="9.4400486"><ele>255.33333333333334</ele><time>2026-04-05T11:59:45.714Z</time></trkpt><trkpt lat="45.671702" lon="9.4399871"><ele>255.0</ele><time>2026-04-05T11:59:46.714Z</time></trkpt><trkpt lat="45.6716215" lon="9.4399227"><ele>255.0</ele><time>2026-04-05T11:59:47.715Z</time></trkpt><trkpt lat="45.6715581" lon="9.4398681"><ele>255.0</ele><time>2026-04-05T11:59:48.715Z</time></trkpt><trkpt lat="45.6714851" lon="9.439818"><ele>255.0</ele><time>2026-04-05T11:59:49.715Z</time></trkpt><trkpt lat="45.6714196" lon="9.4397621"><ele>255.0</ele><time>2026-04-05T11:59:50.715Z</time></trkpt><trkpt lat="45.6713437" lon="9.4396923"><ele>255.0</ele><time>2026-04-05T11:59:51.714Z</time></trkpt><trkpt lat="45.6712798" lon="9.4396118"><ele>255.0</ele><time>2026-04-05T11:59:52.715Z</time></trkpt><trkpt lat="45.6711998" lon="9.4395502"><ele>254.66666666666666</ele><time>2026-04-05T11:59:53.714Z</time></trkpt><trkpt lat="45.6711384" lon="9.439487"><ele>254.33333333333331</ele><time>2026-04-05T11:59:54.715Z</time></trkpt><trkpt lat="45.671077" lon="9.4394183"><ele>254.0</ele><time>2026-04-05T11:59:55.714Z</time></trkpt><trkpt lat="45.6710137" lon="9.4393472"><ele>253.66666666666666</ele><time>2026-04-05T11:59:56.715Z</time></trkpt><trkpt lat="45.6709593" lon="9.4392795"><ele>253.33333333333331</ele><time>2026-04-05T11:59:57.715Z</time></trkpt><trkpt lat="45.6708985" lon="9.4392119"><ele>253.0</ele><time>2026-04-05T11:59:58.715Z</time></trkpt><trkpt lat="45.670825" lon="9.4391647"><ele>252.99999999999997</ele><time>2026-04-05T11:59:59.714Z</time></trkpt><trkpt lat="45.6707495" lon="9.4390972"><ele>253.0</ele><time>2026-04-05T12:00:00.715Z</time></trkpt><trkpt lat="45.6706818" lon="9.4390395"><ele>253.0</ele><time>2026-04-05T12:00:01.715Z</time></trkpt><trkpt lat="45.6706168" lon="9.4389751"><ele>253.0</ele><time>2026-04-05T12:00:02.715Z</time></trkpt><trkpt lat="45.6705449" lon="9.4389155"><ele>252.99999999999997</ele><time>2026-04-05T12:00:03.715Z</time></trkpt><trkpt lat="45.6704563" lon="9.4388733"><ele>253.0</ele><time>2026-04-05T12:00:04.715Z</time></trkpt><trkpt lat="45.6703838" lon="9.4388037"><ele>252.49999999999997</ele><time>2026-04-05T12:00:05.714Z</time></trkpt><trkpt lat="45.6703265" lon="9.4387186"><ele>252.0</ele><time>2026-04-05T12:00:06.715Z</time></trkpt><trkpt lat="45.6702571" lon="9.4386561"><ele>251.5</ele><time>2026-04-05T12:00:07.715Z</time></trkpt><trkpt lat="45.6701949" lon="9.4385826"><ele>251.0</ele><time>2026-04-05T12:00:08.715Z</time></trkpt><trkpt lat="45.6701308" lon="9.4385156"><ele>250.49999999999997</ele><time>2026-04-05T12:00:09.715Z</time></trkpt><trkpt lat="45.6700695" lon="9.4384549"><ele>250.0</ele><time>2026-04-05T12:00:10.715Z</time></trkpt><trkpt lat="45.6700007" lon="9.4383884"><ele>249.99999999999997</ele><time>2026-04-05T12:00:11.715Z</time></trkpt><trkpt lat="45.6699434" lon="9.4383298"><ele>250.0</ele><time>2026-04-05T12:00:12.715Z</time></trkpt><trkpt lat="45.6698839" lon="9.4382631"><ele>250.0</ele><time>2026-04-05T12:00:13.715Z</time></trkpt><trkpt lat="45.6698337" lon="9.4381942"><ele>250.0</ele><time>2026-04-05T12:00:14.715Z</time></trkpt><trkpt lat="45.6697779" lon="9.438074"><ele>249.99999999999997</ele><time>2026-04-05T12:00:16.715Z</time></trkpt><trkpt lat="45.6697146" lon="9.4379359"><ele>250.0</ele><time>2026-04-05T12:00:18.715Z</time></trkpt><trkpt lat="45.6696558" lon="9.4378721"><ele>249.83333333333331</ele><time>2026-04-05T12:00:20.715Z</time></trkpt><trkpt lat="45.6695992" lon="9.4378265"><ele>249.66666666666666</ele><time>2026-04-05T12:00:22.715Z</time></trkpt><trkpt lat="45.6695273" lon="9.4378799"><ele>249.5</ele><time>2026-04-05T12:00:23.715Z</time></trkpt><trkpt lat="45.6694438" lon="9.437915"><ele>249.33333333333331</ele><time>2026-04-05T12:00:25.715Z</time></trkpt><trkpt lat="45.6693897" lon="9.4378424"><ele>249.16666666666666</ele><time>2026-04-05T12:00:26.715Z</time></trkpt><trkpt lat="45.669285" lon="9.4377475"><ele>249.0</ele><time>2026-04-05T12:00:28.715Z</time></trkpt><trkpt lat="45.6692296" lon="9.4377008"><ele>249.0</ele><time>2026-04-05T12:00:29.715Z</time></trkpt><trkpt lat="45.6691775" lon="9.4376444"><ele>249.0</ele><time>2026-04-05T12:00:30.715Z</time></trkpt><trkpt lat="45.6691263" lon="9.4375878"><ele>249.0</ele><time>2026-04-05T12:00:31.715Z</time></trkpt><trkpt lat="45.6690662" lon="9.4375196"><ele>249.0</ele><time>2026-04-05T12:00:32.715Z</time></trkpt><trkpt lat="45.6689969" lon="9.4374713"><ele>249.0</ele><time>2026-04-05T12:00:33.715Z</time></trkpt><trkpt lat="45.6689408" lon="9.4374274"><ele>249.0</ele><time>2026-04-05T12:00:34.715Z</time></trkpt><trkpt lat="45.6688439" lon="9.4373153"><ele>249.0</ele><time>2026-04-05T12:00:36.715Z</time></trkpt><trkpt lat="45.6687852" lon="9.4372718"><ele>248.99999999999997</ele><time>2026-04-05T12:00:37.715Z</time></trkpt><trkpt lat="45.6686658" lon="9.43717"><ele>248.99999999999997</ele><time>2026-04-05T12:00:39.715Z</time></trkpt><trkpt lat="45.6685534" lon="9.4370799"><ele>249.0</ele><time>2026-04-05T12:00:41.715Z</time></trkpt><trkpt lat="45.6684836" lon="9.4370569"><ele>249.0</ele><time>2026-04-05T12:00:42.715Z</time></trkpt><trkpt lat="45.6683591" lon="9.4370008"><ele>249.14285714285714</ele><time>2026-04-05T12:00:44.714Z</time></trkpt><trkpt lat="45.6682966" lon="9.4369536"><ele>249.28571428571428</ele><time>2026-04-05T12:00:45.715Z</time></trkpt><trkpt lat="45.668237" lon="9.4369065"><ele>249.42857142857142</ele><time>2026-04-05T12:00:46.715Z</time></trkpt><trkpt lat="45.6681815" lon="9.4368545"><ele>249.57142857142856</ele><time>2026-04-05T12:00:47.715Z</time></trkpt><trkpt lat="45.6681245" lon="9.4367826"><ele>249.71428571428572</ele><time>2026-04-05T12:00:48.714Z</time></trkpt><trkpt lat="45.6680607" lon="9.4367344"><ele>249.85714285714283</ele><time>2026-04-05T12:00:49.715Z</time></trkpt><trkpt lat="45.6680003" lon="9.4366823"><ele>250.0</ele><time>2026-04-05T12:00:50.715Z</time></trkpt><trkpt lat="45.6679429" lon="9.4366237"><ele>249.99999999999997</ele><time>2026-04-05T12:00:51.715Z</time></trkpt><trkpt lat="45.6678828" lon="9.4365718"><ele>250.0</ele><time>2026-04-05T12:00:52.715Z</time></trkpt><trkpt lat="45.6678064" lon="9.4365476"><ele>250.0</ele><time>2026-04-05T12:00:53.715Z</time></trkpt><trkpt lat="45.6677523" lon="9.4364762"><ele>250.0</ele><time>2026-04-05T12:00:54.715Z</time></trkpt><trkpt lat="45.6676525" lon="9.4363813"><ele>249.99999999999997</ele><time>2026-04-05T12:00:56.715Z</time></trkpt><trkpt lat="45.6675783" lon="9.4363195"><ele>250.0</ele><time>2026-04-05T12:00:57.715Z</time></trkpt><trkpt lat="45.6675322" lon="9.4362579"><ele>249.42857142857142</ele><time>2026-04-05T12:00:58.715Z</time></trkpt><trkpt lat="45.6674613" lon="9.4361894"><ele>248.8571428571429</ele><time>2026-04-05T12:00:59.715Z</time></trkpt><trkpt lat="45.667417" lon="9.4361226"><ele>248.2857142857143</ele><time>2026-04-05T12:01:00.715Z</time></trkpt><trkpt lat="45.667358" lon="9.4360655"><ele>247.71428571428572</ele><time>2026-04-05T12:01:01.715Z</time></trkpt><trkpt lat="45.6673068" lon="9.436012"><ele>247.14285714285717</ele><time>2026-04-05T12:01:02.715Z</time></trkpt><trkpt lat="45.6672615" lon="9.4359439"><ele>246.5714285714286</ele><time>2026-04-05T12:01:03.715Z</time></trkpt><trkpt lat="45.6672011" lon="9.4358884"><ele>246.00000000000003</ele><time>2026-04-05T12:01:04.714Z</time></trkpt><trkpt lat="45.6670892" lon="9.4357888"><ele>246.0</ele><time>2026-04-05T12:01:06.715Z</time></trkpt><trkpt lat="45.6670352" lon="9.4357247"><ele>246.00000000000003</ele><time>2026-04-05T12:01:07.715Z</time></trkpt><trkpt lat="45.6669331" lon="9.4356194"><ele>246.00000000000003</ele><time>2026-04-05T12:01:09.715Z</time></trkpt><trkpt lat="45.6668594" lon="9.4354965"><ele>246.0</ele><time>2026-04-05T12:01:11.715Z</time></trkpt><trkpt lat="45.6668118" lon="9.4354375"><ele>246.0</ele><time>2026-04-05T12:01:12.715Z</time></trkpt><trkpt lat="45.6667304" lon="9.4353327"><ele>245.66666666666666</ele><time>2026-04-05T12:01:14.714Z</time></trkpt><trkpt lat="45.6666513" lon="9.4351906"><ele>245.33333333333331</ele><time>2026-04-05T12:01:16.715Z</time></trkpt><trkpt lat="45.6665972" lon="9.435136"><ele>245.0</ele><time>2026-04-05T12:01:17.715Z</time></trkpt><trkpt lat="45.6665113" lon="9.4350265"><ele>244.66666666666666</ele><time>2026-04-05T12:01:19.715Z</time></trkpt><trkpt lat="45.6664564" lon="9.4349814"><ele>244.33333333333331</ele><time>2026-04-05T12:01:20.715Z</time></trkpt><trkpt lat="45.6664104" lon="9.4349196"><ele>244.0</ele><time>2026-04-05T12:01:21.715Z</time></trkpt><trkpt lat="45.6663199" lon="9.4348041"><ele>243.99999999999997</ele><time>2026-04-05T12:01:23.714Z</time></trkpt><trkpt lat="45.6662635" lon="9.4347079"><ele>244.0</ele><time>2026-04-05T12:01:25.714Z</time></trkpt><trkpt lat="45.6662316" lon="9.4346083"><ele>244.0</ele><time>2026-04-05T12:01:29.704Z</time></trkpt><trkpt lat="45.6662599" lon="9.4345108"><ele>244.0</ele><time>2026-04-05T12:01:31.702Z</time></trkpt><trkpt lat="45.6663064" lon="9.4344084"><ele>243.99999999999997</ele><time>2026-04-05T12:01:33.7Z</time></trkpt><trkpt lat="45.666344" lon="9.4343062"><ele>244.0</ele><time>2026-04-05T12:01:35.7Z</time></trkpt><trkpt lat="45.6663913" lon="9.4341723"><ele>243.6</ele><time>2026-04-05T12:01:37.701Z</time></trkpt><trkpt lat="45.666423" lon="9.4340872"><ele>243.2</ele><time>2026-04-05T12:01:38.7Z</time></trkpt><trkpt lat="45.666478" lon="9.4339355"><ele>242.79999999999998</ele><time>2026-04-05T12:01:40.701Z</time></trkpt><trkpt lat="45.6665407" lon="9.4337886"><ele>242.39999999999998</ele><time>2026-04-05T12:01:42.7Z</time></trkpt><trkpt lat="45.666593" lon="9.4336306"><ele>242.0</ele><time>2026-04-05T12:01:44.7Z</time></trkpt><trkpt lat="45.6666512" lon="9.4334851"><ele>242.0</ele><time>2026-04-05T12:01:46.701Z</time></trkpt><trkpt lat="45.6666844" lon="9.4334045"><ele>242.0</ele><time>2026-04-05T12:01:47.701Z</time></trkpt><trkpt lat="45.6667448" lon="9.4332516"><ele>242.0</ele><time>2026-04-05T12:01:49.701Z</time></trkpt><trkpt lat="45.6667954" lon="9.4331104"><ele>242.0</ele><time>2026-04-05T12:01:51.7Z</time></trkpt><trkpt lat="45.6668536" lon="9.4329567"><ele>242.0</ele><time>2026-04-05T12:01:53.701Z</time></trkpt><trkpt lat="45.6669108" lon="9.4328046"><ele>242.2</ele><time>2026-04-05T12:01:55.701Z</time></trkpt><trkpt lat="45.6669473" lon="9.4327289"><ele>242.39999999999998</ele><time>2026-04-05T12:01:56.7Z</time></trkpt><trkpt lat="45.6670042" lon="9.4325751"><ele>242.60000000000002</ele><time>2026-04-05T12:01:58.701Z</time></trkpt><trkpt lat="45.6670104" lon="9.4324107"><ele>242.8</ele><time>2026-04-05T12:02:00.701Z</time></trkpt><trkpt lat="45.6669624" lon="9.4322665"><ele>243.0</ele><time>2026-04-05T12:02:02.7Z</time></trkpt><trkpt lat="45.6668792" lon="9.432131"><ele>242.71428571428572</ele><time>2026-04-05T12:02:04.7Z</time></trkpt><trkpt lat="45.666824" lon="9.4320803"><ele>242.42857142857144</ele><time>2026-04-05T12:02:05.701Z</time></trkpt><trkpt lat="45.6667644" lon="9.432032"><ele>242.14285714285717</ele><time>2026-04-05T12:02:06.7Z</time></trkpt><trkpt lat="45.6667086" lon="9.4319695"><ele>241.85714285714286</ele><time>2026-04-05T12:02:07.701Z</time></trkpt><trkpt lat="45.6666548" lon="9.4319081"><ele>241.5714285714286</ele><time>2026-04-05T12:02:08.7Z</time></trkpt><trkpt lat="45.6665984" lon="9.4318531"><ele>241.2857142857143</ele><time>2026-04-05T12:02:09.701Z</time></trkpt><trkpt lat="45.6665399" lon="9.4317978"><ele>241.0</ele><time>2026-04-05T12:02:10.701Z</time></trkpt><trkpt lat="45.6664347" lon="9.4316835"><ele>240.99999999999997</ele><time>2026-04-05T12:02:12.701Z</time></trkpt><trkpt lat="45.6663321" lon="9.43157"><ele>241.0</ele><time>2026-04-05T12:02:14.701Z</time></trkpt><trkpt lat="45.6662865" lon="9.4314889"><ele>241.0</ele><time>2026-04-05T12:02:15.701Z</time></trkpt><trkpt lat="45.6662255" lon="9.4314137"><ele>241.0</ele><time>2026-04-05T12:02:16.701Z</time></trkpt><trkpt lat="45.6661825" lon="9.4313473"><ele>240.99999999999997</ele><time>2026-04-05T12:02:17.701Z</time></trkpt><trkpt lat="45.6661349" lon="9.4312842"><ele>241.0</ele><time>2026-04-05T12:02:18.7Z</time></trkpt><trkpt lat="45.6660857" lon="9.4312271"><ele>241.14285714285717</ele><time>2026-04-05T12:02:19.701Z</time></trkpt><trkpt lat="45.6660156" lon="9.4312143"><ele>241.2857142857143</ele><time>2026-04-05T12:02:20.701Z</time></trkpt><trkpt lat="45.6659518" lon="9.4311725"><ele>241.42857142857144</ele><time>2026-04-05T12:02:21.7Z</time></trkpt><trkpt lat="45.6659006" lon="9.4310932"><ele>241.57142857142856</ele><time>2026-04-05T12:02:22.701Z</time></trkpt><trkpt lat="45.665838" lon="9.4310367"><ele>241.7142857142857</ele><time>2026-04-05T12:02:23.701Z</time></trkpt><trkpt lat="45.6657796" lon="9.4309863"><ele>241.85714285714283</ele><time>2026-04-05T12:02:24.701Z</time></trkpt><trkpt lat="45.6657211" lon="9.4309369"><ele>242.0</ele><time>2026-04-05T12:02:25.701Z</time></trkpt><trkpt lat="45.6656599" lon="9.4308817"><ele>242.0</ele><time>2026-04-05T12:02:26.701Z</time></trkpt><trkpt lat="45.6656001" lon="9.4308249"><ele>241.99999999999997</ele><time>2026-04-05T12:02:27.701Z</time></trkpt><trkpt lat="45.6655429" lon="9.4307699"><ele>242.0</ele><time>2026-04-05T12:02:28.701Z</time></trkpt><trkpt lat="45.6654818" lon="9.4307105"><ele>242.0</ele><time>2026-04-05T12:02:29.701Z</time></trkpt><trkpt lat="45.6654248" lon="9.4306586"><ele>241.99999999999997</ele><time>2026-04-05T12:02:30.701Z</time></trkpt><trkpt lat="45.6653678" lon="9.4306147"><ele>242.0</ele><time>2026-04-05T12:02:31.701Z</time></trkpt><trkpt lat="45.6653073" lon="9.4305456"><ele>242.0</ele><time>2026-04-05T12:02:32.701Z</time></trkpt><trkpt lat="45.6652532" lon="9.430483"><ele>241.83333333333334</ele><time>2026-04-05T12:02:33.701Z</time></trkpt><trkpt lat="45.6651962" lon="9.4304274"><ele>241.66666666666669</ele><time>2026-04-05T12:02:34.701Z</time></trkpt><trkpt lat="45.6651255" lon="9.4303583"><ele>241.5</ele><time>2026-04-05T12:02:35.698Z</time></trkpt><trkpt lat="45.6650636" lon="9.4302938"><ele>241.33333333333331</ele><time>2026-04-05T12:02:36.7Z</time></trkpt><trkpt lat="45.6650029" lon="9.4302413"><ele>241.16666666666666</ele><time>2026-04-05T12:02:37.701Z</time></trkpt><trkpt lat="45.664941" lon="9.4301948"><ele>241.0</ele><time>2026-04-05T12:02:38.701Z</time></trkpt><trkpt lat="45.6648728" lon="9.430141"><ele>241.0</ele><time>2026-04-05T12:02:39.701Z</time></trkpt><trkpt lat="45.6648078" lon="9.4301034"><ele>241.00000000000003</ele><time>2026-04-05T12:02:40.7Z</time></trkpt><trkpt lat="45.6647539" lon="9.4300151"><ele>241.0</ele><time>2026-04-05T12:02:41.701Z</time></trkpt><trkpt lat="45.6646925" lon="9.4299497"><ele>241.0</ele><time>2026-04-05T12:02:42.7Z</time></trkpt><trkpt lat="45.664635" lon="9.4298917"><ele>241.00000000000003</ele><time>2026-04-05T12:02:43.701Z</time></trkpt><trkpt lat="45.6645769" lon="9.4298343"><ele>241.0</ele><time>2026-04-05T12:02:44.701Z</time></trkpt><trkpt lat="45.6645126" lon="9.4297754"><ele>241.0</ele><time>2026-04-05T12:02:45.701Z</time></trkpt><trkpt lat="45.6644562" lon="9.4297194"><ele>241.0</ele><time>2026-04-05T12:02:46.701Z</time></trkpt><trkpt lat="45.664393" lon="9.4296559"><ele>241.00000000000003</ele><time>2026-04-05T12:02:47.701Z</time></trkpt><trkpt lat="45.6643272" lon="9.4295976"><ele>241.0</ele><time>2026-04-05T12:02:48.701Z</time></trkpt><trkpt lat="45.6642664" lon="9.4295379"><ele>241.0</ele><time>2026-04-05T12:02:49.7Z</time></trkpt><trkpt lat="45.6642068" lon="9.4294924"><ele>241.00000000000003</ele><time>2026-04-05T12:02:50.701Z</time></trkpt><trkpt lat="45.6641423" lon="9.4294331"><ele>241.0</ele><time>2026-04-05T12:02:51.701Z</time></trkpt><trkpt lat="45.6640751" lon="9.4293835"><ele>241.0</ele><time>2026-04-05T12:02:52.701Z</time></trkpt><trkpt lat="45.6640113" lon="9.4293243"><ele>240.49999999999997</ele><time>2026-04-05T12:02:53.701Z</time></trkpt><trkpt lat="45.6639546" lon="9.429273"><ele>240.0</ele><time>2026-04-05T12:02:54.701Z</time></trkpt><trkpt lat="45.6638881" lon="9.4292062"><ele>239.5</ele><time>2026-04-05T12:02:55.7Z</time></trkpt><trkpt lat="45.6638252" lon="9.4291438"><ele>239.0</ele><time>2026-04-05T12:02:56.701Z</time></trkpt><trkpt lat="45.6637738" lon="9.4290741"><ele>238.49999999999997</ele><time>2026-04-05T12:02:57.701Z</time></trkpt><trkpt lat="45.6637308" lon="9.4289928"><ele>238.0</ele><time>2026-04-05T12:02:58.7Z</time></trkpt><trkpt lat="45.6636566" lon="9.4289379"><ele>238.16666666666666</ele><time>2026-04-05T12:02:59.701Z</time></trkpt><trkpt lat="45.6636026" lon="9.4288716"><ele>238.33333333333331</ele><time>2026-04-05T12:03:00.701Z</time></trkpt><trkpt lat="45.663501" lon="9.4287758"><ele>238.5</ele><time>2026-04-05T12:03:02.701Z</time></trkpt><trkpt lat="45.6634424" lon="9.4287358"><ele>238.66666666666669</ele><time>2026-04-05T12:03:03.701Z</time></trkpt><trkpt lat="45.6633776" lon="9.4287096"><ele>238.83333333333334</ele><time>2026-04-05T12:03:04.701Z</time></trkpt><trkpt lat="45.6632799" lon="9.4286243"><ele>239.0</ele><time>2026-04-05T12:03:06.701Z</time></trkpt><trkpt lat="45.6631852" lon="9.4285102"><ele>239.00000000000003</ele><time>2026-04-05T12:03:08.7Z</time></trkpt><trkpt lat="45.6631414" lon="9.4283496"><ele>239.0</ele><time>2026-04-05T12:03:10.701Z</time></trkpt><trkpt lat="45.6631256" lon="9.4282524"><ele>239.0</ele><time>2026-04-05T12:03:11.701Z</time></trkpt><trkpt lat="45.663123" lon="9.4281509"><ele>239.0</ele><time>2026-04-05T12:03:12.701Z</time></trkpt><trkpt lat="45.6631302" lon="9.4280483"><ele>239.00000000000003</ele><time>2026-04-05T12:03:13.701Z</time></trkpt><trkpt lat="45.6631319" lon="9.4279289"><ele>239.0</ele><time>2026-04-05T12:03:14.701Z</time></trkpt><trkpt lat="45.6631386" lon="9.4278273"><ele>239.2</ele><time>2026-04-05T12:03:15.701Z</time></trkpt><trkpt lat="45.6631435" lon="9.4276559"><ele>239.39999999999998</ele><time>2026-04-05T12:03:17.701Z</time></trkpt><trkpt lat="45.6631346" lon="9.4275649"><ele>239.6</ele><time>2026-04-05T12:03:18.701Z</time></trkpt><trkpt lat="45.6631507" lon="9.4273772"><ele>239.8</ele><time>2026-04-05T12:03:20.701Z</time></trkpt><trkpt lat="45.6631766" lon="9.4272046"><ele>240.0</ele><time>2026-04-05T12:03:22.7Z</time></trkpt><trkpt lat="45.6631855" lon="9.4270352"><ele>240.4</ele><time>2026-04-05T12:03:24.701Z</time></trkpt><trkpt lat="45.6630921" lon="9.4269302"><ele>240.8</ele><time>2026-04-05T12:03:26.701Z</time></trkpt><trkpt lat="45.6629957" lon="9.426815"><ele>241.2</ele><time>2026-04-05T12:03:28.701Z</time></trkpt><trkpt lat="45.662939" lon="9.4267436"><ele>241.6</ele><time>2026-04-05T12:03:29.701Z</time></trkpt><trkpt lat="45.662843" lon="9.4266357"><ele>242.0</ele><time>2026-04-05T12:03:31.7Z</time></trkpt><trkpt lat="45.6627852" lon="9.4265731"><ele>241.16666666666669</ele><time>2026-04-05T12:03:32.7Z</time></trkpt><trkpt lat="45.6627342" lon="9.426513"><ele>240.33333333333334</ele><time>2026-04-05T12:03:33.7Z</time></trkpt><trkpt lat="45.6626191" lon="9.4264158"><ele>239.5</ele><time>2026-04-05T12:03:35.7Z</time></trkpt><trkpt lat="45.6625619" lon="9.4263633"><ele>238.66666666666669</ele><time>2026-04-05T12:03:36.701Z</time></trkpt><trkpt lat="45.6625045" lon="9.426308"><ele>237.83333333333334</ele><time>2026-04-05T12:03:37.701Z</time></trkpt><trkpt lat="45.6624422" lon="9.4262599"><ele>237.0</ele><time>2026-04-05T12:03:38.701Z</time></trkpt><trkpt lat="45.6623833" lon="9.4262139"><ele>236.99999999999997</ele><time>2026-04-05T12:03:39.701Z</time></trkpt><trkpt lat="45.6623217" lon="9.426164"><ele>237.0</ele><time>2026-04-05T12:03:40.701Z</time></trkpt><trkpt lat="45.6622615" lon="9.4261091"><ele>236.99999999999997</ele><time>2026-04-05T12:03:41.701Z</time></trkpt><trkpt lat="45.6622023" lon="9.4260584"><ele>236.99999999999997</ele><time>2026-04-05T12:03:42.7Z</time></trkpt><trkpt lat="45.6621464" lon="9.4260032"><ele>237.0</ele><time>2026-04-05T12:03:43.701Z</time></trkpt><trkpt lat="45.6620813" lon="9.4259512"><ele>236.99999999999997</ele><time>2026-04-05T12:03:44.7Z</time></trkpt><trkpt lat="45.662027" lon="9.425902"><ele>236.99999999999997</ele><time>2026-04-05T12:03:45.701Z</time></trkpt><trkpt lat="45.6619742" lon="9.4258506"><ele>237.4285714285714</ele><time>2026-04-05T12:03:46.701Z</time></trkpt><trkpt lat="45.6619123" lon="9.4258219"><ele>237.85714285714283</ele><time>2026-04-05T12:03:47.7Z</time></trkpt><trkpt lat="45.6618507" lon="9.4257625"><ele>238.28571428571428</ele><time>2026-04-05T12:03:48.701Z</time></trkpt><trkpt lat="45.661799" lon="9.4257085"><ele>238.7142857142857</ele><time>2026-04-05T12:03:49.7Z</time></trkpt><trkpt lat="45.661737" lon="9.4256585"><ele>239.1428571428571</ele><time>2026-04-05T12:03:50.701Z</time></trkpt><trkpt lat="45.6616757" lon="9.4256108"><ele>239.57142857142858</ele><time>2026-04-05T12:03:51.701Z</time></trkpt><trkpt lat="45.6616129" lon="9.4255559"><ele>240.0</ele><time>2026-04-05T12:03:52.701Z</time></trkpt><trkpt lat="45.6615508" lon="9.4255033"><ele>240.0</ele><time>2026-04-05T12:03:53.701Z</time></trkpt><trkpt lat="45.6614943" lon="9.4254389"><ele>240.0</ele><time>2026-04-05T12:03:54.701Z</time></trkpt><trkpt lat="45.6614315" lon="9.4253839"><ele>240.0</ele><time>2026-04-05T12:03:55.7Z</time></trkpt><trkpt lat="45.661374" lon="9.4253321"><ele>240.0</ele><time>2026-04-05T12:03:56.701Z</time></trkpt><trkpt lat="45.6613177" lon="9.4252772"><ele>240.0</ele><time>2026-04-05T12:03:57.701Z</time></trkpt><trkpt lat="45.6612545" lon="9.425224"><ele>240.0</ele><time>2026-04-05T12:03:58.701Z</time></trkpt><trkpt lat="45.661194" lon="9.4251697"><ele>240.0</ele><time>2026-04-05T12:03:59.701Z</time></trkpt><trkpt lat="45.6611341" lon="9.4251205"><ele>239.71428571428572</ele><time>2026-04-05T12:04:00.7Z</time></trkpt><trkpt lat="45.6610774" lon="9.4250665"><ele>239.42857142857142</ele><time>2026-04-05T12:04:01.7Z</time></trkpt><trkpt lat="45.6610219" lon="9.4250055"><ele>239.14285714285714</ele><time>2026-04-05T12:04:02.701Z</time></trkpt><trkpt lat="45.6609629" lon="9.4249412"><ele>238.85714285714286</ele><time>2026-04-05T12:04:03.701Z</time></trkpt><trkpt lat="45.6609077" lon="9.424876"><ele>238.57142857142856</ele><time>2026-04-05T12:04:04.701Z</time></trkpt><trkpt lat="45.6608464" lon="9.424822"><ele>238.28571428571428</ele><time>2026-04-05T12:04:05.701Z</time></trkpt><trkpt lat="45.6607916" lon="9.4247614"><ele>238.0</ele><time>2026-04-05T12:04:06.701Z</time></trkpt><trkpt lat="45.6607409" lon="9.424706"><ele>238.0</ele><time>2026-04-05T12:04:07.701Z</time></trkpt><trkpt lat="45.6606869" lon="9.4246464"><ele>238.0</ele><time>2026-04-05T12:04:08.701Z</time></trkpt><trkpt lat="45.6606319" lon="9.4245911"><ele>238.0</ele><time>2026-04-05T12:04:09.7Z</time></trkpt><trkpt lat="45.6605754" lon="9.4245343"><ele>238.0</ele><time>2026-04-05T12:04:10.701Z</time></trkpt><trkpt lat="45.6605182" lon="9.4244798"><ele>238.0</ele><time>2026-04-05T12:04:11.701Z</time></trkpt><trkpt lat="45.6604644" lon="9.4244243"><ele>238.0</ele><time>2026-04-05T12:04:12.701Z</time></trkpt><trkpt lat="45.6604087" lon="9.4243709"><ele>238.0</ele><time>2026-04-05T12:04:13.701Z</time></trkpt><trkpt lat="45.6603529" lon="9.4243157"><ele>238.0</ele><time>2026-04-05T12:04:14.701Z</time></trkpt><trkpt lat="45.6602975" lon="9.4242697"><ele>238.0</ele><time>2026-04-05T12:04:15.701Z</time></trkpt><trkpt lat="45.6602398" lon="9.4242202"><ele>238.0</ele><time>2026-04-05T12:04:16.7Z</time></trkpt><trkpt lat="45.6601842" lon="9.4241654"><ele>238.0</ele><time>2026-04-05T12:04:17.701Z</time></trkpt><trkpt lat="45.6601281" lon="9.4241098"><ele>238.0</ele><time>2026-04-05T12:04:18.7Z</time></trkpt><trkpt lat="45.6600716" lon="9.424056"><ele>238.0</ele><time>2026-04-05T12:04:19.701Z</time></trkpt><trkpt lat="45.6600128" lon="9.4240041"><ele>238.0</ele><time>2026-04-05T12:04:20.7Z</time></trkpt><trkpt lat="45.6599584" lon="9.4239531"><ele>237.99999999999997</ele><time>2026-04-05T12:04:21.701Z</time></trkpt><trkpt lat="45.6598968" lon="9.4238994"><ele>238.0</ele><time>2026-04-05T12:04:22.701Z</time></trkpt><trkpt lat="45.6598376" lon="9.4238487"><ele>238.0</ele><time>2026-04-05T12:04:23.7Z</time></trkpt><trkpt lat="45.6597826" lon="9.4238029"><ele>238.0</ele><time>2026-04-05T12:04:24.701Z</time></trkpt><trkpt lat="45.6597192" lon="9.4237734"><ele>237.99999999999997</ele><time>2026-04-05T12:04:25.701Z</time></trkpt><trkpt lat="45.6596005" lon="9.4237495"><ele>238.0</ele><time>2026-04-05T12:04:27.701Z</time></trkpt><trkpt lat="45.6594944" lon="9.423824"><ele>237.4</ele><time>2026-04-05T12:04:29.701Z</time></trkpt><trkpt lat="45.659442" lon="9.4238773"><ele>236.8</ele><time>2026-04-05T12:04:30.701Z</time></trkpt><trkpt lat="45.6593496" lon="9.423998"><ele>236.2</ele><time>2026-04-05T12:04:32.7Z</time></trkpt><trkpt lat="45.6592559" lon="9.4240838"><ele>235.6</ele><time>2026-04-05T12:04:34.701Z</time></trkpt><trkpt lat="45.659154" lon="9.4240614"><ele>235.0</ele><time>2026-04-05T12:04:36.7Z</time></trkpt><trkpt lat="45.6590684" lon="9.4239425"><ele>235.0</ele><time>2026-04-05T12:04:38.701Z</time></trkpt><trkpt lat="45.6589704" lon="9.423826"><ele>235.0</ele><time>2026-04-05T12:04:40.701Z</time></trkpt><trkpt lat="45.658915" lon="9.4237742"><ele>235.0</ele><time>2026-04-05T12:04:41.701Z</time></trkpt><trkpt lat="45.6588097" lon="9.4236842"><ele>235.0</ele><time>2026-04-05T12:04:43.701Z</time></trkpt><trkpt lat="45.6587054" lon="9.4235977"><ele>235.0</ele><time>2026-04-05T12:04:45.701Z</time></trkpt><trkpt lat="45.6586475" lon="9.423546"><ele>235.0</ele><time>2026-04-05T12:04:46.701Z</time></trkpt><trkpt lat="45.6585935" lon="9.4234905"><ele>234.99999999999997</ele><time>2026-04-05T12:04:47.701Z</time></trkpt><trkpt lat="45.658536" lon="9.4234439"><ele>235.0</ele><time>2026-04-05T12:04:48.701Z</time></trkpt><trkpt lat="45.6584777" lon="9.4233948"><ele>235.0</ele><time>2026-04-05T12:04:49.701Z</time></trkpt><trkpt lat="45.658424" lon="9.4233403"><ele>234.99999999999997</ele><time>2026-04-05T12:04:50.701Z</time></trkpt><trkpt lat="45.6583685" lon="9.4232946"><ele>235.0</ele><time>2026-04-05T12:04:51.7Z</time></trkpt><trkpt lat="45.6583108" lon="9.423248"><ele>235.0</ele><time>2026-04-05T12:04:52.7Z</time></trkpt><trkpt lat="45.6582513" lon="9.4231982"><ele>235.0</ele><time>2026-04-05T12:04:53.701Z</time></trkpt><trkpt lat="45.6581468" lon="9.4231208"><ele>235.0</ele><time>2026-04-05T12:04:55.7Z</time></trkpt><trkpt lat="45.6580377" lon="9.4230384"><ele>235.0</ele><time>2026-04-05T12:04:57.7Z</time></trkpt><trkpt lat="45.6579273" lon="9.4229836"><ele>235.0</ele><time>2026-04-05T12:04:59.7Z</time></trkpt><trkpt lat="45.6578099" lon="9.4229642"><ele>235.33333333333331</ele><time>2026-04-05T12:05:01.701Z</time></trkpt><trkpt lat="45.657743" lon="9.4229602"><ele>235.66666666666666</ele><time>2026-04-05T12:05:02.7Z</time></trkpt><trkpt lat="45.657676" lon="9.4229636"><ele>236.0</ele><time>2026-04-05T12:05:03.7Z</time></trkpt><trkpt lat="45.6575979" lon="9.4229665"><ele>236.33333333333331</ele><time>2026-04-05T12:05:04.701Z</time></trkpt><trkpt lat="45.6574885" lon="9.4229427"><ele>236.66666666666666</ele><time>2026-04-05T12:05:06.701Z</time></trkpt><trkpt lat="45.6573855" lon="9.4228961"><ele>237.0</ele><time>2026-04-05T12:05:08.701Z</time></trkpt><trkpt lat="45.6573091" lon="9.4228662"><ele>237.0</ele><time>2026-04-05T12:05:09.701Z</time></trkpt><trkpt lat="45.6572171" lon="9.4228109"><ele>237.0</ele><time>2026-04-05T12:05:11.701Z</time></trkpt><trkpt lat="45.6571437" lon="9.4227855"><ele>237.0</ele><time>2026-04-05T12:05:12.701Z</time></trkpt><trkpt lat="45.6570792" lon="9.4227649"><ele>237.0</ele><time>2026-04-05T12:05:13.701Z</time></trkpt><trkpt lat="45.6570082" lon="9.4227453"><ele>237.0</ele><time>2026-04-05T12:05:14.7Z</time></trkpt><trkpt lat="45.6569455" lon="9.4227246"><ele>237.0</ele><time>2026-04-05T12:05:15.701Z</time></trkpt><trkpt lat="45.6568449" lon="9.4226762"><ele>236.8</ele><time>2026-04-05T12:05:17.701Z</time></trkpt><trkpt lat="45.6567745" lon="9.4226464"><ele>236.6</ele><time>2026-04-05T12:05:18.701Z</time></trkpt><trkpt lat="45.6566455" lon="9.4225926"><ele>236.40000000000003</ele><time>2026-04-05T12:05:20.7Z</time></trkpt><trkpt lat="45.6565805" lon="9.4225561"><ele>236.20000000000002</ele><time>2026-04-05T12:05:21.701Z</time></trkpt><trkpt lat="45.656524" lon="9.4225159"><ele>236.0</ele><time>2026-04-05T12:05:22.701Z</time></trkpt><trkpt lat="45.656416" lon="9.4224634"><ele>236.00000000000003</ele><time>2026-04-05T12:05:24.701Z</time></trkpt><trkpt lat="45.6563207" lon="9.4224413"><ele>236.0</ele><time>2026-04-05T12:05:25.701Z</time></trkpt><trkpt lat="45.6562533" lon="9.4224076"><ele>236.0</ele><time>2026-04-05T12:05:26.7Z</time></trkpt><trkpt lat="45.6561789" lon="9.4223826"><ele>236.0</ele><time>2026-04-05T12:05:27.701Z</time></trkpt><trkpt lat="45.656111" lon="9.4223416"><ele>236.00000000000003</ele><time>2026-04-05T12:05:28.701Z</time></trkpt><trkpt lat="45.6560248" lon="9.4223146"><ele>236.0</ele><time>2026-04-05T12:05:29.701Z</time></trkpt><trkpt lat="45.6559628" lon="9.4222819"><ele>235.83333333333334</ele><time>2026-04-05T12:05:30.701Z</time></trkpt><trkpt lat="45.6559049" lon="9.4222429"><ele>235.66666666666669</ele><time>2026-04-05T12:05:31.701Z</time></trkpt><trkpt lat="45.6557929" lon="9.4221659"><ele>235.5</ele><time>2026-04-05T12:05:33.701Z</time></trkpt><trkpt lat="45.655723" lon="9.4221246"><ele>235.33333333333331</ele><time>2026-04-05T12:05:34.701Z</time></trkpt><trkpt lat="45.6556639" lon="9.4220701"><ele>235.16666666666666</ele><time>2026-04-05T12:05:35.7Z</time></trkpt><trkpt lat="45.6556" lon="9.4220276"><ele>235.0</ele><time>2026-04-05T12:05:36.701Z</time></trkpt><trkpt lat="45.6554835" lon="9.4219451"><ele>235.16666666666666</ele><time>2026-04-05T12:05:38.701Z</time></trkpt><trkpt lat="45.6553669" lon="9.421876"><ele>235.33333333333331</ele><time>2026-04-05T12:05:40.7Z</time></trkpt><trkpt lat="45.6553052" lon="9.4218425"><ele>235.5</ele><time>2026-04-05T12:05:41.7Z</time></trkpt><trkpt lat="45.6552327" lon="9.4218232"><ele>235.66666666666669</ele><time>2026-04-05T12:05:42.701Z</time></trkpt><trkpt lat="45.6551657" lon="9.4217911"><ele>235.83333333333334</ele><time>2026-04-05T12:05:43.701Z</time></trkpt><trkpt lat="45.6550896" lon="9.4217825"><ele>236.0</ele><time>2026-04-05T12:05:44.701Z</time></trkpt><trkpt lat="45.655002" lon="9.421752"><ele>236.00000000000003</ele><time>2026-04-05T12:05:45.7Z</time></trkpt><trkpt lat="45.6549402" lon="9.4217287"><ele>236.0</ele><time>2026-04-05T12:05:46.7Z</time></trkpt><trkpt lat="45.6548727" lon="9.421714"><ele>236.0</ele><time>2026-04-05T12:05:47.701Z</time></trkpt><trkpt lat="45.6548076" lon="9.4217003"><ele>236.0</ele><time>2026-04-05T12:05:48.701Z</time></trkpt><trkpt lat="45.6547405" lon="9.4216795"><ele>236.00000000000003</ele><time>2026-04-05T12:05:49.7Z</time></trkpt><trkpt lat="45.6546054" lon="9.4216619"><ele>236.0</ele><time>2026-04-05T12:05:51.7Z</time></trkpt><trkpt lat="45.6544937" lon="9.4216663"><ele>235.83333333333334</ele><time>2026-04-05T12:05:53.701Z</time></trkpt><trkpt lat="45.6544224" lon="9.4216795"><ele>235.66666666666669</ele><time>2026-04-05T12:05:54.7Z</time></trkpt><trkpt lat="45.6543541" lon="9.4217027"><ele>235.5</ele><time>2026-04-05T12:05:55.701Z</time></trkpt><trkpt lat="45.6542836" lon="9.4217014"><ele>235.33333333333331</ele><time>2026-04-05T12:05:56.701Z</time></trkpt><trkpt lat="45.6541643" lon="9.4217353"><ele>235.16666666666666</ele><time>2026-04-05T12:05:58.7Z</time></trkpt><trkpt lat="45.654101" lon="9.4217664"><ele>235.0</ele><time>2026-04-05T12:05:59.701Z</time></trkpt><trkpt lat="45.6540366" lon="9.421809"><ele>235.0</ele><time>2026-04-05T12:06:00.701Z</time></trkpt><trkpt lat="45.6539171" lon="9.4218435"><ele>235.0</ele><time>2026-04-05T12:06:02.701Z</time></trkpt><trkpt lat="45.6538127" lon="9.4218371"><ele>235.0</ele><time>2026-04-05T12:06:04.701Z</time></trkpt><trkpt lat="45.6536823" lon="9.421859"><ele>235.0</ele><time>2026-04-05T12:06:06.701Z</time></trkpt><trkpt lat="45.6535606" lon="9.4218943"><ele>235.4</ele><time>2026-04-05T12:06:08.701Z</time></trkpt><trkpt lat="45.6534938" lon="9.4219066"><ele>235.8</ele><time>2026-04-05T12:06:09.7Z</time></trkpt><trkpt lat="45.6533896" lon="9.4219174"><ele>236.2</ele><time>2026-04-05T12:06:11.701Z</time></trkpt><trkpt lat="45.653297" lon="9.4219213"><ele>236.6</ele><time>2026-04-05T12:06:13.7Z</time></trkpt><trkpt lat="45.6531971" lon="9.4219088"><ele>237.0</ele><time>2026-04-05T12:06:15.7Z</time></trkpt><trkpt lat="45.6530866" lon="9.4219082"><ele>237.0</ele><time>2026-04-05T12:06:17.701Z</time></trkpt><trkpt lat="45.6530195" lon="9.4219013"><ele>237.0</ele><time>2026-04-05T12:06:18.7Z</time></trkpt><trkpt lat="45.6529504" lon="9.4218917"><ele>237.0</ele><time>2026-04-05T12:06:19.701Z</time></trkpt><trkpt lat="45.6528824" lon="9.4218865"><ele>237.0</ele><time>2026-04-05T12:06:20.701Z</time></trkpt><trkpt lat="45.6527722" lon="9.4218753"><ele>237.0</ele><time>2026-04-05T12:06:22.701Z</time></trkpt><trkpt lat="45.6526837" lon="9.4218817"><ele>237.0</ele><time>2026-04-05T12:06:23.7Z</time></trkpt><trkpt lat="45.6526146" lon="9.4218539"><ele>237.16666666666666</ele><time>2026-04-05T12:06:24.7Z</time></trkpt><trkpt lat="45.6525488" lon="9.4218182"><ele>237.33333333333331</ele><time>2026-04-05T12:06:25.701Z</time></trkpt><trkpt lat="45.6524695" lon="9.421786"><ele>237.5</ele><time>2026-04-05T12:06:26.701Z</time></trkpt><trkpt lat="45.6523735" lon="9.4217656"><ele>237.66666666666666</ele><time>2026-04-05T12:06:27.701Z</time></trkpt><trkpt lat="45.6522858" lon="9.4217361"><ele>237.83333333333331</ele><time>2026-04-05T12:06:28.701Z</time></trkpt><trkpt lat="45.6522151" lon="9.4217262"><ele>238.0</ele><time>2026-04-05T12:06:29.7Z</time></trkpt><trkpt lat="45.652137" lon="9.4217115"><ele>237.99999999999997</ele><time>2026-04-05T12:06:30.7Z</time></trkpt><trkpt lat="45.652064" lon="9.4216936"><ele>238.0</ele><time>2026-04-05T12:06:31.701Z</time></trkpt><trkpt lat="45.651987" lon="9.4216695"><ele>238.0</ele><time>2026-04-05T12:06:32.701Z</time></trkpt><trkpt lat="45.6519258" lon="9.4216468"><ele>238.0</ele><time>2026-04-05T12:06:33.701Z</time></trkpt><trkpt lat="45.6518249" lon="9.421624"><ele>237.99999999999997</ele><time>2026-04-05T12:06:35.701Z</time></trkpt><trkpt lat="45.6517397" lon="9.4216332"><ele>238.0</ele><time>2026-04-05T12:06:37.701Z</time></trkpt><trkpt lat="45.6516946" lon="9.4216979"><ele>237.60000000000002</ele><time>2026-04-05T12:06:39.701Z</time></trkpt><trkpt lat="45.651641" lon="9.4218354"><ele>237.20000000000002</ele><time>2026-04-05T12:06:42.7Z</time></trkpt><trkpt lat="45.6516254" lon="9.4219797"><ele>236.8</ele><time>2026-04-05T12:06:44.701Z</time></trkpt><trkpt lat="45.6516187" lon="9.4221339"><ele>236.4</ele><time>2026-04-05T12:06:46.701Z</time></trkpt><trkpt lat="45.6516106" lon="9.4222312"><ele>236.0</ele><time>2026-04-05T12:06:47.701Z</time></trkpt><trkpt lat="45.6515923" lon="9.4223212"><ele>235.20000000000002</ele><time>2026-04-05T12:06:48.701Z</time></trkpt><trkpt lat="45.6515626" lon="9.4224685"><ele>234.40000000000003</ele><time>2026-04-05T12:06:50.7Z</time></trkpt><trkpt lat="45.6514977" lon="9.4225186"><ele>233.6</ele><time>2026-04-05T12:06:52.701Z</time></trkpt><trkpt lat="45.6514013" lon="9.4225311"><ele>232.8</ele><time>2026-04-05T12:06:54.701Z</time></trkpt><trkpt lat="45.6512862" lon="9.4225234"><ele>232.0</ele><time>2026-04-05T12:06:56.701Z</time></trkpt><trkpt lat="45.6511957" lon="9.4225096"><ele>232.16666666666666</ele><time>2026-04-05T12:06:58.701Z</time></trkpt><trkpt lat="45.6511009" lon="9.4225091"><ele>232.33333333333331</ele><time>2026-04-05T12:07:00.701Z</time></trkpt><trkpt lat="45.6510348" lon="9.4224877"><ele>232.5</ele><time>2026-04-05T12:07:02.701Z</time></trkpt><trkpt lat="45.6509499" lon="9.4224668"><ele>232.66666666666669</ele><time>2026-04-05T12:07:04.7Z</time></trkpt><trkpt lat="45.6508814" lon="9.4224426"><ele>232.83333333333334</ele><time>2026-04-05T12:07:05.701Z</time></trkpt><trkpt lat="45.6508115" lon="9.4224189"><ele>233.0</ele><time>2026-04-05T12:07:06.701Z</time></trkpt><trkpt lat="45.6507439" lon="9.4224096"><ele>233.0</ele><time>2026-04-05T12:07:07.701Z</time></trkpt><trkpt lat="45.6506254" lon="9.422375"><ele>233.0</ele><time>2026-04-05T12:07:09.701Z</time></trkpt><trkpt lat="45.6505583" lon="9.4223615"><ele>233.0</ele><time>2026-04-05T12:07:10.701Z</time></trkpt><trkpt lat="45.6504898" lon="9.4223628"><ele>233.0</ele><time>2026-04-05T12:07:11.7Z</time></trkpt><trkpt lat="45.6503924" lon="9.4223965"><ele>233.0</ele><time>2026-04-05T12:07:13.701Z</time></trkpt><trkpt lat="45.6502916" lon="9.4224257"><ele>233.2</ele><time>2026-04-05T12:07:15.701Z</time></trkpt><trkpt lat="45.6502071" lon="9.4224059"><ele>233.4</ele><time>2026-04-05T12:07:17.7Z</time></trkpt><trkpt lat="45.6501217" lon="9.4223869"><ele>233.59999999999997</ele><time>2026-04-05T12:07:19.701Z</time></trkpt><trkpt lat="45.6500363" lon="9.4223879"><ele>233.79999999999998</ele><time>2026-04-05T12:07:21.701Z</time></trkpt><trkpt lat="45.6499369" lon="9.4223548"><ele>234.0</ele><time>2026-04-05T12:07:23.701Z</time></trkpt><trkpt lat="45.6498158" lon="9.4223077"><ele>234.0</ele><time>2026-04-05T12:07:25.7Z</time></trkpt><trkpt lat="45.6497473" lon="9.4222873"><ele>234.00000000000003</ele><time>2026-04-05T12:07:26.7Z</time></trkpt><trkpt lat="45.6496795" lon="9.4222733"><ele>234.0</ele><time>2026-04-05T12:07:27.701Z</time></trkpt><trkpt lat="45.6496118" lon="9.4222667"><ele>234.0</ele><time>2026-04-05T12:07:28.7Z</time></trkpt><trkpt lat="45.6495458" lon="9.422263"><ele>234.00000000000003</ele><time>2026-04-05T12:07:29.701Z</time></trkpt><trkpt lat="45.6494815" lon="9.4222571"><ele>234.0</ele><time>2026-04-05T12:07:30.701Z</time></trkpt><trkpt lat="45.6494033" lon="9.4222505"><ele>234.0</ele><time>2026-04-05T12:07:31.7Z</time></trkpt><trkpt lat="45.6493406" lon="9.4222422"><ele>233.6</ele><time>2026-04-05T12:07:32.701Z</time></trkpt><trkpt lat="45.6492776" lon="9.4222369"><ele>233.2</ele><time>2026-04-05T12:07:33.701Z</time></trkpt><trkpt lat="45.6491564" lon="9.4222199"><ele>232.79999999999998</ele><time>2026-04-05T12:07:35.701Z</time></trkpt><trkpt lat="45.6490421" lon="9.4222332"><ele>232.39999999999998</ele><time>2026-04-05T12:07:37.701Z</time></trkpt><trkpt lat="45.6489859" lon="9.422332"><ele>232.0</ele><time>2026-04-05T12:07:39.7Z</time></trkpt><trkpt lat="45.6489845" lon="9.4224523"><ele>231.99999999999997</ele><time>2026-04-05T12:07:41.701Z</time></trkpt><trkpt lat="45.6489737" lon="9.422571"><ele>232.0</ele><time>2026-04-05T12:07:43.701Z</time></trkpt><trkpt lat="45.6489691" lon="9.4226905"><ele>232.0</ele><time>2026-04-05T12:07:45.701Z</time></trkpt><trkpt lat="45.6489681" lon="9.422815"><ele>232.0</ele><time>2026-04-05T12:07:47.701Z</time></trkpt><trkpt lat="45.6489645" lon="9.4229405"><ele>231.99999999999997</ele><time>2026-04-05T12:07:49.701Z</time></trkpt><trkpt lat="45.6489676" lon="9.4230732"><ele>232.0</ele><time>2026-04-05T12:07:51.701Z</time></trkpt><trkpt lat="45.6489701" lon="9.423207"><ele>233.0</ele><time>2026-04-05T12:07:53.7Z</time></trkpt><trkpt lat="45.6489675" lon="9.4233267"><ele>234.0</ele><time>2026-04-05T12:07:55.7Z</time></trkpt><trkpt lat="45.6489142" lon="9.4234096"><ele>235.0</ele><time>2026-04-05T12:07:57.701Z</time></trkpt><trkpt lat="45.6488142" lon="9.4234188"><ele>236.0</ele><time>2026-04-05T12:07:59.701Z</time></trkpt><trkpt lat="45.648706" lon="9.4234144"><ele>237.0</ele><time>2026-04-05T12:08:01.701Z</time></trkpt><trkpt lat="45.648594" lon="9.4234155"><ele>237.0</ele><time>2026-04-05T12:08:03.701Z</time></trkpt><trkpt lat="45.6484776" lon="9.4234231"><ele>237.0</ele><time>2026-04-05T12:08:05.701Z</time></trkpt><trkpt lat="45.6483472" lon="9.4234373"><ele>237.0</ele><time>2026-04-05T12:08:07.7Z</time></trkpt><trkpt lat="45.6482299" lon="9.4234321"><ele>237.0</ele><time>2026-04-05T12:08:09.701Z</time></trkpt><trkpt lat="45.6481188" lon="9.4234467"><ele>237.0</ele><time>2026-04-05T12:08:11.7Z</time></trkpt><trkpt lat="45.6480053" lon="9.4234491"><ele>237.0</ele><time>2026-04-05T12:08:13.701Z</time></trkpt><trkpt lat="45.6479" lon="9.4234468"><ele>237.0</ele><time>2026-04-05T12:08:15.701Z</time></trkpt><trkpt lat="45.647783" lon="9.4234579"><ele>237.0</ele><time>2026-04-05T12:08:17.7Z</time></trkpt><trkpt lat="45.6476742" lon="9.4234659"><ele>237.0</ele><time>2026-04-05T12:08:19.701Z</time></trkpt><trkpt lat="45.6475617" lon="9.4234819"><ele>237.2</ele><time>2026-04-05T12:08:21.701Z</time></trkpt><trkpt lat="45.6474438" lon="9.4235049"><ele>237.39999999999998</ele><time>2026-04-05T12:08:23.701Z</time></trkpt><trkpt lat="45.6473379" lon="9.4235028"><ele>237.60000000000002</ele><time>2026-04-05T12:08:25.701Z</time></trkpt><trkpt lat="45.6472337" lon="9.4234932"><ele>237.8</ele><time>2026-04-05T12:08:27.7Z</time></trkpt><trkpt lat="45.6471308" lon="9.42345"><ele>238.0</ele><time>2026-04-05T12:08:29.7Z</time></trkpt><trkpt lat="45.6470317" lon="9.4233794"><ele>238.2</ele><time>2026-04-05T12:08:31.701Z</time></trkpt><trkpt lat="45.6469334" lon="9.4233029"><ele>238.4</ele><time>2026-04-05T12:08:33.7Z</time></trkpt><trkpt lat="45.6468373" lon="9.4232268"><ele>238.59999999999997</ele><time>2026-04-05T12:08:35.701Z</time></trkpt><trkpt lat="45.6467371" lon="9.423159"><ele>238.79999999999998</ele><time>2026-04-05T12:08:37.701Z</time></trkpt><trkpt lat="45.646643" lon="9.4230775"><ele>239.0</ele><time>2026-04-05T12:08:39.701Z</time></trkpt><trkpt lat="45.6465564" lon="9.4230018"><ele>239.2</ele><time>2026-04-05T12:08:41.701Z</time></trkpt><trkpt lat="45.646461" lon="9.422932"><ele>239.39999999999998</ele><time>2026-04-05T12:08:43.7Z</time></trkpt><trkpt lat="45.646366" lon="9.4228479"><ele>239.6</ele><time>2026-04-05T12:08:45.7Z</time></trkpt><trkpt lat="45.6462684" lon="9.422765"><ele>239.8</ele><time>2026-04-05T12:08:47.701Z</time></trkpt><trkpt lat="45.6461732" lon="9.4226748"><ele>240.0</ele><time>2026-04-05T12:08:49.701Z</time></trkpt><trkpt lat="45.6460697" lon="9.4226026"><ele>240.0</ele><time>2026-04-05T12:08:51.701Z</time></trkpt><trkpt lat="45.6459717" lon="9.4225036"><ele>240.0</ele><time>2026-04-05T12:08:53.701Z</time></trkpt><trkpt lat="45.6458744" lon="9.4224213"><ele>240.0</ele><time>2026-04-05T12:08:55.701Z</time></trkpt><trkpt lat="45.6457839" lon="9.4223356"><ele>240.0</ele><time>2026-04-05T12:08:57.7Z</time></trkpt><trkpt lat="45.6456857" lon="9.4222337"><ele>239.0</ele><time>2026-04-05T12:08:59.701Z</time></trkpt><trkpt lat="45.6456044" lon="9.4221165"><ele>238.0</ele><time>2026-04-05T12:09:01.701Z</time></trkpt><trkpt lat="45.6455597" lon="9.4220455"><ele>237.0</ele><time>2026-04-05T12:09:02.701Z</time></trkpt><trkpt lat="45.6454856" lon="9.4219046"><ele>236.0</ele><time>2026-04-05T12:09:04.7Z</time></trkpt><trkpt lat="45.6454208" lon="9.4217579"><ele>235.0</ele><time>2026-04-05T12:09:06.701Z</time></trkpt><trkpt lat="45.6453581" lon="9.4216107"><ele>235.33333333333331</ele><time>2026-04-05T12:09:08.7Z</time></trkpt><trkpt lat="45.6452926" lon="9.4214507"><ele>235.66666666666666</ele><time>2026-04-05T12:09:10.701Z</time></trkpt><trkpt lat="45.6452599" lon="9.4213727"><ele>236.0</ele><time>2026-04-05T12:09:11.7Z</time></trkpt><trkpt lat="45.6452304" lon="9.4212904"><ele>236.33333333333331</ele><time>2026-04-05T12:09:12.701Z</time></trkpt><trkpt lat="45.6451993" lon="9.4212036"><ele>236.66666666666666</ele><time>2026-04-05T12:09:13.701Z</time></trkpt><trkpt lat="45.6451671" lon="9.4211199"><ele>237.0</ele><time>2026-04-05T12:09:14.7Z</time></trkpt><trkpt lat="45.645136" lon="9.4210291"><ele>237.0</ele><time>2026-04-05T12:09:15.701Z</time></trkpt><trkpt lat="45.6450539" lon="9.4208598"><ele>237.0</ele><time>2026-04-05T12:09:17.701Z</time></trkpt><trkpt lat="45.6450162" lon="9.4207644"><ele>237.0</ele><time>2026-04-05T12:09:18.701Z</time></trkpt><trkpt lat="45.6449803" lon="9.4206792"><ele>237.0</ele><time>2026-04-05T12:09:19.7Z</time></trkpt><trkpt lat="45.6449509" lon="9.4205986"><ele>237.0</ele><time>2026-04-05T12:09:20.701Z</time></trkpt><trkpt lat="45.6449261" lon="9.4205128"><ele>237.0</ele><time>2026-04-05T12:09:21.701Z</time></trkpt><trkpt lat="45.644875" lon="9.4203561"><ele>236.2</ele><time>2026-04-05T12:09:23.701Z</time></trkpt><trkpt lat="45.6448333" lon="9.4202464"><ele>235.39999999999998</ele><time>2026-04-05T12:09:25.7Z</time></trkpt><trkpt lat="45.6447994" lon="9.4201011"><ele>234.60000000000002</ele><time>2026-04-05T12:09:27.701Z</time></trkpt><trkpt lat="45.6447399" lon="9.4199484"><ele>233.8</ele><time>2026-04-05T12:09:29.701Z</time></trkpt><trkpt lat="45.6447004" lon="9.4198664"><ele>233.0</ele><time>2026-04-05T12:09:30.701Z</time></trkpt><trkpt lat="45.6446734" lon="9.4197736"><ele>233.0</ele><time>2026-04-05T12:09:31.701Z</time></trkpt><trkpt lat="45.6446448" lon="9.4196898"><ele>233.0</ele><time>2026-04-05T12:09:32.701Z</time></trkpt><trkpt lat="45.6446112" lon="9.4196008"><ele>233.0</ele><time>2026-04-05T12:09:33.7Z</time></trkpt><trkpt lat="45.6445792" lon="9.4195062"><ele>233.0</ele><time>2026-04-05T12:09:34.701Z</time></trkpt><trkpt lat="45.6445447" lon="9.419413"><ele>233.0</ele><time>2026-04-05T12:09:35.701Z</time></trkpt><trkpt lat="45.6445068" lon="9.4193216"><ele>233.0</ele><time>2026-04-05T12:09:36.701Z</time></trkpt><trkpt lat="45.6444837" lon="9.419228"><ele>233.0</ele><time>2026-04-05T12:09:37.701Z</time></trkpt><trkpt lat="45.6444527" lon="9.4191382"><ele>232.57142857142858</ele><time>2026-04-05T12:09:38.7Z</time></trkpt><trkpt lat="45.6444183" lon="9.4190442"><ele>232.1428571428571</ele><time>2026-04-05T12:09:39.701Z</time></trkpt><trkpt lat="45.6443814" lon="9.4189503"><ele>231.7142857142857</ele><time>2026-04-05T12:09:40.701Z</time></trkpt><trkpt lat="45.644351" lon="9.4188628"><ele>231.28571428571428</ele><time>2026-04-05T12:09:41.701Z</time></trkpt><trkpt lat="45.644319" lon="9.4187696"><ele>230.85714285714283</ele><time>2026-04-05T12:09:42.701Z</time></trkpt><trkpt lat="45.6442892" lon="9.4186796"><ele>230.4285714285714</ele><time>2026-04-05T12:09:43.701Z</time></trkpt><trkpt lat="45.6442634" lon="9.4185938"><ele>229.99999999999997</ele><time>2026-04-05T12:09:44.701Z</time></trkpt><trkpt lat="45.6442382" lon="9.4185098"><ele>229.71428571428567</ele><time>2026-04-05T12:09:45.701Z</time></trkpt><trkpt lat="45.6442062" lon="9.4184107"><ele>229.42857142857142</ele><time>2026-04-05T12:09:46.701Z</time></trkpt><trkpt lat="45.6441725" lon="9.4183281"><ele>229.1428571428571</ele><time>2026-04-05T12:09:47.7Z</time></trkpt><trkpt lat="45.6441367" lon="9.4182535"><ele>228.85714285714283</ele><time>2026-04-05T12:09:48.701Z</time></trkpt><trkpt lat="45.6440961" lon="9.4181778"><ele>228.57142857142856</ele><time>2026-04-05T12:09:49.701Z</time></trkpt><trkpt lat="45.6440465" lon="9.4181111"><ele>228.28571428571428</ele><time>2026-04-05T12:09:50.701Z</time></trkpt><trkpt lat="45.6439952" lon="9.4180555"><ele>228.0</ele><time>2026-04-05T12:09:51.701Z</time></trkpt><trkpt lat="45.6439404" lon="9.4180058"><ele>228.14285714285714</ele><time>2026-04-05T12:09:52.7Z</time></trkpt><trkpt lat="45.6438835" lon="9.4179639"><ele>228.28571428571428</ele><time>2026-04-05T12:09:53.701Z</time></trkpt><trkpt lat="45.6438234" lon="9.4179192"><ele>228.42857142857142</ele><time>2026-04-05T12:09:54.701Z</time></trkpt><trkpt lat="45.6437626" lon="9.4178787"><ele>228.57142857142856</ele><time>2026-04-05T12:09:55.701Z</time></trkpt><trkpt lat="45.6437051" lon="9.4178418"><ele>228.71428571428572</ele><time>2026-04-05T12:09:56.701Z</time></trkpt><trkpt lat="45.6436474" lon="9.4177981"><ele>228.85714285714283</ele><time>2026-04-05T12:09:57.701Z</time></trkpt><trkpt lat="45.6435828" lon="9.4177609"><ele>229.0</ele><time>2026-04-05T12:09:58.701Z</time></trkpt><trkpt lat="45.6435233" lon="9.417715"><ele>229.0</ele><time>2026-04-05T12:09:59.701Z</time></trkpt><trkpt lat="45.6434673" lon="9.4176617"><ele>229.0</ele><time>2026-04-05T12:10:00.701Z</time></trkpt><trkpt lat="45.6434041" lon="9.417623"><ele>229.0</ele><time>2026-04-05T12:10:01.7Z</time></trkpt><trkpt lat="45.6433439" lon="9.417583"><ele>229.0</ele><time>2026-04-05T12:10:02.701Z</time></trkpt><trkpt lat="45.6432834" lon="9.4175484"><ele>229.0</ele><time>2026-04-05T12:10:03.701Z</time></trkpt><trkpt lat="45.6432204" lon="9.4175043"><ele>229.0</ele><time>2026-04-05T12:10:04.7Z</time></trkpt><trkpt lat="45.6431636" lon="9.4174586"><ele>229.0</ele><time>2026-04-05T12:10:05.701Z</time></trkpt><trkpt lat="45.643098" lon="9.4174204"><ele>228.99999999999997</ele><time>2026-04-05T12:10:06.701Z</time></trkpt><trkpt lat="45.6430434" lon="9.4173732"><ele>229.0</ele><time>2026-04-05T12:10:07.701Z</time></trkpt><trkpt lat="45.6429845" lon="9.4173356"><ele>229.0</ele><time>2026-04-05T12:10:08.7Z</time></trkpt><trkpt lat="45.642925" lon="9.4172981"><ele>229.0</ele><time>2026-04-05T12:10:09.701Z</time></trkpt><trkpt lat="45.6428697" lon="9.4172545"><ele>228.99999999999997</ele><time>2026-04-05T12:10:10.701Z</time></trkpt><trkpt lat="45.6428123" lon="9.4172036"><ele>229.0</ele><time>2026-04-05T12:10:11.701Z</time></trkpt><trkpt lat="45.6426969" lon="9.4171294"><ele>229.0</ele><time>2026-04-05T12:10:13.701Z</time></trkpt><trkpt lat="45.6426371" lon="9.4170878"><ele>229.0</ele><time>2026-04-05T12:10:14.701Z</time></trkpt><trkpt lat="45.642569" lon="9.4170403"><ele>229.0</ele><time>2026-04-05T12:10:15.7Z</time></trkpt><trkpt lat="45.6425127" lon="9.4169842"><ele>229.0</ele><time>2026-04-05T12:10:16.701Z</time></trkpt><trkpt lat="45.6424499" lon="9.4169415"><ele>229.0</ele><time>2026-04-05T12:10:17.701Z</time></trkpt><trkpt lat="45.6423924" lon="9.4168966"><ele>229.0</ele><time>2026-04-05T12:10:18.701Z</time></trkpt><trkpt lat="45.642326" lon="9.4168481"><ele>229.0</ele><time>2026-04-05T12:10:19.701Z</time></trkpt><trkpt lat="45.6422606" lon="9.4167927"><ele>229.0</ele><time>2026-04-05T12:10:20.701Z</time></trkpt><trkpt lat="45.6421847" lon="9.4167498"><ele>229.0</ele><time>2026-04-05T12:10:21.701Z</time></trkpt><trkpt lat="45.6421213" lon="9.4167133"><ele>229.0</ele><time>2026-04-05T12:10:22.701Z</time></trkpt><trkpt lat="45.6420573" lon="9.4166725"><ele>229.0</ele><time>2026-04-05T12:10:23.701Z</time></trkpt><trkpt lat="45.6419862" lon="9.4166281"><ele>229.0</ele><time>2026-04-05T12:10:24.701Z</time></trkpt><trkpt lat="45.6419168" lon="9.4165886"><ele>229.0</ele><time>2026-04-05T12:10:25.701Z</time></trkpt><trkpt lat="45.6418521" lon="9.4165434"><ele>229.0</ele><time>2026-04-05T12:10:26.701Z</time></trkpt><trkpt lat="45.6417894" lon="9.4165027"><ele>229.0</ele><time>2026-04-05T12:10:27.7Z</time></trkpt><trkpt lat="45.6417197" lon="9.4164587"><ele>229.0</ele><time>2026-04-05T12:10:28.701Z</time></trkpt><trkpt lat="45.6416552" lon="9.4164125"><ele>229.0</ele><time>2026-04-05T12:10:29.701Z</time></trkpt><trkpt lat="45.6415938" lon="9.4163617"><ele>229.0</ele><time>2026-04-05T12:10:30.701Z</time></trkpt><trkpt lat="45.6415315" lon="9.4163186"><ele>229.0</ele><time>2026-04-05T12:10:31.7Z</time></trkpt><trkpt lat="45.6414731" lon="9.4162812"><ele>229.0</ele><time>2026-04-05T12:10:32.701Z</time></trkpt><trkpt lat="45.6413781" lon="9.4162558"><ele>229.0</ele><time>2026-04-05T12:10:34.701Z</time></trkpt><trkpt lat="45.6413028" lon="9.416349"><ele>229.0</ele><time>2026-04-05T12:10:36.701Z</time></trkpt><trkpt lat="45.6412519" lon="9.416509"><ele>228.99999999999997</ele><time>2026-04-05T12:10:38.701Z</time></trkpt><trkpt lat="45.6412084" lon="9.4165976"><ele>228.99999999999997</ele><time>2026-04-05T12:10:39.701Z</time></trkpt><trkpt lat="45.6411515" lon="9.4167564"><ele>229.0</ele><time>2026-04-05T12:10:41.7Z</time></trkpt><trkpt lat="45.6411196" lon="9.4168398"><ele>229.0</ele><time>2026-04-05T12:10:42.701Z</time></trkpt><trkpt lat="45.6410908" lon="9.416922"><ele>228.99999999999997</ele><time>2026-04-05T12:10:43.701Z</time></trkpt><trkpt lat="45.6410391" lon="9.4170861"><ele>229.0</ele><time>2026-04-05T12:10:45.701Z</time></trkpt><trkpt lat="45.6410059" lon="9.4171726"><ele>229.0</ele><time>2026-04-05T12:10:46.701Z</time></trkpt><trkpt lat="45.6409758" lon="9.4172572"><ele>229.0</ele><time>2026-04-05T12:10:47.7Z</time></trkpt><trkpt lat="45.640945" lon="9.4173368"><ele>228.99999999999997</ele><time>2026-04-05T12:10:48.7Z</time></trkpt><trkpt lat="45.6409209" lon="9.4174361"><ele>229.0</ele><time>2026-04-05T12:10:49.701Z</time></trkpt><trkpt lat="45.6408892" lon="9.4175227"><ele>229.0</ele><time>2026-04-05T12:10:50.7Z</time></trkpt><trkpt lat="45.640863" lon="9.4176096"><ele>229.0</ele><time>2026-04-05T12:10:51.701Z</time></trkpt><trkpt lat="45.6408242" lon="9.4176898"><ele>229.0</ele><time>2026-04-05T12:10:52.701Z</time></trkpt><trkpt lat="45.6407911" lon="9.4177805"><ele>229.0</ele><time>2026-04-05T12:10:53.701Z</time></trkpt><trkpt lat="45.6407518" lon="9.4178547"><ele>229.0</ele><time>2026-04-05T12:10:54.701Z</time></trkpt><trkpt lat="45.6407059" lon="9.4179283"><ele>229.0</ele><time>2026-04-05T12:10:55.7Z</time></trkpt><trkpt lat="45.6406637" lon="9.4179957"><ele>229.0</ele><time>2026-04-05T12:10:56.701Z</time></trkpt><trkpt lat="45.6405615" lon="9.4181105"><ele>228.99999999999997</ele><time>2026-04-05T12:10:58.701Z</time></trkpt><trkpt lat="45.6405022" lon="9.4181575"><ele>229.0</ele><time>2026-04-05T12:10:59.701Z</time></trkpt><trkpt lat="45.6404412" lon="9.4181963"><ele>229.0</ele><time>2026-04-05T12:11:00.701Z</time></trkpt><trkpt lat="45.6403251" lon="9.4182349"><ele>229.0</ele><time>2026-04-05T12:11:02.701Z</time></trkpt><trkpt lat="45.6402521" lon="9.4182498"><ele>228.99999999999997</ele><time>2026-04-05T12:11:03.7Z</time></trkpt><trkpt lat="45.6401869" lon="9.4182547"><ele>229.0</ele><time>2026-04-05T12:11:04.7Z</time></trkpt><trkpt lat="45.6401179" lon="9.4182571"><ele>229.0</ele><time>2026-04-05T12:11:05.701Z</time></trkpt><trkpt lat="45.6400443" lon="9.418249"><ele>229.0</ele><time>2026-04-05T12:11:06.701Z</time></trkpt><trkpt lat="45.6399798" lon="9.4182352"><ele>229.0</ele><time>2026-04-05T12:11:07.7Z</time></trkpt><trkpt lat="45.6399072" lon="9.4182283"><ele>229.0</ele><time>2026-04-05T12:11:08.701Z</time></trkpt><trkpt lat="45.6398331" lon="9.4182136"><ele>229.0</ele><time>2026-04-05T12:11:09.701Z</time></trkpt><trkpt lat="45.6397655" lon="9.4182023"><ele>229.0</ele><time>2026-04-05T12:11:10.701Z</time></trkpt><trkpt lat="45.6396995" lon="9.4181875"><ele>229.0</ele><time>2026-04-05T12:11:11.7Z</time></trkpt><trkpt lat="45.6396295" lon="9.418168"><ele>229.0</ele><time>2026-04-05T12:11:12.7Z</time></trkpt><trkpt lat="45.6395614" lon="9.4181463"><ele>229.0</ele><time>2026-04-05T12:11:13.701Z</time></trkpt><trkpt lat="45.639488" lon="9.4181222"><ele>229.0</ele><time>2026-04-05T12:11:14.701Z</time></trkpt><trkpt lat="45.6394136" lon="9.4181089"><ele>229.0</ele><time>2026-04-05T12:11:15.701Z</time></trkpt><trkpt lat="45.6393437" lon="9.4180975"><ele>229.0</ele><time>2026-04-05T12:11:16.701Z</time></trkpt><trkpt lat="45.6392712" lon="9.4180841"><ele>229.0</ele><time>2026-04-05T12:11:17.701Z</time></trkpt><trkpt lat="45.6392003" lon="9.4180668"><ele>229.0</ele><time>2026-04-05T12:11:18.701Z</time></trkpt><trkpt lat="45.6391331" lon="9.4180486"><ele>228.66666666666666</ele><time>2026-04-05T12:11:19.701Z</time></trkpt><trkpt lat="45.6390618" lon="9.4180335"><ele>228.33333333333331</ele><time>2026-04-05T12:11:20.701Z</time></trkpt><trkpt lat="45.6389964" lon="9.4180224"><ele>228.0</ele><time>2026-04-05T12:11:21.701Z</time></trkpt><trkpt lat="45.6389268" lon="9.4180023"><ele>227.66666666666669</ele><time>2026-04-05T12:11:22.701Z</time></trkpt><trkpt lat="45.6388615" lon="9.4179885"><ele>227.33333333333334</ele><time>2026-04-05T12:11:23.701Z</time></trkpt><trkpt lat="45.638793" lon="9.417973"><ele>227.0</ele><time>2026-04-05T12:11:24.701Z</time></trkpt><trkpt lat="45.6386852" lon="9.417952"><ele>226.6</ele><time>2026-04-05T12:11:26.7Z</time></trkpt><trkpt lat="45.6386199" lon="9.4179434"><ele>226.2</ele><time>2026-04-05T12:11:28.7Z</time></trkpt><trkpt lat="45.6385538" lon="9.4179842"><ele>225.8</ele><time>2026-04-05T12:11:30.701Z</time></trkpt><trkpt lat="45.6384478" lon="9.4180558"><ele>225.4</ele><time>2026-04-05T12:11:32.701Z</time></trkpt><trkpt lat="45.638344" lon="9.4180964"><ele>225.0</ele><time>2026-04-05T12:11:34.701Z</time></trkpt><trkpt lat="45.6382177" lon="9.4181196"><ele>224.83333333333334</ele><time>2026-04-05T12:11:36.7Z</time></trkpt><trkpt lat="45.6380875" lon="9.4180972"><ele>224.66666666666669</ele><time>2026-04-05T12:11:38.701Z</time></trkpt><trkpt lat="45.6380236" lon="9.418083"><ele>224.5</ele><time>2026-04-05T12:11:39.701Z</time></trkpt><trkpt lat="45.6379582" lon="9.4180688"><ele>224.33333333333334</ele><time>2026-04-05T12:11:40.701Z</time></trkpt><trkpt lat="45.6378915" lon="9.4180518"><ele>224.16666666666669</ele><time>2026-04-05T12:11:41.7Z</time></trkpt><trkpt lat="45.6378271" lon="9.4180319"><ele>224.0</ele><time>2026-04-05T12:11:42.701Z</time></trkpt><trkpt lat="45.6377617" lon="9.4180116"><ele>224.0</ele><time>2026-04-05T12:11:43.701Z</time></trkpt><trkpt lat="45.6377011" lon="9.4179868"><ele>224.0</ele><time>2026-04-05T12:11:44.701Z</time></trkpt><trkpt lat="45.6376361" lon="9.4179682"><ele>224.0</ele><time>2026-04-05T12:11:45.701Z</time></trkpt><trkpt lat="45.6375703" lon="9.4179522"><ele>224.0</ele><time>2026-04-05T12:11:46.701Z</time></trkpt><trkpt lat="45.6375037" lon="9.417937"><ele>224.0</ele><time>2026-04-05T12:11:47.701Z</time></trkpt><trkpt lat="45.6374342" lon="9.417925"><ele>224.0</ele><time>2026-04-05T12:11:48.7Z</time></trkpt><trkpt lat="45.6373706" lon="9.4179207"><ele>224.0</ele><time>2026-04-05T12:11:49.701Z</time></trkpt><trkpt lat="45.6373029" lon="9.4179171"><ele>224.00000000000003</ele><time>2026-04-05T12:11:50.701Z</time></trkpt><trkpt lat="45.6372296" lon="9.4179133"><ele>224.0</ele><time>2026-04-05T12:11:51.701Z</time></trkpt><trkpt lat="45.6370921" lon="9.4178842"><ele>224.0</ele><time>2026-04-05T12:11:53.701Z</time></trkpt><trkpt lat="45.637025" lon="9.4178597"><ele>224.0</ele><time>2026-04-05T12:11:54.701Z</time></trkpt><trkpt lat="45.6369586" lon="9.4178213"><ele>224.00000000000003</ele><time>2026-04-05T12:11:55.701Z</time></trkpt><trkpt lat="45.6368936" lon="9.4177856"><ele>224.0</ele><time>2026-04-05T12:11:56.701Z</time></trkpt><trkpt lat="45.6368271" lon="9.4177516"><ele>223.83333333333334</ele><time>2026-04-05T12:11:57.701Z</time></trkpt><trkpt lat="45.6367614" lon="9.4177147"><ele>223.66666666666669</ele><time>2026-04-05T12:11:58.7Z</time></trkpt><trkpt lat="45.6366989" lon="9.4176765"><ele>223.5</ele><time>2026-04-05T12:11:59.701Z</time></trkpt><trkpt lat="45.6366409" lon="9.4176317"><ele>223.33333333333331</ele><time>2026-04-05T12:12:00.7Z</time></trkpt><trkpt lat="45.6365293" lon="9.4175654"><ele>223.16666666666666</ele><time>2026-04-05T12:12:02.701Z</time></trkpt><trkpt lat="45.6364221" lon="9.4175179"><ele>223.0</ele><time>2026-04-05T12:12:04.701Z</time></trkpt><trkpt lat="45.6363463" lon="9.4175643"><ele>223.0</ele><time>2026-04-05T12:12:06.701Z</time></trkpt><trkpt lat="45.6362943" lon="9.4176698"><ele>223.0</ele><time>2026-04-05T12:12:08.701Z</time></trkpt><trkpt lat="45.6362205" lon="9.4177916"><ele>223.0</ele><time>2026-04-05T12:12:10.701Z</time></trkpt><trkpt lat="45.6361636" lon="9.4179414"><ele>223.0</ele><time>2026-04-05T12:12:12.701Z</time></trkpt><trkpt lat="45.636112" lon="9.4180925"><ele>223.0</ele><time>2026-04-05T12:12:14.701Z</time></trkpt><trkpt lat="45.6360474" lon="9.4182413"><ele>223.4</ele><time>2026-04-05T12:12:16.701Z</time></trkpt><trkpt lat="45.6359895" lon="9.4183763"><ele>223.8</ele><time>2026-04-05T12:12:18.701Z</time></trkpt><trkpt lat="45.6359267" lon="9.4185098"><ele>224.2</ele><time>2026-04-05T12:12:20.701Z</time></trkpt><trkpt lat="45.6358575" lon="9.4186165"><ele>224.6</ele><time>2026-04-05T12:12:22.701Z</time></trkpt><trkpt lat="45.6358143" lon="9.4187042"><ele>225.0</ele><time>2026-04-05T12:12:24.701Z</time></trkpt><trkpt lat="45.6357856" lon="9.4188"><ele>225.4</ele><time>2026-04-05T12:12:26.701Z</time></trkpt><trkpt lat="45.6357449" lon="9.4189098"><ele>225.8</ele><time>2026-04-05T12:12:28.701Z</time></trkpt><trkpt lat="45.6357114" lon="9.4190372"><ele>226.2</ele><time>2026-04-05T12:12:30.7Z</time></trkpt><trkpt lat="45.6356546" lon="9.4191381"><ele>226.6</ele><time>2026-04-05T12:12:32.7Z</time></trkpt><trkpt lat="45.635615" lon="9.4192484"><ele>227.0</ele><time>2026-04-05T12:12:34.701Z</time></trkpt><trkpt lat="45.6355799" lon="9.4193715"><ele>227.00000000000003</ele><time>2026-04-05T12:12:36.701Z</time></trkpt><trkpt lat="45.6354973" lon="9.4193906"><ele>227.0</ele><time>2026-04-05T12:12:40.701Z</time></trkpt><trkpt lat="45.6354082" lon="9.4193422"><ele>227.0</ele><time>2026-04-05T12:12:42.701Z</time></trkpt><trkpt lat="45.635302" lon="9.419289"><ele>227.0</ele><time>2026-04-05T12:12:44.701Z</time></trkpt><trkpt lat="45.6352345" lon="9.4192562"><ele>227.00000000000003</ele><time>2026-04-05T12:12:45.701Z</time></trkpt><trkpt lat="45.6351753" lon="9.4192225"><ele>227.0</ele><time>2026-04-05T12:12:46.701Z</time></trkpt><trkpt lat="45.6350715" lon="9.419154"><ele>227.33333333333334</ele><time>2026-04-05T12:12:48.701Z</time></trkpt><trkpt lat="45.6349608" lon="9.4190878"><ele>227.66666666666669</ele><time>2026-04-05T12:12:50.7Z</time></trkpt><trkpt lat="45.6348987" lon="9.4190539"><ele>228.0</ele><time>2026-04-05T12:12:51.701Z</time></trkpt><trkpt lat="45.6348348" lon="9.4190221"><ele>228.33333333333331</ele><time>2026-04-05T12:12:52.701Z</time></trkpt><trkpt lat="45.6347694" lon="9.4189881"><ele>228.66666666666666</ele><time>2026-04-05T12:12:53.701Z</time></trkpt><trkpt lat="45.6347117" lon="9.4189411"><ele>229.0</ele><time>2026-04-05T12:12:54.701Z</time></trkpt><trkpt lat="45.6346512" lon="9.4189089"><ele>229.0</ele><time>2026-04-05T12:12:55.701Z</time></trkpt><trkpt lat="45.6345904" lon="9.4188749"><ele>229.0</ele><time>2026-04-05T12:12:56.7Z</time></trkpt><trkpt lat="45.634531" lon="9.4188305"><ele>229.0</ele><time>2026-04-05T12:12:57.701Z</time></trkpt><trkpt lat="45.6344695" lon="9.4187935"><ele>229.0</ele><time>2026-04-05T12:12:58.701Z</time></trkpt><trkpt lat="45.6344046" lon="9.4187659"><ele>229.0</ele><time>2026-04-05T12:12:59.701Z</time></trkpt><trkpt lat="45.6343437" lon="9.4187398"><ele>229.0</ele><time>2026-04-05T12:13:00.701Z</time></trkpt><trkpt lat="45.6342799" lon="9.4187252"><ele>229.0</ele><time>2026-04-05T12:13:01.701Z</time></trkpt><trkpt lat="45.6342131" lon="9.4187089"><ele>228.0</ele><time>2026-04-05T12:13:02.7Z</time></trkpt><trkpt lat="45.6341451" lon="9.4186937"><ele>226.99999999999997</ele><time>2026-04-05T12:13:03.701Z</time></trkpt><trkpt lat="45.6340747" lon="9.4186824"><ele>225.99999999999997</ele><time>2026-04-05T12:13:04.701Z</time></trkpt><trkpt lat="45.6339457" lon="9.4186605"><ele>225.0</ele><time>2026-04-05T12:13:06.701Z</time></trkpt><trkpt lat="45.6338225" lon="9.4186271"><ele>224.0</ele><time>2026-04-05T12:13:08.701Z</time></trkpt><trkpt lat="45.6337549" lon="9.4186163"><ele>224.0</ele><time>2026-04-05T12:13:09.7Z</time></trkpt><trkpt lat="45.6336903" lon="9.4186065"><ele>224.0</ele><time>2026-04-05T12:13:10.7Z</time></trkpt><trkpt lat="45.6336223" lon="9.4185993"><ele>224.0</ele><time>2026-04-05T12:13:11.701Z</time></trkpt><trkpt lat="45.6335516" lon="9.4185756"><ele>224.0</ele><time>2026-04-05T12:13:12.701Z</time></trkpt><trkpt lat="45.6334857" lon="9.4185604"><ele>224.0</ele><time>2026-04-05T12:13:13.701Z</time></trkpt><trkpt lat="45.6334165" lon="9.4185349"><ele>224.0</ele><time>2026-04-05T12:13:14.701Z</time></trkpt><trkpt lat="45.6333407" lon="9.4185247"><ele>224.0</ele><time>2026-04-05T12:13:15.701Z</time></trkpt><trkpt lat="45.6332631" lon="9.418526"><ele>224.00000000000003</ele><time>2026-04-05T12:13:16.701Z</time></trkpt><trkpt lat="45.6331893" lon="9.4185142"><ele>224.0</ele><time>2026-04-05T12:13:17.7Z</time></trkpt><trkpt lat="45.6331159" lon="9.4184926"><ele>224.0</ele><time>2026-04-05T12:13:18.701Z</time></trkpt><trkpt lat="45.6330472" lon="9.4184834"><ele>224.0</ele><time>2026-04-05T12:13:19.701Z</time></trkpt><trkpt lat="45.6329834" lon="9.4184623"><ele>224.00000000000003</ele><time>2026-04-05T12:13:20.701Z</time></trkpt><trkpt lat="45.6329186" lon="9.4184499"><ele>224.0</ele><time>2026-04-05T12:13:21.701Z</time></trkpt><trkpt lat="45.6328015" lon="9.4184123"><ele>224.0</ele><time>2026-04-05T12:13:23.701Z</time></trkpt><trkpt lat="45.6327319" lon="9.4183941"><ele>223.99999999999997</ele><time>2026-04-05T12:13:24.7Z</time></trkpt><trkpt lat="45.6326016" lon="9.4183574"><ele>223.99999999999997</ele><time>2026-04-05T12:13:26.7Z</time></trkpt><trkpt lat="45.6324589" lon="9.4183305"><ele>224.0</ele><time>2026-04-05T12:13:28.701Z</time></trkpt><trkpt lat="45.6323871" lon="9.4183177"><ele>224.0</ele><time>2026-04-05T12:13:29.701Z</time></trkpt><trkpt lat="45.632317" lon="9.4182969"><ele>224.0</ele><time>2026-04-05T12:13:30.701Z</time></trkpt><trkpt lat="45.6322484" lon="9.4182907"><ele>224.0</ele><time>2026-04-05T12:13:31.701Z</time></trkpt><trkpt lat="45.6321717" lon="9.418268"><ele>224.0</ele><time>2026-04-05T12:13:32.701Z</time></trkpt><trkpt lat="45.6321024" lon="9.4182531"><ele>224.0</ele><time>2026-04-05T12:13:33.701Z</time></trkpt><trkpt lat="45.6320306" lon="9.418239"><ele>224.0</ele><time>2026-04-05T12:13:34.701Z</time></trkpt><trkpt lat="45.6319677" lon="9.4182151"><ele>224.0</ele><time>2026-04-05T12:13:35.7Z</time></trkpt><trkpt lat="45.6318968" lon="9.4181963"><ele>224.0</ele><time>2026-04-05T12:13:36.701Z</time></trkpt><trkpt lat="45.6318286" lon="9.4181844"><ele>223.79999999999998</ele><time>2026-04-05T12:13:37.7Z</time></trkpt><trkpt lat="45.6317566" lon="9.4181624"><ele>223.59999999999997</ele><time>2026-04-05T12:13:38.701Z</time></trkpt><trkpt lat="45.6316223" lon="9.4181343"><ele>223.4</ele><time>2026-04-05T12:13:40.701Z</time></trkpt><trkpt lat="45.6315474" lon="9.4181359"><ele>223.2</ele><time>2026-04-05T12:13:41.701Z</time></trkpt><trkpt lat="45.6314565" lon="9.4181325"><ele>223.0</ele><time>2026-04-05T12:13:42.701Z</time></trkpt><trkpt lat="45.6313741" lon="9.4181192"><ele>223.0</ele><time>2026-04-05T12:13:43.7Z</time></trkpt><trkpt lat="45.6313044" lon="9.4181166"><ele>223.0</ele><time>2026-04-05T12:13:44.701Z</time></trkpt><trkpt lat="45.6312243" lon="9.4180996"><ele>223.0</ele><time>2026-04-05T12:13:45.701Z</time></trkpt><trkpt lat="45.6311532" lon="9.4180834"><ele>223.0</ele><time>2026-04-05T12:13:46.7Z</time></trkpt><trkpt lat="45.6310812" lon="9.4180567"><ele>223.0</ele><time>2026-04-05T12:13:47.701Z</time></trkpt><trkpt lat="45.6310132" lon="9.4180368"><ele>223.0</ele><time>2026-04-05T12:13:48.701Z</time></trkpt><trkpt lat="45.630946" lon="9.418032"><ele>223.0</ele><time>2026-04-05T12:13:49.7Z</time></trkpt><trkpt lat="45.6308756" lon="9.4180323"><ele>223.33333333333331</ele><time>2026-04-05T12:13:50.701Z</time></trkpt><trkpt lat="45.6307948" lon="9.4180372"><ele>223.66666666666666</ele><time>2026-04-05T12:13:51.7Z</time></trkpt><trkpt lat="45.6307096" lon="9.4180475"><ele>224.0</ele><time>2026-04-05T12:13:52.701Z</time></trkpt><trkpt lat="45.6306349" lon="9.4180644"><ele>224.33333333333331</ele><time>2026-04-05T12:13:53.7Z</time></trkpt><trkpt lat="45.6305697" lon="9.4180741"><ele>224.66666666666666</ele><time>2026-04-05T12:13:54.701Z</time></trkpt><trkpt lat="45.6304941" lon="9.4180843"><ele>225.0</ele><time>2026-04-05T12:13:55.7Z</time></trkpt><trkpt lat="45.6304212" lon="9.4181088"><ele>225.0</ele><time>2026-04-05T12:13:56.701Z</time></trkpt><trkpt lat="45.63035" lon="9.4181319"><ele>225.0</ele><time>2026-04-05T12:13:57.7Z</time></trkpt><trkpt lat="45.6302825" lon="9.4181554"><ele>225.0</ele><time>2026-04-05T12:13:58.701Z</time></trkpt><trkpt lat="45.6302176" lon="9.4181809"><ele>225.0</ele><time>2026-04-05T12:13:59.701Z</time></trkpt><trkpt lat="45.6301513" lon="9.418185"><ele>225.0</ele><time>2026-04-05T12:14:00.701Z</time></trkpt><trkpt lat="45.6300176" lon="9.4181611"><ele>225.0</ele><time>2026-04-05T12:14:02.7Z</time></trkpt><trkpt lat="45.6299536" lon="9.4181144"><ele>224.33333333333334</ele><time>2026-04-05T12:14:03.701Z</time></trkpt><trkpt lat="45.6298921" lon="9.4180933"><ele>223.66666666666669</ele><time>2026-04-05T12:14:04.701Z</time></trkpt><trkpt lat="45.6298221" lon="9.4180897"><ele>223.0</ele><time>2026-04-05T12:14:05.701Z</time></trkpt><trkpt lat="45.6297622" lon="9.4181232"><ele>222.33333333333334</ele><time>2026-04-05T12:14:06.701Z</time></trkpt><trkpt lat="45.629642" lon="9.4181972"><ele>221.66666666666669</ele><time>2026-04-05T12:14:08.7Z</time></trkpt><trkpt lat="45.6295745" lon="9.4182228"><ele>221.0</ele><time>2026-04-05T12:14:09.7Z</time></trkpt><trkpt lat="45.6295114" lon="9.4182431"><ele>220.71428571428572</ele><time>2026-04-05T12:14:10.7Z</time></trkpt><trkpt lat="45.6294468" lon="9.4182604"><ele>220.42857142857144</ele><time>2026-04-05T12:14:11.701Z</time></trkpt><trkpt lat="45.6293764" lon="9.4182674"><ele>220.14285714285717</ele><time>2026-04-05T12:14:12.701Z</time></trkpt><trkpt lat="45.6292939" lon="9.4182855"><ele>219.85714285714286</ele><time>2026-04-05T12:14:13.7Z</time></trkpt><trkpt lat="45.6292261" lon="9.4182944"><ele>219.57142857142856</ele><time>2026-04-05T12:14:14.701Z</time></trkpt><trkpt lat="45.6291507" lon="9.4183075"><ele>219.2857142857143</ele><time>2026-04-05T12:14:15.7Z</time></trkpt><trkpt lat="45.6290748" lon="9.4183205"><ele>219.0</ele><time>2026-04-05T12:14:16.701Z</time></trkpt><trkpt lat="45.6290086" lon="9.4183267"><ele>219.0</ele><time>2026-04-05T12:14:17.7Z</time></trkpt><trkpt lat="45.6289333" lon="9.4183337"><ele>219.0</ele><time>2026-04-05T12:14:18.701Z</time></trkpt><trkpt lat="45.6288591" lon="9.4183466"><ele>219.0</ele><time>2026-04-05T12:14:19.701Z</time></trkpt><trkpt lat="45.6287829" lon="9.4183569"><ele>219.0</ele><time>2026-04-05T12:14:20.701Z</time></trkpt><trkpt lat="45.6287103" lon="9.418357"><ele>219.0</ele><time>2026-04-05T12:14:21.7Z</time></trkpt><trkpt lat="45.6286336" lon="9.4183675"><ele>219.0</ele><time>2026-04-05T12:14:22.701Z</time></trkpt><trkpt lat="45.6285479" lon="9.4183742"><ele>218.33333333333334</ele><time>2026-04-05T12:14:23.701Z</time></trkpt><trkpt lat="45.6284705" lon="9.4183797"><ele>217.66666666666669</ele><time>2026-04-05T12:14:24.701Z</time></trkpt><trkpt lat="45.6283927" lon="9.4183737"><ele>217.0</ele><time>2026-04-05T12:14:25.701Z</time></trkpt><trkpt lat="45.6283177" lon="9.4183709"><ele>216.33333333333334</ele><time>2026-04-05T12:14:26.701Z</time></trkpt><trkpt lat="45.6282402" lon="9.4183688"><ele>215.66666666666669</ele><time>2026-04-05T12:14:27.701Z</time></trkpt><trkpt lat="45.6281641" lon="9.4183591"><ele>215.0</ele><time>2026-04-05T12:14:28.701Z</time></trkpt><trkpt lat="45.628091" lon="9.4183505"><ele>215.00000000000003</ele><time>2026-04-05T12:14:29.701Z</time></trkpt><trkpt lat="45.6280217" lon="9.4183405"><ele>215.0</ele><time>2026-04-05T12:14:30.701Z</time></trkpt><trkpt lat="45.6279478" lon="9.4183386"><ele>215.0</ele><time>2026-04-05T12:14:31.701Z</time></trkpt><trkpt lat="45.6278644" lon="9.4183412"><ele>215.0</ele><time>2026-04-05T12:14:32.7Z</time></trkpt><trkpt lat="45.6277846" lon="9.4183394"><ele>215.00000000000003</ele><time>2026-04-05T12:14:33.7Z</time></trkpt><trkpt lat="45.6277135" lon="9.4183382"><ele>215.0</ele><time>2026-04-05T12:14:34.701Z</time></trkpt><trkpt lat="45.6276397" lon="9.418335"><ele>215.0</ele><time>2026-04-05T12:14:35.7Z</time></trkpt><trkpt lat="45.6275722" lon="9.4183194"><ele>215.0</ele><time>2026-04-05T12:14:36.701Z</time></trkpt><trkpt lat="45.6275016" lon="9.4183159"><ele>215.0</ele><time>2026-04-05T12:14:37.701Z</time></trkpt><trkpt lat="45.627434" lon="9.4182939"><ele>215.0</ele><time>2026-04-05T12:14:38.701Z</time></trkpt><trkpt lat="45.6273582" lon="9.4182978"><ele>215.0</ele><time>2026-04-05T12:14:39.701Z</time></trkpt><trkpt lat="45.6272859" lon="9.4183016"><ele>215.0</ele><time>2026-04-05T12:14:40.7Z</time></trkpt><trkpt lat="45.6272067" lon="9.4183029"><ele>215.0</ele><time>2026-04-05T12:14:41.701Z</time></trkpt><trkpt lat="45.6271336" lon="9.4182954"><ele>215.00000000000003</ele><time>2026-04-05T12:14:42.701Z</time></trkpt><trkpt lat="45.6270557" lon="9.4182929"><ele>215.0</ele><time>2026-04-05T12:14:43.7Z</time></trkpt><trkpt lat="45.626982" lon="9.4182977"><ele>215.0</ele><time>2026-04-05T12:14:44.701Z</time></trkpt><trkpt lat="45.626904" lon="9.4182962"><ele>215.0</ele><time>2026-04-05T12:14:45.701Z</time></trkpt><trkpt lat="45.6268307" lon="9.4182946"><ele>215.00000000000003</ele><time>2026-04-05T12:14:46.701Z</time></trkpt><trkpt lat="45.6267557" lon="9.4182897"><ele>215.0</ele><time>2026-04-05T12:14:47.701Z</time></trkpt><trkpt lat="45.6266828" lon="9.4182787"><ele>215.16666666666669</ele><time>2026-04-05T12:14:48.701Z</time></trkpt><trkpt lat="45.6266091" lon="9.4182653"><ele>215.33333333333334</ele><time>2026-04-05T12:14:49.701Z</time></trkpt><trkpt lat="45.6265344" lon="9.4182523"><ele>215.5</ele><time>2026-04-05T12:14:50.701Z</time></trkpt><trkpt lat="45.6264462" lon="9.4182451"><ele>215.66666666666669</ele><time>2026-04-05T12:14:51.701Z</time></trkpt><trkpt lat="45.6263675" lon="9.4182293"><ele>215.83333333333334</ele><time>2026-04-05T12:14:52.701Z</time></trkpt><trkpt lat="45.6262872" lon="9.4182065"><ele>216.0</ele><time>2026-04-05T12:14:53.7Z</time></trkpt><trkpt lat="45.6262104" lon="9.4181898"><ele>215.66666666666666</ele><time>2026-04-05T12:14:54.701Z</time></trkpt><trkpt lat="45.6261228" lon="9.4181785"><ele>215.33333333333331</ele><time>2026-04-05T12:14:55.701Z</time></trkpt><trkpt lat="45.6260403" lon="9.418165"><ele>215.0</ele><time>2026-04-05T12:14:56.701Z</time></trkpt><trkpt lat="45.6259601" lon="9.4181585"><ele>214.66666666666666</ele><time>2026-04-05T12:14:57.701Z</time></trkpt><trkpt lat="45.6258779" lon="9.4181509"><ele>214.33333333333331</ele><time>2026-04-05T12:14:58.701Z</time></trkpt><trkpt lat="45.6258021" lon="9.4181394"><ele>214.0</ele><time>2026-04-05T12:14:59.701Z</time></trkpt><trkpt lat="45.6257227" lon="9.4181211"><ele>214.00000000000003</ele><time>2026-04-05T12:15:00.7Z</time></trkpt><trkpt lat="45.625644" lon="9.4181098"><ele>214.0</ele><time>2026-04-05T12:15:01.7Z</time></trkpt><trkpt lat="45.6255662" lon="9.4181052"><ele>214.0</ele><time>2026-04-05T12:15:02.701Z</time></trkpt><trkpt lat="45.6254913" lon="9.4180986"><ele>214.0</ele><time>2026-04-05T12:15:03.701Z</time></trkpt><trkpt lat="45.6254216" lon="9.418076"><ele>214.0</ele><time>2026-04-05T12:15:04.701Z</time></trkpt><trkpt lat="45.6253557" lon="9.4180433"><ele>214.00000000000003</ele><time>2026-04-05T12:15:05.701Z</time></trkpt><trkpt lat="45.6252978" lon="9.4179974"><ele>214.0</ele><time>2026-04-05T12:15:06.7Z</time></trkpt><trkpt lat="45.6252451" lon="9.4179304"><ele>213.83333333333331</ele><time>2026-04-05T12:15:07.701Z</time></trkpt><trkpt lat="45.6251941" lon="9.4178642"><ele>213.66666666666666</ele><time>2026-04-05T12:15:08.701Z</time></trkpt><trkpt lat="45.6251226" lon="9.4177651"><ele>213.5</ele><time>2026-04-05T12:15:10.701Z</time></trkpt><trkpt lat="45.625045" lon="9.4177097"><ele>213.33333333333331</ele><time>2026-04-05T12:15:13.701Z</time></trkpt><trkpt lat="45.6249657" lon="9.4177342"><ele>213.16666666666666</ele><time>2026-04-05T12:15:15.701Z</time></trkpt><trkpt lat="45.6248781" lon="9.4178108"><ele>213.0</ele><time>2026-04-05T12:15:17.701Z</time></trkpt><trkpt lat="45.6248033" lon="9.417919"><ele>213.0</ele><time>2026-04-05T12:15:19.7Z</time></trkpt><trkpt lat="45.6247129" lon="9.4179828"><ele>213.0</ele><time>2026-04-05T12:15:21.701Z</time></trkpt><trkpt lat="45.6246108" lon="9.417975"><ele>213.0</ele><time>2026-04-05T12:15:23.701Z</time></trkpt><trkpt lat="45.6245147" lon="9.4179669"><ele>213.0</ele><time>2026-04-05T12:15:25.701Z</time></trkpt><trkpt lat="45.6244117" lon="9.4179581"><ele>213.0</ele><time>2026-04-05T12:15:27.701Z</time></trkpt><trkpt lat="45.6242992" lon="9.4179462"><ele>213.75</ele><time>2026-04-05T12:15:29.7Z</time></trkpt><trkpt lat="45.6241779" lon="9.4179082"><ele>214.5</ele><time>2026-04-05T12:15:31.701Z</time></trkpt><trkpt lat="45.6240649" lon="9.4178797"><ele>215.25</ele><time>2026-04-05T12:15:33.701Z</time></trkpt><trkpt lat="45.6239465" lon="9.4178665"><ele>216.0</ele><time>2026-04-05T12:15:35.701Z</time></trkpt><trkpt lat="45.623822" lon="9.4178517"><ele>216.0</ele><time>2026-04-05T12:15:37.7Z</time></trkpt><trkpt lat="45.6237552" lon="9.4178431"><ele>216.0</ele><time>2026-04-05T12:15:38.701Z</time></trkpt><trkpt lat="45.6236912" lon="9.4178336"><ele>216.0</ele><time>2026-04-05T12:15:39.701Z</time></trkpt><trkpt lat="45.623565" lon="9.4178266"><ele>216.0</ele><time>2026-04-05T12:15:41.7Z</time></trkpt><trkpt lat="45.6235007" lon="9.4178108"><ele>216.0</ele><time>2026-04-05T12:15:42.701Z</time></trkpt><trkpt lat="45.6234329" lon="9.4178047"><ele>216.0</ele><time>2026-04-05T12:15:43.701Z</time></trkpt><trkpt lat="45.6233661" lon="9.417799"><ele>215.83333333333334</ele><time>2026-04-05T12:15:44.701Z</time></trkpt><trkpt lat="45.623304" lon="9.4177819"><ele>215.66666666666669</ele><time>2026-04-05T12:15:45.701Z</time></trkpt><trkpt lat="45.6232391" lon="9.417777"><ele>215.5</ele><time>2026-04-05T12:15:46.7Z</time></trkpt><trkpt lat="45.6231222" lon="9.4177575"><ele>215.33333333333334</ele><time>2026-04-05T12:15:48.701Z</time></trkpt><trkpt lat="45.6230585" lon="9.4177577"><ele>215.16666666666669</ele><time>2026-04-05T12:15:49.701Z</time></trkpt><trkpt lat="45.6229507" lon="9.4177256"><ele>215.0</ele><time>2026-04-05T12:15:51.701Z</time></trkpt><trkpt lat="45.6228211" lon="9.4176906"><ele>214.6</ele><time>2026-04-05T12:15:53.7Z</time></trkpt><trkpt lat="45.6227609" lon="9.4176598"><ele>214.2</ele><time>2026-04-05T12:15:54.701Z</time></trkpt><trkpt lat="45.6226495" lon="9.4176161"><ele>213.8</ele><time>2026-04-05T12:15:56.701Z</time></trkpt><trkpt lat="45.6225758" lon="9.4176207"><ele>213.4</ele><time>2026-04-05T12:15:57.701Z</time></trkpt><trkpt lat="45.6225109" lon="9.4176567"><ele>213.0</ele><time>2026-04-05T12:15:58.7Z</time></trkpt><trkpt lat="45.6224234" lon="9.4177901"><ele>213.0</ele><time>2026-04-05T12:16:00.701Z</time></trkpt><trkpt lat="45.622381" lon="9.4178745"><ele>213.0</ele><time>2026-04-05T12:16:01.701Z</time></trkpt><trkpt lat="45.6223139" lon="9.4180142"><ele>213.0</ele><time>2026-04-05T12:16:03.701Z</time></trkpt><trkpt lat="45.6222195" lon="9.4180922"><ele>213.0</ele><time>2026-04-05T12:16:05.7Z</time></trkpt><trkpt lat="45.6221209" lon="9.4181253"><ele>213.0</ele><time>2026-04-05T12:16:07.701Z</time></trkpt><trkpt lat="45.6220524" lon="9.4181187"><ele>213.0</ele><time>2026-04-05T12:16:08.7Z</time></trkpt><trkpt lat="45.6219806" lon="9.4181226"><ele>213.0</ele><time>2026-04-05T12:16:09.701Z</time></trkpt><trkpt lat="45.6218461" lon="9.4181218"><ele>213.0</ele><time>2026-04-05T12:16:11.701Z</time></trkpt><trkpt lat="45.6217703" lon="9.4181094"><ele>213.0</ele><time>2026-04-05T12:16:12.701Z</time></trkpt><trkpt lat="45.6217071" lon="9.4181092"><ele>213.0</ele><time>2026-04-05T12:16:13.7Z</time></trkpt><trkpt lat="45.6216396" lon="9.418103"><ele>213.0</ele><time>2026-04-05T12:16:14.701Z</time></trkpt><trkpt lat="45.6215142" lon="9.4181203"><ele>213.0</ele><time>2026-04-05T12:16:16.7Z</time></trkpt><trkpt lat="45.6214357" lon="9.4181349"><ele>213.0</ele><time>2026-04-05T12:16:17.701Z</time></trkpt><trkpt lat="45.6213239" lon="9.4182"><ele>213.0</ele><time>2026-04-05T12:16:19.701Z</time></trkpt><trkpt lat="45.6212412" lon="9.4182174"><ele>213.0</ele><time>2026-04-05T12:16:20.701Z</time></trkpt><trkpt lat="45.6211134" lon="9.4182625"><ele>213.0</ele><time>2026-04-05T12:16:22.701Z</time></trkpt><trkpt lat="45.6210334" lon="9.4182819"><ele>212.83333333333334</ele><time>2026-04-05T12:16:23.701Z</time></trkpt><trkpt lat="45.6209319" lon="9.4183201"><ele>212.66666666666669</ele><time>2026-04-05T12:16:25.701Z</time></trkpt><trkpt lat="45.6208596" lon="9.4183567"><ele>212.5</ele><time>2026-04-05T12:16:26.701Z</time></trkpt><trkpt lat="45.6207927" lon="9.4183684"><ele>212.33333333333334</ele><time>2026-04-05T12:16:27.7Z</time></trkpt><trkpt lat="45.6207386" lon="9.418416"><ele>212.16666666666669</ele><time>2026-04-05T12:16:28.701Z</time></trkpt><trkpt lat="45.620653" lon="9.4185533"><ele>212.0</ele><time>2026-04-05T12:16:30.701Z</time></trkpt><trkpt lat="45.6206482" lon="9.4186991"><ele>211.6</ele><time>2026-04-05T12:16:32.701Z</time></trkpt><trkpt lat="45.6206532" lon="9.4188417"><ele>211.2</ele><time>2026-04-05T12:16:34.701Z</time></trkpt><trkpt lat="45.6206622" lon="9.4189988"><ele>210.8</ele><time>2026-04-05T12:16:36.701Z</time></trkpt><trkpt lat="45.6206793" lon="9.419163"><ele>210.4</ele><time>2026-04-05T12:16:38.701Z</time></trkpt><trkpt lat="45.6206885" lon="9.4193242"><ele>210.0</ele><time>2026-04-05T12:16:40.701Z</time></trkpt><trkpt lat="45.6207118" lon="9.419486"><ele>210.0</ele><time>2026-04-05T12:16:42.7Z</time></trkpt><trkpt lat="45.6207272" lon="9.4196382"><ele>210.0</ele><time>2026-04-05T12:16:44.701Z</time></trkpt><trkpt lat="45.6206948" lon="9.4197532"><ele>210.0</ele><time>2026-04-05T12:16:46.701Z</time></trkpt><trkpt lat="45.6206032" lon="9.4197905"><ele>210.0</ele><time>2026-04-05T12:16:48.701Z</time></trkpt><trkpt lat="45.6204983" lon="9.4197785"><ele>210.0</ele><time>2026-04-05T12:16:50.701Z</time></trkpt><trkpt lat="45.620376" lon="9.4197714"><ele>209.6</ele><time>2026-04-05T12:16:52.701Z</time></trkpt><trkpt lat="45.620257" lon="9.4197717"><ele>209.2</ele><time>2026-04-05T12:16:54.7Z</time></trkpt><trkpt lat="45.6201939" lon="9.41976"><ele>208.8</ele><time>2026-04-05T12:16:55.701Z</time></trkpt><trkpt lat="45.6200683" lon="9.4197738"><ele>208.4</ele><time>2026-04-05T12:16:57.7Z</time></trkpt><trkpt lat="45.6200019" lon="9.4197814"><ele>208.0</ele><time>2026-04-05T12:16:58.701Z</time></trkpt><trkpt lat="45.6198727" lon="9.4197821"><ele>208.0</ele><time>2026-04-05T12:17:00.701Z</time></trkpt><trkpt lat="45.6198051" lon="9.4197991"><ele>208.0</ele><time>2026-04-05T12:17:01.701Z</time></trkpt><trkpt lat="45.6197424" lon="9.4198263"><ele>208.0</ele><time>2026-04-05T12:17:02.701Z</time></trkpt><trkpt lat="45.6196926" lon="9.4199618"><ele>208.0</ele><time>2026-04-05T12:17:04.7Z</time></trkpt><trkpt lat="45.6196938" lon="9.4201259"><ele>208.0</ele><time>2026-04-05T12:17:06.701Z</time></trkpt><trkpt lat="45.619681" lon="9.4202813"><ele>208.0</ele><time>2026-04-05T12:17:08.701Z</time></trkpt><trkpt lat="45.6196709" lon="9.4204459"><ele>208.0</ele><time>2026-04-05T12:17:10.701Z</time></trkpt><trkpt lat="45.6196591" lon="9.4205367"><ele>208.0</ele><time>2026-04-05T12:17:11.701Z</time></trkpt><trkpt lat="45.6196494" lon="9.4207089"><ele>208.0</ele><time>2026-04-05T12:17:13.701Z</time></trkpt><trkpt lat="45.619637" lon="9.4208986"><ele>208.0</ele><time>2026-04-05T12:17:15.701Z</time></trkpt><trkpt lat="45.6196316" lon="9.4210754"><ele>208.16666666666666</ele><time>2026-04-05T12:17:17.7Z</time></trkpt><trkpt lat="45.6196221" lon="9.4212534"><ele>208.33333333333331</ele><time>2026-04-05T12:17:19.701Z</time></trkpt><trkpt lat="45.6196158" lon="9.4213495"><ele>208.5</ele><time>2026-04-05T12:17:20.701Z</time></trkpt><trkpt lat="45.6196171" lon="9.4214524"><ele>208.66666666666669</ele><time>2026-04-05T12:17:21.701Z</time></trkpt><trkpt lat="45.6196076" lon="9.4215521"><ele>208.83333333333334</ele><time>2026-04-05T12:17:22.7Z</time></trkpt><trkpt lat="45.6196003" lon="9.4216515"><ele>209.0</ele><time>2026-04-05T12:17:23.701Z</time></trkpt><trkpt lat="45.619593" lon="9.4218397"><ele>209.16666666666669</ele><time>2026-04-05T12:17:25.701Z</time></trkpt><trkpt lat="45.6195926" lon="9.4219402"><ele>209.33333333333334</ele><time>2026-04-05T12:17:26.7Z</time></trkpt><trkpt lat="45.6195857" lon="9.422043"><ele>209.5</ele><time>2026-04-05T12:17:27.701Z</time></trkpt><trkpt lat="45.6195789" lon="9.4222204"><ele>209.66666666666669</ele><time>2026-04-05T12:17:29.701Z</time></trkpt><trkpt lat="45.6195756" lon="9.422311"><ele>209.83333333333334</ele><time>2026-04-05T12:17:30.701Z</time></trkpt><trkpt lat="45.6195788" lon="9.4224081"><ele>210.0</ele><time>2026-04-05T12:17:31.701Z</time></trkpt><trkpt lat="45.6195762" lon="9.4225019"><ele>210.0</ele><time>2026-04-05T12:17:32.701Z</time></trkpt><trkpt lat="45.6195739" lon="9.4226693"><ele>210.0</ele><time>2026-04-05T12:17:34.701Z</time></trkpt><trkpt lat="45.6195725" lon="9.4228389"><ele>210.0</ele><time>2026-04-05T12:17:36.701Z</time></trkpt><trkpt lat="45.6195618" lon="9.4229778"><ele>210.0</ele><time>2026-04-05T12:17:38.7Z</time></trkpt><trkpt lat="45.6195565" lon="9.4230784"><ele>210.0</ele><time>2026-04-05T12:17:40.701Z</time></trkpt><trkpt lat="45.6195059" lon="9.4231701"><ele>210.0</ele><time>2026-04-05T12:17:55.701Z</time></trkpt><trkpt lat="45.6194505" lon="9.4232446"><ele>210.0</ele><time>2026-04-05T12:17:58.7Z</time></trkpt><trkpt lat="45.6194589" lon="9.4233356"><ele>210.0</ele><time>2026-04-05T12:18:00.701Z</time></trkpt><trkpt lat="45.6195052" lon="9.4234341"><ele>210.0</ele><time>2026-04-05T12:18:02.701Z</time></trkpt><trkpt lat="45.6195315" lon="9.4235689"><ele>210.0</ele><time>2026-04-05T12:18:04.7Z</time></trkpt><trkpt lat="45.619539" lon="9.4237202"><ele>210.0</ele><time>2026-04-05T12:18:06.701Z</time></trkpt><trkpt lat="45.6195378" lon="9.4238673"><ele>209.75</ele><time>2026-04-05T12:18:08.701Z</time></trkpt><trkpt lat="45.619531" lon="9.4240256"><ele>209.5</ele><time>2026-04-05T12:18:10.701Z</time></trkpt><trkpt lat="45.6195302" lon="9.4242069"><ele>209.25</ele><time>2026-04-05T12:18:12.7Z</time></trkpt><trkpt lat="45.6195241" lon="9.4243702"><ele>209.0</ele><time>2026-04-05T12:18:14.701Z</time></trkpt><trkpt lat="45.6195209" lon="9.4245518"><ele>209.33333333333334</ele><time>2026-04-05T12:18:16.701Z</time></trkpt><trkpt lat="45.6195125" lon="9.4247207"><ele>209.66666666666669</ele><time>2026-04-05T12:18:18.701Z</time></trkpt><trkpt lat="45.619505" lon="9.424813"><ele>210.0</ele><time>2026-04-05T12:18:19.701Z</time></trkpt><trkpt lat="45.6194992" lon="9.4249035"><ele>210.33333333333331</ele><time>2026-04-05T12:18:20.701Z</time></trkpt><trkpt lat="45.6194987" lon="9.4250804"><ele>210.66666666666666</ele><time>2026-04-05T12:18:22.701Z</time></trkpt><trkpt lat="45.6194922" lon="9.425191"><ele>211.0</ele><time>2026-04-05T12:18:23.701Z</time></trkpt><trkpt lat="45.6194895" lon="9.4252891"><ele>210.99999999999997</ele><time>2026-04-05T12:18:24.701Z</time></trkpt><trkpt lat="45.6194858" lon="9.4254702"><ele>211.0</ele><time>2026-04-05T12:18:26.701Z</time></trkpt><trkpt lat="45.6194794" lon="9.4255602"><ele>211.0</ele><time>2026-04-05T12:18:27.701Z</time></trkpt><trkpt lat="45.6194682" lon="9.4257275"><ele>211.0</ele><time>2026-04-05T12:18:29.701Z</time></trkpt><trkpt lat="45.6194666" lon="9.4258192"><ele>210.99999999999997</ele><time>2026-04-05T12:18:30.701Z</time></trkpt><trkpt lat="45.6194599" lon="9.4259121"><ele>211.0</ele><time>2026-04-05T12:18:31.701Z</time></trkpt><trkpt lat="45.6194463" lon="9.4260847"><ele>210.60000000000002</ele><time>2026-04-05T12:18:33.701Z</time></trkpt><trkpt lat="45.6194405" lon="9.4262498"><ele>210.2</ele><time>2026-04-05T12:18:35.701Z</time></trkpt><trkpt lat="45.6194587" lon="9.4264381"><ele>209.8</ele><time>2026-04-05T12:18:37.701Z</time></trkpt><trkpt lat="45.6194775" lon="9.4265821"><ele>209.39999999999998</ele><time>2026-04-05T12:18:39.701Z</time></trkpt><trkpt lat="45.619472" lon="9.4266728"><ele>209.0</ele><time>2026-04-05T12:18:40.7Z</time></trkpt><trkpt lat="45.6194604" lon="9.4268448"><ele>209.0</ele><time>2026-04-05T12:18:42.701Z</time></trkpt><trkpt lat="45.6194815" lon="9.4270227"><ele>209.0</ele><time>2026-04-05T12:18:44.7Z</time></trkpt><trkpt lat="45.6194901" lon="9.4271913"><ele>209.0</ele><time>2026-04-05T12:18:46.701Z</time></trkpt><trkpt lat="45.619475" lon="9.4273461"><ele>209.0</ele><time>2026-04-05T12:18:48.701Z</time></trkpt><trkpt lat="45.6194529" lon="9.4274957"><ele>208.79999999999998</ele><time>2026-04-05T12:18:50.701Z</time></trkpt><trkpt lat="45.6194962" lon="9.4276001"><ele>208.6</ele><time>2026-04-05T12:18:52.701Z</time></trkpt><trkpt lat="45.6195539" lon="9.42769"><ele>208.4</ele><time>2026-04-05T12:18:54.701Z</time></trkpt><trkpt lat="45.6196074" lon="9.4277902"><ele>208.2</ele><time>2026-04-05T12:18:56.701Z</time></trkpt><trkpt lat="45.6196676" lon="9.4278992"><ele>208.0</ele><time>2026-04-05T12:18:58.701Z</time></trkpt><trkpt lat="45.6197391" lon="9.4280114"><ele>208.0</ele><time>2026-04-05T12:19:00.7Z</time></trkpt><trkpt lat="45.6198004" lon="9.4281237"><ele>208.0</ele><time>2026-04-05T12:19:02.701Z</time></trkpt><trkpt lat="45.6198584" lon="9.4282559"><ele>208.0</ele><time>2026-04-05T12:19:04.7Z</time></trkpt><trkpt lat="45.6199147" lon="9.4284051"><ele>208.0</ele><time>2026-04-05T12:19:06.701Z</time></trkpt><trkpt lat="45.6199267" lon="9.4285866"><ele>207.99999999999997</ele><time>2026-04-05T12:19:08.7Z</time></trkpt><trkpt lat="45.6199197" lon="9.4286769"><ele>208.0</ele><time>2026-04-05T12:19:09.7Z</time></trkpt><trkpt lat="45.6198908" lon="9.4288473"><ele>208.0</ele><time>2026-04-05T12:19:11.701Z</time></trkpt><trkpt lat="45.6198615" lon="9.4290161"><ele>208.0</ele><time>2026-04-05T12:19:13.701Z</time></trkpt><trkpt lat="45.6198444" lon="9.4291059"><ele>207.99999999999997</ele><time>2026-04-05T12:19:14.701Z</time></trkpt><trkpt lat="45.6198217" lon="9.4292019"><ele>208.0</ele><time>2026-04-05T12:19:15.701Z</time></trkpt><trkpt lat="45.6197888" lon="9.4293805"><ele>207.99999999999997</ele><time>2026-04-05T12:19:17.7Z</time></trkpt><trkpt lat="45.619775" lon="9.429481"><ele>208.0</ele><time>2026-04-05T12:19:18.701Z</time></trkpt><trkpt lat="45.6197405" lon="9.4296545"><ele>208.0</ele><time>2026-04-05T12:19:20.701Z</time></trkpt><trkpt lat="45.6197219" lon="9.4297408"><ele>208.0</ele><time>2026-04-05T12:19:21.701Z</time></trkpt><trkpt lat="45.6197027" lon="9.429831"><ele>207.99999999999997</ele><time>2026-04-05T12:19:22.701Z</time></trkpt><trkpt lat="45.6196663" lon="9.4299065"><ele>208.0</ele><time>2026-04-05T12:19:23.701Z</time></trkpt><trkpt lat="45.6196171" lon="9.4299743"><ele>208.0</ele><time>2026-04-05T12:19:24.701Z</time></trkpt><trkpt lat="45.619567" lon="9.4300345"><ele>208.0</ele><time>2026-04-05T12:19:25.701Z</time></trkpt><trkpt lat="45.619509" lon="9.4300864"><ele>208.0</ele><time>2026-04-05T12:19:26.701Z</time></trkpt><trkpt lat="45.6193978" lon="9.4301727"><ele>208.0</ele><time>2026-04-05T12:19:28.701Z</time></trkpt><trkpt lat="45.6192823" lon="9.4302563"><ele>208.0</ele><time>2026-04-05T12:19:30.701Z</time></trkpt><trkpt lat="45.6192208" lon="9.4302964"><ele>207.99999999999997</ele><time>2026-04-05T12:19:31.701Z</time></trkpt><trkpt lat="45.6191586" lon="9.430322"><ele>208.0</ele><time>2026-04-05T12:19:32.701Z</time></trkpt><trkpt lat="45.6190954" lon="9.4303506"><ele>208.0</ele><time>2026-04-05T12:19:33.701Z</time></trkpt><trkpt lat="45.6190307" lon="9.4303813"><ele>208.0</ele><time>2026-04-05T12:19:34.701Z</time></trkpt><trkpt lat="45.6189682" lon="9.4304065"><ele>207.99999999999997</ele><time>2026-04-05T12:19:35.7Z</time></trkpt><trkpt lat="45.6188452" lon="9.4304706"><ele>208.0</ele><time>2026-04-05T12:19:37.7Z</time></trkpt><trkpt lat="45.6187828" lon="9.4304944"><ele>208.0</ele><time>2026-04-05T12:19:38.7Z</time></trkpt><trkpt lat="45.618715" lon="9.4305281"><ele>208.0</ele><time>2026-04-05T12:19:39.701Z</time></trkpt><trkpt lat="45.6186509" lon="9.430548"><ele>208.0</ele><time>2026-04-05T12:19:40.7Z</time></trkpt><trkpt lat="45.6185811" lon="9.4305832"><ele>208.0</ele><time>2026-04-05T12:19:41.701Z</time></trkpt><trkpt lat="45.6185158" lon="9.4306113"><ele>208.0</ele><time>2026-04-05T12:19:42.701Z</time></trkpt><trkpt lat="45.6184519" lon="9.4306433"><ele>208.0</ele><time>2026-04-05T12:19:43.701Z</time></trkpt><trkpt lat="45.6183859" lon="9.4306786"><ele>208.0</ele><time>2026-04-05T12:19:44.7Z</time></trkpt><trkpt lat="45.6183314" lon="9.4307342"><ele>208.0</ele><time>2026-04-05T12:19:45.7Z</time></trkpt><trkpt lat="45.6182788" lon="9.4307924"><ele>208.0</ele><time>2026-04-05T12:19:46.7Z</time></trkpt><trkpt lat="45.6182276" lon="9.4308613"><ele>208.0</ele><time>2026-04-05T12:19:47.701Z</time></trkpt><trkpt lat="45.6181834" lon="9.4309275"><ele>208.0</ele><time>2026-04-05T12:19:48.701Z</time></trkpt><trkpt lat="45.6181377" lon="9.4310001"><ele>208.0</ele><time>2026-04-05T12:19:49.701Z</time></trkpt><trkpt lat="45.6180944" lon="9.4310778"><ele>208.0</ele><time>2026-04-05T12:19:50.701Z</time></trkpt><trkpt lat="45.6180684" lon="9.4311636"><ele>208.0</ele><time>2026-04-05T12:19:51.701Z</time></trkpt><trkpt lat="45.6180364" lon="9.4312461"><ele>207.85714285714286</ele><time>2026-04-05T12:19:52.701Z</time></trkpt><trkpt lat="45.6180047" lon="9.4313292"><ele>207.71428571428572</ele><time>2026-04-05T12:19:53.701Z</time></trkpt><trkpt lat="45.6179747" lon="9.4314116"><ele>207.57142857142858</ele><time>2026-04-05T12:19:54.701Z</time></trkpt><trkpt lat="45.6179394" lon="9.4315026"><ele>207.42857142857144</ele><time>2026-04-05T12:19:55.701Z</time></trkpt><trkpt lat="45.6179104" lon="9.4315831"><ele>207.28571428571428</ele><time>2026-04-05T12:19:56.7Z</time></trkpt><trkpt lat="45.6178768" lon="9.4316718"><ele>207.14285714285717</ele><time>2026-04-05T12:19:57.701Z</time></trkpt><trkpt lat="45.6178506" lon="9.4317578"><ele>207.0</ele><time>2026-04-05T12:19:58.701Z</time></trkpt><trkpt lat="45.6178208" lon="9.4318461"><ele>206.8</ele><time>2026-04-05T12:19:59.7Z</time></trkpt><trkpt lat="45.6177941" lon="9.4319307"><ele>206.6</ele><time>2026-04-05T12:20:00.701Z</time></trkpt><trkpt lat="45.6177468" lon="9.4320934"><ele>206.4</ele><time>2026-04-05T12:20:02.7Z</time></trkpt><trkpt lat="45.6176878" lon="9.4322633"><ele>206.20000000000002</ele><time>2026-04-05T12:20:04.701Z</time></trkpt><trkpt lat="45.6176568" lon="9.4323497"><ele>206.0</ele><time>2026-04-05T12:20:05.701Z</time></trkpt><trkpt lat="45.6176204" lon="9.4324269"><ele>206.00000000000003</ele><time>2026-04-05T12:20:06.701Z</time></trkpt><trkpt lat="45.6175822" lon="9.4325108"><ele>206.0</ele><time>2026-04-05T12:20:07.701Z</time></trkpt><trkpt lat="45.617501" lon="9.4326584"><ele>206.0</ele><time>2026-04-05T12:20:09.701Z</time></trkpt><trkpt lat="45.6174594" lon="9.432727"><ele>206.0</ele><time>2026-04-05T12:20:10.701Z</time></trkpt><trkpt lat="45.6174099" lon="9.4328043"><ele>206.00000000000003</ele><time>2026-04-05T12:20:11.701Z</time></trkpt><trkpt lat="45.6173693" lon="9.4328743"><ele>206.0</ele><time>2026-04-05T12:20:12.7Z</time></trkpt><trkpt lat="45.6172844" lon="9.4330115"><ele>205.99999999999997</ele><time>2026-04-05T12:20:14.701Z</time></trkpt><trkpt lat="45.6172412" lon="9.4330839"><ele>206.0</ele><time>2026-04-05T12:20:15.701Z</time></trkpt><trkpt lat="45.6171957" lon="9.433164"><ele>206.0</ele><time>2026-04-05T12:20:16.701Z</time></trkpt><trkpt lat="45.6171487" lon="9.4332428"><ele>206.0</ele><time>2026-04-05T12:20:17.701Z</time></trkpt><trkpt lat="45.6171044" lon="9.4333151"><ele>206.0</ele><time>2026-04-05T12:20:18.7Z</time></trkpt><trkpt lat="45.6170507" lon="9.4333885"><ele>205.99999999999997</ele><time>2026-04-05T12:20:19.7Z</time></trkpt><trkpt lat="45.6170082" lon="9.433459"><ele>206.0</ele><time>2026-04-05T12:20:20.701Z</time></trkpt><trkpt lat="45.6169595" lon="9.4335309"><ele>206.00000000000003</ele><time>2026-04-05T12:20:21.701Z</time></trkpt><trkpt lat="45.6169173" lon="9.4336115"><ele>206.0</ele><time>2026-04-05T12:20:22.701Z</time></trkpt><trkpt lat="45.6168703" lon="9.433684"><ele>206.0</ele><time>2026-04-05T12:20:23.701Z</time></trkpt><trkpt lat="45.6168232" lon="9.4337562"><ele>206.0</ele><time>2026-04-05T12:20:24.701Z</time></trkpt><trkpt lat="45.6167372" lon="9.4338703"><ele>206.00000000000003</ele><time>2026-04-05T12:20:26.7Z</time></trkpt><trkpt lat="45.6166304" lon="9.4339182"><ele>206.0</ele><time>2026-04-05T12:20:28.701Z</time></trkpt><trkpt lat="45.6165229" lon="9.4338662"><ele>206.00000000000003</ele><time>2026-04-05T12:20:30.701Z</time></trkpt><trkpt lat="45.616471" lon="9.4338121"><ele>206.0</ele><time>2026-04-05T12:20:31.701Z</time></trkpt><trkpt lat="45.6164244" lon="9.4337472"><ele>206.0</ele><time>2026-04-05T12:20:32.701Z</time></trkpt><trkpt lat="45.6163815" lon="9.4336727"><ele>206.0</ele><time>2026-04-05T12:20:33.701Z</time></trkpt><trkpt lat="45.6163239" lon="9.4335134"><ele>206.00000000000003</ele><time>2026-04-05T12:20:35.701Z</time></trkpt><trkpt lat="45.616302" lon="9.4334286"><ele>206.0</ele><time>2026-04-05T12:20:36.701Z</time></trkpt><trkpt lat="45.6162756" lon="9.4332519"><ele>205.75</ele><time>2026-04-05T12:20:38.7Z</time></trkpt><trkpt lat="45.6162614" lon="9.4330773"><ele>205.5</ele><time>2026-04-05T12:20:40.701Z</time></trkpt><trkpt lat="45.6162524" lon="9.4328959"><ele>205.25</ele><time>2026-04-05T12:20:42.701Z</time></trkpt><trkpt lat="45.6162321" lon="9.4327359"><ele>205.0</ele><time>2026-04-05T12:20:44.701Z</time></trkpt><trkpt lat="45.616215" lon="9.432564"><ele>205.0</ele><time>2026-04-05T12:20:46.701Z</time></trkpt><trkpt lat="45.6161944" lon="9.4324021"><ele>205.0</ele><time>2026-04-05T12:20:48.701Z</time></trkpt><trkpt lat="45.6161864" lon="9.4322258"><ele>205.0</ele><time>2026-04-05T12:20:50.701Z</time></trkpt><trkpt lat="45.6161756" lon="9.4320903"><ele>205.0</ele><time>2026-04-05T12:20:52.701Z</time></trkpt><trkpt lat="45.6160999" lon="9.4320243"><ele>205.0</ele><time>2026-04-05T12:20:55.701Z</time></trkpt><trkpt lat="45.616037" lon="9.4320285"><ele>205.0</ele><time>2026-04-05T12:20:57.701Z</time></trkpt><trkpt lat="45.6159952" lon="9.4321072"><ele>205.0</ele><time>2026-04-05T12:20:59.7Z</time></trkpt><trkpt lat="45.6159786" lon="9.4322461"><ele>205.0</ele><time>2026-04-05T12:21:01.701Z</time></trkpt><trkpt lat="45.6159531" lon="9.4323766"><ele>205.0</ele><time>2026-04-05T12:21:03.701Z</time></trkpt><trkpt lat="45.6159378" lon="9.4325427"><ele>205.0</ele><time>2026-04-05T12:21:05.701Z</time></trkpt><trkpt lat="45.6159286" lon="9.4326911"><ele>204.5</ele><time>2026-04-05T12:21:07.7Z</time></trkpt><trkpt lat="45.615902" lon="9.4327972"><ele>204.0</ele><time>2026-04-05T12:21:09.7Z</time></trkpt><trkpt lat="45.6157233" lon="9.4332672"><ele>204.0</ele><time>2026-04-05T12:21:18.742Z</time></trkpt><trkpt lat="45.6156882" lon="9.4333683"><ele>204.0</ele><time>2026-04-05T12:21:20.706Z</time></trkpt><trkpt lat="45.6156543" lon="9.4334925"><ele>204.0</ele><time>2026-04-05T12:21:22.707Z</time></trkpt><trkpt lat="45.6155864" lon="9.4335103"><ele>204.0</ele><time>2026-04-05T12:21:24.707Z</time></trkpt><trkpt lat="45.6155005" lon="9.4334717"><ele>204.0</ele><time>2026-04-05T12:21:26.707Z</time></trkpt><trkpt lat="45.6153993" lon="9.4334314"><ele>204.0</ele><time>2026-04-05T12:21:28.707Z</time></trkpt><trkpt lat="45.6152991" lon="9.433371"><ele>204.25</ele><time>2026-04-05T12:21:30.706Z</time></trkpt><trkpt lat="45.6151863" lon="9.4333304"><ele>204.5</ele><time>2026-04-05T12:21:32.707Z</time></trkpt><trkpt lat="45.6150741" lon="9.4332829"><ele>204.75</ele><time>2026-04-05T12:21:34.706Z</time></trkpt><trkpt lat="45.6149681" lon="9.4332237"><ele>205.0</ele><time>2026-04-05T12:21:36.706Z</time></trkpt><trkpt lat="45.6148572" lon="9.4331619"><ele>205.0</ele><time>2026-04-05T12:21:38.707Z</time></trkpt><trkpt lat="45.6147433" lon="9.4331043"><ele>205.0</ele><time>2026-04-05T12:21:40.707Z</time></trkpt><trkpt lat="45.614681" lon="9.433076"><ele>205.0</ele><time>2026-04-05T12:21:41.707Z</time></trkpt><trkpt lat="45.6145602" lon="9.4330253"><ele>205.0</ele><time>2026-04-05T12:21:43.707Z</time></trkpt><trkpt lat="45.6144984" lon="9.4329943"><ele>205.0</ele><time>2026-04-05T12:21:44.707Z</time></trkpt><trkpt lat="45.6143846" lon="9.4329236"><ele>204.5</ele><time>2026-04-05T12:21:46.707Z</time></trkpt><trkpt lat="45.6142671" lon="9.4328687"><ele>204.0</ele><time>2026-04-05T12:21:48.706Z</time></trkpt><trkpt lat="45.6141508" lon="9.4328173"><ele>203.5</ele><time>2026-04-05T12:21:50.707Z</time></trkpt><trkpt lat="45.6140458" lon="9.4328064"><ele>203.0</ele><time>2026-04-05T12:21:52.706Z</time></trkpt><trkpt lat="45.6139476" lon="9.4328523"><ele>203.00000000000003</ele><time>2026-04-05T12:21:54.706Z</time></trkpt><trkpt lat="45.6138386" lon="9.4329036"><ele>203.0</ele><time>2026-04-05T12:21:56.707Z</time></trkpt><trkpt lat="45.6137201" lon="9.4328807"><ele>203.0</ele><time>2026-04-05T12:21:58.706Z</time></trkpt><trkpt lat="45.6136577" lon="9.4328414"><ele>203.0</ele><time>2026-04-05T12:21:59.707Z</time></trkpt><trkpt lat="45.6135949" lon="9.4328158"><ele>203.00000000000003</ele><time>2026-04-05T12:22:00.707Z</time></trkpt><trkpt lat="45.6135261" lon="9.4327804"><ele>203.0</ele><time>2026-04-05T12:22:01.706Z</time></trkpt><trkpt lat="45.6134625" lon="9.4327499"><ele>203.0</ele><time>2026-04-05T12:22:02.707Z</time></trkpt><trkpt lat="45.6133501" lon="9.4326746"><ele>203.0</ele><time>2026-04-05T12:22:04.706Z</time></trkpt><trkpt lat="45.6132843" lon="9.4326462"><ele>203.0</ele><time>2026-04-05T12:22:05.707Z</time></trkpt><trkpt lat="45.6132192" lon="9.4326146"><ele>203.0</ele><time>2026-04-05T12:22:06.706Z</time></trkpt><trkpt lat="45.613102" lon="9.4325563"><ele>203.0</ele><time>2026-04-05T12:22:08.707Z</time></trkpt><trkpt lat="45.6129867" lon="9.4325076"><ele>203.0</ele><time>2026-04-05T12:22:10.706Z</time></trkpt><trkpt lat="45.6128706" lon="9.4324622"><ele>203.0</ele><time>2026-04-05T12:22:12.707Z</time></trkpt><trkpt lat="45.6127916" lon="9.4323429"><ele>203.0</ele><time>2026-04-05T12:22:14.706Z</time></trkpt><trkpt lat="45.6127662" lon="9.4321925"><ele>203.0</ele><time>2026-04-05T12:22:16.707Z</time></trkpt><trkpt lat="45.6127899" lon="9.432028"><ele>202.8</ele><time>2026-04-05T12:22:18.707Z</time></trkpt><trkpt lat="45.612813" lon="9.4318579"><ele>202.60000000000002</ele><time>2026-04-05T12:22:20.706Z</time></trkpt><trkpt lat="45.6128232" lon="9.4317673"><ele>202.39999999999998</ele><time>2026-04-05T12:22:21.707Z</time></trkpt><trkpt lat="45.6128504" lon="9.4315916"><ele>202.2</ele><time>2026-04-05T12:22:23.706Z</time></trkpt><trkpt lat="45.6128751" lon="9.4314237"><ele>202.0</ele><time>2026-04-05T12:22:25.707Z</time></trkpt><trkpt lat="45.6128894" lon="9.4313317"><ele>202.2</ele><time>2026-04-05T12:22:26.707Z</time></trkpt><trkpt lat="45.6129068" lon="9.4311547"><ele>202.39999999999998</ele><time>2026-04-05T12:22:28.707Z</time></trkpt><trkpt lat="45.6129215" lon="9.4309867"><ele>202.60000000000002</ele><time>2026-04-05T12:22:30.707Z</time></trkpt><trkpt lat="45.6129438" lon="9.4308218"><ele>202.8</ele><time>2026-04-05T12:22:32.707Z</time></trkpt><trkpt lat="45.6129514" lon="9.4307319"><ele>203.0</ele><time>2026-04-05T12:22:33.707Z</time></trkpt><trkpt lat="45.612966" lon="9.4305443"><ele>202.8</ele><time>2026-04-05T12:22:35.707Z</time></trkpt><trkpt lat="45.6129742" lon="9.4304541"><ele>202.60000000000002</ele><time>2026-04-05T12:22:36.707Z</time></trkpt><trkpt lat="45.6129821" lon="9.4302867"><ele>202.39999999999998</ele><time>2026-04-05T12:22:38.707Z</time></trkpt><trkpt lat="45.6129946" lon="9.4301194"><ele>202.2</ele><time>2026-04-05T12:22:40.707Z</time></trkpt><trkpt lat="45.6130018" lon="9.429948"><ele>202.0</ele><time>2026-04-05T12:22:42.707Z</time></trkpt><trkpt lat="45.6129839" lon="9.4297766"><ele>201.99999999999997</ele><time>2026-04-05T12:22:44.707Z</time></trkpt><trkpt lat="45.6129606" lon="9.4296895"><ele>202.0</ele><time>2026-04-05T12:22:45.706Z</time></trkpt><trkpt lat="45.6129289" lon="9.4296002"><ele>202.0</ele><time>2026-04-05T12:22:46.707Z</time></trkpt><trkpt lat="45.6128828" lon="9.4295268"><ele>202.0</ele><time>2026-04-05T12:22:47.707Z</time></trkpt><trkpt lat="45.6128346" lon="9.4294687"><ele>201.99999999999997</ele><time>2026-04-05T12:22:48.707Z</time></trkpt><trkpt lat="45.6127939" lon="9.4293991"><ele>202.0</ele><time>2026-04-05T12:22:49.707Z</time></trkpt><trkpt lat="45.6127462" lon="9.4292425"><ele>202.0</ele><time>2026-04-05T12:22:51.707Z</time></trkpt><trkpt lat="45.6127574" lon="9.4290706"><ele>202.0</ele><time>2026-04-05T12:22:53.707Z</time></trkpt><trkpt lat="45.6127758" lon="9.4289834"><ele>202.0</ele><time>2026-04-05T12:22:54.707Z</time></trkpt><trkpt lat="45.6128136" lon="9.4288128"><ele>202.0</ele><time>2026-04-05T12:22:56.707Z</time></trkpt><trkpt lat="45.6128253" lon="9.4287188"><ele>202.0</ele><time>2026-04-05T12:22:57.707Z</time></trkpt><trkpt lat="45.6128447" lon="9.4286161"><ele>201.99999999999997</ele><time>2026-04-05T12:22:58.707Z</time></trkpt><trkpt lat="45.6128664" lon="9.4285304"><ele>202.0</ele><time>2026-04-05T12:22:59.707Z</time></trkpt><trkpt lat="45.6128867" lon="9.4284314"><ele>202.0</ele><time>2026-04-05T12:23:00.707Z</time></trkpt><trkpt lat="45.6129047" lon="9.4283321"><ele>202.0</ele><time>2026-04-05T12:23:01.706Z</time></trkpt><trkpt lat="45.6129345" lon="9.4281502"><ele>201.99999999999997</ele><time>2026-04-05T12:23:03.707Z</time></trkpt><trkpt lat="45.6129561" lon="9.4280505"><ele>202.0</ele><time>2026-04-05T12:23:04.706Z</time></trkpt><trkpt lat="45.612976" lon="9.427953"><ele>201.99999999999997</ele><time>2026-04-05T12:23:05.706Z</time></trkpt><trkpt lat="45.6129923" lon="9.4278464"><ele>202.0</ele><time>2026-04-05T12:23:06.706Z</time></trkpt><trkpt lat="45.6130136" lon="9.4277534"><ele>202.0</ele><time>2026-04-05T12:23:07.707Z</time></trkpt><trkpt lat="45.6130376" lon="9.4276483"><ele>202.0</ele><time>2026-04-05T12:23:08.707Z</time></trkpt><trkpt lat="45.6130536" lon="9.4275506"><ele>201.99999999999997</ele><time>2026-04-05T12:23:09.707Z</time></trkpt><trkpt lat="45.613063" lon="9.4274571"><ele>202.0</ele><time>2026-04-05T12:23:10.707Z</time></trkpt><trkpt lat="45.6130993" lon="9.4272855"><ele>202.0</ele><time>2026-04-05T12:23:12.707Z</time></trkpt><trkpt lat="45.6131261" lon="9.4271112"><ele>202.0</ele><time>2026-04-05T12:23:14.707Z</time></trkpt><trkpt lat="45.6131463" lon="9.4269453"><ele>202.0</ele><time>2026-04-05T12:23:16.707Z</time></trkpt><trkpt lat="45.6131189" lon="9.4267948"><ele>202.0</ele><time>2026-04-05T12:23:18.707Z</time></trkpt><trkpt lat="45.6130434" lon="9.4266707"><ele>201.99999999999997</ele><time>2026-04-05T12:23:20.707Z</time></trkpt><trkpt lat="45.6129405" lon="9.4266412"><ele>202.0</ele><time>2026-04-05T12:23:22.707Z</time></trkpt><trkpt lat="45.6128212" lon="9.4265936"><ele>202.0</ele><time>2026-04-05T12:23:24.707Z</time></trkpt><trkpt lat="45.6127578" lon="9.4265717"><ele>202.0</ele><time>2026-04-05T12:23:25.707Z</time></trkpt><trkpt lat="45.612692" lon="9.4265493"><ele>201.99999999999997</ele><time>2026-04-05T12:23:26.707Z</time></trkpt><trkpt lat="45.6126286" lon="9.4265337"><ele>202.0</ele><time>2026-04-05T12:23:27.707Z</time></trkpt><trkpt lat="45.6125654" lon="9.4264935"><ele>201.99999999999997</ele><time>2026-04-05T12:23:28.706Z</time></trkpt><trkpt lat="45.6125102" lon="9.426432"><ele>202.0</ele><time>2026-04-05T12:23:29.707Z</time></trkpt><trkpt lat="45.6124499" lon="9.4263739"><ele>202.0</ele><time>2026-04-05T12:23:30.707Z</time></trkpt><trkpt lat="45.6123244" lon="9.4263109"><ele>202.0</ele><time>2026-04-05T12:23:32.707Z</time></trkpt><trkpt lat="45.6122605" lon="9.4262857"><ele>201.99999999999997</ele><time>2026-04-05T12:23:33.707Z</time></trkpt><trkpt lat="45.6122005" lon="9.4262367"><ele>202.0</ele><time>2026-04-05T12:23:34.707Z</time></trkpt><trkpt lat="45.6121351" lon="9.42619"><ele>201.42857142857142</ele><time>2026-04-05T12:23:35.707Z</time></trkpt><trkpt lat="45.6120761" lon="9.4261326"><ele>200.85714285714283</ele><time>2026-04-05T12:23:36.707Z</time></trkpt><trkpt lat="45.6120036" lon="9.4260923"><ele>200.28571428571428</ele><time>2026-04-05T12:23:37.707Z</time></trkpt><trkpt lat="45.6119391" lon="9.4260662"><ele>199.71428571428572</ele><time>2026-04-05T12:23:38.707Z</time></trkpt><trkpt lat="45.6118662" lon="9.4260497"><ele>199.14285714285714</ele><time>2026-04-05T12:23:39.707Z</time></trkpt><trkpt lat="45.6117865" lon="9.4260476"><ele>198.57142857142858</ele><time>2026-04-05T12:23:40.706Z</time></trkpt><trkpt lat="45.611713" lon="9.4260339"><ele>198.0</ele><time>2026-04-05T12:23:41.706Z</time></trkpt><trkpt lat="45.611637" lon="9.4260265"><ele>198.0</ele><time>2026-04-05T12:23:42.707Z</time></trkpt><trkpt lat="45.6115693" lon="9.4260345"><ele>198.0</ele><time>2026-04-05T12:23:43.707Z</time></trkpt><trkpt lat="45.6115033" lon="9.4260287"><ele>198.0</ele><time>2026-04-05T12:23:44.707Z</time></trkpt><trkpt lat="45.6113796" lon="9.4260092"><ele>198.0</ele><time>2026-04-05T12:23:46.707Z</time></trkpt><trkpt lat="45.6112708" lon="9.4259873"><ele>198.0</ele><time>2026-04-05T12:23:48.706Z</time></trkpt><trkpt lat="45.6111674" lon="9.4259593"><ele>198.8</ele><time>2026-04-05T12:23:50.707Z</time></trkpt><trkpt lat="45.6110506" lon="9.4259063"><ele>199.60000000000002</ele><time>2026-04-05T12:23:52.707Z</time></trkpt><trkpt lat="45.6109796" lon="9.4258536"><ele>200.39999999999998</ele><time>2026-04-05T12:23:54.707Z</time></trkpt><trkpt lat="45.6108982" lon="9.4258344"><ele>201.2</ele><time>2026-04-05T12:23:59.707Z</time></trkpt><trkpt lat="45.6108349" lon="9.4257282"><ele>202.0</ele><time>2026-04-05T12:24:02.707Z</time></trkpt><trkpt lat="45.6108061" lon="9.425627"><ele>201.99999999999997</ele><time>2026-04-05T12:24:05.707Z</time></trkpt><trkpt lat="45.6107463" lon="9.4255629"><ele>202.0</ele><time>2026-04-05T12:24:07.707Z</time></trkpt><trkpt lat="45.6106789" lon="9.4255614"><ele>202.0</ele><time>2026-04-05T12:24:09.707Z</time></trkpt><trkpt lat="45.6105976" lon="9.4255408"><ele>202.0</ele><time>2026-04-05T12:24:11.707Z</time></trkpt><trkpt lat="45.6105359" lon="9.4255105"><ele>201.99999999999997</ele><time>2026-04-05T12:24:12.707Z</time></trkpt><trkpt lat="45.6104447" lon="9.4254725"><ele>202.0</ele><time>2026-04-05T12:24:14.707Z</time></trkpt><trkpt lat="45.6103487" lon="9.4254375"><ele>201.0</ele><time>2026-04-05T12:24:16.706Z</time></trkpt><trkpt lat="45.6102509" lon="9.4254027"><ele>200.0</ele><time>2026-04-05T12:24:18.707Z</time></trkpt><trkpt lat="45.6101879" lon="9.425366"><ele>199.0</ele><time>2026-04-05T12:24:19.706Z</time></trkpt><trkpt lat="45.6100709" lon="9.4253028"><ele>198.0</ele><time>2026-04-05T12:24:21.707Z</time></trkpt><trkpt lat="45.6099611" lon="9.425253"><ele>197.0</ele><time>2026-04-05T12:24:23.707Z</time></trkpt><trkpt lat="45.6098565" lon="9.4252085"><ele>197.0</ele><time>2026-04-05T12:24:25.707Z</time></trkpt><trkpt lat="45.6097748" lon="9.4251975"><ele>197.0</ele><time>2026-04-05T12:24:27.706Z</time></trkpt><trkpt lat="45.609718" lon="9.4252699"><ele>197.0</ele><time>2026-04-05T12:24:29.707Z</time></trkpt><trkpt lat="45.6096571" lon="9.4253785"><ele>197.0</ele><time>2026-04-05T12:24:31.707Z</time></trkpt><trkpt lat="45.6095945" lon="9.4254954"><ele>197.0</ele><time>2026-04-05T12:24:33.707Z</time></trkpt><trkpt lat="45.6095619" lon="9.4256259"><ele>197.83333333333334</ele><time>2026-04-05T12:24:35.706Z</time></trkpt><trkpt lat="45.6095442" lon="9.4257455"><ele>198.66666666666669</ele><time>2026-04-05T12:24:37.707Z</time></trkpt><trkpt lat="45.6095474" lon="9.4258666"><ele>199.5</ele><time>2026-04-05T12:24:39.707Z</time></trkpt><trkpt lat="45.6096068" lon="9.4259478"><ele>200.33333333333331</ele><time>2026-04-05T12:24:41.707Z</time></trkpt><trkpt lat="45.6096682" lon="9.4259696"><ele>201.16666666666666</ele><time>2026-04-05T12:24:43.706Z</time></trkpt><trkpt lat="45.6097113" lon="9.4260539"><ele>202.0</ele><time>2026-04-05T12:25:57.707Z</time></trkpt><trkpt lat="45.6097128" lon="9.426155"><ele>201.99999999999997</ele><time>2026-04-05T12:25:59.707Z</time></trkpt><trkpt lat="45.6097084" lon="9.4262745"><ele>202.0</ele><time>2026-04-05T12:26:01.707Z</time></trkpt><trkpt lat="45.6097015" lon="9.4264181"><ele>202.0</ele><time>2026-04-05T12:26:03.707Z</time></trkpt><trkpt lat="45.6096843" lon="9.4265522"><ele>202.0</ele><time>2026-04-05T12:26:05.706Z</time></trkpt><trkpt lat="45.609681" lon="9.4266772"><ele>201.99999999999997</ele><time>2026-04-05T12:26:07.706Z</time></trkpt><trkpt lat="45.6096864" lon="9.4267922"><ele>202.0</ele><time>2026-04-05T12:26:09.707Z</time></trkpt><trkpt lat="45.6096723" lon="9.4269044"><ele>202.0</ele><time>2026-04-05T12:26:11.707Z</time></trkpt><trkpt lat="45.6096547" lon="9.4270186"><ele>202.0</ele><time>2026-04-05T12:26:13.707Z</time></trkpt><trkpt lat="45.6096818" lon="9.4271115"><ele>202.0</ele><time>2026-04-05T12:26:15.707Z</time></trkpt><trkpt lat="45.6108562" lon="9.4269669"><ele>200.0</ele><time>2026-04-05T12:29:19.667Z</time></trkpt><trkpt lat="45.6098597" lon="9.4272748"><ele>200.0</ele><time>2026-04-05T12:29:39.485Z</time></trkpt><trkpt lat="45.6099838" lon="9.4272478"><ele>200.0</ele><time>2026-04-05T12:29:50.654Z</time></trkpt><trkpt lat="45.6100017" lon="9.427148"><ele>200.0</ele><time>2026-04-05T12:29:55.703Z</time></trkpt></trkseg></trk></gpx>